<?xml version="1.0" encoding="UTF-8" standalone="no" ?>
<gpx xmlns="http://www.topografix.com/GPX/1/1" xmlns:xsi="http://www.w3.org/2001/XMLSchema-instance" xsi:schemaLocation="http://www.topografix.com/GPX/1/1 http://www.topografix.com/GPX/1/1/gpx.xsd" version="1.1" creator="VisuGPX - https://www.visugpx.com">
  <metadata>
    <name>22-06-22</name>
    <desc><![CDATA[Méral]]></desc>
  </metadata>
  <trk>
    <name><![CDATA[22-06-22]]></name>
    <trkseg>
      <trkpt lat="46.88405" lon="3.14836">
        <ele>206.80000305176</ele>
        <time>2022-06-22T04:08:34.000Z</time>
      </trkpt>
      <trkpt lat="46.88404" lon="3.1484">
        <ele>206.60000610352</ele>
        <time>2022-06-22T04:08:44.000Z</time>
      </trkpt>
      <trkpt lat="46.88403" lon="3.14843">
        <ele>206.39999389648</ele>
        <time>2022-06-22T04:08:49.000Z</time>
      </trkpt>
      <trkpt lat="46.88404" lon="3.14844">
        <ele>206.39999389648</ele>
        <time>2022-06-22T04:08:56.000Z</time>
      </trkpt>
      <trkpt lat="46.88404" lon="3.14844">
        <ele>206.39999389648</ele>
        <time>2022-06-22T04:09:10.000Z</time>
      </trkpt>
      <trkpt lat="46.88405" lon="3.14844">
        <ele>206.39999389648</ele>
        <time>2022-06-22T04:09:11.000Z</time>
      </trkpt>
      <trkpt lat="46.8841" lon="3.14848">
        <ele>206.60000610352</ele>
        <time>2022-06-22T04:09:14.000Z</time>
      </trkpt>
      <trkpt lat="46.88425" lon="3.1486">
        <ele>206.60000610352</ele>
        <time>2022-06-22T04:09:19.000Z</time>
      </trkpt>
      <trkpt lat="46.88431" lon="3.14879">
        <ele>206.19999694824</ele>
        <time>2022-06-22T04:09:23.000Z</time>
      </trkpt>
      <trkpt lat="46.88433" lon="3.14915">
        <ele>205.19999694824</ele>
        <time>2022-06-22T04:09:29.000Z</time>
      </trkpt>
      <trkpt lat="46.88434" lon="3.14956">
        <ele>205</ele>
        <time>2022-06-22T04:09:36.000Z</time>
      </trkpt>
      <trkpt lat="46.88438" lon="3.14968">
        <ele>205</ele>
        <time>2022-06-22T04:09:39.000Z</time>
      </trkpt>
      <trkpt lat="46.8844" lon="3.14969">
        <ele>205</ele>
        <time>2022-06-22T04:09:40.000Z</time>
      </trkpt>
      <trkpt lat="46.88445" lon="3.14968">
        <ele>205</ele>
        <time>2022-06-22T04:09:42.000Z</time>
      </trkpt>
      <trkpt lat="46.88453" lon="3.14952">
        <ele>205.19999694824</ele>
        <time>2022-06-22T04:09:46.000Z</time>
      </trkpt>
      <trkpt lat="46.88456" lon="3.1494">
        <ele>205.80000305176</ele>
        <time>2022-06-22T04:09:48.000Z</time>
      </trkpt>
      <trkpt lat="46.8846" lon="3.14929">
        <ele>206</ele>
        <time>2022-06-22T04:09:50.000Z</time>
      </trkpt>
      <trkpt lat="46.88465" lon="3.14912">
        <ele>206</ele>
        <time>2022-06-22T04:09:53.000Z</time>
      </trkpt>
      <trkpt lat="46.88475" lon="3.14881">
        <ele>207</ele>
        <time>2022-06-22T04:09:58.000Z</time>
      </trkpt>
      <trkpt lat="46.88487" lon="3.14844">
        <ele>207.60000610352</ele>
        <time>2022-06-22T04:10:04.000Z</time>
      </trkpt>
      <trkpt lat="46.88489" lon="3.14837">
        <ele>208</ele>
        <time>2022-06-22T04:10:05.000Z</time>
      </trkpt>
      <trkpt lat="46.88496" lon="3.14818">
        <ele>209.39999389648</ele>
        <time>2022-06-22T04:10:08.000Z</time>
      </trkpt>
      <trkpt lat="46.88503" lon="3.14798">
        <ele>210.80000305176</ele>
        <time>2022-06-22T04:10:11.000Z</time>
      </trkpt>
      <trkpt lat="46.8851" lon="3.14777">
        <ele>210.60000610352</ele>
        <time>2022-06-22T04:10:14.000Z</time>
      </trkpt>
      <trkpt lat="46.8852" lon="3.14749">
        <ele>209.39999389648</ele>
        <time>2022-06-22T04:10:18.000Z</time>
      </trkpt>
      <trkpt lat="46.8854" lon="3.14693">
        <ele>208</ele>
        <time>2022-06-22T04:10:26.000Z</time>
      </trkpt>
      <trkpt lat="46.88544" lon="3.14678">
        <ele>208</ele>
        <time>2022-06-22T04:10:28.000Z</time>
      </trkpt>
      <trkpt lat="46.88557" lon="3.14634">
        <ele>209.19999694824</ele>
        <time>2022-06-22T04:10:34.000Z</time>
      </trkpt>
      <trkpt lat="46.88574" lon="3.14575">
        <ele>210.60000610352</ele>
        <time>2022-06-22T04:10:42.000Z</time>
      </trkpt>
      <trkpt lat="46.88589" lon="3.14524">
        <ele>211.80000305176</ele>
        <time>2022-06-22T04:10:49.000Z</time>
      </trkpt>
      <trkpt lat="46.88592" lon="3.14517">
        <ele>212</ele>
        <time>2022-06-22T04:10:50.000Z</time>
      </trkpt>
      <trkpt lat="46.88607" lon="3.14467">
        <ele>211.80000305176</ele>
        <time>2022-06-22T04:10:57.000Z</time>
      </trkpt>
      <trkpt lat="46.88618" lon="3.14426">
        <ele>211.19999694824</ele>
        <time>2022-06-22T04:11:03.000Z</time>
      </trkpt>
      <trkpt lat="46.8862" lon="3.14419">
        <ele>211.39999389648</ele>
        <time>2022-06-22T04:11:04.000Z</time>
      </trkpt>
      <trkpt lat="46.8863" lon="3.14386">
        <ele>212</ele>
        <time>2022-06-22T04:11:09.000Z</time>
      </trkpt>
      <trkpt lat="46.88639" lon="3.14359">
        <ele>212.80000305176</ele>
        <time>2022-06-22T04:11:13.000Z</time>
      </trkpt>
      <trkpt lat="46.88662" lon="3.14314">
        <ele>213</ele>
        <time>2022-06-22T04:11:20.000Z</time>
      </trkpt>
      <trkpt lat="46.88669" lon="3.14302">
        <ele>213</ele>
        <time>2022-06-22T04:11:22.000Z</time>
      </trkpt>
      <trkpt lat="46.88693" lon="3.14269">
        <ele>213.39999389648</ele>
        <time>2022-06-22T04:11:28.000Z</time>
      </trkpt>
      <trkpt lat="46.8873" lon="3.14223">
        <ele>213.19999694824</ele>
        <time>2022-06-22T04:11:37.000Z</time>
      </trkpt>
      <trkpt lat="46.88734" lon="3.14218">
        <ele>213</ele>
        <time>2022-06-22T04:11:38.000Z</time>
      </trkpt>
      <trkpt lat="46.88758" lon="3.1419">
        <ele>214.80000305176</ele>
        <time>2022-06-22T04:11:44.000Z</time>
      </trkpt>
      <trkpt lat="46.88763" lon="3.14188">
        <ele>214.80000305176</ele>
        <time>2022-06-22T04:11:45.000Z</time>
      </trkpt>
      <trkpt lat="46.88768" lon="3.14186">
        <ele>215</ele>
        <time>2022-06-22T04:11:46.000Z</time>
      </trkpt>
      <trkpt lat="46.88779" lon="3.14187">
        <ele>215</ele>
        <time>2022-06-22T04:11:48.000Z</time>
      </trkpt>
      <trkpt lat="46.88784" lon="3.14188">
        <ele>214.80000305176</ele>
        <time>2022-06-22T04:11:49.000Z</time>
      </trkpt>
      <trkpt lat="46.88834" lon="3.14212">
        <ele>214</ele>
        <time>2022-06-22T04:11:58.000Z</time>
      </trkpt>
      <trkpt lat="46.88877" lon="3.14228">
        <ele>213.60000610352</ele>
        <time>2022-06-22T04:12:06.000Z</time>
      </trkpt>
      <trkpt lat="46.88915" lon="3.14238">
        <ele>214.39999389648</ele>
        <time>2022-06-22T04:12:13.000Z</time>
      </trkpt>
      <trkpt lat="46.88931" lon="3.14242">
        <ele>215</ele>
        <time>2022-06-22T04:12:16.000Z</time>
      </trkpt>
      <trkpt lat="46.88957" lon="3.1425">
        <ele>214.60000610352</ele>
        <time>2022-06-22T04:12:21.000Z</time>
      </trkpt>
      <trkpt lat="46.88962" lon="3.14252">
        <ele>214.60000610352</ele>
        <time>2022-06-22T04:12:22.000Z</time>
      </trkpt>
      <trkpt lat="46.89003" lon="3.14265">
        <ele>215.60000610352</ele>
        <time>2022-06-22T04:12:30.000Z</time>
      </trkpt>
      <trkpt lat="46.89012" lon="3.14269">
        <ele>216</ele>
        <time>2022-06-22T04:12:32.000Z</time>
      </trkpt>
      <trkpt lat="46.89017" lon="3.1427">
        <ele>216.19999694824</ele>
        <time>2022-06-22T04:12:33.000Z</time>
      </trkpt>
      <trkpt lat="46.89024" lon="3.14271">
        <ele>216.39999389648</ele>
        <time>2022-06-22T04:12:35.000Z</time>
      </trkpt>
      <trkpt lat="46.89029" lon="3.1427">
        <ele>216.60000610352</ele>
        <time>2022-06-22T04:12:36.000Z</time>
      </trkpt>
      <trkpt lat="46.89032" lon="3.14266">
        <ele>216.80000305176</ele>
        <time>2022-06-22T04:12:37.000Z</time>
      </trkpt>
      <trkpt lat="46.89035" lon="3.14254">
        <ele>216.80000305176</ele>
        <time>2022-06-22T04:12:39.000Z</time>
      </trkpt>
      <trkpt lat="46.89037" lon="3.14234">
        <ele>216.80000305176</ele>
        <time>2022-06-22T04:12:42.000Z</time>
      </trkpt>
      <trkpt lat="46.89042" lon="3.14212">
        <ele>216</ele>
        <time>2022-06-22T04:12:45.000Z</time>
      </trkpt>
      <trkpt lat="46.89044" lon="3.14205">
        <ele>215.80000305176</ele>
        <time>2022-06-22T04:12:46.000Z</time>
      </trkpt>
      <trkpt lat="46.8906" lon="3.14147">
        <ele>215.19999694824</ele>
        <time>2022-06-22T04:12:54.000Z</time>
      </trkpt>
      <trkpt lat="46.89076" lon="3.14095">
        <ele>215.60000610352</ele>
        <time>2022-06-22T04:13:00.000Z</time>
      </trkpt>
      <trkpt lat="46.89082" lon="3.14075">
        <ele>215.39999389648</ele>
        <time>2022-06-22T04:13:02.000Z</time>
      </trkpt>
      <trkpt lat="46.89088" lon="3.14056">
        <ele>214.60000610352</ele>
        <time>2022-06-22T04:13:04.000Z</time>
      </trkpt>
      <trkpt lat="46.89098" lon="3.14026">
        <ele>214</ele>
        <time>2022-06-22T04:13:07.000Z</time>
      </trkpt>
      <trkpt lat="46.89113" lon="3.13983">
        <ele>211.19999694824</ele>
        <time>2022-06-22T04:13:11.000Z</time>
      </trkpt>
      <trkpt lat="46.89124" lon="3.13953">
        <ele>209.39999389648</ele>
        <time>2022-06-22T04:13:14.000Z</time>
      </trkpt>
      <trkpt lat="46.89133" lon="3.13932">
        <ele>208.19999694824</ele>
        <time>2022-06-22T04:13:16.000Z</time>
      </trkpt>
      <trkpt lat="46.8914" lon="3.13909">
        <ele>206.80000305176</ele>
        <time>2022-06-22T04:13:18.000Z</time>
      </trkpt>
      <trkpt lat="46.89153" lon="3.13874">
        <ele>205.60000610352</ele>
        <time>2022-06-22T04:13:21.000Z</time>
      </trkpt>
      <trkpt lat="46.89162" lon="3.13851">
        <ele>204.19999694824</ele>
        <time>2022-06-22T04:13:23.000Z</time>
      </trkpt>
      <trkpt lat="46.89171" lon="3.13828">
        <ele>202.60000610352</ele>
        <time>2022-06-22T04:13:25.000Z</time>
      </trkpt>
      <trkpt lat="46.89175" lon="3.13818">
        <ele>202.19999694824</ele>
        <time>2022-06-22T04:13:26.000Z</time>
      </trkpt>
      <trkpt lat="46.89181" lon="3.13808">
        <ele>201.80000305176</ele>
        <time>2022-06-22T04:13:27.000Z</time>
      </trkpt>
      <trkpt lat="46.89187" lon="3.13799">
        <ele>201.39999389648</ele>
        <time>2022-06-22T04:13:28.000Z</time>
      </trkpt>
      <trkpt lat="46.892" lon="3.13782">
        <ele>200.80000305176</ele>
        <time>2022-06-22T04:13:30.000Z</time>
      </trkpt>
      <trkpt lat="46.8922" lon="3.13758">
        <ele>200.39999389648</ele>
        <time>2022-06-22T04:13:33.000Z</time>
      </trkpt>
      <trkpt lat="46.89227" lon="3.13751">
        <ele>200.19999694824</ele>
        <time>2022-06-22T04:13:34.000Z</time>
      </trkpt>
      <trkpt lat="46.89246" lon="3.13729">
        <ele>199.60000610352</ele>
        <time>2022-06-22T04:13:37.000Z</time>
      </trkpt>
      <trkpt lat="46.89261" lon="3.13711">
        <ele>199</ele>
        <time>2022-06-22T04:13:40.000Z</time>
      </trkpt>
      <trkpt lat="46.89265" lon="3.13705">
        <ele>199</ele>
        <time>2022-06-22T04:13:41.000Z</time>
      </trkpt>
      <trkpt lat="46.8927" lon="3.137">
        <ele>199</ele>
        <time>2022-06-22T04:13:42.000Z</time>
      </trkpt>
      <trkpt lat="46.89286" lon="3.13683">
        <ele>199</ele>
        <time>2022-06-22T04:13:45.000Z</time>
      </trkpt>
      <trkpt lat="46.89307" lon="3.13658">
        <ele>198</ele>
        <time>2022-06-22T04:13:49.000Z</time>
      </trkpt>
      <trkpt lat="46.89328" lon="3.13632">
        <ele>197.19999694824</ele>
        <time>2022-06-22T04:13:53.000Z</time>
      </trkpt>
      <trkpt lat="46.89344" lon="3.13613">
        <ele>196.39999389648</ele>
        <time>2022-06-22T04:13:56.000Z</time>
      </trkpt>
      <trkpt lat="46.8939" lon="3.13558">
        <ele>197.60000610352</ele>
        <time>2022-06-22T04:14:05.000Z</time>
      </trkpt>
      <trkpt lat="46.89395" lon="3.13552">
        <ele>197.80000305176</ele>
        <time>2022-06-22T04:14:06.000Z</time>
      </trkpt>
      <trkpt lat="46.89431" lon="3.13509">
        <ele>195.60000610352</ele>
        <time>2022-06-22T04:14:13.000Z</time>
      </trkpt>
      <trkpt lat="46.89441" lon="3.13498">
        <ele>194.80000305176</ele>
        <time>2022-06-22T04:14:15.000Z</time>
      </trkpt>
      <trkpt lat="46.89479" lon="3.13462">
        <ele>194</ele>
        <time>2022-06-22T04:14:22.000Z</time>
      </trkpt>
      <trkpt lat="46.89519" lon="3.13428">
        <ele>193.80000305176</ele>
        <time>2022-06-22T04:14:30.000Z</time>
      </trkpt>
      <trkpt lat="46.89558" lon="3.13386">
        <ele>195</ele>
        <time>2022-06-22T04:14:38.000Z</time>
      </trkpt>
      <trkpt lat="46.89584" lon="3.13352">
        <ele>197.19999694824</ele>
        <time>2022-06-22T04:14:44.000Z</time>
      </trkpt>
      <trkpt lat="46.89589" lon="3.13347">
        <ele>197.80000305176</ele>
        <time>2022-06-22T04:14:45.000Z</time>
      </trkpt>
      <trkpt lat="46.89616" lon="3.13311">
        <ele>197</ele>
        <time>2022-06-22T04:14:51.000Z</time>
      </trkpt>
      <trkpt lat="46.89626" lon="3.13301">
        <ele>196.80000305176</ele>
        <time>2022-06-22T04:14:53.000Z</time>
      </trkpt>
      <trkpt lat="46.89646" lon="3.13288">
        <ele>196</ele>
        <time>2022-06-22T04:14:57.000Z</time>
      </trkpt>
      <trkpt lat="46.8969" lon="3.13262">
        <ele>197.39999389648</ele>
        <time>2022-06-22T04:15:05.000Z</time>
      </trkpt>
      <trkpt lat="46.89727" lon="3.13237">
        <ele>199</ele>
        <time>2022-06-22T04:15:12.000Z</time>
      </trkpt>
      <trkpt lat="46.89732" lon="3.13233">
        <ele>199</ele>
        <time>2022-06-22T04:15:13.000Z</time>
      </trkpt>
      <trkpt lat="46.89762" lon="3.13209">
        <ele>200</ele>
        <time>2022-06-22T04:15:19.000Z</time>
      </trkpt>
      <trkpt lat="46.89795" lon="3.13187">
        <ele>199</ele>
        <time>2022-06-22T04:15:26.000Z</time>
      </trkpt>
      <trkpt lat="46.89822" lon="3.13163">
        <ele>198.80000305176</ele>
        <time>2022-06-22T04:15:32.000Z</time>
      </trkpt>
      <trkpt lat="46.89826" lon="3.13158">
        <ele>198.60000610352</ele>
        <time>2022-06-22T04:15:33.000Z</time>
      </trkpt>
      <trkpt lat="46.89842" lon="3.13138">
        <ele>198.60000610352</ele>
        <time>2022-06-22T04:15:37.000Z</time>
      </trkpt>
      <trkpt lat="46.89859" lon="3.13118">
        <ele>199</ele>
        <time>2022-06-22T04:15:41.000Z</time>
      </trkpt>
      <trkpt lat="46.89897" lon="3.13085">
        <ele>198.39999389648</ele>
        <time>2022-06-22T04:15:49.000Z</time>
      </trkpt>
      <trkpt lat="46.89916" lon="3.13069">
        <ele>199</ele>
        <time>2022-06-22T04:15:53.000Z</time>
      </trkpt>
      <trkpt lat="46.89948" lon="3.13039">
        <ele>200.19999694824</ele>
        <time>2022-06-22T04:16:00.000Z</time>
      </trkpt>
      <trkpt lat="46.89976" lon="3.13">
        <ele>201.39999389648</ele>
        <time>2022-06-22T04:16:07.000Z</time>
      </trkpt>
      <trkpt lat="46.89985" lon="3.1298">
        <ele>202</ele>
        <time>2022-06-22T04:16:10.000Z</time>
      </trkpt>
      <trkpt lat="46.8999" lon="3.12965">
        <ele>202</ele>
        <time>2022-06-22T04:16:12.000Z</time>
      </trkpt>
      <trkpt lat="46.90003" lon="3.12916">
        <ele>201</ele>
        <time>2022-06-22T04:16:18.000Z</time>
      </trkpt>
      <trkpt lat="46.90021" lon="3.12883">
        <ele>201</ele>
        <time>2022-06-22T04:16:23.000Z</time>
      </trkpt>
      <trkpt lat="46.90056" lon="3.12834">
        <ele>202</ele>
        <time>2022-06-22T04:16:31.000Z</time>
      </trkpt>
      <trkpt lat="46.9008" lon="3.12783">
        <ele>201.60000610352</ele>
        <time>2022-06-22T04:16:38.000Z</time>
      </trkpt>
      <trkpt lat="46.90093" lon="3.12724">
        <ele>200</ele>
        <time>2022-06-22T04:16:45.000Z</time>
      </trkpt>
      <trkpt lat="46.90098" lon="3.12699">
        <ele>200.39999389648</ele>
        <time>2022-06-22T04:16:48.000Z</time>
      </trkpt>
      <trkpt lat="46.90103" lon="3.12683">
        <ele>201</ele>
        <time>2022-06-22T04:16:50.000Z</time>
      </trkpt>
      <trkpt lat="46.90106" lon="3.12675">
        <ele>201</ele>
        <time>2022-06-22T04:16:51.000Z</time>
      </trkpt>
      <trkpt lat="46.90128" lon="3.12636">
        <ele>203.80000305176</ele>
        <time>2022-06-22T04:16:57.000Z</time>
      </trkpt>
      <trkpt lat="46.90159" lon="3.12588">
        <ele>203.60000610352</ele>
        <time>2022-06-22T04:17:05.000Z</time>
      </trkpt>
      <trkpt lat="46.90191" lon="3.12539">
        <ele>203.39999389648</ele>
        <time>2022-06-22T04:17:13.000Z</time>
      </trkpt>
      <trkpt lat="46.90222" lon="3.12492">
        <ele>204</ele>
        <time>2022-06-22T04:17:21.000Z</time>
      </trkpt>
      <trkpt lat="46.9023" lon="3.1248">
        <ele>204.19999694824</ele>
        <time>2022-06-22T04:17:23.000Z</time>
      </trkpt>
      <trkpt lat="46.9026" lon="3.12433">
        <ele>203.19999694824</ele>
        <time>2022-06-22T04:17:31.000Z</time>
      </trkpt>
      <trkpt lat="46.90264" lon="3.12427">
        <ele>203.19999694824</ele>
        <time>2022-06-22T04:17:32.000Z</time>
      </trkpt>
      <trkpt lat="46.90295" lon="3.12377">
        <ele>202.19999694824</ele>
        <time>2022-06-22T04:17:40.000Z</time>
      </trkpt>
      <trkpt lat="46.90315" lon="3.12331">
        <ele>204.60000610352</ele>
        <time>2022-06-22T04:17:46.000Z</time>
      </trkpt>
      <trkpt lat="46.9033" lon="3.12283">
        <ele>205.80000305176</ele>
        <time>2022-06-22T04:17:52.000Z</time>
      </trkpt>
      <trkpt lat="46.90351" lon="3.12231">
        <ele>204.19999694824</ele>
        <time>2022-06-22T04:17:59.000Z</time>
      </trkpt>
      <trkpt lat="46.90376" lon="3.12179">
        <ele>203</ele>
        <time>2022-06-22T04:18:06.000Z</time>
      </trkpt>
      <trkpt lat="46.90379" lon="3.12172">
        <ele>202.80000305176</ele>
        <time>2022-06-22T04:18:07.000Z</time>
      </trkpt>
      <trkpt lat="46.90411" lon="3.12103">
        <ele>203.80000305176</ele>
        <time>2022-06-22T04:18:16.000Z</time>
      </trkpt>
      <trkpt lat="46.90444" lon="3.12031">
        <ele>203</ele>
        <time>2022-06-22T04:18:25.000Z</time>
      </trkpt>
      <trkpt lat="46.90466" lon="3.11972">
        <ele>199.60000610352</ele>
        <time>2022-06-22T04:18:32.000Z</time>
      </trkpt>
      <trkpt lat="46.90477" lon="3.11914">
        <ele>199</ele>
        <time>2022-06-22T04:18:38.000Z</time>
      </trkpt>
      <trkpt lat="46.90479" lon="3.11894">
        <ele>199</ele>
        <time>2022-06-22T04:18:40.000Z</time>
      </trkpt>
      <trkpt lat="46.90486" lon="3.11813">
        <ele>198</ele>
        <time>2022-06-22T04:18:48.000Z</time>
      </trkpt>
      <trkpt lat="46.90487" lon="3.11803">
        <ele>198</ele>
        <time>2022-06-22T04:18:49.000Z</time>
      </trkpt>
      <trkpt lat="46.90488" lon="3.11793">
        <ele>198.19999694824</ele>
        <time>2022-06-22T04:18:50.000Z</time>
      </trkpt>
      <trkpt lat="46.9049" lon="3.11772">
        <ele>198.19999694824</ele>
        <time>2022-06-22T04:18:52.000Z</time>
      </trkpt>
      <trkpt lat="46.90498" lon="3.11709">
        <ele>198</ele>
        <time>2022-06-22T04:18:58.000Z</time>
      </trkpt>
      <trkpt lat="46.90499" lon="3.11698">
        <ele>198</ele>
        <time>2022-06-22T04:18:59.000Z</time>
      </trkpt>
      <trkpt lat="46.90506" lon="3.11647">
        <ele>196.80000305176</ele>
        <time>2022-06-22T04:19:04.000Z</time>
      </trkpt>
      <trkpt lat="46.90509" lon="3.11627">
        <ele>196</ele>
        <time>2022-06-22T04:19:06.000Z</time>
      </trkpt>
      <trkpt lat="46.90516" lon="3.11576">
        <ele>197.39999389648</ele>
        <time>2022-06-22T04:19:11.000Z</time>
      </trkpt>
      <trkpt lat="46.90522" lon="3.11536">
        <ele>199</ele>
        <time>2022-06-22T04:19:15.000Z</time>
      </trkpt>
      <trkpt lat="46.90535" lon="3.11458">
        <ele>197.39999389648</ele>
        <time>2022-06-22T04:19:23.000Z</time>
      </trkpt>
      <trkpt lat="46.90542" lon="3.1142">
        <ele>196.39999389648</ele>
        <time>2022-06-22T04:19:27.000Z</time>
      </trkpt>
      <trkpt lat="46.90548" lon="3.11391">
        <ele>195.19999694824</ele>
        <time>2022-06-22T04:19:30.000Z</time>
      </trkpt>
      <trkpt lat="46.9055" lon="3.11382">
        <ele>195</ele>
        <time>2022-06-22T04:19:31.000Z</time>
      </trkpt>
      <trkpt lat="46.90566" lon="3.1131">
        <ele>194</ele>
        <time>2022-06-22T04:19:39.000Z</time>
      </trkpt>
      <trkpt lat="46.90579" lon="3.11249">
        <ele>194</ele>
        <time>2022-06-22T04:19:47.000Z</time>
      </trkpt>
      <trkpt lat="46.90591" lon="3.11196">
        <ele>194</ele>
        <time>2022-06-22T04:19:54.000Z</time>
      </trkpt>
      <trkpt lat="46.90599" lon="3.11159">
        <ele>195</ele>
        <time>2022-06-22T04:19:59.000Z</time>
      </trkpt>
      <trkpt lat="46.90607" lon="3.11129">
        <ele>196</ele>
        <time>2022-06-22T04:20:03.000Z</time>
      </trkpt>
      <trkpt lat="46.90614" lon="3.11091">
        <ele>197.39999389648</ele>
        <time>2022-06-22T04:20:08.000Z</time>
      </trkpt>
      <trkpt lat="46.9062" lon="3.11063">
        <ele>198.39999389648</ele>
        <time>2022-06-22T04:20:12.000Z</time>
      </trkpt>
      <trkpt lat="46.90626" lon="3.11034">
        <ele>199.60000610352</ele>
        <time>2022-06-22T04:20:16.000Z</time>
      </trkpt>
      <trkpt lat="46.90628" lon="3.11027">
        <ele>199.80000305176</ele>
        <time>2022-06-22T04:20:17.000Z</time>
      </trkpt>
      <trkpt lat="46.9063" lon="3.1102">
        <ele>200.19999694824</ele>
        <time>2022-06-22T04:20:18.000Z</time>
      </trkpt>
      <trkpt lat="46.9064" lon="3.10973">
        <ele>202</ele>
        <time>2022-06-22T04:20:25.000Z</time>
      </trkpt>
      <trkpt lat="46.90641" lon="3.10967">
        <ele>202</ele>
        <time>2022-06-22T04:20:26.000Z</time>
      </trkpt>
      <trkpt lat="46.90648" lon="3.1094">
        <ele>202.80000305176</ele>
        <time>2022-06-22T04:20:30.000Z</time>
      </trkpt>
      <trkpt lat="46.90656" lon="3.10905">
        <ele>204.19999694824</ele>
        <time>2022-06-22T04:20:35.000Z</time>
      </trkpt>
      <trkpt lat="46.90667" lon="3.10856">
        <ele>204.60000610352</ele>
        <time>2022-06-22T04:20:42.000Z</time>
      </trkpt>
      <trkpt lat="46.90672" lon="3.10835">
        <ele>205.39999389648</ele>
        <time>2022-06-22T04:20:45.000Z</time>
      </trkpt>
      <trkpt lat="46.90676" lon="3.10814">
        <ele>206</ele>
        <time>2022-06-22T04:20:48.000Z</time>
      </trkpt>
      <trkpt lat="46.90687" lon="3.10772">
        <ele>206.39999389648</ele>
        <time>2022-06-22T04:20:54.000Z</time>
      </trkpt>
      <trkpt lat="46.90697" lon="3.10731">
        <ele>207</ele>
        <time>2022-06-22T04:21:00.000Z</time>
      </trkpt>
      <trkpt lat="46.90701" lon="3.1071">
        <ele>207.80000305176</ele>
        <time>2022-06-22T04:21:03.000Z</time>
      </trkpt>
      <trkpt lat="46.90704" lon="3.10696">
        <ele>208.39999389648</ele>
        <time>2022-06-22T04:21:05.000Z</time>
      </trkpt>
      <trkpt lat="46.90718" lon="3.10658">
        <ele>211</ele>
        <time>2022-06-22T04:21:11.000Z</time>
      </trkpt>
      <trkpt lat="46.90743" lon="3.10621">
        <ele>212</ele>
        <time>2022-06-22T04:21:18.000Z</time>
      </trkpt>
      <trkpt lat="46.90747" lon="3.10616">
        <ele>212</ele>
        <time>2022-06-22T04:21:19.000Z</time>
      </trkpt>
      <trkpt lat="46.90786" lon="3.10574">
        <ele>213</ele>
        <time>2022-06-22T04:21:28.000Z</time>
      </trkpt>
      <trkpt lat="46.90816" lon="3.10541">
        <ele>212.80000305176</ele>
        <time>2022-06-22T04:21:35.000Z</time>
      </trkpt>
      <trkpt lat="46.90828" lon="3.10527">
        <ele>212.39999389648</ele>
        <time>2022-06-22T04:21:38.000Z</time>
      </trkpt>
      <trkpt lat="46.90862" lon="3.1049">
        <ele>214.19999694824</ele>
        <time>2022-06-22T04:21:46.000Z</time>
      </trkpt>
      <trkpt lat="46.90879" lon="3.10472">
        <ele>214.39999389648</ele>
        <time>2022-06-22T04:21:50.000Z</time>
      </trkpt>
      <trkpt lat="46.90905" lon="3.10445">
        <ele>215</ele>
        <time>2022-06-22T04:21:56.000Z</time>
      </trkpt>
      <trkpt lat="46.90934" lon="3.10412">
        <ele>216.80000305176</ele>
        <time>2022-06-22T04:22:03.000Z</time>
      </trkpt>
      <trkpt lat="46.90951" lon="3.10393">
        <ele>217</ele>
        <time>2022-06-22T04:22:07.000Z</time>
      </trkpt>
      <trkpt lat="46.90977" lon="3.10365">
        <ele>216.80000305176</ele>
        <time>2022-06-22T04:22:13.000Z</time>
      </trkpt>
      <trkpt lat="46.91011" lon="3.10327">
        <ele>219</ele>
        <time>2022-06-22T04:22:21.000Z</time>
      </trkpt>
      <trkpt lat="46.91037" lon="3.10299">
        <ele>220</ele>
        <time>2022-06-22T04:22:27.000Z</time>
      </trkpt>
      <trkpt lat="46.9105" lon="3.10286">
        <ele>220</ele>
        <time>2022-06-22T04:22:30.000Z</time>
      </trkpt>
      <trkpt lat="46.91067" lon="3.10268">
        <ele>220</ele>
        <time>2022-06-22T04:22:34.000Z</time>
      </trkpt>
      <trkpt lat="46.9109" lon="3.10239">
        <ele>221.80000305176</ele>
        <time>2022-06-22T04:22:40.000Z</time>
      </trkpt>
      <trkpt lat="46.91101" lon="3.10224">
        <ele>222.80000305176</ele>
        <time>2022-06-22T04:22:43.000Z</time>
      </trkpt>
      <trkpt lat="46.9111" lon="3.10206">
        <ele>223</ele>
        <time>2022-06-22T04:22:46.000Z</time>
      </trkpt>
      <trkpt lat="46.91115" lon="3.10193">
        <ele>223</ele>
        <time>2022-06-22T04:22:48.000Z</time>
      </trkpt>
      <trkpt lat="46.91124" lon="3.10166">
        <ele>223</ele>
        <time>2022-06-22T04:22:52.000Z</time>
      </trkpt>
      <trkpt lat="46.91126" lon="3.10159">
        <ele>223</ele>
        <time>2022-06-22T04:22:53.000Z</time>
      </trkpt>
      <trkpt lat="46.91129" lon="3.10145">
        <ele>223.39999389648</ele>
        <time>2022-06-22T04:22:55.000Z</time>
      </trkpt>
      <trkpt lat="46.91141" lon="3.10098">
        <ele>225</ele>
        <time>2022-06-22T04:23:02.000Z</time>
      </trkpt>
      <trkpt lat="46.91144" lon="3.10084">
        <ele>225</ele>
        <time>2022-06-22T04:23:04.000Z</time>
      </trkpt>
      <trkpt lat="46.91153" lon="3.10044">
        <ele>226</ele>
        <time>2022-06-22T04:23:10.000Z</time>
      </trkpt>
      <trkpt lat="46.91161" lon="3.1001">
        <ele>227.19999694824</ele>
        <time>2022-06-22T04:23:15.000Z</time>
      </trkpt>
      <trkpt lat="46.91165" lon="3.09996">
        <ele>227.80000305176</ele>
        <time>2022-06-22T04:23:17.000Z</time>
      </trkpt>
      <trkpt lat="46.91176" lon="3.09948">
        <ele>229</ele>
        <time>2022-06-22T04:23:24.000Z</time>
      </trkpt>
      <trkpt lat="46.91178" lon="3.09941">
        <ele>229</ele>
        <time>2022-06-22T04:23:25.000Z</time>
      </trkpt>
      <trkpt lat="46.91189" lon="3.09901">
        <ele>229.60000610352</ele>
        <time>2022-06-22T04:23:31.000Z</time>
      </trkpt>
      <trkpt lat="46.91197" lon="3.09868">
        <ele>232</ele>
        <time>2022-06-22T04:23:36.000Z</time>
      </trkpt>
      <trkpt lat="46.912" lon="3.09854">
        <ele>233.19999694824</ele>
        <time>2022-06-22T04:23:38.000Z</time>
      </trkpt>
      <trkpt lat="46.91207" lon="3.09823">
        <ele>235</ele>
        <time>2022-06-22T04:23:43.000Z</time>
      </trkpt>
      <trkpt lat="46.9121" lon="3.09811">
        <ele>235</ele>
        <time>2022-06-22T04:23:45.000Z</time>
      </trkpt>
      <trkpt lat="46.91216" lon="3.09785">
        <ele>235.39999389648</ele>
        <time>2022-06-22T04:23:49.000Z</time>
      </trkpt>
      <trkpt lat="46.91221" lon="3.09766">
        <ele>236</ele>
        <time>2022-06-22T04:23:52.000Z</time>
      </trkpt>
      <trkpt lat="46.91225" lon="3.09747">
        <ele>237.19999694824</ele>
        <time>2022-06-22T04:23:55.000Z</time>
      </trkpt>
      <trkpt lat="46.91227" lon="3.0974">
        <ele>237.39999389648</ele>
        <time>2022-06-22T04:23:56.000Z</time>
      </trkpt>
      <trkpt lat="46.91235" lon="3.09708">
        <ele>238.19999694824</ele>
        <time>2022-06-22T04:24:01.000Z</time>
      </trkpt>
      <trkpt lat="46.91237" lon="3.09701">
        <ele>238.60000610352</ele>
        <time>2022-06-22T04:24:02.000Z</time>
      </trkpt>
      <trkpt lat="46.91243" lon="3.09675">
        <ele>240</ele>
        <time>2022-06-22T04:24:06.000Z</time>
      </trkpt>
      <trkpt lat="46.91251" lon="3.0965">
        <ele>240.60000610352</ele>
        <time>2022-06-22T04:24:10.000Z</time>
      </trkpt>
      <trkpt lat="46.91254" lon="3.09644">
        <ele>240.80000305176</ele>
        <time>2022-06-22T04:24:11.000Z</time>
      </trkpt>
      <trkpt lat="46.91261" lon="3.09627">
        <ele>242</ele>
        <time>2022-06-22T04:24:14.000Z</time>
      </trkpt>
      <trkpt lat="46.91271" lon="3.09604">
        <ele>242.19999694824</ele>
        <time>2022-06-22T04:24:18.000Z</time>
      </trkpt>
      <trkpt lat="46.91274" lon="3.09599">
        <ele>242.60000610352</ele>
        <time>2022-06-22T04:24:19.000Z</time>
      </trkpt>
      <trkpt lat="46.91285" lon="3.09576">
        <ele>243.19999694824</ele>
        <time>2022-06-22T04:24:23.000Z</time>
      </trkpt>
      <trkpt lat="46.91297" lon="3.09554">
        <ele>244</ele>
        <time>2022-06-22T04:24:27.000Z</time>
      </trkpt>
      <trkpt lat="46.913" lon="3.09548">
        <ele>244</ele>
        <time>2022-06-22T04:24:28.000Z</time>
      </trkpt>
      <trkpt lat="46.91312" lon="3.09525">
        <ele>244.60000610352</ele>
        <time>2022-06-22T04:24:32.000Z</time>
      </trkpt>
      <trkpt lat="46.91322" lon="3.09507">
        <ele>245.60000610352</ele>
        <time>2022-06-22T04:24:35.000Z</time>
      </trkpt>
      <trkpt lat="46.91328" lon="3.09495">
        <ele>246.39999389648</ele>
        <time>2022-06-22T04:24:37.000Z</time>
      </trkpt>
      <trkpt lat="46.91355" lon="3.09444">
        <ele>247.39999389648</ele>
        <time>2022-06-22T04:24:46.000Z</time>
      </trkpt>
      <trkpt lat="46.91362" lon="3.09432">
        <ele>247.60000610352</ele>
        <time>2022-06-22T04:24:48.000Z</time>
      </trkpt>
      <trkpt lat="46.91382" lon="3.09389">
        <ele>248</ele>
        <time>2022-06-22T04:24:55.000Z</time>
      </trkpt>
      <trkpt lat="46.91391" lon="3.09369">
        <ele>248.39999389648</ele>
        <time>2022-06-22T04:24:58.000Z</time>
      </trkpt>
      <trkpt lat="46.91414" lon="3.09305">
        <ele>250.19999694824</ele>
        <time>2022-06-22T04:25:07.000Z</time>
      </trkpt>
      <trkpt lat="46.91431" lon="3.09244">
        <ele>250.80000305176</ele>
        <time>2022-06-22T04:25:15.000Z</time>
      </trkpt>
      <trkpt lat="46.9144" lon="3.09215">
        <ele>250.80000305176</ele>
        <time>2022-06-22T04:25:19.000Z</time>
      </trkpt>
      <trkpt lat="46.91446" lon="3.092">
        <ele>250.19999694824</ele>
        <time>2022-06-22T04:25:21.000Z</time>
      </trkpt>
      <trkpt lat="46.91454" lon="3.09189">
        <ele>249.19999694824</ele>
        <time>2022-06-22T04:25:23.000Z</time>
      </trkpt>
      <trkpt lat="46.9146" lon="3.09186">
        <ele>248.80000305176</ele>
        <time>2022-06-22T04:25:24.000Z</time>
      </trkpt>
      <trkpt lat="46.91466" lon="3.09184">
        <ele>248.39999389648</ele>
        <time>2022-06-22T04:25:25.000Z</time>
      </trkpt>
      <trkpt lat="46.91472" lon="3.09182">
        <ele>247.80000305176</ele>
        <time>2022-06-22T04:25:26.000Z</time>
      </trkpt>
      <trkpt lat="46.91496" lon="3.09176">
        <ele>246.80000305176</ele>
        <time>2022-06-22T04:25:30.000Z</time>
      </trkpt>
      <trkpt lat="46.9152" lon="3.0917">
        <ele>246.19999694824</ele>
        <time>2022-06-22T04:25:34.000Z</time>
      </trkpt>
      <trkpt lat="46.91545" lon="3.09164">
        <ele>245.60000610352</ele>
        <time>2022-06-22T04:25:38.000Z</time>
      </trkpt>
      <trkpt lat="46.91552" lon="3.09162">
        <ele>245</ele>
        <time>2022-06-22T04:25:39.000Z</time>
      </trkpt>
      <trkpt lat="46.91591" lon="3.09151">
        <ele>243.19999694824</ele>
        <time>2022-06-22T04:25:45.000Z</time>
      </trkpt>
      <trkpt lat="46.91599" lon="3.09149">
        <ele>242.80000305176</ele>
        <time>2022-06-22T04:25:46.000Z</time>
      </trkpt>
      <trkpt lat="46.91619" lon="3.09144">
        <ele>241.80000305176</ele>
        <time>2022-06-22T04:25:49.000Z</time>
      </trkpt>
      <trkpt lat="46.91668" lon="3.09131">
        <ele>240.39999389648</ele>
        <time>2022-06-22T04:25:56.000Z</time>
      </trkpt>
      <trkpt lat="46.91697" lon="3.09124">
        <ele>239.19999694824</ele>
        <time>2022-06-22T04:26:00.000Z</time>
      </trkpt>
      <trkpt lat="46.91727" lon="3.09116">
        <ele>238</ele>
        <time>2022-06-22T04:26:04.000Z</time>
      </trkpt>
      <trkpt lat="46.91742" lon="3.09112">
        <ele>238</ele>
        <time>2022-06-22T04:26:06.000Z</time>
      </trkpt>
      <trkpt lat="46.91764" lon="3.09106">
        <ele>238</ele>
        <time>2022-06-22T04:26:09.000Z</time>
      </trkpt>
      <trkpt lat="46.91802" lon="3.09096">
        <ele>236.60000610352</ele>
        <time>2022-06-22T04:26:14.000Z</time>
      </trkpt>
      <trkpt lat="46.91824" lon="3.09089">
        <ele>235.60000610352</ele>
        <time>2022-06-22T04:26:17.000Z</time>
      </trkpt>
      <trkpt lat="46.91853" lon="3.09082">
        <ele>235.39999389648</ele>
        <time>2022-06-22T04:26:21.000Z</time>
      </trkpt>
      <trkpt lat="46.91866" lon="3.09079">
        <ele>235.80000305176</ele>
        <time>2022-06-22T04:26:23.000Z</time>
      </trkpt>
      <trkpt lat="46.91905" lon="3.09068">
        <ele>235.80000305176</ele>
        <time>2022-06-22T04:26:29.000Z</time>
      </trkpt>
      <trkpt lat="46.91963" lon="3.09051">
        <ele>233.19999694824</ele>
        <time>2022-06-22T04:26:38.000Z</time>
      </trkpt>
      <trkpt lat="46.91969" lon="3.09048">
        <ele>233.39999389648</ele>
        <time>2022-06-22T04:26:39.000Z</time>
      </trkpt>
      <trkpt lat="46.91982" lon="3.09042">
        <ele>234</ele>
        <time>2022-06-22T04:26:41.000Z</time>
      </trkpt>
      <trkpt lat="46.92012" lon="3.09019">
        <ele>234</ele>
        <time>2022-06-22T04:26:46.000Z</time>
      </trkpt>
      <trkpt lat="46.92022" lon="3.09005">
        <ele>234</ele>
        <time>2022-06-22T04:26:48.000Z</time>
      </trkpt>
      <trkpt lat="46.92029" lon="3.08988">
        <ele>233.39999389648</ele>
        <time>2022-06-22T04:26:50.000Z</time>
      </trkpt>
      <trkpt lat="46.92033" lon="3.08968">
        <ele>233.19999694824</ele>
        <time>2022-06-22T04:26:52.000Z</time>
      </trkpt>
      <trkpt lat="46.92035" lon="3.08947">
        <ele>232.60000610352</ele>
        <time>2022-06-22T04:26:54.000Z</time>
      </trkpt>
      <trkpt lat="46.92037" lon="3.0887">
        <ele>230.60000610352</ele>
        <time>2022-06-22T04:27:01.000Z</time>
      </trkpt>
      <trkpt lat="46.92037" lon="3.08859">
        <ele>230.19999694824</ele>
        <time>2022-06-22T04:27:02.000Z</time>
      </trkpt>
      <trkpt lat="46.92039" lon="3.08824">
        <ele>228.19999694824</ele>
        <time>2022-06-22T04:27:05.000Z</time>
      </trkpt>
      <trkpt lat="46.92039" lon="3.08801">
        <ele>226.60000610352</ele>
        <time>2022-06-22T04:27:07.000Z</time>
      </trkpt>
      <trkpt lat="46.9204" lon="3.08778">
        <ele>224.80000305176</ele>
        <time>2022-06-22T04:27:09.000Z</time>
      </trkpt>
      <trkpt lat="46.92041" lon="3.08755">
        <ele>223.60000610352</ele>
        <time>2022-06-22T04:27:11.000Z</time>
      </trkpt>
      <trkpt lat="46.92042" lon="3.08708">
        <ele>224</ele>
        <time>2022-06-22T04:27:15.000Z</time>
      </trkpt>
      <trkpt lat="46.92043" lon="3.08661">
        <ele>224.19999694824</ele>
        <time>2022-06-22T04:27:19.000Z</time>
      </trkpt>
      <trkpt lat="46.92045" lon="3.08605">
        <ele>222.80000305176</ele>
        <time>2022-06-22T04:27:24.000Z</time>
      </trkpt>
      <trkpt lat="46.92047" lon="3.0855">
        <ele>222.80000305176</ele>
        <time>2022-06-22T04:27:29.000Z</time>
      </trkpt>
      <trkpt lat="46.9205" lon="3.08528">
        <ele>222.19999694824</ele>
        <time>2022-06-22T04:27:31.000Z</time>
      </trkpt>
      <trkpt lat="46.92056" lon="3.08507">
        <ele>222.39999389648</ele>
        <time>2022-06-22T04:27:33.000Z</time>
      </trkpt>
      <trkpt lat="46.92069" lon="3.08482">
        <ele>223</ele>
        <time>2022-06-22T04:27:36.000Z</time>
      </trkpt>
      <trkpt lat="46.92074" lon="3.08475">
        <ele>223.19999694824</ele>
        <time>2022-06-22T04:27:37.000Z</time>
      </trkpt>
      <trkpt lat="46.9209" lon="3.08457">
        <ele>224.39999389648</ele>
        <time>2022-06-22T04:27:40.000Z</time>
      </trkpt>
      <trkpt lat="46.9211" lon="3.08436">
        <ele>223.80000305176</ele>
        <time>2022-06-22T04:27:44.000Z</time>
      </trkpt>
      <trkpt lat="46.92154" lon="3.08387">
        <ele>223.80000305176</ele>
        <time>2022-06-22T04:27:53.000Z</time>
      </trkpt>
      <trkpt lat="46.92174" lon="3.08369">
        <ele>225.19999694824</ele>
        <time>2022-06-22T04:27:57.000Z</time>
      </trkpt>
      <trkpt lat="46.92178" lon="3.08367">
        <ele>225.60000610352</ele>
        <time>2022-06-22T04:27:58.000Z</time>
      </trkpt>
      <trkpt lat="46.92183" lon="3.08366">
        <ele>226</ele>
        <time>2022-06-22T04:27:59.000Z</time>
      </trkpt>
      <trkpt lat="46.92192" lon="3.08368">
        <ele>226.60000610352</ele>
        <time>2022-06-22T04:28:01.000Z</time>
      </trkpt>
      <trkpt lat="46.92197" lon="3.08371">
        <ele>227</ele>
        <time>2022-06-22T04:28:02.000Z</time>
      </trkpt>
      <trkpt lat="46.9222" lon="3.08389">
        <ele>228.39999389648</ele>
        <time>2022-06-22T04:28:07.000Z</time>
      </trkpt>
      <trkpt lat="46.92229" lon="3.08394">
        <ele>228.60000610352</ele>
        <time>2022-06-22T04:28:09.000Z</time>
      </trkpt>
      <trkpt lat="46.92241" lon="3.084">
        <ele>228.80000305176</ele>
        <time>2022-06-22T04:28:12.000Z</time>
      </trkpt>
      <trkpt lat="46.92249" lon="3.08403">
        <ele>229</ele>
        <time>2022-06-22T04:28:14.000Z</time>
      </trkpt>
      <trkpt lat="46.92268" lon="3.0841">
        <ele>229.19999694824</ele>
        <time>2022-06-22T04:28:18.000Z</time>
      </trkpt>
      <trkpt lat="46.92284" lon="3.08415">
        <ele>229.39999389648</ele>
        <time>2022-06-22T04:28:21.000Z</time>
      </trkpt>
      <trkpt lat="46.92289" lon="3.08417">
        <ele>229.39999389648</ele>
        <time>2022-06-22T04:28:22.000Z</time>
      </trkpt>
      <trkpt lat="46.92317" lon="3.08424">
        <ele>229</ele>
        <time>2022-06-22T04:28:27.000Z</time>
      </trkpt>
      <trkpt lat="46.92323" lon="3.08425">
        <ele>229</ele>
        <time>2022-06-22T04:28:28.000Z</time>
      </trkpt>
      <trkpt lat="46.92342" lon="3.08429">
        <ele>229</ele>
        <time>2022-06-22T04:28:31.000Z</time>
      </trkpt>
      <trkpt lat="46.92355" lon="3.08432">
        <ele>228.60000610352</ele>
        <time>2022-06-22T04:28:33.000Z</time>
      </trkpt>
      <trkpt lat="46.92401" lon="3.08442">
        <ele>228.19999694824</ele>
        <time>2022-06-22T04:28:40.000Z</time>
      </trkpt>
      <trkpt lat="46.92434" lon="3.08449">
        <ele>227.19999694824</ele>
        <time>2022-06-22T04:28:45.000Z</time>
      </trkpt>
      <trkpt lat="46.9246" lon="3.08453">
        <ele>226</ele>
        <time>2022-06-22T04:28:49.000Z</time>
      </trkpt>
      <trkpt lat="46.92499" lon="3.0846">
        <ele>225.39999389648</ele>
        <time>2022-06-22T04:28:55.000Z</time>
      </trkpt>
      <trkpt lat="46.92525" lon="3.08467">
        <ele>225.39999389648</ele>
        <time>2022-06-22T04:28:59.000Z</time>
      </trkpt>
      <trkpt lat="46.92572" lon="3.0848">
        <ele>226.39999389648</ele>
        <time>2022-06-22T04:29:06.000Z</time>
      </trkpt>
      <trkpt lat="46.92592" lon="3.08486">
        <ele>226.80000305176</ele>
        <time>2022-06-22T04:29:09.000Z</time>
      </trkpt>
      <trkpt lat="46.92646" lon="3.08502">
        <ele>225.60000610352</ele>
        <time>2022-06-22T04:29:17.000Z</time>
      </trkpt>
      <trkpt lat="46.92653" lon="3.08504">
        <ele>225.39999389648</ele>
        <time>2022-06-22T04:29:18.000Z</time>
      </trkpt>
      <trkpt lat="46.92692" lon="3.08518">
        <ele>223.60000610352</ele>
        <time>2022-06-22T04:29:24.000Z</time>
      </trkpt>
      <trkpt lat="46.92718" lon="3.08527">
        <ele>223</ele>
        <time>2022-06-22T04:29:28.000Z</time>
      </trkpt>
      <trkpt lat="46.92771" lon="3.08545">
        <ele>222</ele>
        <time>2022-06-22T04:29:36.000Z</time>
      </trkpt>
      <trkpt lat="46.92784" lon="3.08549">
        <ele>222</ele>
        <time>2022-06-22T04:29:38.000Z</time>
      </trkpt>
      <trkpt lat="46.92805" lon="3.08556">
        <ele>221.80000305176</ele>
        <time>2022-06-22T04:29:41.000Z</time>
      </trkpt>
      <trkpt lat="46.92858" lon="3.08574">
        <ele>221.39999389648</ele>
        <time>2022-06-22T04:29:49.000Z</time>
      </trkpt>
      <trkpt lat="46.92865" lon="3.08576">
        <ele>221.60000610352</ele>
        <time>2022-06-22T04:29:50.000Z</time>
      </trkpt>
      <trkpt lat="46.92878" lon="3.0858">
        <ele>221.60000610352</ele>
        <time>2022-06-22T04:29:52.000Z</time>
      </trkpt>
      <trkpt lat="46.92931" lon="3.08597">
        <ele>218.80000305176</ele>
        <time>2022-06-22T04:30:00.000Z</time>
      </trkpt>
      <trkpt lat="46.92938" lon="3.08599">
        <ele>218.60000610352</ele>
        <time>2022-06-22T04:30:01.000Z</time>
      </trkpt>
      <trkpt lat="46.92945" lon="3.08601">
        <ele>218.39999389648</ele>
        <time>2022-06-22T04:30:02.000Z</time>
      </trkpt>
      <trkpt lat="46.93001" lon="3.08614">
        <ele>219.60000610352</ele>
        <time>2022-06-22T04:30:10.000Z</time>
      </trkpt>
      <trkpt lat="46.9306" lon="3.0863">
        <ele>219.19999694824</ele>
        <time>2022-06-22T04:30:18.000Z</time>
      </trkpt>
      <trkpt lat="46.93068" lon="3.08633">
        <ele>219</ele>
        <time>2022-06-22T04:30:19.000Z</time>
      </trkpt>
      <trkpt lat="46.93097" lon="3.08643">
        <ele>216.80000305176</ele>
        <time>2022-06-22T04:30:23.000Z</time>
      </trkpt>
      <trkpt lat="46.93126" lon="3.08652">
        <ele>214.80000305176</ele>
        <time>2022-06-22T04:30:27.000Z</time>
      </trkpt>
      <trkpt lat="46.93133" lon="3.08655">
        <ele>214.19999694824</ele>
        <time>2022-06-22T04:30:28.000Z</time>
      </trkpt>
      <trkpt lat="46.9317" lon="3.08667">
        <ele>212.19999694824</ele>
        <time>2022-06-22T04:30:33.000Z</time>
      </trkpt>
      <trkpt lat="46.93213" lon="3.08683">
        <ele>212.19999694824</ele>
        <time>2022-06-22T04:30:39.000Z</time>
      </trkpt>
      <trkpt lat="46.9322" lon="3.08685">
        <ele>212.39999389648</ele>
        <time>2022-06-22T04:30:40.000Z</time>
      </trkpt>
      <trkpt lat="46.93263" lon="3.08692">
        <ele>213.19999694824</ele>
        <time>2022-06-22T04:30:46.000Z</time>
      </trkpt>
      <trkpt lat="46.93278" lon="3.08694">
        <ele>212.39999389648</ele>
        <time>2022-06-22T04:30:48.000Z</time>
      </trkpt>
      <trkpt lat="46.93309" lon="3.08696">
        <ele>210.19999694824</ele>
        <time>2022-06-22T04:30:52.000Z</time>
      </trkpt>
      <trkpt lat="46.93324" lon="3.08697">
        <ele>209.19999694824</ele>
        <time>2022-06-22T04:30:54.000Z</time>
      </trkpt>
      <trkpt lat="46.93346" lon="3.08698">
        <ele>208.39999389648</ele>
        <time>2022-06-22T04:30:57.000Z</time>
      </trkpt>
      <trkpt lat="46.93382" lon="3.08702">
        <ele>210</ele>
        <time>2022-06-22T04:31:02.000Z</time>
      </trkpt>
      <trkpt lat="46.93389" lon="3.08704">
        <ele>210.39999389648</ele>
        <time>2022-06-22T04:31:03.000Z</time>
      </trkpt>
      <trkpt lat="46.93429" lon="3.08724">
        <ele>210.60000610352</ele>
        <time>2022-06-22T04:31:09.000Z</time>
      </trkpt>
      <trkpt lat="46.93447" lon="3.0874">
        <ele>209.80000305176</ele>
        <time>2022-06-22T04:31:12.000Z</time>
      </trkpt>
      <trkpt lat="46.93457" lon="3.08754">
        <ele>208.19999694824</ele>
        <time>2022-06-22T04:31:14.000Z</time>
      </trkpt>
      <trkpt lat="46.93467" lon="3.08769">
        <ele>205.80000305176</ele>
        <time>2022-06-22T04:31:16.000Z</time>
      </trkpt>
      <trkpt lat="46.93476" lon="3.08783">
        <ele>204.39999389648</ele>
        <time>2022-06-22T04:31:18.000Z</time>
      </trkpt>
      <trkpt lat="46.93481" lon="3.08788">
        <ele>203.60000610352</ele>
        <time>2022-06-22T04:31:19.000Z</time>
      </trkpt>
      <trkpt lat="46.93488" lon="3.0879">
        <ele>202.80000305176</ele>
        <time>2022-06-22T04:31:20.000Z</time>
      </trkpt>
      <trkpt lat="46.93508" lon="3.08791">
        <ele>201.39999389648</ele>
        <time>2022-06-22T04:31:23.000Z</time>
      </trkpt>
      <trkpt lat="46.93534" lon="3.08788">
        <ele>201.19999694824</ele>
        <time>2022-06-22T04:31:27.000Z</time>
      </trkpt>
      <trkpt lat="46.93554" lon="3.08786">
        <ele>200.80000305176</ele>
        <time>2022-06-22T04:31:30.000Z</time>
      </trkpt>
      <trkpt lat="46.93599" lon="3.08778">
        <ele>201.19999694824</ele>
        <time>2022-06-22T04:31:37.000Z</time>
      </trkpt>
      <trkpt lat="46.93626" lon="3.08772">
        <ele>201.80000305176</ele>
        <time>2022-06-22T04:31:41.000Z</time>
      </trkpt>
      <trkpt lat="46.93668" lon="3.0876">
        <ele>200.80000305176</ele>
        <time>2022-06-22T04:31:47.000Z</time>
      </trkpt>
      <trkpt lat="46.9371" lon="3.08742">
        <ele>199.80000305176</ele>
        <time>2022-06-22T04:31:53.000Z</time>
      </trkpt>
      <trkpt lat="46.93716" lon="3.08738">
        <ele>199.60000610352</ele>
        <time>2022-06-22T04:31:54.000Z</time>
      </trkpt>
      <trkpt lat="46.93756" lon="3.08713">
        <ele>199.19999694824</ele>
        <time>2022-06-22T04:32:00.000Z</time>
      </trkpt>
      <trkpt lat="46.93762" lon="3.08709">
        <ele>199</ele>
        <time>2022-06-22T04:32:01.000Z</time>
      </trkpt>
      <trkpt lat="46.93787" lon="3.08692">
        <ele>198.19999694824</ele>
        <time>2022-06-22T04:32:05.000Z</time>
      </trkpt>
      <trkpt lat="46.93831" lon="3.08662">
        <ele>196</ele>
        <time>2022-06-22T04:32:12.000Z</time>
      </trkpt>
      <trkpt lat="46.93848" lon="3.08646">
        <ele>196.39999389648</ele>
        <time>2022-06-22T04:32:15.000Z</time>
      </trkpt>
      <trkpt lat="46.9389" lon="3.08611">
        <ele>195.39999389648</ele>
        <time>2022-06-22T04:32:22.000Z</time>
      </trkpt>
      <trkpt lat="46.93909" lon="3.08597">
        <ele>194.39999389648</ele>
        <time>2022-06-22T04:32:25.000Z</time>
      </trkpt>
      <trkpt lat="46.93937" lon="3.08583">
        <ele>192.39999389648</ele>
        <time>2022-06-22T04:32:29.000Z</time>
      </trkpt>
      <trkpt lat="46.93966" lon="3.08574">
        <ele>191</ele>
        <time>2022-06-22T04:32:33.000Z</time>
      </trkpt>
      <trkpt lat="46.93974" lon="3.08573">
        <ele>191</ele>
        <time>2022-06-22T04:32:34.000Z</time>
      </trkpt>
      <trkpt lat="46.94004" lon="3.08578">
        <ele>191.80000305176</ele>
        <time>2022-06-22T04:32:38.000Z</time>
      </trkpt>
      <trkpt lat="46.94011" lon="3.08581">
        <ele>192</ele>
        <time>2022-06-22T04:32:39.000Z</time>
      </trkpt>
      <trkpt lat="46.94034" lon="3.08585">
        <ele>192.80000305176</ele>
        <time>2022-06-22T04:32:42.000Z</time>
      </trkpt>
      <trkpt lat="46.94057" lon="3.08586">
        <ele>191.80000305176</ele>
        <time>2022-06-22T04:32:45.000Z</time>
      </trkpt>
      <trkpt lat="46.94072" lon="3.08584">
        <ele>190.39999389648</ele>
        <time>2022-06-22T04:32:47.000Z</time>
      </trkpt>
      <trkpt lat="46.941" lon="3.08578">
        <ele>186.60000610352</ele>
        <time>2022-06-22T04:32:51.000Z</time>
      </trkpt>
      <trkpt lat="46.94119" lon="3.08577">
        <ele>184.60000610352</ele>
        <time>2022-06-22T04:32:54.000Z</time>
      </trkpt>
      <trkpt lat="46.94132" lon="3.08578">
        <ele>184.39999389648</ele>
        <time>2022-06-22T04:32:56.000Z</time>
      </trkpt>
      <trkpt lat="46.94172" lon="3.08585">
        <ele>186.39999389648</ele>
        <time>2022-06-22T04:33:02.000Z</time>
      </trkpt>
      <trkpt lat="46.94179" lon="3.08585">
        <ele>187</ele>
        <time>2022-06-22T04:33:03.000Z</time>
      </trkpt>
      <trkpt lat="46.94187" lon="3.08584">
        <ele>187</ele>
        <time>2022-06-22T04:33:04.000Z</time>
      </trkpt>
      <trkpt lat="46.94201" lon="3.08579">
        <ele>187</ele>
        <time>2022-06-22T04:33:06.000Z</time>
      </trkpt>
      <trkpt lat="46.9422" lon="3.08568">
        <ele>187</ele>
        <time>2022-06-22T04:33:09.000Z</time>
      </trkpt>
      <trkpt lat="46.9423" lon="3.08557">
        <ele>186.60000610352</ele>
        <time>2022-06-22T04:33:11.000Z</time>
      </trkpt>
      <trkpt lat="46.94239" lon="3.08542">
        <ele>185.80000305176</ele>
        <time>2022-06-22T04:33:13.000Z</time>
      </trkpt>
      <trkpt lat="46.94243" lon="3.08533">
        <ele>185.60000610352</ele>
        <time>2022-06-22T04:33:14.000Z</time>
      </trkpt>
      <trkpt lat="46.94246" lon="3.08523">
        <ele>185.60000610352</ele>
        <time>2022-06-22T04:33:15.000Z</time>
      </trkpt>
      <trkpt lat="46.94254" lon="3.08494">
        <ele>185.60000610352</ele>
        <time>2022-06-22T04:33:18.000Z</time>
      </trkpt>
      <trkpt lat="46.94257" lon="3.08484">
        <ele>185.39999389648</ele>
        <time>2022-06-22T04:33:19.000Z</time>
      </trkpt>
      <trkpt lat="46.94261" lon="3.08475">
        <ele>185.60000610352</ele>
        <time>2022-06-22T04:33:20.000Z</time>
      </trkpt>
      <trkpt lat="46.94265" lon="3.08466">
        <ele>185.80000305176</ele>
        <time>2022-06-22T04:33:21.000Z</time>
      </trkpt>
      <trkpt lat="46.9427" lon="3.08459">
        <ele>185.80000305176</ele>
        <time>2022-06-22T04:33:22.000Z</time>
      </trkpt>
      <trkpt lat="46.94276" lon="3.08453">
        <ele>185.39999389648</ele>
        <time>2022-06-22T04:33:23.000Z</time>
      </trkpt>
      <trkpt lat="46.94289" lon="3.08446">
        <ele>185</ele>
        <time>2022-06-22T04:33:25.000Z</time>
      </trkpt>
      <trkpt lat="46.94303" lon="3.08443">
        <ele>184.60000610352</ele>
        <time>2022-06-22T04:33:27.000Z</time>
      </trkpt>
      <trkpt lat="46.94328" lon="3.08445">
        <ele>183.60000610352</ele>
        <time>2022-06-22T04:33:31.000Z</time>
      </trkpt>
      <trkpt lat="46.94333" lon="3.08446">
        <ele>183.39999389648</ele>
        <time>2022-06-22T04:33:32.000Z</time>
      </trkpt>
      <trkpt lat="46.94338" lon="3.08446">
        <ele>183</ele>
        <time>2022-06-22T04:33:33.000Z</time>
      </trkpt>
      <trkpt lat="46.94347" lon="3.0844">
        <ele>182.19999694824</ele>
        <time>2022-06-22T04:33:35.000Z</time>
      </trkpt>
      <trkpt lat="46.94348" lon="3.08425">
        <ele>182.19999694824</ele>
        <time>2022-06-22T04:33:37.000Z</time>
      </trkpt>
      <trkpt lat="46.94348" lon="3.08417">
        <ele>182.39999389648</ele>
        <time>2022-06-22T04:33:38.000Z</time>
      </trkpt>
      <trkpt lat="46.9434" lon="3.08354">
        <ele>182.39999389648</ele>
        <time>2022-06-22T04:33:45.000Z</time>
      </trkpt>
      <trkpt lat="46.94336" lon="3.08334">
        <ele>182.39999389648</ele>
        <time>2022-06-22T04:33:47.000Z</time>
      </trkpt>
      <trkpt lat="46.9433" lon="3.08316">
        <ele>182.60000610352</ele>
        <time>2022-06-22T04:33:49.000Z</time>
      </trkpt>
      <trkpt lat="46.94326" lon="3.08307">
        <ele>182.80000305176</ele>
        <time>2022-06-22T04:33:50.000Z</time>
      </trkpt>
      <trkpt lat="46.94291" lon="3.08236">
        <ele>182.80000305176</ele>
        <time>2022-06-22T04:33:59.000Z</time>
      </trkpt>
      <trkpt lat="46.94283" lon="3.0822">
        <ele>182.80000305176</ele>
        <time>2022-06-22T04:34:01.000Z</time>
      </trkpt>
      <trkpt lat="46.94247" lon="3.08149">
        <ele>182.80000305176</ele>
        <time>2022-06-22T04:34:10.000Z</time>
      </trkpt>
      <trkpt lat="46.94244" lon="3.08141">
        <ele>182.80000305176</ele>
        <time>2022-06-22T04:34:11.000Z</time>
      </trkpt>
      <trkpt lat="46.94212" lon="3.08072">
        <ele>183.19999694824</ele>
        <time>2022-06-22T04:34:20.000Z</time>
      </trkpt>
      <trkpt lat="46.94184" lon="3.08">
        <ele>185.39999389648</ele>
        <time>2022-06-22T04:34:29.000Z</time>
      </trkpt>
      <trkpt lat="46.9418" lon="3.07993">
        <ele>185.80000305176</ele>
        <time>2022-06-22T04:34:30.000Z</time>
      </trkpt>
      <trkpt lat="46.94166" lon="3.07966">
        <ele>187.80000305176</ele>
        <time>2022-06-22T04:34:34.000Z</time>
      </trkpt>
      <trkpt lat="46.94164" lon="3.0795">
        <ele>188.39999389648</ele>
        <time>2022-06-22T04:34:36.000Z</time>
      </trkpt>
      <trkpt lat="46.94163" lon="3.07939">
        <ele>188.80000305176</ele>
        <time>2022-06-22T04:34:37.000Z</time>
      </trkpt>
      <trkpt lat="46.94165" lon="3.07925">
        <ele>188.80000305176</ele>
        <time>2022-06-22T04:34:39.000Z</time>
      </trkpt>
      <trkpt lat="46.94171" lon="3.07911">
        <ele>188.19999694824</ele>
        <time>2022-06-22T04:34:41.000Z</time>
      </trkpt>
      <trkpt lat="46.94179" lon="3.07898">
        <ele>187</ele>
        <time>2022-06-22T04:34:43.000Z</time>
      </trkpt>
      <trkpt lat="46.94187" lon="3.07889">
        <ele>186</ele>
        <time>2022-06-22T04:34:45.000Z</time>
      </trkpt>
      <trkpt lat="46.94197" lon="3.07884">
        <ele>185</ele>
        <time>2022-06-22T04:34:47.000Z</time>
      </trkpt>
      <trkpt lat="46.94207" lon="3.07882">
        <ele>184</ele>
        <time>2022-06-22T04:34:49.000Z</time>
      </trkpt>
      <trkpt lat="46.94217" lon="3.07884">
        <ele>183.19999694824</ele>
        <time>2022-06-22T04:34:51.000Z</time>
      </trkpt>
      <trkpt lat="46.94223" lon="3.0789">
        <ele>182.80000305176</ele>
        <time>2022-06-22T04:34:53.000Z</time>
      </trkpt>
      <trkpt lat="46.9423" lon="3.07897">
        <ele>182.19999694824</ele>
        <time>2022-06-22T04:34:55.000Z</time>
      </trkpt>
      <trkpt lat="46.94234" lon="3.079">
        <ele>182</ele>
        <time>2022-06-22T04:34:56.000Z</time>
      </trkpt>
      <trkpt lat="46.94237" lon="3.079">
        <ele>181.80000305176</ele>
        <time>2022-06-22T04:34:57.000Z</time>
      </trkpt>
      <trkpt lat="46.9424" lon="3.07897">
        <ele>181.60000610352</ele>
        <time>2022-06-22T04:34:58.000Z</time>
      </trkpt>
      <trkpt lat="46.94243" lon="3.07892">
        <ele>181.39999389648</ele>
        <time>2022-06-22T04:34:59.000Z</time>
      </trkpt>
      <trkpt lat="46.94248" lon="3.07878">
        <ele>181</ele>
        <time>2022-06-22T04:35:01.000Z</time>
      </trkpt>
      <trkpt lat="46.94261" lon="3.07843">
        <ele>180</ele>
        <time>2022-06-22T04:35:05.000Z</time>
      </trkpt>
      <trkpt lat="46.94269" lon="3.07827">
        <ele>178.39999389648</ele>
        <time>2022-06-22T04:35:07.000Z</time>
      </trkpt>
      <trkpt lat="46.94284" lon="3.07799">
        <ele>177.19999694824</ele>
        <time>2022-06-22T04:35:11.000Z</time>
      </trkpt>
      <trkpt lat="46.94288" lon="3.07792">
        <ele>177</ele>
        <time>2022-06-22T04:35:12.000Z</time>
      </trkpt>
      <trkpt lat="46.94312" lon="3.07745">
        <ele>177</ele>
        <time>2022-06-22T04:35:19.000Z</time>
      </trkpt>
      <trkpt lat="46.94315" lon="3.07739">
        <ele>177</ele>
        <time>2022-06-22T04:35:20.000Z</time>
      </trkpt>
      <trkpt lat="46.9432" lon="3.07728">
        <ele>177</ele>
        <time>2022-06-22T04:35:22.000Z</time>
      </trkpt>
      <trkpt lat="46.94327" lon="3.07716">
        <ele>177.19999694824</ele>
        <time>2022-06-22T04:35:24.000Z</time>
      </trkpt>
      <trkpt lat="46.94346" lon="3.07677">
        <ele>180.19999694824</ele>
        <time>2022-06-22T04:35:30.000Z</time>
      </trkpt>
      <trkpt lat="46.94378" lon="3.07613">
        <ele>179.60000610352</ele>
        <time>2022-06-22T04:35:39.000Z</time>
      </trkpt>
      <trkpt lat="46.94386" lon="3.076">
        <ele>179</ele>
        <time>2022-06-22T04:35:41.000Z</time>
      </trkpt>
      <trkpt lat="46.94403" lon="3.07568">
        <ele>178</ele>
        <time>2022-06-22T04:35:45.000Z</time>
      </trkpt>
      <trkpt lat="46.94431" lon="3.07503">
        <ele>178.80000305176</ele>
        <time>2022-06-22T04:35:53.000Z</time>
      </trkpt>
      <trkpt lat="46.94434" lon="3.07496">
        <ele>178.39999389648</ele>
        <time>2022-06-22T04:35:54.000Z</time>
      </trkpt>
      <trkpt lat="46.94444" lon="3.07477">
        <ele>178.39999389648</ele>
        <time>2022-06-22T04:35:57.000Z</time>
      </trkpt>
      <trkpt lat="46.94446" lon="3.0747">
        <ele>178.19999694824</ele>
        <time>2022-06-22T04:35:58.000Z</time>
      </trkpt>
      <trkpt lat="46.94453" lon="3.07447">
        <ele>177.19999694824</ele>
        <time>2022-06-22T04:36:02.000Z</time>
      </trkpt>
      <trkpt lat="46.94471" lon="3.07408">
        <ele>175.39999389648</ele>
        <time>2022-06-22T04:36:10.000Z</time>
      </trkpt>
      <trkpt lat="46.94483" lon="3.07382">
        <ele>175</ele>
        <time>2022-06-22T04:36:15.000Z</time>
      </trkpt>
      <trkpt lat="46.94487" lon="3.07372">
        <ele>174.80000305176</ele>
        <time>2022-06-22T04:36:17.000Z</time>
      </trkpt>
      <trkpt lat="46.9451" lon="3.07324">
        <ele>173.19999694824</ele>
        <time>2022-06-22T04:36:26.000Z</time>
      </trkpt>
      <trkpt lat="46.94536" lon="3.0727">
        <ele>169.19999694824</ele>
        <time>2022-06-22T04:36:36.000Z</time>
      </trkpt>
      <trkpt lat="46.94562" lon="3.07217">
        <ele>166</ele>
        <time>2022-06-22T04:36:45.000Z</time>
      </trkpt>
      <trkpt lat="46.94584" lon="3.07171">
        <ele>166</ele>
        <time>2022-06-22T04:36:53.000Z</time>
      </trkpt>
      <trkpt lat="46.94609" lon="3.07119">
        <ele>166</ele>
        <time>2022-06-22T04:37:02.000Z</time>
      </trkpt>
      <trkpt lat="46.94633" lon="3.07072">
        <ele>167.39999389648</ele>
        <time>2022-06-22T04:37:11.000Z</time>
      </trkpt>
      <trkpt lat="46.94639" lon="3.07062">
        <ele>169.60000610352</ele>
        <time>2022-06-22T04:37:15.000Z</time>
      </trkpt>
      <trkpt lat="46.94649" lon="3.07042">
        <ele>171</ele>
        <time>2022-06-22T04:37:20.000Z</time>
      </trkpt>
      <trkpt lat="46.94654" lon="3.07033">
        <ele>171.39999389648</ele>
        <time>2022-06-22T04:37:22.000Z</time>
      </trkpt>
      <trkpt lat="46.94666" lon="3.07005">
        <ele>173</ele>
        <time>2022-06-22T04:37:28.000Z</time>
      </trkpt>
      <trkpt lat="46.94678" lon="3.0698">
        <ele>173.19999694824</ele>
        <time>2022-06-22T04:37:35.000Z</time>
      </trkpt>
      <trkpt lat="46.94688" lon="3.06958">
        <ele>173.60000610352</ele>
        <time>2022-06-22T04:37:41.000Z</time>
      </trkpt>
      <trkpt lat="46.94689" lon="3.06957">
        <ele>173.60000610352</ele>
        <time>2022-06-22T04:37:42.000Z</time>
      </trkpt>
      <trkpt lat="46.94691" lon="3.06956">
        <ele>173.60000610352</ele>
        <time>2022-06-22T04:37:43.000Z</time>
      </trkpt>
      <trkpt lat="46.94694" lon="3.06954">
        <ele>173.39999389648</ele>
        <time>2022-06-22T04:37:45.000Z</time>
      </trkpt>
      <trkpt lat="46.94695" lon="3.06953">
        <ele>173.39999389648</ele>
        <time>2022-06-22T04:37:47.000Z</time>
      </trkpt>
      <trkpt lat="46.94695" lon="3.06953">
        <ele>173.39999389648</ele>
        <time>2022-06-22T04:37:48.000Z</time>
      </trkpt>
      <trkpt lat="46.94701" lon="3.06947">
        <ele>173.19999694824</ele>
        <time>2022-06-22T04:37:52.000Z</time>
      </trkpt>
      <trkpt lat="46.94713" lon="3.06927">
        <ele>173</ele>
        <time>2022-06-22T04:37:56.000Z</time>
      </trkpt>
      <trkpt lat="46.94723" lon="3.06906">
        <ele>173</ele>
        <time>2022-06-22T04:37:59.000Z</time>
      </trkpt>
      <trkpt lat="46.94731" lon="3.0689">
        <ele>172.60000610352</ele>
        <time>2022-06-22T04:38:01.000Z</time>
      </trkpt>
      <trkpt lat="46.94743" lon="3.06867">
        <ele>171.80000305176</ele>
        <time>2022-06-22T04:38:04.000Z</time>
      </trkpt>
      <trkpt lat="46.94762" lon="3.0683">
        <ele>170</ele>
        <time>2022-06-22T04:38:09.000Z</time>
      </trkpt>
      <trkpt lat="46.94766" lon="3.06821">
        <ele>170</ele>
        <time>2022-06-22T04:38:10.000Z</time>
      </trkpt>
      <trkpt lat="46.94797" lon="3.06757">
        <ele>170.60000610352</ele>
        <time>2022-06-22T04:38:19.000Z</time>
      </trkpt>
      <trkpt lat="46.9483" lon="3.06692">
        <ele>171</ele>
        <time>2022-06-22T04:38:28.000Z</time>
      </trkpt>
      <trkpt lat="46.94833" lon="3.06685">
        <ele>171</ele>
        <time>2022-06-22T04:38:29.000Z</time>
      </trkpt>
      <trkpt lat="46.94858" lon="3.06636">
        <ele>170.60000610352</ele>
        <time>2022-06-22T04:38:36.000Z</time>
      </trkpt>
      <trkpt lat="46.9489" lon="3.06574">
        <ele>170.39999389648</ele>
        <time>2022-06-22T04:38:45.000Z</time>
      </trkpt>
      <trkpt lat="46.94926" lon="3.06507">
        <ele>169.19999694824</ele>
        <time>2022-06-22T04:38:54.000Z</time>
      </trkpt>
      <trkpt lat="46.9493" lon="3.06499">
        <ele>169</ele>
        <time>2022-06-22T04:38:55.000Z</time>
      </trkpt>
      <trkpt lat="46.94955" lon="3.06441">
        <ele>171</ele>
        <time>2022-06-22T04:39:02.000Z</time>
      </trkpt>
      <trkpt lat="46.94958" lon="3.06434">
        <ele>171</ele>
        <time>2022-06-22T04:39:03.000Z</time>
      </trkpt>
      <trkpt lat="46.94975" lon="3.064">
        <ele>170.39999389648</ele>
        <time>2022-06-22T04:39:07.000Z</time>
      </trkpt>
      <trkpt lat="46.95004" lon="3.06339">
        <ele>171.39999389648</ele>
        <time>2022-06-22T04:39:15.000Z</time>
      </trkpt>
      <trkpt lat="46.95038" lon="3.06275">
        <ele>172.39999389648</ele>
        <time>2022-06-22T04:39:24.000Z</time>
      </trkpt>
      <trkpt lat="46.95042" lon="3.06268">
        <ele>172.80000305176</ele>
        <time>2022-06-22T04:39:25.000Z</time>
      </trkpt>
      <trkpt lat="46.9507" lon="3.06213">
        <ele>172</ele>
        <time>2022-06-22T04:39:33.000Z</time>
      </trkpt>
      <trkpt lat="46.95096" lon="3.06158">
        <ele>171</ele>
        <time>2022-06-22T04:39:40.000Z</time>
      </trkpt>
      <trkpt lat="46.95122" lon="3.06106">
        <ele>174</ele>
        <time>2022-06-22T04:39:47.000Z</time>
      </trkpt>
      <trkpt lat="46.95154" lon="3.06038">
        <ele>173.19999694824</ele>
        <time>2022-06-22T04:39:56.000Z</time>
      </trkpt>
      <trkpt lat="46.95174" lon="3.05998">
        <ele>174.39999389648</ele>
        <time>2022-06-22T04:40:02.000Z</time>
      </trkpt>
      <trkpt lat="46.95177" lon="3.05993">
        <ele>174.80000305176</ele>
        <time>2022-06-22T04:40:03.000Z</time>
      </trkpt>
      <trkpt lat="46.95183" lon="3.05979">
        <ele>175.19999694824</ele>
        <time>2022-06-22T04:40:06.000Z</time>
      </trkpt>
      <trkpt lat="46.95185" lon="3.05977">
        <ele>175.19999694824</ele>
        <time>2022-06-22T04:40:07.000Z</time>
      </trkpt>
      <trkpt lat="46.95182" lon="3.05971">
        <ele>175.19999694824</ele>
        <time>2022-06-22T04:40:09.000Z</time>
      </trkpt>
      <trkpt lat="46.9518" lon="3.05968">
        <ele>175</ele>
        <time>2022-06-22T04:40:10.000Z</time>
      </trkpt>
      <trkpt lat="46.95164" lon="3.05951">
        <ele>175.39999389648</ele>
        <time>2022-06-22T04:40:15.000Z</time>
      </trkpt>
      <trkpt lat="46.95158" lon="3.05942">
        <ele>175.60000610352</ele>
        <time>2022-06-22T04:40:17.000Z</time>
      </trkpt>
      <trkpt lat="46.95152" lon="3.05932">
        <ele>176</ele>
        <time>2022-06-22T04:40:19.000Z</time>
      </trkpt>
      <trkpt lat="46.95145" lon="3.05928">
        <ele>175.60000610352</ele>
        <time>2022-06-22T04:40:21.000Z</time>
      </trkpt>
      <trkpt lat="46.95135" lon="3.05928">
        <ele>175.19999694824</ele>
        <time>2022-06-22T04:40:23.000Z</time>
      </trkpt>
      <trkpt lat="46.95114" lon="3.05928">
        <ele>174.60000610352</ele>
        <time>2022-06-22T04:40:26.000Z</time>
      </trkpt>
      <trkpt lat="46.95107" lon="3.05929">
        <ele>174.19999694824</ele>
        <time>2022-06-22T04:40:27.000Z</time>
      </trkpt>
      <trkpt lat="46.951" lon="3.0593">
        <ele>174</ele>
        <time>2022-06-22T04:40:28.000Z</time>
      </trkpt>
      <trkpt lat="46.95094" lon="3.0593">
        <ele>174</ele>
        <time>2022-06-22T04:40:29.000Z</time>
      </trkpt>
      <trkpt lat="46.9508" lon="3.05931">
        <ele>173</ele>
        <time>2022-06-22T04:40:31.000Z</time>
      </trkpt>
      <trkpt lat="46.95074" lon="3.05931">
        <ele>172.39999389648</ele>
        <time>2022-06-22T04:40:32.000Z</time>
      </trkpt>
      <trkpt lat="46.95062" lon="3.05933">
        <ele>172.19999694824</ele>
        <time>2022-06-22T04:40:34.000Z</time>
      </trkpt>
      <trkpt lat="46.95056" lon="3.05934">
        <ele>172.39999389648</ele>
        <time>2022-06-22T04:40:35.000Z</time>
      </trkpt>
      <trkpt lat="46.95036" lon="3.05935">
        <ele>172.80000305176</ele>
        <time>2022-06-22T04:40:38.000Z</time>
      </trkpt>
      <trkpt lat="46.95024" lon="3.05935">
        <ele>172.80000305176</ele>
        <time>2022-06-22T04:40:40.000Z</time>
      </trkpt>
      <trkpt lat="46.94985" lon="3.05937">
        <ele>171.80000305176</ele>
        <time>2022-06-22T04:40:46.000Z</time>
      </trkpt>
      <trkpt lat="46.94947" lon="3.05944">
        <ele>170.60000610352</ele>
        <time>2022-06-22T04:40:52.000Z</time>
      </trkpt>
      <trkpt lat="46.94891" lon="3.0595">
        <ele>172.39999389648</ele>
        <time>2022-06-22T04:41:01.000Z</time>
      </trkpt>
      <trkpt lat="46.94883" lon="3.05951">
        <ele>172.39999389648</ele>
        <time>2022-06-22T04:41:02.000Z</time>
      </trkpt>
      <trkpt lat="46.94826" lon="3.05956">
        <ele>172.80000305176</ele>
        <time>2022-06-22T04:41:11.000Z</time>
      </trkpt>
      <trkpt lat="46.94808" lon="3.05958">
        <ele>173.39999389648</ele>
        <time>2022-06-22T04:41:14.000Z</time>
      </trkpt>
      <trkpt lat="46.9475" lon="3.05964">
        <ele>173.39999389648</ele>
        <time>2022-06-22T04:41:23.000Z</time>
      </trkpt>
      <trkpt lat="46.94738" lon="3.05965">
        <ele>172.80000305176</ele>
        <time>2022-06-22T04:41:25.000Z</time>
      </trkpt>
      <trkpt lat="46.9468" lon="3.05971">
        <ele>171.39999389648</ele>
        <time>2022-06-22T04:41:34.000Z</time>
      </trkpt>
      <trkpt lat="46.94674" lon="3.05972">
        <ele>171.60000610352</ele>
        <time>2022-06-22T04:41:35.000Z</time>
      </trkpt>
      <trkpt lat="46.94626" lon="3.05983">
        <ele>173.80000305176</ele>
        <time>2022-06-22T04:41:43.000Z</time>
      </trkpt>
      <trkpt lat="46.9461" lon="3.05986">
        <ele>174</ele>
        <time>2022-06-22T04:41:47.000Z</time>
      </trkpt>
      <trkpt lat="46.94603" lon="3.05985">
        <ele>174</ele>
        <time>2022-06-22T04:41:51.000Z</time>
      </trkpt>
      <trkpt lat="46.9459" lon="3.05985">
        <ele>174</ele>
        <time>2022-06-22T04:41:56.000Z</time>
      </trkpt>
      <trkpt lat="46.94567" lon="3.05986">
        <ele>174</ele>
        <time>2022-06-22T04:42:02.000Z</time>
      </trkpt>
      <trkpt lat="46.94561" lon="3.05987">
        <ele>173.80000305176</ele>
        <time>2022-06-22T04:42:03.000Z</time>
      </trkpt>
      <trkpt lat="46.94538" lon="3.05989">
        <ele>172.80000305176</ele>
        <time>2022-06-22T04:42:07.000Z</time>
      </trkpt>
      <trkpt lat="46.94493" lon="3.05991">
        <ele>172.19999694824</ele>
        <time>2022-06-22T04:42:15.000Z</time>
      </trkpt>
      <trkpt lat="46.94486" lon="3.05992">
        <ele>172</ele>
        <time>2022-06-22T04:42:16.000Z</time>
      </trkpt>
      <trkpt lat="46.94464" lon="3.06">
        <ele>170.39999389648</ele>
        <time>2022-06-22T04:42:20.000Z</time>
      </trkpt>
      <trkpt lat="46.94458" lon="3.06002">
        <ele>170.60000610352</ele>
        <time>2022-06-22T04:42:21.000Z</time>
      </trkpt>
      <trkpt lat="46.94433" lon="3.06004">
        <ele>171.80000305176</ele>
        <time>2022-06-22T04:42:25.000Z</time>
      </trkpt>
      <trkpt lat="46.94379" lon="3.06005">
        <ele>172.60000610352</ele>
        <time>2022-06-22T04:42:34.000Z</time>
      </trkpt>
      <trkpt lat="46.94372" lon="3.06006">
        <ele>172.39999389648</ele>
        <time>2022-06-22T04:42:35.000Z</time>
      </trkpt>
      <trkpt lat="46.94315" lon="3.06008">
        <ele>171.19999694824</ele>
        <time>2022-06-22T04:42:44.000Z</time>
      </trkpt>
      <trkpt lat="46.94303" lon="3.06008">
        <ele>171.19999694824</ele>
        <time>2022-06-22T04:42:46.000Z</time>
      </trkpt>
      <trkpt lat="46.94257" lon="3.06009">
        <ele>172.19999694824</ele>
        <time>2022-06-22T04:42:53.000Z</time>
      </trkpt>
      <trkpt lat="46.94213" lon="3.0601">
        <ele>173.80000305176</ele>
        <time>2022-06-22T04:43:00.000Z</time>
      </trkpt>
      <trkpt lat="46.94168" lon="3.06012">
        <ele>171.80000305176</ele>
        <time>2022-06-22T04:43:07.000Z</time>
      </trkpt>
      <trkpt lat="46.94118" lon="3.06014">
        <ele>176.19999694824</ele>
        <time>2022-06-22T04:43:15.000Z</time>
      </trkpt>
      <trkpt lat="46.94087" lon="3.06015">
        <ele>177</ele>
        <time>2022-06-22T04:43:20.000Z</time>
      </trkpt>
      <trkpt lat="46.94035" lon="3.06016">
        <ele>175.80000305176</ele>
        <time>2022-06-22T04:43:28.000Z</time>
      </trkpt>
      <trkpt lat="46.93987" lon="3.06015">
        <ele>174.19999694824</ele>
        <time>2022-06-22T04:43:35.000Z</time>
      </trkpt>
      <trkpt lat="46.93975" lon="3.06012">
        <ele>173.60000610352</ele>
        <time>2022-06-22T04:43:37.000Z</time>
      </trkpt>
      <trkpt lat="46.93955" lon="3.06006">
        <ele>173.19999694824</ele>
        <time>2022-06-22T04:43:40.000Z</time>
      </trkpt>
      <trkpt lat="46.93918" lon="3.06007">
        <ele>175</ele>
        <time>2022-06-22T04:43:46.000Z</time>
      </trkpt>
      <trkpt lat="46.93861" lon="3.0601">
        <ele>174.80000305176</ele>
        <time>2022-06-22T04:43:55.000Z</time>
      </trkpt>
      <trkpt lat="46.93848" lon="3.06011">
        <ele>174.80000305176</ele>
        <time>2022-06-22T04:43:57.000Z</time>
      </trkpt>
      <trkpt lat="46.93819" lon="3.06012">
        <ele>175</ele>
        <time>2022-06-22T04:44:02.000Z</time>
      </trkpt>
      <trkpt lat="46.93812" lon="3.06012">
        <ele>175.19999694824</ele>
        <time>2022-06-22T04:44:03.000Z</time>
      </trkpt>
      <trkpt lat="46.93768" lon="3.06014">
        <ele>177.60000610352</ele>
        <time>2022-06-22T04:44:10.000Z</time>
      </trkpt>
      <trkpt lat="46.93731" lon="3.06014">
        <ele>178</ele>
        <time>2022-06-22T04:44:16.000Z</time>
      </trkpt>
      <trkpt lat="46.93725" lon="3.06013">
        <ele>178.19999694824</ele>
        <time>2022-06-22T04:44:17.000Z</time>
      </trkpt>
      <trkpt lat="46.9372" lon="3.06012">
        <ele>178.19999694824</ele>
        <time>2022-06-22T04:44:18.000Z</time>
      </trkpt>
      <trkpt lat="46.93693" lon="3.06007">
        <ele>177.80000305176</ele>
        <time>2022-06-22T04:44:22.000Z</time>
      </trkpt>
      <trkpt lat="46.93671" lon="3.06005">
        <ele>176.60000610352</ele>
        <time>2022-06-22T04:44:26.000Z</time>
      </trkpt>
      <trkpt lat="46.93665" lon="3.06004">
        <ele>176</ele>
        <time>2022-06-22T04:44:27.000Z</time>
      </trkpt>
      <trkpt lat="46.93659" lon="3.06006">
        <ele>176</ele>
        <time>2022-06-22T04:44:28.000Z</time>
      </trkpt>
      <trkpt lat="46.9364" lon="3.06012">
        <ele>175.19999694824</ele>
        <time>2022-06-22T04:44:31.000Z</time>
      </trkpt>
      <trkpt lat="46.93636" lon="3.06013">
        <ele>174.80000305176</ele>
        <time>2022-06-22T04:44:32.000Z</time>
      </trkpt>
      <trkpt lat="46.93621" lon="3.06018">
        <ele>174</ele>
        <time>2022-06-22T04:44:35.000Z</time>
      </trkpt>
      <trkpt lat="46.93612" lon="3.06019">
        <ele>173.60000610352</ele>
        <time>2022-06-22T04:44:37.000Z</time>
      </trkpt>
      <trkpt lat="46.93606" lon="3.06019">
        <ele>173.39999389648</ele>
        <time>2022-06-22T04:44:38.000Z</time>
      </trkpt>
      <trkpt lat="46.93563" lon="3.06021">
        <ele>174</ele>
        <time>2022-06-22T04:44:46.000Z</time>
      </trkpt>
      <trkpt lat="46.9351" lon="3.06023">
        <ele>172.80000305176</ele>
        <time>2022-06-22T04:44:54.000Z</time>
      </trkpt>
      <trkpt lat="46.93455" lon="3.06026">
        <ele>172</ele>
        <time>2022-06-22T04:45:03.000Z</time>
      </trkpt>
      <trkpt lat="46.93449" lon="3.06026">
        <ele>172.19999694824</ele>
        <time>2022-06-22T04:45:04.000Z</time>
      </trkpt>
      <trkpt lat="46.934" lon="3.06032">
        <ele>175</ele>
        <time>2022-06-22T04:45:12.000Z</time>
      </trkpt>
      <trkpt lat="46.93363" lon="3.06029">
        <ele>174.39999389648</ele>
        <time>2022-06-22T04:45:18.000Z</time>
      </trkpt>
      <trkpt lat="46.93352" lon="3.06027">
        <ele>174.39999389648</ele>
        <time>2022-06-22T04:45:20.000Z</time>
      </trkpt>
      <trkpt lat="46.93318" lon="3.06021">
        <ele>175.19999694824</ele>
        <time>2022-06-22T04:45:26.000Z</time>
      </trkpt>
      <trkpt lat="46.93265" lon="3.06012">
        <ele>177</ele>
        <time>2022-06-22T04:45:35.000Z</time>
      </trkpt>
      <trkpt lat="46.93219" lon="3.06002">
        <ele>174.39999389648</ele>
        <time>2022-06-22T04:45:42.000Z</time>
      </trkpt>
      <trkpt lat="46.93177" lon="3.05997">
        <ele>173.60000610352</ele>
        <time>2022-06-22T04:45:48.000Z</time>
      </trkpt>
      <trkpt lat="46.93141" lon="3.05988">
        <ele>176.60000610352</ele>
        <time>2022-06-22T04:45:53.000Z</time>
      </trkpt>
      <trkpt lat="46.931" lon="3.05978">
        <ele>177.60000610352</ele>
        <time>2022-06-22T04:45:59.000Z</time>
      </trkpt>
      <trkpt lat="46.93088" lon="3.05978">
        <ele>177.60000610352</ele>
        <time>2022-06-22T04:46:01.000Z</time>
      </trkpt>
      <trkpt lat="46.93069" lon="3.05975">
        <ele>177</ele>
        <time>2022-06-22T04:46:04.000Z</time>
      </trkpt>
      <trkpt lat="46.93058" lon="3.05973">
        <ele>176.60000610352</ele>
        <time>2022-06-22T04:46:06.000Z</time>
      </trkpt>
      <trkpt lat="46.93027" lon="3.05966">
        <ele>176.19999694824</ele>
        <time>2022-06-22T04:46:11.000Z</time>
      </trkpt>
      <trkpt lat="46.92994" lon="3.05964">
        <ele>176.80000305176</ele>
        <time>2022-06-22T04:46:16.000Z</time>
      </trkpt>
      <trkpt lat="46.92986" lon="3.05963">
        <ele>177</ele>
        <time>2022-06-22T04:46:17.000Z</time>
      </trkpt>
      <trkpt lat="46.92937" lon="3.05954">
        <ele>177.39999389648</ele>
        <time>2022-06-22T04:46:25.000Z</time>
      </trkpt>
      <trkpt lat="46.92884" lon="3.05941">
        <ele>178</ele>
        <time>2022-06-22T04:46:33.000Z</time>
      </trkpt>
      <trkpt lat="46.92841" lon="3.05925">
        <ele>177.80000305176</ele>
        <time>2022-06-22T04:46:40.000Z</time>
      </trkpt>
      <trkpt lat="46.92791" lon="3.059">
        <ele>175.80000305176</ele>
        <time>2022-06-22T04:46:49.000Z</time>
      </trkpt>
      <trkpt lat="46.92751" lon="3.05881">
        <ele>175.60000610352</ele>
        <time>2022-06-22T04:46:56.000Z</time>
      </trkpt>
      <trkpt lat="46.927" lon="3.05856">
        <ele>174.19999694824</ele>
        <time>2022-06-22T04:47:05.000Z</time>
      </trkpt>
      <trkpt lat="46.92646" lon="3.05831">
        <ele>175.19999694824</ele>
        <time>2022-06-22T04:47:14.000Z</time>
      </trkpt>
      <trkpt lat="46.92604" lon="3.05807">
        <ele>176</ele>
        <time>2022-06-22T04:47:21.000Z</time>
      </trkpt>
      <trkpt lat="46.92573" lon="3.05792">
        <ele>176.80000305176</ele>
        <time>2022-06-22T04:47:26.000Z</time>
      </trkpt>
      <trkpt lat="46.92567" lon="3.05788">
        <ele>177</ele>
        <time>2022-06-22T04:47:27.000Z</time>
      </trkpt>
      <trkpt lat="46.92528" lon="3.05769">
        <ele>176.60000610352</ele>
        <time>2022-06-22T04:47:34.000Z</time>
      </trkpt>
      <trkpt lat="46.92476" lon="3.05742">
        <ele>176.19999694824</ele>
        <time>2022-06-22T04:47:43.000Z</time>
      </trkpt>
      <trkpt lat="46.92465" lon="3.05736">
        <ele>175.60000610352</ele>
        <time>2022-06-22T04:47:45.000Z</time>
      </trkpt>
      <trkpt lat="46.92426" lon="3.05716">
        <ele>174</ele>
        <time>2022-06-22T04:47:52.000Z</time>
      </trkpt>
      <trkpt lat="46.92415" lon="3.05707">
        <ele>174.19999694824</ele>
        <time>2022-06-22T04:47:54.000Z</time>
      </trkpt>
      <trkpt lat="46.92399" lon="3.05691">
        <ele>174.60000610352</ele>
        <time>2022-06-22T04:47:57.000Z</time>
      </trkpt>
      <trkpt lat="46.92353" lon="3.05658">
        <ele>173.39999389648</ele>
        <time>2022-06-22T04:48:05.000Z</time>
      </trkpt>
      <trkpt lat="46.92306" lon="3.05634">
        <ele>171.19999694824</ele>
        <time>2022-06-22T04:48:13.000Z</time>
      </trkpt>
      <trkpt lat="46.92263" lon="3.05614">
        <ele>170</ele>
        <time>2022-06-22T04:48:21.000Z</time>
      </trkpt>
      <trkpt lat="46.92254" lon="3.05609">
        <ele>170.19999694824</ele>
        <time>2022-06-22T04:48:23.000Z</time>
      </trkpt>
      <trkpt lat="46.92247" lon="3.05601">
        <ele>170.60000610352</ele>
        <time>2022-06-22T04:48:25.000Z</time>
      </trkpt>
      <trkpt lat="46.92246" lon="3.05589">
        <ele>171</ele>
        <time>2022-06-22T04:48:27.000Z</time>
      </trkpt>
      <trkpt lat="46.92247" lon="3.05583">
        <ele>171.19999694824</ele>
        <time>2022-06-22T04:48:28.000Z</time>
      </trkpt>
      <trkpt lat="46.92252" lon="3.05561">
        <ele>173</ele>
        <time>2022-06-22T04:48:33.000Z</time>
      </trkpt>
      <trkpt lat="46.92252" lon="3.05552">
        <ele>173.60000610352</ele>
        <time>2022-06-22T04:48:35.000Z</time>
      </trkpt>
      <trkpt lat="46.92248" lon="3.05544">
        <ele>174.39999389648</ele>
        <time>2022-06-22T04:48:37.000Z</time>
      </trkpt>
      <trkpt lat="46.92241" lon="3.05539">
        <ele>175.19999694824</ele>
        <time>2022-06-22T04:48:39.000Z</time>
      </trkpt>
      <trkpt lat="46.92231" lon="3.05535">
        <ele>176</ele>
        <time>2022-06-22T04:48:41.000Z</time>
      </trkpt>
      <trkpt lat="46.92199" lon="3.05526">
        <ele>178.80000305176</ele>
        <time>2022-06-22T04:48:47.000Z</time>
      </trkpt>
      <trkpt lat="46.92163" lon="3.05517">
        <ele>180.19999694824</ele>
        <time>2022-06-22T04:48:53.000Z</time>
      </trkpt>
      <trkpt lat="46.92132" lon="3.05513">
        <ele>178.80000305176</ele>
        <time>2022-06-22T04:48:58.000Z</time>
      </trkpt>
      <trkpt lat="46.9212" lon="3.0551">
        <ele>178.39999389648</ele>
        <time>2022-06-22T04:49:00.000Z</time>
      </trkpt>
      <trkpt lat="46.92074" lon="3.05492">
        <ele>178.80000305176</ele>
        <time>2022-06-22T04:49:07.000Z</time>
      </trkpt>
      <trkpt lat="46.92042" lon="3.05475">
        <ele>180.39999389648</ele>
        <time>2022-06-22T04:49:12.000Z</time>
      </trkpt>
      <trkpt lat="46.92017" lon="3.05461">
        <ele>182</ele>
        <time>2022-06-22T04:49:16.000Z</time>
      </trkpt>
      <trkpt lat="46.92006" lon="3.05454">
        <ele>182.39999389648</ele>
        <time>2022-06-22T04:49:18.000Z</time>
      </trkpt>
      <trkpt lat="46.91987" lon="3.05441">
        <ele>180.80000305176</ele>
        <time>2022-06-22T04:49:21.000Z</time>
      </trkpt>
      <trkpt lat="46.91981" lon="3.05436">
        <ele>180.60000610352</ele>
        <time>2022-06-22T04:49:22.000Z</time>
      </trkpt>
      <trkpt lat="46.9196" lon="3.05413">
        <ele>181.60000610352</ele>
        <time>2022-06-22T04:49:26.000Z</time>
      </trkpt>
      <trkpt lat="46.91927" lon="3.05373">
        <ele>181</ele>
        <time>2022-06-22T04:49:33.000Z</time>
      </trkpt>
      <trkpt lat="46.91917" lon="3.0536">
        <ele>180.80000305176</ele>
        <time>2022-06-22T04:49:35.000Z</time>
      </trkpt>
      <trkpt lat="46.91879" lon="3.05312">
        <ele>179.39999389648</ele>
        <time>2022-06-22T04:49:43.000Z</time>
      </trkpt>
      <trkpt lat="46.91846" lon="3.05268">
        <ele>178</ele>
        <time>2022-06-22T04:49:50.000Z</time>
      </trkpt>
      <trkpt lat="46.91818" lon="3.0523">
        <ele>179.80000305176</ele>
        <time>2022-06-22T04:49:56.000Z</time>
      </trkpt>
      <trkpt lat="46.91813" lon="3.05224">
        <ele>180</ele>
        <time>2022-06-22T04:49:57.000Z</time>
      </trkpt>
      <trkpt lat="46.91792" lon="3.05196">
        <ele>180.19999694824</ele>
        <time>2022-06-22T04:50:01.000Z</time>
      </trkpt>
      <trkpt lat="46.91766" lon="3.05173">
        <ele>180.39999389648</ele>
        <time>2022-06-22T04:50:06.000Z</time>
      </trkpt>
      <trkpt lat="46.9176" lon="3.05168">
        <ele>180.80000305176</ele>
        <time>2022-06-22T04:50:07.000Z</time>
      </trkpt>
      <trkpt lat="46.91728" lon="3.05142">
        <ele>184.39999389648</ele>
        <time>2022-06-22T04:50:13.000Z</time>
      </trkpt>
      <trkpt lat="46.91717" lon="3.05135">
        <ele>183.80000305176</ele>
        <time>2022-06-22T04:50:15.000Z</time>
      </trkpt>
      <trkpt lat="46.91701" lon="3.05121">
        <ele>184.39999389648</ele>
        <time>2022-06-22T04:50:18.000Z</time>
      </trkpt>
      <trkpt lat="46.9167" lon="3.05103">
        <ele>184.39999389648</ele>
        <time>2022-06-22T04:50:24.000Z</time>
      </trkpt>
      <trkpt lat="46.91664" lon="3.05099">
        <ele>184.39999389648</ele>
        <time>2022-06-22T04:50:25.000Z</time>
      </trkpt>
      <trkpt lat="46.9165" lon="3.05092">
        <ele>184</ele>
        <time>2022-06-22T04:50:28.000Z</time>
      </trkpt>
      <trkpt lat="46.9164" lon="3.05089">
        <ele>183.60000610352</ele>
        <time>2022-06-22T04:50:30.000Z</time>
      </trkpt>
      <trkpt lat="46.91634" lon="3.05087">
        <ele>183.39999389648</ele>
        <time>2022-06-22T04:50:31.000Z</time>
      </trkpt>
      <trkpt lat="46.91623" lon="3.05082">
        <ele>183.39999389648</ele>
        <time>2022-06-22T04:50:33.000Z</time>
      </trkpt>
      <trkpt lat="46.91611" lon="3.05076">
        <ele>183.39999389648</ele>
        <time>2022-06-22T04:50:35.000Z</time>
      </trkpt>
      <trkpt lat="46.91605" lon="3.05073">
        <ele>183.39999389648</ele>
        <time>2022-06-22T04:50:36.000Z</time>
      </trkpt>
      <trkpt lat="46.91589" lon="3.05065">
        <ele>183.39999389648</ele>
        <time>2022-06-22T04:50:39.000Z</time>
      </trkpt>
      <trkpt lat="46.91584" lon="3.05063">
        <ele>183.39999389648</ele>
        <time>2022-06-22T04:50:40.000Z</time>
      </trkpt>
      <trkpt lat="46.91559" lon="3.0505">
        <ele>182.80000305176</ele>
        <time>2022-06-22T04:50:45.000Z</time>
      </trkpt>
      <trkpt lat="46.91554" lon="3.05048">
        <ele>182.39999389648</ele>
        <time>2022-06-22T04:50:46.000Z</time>
      </trkpt>
      <trkpt lat="46.91542" lon="3.05043">
        <ele>181.39999389648</ele>
        <time>2022-06-22T04:50:48.000Z</time>
      </trkpt>
      <trkpt lat="46.91515" lon="3.05034">
        <ele>179</ele>
        <time>2022-06-22T04:50:52.000Z</time>
      </trkpt>
      <trkpt lat="46.91473" lon="3.05014">
        <ele>178.80000305176</ele>
        <time>2022-06-22T04:50:59.000Z</time>
      </trkpt>
      <trkpt lat="46.91442" lon="3.05002">
        <ele>180.80000305176</ele>
        <time>2022-06-22T04:51:04.000Z</time>
      </trkpt>
      <trkpt lat="46.91429" lon="3.04998">
        <ele>182.39999389648</ele>
        <time>2022-06-22T04:51:06.000Z</time>
      </trkpt>
      <trkpt lat="46.91416" lon="3.04996">
        <ele>182.80000305176</ele>
        <time>2022-06-22T04:51:08.000Z</time>
      </trkpt>
      <trkpt lat="46.91399" lon="3.04985">
        <ele>184.19999694824</ele>
        <time>2022-06-22T04:51:11.000Z</time>
      </trkpt>
      <trkpt lat="46.91382" lon="3.04972">
        <ele>185.19999694824</ele>
        <time>2022-06-22T04:51:14.000Z</time>
      </trkpt>
      <trkpt lat="46.91372" lon="3.04967">
        <ele>185.39999389648</ele>
        <time>2022-06-22T04:51:16.000Z</time>
      </trkpt>
      <trkpt lat="46.91333" lon="3.04954">
        <ele>181.60000610352</ele>
        <time>2022-06-22T04:51:23.000Z</time>
      </trkpt>
      <trkpt lat="46.91285" lon="3.04936">
        <ele>181</ele>
        <time>2022-06-22T04:51:31.000Z</time>
      </trkpt>
      <trkpt lat="46.91238" lon="3.04916">
        <ele>185.19999694824</ele>
        <time>2022-06-22T04:51:39.000Z</time>
      </trkpt>
      <trkpt lat="46.91193" lon="3.04898">
        <ele>185.80000305176</ele>
        <time>2022-06-22T04:51:47.000Z</time>
      </trkpt>
      <trkpt lat="46.91141" lon="3.04878">
        <ele>179.80000305176</ele>
        <time>2022-06-22T04:51:56.000Z</time>
      </trkpt>
      <trkpt lat="46.91104" lon="3.04863">
        <ele>177.60000610352</ele>
        <time>2022-06-22T04:52:03.000Z</time>
      </trkpt>
      <trkpt lat="46.91093" lon="3.04858">
        <ele>176.39999389648</ele>
        <time>2022-06-22T04:52:05.000Z</time>
      </trkpt>
      <trkpt lat="46.91088" lon="3.04856">
        <ele>177.39999389648</ele>
        <time>2022-06-22T04:52:06.000Z</time>
      </trkpt>
      <trkpt lat="46.91078" lon="3.04852">
        <ele>179.19999694824</ele>
        <time>2022-06-22T04:52:08.000Z</time>
      </trkpt>
      <trkpt lat="46.91073" lon="3.04849">
        <ele>180.60000610352</ele>
        <time>2022-06-22T04:52:09.000Z</time>
      </trkpt>
      <trkpt lat="46.91053" lon="3.0484">
        <ele>179.80000305176</ele>
        <time>2022-06-22T04:52:13.000Z</time>
      </trkpt>
      <trkpt lat="46.91042" lon="3.04835">
        <ele>177.60000610352</ele>
        <time>2022-06-22T04:52:15.000Z</time>
      </trkpt>
      <trkpt lat="46.91003" lon="3.0482">
        <ele>178.60000610352</ele>
        <time>2022-06-22T04:52:21.000Z</time>
      </trkpt>
      <trkpt lat="46.90958" lon="3.04813">
        <ele>172.60000610352</ele>
        <time>2022-06-22T04:52:27.000Z</time>
      </trkpt>
      <trkpt lat="46.90924" lon="3.04815">
        <ele>171.39999389648</ele>
        <time>2022-06-22T04:52:32.000Z</time>
      </trkpt>
      <trkpt lat="46.90904" lon="3.04816">
        <ele>171</ele>
        <time>2022-06-22T04:52:35.000Z</time>
      </trkpt>
      <trkpt lat="46.90861" lon="3.04817">
        <ele>170.60000610352</ele>
        <time>2022-06-22T04:52:42.000Z</time>
      </trkpt>
      <trkpt lat="46.90837" lon="3.04813">
        <ele>172.19999694824</ele>
        <time>2022-06-22T04:52:46.000Z</time>
      </trkpt>
      <trkpt lat="46.90825" lon="3.04808">
        <ele>174</ele>
        <time>2022-06-22T04:52:48.000Z</time>
      </trkpt>
      <trkpt lat="46.90801" lon="3.04796">
        <ele>178.80000305176</ele>
        <time>2022-06-22T04:52:53.000Z</time>
      </trkpt>
      <trkpt lat="46.90781" lon="3.04788">
        <ele>179.80000305176</ele>
        <time>2022-06-22T04:52:57.000Z</time>
      </trkpt>
      <trkpt lat="46.90767" lon="3.04783">
        <ele>179</ele>
        <time>2022-06-22T04:53:00.000Z</time>
      </trkpt>
      <trkpt lat="46.90762" lon="3.04782">
        <ele>178.80000305176</ele>
        <time>2022-06-22T04:53:01.000Z</time>
      </trkpt>
      <trkpt lat="46.90732" lon="3.04775">
        <ele>178.60000610352</ele>
        <time>2022-06-22T04:53:07.000Z</time>
      </trkpt>
      <trkpt lat="46.90728" lon="3.04774">
        <ele>178.60000610352</ele>
        <time>2022-06-22T04:53:08.000Z</time>
      </trkpt>
      <trkpt lat="46.90709" lon="3.0477">
        <ele>178.80000305176</ele>
        <time>2022-06-22T04:53:12.000Z</time>
      </trkpt>
      <trkpt lat="46.907" lon="3.04763">
        <ele>178.80000305176</ele>
        <time>2022-06-22T04:53:14.000Z</time>
      </trkpt>
      <trkpt lat="46.90699" lon="3.04749">
        <ele>179.80000305176</ele>
        <time>2022-06-22T04:53:16.000Z</time>
      </trkpt>
      <trkpt lat="46.907" lon="3.04742">
        <ele>180.39999389648</ele>
        <time>2022-06-22T04:53:17.000Z</time>
      </trkpt>
      <trkpt lat="46.90707" lon="3.04692">
        <ele>184</ele>
        <time>2022-06-22T04:53:24.000Z</time>
      </trkpt>
      <trkpt lat="46.90711" lon="3.04673">
        <ele>185.60000610352</ele>
        <time>2022-06-22T04:53:27.000Z</time>
      </trkpt>
      <trkpt lat="46.90714" lon="3.04667">
        <ele>185.80000305176</ele>
        <time>2022-06-22T04:53:28.000Z</time>
      </trkpt>
      <trkpt lat="46.9072" lon="3.04656">
        <ele>186.80000305176</ele>
        <time>2022-06-22T04:53:30.000Z</time>
      </trkpt>
      <trkpt lat="46.90726" lon="3.04646">
        <ele>187.80000305176</ele>
        <time>2022-06-22T04:53:32.000Z</time>
      </trkpt>
      <trkpt lat="46.90733" lon="3.04637">
        <ele>188.60000610352</ele>
        <time>2022-06-22T04:53:34.000Z</time>
      </trkpt>
      <trkpt lat="46.90736" lon="3.04633">
        <ele>189</ele>
        <time>2022-06-22T04:53:35.000Z</time>
      </trkpt>
      <trkpt lat="46.90744" lon="3.04624">
        <ele>189.80000305176</ele>
        <time>2022-06-22T04:53:37.000Z</time>
      </trkpt>
      <trkpt lat="46.90751" lon="3.04614">
        <ele>190.19999694824</ele>
        <time>2022-06-22T04:53:39.000Z</time>
      </trkpt>
      <trkpt lat="46.90754" lon="3.0461">
        <ele>190.19999694824</ele>
        <time>2022-06-22T04:53:40.000Z</time>
      </trkpt>
      <trkpt lat="46.90758" lon="3.04605">
        <ele>190.19999694824</ele>
        <time>2022-06-22T04:53:41.000Z</time>
      </trkpt>
      <trkpt lat="46.90777" lon="3.04582">
        <ele>190.19999694824</ele>
        <time>2022-06-22T04:53:46.000Z</time>
      </trkpt>
      <trkpt lat="46.90789" lon="3.04566">
        <ele>189.19999694824</ele>
        <time>2022-06-22T04:53:49.000Z</time>
      </trkpt>
      <trkpt lat="46.90795" lon="3.04556">
        <ele>189.60000610352</ele>
        <time>2022-06-22T04:53:51.000Z</time>
      </trkpt>
      <trkpt lat="46.90818" lon="3.04526">
        <ele>189.60000610352</ele>
        <time>2022-06-22T04:53:57.000Z</time>
      </trkpt>
      <trkpt lat="46.90836" lon="3.04502">
        <ele>191.39999389648</ele>
        <time>2022-06-22T04:54:02.000Z</time>
      </trkpt>
      <trkpt lat="46.90854" lon="3.04478">
        <ele>192.39999389648</ele>
        <time>2022-06-22T04:54:07.000Z</time>
      </trkpt>
      <trkpt lat="46.90858" lon="3.04473">
        <ele>192.60000610352</ele>
        <time>2022-06-22T04:54:08.000Z</time>
      </trkpt>
      <trkpt lat="46.90872" lon="3.04456">
        <ele>193.19999694824</ele>
        <time>2022-06-22T04:54:12.000Z</time>
      </trkpt>
      <trkpt lat="46.90881" lon="3.04443">
        <ele>193.60000610352</ele>
        <time>2022-06-22T04:54:15.000Z</time>
      </trkpt>
      <trkpt lat="46.90895" lon="3.04424">
        <ele>194.19999694824</ele>
        <time>2022-06-22T04:54:19.000Z</time>
      </trkpt>
      <trkpt lat="46.90903" lon="3.04414">
        <ele>194.80000305176</ele>
        <time>2022-06-22T04:54:21.000Z</time>
      </trkpt>
      <trkpt lat="46.90914" lon="3.04399">
        <ele>195.60000610352</ele>
        <time>2022-06-22T04:54:24.000Z</time>
      </trkpt>
      <trkpt lat="46.90924" lon="3.04379">
        <ele>196.80000305176</ele>
        <time>2022-06-22T04:54:28.000Z</time>
      </trkpt>
      <trkpt lat="46.90927" lon="3.04374">
        <ele>197</ele>
        <time>2022-06-22T04:54:29.000Z</time>
      </trkpt>
      <trkpt lat="46.90934" lon="3.04356">
        <ele>197</ele>
        <time>2022-06-22T04:54:32.000Z</time>
      </trkpt>
      <trkpt lat="46.90937" lon="3.0435">
        <ele>197.19999694824</ele>
        <time>2022-06-22T04:54:33.000Z</time>
      </trkpt>
      <trkpt lat="46.90939" lon="3.04344">
        <ele>197.39999389648</ele>
        <time>2022-06-22T04:54:34.000Z</time>
      </trkpt>
      <trkpt lat="46.90944" lon="3.04331">
        <ele>197.60000610352</ele>
        <time>2022-06-22T04:54:36.000Z</time>
      </trkpt>
      <trkpt lat="46.90948" lon="3.04317">
        <ele>197.80000305176</ele>
        <time>2022-06-22T04:54:38.000Z</time>
      </trkpt>
      <trkpt lat="46.90949" lon="3.0431">
        <ele>197.80000305176</ele>
        <time>2022-06-22T04:54:39.000Z</time>
      </trkpt>
      <trkpt lat="46.90957" lon="3.04273">
        <ele>198.19999694824</ele>
        <time>2022-06-22T04:54:44.000Z</time>
      </trkpt>
      <trkpt lat="46.90959" lon="3.04257">
        <ele>198.19999694824</ele>
        <time>2022-06-22T04:54:46.000Z</time>
      </trkpt>
      <trkpt lat="46.90961" lon="3.04234">
        <ele>198.19999694824</ele>
        <time>2022-06-22T04:54:49.000Z</time>
      </trkpt>
      <trkpt lat="46.90967" lon="3.04181">
        <ele>198.39999389648</ele>
        <time>2022-06-22T04:54:56.000Z</time>
      </trkpt>
      <trkpt lat="46.90971" lon="3.04116">
        <ele>204</ele>
        <time>2022-06-22T04:55:04.000Z</time>
      </trkpt>
      <trkpt lat="46.90972" lon="3.04108">
        <ele>204.60000610352</ele>
        <time>2022-06-22T04:55:05.000Z</time>
      </trkpt>
      <trkpt lat="46.90973" lon="3.04093">
        <ele>205.80000305176</ele>
        <time>2022-06-22T04:55:07.000Z</time>
      </trkpt>
      <trkpt lat="46.90974" lon="3.04069">
        <ele>206.60000610352</ele>
        <time>2022-06-22T04:55:10.000Z</time>
      </trkpt>
      <trkpt lat="46.90976" lon="3.04037">
        <ele>206.60000610352</ele>
        <time>2022-06-22T04:55:14.000Z</time>
      </trkpt>
      <trkpt lat="46.90975" lon="3.0403">
        <ele>206.60000610352</ele>
        <time>2022-06-22T04:55:15.000Z</time>
      </trkpt>
      <trkpt lat="46.90974" lon="3.04024">
        <ele>206.60000610352</ele>
        <time>2022-06-22T04:55:16.000Z</time>
      </trkpt>
      <trkpt lat="46.90971" lon="3.04017">
        <ele>207</ele>
        <time>2022-06-22T04:55:17.000Z</time>
      </trkpt>
      <trkpt lat="46.90964" lon="3.04002">
        <ele>207</ele>
        <time>2022-06-22T04:55:19.000Z</time>
      </trkpt>
      <trkpt lat="46.90957" lon="3.03989">
        <ele>207</ele>
        <time>2022-06-22T04:55:21.000Z</time>
      </trkpt>
      <trkpt lat="46.9095" lon="3.03977">
        <ele>207.39999389648</ele>
        <time>2022-06-22T04:55:23.000Z</time>
      </trkpt>
      <trkpt lat="46.90942" lon="3.03964">
        <ele>208</ele>
        <time>2022-06-22T04:55:25.000Z</time>
      </trkpt>
      <trkpt lat="46.90939" lon="3.03958">
        <ele>208.19999694824</ele>
        <time>2022-06-22T04:55:26.000Z</time>
      </trkpt>
      <trkpt lat="46.90935" lon="3.03952">
        <ele>208.80000305176</ele>
        <time>2022-06-22T04:55:27.000Z</time>
      </trkpt>
      <trkpt lat="46.90926" lon="3.03937">
        <ele>210</ele>
        <time>2022-06-22T04:55:30.000Z</time>
      </trkpt>
      <trkpt lat="46.90923" lon="3.03928">
        <ele>210.80000305176</ele>
        <time>2022-06-22T04:55:32.000Z</time>
      </trkpt>
      <trkpt lat="46.90918" lon="3.03916">
        <ele>211.60000610352</ele>
        <time>2022-06-22T04:55:34.000Z</time>
      </trkpt>
      <trkpt lat="46.90907" lon="3.03897">
        <ele>213.39999389648</ele>
        <time>2022-06-22T04:55:38.000Z</time>
      </trkpt>
      <trkpt lat="46.90896" lon="3.03879">
        <ele>214.19999694824</ele>
        <time>2022-06-22T04:55:40.000Z</time>
      </trkpt>
      <trkpt lat="46.90878" lon="3.03845">
        <ele>214.60000610352</ele>
        <time>2022-06-22T04:55:45.000Z</time>
      </trkpt>
      <trkpt lat="46.90868" lon="3.03818">
        <ele>214.60000610352</ele>
        <time>2022-06-22T04:55:50.000Z</time>
      </trkpt>
      <trkpt lat="46.90861" lon="3.03808">
        <ele>215.60000610352</ele>
        <time>2022-06-22T04:55:52.000Z</time>
      </trkpt>
      <trkpt lat="46.9084" lon="3.03766">
        <ele>218.39999389648</ele>
        <time>2022-06-22T04:55:58.000Z</time>
      </trkpt>
      <trkpt lat="46.90823" lon="3.0373">
        <ele>218.60000610352</ele>
        <time>2022-06-22T04:56:03.000Z</time>
      </trkpt>
      <trkpt lat="46.90818" lon="3.03719">
        <ele>218.39999389648</ele>
        <time>2022-06-22T04:56:05.000Z</time>
      </trkpt>
      <trkpt lat="46.90811" lon="3.03704">
        <ele>217.80000305176</ele>
        <time>2022-06-22T04:56:07.000Z</time>
      </trkpt>
      <trkpt lat="46.90801" lon="3.03689">
        <ele>217.19999694824</ele>
        <time>2022-06-22T04:56:09.000Z</time>
      </trkpt>
      <trkpt lat="46.90792" lon="3.03672">
        <ele>216.60000610352</ele>
        <time>2022-06-22T04:56:11.000Z</time>
      </trkpt>
      <trkpt lat="46.90787" lon="3.03656">
        <ele>216</ele>
        <time>2022-06-22T04:56:14.000Z</time>
      </trkpt>
      <trkpt lat="46.90778" lon="3.03643">
        <ele>216</ele>
        <time>2022-06-22T04:56:16.000Z</time>
      </trkpt>
      <trkpt lat="46.90771" lon="3.03632">
        <ele>216.19999694824</ele>
        <time>2022-06-22T04:56:18.000Z</time>
      </trkpt>
      <trkpt lat="46.90767" lon="3.03625">
        <ele>216.19999694824</ele>
        <time>2022-06-22T04:56:19.000Z</time>
      </trkpt>
      <trkpt lat="46.90761" lon="3.03614">
        <ele>216.39999389648</ele>
        <time>2022-06-22T04:56:21.000Z</time>
      </trkpt>
      <trkpt lat="46.90756" lon="3.03604">
        <ele>217.19999694824</ele>
        <time>2022-06-22T04:56:23.000Z</time>
      </trkpt>
      <trkpt lat="46.90753" lon="3.03599">
        <ele>217.60000610352</ele>
        <time>2022-06-22T04:56:24.000Z</time>
      </trkpt>
      <trkpt lat="46.90744" lon="3.03583">
        <ele>218.19999694824</ele>
        <time>2022-06-22T04:56:27.000Z</time>
      </trkpt>
      <trkpt lat="46.90736" lon="3.03569">
        <ele>218.80000305176</ele>
        <time>2022-06-22T04:56:29.000Z</time>
      </trkpt>
      <trkpt lat="46.90733" lon="3.03562">
        <ele>218.60000610352</ele>
        <time>2022-06-22T04:56:30.000Z</time>
      </trkpt>
      <trkpt lat="46.90722" lon="3.03542">
        <ele>218.39999389648</ele>
        <time>2022-06-22T04:56:33.000Z</time>
      </trkpt>
      <trkpt lat="46.90715" lon="3.0353">
        <ele>218.19999694824</ele>
        <time>2022-06-22T04:56:35.000Z</time>
      </trkpt>
      <trkpt lat="46.90708" lon="3.03517">
        <ele>218</ele>
        <time>2022-06-22T04:56:37.000Z</time>
      </trkpt>
      <trkpt lat="46.907" lon="3.03502">
        <ele>217.39999389648</ele>
        <time>2022-06-22T04:56:39.000Z</time>
      </trkpt>
      <trkpt lat="46.90696" lon="3.03495">
        <ele>217</ele>
        <time>2022-06-22T04:56:40.000Z</time>
      </trkpt>
      <trkpt lat="46.90678" lon="3.03456">
        <ele>215</ele>
        <time>2022-06-22T04:56:45.000Z</time>
      </trkpt>
      <trkpt lat="46.90672" lon="3.0344">
        <ele>215</ele>
        <time>2022-06-22T04:56:47.000Z</time>
      </trkpt>
      <trkpt lat="46.90664" lon="3.03418">
        <ele>215</ele>
        <time>2022-06-22T04:56:50.000Z</time>
      </trkpt>
      <trkpt lat="46.90654" lon="3.03406">
        <ele>215</ele>
        <time>2022-06-22T04:56:52.000Z</time>
      </trkpt>
      <trkpt lat="46.90648" lon="3.03393">
        <ele>215.39999389648</ele>
        <time>2022-06-22T04:56:54.000Z</time>
      </trkpt>
      <trkpt lat="46.90639" lon="3.03376">
        <ele>216.39999389648</ele>
        <time>2022-06-22T04:56:57.000Z</time>
      </trkpt>
      <trkpt lat="46.90636" lon="3.0337">
        <ele>216.60000610352</ele>
        <time>2022-06-22T04:56:58.000Z</time>
      </trkpt>
      <trkpt lat="46.90626" lon="3.03353">
        <ele>216.80000305176</ele>
        <time>2022-06-22T04:57:01.000Z</time>
      </trkpt>
      <trkpt lat="46.90623" lon="3.03347">
        <ele>217</ele>
        <time>2022-06-22T04:57:02.000Z</time>
      </trkpt>
      <trkpt lat="46.9062" lon="3.03341">
        <ele>217</ele>
        <time>2022-06-22T04:57:03.000Z</time>
      </trkpt>
      <trkpt lat="46.90605" lon="3.03316">
        <ele>217</ele>
        <time>2022-06-22T04:57:07.000Z</time>
      </trkpt>
      <trkpt lat="46.90599" lon="3.03303">
        <ele>217</ele>
        <time>2022-06-22T04:57:09.000Z</time>
      </trkpt>
      <trkpt lat="46.90586" lon="3.03279">
        <ele>217</ele>
        <time>2022-06-22T04:57:13.000Z</time>
      </trkpt>
      <trkpt lat="46.90564" lon="3.03233">
        <ele>216</ele>
        <time>2022-06-22T04:57:19.000Z</time>
      </trkpt>
      <trkpt lat="46.90552" lon="3.03211">
        <ele>216.60000610352</ele>
        <time>2022-06-22T04:57:22.000Z</time>
      </trkpt>
      <trkpt lat="46.90545" lon="3.03199">
        <ele>216.80000305176</ele>
        <time>2022-06-22T04:57:24.000Z</time>
      </trkpt>
      <trkpt lat="46.90541" lon="3.03191">
        <ele>217</ele>
        <time>2022-06-22T04:57:25.000Z</time>
      </trkpt>
      <trkpt lat="46.9053" lon="3.03173">
        <ele>218</ele>
        <time>2022-06-22T04:57:27.000Z</time>
      </trkpt>
      <trkpt lat="46.90522" lon="3.03158">
        <ele>218.80000305176</ele>
        <time>2022-06-22T04:57:29.000Z</time>
      </trkpt>
      <trkpt lat="46.9052" lon="3.03152">
        <ele>219</ele>
        <time>2022-06-22T04:57:30.000Z</time>
      </trkpt>
      <trkpt lat="46.90511" lon="3.03132">
        <ele>220</ele>
        <time>2022-06-22T04:57:32.000Z</time>
      </trkpt>
      <trkpt lat="46.90503" lon="3.03112">
        <ele>219.60000610352</ele>
        <time>2022-06-22T04:57:35.000Z</time>
      </trkpt>
      <trkpt lat="46.90477" lon="3.03067">
        <ele>218.19999694824</ele>
        <time>2022-06-22T04:57:42.000Z</time>
      </trkpt>
      <trkpt lat="46.90473" lon="3.03061">
        <ele>218.39999389648</ele>
        <time>2022-06-22T04:57:43.000Z</time>
      </trkpt>
      <trkpt lat="46.90462" lon="3.03041">
        <ele>218.80000305176</ele>
        <time>2022-06-22T04:57:46.000Z</time>
      </trkpt>
      <trkpt lat="46.90455" lon="3.03026">
        <ele>219.60000610352</ele>
        <time>2022-06-22T04:57:48.000Z</time>
      </trkpt>
      <trkpt lat="46.90445" lon="3.03003">
        <ele>220</ele>
        <time>2022-06-22T04:57:51.000Z</time>
      </trkpt>
      <trkpt lat="46.9043" lon="3.02977">
        <ele>219.60000610352</ele>
        <time>2022-06-22T04:57:54.000Z</time>
      </trkpt>
      <trkpt lat="46.90422" lon="3.02964">
        <ele>218.80000305176</ele>
        <time>2022-06-22T04:57:56.000Z</time>
      </trkpt>
      <trkpt lat="46.90415" lon="3.02948">
        <ele>218</ele>
        <time>2022-06-22T04:57:58.000Z</time>
      </trkpt>
      <trkpt lat="46.90411" lon="3.02941">
        <ele>217.80000305176</ele>
        <time>2022-06-22T04:57:59.000Z</time>
      </trkpt>
      <trkpt lat="46.90392" lon="3.02903">
        <ele>216.80000305176</ele>
        <time>2022-06-22T04:58:04.000Z</time>
      </trkpt>
      <trkpt lat="46.90387" lon="3.02894">
        <ele>216.60000610352</ele>
        <time>2022-06-22T04:58:05.000Z</time>
      </trkpt>
      <trkpt lat="46.90358" lon="3.02838">
        <ele>216.80000305176</ele>
        <time>2022-06-22T04:58:12.000Z</time>
      </trkpt>
      <trkpt lat="46.90347" lon="3.02809">
        <ele>217</ele>
        <time>2022-06-22T04:58:15.000Z</time>
      </trkpt>
      <trkpt lat="46.9034" lon="3.02795">
        <ele>216.80000305176</ele>
        <time>2022-06-22T04:58:17.000Z</time>
      </trkpt>
      <trkpt lat="46.90337" lon="3.02788">
        <ele>216.80000305176</ele>
        <time>2022-06-22T04:58:18.000Z</time>
      </trkpt>
      <trkpt lat="46.90328" lon="3.02772">
        <ele>217.19999694824</ele>
        <time>2022-06-22T04:58:20.000Z</time>
      </trkpt>
      <trkpt lat="46.90319" lon="3.02757">
        <ele>217.39999389648</ele>
        <time>2022-06-22T04:58:22.000Z</time>
      </trkpt>
      <trkpt lat="46.90302" lon="3.02722">
        <ele>218</ele>
        <time>2022-06-22T04:58:27.000Z</time>
      </trkpt>
      <trkpt lat="46.90286" lon="3.0269">
        <ele>218</ele>
        <time>2022-06-22T04:58:32.000Z</time>
      </trkpt>
      <trkpt lat="46.90275" lon="3.02663">
        <ele>217.80000305176</ele>
        <time>2022-06-22T04:58:35.000Z</time>
      </trkpt>
      <trkpt lat="46.90267" lon="3.02648">
        <ele>217.60000610352</ele>
        <time>2022-06-22T04:58:37.000Z</time>
      </trkpt>
      <trkpt lat="46.90246" lon="3.02603">
        <ele>217.60000610352</ele>
        <time>2022-06-22T04:58:43.000Z</time>
      </trkpt>
      <trkpt lat="46.90214" lon="3.02553">
        <ele>218.60000610352</ele>
        <time>2022-06-22T04:58:50.000Z</time>
      </trkpt>
      <trkpt lat="46.90208" lon="3.02542">
        <ele>219</ele>
        <time>2022-06-22T04:58:52.000Z</time>
      </trkpt>
      <trkpt lat="46.90197" lon="3.02523">
        <ele>218.39999389648</ele>
        <time>2022-06-22T04:58:55.000Z</time>
      </trkpt>
      <trkpt lat="46.90175" lon="3.02481">
        <ele>216.60000610352</ele>
        <time>2022-06-22T04:59:01.000Z</time>
      </trkpt>
      <trkpt lat="46.90157" lon="3.02447">
        <ele>215.19999694824</ele>
        <time>2022-06-22T04:59:06.000Z</time>
      </trkpt>
      <trkpt lat="46.90153" lon="3.02438">
        <ele>215</ele>
        <time>2022-06-22T04:59:07.000Z</time>
      </trkpt>
      <trkpt lat="46.90132" lon="3.02399">
        <ele>215.39999389648</ele>
        <time>2022-06-22T04:59:12.000Z</time>
      </trkpt>
      <trkpt lat="46.90118" lon="3.02371">
        <ele>214.80000305176</ele>
        <time>2022-06-22T04:59:16.000Z</time>
      </trkpt>
      <trkpt lat="46.90113" lon="3.02362">
        <ele>214.39999389648</ele>
        <time>2022-06-22T04:59:17.000Z</time>
      </trkpt>
      <trkpt lat="46.90095" lon="3.02335">
        <ele>214</ele>
        <time>2022-06-22T04:59:20.000Z</time>
      </trkpt>
      <trkpt lat="46.90087" lon="3.02311">
        <ele>214.60000610352</ele>
        <time>2022-06-22T04:59:23.000Z</time>
      </trkpt>
      <trkpt lat="46.90067" lon="3.02268">
        <ele>216</ele>
        <time>2022-06-22T04:59:28.000Z</time>
      </trkpt>
      <trkpt lat="46.90063" lon="3.02259">
        <ele>215.80000305176</ele>
        <time>2022-06-22T04:59:29.000Z</time>
      </trkpt>
      <trkpt lat="46.90029" lon="3.02188">
        <ele>215.80000305176</ele>
        <time>2022-06-22T04:59:38.000Z</time>
      </trkpt>
      <trkpt lat="46.90022" lon="3.02174">
        <ele>216.19999694824</ele>
        <time>2022-06-22T04:59:40.000Z</time>
      </trkpt>
      <trkpt lat="46.90013" lon="3.02155">
        <ele>217</ele>
        <time>2022-06-22T04:59:43.000Z</time>
      </trkpt>
      <trkpt lat="46.90003" lon="3.02137">
        <ele>217.39999389648</ele>
        <time>2022-06-22T04:59:46.000Z</time>
      </trkpt>
      <trkpt lat="46.89989" lon="3.0211">
        <ele>217.80000305176</ele>
        <time>2022-06-22T04:59:51.000Z</time>
      </trkpt>
      <trkpt lat="46.89972" lon="3.02074">
        <ele>216.80000305176</ele>
        <time>2022-06-22T04:59:57.000Z</time>
      </trkpt>
      <trkpt lat="46.89968" lon="3.02067">
        <ele>216.39999389648</ele>
        <time>2022-06-22T04:59:58.000Z</time>
      </trkpt>
      <trkpt lat="46.89953" lon="3.02045">
        <ele>215</ele>
        <time>2022-06-22T05:00:01.000Z</time>
      </trkpt>
      <trkpt lat="46.89946" lon="3.02031">
        <ele>215</ele>
        <time>2022-06-22T05:00:03.000Z</time>
      </trkpt>
      <trkpt lat="46.89934" lon="3.02015">
        <ele>215</ele>
        <time>2022-06-22T05:00:05.000Z</time>
      </trkpt>
      <trkpt lat="46.89916" lon="3.01977">
        <ele>216</ele>
        <time>2022-06-22T05:00:10.000Z</time>
      </trkpt>
      <trkpt lat="46.89909" lon="3.0196">
        <ele>216</ele>
        <time>2022-06-22T05:00:12.000Z</time>
      </trkpt>
      <trkpt lat="46.89894" lon="3.01933">
        <ele>215.19999694824</ele>
        <time>2022-06-22T05:00:16.000Z</time>
      </trkpt>
      <trkpt lat="46.89887" lon="3.01916">
        <ele>215</ele>
        <time>2022-06-22T05:00:18.000Z</time>
      </trkpt>
      <trkpt lat="46.89867" lon="3.0188">
        <ele>214.60000610352</ele>
        <time>2022-06-22T05:00:23.000Z</time>
      </trkpt>
      <trkpt lat="46.89861" lon="3.01866">
        <ele>214.39999389648</ele>
        <time>2022-06-22T05:00:25.000Z</time>
      </trkpt>
      <trkpt lat="46.89845" lon="3.01837">
        <ele>215</ele>
        <time>2022-06-22T05:00:29.000Z</time>
      </trkpt>
      <trkpt lat="46.89828" lon="3.01807">
        <ele>215.60000610352</ele>
        <time>2022-06-22T05:00:34.000Z</time>
      </trkpt>
      <trkpt lat="46.89824" lon="3.01801">
        <ele>215.80000305176</ele>
        <time>2022-06-22T05:00:35.000Z</time>
      </trkpt>
      <trkpt lat="46.89816" lon="3.01785">
        <ele>216.19999694824</ele>
        <time>2022-06-22T05:00:37.000Z</time>
      </trkpt>
      <trkpt lat="46.89804" lon="3.01766">
        <ele>216.39999389648</ele>
        <time>2022-06-22T05:00:40.000Z</time>
      </trkpt>
      <trkpt lat="46.89801" lon="3.01761">
        <ele>216.39999389648</ele>
        <time>2022-06-22T05:00:41.000Z</time>
      </trkpt>
      <trkpt lat="46.89794" lon="3.0175">
        <ele>216.19999694824</ele>
        <time>2022-06-22T05:00:43.000Z</time>
      </trkpt>
      <trkpt lat="46.89786" lon="3.01736">
        <ele>216</ele>
        <time>2022-06-22T05:00:45.000Z</time>
      </trkpt>
      <trkpt lat="46.89779" lon="3.01721">
        <ele>216.19999694824</ele>
        <time>2022-06-22T05:00:47.000Z</time>
      </trkpt>
      <trkpt lat="46.89774" lon="3.01709">
        <ele>216.39999389648</ele>
        <time>2022-06-22T05:00:49.000Z</time>
      </trkpt>
      <trkpt lat="46.89766" lon="3.01696">
        <ele>216.19999694824</ele>
        <time>2022-06-22T05:00:51.000Z</time>
      </trkpt>
      <trkpt lat="46.89762" lon="3.0169">
        <ele>216</ele>
        <time>2022-06-22T05:00:52.000Z</time>
      </trkpt>
      <trkpt lat="46.89754" lon="3.01676">
        <ele>216</ele>
        <time>2022-06-22T05:00:54.000Z</time>
      </trkpt>
      <trkpt lat="46.8975" lon="3.01669">
        <ele>216</ele>
        <time>2022-06-22T05:00:55.000Z</time>
      </trkpt>
      <trkpt lat="46.8973" lon="3.01623">
        <ele>215</ele>
        <time>2022-06-22T05:01:01.000Z</time>
      </trkpt>
      <trkpt lat="46.89728" lon="3.01617">
        <ele>215</ele>
        <time>2022-06-22T05:01:02.000Z</time>
      </trkpt>
      <trkpt lat="46.89719" lon="3.01605">
        <ele>215</ele>
        <time>2022-06-22T05:01:04.000Z</time>
      </trkpt>
      <trkpt lat="46.89706" lon="3.01575">
        <ele>216.60000610352</ele>
        <time>2022-06-22T05:01:08.000Z</time>
      </trkpt>
      <trkpt lat="46.89702" lon="3.01567">
        <ele>217</ele>
        <time>2022-06-22T05:01:09.000Z</time>
      </trkpt>
      <trkpt lat="46.89686" lon="3.01535">
        <ele>217.39999389648</ele>
        <time>2022-06-22T05:01:14.000Z</time>
      </trkpt>
      <trkpt lat="46.89681" lon="3.01521">
        <ele>217.19999694824</ele>
        <time>2022-06-22T05:01:16.000Z</time>
      </trkpt>
      <trkpt lat="46.89679" lon="3.01514">
        <ele>217</ele>
        <time>2022-06-22T05:01:17.000Z</time>
      </trkpt>
      <trkpt lat="46.89675" lon="3.01509">
        <ele>217</ele>
        <time>2022-06-22T05:01:18.000Z</time>
      </trkpt>
      <trkpt lat="46.89672" lon="3.01503">
        <ele>217</ele>
        <time>2022-06-22T05:01:19.000Z</time>
      </trkpt>
      <trkpt lat="46.89648" lon="3.01461">
        <ele>217.19999694824</ele>
        <time>2022-06-22T05:01:25.000Z</time>
      </trkpt>
      <trkpt lat="46.89645" lon="3.01453">
        <ele>217.19999694824</ele>
        <time>2022-06-22T05:01:26.000Z</time>
      </trkpt>
      <trkpt lat="46.89631" lon="3.01425">
        <ele>217.39999389648</ele>
        <time>2022-06-22T05:01:30.000Z</time>
      </trkpt>
      <trkpt lat="46.89613" lon="3.01394">
        <ele>217.39999389648</ele>
        <time>2022-06-22T05:01:35.000Z</time>
      </trkpt>
      <trkpt lat="46.8961" lon="3.01388">
        <ele>217.39999389648</ele>
        <time>2022-06-22T05:01:36.000Z</time>
      </trkpt>
      <trkpt lat="46.89607" lon="3.01382">
        <ele>217.39999389648</ele>
        <time>2022-06-22T05:01:37.000Z</time>
      </trkpt>
      <trkpt lat="46.89588" lon="3.01342">
        <ele>216.80000305176</ele>
        <time>2022-06-22T05:01:43.000Z</time>
      </trkpt>
      <trkpt lat="46.89574" lon="3.01316">
        <ele>215.39999389648</ele>
        <time>2022-06-22T05:01:47.000Z</time>
      </trkpt>
      <trkpt lat="46.89566" lon="3.01298">
        <ele>214.39999389648</ele>
        <time>2022-06-22T05:01:49.000Z</time>
      </trkpt>
      <trkpt lat="46.89557" lon="3.01282">
        <ele>214.39999389648</ele>
        <time>2022-06-22T05:01:51.000Z</time>
      </trkpt>
      <trkpt lat="46.89548" lon="3.01266">
        <ele>214.39999389648</ele>
        <time>2022-06-22T05:01:53.000Z</time>
      </trkpt>
      <trkpt lat="46.89522" lon="3.0121">
        <ele>215.60000610352</ele>
        <time>2022-06-22T05:01:59.000Z</time>
      </trkpt>
      <trkpt lat="46.89513" lon="3.01191">
        <ele>214.80000305176</ele>
        <time>2022-06-22T05:02:01.000Z</time>
      </trkpt>
      <trkpt lat="46.89494" lon="3.01155">
        <ele>213</ele>
        <time>2022-06-22T05:02:05.000Z</time>
      </trkpt>
      <trkpt lat="46.89485" lon="3.01138">
        <ele>213</ele>
        <time>2022-06-22T05:02:07.000Z</time>
      </trkpt>
      <trkpt lat="46.89474" lon="3.01117">
        <ele>212</ele>
        <time>2022-06-22T05:02:09.000Z</time>
      </trkpt>
      <trkpt lat="46.89458" lon="3.01089">
        <ele>210</ele>
        <time>2022-06-22T05:02:12.000Z</time>
      </trkpt>
      <trkpt lat="46.89454" lon="3.01081">
        <ele>210</ele>
        <time>2022-06-22T05:02:13.000Z</time>
      </trkpt>
      <trkpt lat="46.89438" lon="3.01049">
        <ele>209.19999694824</ele>
        <time>2022-06-22T05:02:16.000Z</time>
      </trkpt>
      <trkpt lat="46.89433" lon="3.01031">
        <ele>208.60000610352</ele>
        <time>2022-06-22T05:02:18.000Z</time>
      </trkpt>
      <trkpt lat="46.8943" lon="3.01018">
        <ele>208.19999694824</ele>
        <time>2022-06-22T05:02:19.000Z</time>
      </trkpt>
      <trkpt lat="46.89426" lon="3.00999">
        <ele>207.60000610352</ele>
        <time>2022-06-22T05:02:21.000Z</time>
      </trkpt>
      <trkpt lat="46.89425" lon="3.00989">
        <ele>207.19999694824</ele>
        <time>2022-06-22T05:02:22.000Z</time>
      </trkpt>
      <trkpt lat="46.89423" lon="3.00976">
        <ele>206.80000305176</ele>
        <time>2022-06-22T05:02:23.000Z</time>
      </trkpt>
      <trkpt lat="46.89422" lon="3.00956">
        <ele>206.19999694824</ele>
        <time>2022-06-22T05:02:25.000Z</time>
      </trkpt>
      <trkpt lat="46.89423" lon="3.00935">
        <ele>205.60000610352</ele>
        <time>2022-06-22T05:02:27.000Z</time>
      </trkpt>
      <trkpt lat="46.89423" lon="3.00909">
        <ele>204.80000305176</ele>
        <time>2022-06-22T05:02:29.000Z</time>
      </trkpt>
      <trkpt lat="46.89423" lon="3.00897">
        <ele>204.39999389648</ele>
        <time>2022-06-22T05:02:30.000Z</time>
      </trkpt>
      <trkpt lat="46.89425" lon="3.00843">
        <ele>203.19999694824</ele>
        <time>2022-06-22T05:02:34.000Z</time>
      </trkpt>
      <trkpt lat="46.89426" lon="3.00806">
        <ele>201.39999389648</ele>
        <time>2022-06-22T05:02:37.000Z</time>
      </trkpt>
      <trkpt lat="46.89427" lon="3.00765">
        <ele>201.19999694824</ele>
        <time>2022-06-22T05:02:40.000Z</time>
      </trkpt>
      <trkpt lat="46.89427" lon="3.00752">
        <ele>202</ele>
        <time>2022-06-22T05:02:41.000Z</time>
      </trkpt>
      <trkpt lat="46.89429" lon="3.00716">
        <ele>203.60000610352</ele>
        <time>2022-06-22T05:02:44.000Z</time>
      </trkpt>
      <trkpt lat="46.89429" lon="3.00682">
        <ele>204.80000305176</ele>
        <time>2022-06-22T05:02:47.000Z</time>
      </trkpt>
      <trkpt lat="46.89425" lon="3.0064">
        <ele>204</ele>
        <time>2022-06-22T05:02:51.000Z</time>
      </trkpt>
      <trkpt lat="46.89424" lon="3.00627">
        <ele>204.19999694824</ele>
        <time>2022-06-22T05:02:52.000Z</time>
      </trkpt>
      <trkpt lat="46.89422" lon="3.0061">
        <ele>203.60000610352</ele>
        <time>2022-06-22T05:02:54.000Z</time>
      </trkpt>
      <trkpt lat="46.89427" lon="3.00595">
        <ele>203</ele>
        <time>2022-06-22T05:02:56.000Z</time>
      </trkpt>
      <trkpt lat="46.89427" lon="3.00586">
        <ele>202.60000610352</ele>
        <time>2022-06-22T05:02:57.000Z</time>
      </trkpt>
      <trkpt lat="46.89426" lon="3.00577">
        <ele>202.39999389648</ele>
        <time>2022-06-22T05:02:58.000Z</time>
      </trkpt>
      <trkpt lat="46.89427" lon="3.00555">
        <ele>202</ele>
        <time>2022-06-22T05:03:01.000Z</time>
      </trkpt>
      <trkpt lat="46.89427" lon="3.0054">
        <ele>202</ele>
        <time>2022-06-22T05:03:03.000Z</time>
      </trkpt>
      <trkpt lat="46.89428" lon="3.0052">
        <ele>202</ele>
        <time>2022-06-22T05:03:06.000Z</time>
      </trkpt>
      <trkpt lat="46.89428" lon="3.00489">
        <ele>201</ele>
        <time>2022-06-22T05:03:10.000Z</time>
      </trkpt>
      <trkpt lat="46.89428" lon="3.00481">
        <ele>201</ele>
        <time>2022-06-22T05:03:11.000Z</time>
      </trkpt>
      <trkpt lat="46.89427" lon="3.00436">
        <ele>201.80000305176</ele>
        <time>2022-06-22T05:03:17.000Z</time>
      </trkpt>
      <trkpt lat="46.89427" lon="3.00428">
        <ele>202</ele>
        <time>2022-06-22T05:03:18.000Z</time>
      </trkpt>
      <trkpt lat="46.89427" lon="3.00414">
        <ele>202.60000610352</ele>
        <time>2022-06-22T05:03:20.000Z</time>
      </trkpt>
      <trkpt lat="46.89428" lon="3.00393">
        <ele>203.80000305176</ele>
        <time>2022-06-22T05:03:23.000Z</time>
      </trkpt>
      <trkpt lat="46.89428" lon="3.00386">
        <ele>204.19999694824</ele>
        <time>2022-06-22T05:03:24.000Z</time>
      </trkpt>
      <trkpt lat="46.89427" lon="3.00353">
        <ele>205.80000305176</ele>
        <time>2022-06-22T05:03:29.000Z</time>
      </trkpt>
      <trkpt lat="46.89426" lon="3.00347">
        <ele>206</ele>
        <time>2022-06-22T05:03:30.000Z</time>
      </trkpt>
      <trkpt lat="46.89427" lon="3.00322">
        <ele>206.80000305176</ele>
        <time>2022-06-22T05:03:34.000Z</time>
      </trkpt>
      <trkpt lat="46.89427" lon="3.00316">
        <ele>207.19999694824</ele>
        <time>2022-06-22T05:03:35.000Z</time>
      </trkpt>
      <trkpt lat="46.89427" lon="3.00295">
        <ele>208.80000305176</ele>
        <time>2022-06-22T05:03:38.000Z</time>
      </trkpt>
      <trkpt lat="46.89428" lon="3.00289">
        <ele>209.19999694824</ele>
        <time>2022-06-22T05:03:39.000Z</time>
      </trkpt>
      <trkpt lat="46.89428" lon="3.00284">
        <ele>209.19999694824</ele>
        <time>2022-06-22T05:03:40.000Z</time>
      </trkpt>
      <trkpt lat="46.89429" lon="3.0027">
        <ele>209.80000305176</ele>
        <time>2022-06-22T05:03:42.000Z</time>
      </trkpt>
      <trkpt lat="46.8943" lon="3.00255">
        <ele>210.19999694824</ele>
        <time>2022-06-22T05:03:44.000Z</time>
      </trkpt>
      <trkpt lat="46.8943" lon="3.00241">
        <ele>210.19999694824</ele>
        <time>2022-06-22T05:03:46.000Z</time>
      </trkpt>
      <trkpt lat="46.8943" lon="3.00226">
        <ele>210</ele>
        <time>2022-06-22T05:03:48.000Z</time>
      </trkpt>
      <trkpt lat="46.89432" lon="3.00205">
        <ele>210.19999694824</ele>
        <time>2022-06-22T05:03:51.000Z</time>
      </trkpt>
      <trkpt lat="46.89433" lon="3.00197">
        <ele>210</ele>
        <time>2022-06-22T05:03:52.000Z</time>
      </trkpt>
      <trkpt lat="46.89433" lon="3.00183">
        <ele>209.60000610352</ele>
        <time>2022-06-22T05:03:54.000Z</time>
      </trkpt>
      <trkpt lat="46.89434" lon="3.00175">
        <ele>209.80000305176</ele>
        <time>2022-06-22T05:03:55.000Z</time>
      </trkpt>
      <trkpt lat="46.89435" lon="3.00161">
        <ele>209.80000305176</ele>
        <time>2022-06-22T05:03:57.000Z</time>
      </trkpt>
      <trkpt lat="46.89435" lon="3.00152">
        <ele>209.80000305176</ele>
        <time>2022-06-22T05:03:58.000Z</time>
      </trkpt>
      <trkpt lat="46.89439" lon="3.00131">
        <ele>210.60000610352</ele>
        <time>2022-06-22T05:04:01.000Z</time>
      </trkpt>
      <trkpt lat="46.89441" lon="3.00119">
        <ele>211.60000610352</ele>
        <time>2022-06-22T05:04:03.000Z</time>
      </trkpt>
      <trkpt lat="46.89447" lon="3.00086">
        <ele>213.60000610352</ele>
        <time>2022-06-22T05:04:07.000Z</time>
      </trkpt>
      <trkpt lat="46.89449" lon="3.00078">
        <ele>213.80000305176</ele>
        <time>2022-06-22T05:04:08.000Z</time>
      </trkpt>
      <trkpt lat="46.89458" lon="3.00052">
        <ele>215.39999389648</ele>
        <time>2022-06-22T05:04:11.000Z</time>
      </trkpt>
      <trkpt lat="46.89457" lon="3.00044">
        <ele>215.19999694824</ele>
        <time>2022-06-22T05:04:12.000Z</time>
      </trkpt>
      <trkpt lat="46.89456" lon="3.00027">
        <ele>214.39999389648</ele>
        <time>2022-06-22T05:04:14.000Z</time>
      </trkpt>
      <trkpt lat="46.89454" lon="2.99994">
        <ele>211.60000610352</ele>
        <time>2022-06-22T05:04:17.000Z</time>
      </trkpt>
      <trkpt lat="46.89448" lon="2.99949">
        <ele>205.80000305176</ele>
        <time>2022-06-22T05:04:21.000Z</time>
      </trkpt>
      <trkpt lat="46.89442" lon="2.99922">
        <ele>204.60000610352</ele>
        <time>2022-06-22T05:04:24.000Z</time>
      </trkpt>
      <trkpt lat="46.89432" lon="2.99884">
        <ele>203.39999389648</ele>
        <time>2022-06-22T05:04:28.000Z</time>
      </trkpt>
      <trkpt lat="46.8943" lon="2.99876">
        <ele>203.19999694824</ele>
        <time>2022-06-22T05:04:29.000Z</time>
      </trkpt>
      <trkpt lat="46.89418" lon="2.99826">
        <ele>201.80000305176</ele>
        <time>2022-06-22T05:04:34.000Z</time>
      </trkpt>
      <trkpt lat="46.89415" lon="2.99815">
        <ele>201.39999389648</ele>
        <time>2022-06-22T05:04:35.000Z</time>
      </trkpt>
      <trkpt lat="46.89404" lon="2.99773">
        <ele>200.19999694824</ele>
        <time>2022-06-22T05:04:39.000Z</time>
      </trkpt>
      <trkpt lat="46.89391" lon="2.99718">
        <ele>204</ele>
        <time>2022-06-22T05:04:44.000Z</time>
      </trkpt>
      <trkpt lat="46.89386" lon="2.99695">
        <ele>206</ele>
        <time>2022-06-22T05:04:46.000Z</time>
      </trkpt>
      <trkpt lat="46.89374" lon="2.99652">
        <ele>209.80000305176</ele>
        <time>2022-06-22T05:04:51.000Z</time>
      </trkpt>
      <trkpt lat="46.89368" lon="2.99629">
        <ele>211.19999694824</ele>
        <time>2022-06-22T05:04:54.000Z</time>
      </trkpt>
      <trkpt lat="46.89365" lon="2.99614">
        <ele>211.80000305176</ele>
        <time>2022-06-22T05:04:56.000Z</time>
      </trkpt>
      <trkpt lat="46.89363" lon="2.99601">
        <ele>212</ele>
        <time>2022-06-22T05:04:58.000Z</time>
      </trkpt>
      <trkpt lat="46.89364" lon="2.99584">
        <ele>212.39999389648</ele>
        <time>2022-06-22T05:05:00.000Z</time>
      </trkpt>
      <trkpt lat="46.89363" lon="2.99577">
        <ele>212.60000610352</ele>
        <time>2022-06-22T05:05:01.000Z</time>
      </trkpt>
      <trkpt lat="46.89364" lon="2.99563">
        <ele>213</ele>
        <time>2022-06-22T05:05:03.000Z</time>
      </trkpt>
      <trkpt lat="46.89362" lon="2.99548">
        <ele>213</ele>
        <time>2022-06-22T05:05:05.000Z</time>
      </trkpt>
      <trkpt lat="46.89362" lon="2.99541">
        <ele>213</ele>
        <time>2022-06-22T05:05:06.000Z</time>
      </trkpt>
      <trkpt lat="46.89361" lon="2.99534">
        <ele>213.39999389648</ele>
        <time>2022-06-22T05:05:07.000Z</time>
      </trkpt>
      <trkpt lat="46.8936" lon="2.99519">
        <ele>214</ele>
        <time>2022-06-22T05:05:09.000Z</time>
      </trkpt>
      <trkpt lat="46.89361" lon="2.99499">
        <ele>213.80000305176</ele>
        <time>2022-06-22T05:05:12.000Z</time>
      </trkpt>
      <trkpt lat="46.8936" lon="2.99483">
        <ele>213.80000305176</ele>
        <time>2022-06-22T05:05:14.000Z</time>
      </trkpt>
      <trkpt lat="46.8936" lon="2.99461">
        <ele>213.80000305176</ele>
        <time>2022-06-22T05:05:17.000Z</time>
      </trkpt>
      <trkpt lat="46.89359" lon="2.99444">
        <ele>213.80000305176</ele>
        <time>2022-06-22T05:05:19.000Z</time>
      </trkpt>
      <trkpt lat="46.89359" lon="2.99427">
        <ele>213.39999389648</ele>
        <time>2022-06-22T05:05:21.000Z</time>
      </trkpt>
      <trkpt lat="46.89357" lon="2.9942">
        <ele>213.19999694824</ele>
        <time>2022-06-22T05:05:22.000Z</time>
      </trkpt>
      <trkpt lat="46.89343" lon="2.99369">
        <ele>213</ele>
        <time>2022-06-22T05:05:28.000Z</time>
      </trkpt>
      <trkpt lat="46.89334" lon="2.99338">
        <ele>213.80000305176</ele>
        <time>2022-06-22T05:05:32.000Z</time>
      </trkpt>
      <trkpt lat="46.89327" lon="2.99313">
        <ele>214.39999389648</ele>
        <time>2022-06-22T05:05:35.000Z</time>
      </trkpt>
      <trkpt lat="46.89309" lon="2.99252">
        <ele>217</ele>
        <time>2022-06-22T05:05:43.000Z</time>
      </trkpt>
      <trkpt lat="46.89304" lon="2.99222">
        <ele>217.80000305176</ele>
        <time>2022-06-22T05:05:47.000Z</time>
      </trkpt>
      <trkpt lat="46.89301" lon="2.99199">
        <ele>218.19999694824</ele>
        <time>2022-06-22T05:05:50.000Z</time>
      </trkpt>
      <trkpt lat="46.89297" lon="2.99169">
        <ele>218.80000305176</ele>
        <time>2022-06-22T05:05:54.000Z</time>
      </trkpt>
      <trkpt lat="46.89297" lon="2.99162">
        <ele>219</ele>
        <time>2022-06-22T05:05:55.000Z</time>
      </trkpt>
      <trkpt lat="46.89297" lon="2.99155">
        <ele>219.19999694824</ele>
        <time>2022-06-22T05:05:56.000Z</time>
      </trkpt>
      <trkpt lat="46.89297" lon="2.99149">
        <ele>219.39999389648</ele>
        <time>2022-06-22T05:05:57.000Z</time>
      </trkpt>
      <trkpt lat="46.89293" lon="2.9913">
        <ele>219.60000610352</ele>
        <time>2022-06-22T05:05:59.000Z</time>
      </trkpt>
      <trkpt lat="46.89292" lon="2.99115">
        <ele>219</ele>
        <time>2022-06-22T05:06:01.000Z</time>
      </trkpt>
      <trkpt lat="46.89291" lon="2.99107">
        <ele>218.60000610352</ele>
        <time>2022-06-22T05:06:02.000Z</time>
      </trkpt>
      <trkpt lat="46.89289" lon="2.99092">
        <ele>217.80000305176</ele>
        <time>2022-06-22T05:06:04.000Z</time>
      </trkpt>
      <trkpt lat="46.89289" lon="2.99078">
        <ele>217.39999389648</ele>
        <time>2022-06-22T05:06:06.000Z</time>
      </trkpt>
      <trkpt lat="46.89289" lon="2.99068">
        <ele>217</ele>
        <time>2022-06-22T05:06:07.000Z</time>
      </trkpt>
      <trkpt lat="46.89286" lon="2.99051">
        <ele>216.80000305176</ele>
        <time>2022-06-22T05:06:09.000Z</time>
      </trkpt>
      <trkpt lat="46.89284" lon="2.99027">
        <ele>217.39999389648</ele>
        <time>2022-06-22T05:06:12.000Z</time>
      </trkpt>
      <trkpt lat="46.89281" lon="2.98973">
        <ele>219.60000610352</ele>
        <time>2022-06-22T05:06:19.000Z</time>
      </trkpt>
      <trkpt lat="46.8928" lon="2.98943">
        <ele>220.80000305176</ele>
        <time>2022-06-22T05:06:23.000Z</time>
      </trkpt>
      <trkpt lat="46.89279" lon="2.98929">
        <ele>221.39999389648</ele>
        <time>2022-06-22T05:06:25.000Z</time>
      </trkpt>
      <trkpt lat="46.89277" lon="2.98874">
        <ele>219.60000610352</ele>
        <time>2022-06-22T05:06:32.000Z</time>
      </trkpt>
      <trkpt lat="46.89276" lon="2.98857">
        <ele>219</ele>
        <time>2022-06-22T05:06:34.000Z</time>
      </trkpt>
      <trkpt lat="46.89273" lon="2.98829">
        <ele>218.80000305176</ele>
        <time>2022-06-22T05:06:37.000Z</time>
      </trkpt>
      <trkpt lat="46.89269" lon="2.98805">
        <ele>219.19999694824</ele>
        <time>2022-06-22T05:06:40.000Z</time>
      </trkpt>
      <trkpt lat="46.89258" lon="2.98745">
        <ele>220.39999389648</ele>
        <time>2022-06-22T05:06:46.000Z</time>
      </trkpt>
      <trkpt lat="46.89257" lon="2.98735">
        <ele>220.80000305176</ele>
        <time>2022-06-22T05:06:47.000Z</time>
      </trkpt>
      <trkpt lat="46.89255" lon="2.98699">
        <ele>221.60000610352</ele>
        <time>2022-06-22T05:06:51.000Z</time>
      </trkpt>
      <trkpt lat="46.89256" lon="2.98682">
        <ele>221.60000610352</ele>
        <time>2022-06-22T05:06:53.000Z</time>
      </trkpt>
      <trkpt lat="46.89254" lon="2.98665">
        <ele>221.60000610352</ele>
        <time>2022-06-22T05:06:55.000Z</time>
      </trkpt>
      <trkpt lat="46.89253" lon="2.98654">
        <ele>221.39999389648</ele>
        <time>2022-06-22T05:06:56.000Z</time>
      </trkpt>
      <trkpt lat="46.89235" lon="2.98597">
        <ele>219.19999694824</ele>
        <time>2022-06-22T05:07:03.000Z</time>
      </trkpt>
      <trkpt lat="46.89226" lon="2.98536">
        <ele>219</ele>
        <time>2022-06-22T05:07:10.000Z</time>
      </trkpt>
      <trkpt lat="46.8922" lon="2.98506">
        <ele>218.80000305176</ele>
        <time>2022-06-22T05:07:14.000Z</time>
      </trkpt>
      <trkpt lat="46.89214" lon="2.9849">
        <ele>218.39999389648</ele>
        <time>2022-06-22T05:07:16.000Z</time>
      </trkpt>
      <trkpt lat="46.89203" lon="2.98457">
        <ele>218</ele>
        <time>2022-06-22T05:07:20.000Z</time>
      </trkpt>
      <trkpt lat="46.89198" lon="2.98449">
        <ele>217.80000305176</ele>
        <time>2022-06-22T05:07:21.000Z</time>
      </trkpt>
      <trkpt lat="46.89191" lon="2.98441">
        <ele>217.60000610352</ele>
        <time>2022-06-22T05:07:22.000Z</time>
      </trkpt>
      <trkpt lat="46.8916" lon="2.98404">
        <ele>217</ele>
        <time>2022-06-22T05:07:27.000Z</time>
      </trkpt>
      <trkpt lat="46.89155" lon="2.98395">
        <ele>217</ele>
        <time>2022-06-22T05:07:28.000Z</time>
      </trkpt>
      <trkpt lat="46.89139" lon="2.98367">
        <ele>218</ele>
        <time>2022-06-22T05:07:31.000Z</time>
      </trkpt>
      <trkpt lat="46.89131" lon="2.9835">
        <ele>219.19999694824</ele>
        <time>2022-06-22T05:07:33.000Z</time>
      </trkpt>
      <trkpt lat="46.89127" lon="2.98339">
        <ele>219.39999389648</ele>
        <time>2022-06-22T05:07:34.000Z</time>
      </trkpt>
      <trkpt lat="46.89099" lon="2.98271">
        <ele>220</ele>
        <time>2022-06-22T05:07:42.000Z</time>
      </trkpt>
      <trkpt lat="46.89083" lon="2.98237">
        <ele>220.80000305176</ele>
        <time>2022-06-22T05:07:47.000Z</time>
      </trkpt>
      <trkpt lat="46.89061" lon="2.98196">
        <ele>222.39999389648</ele>
        <time>2022-06-22T05:07:53.000Z</time>
      </trkpt>
      <trkpt lat="46.89043" lon="2.98159">
        <ele>223.60000610352</ele>
        <time>2022-06-22T05:07:59.000Z</time>
      </trkpt>
      <trkpt lat="46.8904" lon="2.98152">
        <ele>223.80000305176</ele>
        <time>2022-06-22T05:08:00.000Z</time>
      </trkpt>
      <trkpt lat="46.89029" lon="2.9813">
        <ele>224.39999389648</ele>
        <time>2022-06-22T05:08:04.000Z</time>
      </trkpt>
      <trkpt lat="46.89026" lon="2.98124">
        <ele>224.39999389648</ele>
        <time>2022-06-22T05:08:05.000Z</time>
      </trkpt>
      <trkpt lat="46.89009" lon="2.98093">
        <ele>225.19999694824</ele>
        <time>2022-06-22T05:08:10.000Z</time>
      </trkpt>
      <trkpt lat="46.89004" lon="2.98078">
        <ele>226</ele>
        <time>2022-06-22T05:08:12.000Z</time>
      </trkpt>
      <trkpt lat="46.88998" lon="2.98063">
        <ele>226.39999389648</ele>
        <time>2022-06-22T05:08:14.000Z</time>
      </trkpt>
      <trkpt lat="46.88991" lon="2.98047">
        <ele>226.60000610352</ele>
        <time>2022-06-22T05:08:16.000Z</time>
      </trkpt>
      <trkpt lat="46.88976" lon="2.98018">
        <ele>226.39999389648</ele>
        <time>2022-06-22T05:08:20.000Z</time>
      </trkpt>
      <trkpt lat="46.88974" lon="2.98012">
        <ele>226.19999694824</ele>
        <time>2022-06-22T05:08:21.000Z</time>
      </trkpt>
      <trkpt lat="46.88971" lon="2.98003">
        <ele>226</ele>
        <time>2022-06-22T05:08:22.000Z</time>
      </trkpt>
      <trkpt lat="46.88957" lon="2.97969">
        <ele>225.39999389648</ele>
        <time>2022-06-22T05:08:27.000Z</time>
      </trkpt>
      <trkpt lat="46.88954" lon="2.97964">
        <ele>225.39999389648</ele>
        <time>2022-06-22T05:08:28.000Z</time>
      </trkpt>
      <trkpt lat="46.88925" lon="2.97911">
        <ele>227.60000610352</ele>
        <time>2022-06-22T05:08:36.000Z</time>
      </trkpt>
      <trkpt lat="46.88918" lon="2.97897">
        <ele>228.19999694824</ele>
        <time>2022-06-22T05:08:38.000Z</time>
      </trkpt>
      <trkpt lat="46.88916" lon="2.97889">
        <ele>228.39999389648</ele>
        <time>2022-06-22T05:08:39.000Z</time>
      </trkpt>
      <trkpt lat="46.88914" lon="2.97882">
        <ele>228.39999389648</ele>
        <time>2022-06-22T05:08:40.000Z</time>
      </trkpt>
      <trkpt lat="46.88911" lon="2.97874">
        <ele>228.60000610352</ele>
        <time>2022-06-22T05:08:41.000Z</time>
      </trkpt>
      <trkpt lat="46.88907" lon="2.97861">
        <ele>228.19999694824</ele>
        <time>2022-06-22T05:08:43.000Z</time>
      </trkpt>
      <trkpt lat="46.88905" lon="2.97848">
        <ele>228</ele>
        <time>2022-06-22T05:08:45.000Z</time>
      </trkpt>
      <trkpt lat="46.88898" lon="2.97839">
        <ele>227.39999389648</ele>
        <time>2022-06-22T05:08:46.000Z</time>
      </trkpt>
      <trkpt lat="46.88884" lon="2.97817">
        <ele>226</ele>
        <time>2022-06-22T05:08:49.000Z</time>
      </trkpt>
      <trkpt lat="46.88868" lon="2.97784">
        <ele>226.19999694824</ele>
        <time>2022-06-22T05:08:54.000Z</time>
      </trkpt>
      <trkpt lat="46.88865" lon="2.97776">
        <ele>226.19999694824</ele>
        <time>2022-06-22T05:08:55.000Z</time>
      </trkpt>
      <trkpt lat="46.8886" lon="2.97764">
        <ele>226.39999389648</ele>
        <time>2022-06-22T05:08:57.000Z</time>
      </trkpt>
      <trkpt lat="46.88852" lon="2.97745">
        <ele>226.80000305176</ele>
        <time>2022-06-22T05:09:00.000Z</time>
      </trkpt>
      <trkpt lat="46.88845" lon="2.97733">
        <ele>226.80000305176</ele>
        <time>2022-06-22T05:09:02.000Z</time>
      </trkpt>
      <trkpt lat="46.88843" lon="2.97729">
        <ele>226.80000305176</ele>
        <time>2022-06-22T05:09:03.000Z</time>
      </trkpt>
      <trkpt lat="46.88824" lon="2.97694">
        <ele>226.19999694824</ele>
        <time>2022-06-22T05:09:08.000Z</time>
      </trkpt>
      <trkpt lat="46.88815" lon="2.97678">
        <ele>226.19999694824</ele>
        <time>2022-06-22T05:09:10.000Z</time>
      </trkpt>
      <trkpt lat="46.88808" lon="2.97662">
        <ele>227.19999694824</ele>
        <time>2022-06-22T05:09:12.000Z</time>
      </trkpt>
      <trkpt lat="46.88804" lon="2.97655">
        <ele>227.80000305176</ele>
        <time>2022-06-22T05:09:13.000Z</time>
      </trkpt>
      <trkpt lat="46.88791" lon="2.97628">
        <ele>229.60000610352</ele>
        <time>2022-06-22T05:09:16.000Z</time>
      </trkpt>
      <trkpt lat="46.88789" lon="2.9762">
        <ele>230</ele>
        <time>2022-06-22T05:09:17.000Z</time>
      </trkpt>
      <trkpt lat="46.88785" lon="2.9761">
        <ele>229.80000305176</ele>
        <time>2022-06-22T05:09:18.000Z</time>
      </trkpt>
      <trkpt lat="46.88769" lon="2.97578">
        <ele>228.60000610352</ele>
        <time>2022-06-22T05:09:22.000Z</time>
      </trkpt>
      <trkpt lat="46.88766" lon="2.97571">
        <ele>228.39999389648</ele>
        <time>2022-06-22T05:09:23.000Z</time>
      </trkpt>
      <trkpt lat="46.88752" lon="2.97545">
        <ele>227.80000305176</ele>
        <time>2022-06-22T05:09:26.000Z</time>
      </trkpt>
      <trkpt lat="46.88745" lon="2.9753">
        <ele>227.39999389648</ele>
        <time>2022-06-22T05:09:28.000Z</time>
      </trkpt>
      <trkpt lat="46.88737" lon="2.97515">
        <ele>227.19999694824</ele>
        <time>2022-06-22T05:09:30.000Z</time>
      </trkpt>
      <trkpt lat="46.88711" lon="2.97468">
        <ele>227</ele>
        <time>2022-06-22T05:09:37.000Z</time>
      </trkpt>
      <trkpt lat="46.88686" lon="2.97423">
        <ele>227.60000610352</ele>
        <time>2022-06-22T05:09:44.000Z</time>
      </trkpt>
      <trkpt lat="46.88682" lon="2.97416">
        <ele>227.80000305176</ele>
        <time>2022-06-22T05:09:45.000Z</time>
      </trkpt>
      <trkpt lat="46.88662" lon="2.97383">
        <ele>229.19999694824</ele>
        <time>2022-06-22T05:09:50.000Z</time>
      </trkpt>
      <trkpt lat="46.88639" lon="2.97339">
        <ele>231</ele>
        <time>2022-06-22T05:09:57.000Z</time>
      </trkpt>
      <trkpt lat="46.88624" lon="2.97311">
        <ele>231</ele>
        <time>2022-06-22T05:10:01.000Z</time>
      </trkpt>
      <trkpt lat="46.8861" lon="2.97285">
        <ele>230.60000610352</ele>
        <time>2022-06-22T05:10:05.000Z</time>
      </trkpt>
      <trkpt lat="46.886" lon="2.97265">
        <ele>230</ele>
        <time>2022-06-22T05:10:08.000Z</time>
      </trkpt>
      <trkpt lat="46.88592" lon="2.97253">
        <ele>229.60000610352</ele>
        <time>2022-06-22T05:10:10.000Z</time>
      </trkpt>
      <trkpt lat="46.88581" lon="2.9723">
        <ele>228.60000610352</ele>
        <time>2022-06-22T05:10:13.000Z</time>
      </trkpt>
      <trkpt lat="46.88576" lon="2.97223">
        <ele>228.39999389648</ele>
        <time>2022-06-22T05:10:14.000Z</time>
      </trkpt>
      <trkpt lat="46.88544" lon="2.97164">
        <ele>228.80000305176</ele>
        <time>2022-06-22T05:10:22.000Z</time>
      </trkpt>
      <trkpt lat="46.88527" lon="2.9713">
        <ele>228.19999694824</ele>
        <time>2022-06-22T05:10:27.000Z</time>
      </trkpt>
      <trkpt lat="46.8852" lon="2.97118">
        <ele>228</ele>
        <time>2022-06-22T05:10:29.000Z</time>
      </trkpt>
      <trkpt lat="46.88506" lon="2.97097">
        <ele>228.19999694824</ele>
        <time>2022-06-22T05:10:32.000Z</time>
      </trkpt>
      <trkpt lat="46.88491" lon="2.97073">
        <ele>229.60000610352</ele>
        <time>2022-06-22T05:10:36.000Z</time>
      </trkpt>
      <trkpt lat="46.88467" lon="2.97034">
        <ele>229.80000305176</ele>
        <time>2022-06-22T05:10:42.000Z</time>
      </trkpt>
      <trkpt lat="46.88463" lon="2.97027">
        <ele>229.39999389648</ele>
        <time>2022-06-22T05:10:43.000Z</time>
      </trkpt>
      <trkpt lat="46.88443" lon="2.96991">
        <ele>229</ele>
        <time>2022-06-22T05:10:49.000Z</time>
      </trkpt>
      <trkpt lat="46.88423" lon="2.96958">
        <ele>228</ele>
        <time>2022-06-22T05:10:54.000Z</time>
      </trkpt>
      <trkpt lat="46.88405" lon="2.9693">
        <ele>227.19999694824</ele>
        <time>2022-06-22T05:10:58.000Z</time>
      </trkpt>
      <trkpt lat="46.88397" lon="2.96915">
        <ele>227</ele>
        <time>2022-06-22T05:11:00.000Z</time>
      </trkpt>
      <trkpt lat="46.88368" lon="2.96865">
        <ele>228.19999694824</ele>
        <time>2022-06-22T05:11:07.000Z</time>
      </trkpt>
      <trkpt lat="46.88364" lon="2.96859">
        <ele>228.19999694824</ele>
        <time>2022-06-22T05:11:08.000Z</time>
      </trkpt>
      <trkpt lat="46.88356" lon="2.96841">
        <ele>228.60000610352</ele>
        <time>2022-06-22T05:11:10.000Z</time>
      </trkpt>
      <trkpt lat="46.88347" lon="2.96828">
        <ele>228.80000305176</ele>
        <time>2022-06-22T05:11:12.000Z</time>
      </trkpt>
      <trkpt lat="46.88315" lon="2.96771">
        <ele>227.39999389648</ele>
        <time>2022-06-22T05:11:20.000Z</time>
      </trkpt>
      <trkpt lat="46.88291" lon="2.96733">
        <ele>228</ele>
        <time>2022-06-22T05:11:26.000Z</time>
      </trkpt>
      <trkpt lat="46.88267" lon="2.9669">
        <ele>229</ele>
        <time>2022-06-22T05:11:33.000Z</time>
      </trkpt>
      <trkpt lat="46.88258" lon="2.96677">
        <ele>229</ele>
        <time>2022-06-22T05:11:35.000Z</time>
      </trkpt>
      <trkpt lat="46.88247" lon="2.96662">
        <ele>229</ele>
        <time>2022-06-22T05:11:38.000Z</time>
      </trkpt>
      <trkpt lat="46.88234" lon="2.96638">
        <ele>229.60000610352</ele>
        <time>2022-06-22T05:11:42.000Z</time>
      </trkpt>
      <trkpt lat="46.88232" lon="2.96632">
        <ele>229.80000305176</ele>
        <time>2022-06-22T05:11:43.000Z</time>
      </trkpt>
      <trkpt lat="46.88201" lon="2.96584">
        <ele>231.80000305176</ele>
        <time>2022-06-22T05:11:50.000Z</time>
      </trkpt>
      <trkpt lat="46.88176" lon="2.96542">
        <ele>230</ele>
        <time>2022-06-22T05:11:56.000Z</time>
      </trkpt>
      <trkpt lat="46.88157" lon="2.96509">
        <ele>228.19999694824</ele>
        <time>2022-06-22T05:12:00.000Z</time>
      </trkpt>
      <trkpt lat="46.88145" lon="2.96486">
        <ele>226.60000610352</ele>
        <time>2022-06-22T05:12:03.000Z</time>
      </trkpt>
      <trkpt lat="46.88126" lon="2.96418">
        <ele>225.80000305176</ele>
        <time>2022-06-22T05:12:11.000Z</time>
      </trkpt>
      <trkpt lat="46.88114" lon="2.9636">
        <ele>226.39999389648</ele>
        <time>2022-06-22T05:12:18.000Z</time>
      </trkpt>
      <trkpt lat="46.88105" lon="2.96283">
        <ele>222.80000305176</ele>
        <time>2022-06-22T05:12:27.000Z</time>
      </trkpt>
      <trkpt lat="46.88097" lon="2.9621">
        <ele>221</ele>
        <time>2022-06-22T05:12:35.000Z</time>
      </trkpt>
      <trkpt lat="46.88088" lon="2.9613">
        <ele>222.80000305176</ele>
        <time>2022-06-22T05:12:43.000Z</time>
      </trkpt>
      <trkpt lat="46.88086" lon="2.96113">
        <ele>222.39999389648</ele>
        <time>2022-06-22T05:12:45.000Z</time>
      </trkpt>
      <trkpt lat="46.88074" lon="2.9603">
        <ele>220</ele>
        <time>2022-06-22T05:12:54.000Z</time>
      </trkpt>
      <trkpt lat="46.88072" lon="2.96022">
        <ele>219.60000610352</ele>
        <time>2022-06-22T05:12:55.000Z</time>
      </trkpt>
      <trkpt lat="46.88067" lon="2.96004">
        <ele>219</ele>
        <time>2022-06-22T05:12:57.000Z</time>
      </trkpt>
      <trkpt lat="46.88057" lon="2.95983">
        <ele>218</ele>
        <time>2022-06-22T05:13:00.000Z</time>
      </trkpt>
      <trkpt lat="46.88023" lon="2.95929">
        <ele>215.39999389648</ele>
        <time>2022-06-22T05:13:07.000Z</time>
      </trkpt>
      <trkpt lat="46.88007" lon="2.95904">
        <ele>214</ele>
        <time>2022-06-22T05:13:10.000Z</time>
      </trkpt>
      <trkpt lat="46.87984" lon="2.95867">
        <ele>214</ele>
        <time>2022-06-22T05:13:14.000Z</time>
      </trkpt>
      <trkpt lat="46.87972" lon="2.95847">
        <ele>213.60000610352</ele>
        <time>2022-06-22T05:13:16.000Z</time>
      </trkpt>
      <trkpt lat="46.87959" lon="2.95827">
        <ele>213.19999694824</ele>
        <time>2022-06-22T05:13:18.000Z</time>
      </trkpt>
      <trkpt lat="46.8794" lon="2.95795">
        <ele>212.19999694824</ele>
        <time>2022-06-22T05:13:21.000Z</time>
      </trkpt>
      <trkpt lat="46.87927" lon="2.95774">
        <ele>211.39999389648</ele>
        <time>2022-06-22T05:13:23.000Z</time>
      </trkpt>
      <trkpt lat="46.87913" lon="2.95752">
        <ele>210.60000610352</ele>
        <time>2022-06-22T05:13:25.000Z</time>
      </trkpt>
      <trkpt lat="46.879" lon="2.9573">
        <ele>209.60000610352</ele>
        <time>2022-06-22T05:13:27.000Z</time>
      </trkpt>
      <trkpt lat="46.87893" lon="2.95719">
        <ele>208.80000305176</ele>
        <time>2022-06-22T05:13:28.000Z</time>
      </trkpt>
      <trkpt lat="46.87872" lon="2.95684">
        <ele>207.19999694824</ele>
        <time>2022-06-22T05:13:31.000Z</time>
      </trkpt>
      <trkpt lat="46.87858" lon="2.95662">
        <ele>206.80000305176</ele>
        <time>2022-06-22T05:13:33.000Z</time>
      </trkpt>
      <trkpt lat="46.87852" lon="2.95652">
        <ele>206.80000305176</ele>
        <time>2022-06-22T05:13:34.000Z</time>
      </trkpt>
      <trkpt lat="46.8784" lon="2.95631">
        <ele>206.80000305176</ele>
        <time>2022-06-22T05:13:36.000Z</time>
      </trkpt>
      <trkpt lat="46.87823" lon="2.95604">
        <ele>206.19999694824</ele>
        <time>2022-06-22T05:13:39.000Z</time>
      </trkpt>
      <trkpt lat="46.87818" lon="2.95595">
        <ele>206</ele>
        <time>2022-06-22T05:13:40.000Z</time>
      </trkpt>
      <trkpt lat="46.87785" lon="2.95542">
        <ele>207.19999694824</ele>
        <time>2022-06-22T05:13:47.000Z</time>
      </trkpt>
      <trkpt lat="46.87769" lon="2.95517">
        <ele>209</ele>
        <time>2022-06-22T05:13:51.000Z</time>
      </trkpt>
      <trkpt lat="46.87761" lon="2.95507">
        <ele>209.80000305176</ele>
        <time>2022-06-22T05:13:53.000Z</time>
      </trkpt>
      <trkpt lat="46.87747" lon="2.95495">
        <ele>210.39999389648</ele>
        <time>2022-06-22T05:13:56.000Z</time>
      </trkpt>
      <trkpt lat="46.87733" lon="2.95488">
        <ele>211.19999694824</ele>
        <time>2022-06-22T05:13:59.000Z</time>
      </trkpt>
      <trkpt lat="46.87728" lon="2.95486">
        <ele>211.39999389648</ele>
        <time>2022-06-22T05:14:00.000Z</time>
      </trkpt>
      <trkpt lat="46.87713" lon="2.95483">
        <ele>212.39999389648</ele>
        <time>2022-06-22T05:14:03.000Z</time>
      </trkpt>
      <trkpt lat="46.87703" lon="2.95482">
        <ele>213</ele>
        <time>2022-06-22T05:14:05.000Z</time>
      </trkpt>
      <trkpt lat="46.87697" lon="2.95481">
        <ele>213.19999694824</ele>
        <time>2022-06-22T05:14:06.000Z</time>
      </trkpt>
      <trkpt lat="46.87693" lon="2.9548">
        <ele>213.39999389648</ele>
        <time>2022-06-22T05:14:07.000Z</time>
      </trkpt>
      <trkpt lat="46.87671" lon="2.95476">
        <ele>214</ele>
        <time>2022-06-22T05:14:11.000Z</time>
      </trkpt>
      <trkpt lat="46.87651" lon="2.9547">
        <ele>214.39999389648</ele>
        <time>2022-06-22T05:14:15.000Z</time>
      </trkpt>
      <trkpt lat="46.87636" lon="2.95463">
        <ele>215.19999694824</ele>
        <time>2022-06-22T05:14:18.000Z</time>
      </trkpt>
      <trkpt lat="46.87617" lon="2.9545">
        <ele>216.19999694824</ele>
        <time>2022-06-22T05:14:22.000Z</time>
      </trkpt>
      <trkpt lat="46.87605" lon="2.95437">
        <ele>217.19999694824</ele>
        <time>2022-06-22T05:14:25.000Z</time>
      </trkpt>
      <trkpt lat="46.87585" lon="2.95415">
        <ele>219</ele>
        <time>2022-06-22T05:14:30.000Z</time>
      </trkpt>
      <trkpt lat="46.87582" lon="2.95409">
        <ele>219.19999694824</ele>
        <time>2022-06-22T05:14:31.000Z</time>
      </trkpt>
      <trkpt lat="46.87579" lon="2.95402">
        <ele>219.60000610352</ele>
        <time>2022-06-22T05:14:32.000Z</time>
      </trkpt>
      <trkpt lat="46.87577" lon="2.95381">
        <ele>219.80000305176</ele>
        <time>2022-06-22T05:14:35.000Z</time>
      </trkpt>
      <trkpt lat="46.87578" lon="2.95373">
        <ele>219.80000305176</ele>
        <time>2022-06-22T05:14:36.000Z</time>
      </trkpt>
      <trkpt lat="46.87579" lon="2.95366">
        <ele>219.60000610352</ele>
        <time>2022-06-22T05:14:37.000Z</time>
      </trkpt>
      <trkpt lat="46.87588" lon="2.95333">
        <ele>218.60000610352</ele>
        <time>2022-06-22T05:14:41.000Z</time>
      </trkpt>
      <trkpt lat="46.87605" lon="2.9526">
        <ele>218.39999389648</ele>
        <time>2022-06-22T05:14:49.000Z</time>
      </trkpt>
      <trkpt lat="46.87623" lon="2.95179">
        <ele>217.80000305176</ele>
        <time>2022-06-22T05:14:57.000Z</time>
      </trkpt>
      <trkpt lat="46.87625" lon="2.95169">
        <ele>217.39999389648</ele>
        <time>2022-06-22T05:14:58.000Z</time>
      </trkpt>
      <trkpt lat="46.87627" lon="2.95158">
        <ele>217</ele>
        <time>2022-06-22T05:14:59.000Z</time>
      </trkpt>
      <trkpt lat="46.87641" lon="2.95095">
        <ele>213.60000610352</ele>
        <time>2022-06-22T05:15:05.000Z</time>
      </trkpt>
      <trkpt lat="46.87654" lon="2.95034">
        <ele>215</ele>
        <time>2022-06-22T05:15:11.000Z</time>
      </trkpt>
      <trkpt lat="46.87658" lon="2.95012">
        <ele>215.80000305176</ele>
        <time>2022-06-22T05:15:13.000Z</time>
      </trkpt>
      <trkpt lat="46.87661" lon="2.94994">
        <ele>216.60000610352</ele>
        <time>2022-06-22T05:15:15.000Z</time>
      </trkpt>
      <trkpt lat="46.87663" lon="2.94984">
        <ele>216.60000610352</ele>
        <time>2022-06-22T05:15:16.000Z</time>
      </trkpt>
      <trkpt lat="46.87681" lon="2.94904">
        <ele>220.80000305176</ele>
        <time>2022-06-22T05:15:24.000Z</time>
      </trkpt>
      <trkpt lat="46.87692" lon="2.94858">
        <ele>221.39999389648</ele>
        <time>2022-06-22T05:15:29.000Z</time>
      </trkpt>
      <trkpt lat="46.87695" lon="2.94839">
        <ele>221.39999389648</ele>
        <time>2022-06-22T05:15:31.000Z</time>
      </trkpt>
      <trkpt lat="46.87711" lon="2.94762">
        <ele>218.39999389648</ele>
        <time>2022-06-22T05:15:39.000Z</time>
      </trkpt>
      <trkpt lat="46.87715" lon="2.94743">
        <ele>218.19999694824</ele>
        <time>2022-06-22T05:15:41.000Z</time>
      </trkpt>
      <trkpt lat="46.87732" lon="2.94665">
        <ele>215.19999694824</ele>
        <time>2022-06-22T05:15:49.000Z</time>
      </trkpt>
      <trkpt lat="46.87734" lon="2.94654">
        <ele>215.60000610352</ele>
        <time>2022-06-22T05:15:50.000Z</time>
      </trkpt>
      <trkpt lat="46.87737" lon="2.94643">
        <ele>215.19999694824</ele>
        <time>2022-06-22T05:15:51.000Z</time>
      </trkpt>
      <trkpt lat="46.87748" lon="2.94595">
        <ele>213.19999694824</ele>
        <time>2022-06-22T05:15:55.000Z</time>
      </trkpt>
      <trkpt lat="46.87753" lon="2.9457">
        <ele>210.80000305176</ele>
        <time>2022-06-22T05:15:57.000Z</time>
      </trkpt>
      <trkpt lat="46.87756" lon="2.94556">
        <ele>209.39999389648</ele>
        <time>2022-06-22T05:15:58.000Z</time>
      </trkpt>
      <trkpt lat="46.87763" lon="2.94516">
        <ele>205</ele>
        <time>2022-06-22T05:16:01.000Z</time>
      </trkpt>
      <trkpt lat="46.87771" lon="2.94476">
        <ele>202</ele>
        <time>2022-06-22T05:16:04.000Z</time>
      </trkpt>
      <trkpt lat="46.87779" lon="2.94436">
        <ele>201.60000610352</ele>
        <time>2022-06-22T05:16:07.000Z</time>
      </trkpt>
      <trkpt lat="46.87787" lon="2.944">
        <ele>201</ele>
        <time>2022-06-22T05:16:10.000Z</time>
      </trkpt>
      <trkpt lat="46.87795" lon="2.94363">
        <ele>200</ele>
        <time>2022-06-22T05:16:13.000Z</time>
      </trkpt>
      <trkpt lat="46.87798" lon="2.94349">
        <ele>200</ele>
        <time>2022-06-22T05:16:14.000Z</time>
      </trkpt>
      <trkpt lat="46.87807" lon="2.94305">
        <ele>199</ele>
        <time>2022-06-22T05:16:18.000Z</time>
      </trkpt>
      <trkpt lat="46.87813" lon="2.94272">
        <ele>198.39999389648</ele>
        <time>2022-06-22T05:16:21.000Z</time>
      </trkpt>
      <trkpt lat="46.87816" lon="2.94261">
        <ele>198</ele>
        <time>2022-06-22T05:16:22.000Z</time>
      </trkpt>
      <trkpt lat="46.8783" lon="2.94188">
        <ele>199</ele>
        <time>2022-06-22T05:16:29.000Z</time>
      </trkpt>
      <trkpt lat="46.87832" lon="2.94178">
        <ele>199</ele>
        <time>2022-06-22T05:16:30.000Z</time>
      </trkpt>
      <trkpt lat="46.87845" lon="2.94123">
        <ele>200</ele>
        <time>2022-06-22T05:16:36.000Z</time>
      </trkpt>
      <trkpt lat="46.87852" lon="2.9411">
        <ele>199.19999694824</ele>
        <time>2022-06-22T05:16:38.000Z</time>
      </trkpt>
      <trkpt lat="46.87856" lon="2.94104">
        <ele>199</ele>
        <time>2022-06-22T05:16:39.000Z</time>
      </trkpt>
      <trkpt lat="46.8786" lon="2.94097">
        <ele>199</ele>
        <time>2022-06-22T05:16:40.000Z</time>
      </trkpt>
      <trkpt lat="46.87863" lon="2.94081">
        <ele>198.80000305176</ele>
        <time>2022-06-22T05:16:42.000Z</time>
      </trkpt>
      <trkpt lat="46.87855" lon="2.94067">
        <ele>198.60000610352</ele>
        <time>2022-06-22T05:16:44.000Z</time>
      </trkpt>
      <trkpt lat="46.87843" lon="2.94068">
        <ele>199</ele>
        <time>2022-06-22T05:16:46.000Z</time>
      </trkpt>
      <trkpt lat="46.87836" lon="2.94069">
        <ele>199.19999694824</ele>
        <time>2022-06-22T05:16:47.000Z</time>
      </trkpt>
      <trkpt lat="46.8783" lon="2.94069">
        <ele>199.60000610352</ele>
        <time>2022-06-22T05:16:48.000Z</time>
      </trkpt>
      <trkpt lat="46.8781" lon="2.94064">
        <ele>200.39999389648</ele>
        <time>2022-06-22T05:16:51.000Z</time>
      </trkpt>
      <trkpt lat="46.87754" lon="2.94043">
        <ele>203</ele>
        <time>2022-06-22T05:17:01.000Z</time>
      </trkpt>
      <trkpt lat="46.87749" lon="2.94041">
        <ele>203</ele>
        <time>2022-06-22T05:17:02.000Z</time>
      </trkpt>
      <trkpt lat="46.87723" lon="2.9403">
        <ele>204</ele>
        <time>2022-06-22T05:17:07.000Z</time>
      </trkpt>
      <trkpt lat="46.87707" lon="2.94025">
        <ele>205</ele>
        <time>2022-06-22T05:17:10.000Z</time>
      </trkpt>
      <trkpt lat="46.87697" lon="2.94021">
        <ele>205.39999389648</ele>
        <time>2022-06-22T05:17:12.000Z</time>
      </trkpt>
      <trkpt lat="46.87691" lon="2.94018">
        <ele>205.60000610352</ele>
        <time>2022-06-22T05:17:13.000Z</time>
      </trkpt>
      <trkpt lat="46.8767" lon="2.9401">
        <ele>206.39999389648</ele>
        <time>2022-06-22T05:17:17.000Z</time>
      </trkpt>
      <trkpt lat="46.87663" lon="2.94007">
        <ele>206.60000610352</ele>
        <time>2022-06-22T05:17:18.000Z</time>
      </trkpt>
      <trkpt lat="46.87643" lon="2.94">
        <ele>207.60000610352</ele>
        <time>2022-06-22T05:17:22.000Z</time>
      </trkpt>
      <trkpt lat="46.87631" lon="2.93995">
        <ele>208.19999694824</ele>
        <time>2022-06-22T05:17:24.000Z</time>
      </trkpt>
      <trkpt lat="46.87611" lon="2.93987">
        <ele>209.60000610352</ele>
        <time>2022-06-22T05:17:28.000Z</time>
      </trkpt>
      <trkpt lat="46.876" lon="2.93982">
        <ele>210.60000610352</ele>
        <time>2022-06-22T05:17:30.000Z</time>
      </trkpt>
      <trkpt lat="46.87589" lon="2.93977">
        <ele>211.19999694824</ele>
        <time>2022-06-22T05:17:32.000Z</time>
      </trkpt>
      <trkpt lat="46.87549" lon="2.93958">
        <ele>211.39999389648</ele>
        <time>2022-06-22T05:17:39.000Z</time>
      </trkpt>
      <trkpt lat="46.87502" lon="2.93928">
        <ele>207.39999389648</ele>
        <time>2022-06-22T05:17:47.000Z</time>
      </trkpt>
      <trkpt lat="46.87459" lon="2.939">
        <ele>205.19999694824</ele>
        <time>2022-06-22T05:17:53.000Z</time>
      </trkpt>
      <trkpt lat="46.8745" lon="2.93895">
        <ele>204.39999389648</ele>
        <time>2022-06-22T05:17:54.000Z</time>
      </trkpt>
      <trkpt lat="46.87428" lon="2.9388">
        <ele>202.19999694824</ele>
        <time>2022-06-22T05:17:57.000Z</time>
      </trkpt>
      <trkpt lat="46.87406" lon="2.93867">
        <ele>201.80000305176</ele>
        <time>2022-06-22T05:18:00.000Z</time>
      </trkpt>
      <trkpt lat="46.87398" lon="2.93863">
        <ele>201.60000610352</ele>
        <time>2022-06-22T05:18:01.000Z</time>
      </trkpt>
      <trkpt lat="46.87367" lon="2.93852">
        <ele>200</ele>
        <time>2022-06-22T05:18:05.000Z</time>
      </trkpt>
      <trkpt lat="46.8735" lon="2.93848">
        <ele>199.39999389648</ele>
        <time>2022-06-22T05:18:07.000Z</time>
      </trkpt>
      <trkpt lat="46.87319" lon="2.93841">
        <ele>198.60000610352</ele>
        <time>2022-06-22T05:18:11.000Z</time>
      </trkpt>
      <trkpt lat="46.87274" lon="2.93832">
        <ele>198</ele>
        <time>2022-06-22T05:18:17.000Z</time>
      </trkpt>
      <trkpt lat="46.87251" lon="2.93827">
        <ele>198</ele>
        <time>2022-06-22T05:18:20.000Z</time>
      </trkpt>
      <trkpt lat="46.87207" lon="2.93819">
        <ele>199</ele>
        <time>2022-06-22T05:18:26.000Z</time>
      </trkpt>
      <trkpt lat="46.87151" lon="2.93807">
        <ele>202.19999694824</ele>
        <time>2022-06-22T05:18:34.000Z</time>
      </trkpt>
      <trkpt lat="46.87144" lon="2.93806">
        <ele>202.60000610352</ele>
        <time>2022-06-22T05:18:35.000Z</time>
      </trkpt>
      <trkpt lat="46.87093" lon="2.93798">
        <ele>203</ele>
        <time>2022-06-22T05:18:43.000Z</time>
      </trkpt>
      <trkpt lat="46.87075" lon="2.93794">
        <ele>203.60000610352</ele>
        <time>2022-06-22T05:18:46.000Z</time>
      </trkpt>
      <trkpt lat="46.87059" lon="2.93792">
        <ele>204.39999389648</ele>
        <time>2022-06-22T05:18:49.000Z</time>
      </trkpt>
      <trkpt lat="46.87041" lon="2.93791">
        <ele>205.80000305176</ele>
        <time>2022-06-22T05:18:52.000Z</time>
      </trkpt>
      <trkpt lat="46.87025" lon="2.93788">
        <ele>207</ele>
        <time>2022-06-22T05:18:55.000Z</time>
      </trkpt>
      <trkpt lat="46.87003" lon="2.93784">
        <ele>208.39999389648</ele>
        <time>2022-06-22T05:18:59.000Z</time>
      </trkpt>
      <trkpt lat="46.86992" lon="2.93783">
        <ele>209.39999389648</ele>
        <time>2022-06-22T05:19:01.000Z</time>
      </trkpt>
      <trkpt lat="46.86975" lon="2.93781">
        <ele>211</ele>
        <time>2022-06-22T05:19:04.000Z</time>
      </trkpt>
      <trkpt lat="46.86951" lon="2.93778">
        <ele>211.60000610352</ele>
        <time>2022-06-22T05:19:08.000Z</time>
      </trkpt>
      <trkpt lat="46.86945" lon="2.93777">
        <ele>211.60000610352</ele>
        <time>2022-06-22T05:19:09.000Z</time>
      </trkpt>
      <trkpt lat="46.86895" lon="2.93775">
        <ele>211.19999694824</ele>
        <time>2022-06-22T05:19:17.000Z</time>
      </trkpt>
      <trkpt lat="46.8689" lon="2.93775">
        <ele>210.80000305176</ele>
        <time>2022-06-22T05:19:18.000Z</time>
      </trkpt>
      <trkpt lat="46.86847" lon="2.93775">
        <ele>208.80000305176</ele>
        <time>2022-06-22T05:19:24.000Z</time>
      </trkpt>
      <trkpt lat="46.86805" lon="2.93773">
        <ele>206.19999694824</ele>
        <time>2022-06-22T05:19:29.000Z</time>
      </trkpt>
      <trkpt lat="46.86795" lon="2.93772">
        <ele>205.19999694824</ele>
        <time>2022-06-22T05:19:30.000Z</time>
      </trkpt>
      <trkpt lat="46.86777" lon="2.93769">
        <ele>203.39999389648</ele>
        <time>2022-06-22T05:19:32.000Z</time>
      </trkpt>
      <trkpt lat="46.86752" lon="2.93761">
        <ele>202</ele>
        <time>2022-06-22T05:19:35.000Z</time>
      </trkpt>
      <trkpt lat="46.86727" lon="2.9375">
        <ele>202.39999389648</ele>
        <time>2022-06-22T05:19:38.000Z</time>
      </trkpt>
      <trkpt lat="46.86694" lon="2.93734">
        <ele>202.60000610352</ele>
        <time>2022-06-22T05:19:42.000Z</time>
      </trkpt>
      <trkpt lat="46.86686" lon="2.93731">
        <ele>202.39999389648</ele>
        <time>2022-06-22T05:19:43.000Z</time>
      </trkpt>
      <trkpt lat="46.86641" lon="2.93708">
        <ele>201.39999389648</ele>
        <time>2022-06-22T05:19:49.000Z</time>
      </trkpt>
      <trkpt lat="46.86591" lon="2.93682">
        <ele>203.39999389648</ele>
        <time>2022-06-22T05:19:56.000Z</time>
      </trkpt>
      <trkpt lat="46.86551" lon="2.93665">
        <ele>207.19999694824</ele>
        <time>2022-06-22T05:20:02.000Z</time>
      </trkpt>
      <trkpt lat="46.8651" lon="2.93661">
        <ele>211.60000610352</ele>
        <time>2022-06-22T05:20:08.000Z</time>
      </trkpt>
      <trkpt lat="46.86491" lon="2.93661">
        <ele>212.39999389648</ele>
        <time>2022-06-22T05:20:11.000Z</time>
      </trkpt>
      <trkpt lat="46.86479" lon="2.93661">
        <ele>213.19999694824</ele>
        <time>2022-06-22T05:20:13.000Z</time>
      </trkpt>
      <trkpt lat="46.86474" lon="2.9366">
        <ele>213.39999389648</ele>
        <time>2022-06-22T05:20:14.000Z</time>
      </trkpt>
      <trkpt lat="46.8645" lon="2.93661">
        <ele>214.39999389648</ele>
        <time>2022-06-22T05:20:18.000Z</time>
      </trkpt>
      <trkpt lat="46.86444" lon="2.9366">
        <ele>214.39999389648</ele>
        <time>2022-06-22T05:20:19.000Z</time>
      </trkpt>
      <trkpt lat="46.864" lon="2.93659">
        <ele>212</ele>
        <time>2022-06-22T05:20:26.000Z</time>
      </trkpt>
      <trkpt lat="46.8635" lon="2.93651">
        <ele>211</ele>
        <time>2022-06-22T05:20:33.000Z</time>
      </trkpt>
      <trkpt lat="46.86298" lon="2.93636">
        <ele>210.39999389648</ele>
        <time>2022-06-22T05:20:40.000Z</time>
      </trkpt>
      <trkpt lat="46.86283" lon="2.93633">
        <ele>210.39999389648</ele>
        <time>2022-06-22T05:20:42.000Z</time>
      </trkpt>
      <trkpt lat="46.86262" lon="2.93628">
        <ele>210.19999694824</ele>
        <time>2022-06-22T05:20:45.000Z</time>
      </trkpt>
      <trkpt lat="46.86208" lon="2.93613">
        <ele>209.19999694824</ele>
        <time>2022-06-22T05:20:53.000Z</time>
      </trkpt>
      <trkpt lat="46.8617" lon="2.93602">
        <ele>208.19999694824</ele>
        <time>2022-06-22T05:20:59.000Z</time>
      </trkpt>
      <trkpt lat="46.86131" lon="2.93594">
        <ele>209.39999389648</ele>
        <time>2022-06-22T05:21:05.000Z</time>
      </trkpt>
      <trkpt lat="46.8609" lon="2.93584">
        <ele>213.60000610352</ele>
        <time>2022-06-22T05:21:12.000Z</time>
      </trkpt>
      <trkpt lat="46.86064" lon="2.93578">
        <ele>214.60000610352</ele>
        <time>2022-06-22T05:21:17.000Z</time>
      </trkpt>
      <trkpt lat="46.86059" lon="2.93576">
        <ele>214.19999694824</ele>
        <time>2022-06-22T05:21:18.000Z</time>
      </trkpt>
      <trkpt lat="46.8602" lon="2.93567">
        <ele>212.39999389648</ele>
        <time>2022-06-22T05:21:24.000Z</time>
      </trkpt>
      <trkpt lat="46.85973" lon="2.93568">
        <ele>208</ele>
        <time>2022-06-22T05:21:30.000Z</time>
      </trkpt>
      <trkpt lat="46.85917" lon="2.93567">
        <ele>202.39999389648</ele>
        <time>2022-06-22T05:21:37.000Z</time>
      </trkpt>
      <trkpt lat="46.85909" lon="2.93568">
        <ele>201.80000305176</ele>
        <time>2022-06-22T05:21:38.000Z</time>
      </trkpt>
      <trkpt lat="46.85901" lon="2.93568">
        <ele>201.19999694824</ele>
        <time>2022-06-22T05:21:39.000Z</time>
      </trkpt>
      <trkpt lat="46.85847" lon="2.93569">
        <ele>199.19999694824</ele>
        <time>2022-06-22T05:21:46.000Z</time>
      </trkpt>
      <trkpt lat="46.85833" lon="2.93568">
        <ele>199</ele>
        <time>2022-06-22T05:21:48.000Z</time>
      </trkpt>
      <trkpt lat="46.85776" lon="2.93569">
        <ele>199.39999389648</ele>
        <time>2022-06-22T05:21:56.000Z</time>
      </trkpt>
      <trkpt lat="46.85769" lon="2.93569">
        <ele>199.80000305176</ele>
        <time>2022-06-22T05:21:57.000Z</time>
      </trkpt>
      <trkpt lat="46.85708" lon="2.9357">
        <ele>201</ele>
        <time>2022-06-22T05:22:06.000Z</time>
      </trkpt>
      <trkpt lat="46.85702" lon="2.9357">
        <ele>201</ele>
        <time>2022-06-22T05:22:07.000Z</time>
      </trkpt>
      <trkpt lat="46.85647" lon="2.93574">
        <ele>199.19999694824</ele>
        <time>2022-06-22T05:22:15.000Z</time>
      </trkpt>
      <trkpt lat="46.85641" lon="2.93576">
        <ele>199.60000610352</ele>
        <time>2022-06-22T05:22:16.000Z</time>
      </trkpt>
      <trkpt lat="46.85586" lon="2.93588">
        <ele>200.39999389648</ele>
        <time>2022-06-22T05:22:24.000Z</time>
      </trkpt>
      <trkpt lat="46.85566" lon="2.93592">
        <ele>200.80000305176</ele>
        <time>2022-06-22T05:22:27.000Z</time>
      </trkpt>
      <trkpt lat="46.85511" lon="2.93606">
        <ele>199</ele>
        <time>2022-06-22T05:22:35.000Z</time>
      </trkpt>
      <trkpt lat="46.8549" lon="2.93611">
        <ele>199.19999694824</ele>
        <time>2022-06-22T05:22:38.000Z</time>
      </trkpt>
      <trkpt lat="46.85435" lon="2.93623">
        <ele>200.60000610352</ele>
        <time>2022-06-22T05:22:46.000Z</time>
      </trkpt>
      <trkpt lat="46.85428" lon="2.93624">
        <ele>201</ele>
        <time>2022-06-22T05:22:47.000Z</time>
      </trkpt>
      <trkpt lat="46.85375" lon="2.93637">
        <ele>201.60000610352</ele>
        <time>2022-06-22T05:22:55.000Z</time>
      </trkpt>
      <trkpt lat="46.8532" lon="2.9365">
        <ele>201</ele>
        <time>2022-06-22T05:23:04.000Z</time>
      </trkpt>
      <trkpt lat="46.85284" lon="2.93658">
        <ele>203.60000610352</ele>
        <time>2022-06-22T05:23:10.000Z</time>
      </trkpt>
      <trkpt lat="46.85236" lon="2.93669">
        <ele>203.80000305176</ele>
        <time>2022-06-22T05:23:18.000Z</time>
      </trkpt>
      <trkpt lat="46.85178" lon="2.93683">
        <ele>201.39999389648</ele>
        <time>2022-06-22T05:23:27.000Z</time>
      </trkpt>
      <trkpt lat="46.85164" lon="2.93686">
        <ele>201.19999694824</ele>
        <time>2022-06-22T05:23:29.000Z</time>
      </trkpt>
      <trkpt lat="46.85119" lon="2.93697">
        <ele>198.60000610352</ele>
        <time>2022-06-22T05:23:35.000Z</time>
      </trkpt>
      <trkpt lat="46.85111" lon="2.93699">
        <ele>198.60000610352</ele>
        <time>2022-06-22T05:23:36.000Z</time>
      </trkpt>
      <trkpt lat="46.85086" lon="2.93704">
        <ele>198</ele>
        <time>2022-06-22T05:23:39.000Z</time>
      </trkpt>
      <trkpt lat="46.85061" lon="2.9371">
        <ele>198.19999694824</ele>
        <time>2022-06-22T05:23:42.000Z</time>
      </trkpt>
      <trkpt lat="46.85053" lon="2.93712">
        <ele>198.80000305176</ele>
        <time>2022-06-22T05:23:43.000Z</time>
      </trkpt>
      <trkpt lat="46.85014" lon="2.9372">
        <ele>202.60000610352</ele>
        <time>2022-06-22T05:23:48.000Z</time>
      </trkpt>
      <trkpt lat="46.85001" lon="2.93723">
        <ele>203.39999389648</ele>
        <time>2022-06-22T05:23:50.000Z</time>
      </trkpt>
      <trkpt lat="46.84969" lon="2.9373">
        <ele>205</ele>
        <time>2022-06-22T05:23:55.000Z</time>
      </trkpt>
      <trkpt lat="46.84945" lon="2.93735">
        <ele>206.39999389648</ele>
        <time>2022-06-22T05:23:59.000Z</time>
      </trkpt>
      <trkpt lat="46.84923" lon="2.93741">
        <ele>206.80000305176</ele>
        <time>2022-06-22T05:24:03.000Z</time>
      </trkpt>
      <trkpt lat="46.84887" lon="2.9375">
        <ele>204.80000305176</ele>
        <time>2022-06-22T05:24:09.000Z</time>
      </trkpt>
      <trkpt lat="46.8483" lon="2.93763">
        <ele>203</ele>
        <time>2022-06-22T05:24:18.000Z</time>
      </trkpt>
      <trkpt lat="46.84772" lon="2.93777">
        <ele>203</ele>
        <time>2022-06-22T05:24:27.000Z</time>
      </trkpt>
      <trkpt lat="46.84765" lon="2.93778">
        <ele>203.19999694824</ele>
        <time>2022-06-22T05:24:28.000Z</time>
      </trkpt>
      <trkpt lat="46.8471" lon="2.93792">
        <ele>205.80000305176</ele>
        <time>2022-06-22T05:24:37.000Z</time>
      </trkpt>
      <trkpt lat="46.84658" lon="2.93803">
        <ele>206.19999694824</ele>
        <time>2022-06-22T05:24:45.000Z</time>
      </trkpt>
      <trkpt lat="46.84603" lon="2.93816">
        <ele>206</ele>
        <time>2022-06-22T05:24:53.000Z</time>
      </trkpt>
      <trkpt lat="46.84589" lon="2.93819">
        <ele>206</ele>
        <time>2022-06-22T05:24:55.000Z</time>
      </trkpt>
      <trkpt lat="46.84574" lon="2.93822">
        <ele>205.39999389648</ele>
        <time>2022-06-22T05:24:57.000Z</time>
      </trkpt>
      <trkpt lat="46.84531" lon="2.93828">
        <ele>205.39999389648</ele>
        <time>2022-06-22T05:25:03.000Z</time>
      </trkpt>
      <trkpt lat="46.84517" lon="2.93828">
        <ele>205.19999694824</ele>
        <time>2022-06-22T05:25:05.000Z</time>
      </trkpt>
      <trkpt lat="46.84497" lon="2.93821">
        <ele>204.60000610352</ele>
        <time>2022-06-22T05:25:08.000Z</time>
      </trkpt>
      <trkpt lat="46.84452" lon="2.93793">
        <ele>199.80000305176</ele>
        <time>2022-06-22T05:25:15.000Z</time>
      </trkpt>
      <trkpt lat="46.84412" lon="2.93763">
        <ele>195.39999389648</ele>
        <time>2022-06-22T05:25:21.000Z</time>
      </trkpt>
      <trkpt lat="46.84405" lon="2.93758">
        <ele>195.19999694824</ele>
        <time>2022-06-22T05:25:22.000Z</time>
      </trkpt>
      <trkpt lat="46.84358" lon="2.93723">
        <ele>195</ele>
        <time>2022-06-22T05:25:29.000Z</time>
      </trkpt>
      <trkpt lat="46.84339" lon="2.93709">
        <ele>195</ele>
        <time>2022-06-22T05:25:32.000Z</time>
      </trkpt>
      <trkpt lat="46.84296" lon="2.93682">
        <ele>197.39999389648</ele>
        <time>2022-06-22T05:25:39.000Z</time>
      </trkpt>
      <trkpt lat="46.84245" lon="2.93655">
        <ele>197.60000610352</ele>
        <time>2022-06-22T05:25:47.000Z</time>
      </trkpt>
      <trkpt lat="46.84233" lon="2.93648">
        <ele>198</ele>
        <time>2022-06-22T05:25:49.000Z</time>
      </trkpt>
      <trkpt lat="46.84185" lon="2.93622">
        <ele>200.60000610352</ele>
        <time>2022-06-22T05:25:57.000Z</time>
      </trkpt>
      <trkpt lat="46.84149" lon="2.93602">
        <ele>200</ele>
        <time>2022-06-22T05:26:03.000Z</time>
      </trkpt>
      <trkpt lat="46.84111" lon="2.93574">
        <ele>197.80000305176</ele>
        <time>2022-06-22T05:26:09.000Z</time>
      </trkpt>
      <trkpt lat="46.84064" lon="2.93521">
        <ele>198</ele>
        <time>2022-06-22T05:26:18.000Z</time>
      </trkpt>
      <trkpt lat="46.84019" lon="2.93465">
        <ele>200.39999389648</ele>
        <time>2022-06-22T05:26:27.000Z</time>
      </trkpt>
      <trkpt lat="46.83974" lon="2.93409">
        <ele>198.80000305176</ele>
        <time>2022-06-22T05:26:36.000Z</time>
      </trkpt>
      <trkpt lat="46.83928" lon="2.93353">
        <ele>200.60000610352</ele>
        <time>2022-06-22T05:26:45.000Z</time>
      </trkpt>
      <trkpt lat="46.83912" lon="2.93335">
        <ele>200</ele>
        <time>2022-06-22T05:26:48.000Z</time>
      </trkpt>
      <trkpt lat="46.83889" lon="2.93306">
        <ele>198.60000610352</ele>
        <time>2022-06-22T05:26:53.000Z</time>
      </trkpt>
      <trkpt lat="46.83844" lon="2.93253">
        <ele>198</ele>
        <time>2022-06-22T05:27:02.000Z</time>
      </trkpt>
      <trkpt lat="46.83839" lon="2.93247">
        <ele>198</ele>
        <time>2022-06-22T05:27:03.000Z</time>
      </trkpt>
      <trkpt lat="46.838" lon="2.9319">
        <ele>196.39999389648</ele>
        <time>2022-06-22T05:27:11.000Z</time>
      </trkpt>
      <trkpt lat="46.83777" lon="2.9316">
        <ele>197</ele>
        <time>2022-06-22T05:27:16.000Z</time>
      </trkpt>
      <trkpt lat="46.83763" lon="2.93144">
        <ele>197.80000305176</ele>
        <time>2022-06-22T05:27:19.000Z</time>
      </trkpt>
      <trkpt lat="46.83756" lon="2.93129">
        <ele>198.19999694824</ele>
        <time>2022-06-22T05:27:21.000Z</time>
      </trkpt>
      <trkpt lat="46.83753" lon="2.93122">
        <ele>198.19999694824</ele>
        <time>2022-06-22T05:27:22.000Z</time>
      </trkpt>
      <trkpt lat="46.83742" lon="2.93111">
        <ele>198.60000610352</ele>
        <time>2022-06-22T05:27:24.000Z</time>
      </trkpt>
      <trkpt lat="46.83723" lon="2.9311">
        <ele>199.39999389648</ele>
        <time>2022-06-22T05:27:27.000Z</time>
      </trkpt>
      <trkpt lat="46.8371" lon="2.93104">
        <ele>199.80000305176</ele>
        <time>2022-06-22T05:27:29.000Z</time>
      </trkpt>
      <trkpt lat="46.83705" lon="2.93098">
        <ele>200</ele>
        <time>2022-06-22T05:27:30.000Z</time>
      </trkpt>
      <trkpt lat="46.83701" lon="2.93091">
        <ele>200</ele>
        <time>2022-06-22T05:27:31.000Z</time>
      </trkpt>
      <trkpt lat="46.83686" lon="2.93062">
        <ele>199.60000610352</ele>
        <time>2022-06-22T05:27:35.000Z</time>
      </trkpt>
      <trkpt lat="46.83659" lon="2.93028">
        <ele>199.60000610352</ele>
        <time>2022-06-22T05:27:41.000Z</time>
      </trkpt>
      <trkpt lat="46.83616" lon="2.92975">
        <ele>199</ele>
        <time>2022-06-22T05:27:50.000Z</time>
      </trkpt>
      <trkpt lat="46.83611" lon="2.92969">
        <ele>199</ele>
        <time>2022-06-22T05:27:51.000Z</time>
      </trkpt>
      <trkpt lat="46.83566" lon="2.92914">
        <ele>199</ele>
        <time>2022-06-22T05:28:00.000Z</time>
      </trkpt>
      <trkpt lat="46.83556" lon="2.92901">
        <ele>199.39999389648</ele>
        <time>2022-06-22T05:28:02.000Z</time>
      </trkpt>
      <trkpt lat="46.83517" lon="2.92853">
        <ele>200.80000305176</ele>
        <time>2022-06-22T05:28:10.000Z</time>
      </trkpt>
      <trkpt lat="46.83474" lon="2.92802">
        <ele>201</ele>
        <time>2022-06-22T05:28:19.000Z</time>
      </trkpt>
      <trkpt lat="46.83469" lon="2.92796">
        <ele>201</ele>
        <time>2022-06-22T05:28:20.000Z</time>
      </trkpt>
      <trkpt lat="46.83426" lon="2.92744">
        <ele>202</ele>
        <time>2022-06-22T05:28:29.000Z</time>
      </trkpt>
      <trkpt lat="46.83417" lon="2.92732">
        <ele>202</ele>
        <time>2022-06-22T05:28:31.000Z</time>
      </trkpt>
      <trkpt lat="46.83385" lon="2.92693">
        <ele>201</ele>
        <time>2022-06-22T05:28:38.000Z</time>
      </trkpt>
      <trkpt lat="46.83371" lon="2.92676">
        <ele>201</ele>
        <time>2022-06-22T05:28:41.000Z</time>
      </trkpt>
      <trkpt lat="46.8334" lon="2.92641">
        <ele>201</ele>
        <time>2022-06-22T05:28:48.000Z</time>
      </trkpt>
      <trkpt lat="46.83309" lon="2.92602">
        <ele>201</ele>
        <time>2022-06-22T05:28:55.000Z</time>
      </trkpt>
      <trkpt lat="46.83289" lon="2.92576">
        <ele>201</ele>
        <time>2022-06-22T05:29:00.000Z</time>
      </trkpt>
      <trkpt lat="46.83282" lon="2.92568">
        <ele>201</ele>
        <time>2022-06-22T05:29:02.000Z</time>
      </trkpt>
      <trkpt lat="46.83278" lon="2.92565">
        <ele>201</ele>
        <time>2022-06-22T05:29:03.000Z</time>
      </trkpt>
      <trkpt lat="46.83273" lon="2.9255">
        <ele>201</ele>
        <time>2022-06-22T05:29:06.000Z</time>
      </trkpt>
      <trkpt lat="46.83268" lon="2.92505">
        <ele>201</ele>
        <time>2022-06-22T05:29:12.000Z</time>
      </trkpt>
      <trkpt lat="46.83261" lon="2.92449">
        <ele>202</ele>
        <time>2022-06-22T05:29:19.000Z</time>
      </trkpt>
      <trkpt lat="46.83252" lon="2.92394">
        <ele>202</ele>
        <time>2022-06-22T05:29:26.000Z</time>
      </trkpt>
      <trkpt lat="46.83241" lon="2.92336">
        <ele>203.39999389648</ele>
        <time>2022-06-22T05:29:33.000Z</time>
      </trkpt>
      <trkpt lat="46.83225" lon="2.92281">
        <ele>203.80000305176</ele>
        <time>2022-06-22T05:29:40.000Z</time>
      </trkpt>
      <trkpt lat="46.83202" lon="2.92205">
        <ele>203.19999694824</ele>
        <time>2022-06-22T05:29:50.000Z</time>
      </trkpt>
      <trkpt lat="46.83199" lon="2.92197">
        <ele>203.60000610352</ele>
        <time>2022-06-22T05:29:51.000Z</time>
      </trkpt>
      <trkpt lat="46.83192" lon="2.92174">
        <ele>204.80000305176</ele>
        <time>2022-06-22T05:29:54.000Z</time>
      </trkpt>
      <trkpt lat="46.83184" lon="2.92151">
        <ele>205.60000610352</ele>
        <time>2022-06-22T05:29:57.000Z</time>
      </trkpt>
      <trkpt lat="46.83164" lon="2.9209">
        <ele>206.19999694824</ele>
        <time>2022-06-22T05:30:05.000Z</time>
      </trkpt>
      <trkpt lat="46.83152" lon="2.92063">
        <ele>206.19999694824</ele>
        <time>2022-06-22T05:30:09.000Z</time>
      </trkpt>
      <trkpt lat="46.83146" lon="2.92049">
        <ele>206.60000610352</ele>
        <time>2022-06-22T05:30:11.000Z</time>
      </trkpt>
      <trkpt lat="46.83132" lon="2.92025">
        <ele>207</ele>
        <time>2022-06-22T05:30:15.000Z</time>
      </trkpt>
      <trkpt lat="46.83125" lon="2.92013">
        <ele>207</ele>
        <time>2022-06-22T05:30:17.000Z</time>
      </trkpt>
      <trkpt lat="46.83121" lon="2.9201">
        <ele>207</ele>
        <time>2022-06-22T05:30:18.000Z</time>
      </trkpt>
      <trkpt lat="46.83115" lon="2.92007">
        <ele>207</ele>
        <time>2022-06-22T05:30:19.000Z</time>
      </trkpt>
      <trkpt lat="46.8311" lon="2.92005">
        <ele>207</ele>
        <time>2022-06-22T05:30:20.000Z</time>
      </trkpt>
      <trkpt lat="46.83091" lon="2.91992">
        <ele>207</ele>
        <time>2022-06-22T05:30:24.000Z</time>
      </trkpt>
      <trkpt lat="46.83087" lon="2.91988">
        <ele>207</ele>
        <time>2022-06-22T05:30:25.000Z</time>
      </trkpt>
      <trkpt lat="46.83079" lon="2.91977">
        <ele>207</ele>
        <time>2022-06-22T05:30:27.000Z</time>
      </trkpt>
      <trkpt lat="46.83077" lon="2.91964">
        <ele>207.19999694824</ele>
        <time>2022-06-22T05:30:29.000Z</time>
      </trkpt>
      <trkpt lat="46.83077" lon="2.91947">
        <ele>207.39999389648</ele>
        <time>2022-06-22T05:30:31.000Z</time>
      </trkpt>
      <trkpt lat="46.83076" lon="2.91921">
        <ele>207</ele>
        <time>2022-06-22T05:30:34.000Z</time>
      </trkpt>
      <trkpt lat="46.83076" lon="2.91904">
        <ele>207</ele>
        <time>2022-06-22T05:30:36.000Z</time>
      </trkpt>
      <trkpt lat="46.83076" lon="2.91895">
        <ele>207</ele>
        <time>2022-06-22T05:30:37.000Z</time>
      </trkpt>
      <trkpt lat="46.83076" lon="2.91877">
        <ele>207</ele>
        <time>2022-06-22T05:30:39.000Z</time>
      </trkpt>
      <trkpt lat="46.83076" lon="2.91858">
        <ele>207</ele>
        <time>2022-06-22T05:30:41.000Z</time>
      </trkpt>
      <trkpt lat="46.83076" lon="2.9185">
        <ele>207</ele>
        <time>2022-06-22T05:30:42.000Z</time>
      </trkpt>
      <trkpt lat="46.83076" lon="2.91841">
        <ele>207.19999694824</ele>
        <time>2022-06-22T05:30:43.000Z</time>
      </trkpt>
      <trkpt lat="46.83079" lon="2.91815">
        <ele>207.39999389648</ele>
        <time>2022-06-22T05:30:46.000Z</time>
      </trkpt>
      <trkpt lat="46.83084" lon="2.91798">
        <ele>207.39999389648</ele>
        <time>2022-06-22T05:30:48.000Z</time>
      </trkpt>
      <trkpt lat="46.83101" lon="2.9175">
        <ele>208.39999389648</ele>
        <time>2022-06-22T05:30:54.000Z</time>
      </trkpt>
      <trkpt lat="46.831" lon="2.91734">
        <ele>208.80000305176</ele>
        <time>2022-06-22T05:30:56.000Z</time>
      </trkpt>
      <trkpt lat="46.83097" lon="2.9173">
        <ele>208.80000305176</ele>
        <time>2022-06-22T05:30:57.000Z</time>
      </trkpt>
      <trkpt lat="46.83088" lon="2.91726">
        <ele>209.19999694824</ele>
        <time>2022-06-22T05:30:59.000Z</time>
      </trkpt>
      <trkpt lat="46.83077" lon="2.91725">
        <ele>209.39999389648</ele>
        <time>2022-06-22T05:31:01.000Z</time>
      </trkpt>
      <trkpt lat="46.83066" lon="2.91723">
        <ele>209.39999389648</ele>
        <time>2022-06-22T05:31:03.000Z</time>
      </trkpt>
      <trkpt lat="46.83049" lon="2.91719">
        <ele>209.60000610352</ele>
        <time>2022-06-22T05:31:06.000Z</time>
      </trkpt>
      <trkpt lat="46.83031" lon="2.91716">
        <ele>210.39999389648</ele>
        <time>2022-06-22T05:31:09.000Z</time>
      </trkpt>
      <trkpt lat="46.83013" lon="2.91709">
        <ele>211.80000305176</ele>
        <time>2022-06-22T05:31:12.000Z</time>
      </trkpt>
      <trkpt lat="46.82991" lon="2.91699">
        <ele>212.39999389648</ele>
        <time>2022-06-22T05:31:16.000Z</time>
      </trkpt>
      <trkpt lat="46.8297" lon="2.9169">
        <ele>212.39999389648</ele>
        <time>2022-06-22T05:31:20.000Z</time>
      </trkpt>
      <trkpt lat="46.82965" lon="2.91687">
        <ele>212.39999389648</ele>
        <time>2022-06-22T05:31:21.000Z</time>
      </trkpt>
      <trkpt lat="46.8295" lon="2.91675">
        <ele>212.19999694824</ele>
        <time>2022-06-22T05:31:24.000Z</time>
      </trkpt>
      <trkpt lat="46.82946" lon="2.9167">
        <ele>212.19999694824</ele>
        <time>2022-06-22T05:31:25.000Z</time>
      </trkpt>
      <trkpt lat="46.82937" lon="2.91661">
        <ele>212.60000610352</ele>
        <time>2022-06-22T05:31:27.000Z</time>
      </trkpt>
      <trkpt lat="46.82929" lon="2.91651">
        <ele>212.80000305176</ele>
        <time>2022-06-22T05:31:29.000Z</time>
      </trkpt>
      <trkpt lat="46.82922" lon="2.91639">
        <ele>212.80000305176</ele>
        <time>2022-06-22T05:31:31.000Z</time>
      </trkpt>
      <trkpt lat="46.82915" lon="2.91628">
        <ele>212.60000610352</ele>
        <time>2022-06-22T05:31:33.000Z</time>
      </trkpt>
      <trkpt lat="46.82911" lon="2.91622">
        <ele>212.60000610352</ele>
        <time>2022-06-22T05:31:34.000Z</time>
      </trkpt>
      <trkpt lat="46.82903" lon="2.91611">
        <ele>212.39999389648</ele>
        <time>2022-06-22T05:31:36.000Z</time>
      </trkpt>
      <trkpt lat="46.82881" lon="2.91577">
        <ele>212.60000610352</ele>
        <time>2022-06-22T05:31:42.000Z</time>
      </trkpt>
      <trkpt lat="46.8287" lon="2.91561">
        <ele>213</ele>
        <time>2022-06-22T05:31:45.000Z</time>
      </trkpt>
      <trkpt lat="46.82859" lon="2.91545">
        <ele>213.80000305176</ele>
        <time>2022-06-22T05:31:48.000Z</time>
      </trkpt>
      <trkpt lat="46.82848" lon="2.91529">
        <ele>214.19999694824</ele>
        <time>2022-06-22T05:31:51.000Z</time>
      </trkpt>
      <trkpt lat="46.8283" lon="2.915">
        <ele>214.39999389648</ele>
        <time>2022-06-22T05:31:56.000Z</time>
      </trkpt>
      <trkpt lat="46.82826" lon="2.91494">
        <ele>214.60000610352</ele>
        <time>2022-06-22T05:31:57.000Z</time>
      </trkpt>
      <trkpt lat="46.82796" lon="2.9145">
        <ele>214.60000610352</ele>
        <time>2022-06-22T05:32:05.000Z</time>
      </trkpt>
      <trkpt lat="46.82792" lon="2.91445">
        <ele>214.80000305176</ele>
        <time>2022-06-22T05:32:06.000Z</time>
      </trkpt>
      <trkpt lat="46.82765" lon="2.91413">
        <ele>212.80000305176</ele>
        <time>2022-06-22T05:32:12.000Z</time>
      </trkpt>
      <trkpt lat="46.82741" lon="2.91378">
        <ele>210</ele>
        <time>2022-06-22T05:32:17.000Z</time>
      </trkpt>
      <trkpt lat="46.82732" lon="2.9136">
        <ele>209</ele>
        <time>2022-06-22T05:32:19.000Z</time>
      </trkpt>
      <trkpt lat="46.82723" lon="2.91341">
        <ele>208.60000610352</ele>
        <time>2022-06-22T05:32:21.000Z</time>
      </trkpt>
      <trkpt lat="46.82719" lon="2.9133">
        <ele>208</ele>
        <time>2022-06-22T05:32:22.000Z</time>
      </trkpt>
      <trkpt lat="46.82711" lon="2.91308">
        <ele>207</ele>
        <time>2022-06-22T05:32:24.000Z</time>
      </trkpt>
      <trkpt lat="46.82697" lon="2.91261">
        <ele>205.80000305176</ele>
        <time>2022-06-22T05:32:28.000Z</time>
      </trkpt>
      <trkpt lat="46.82693" lon="2.9125">
        <ele>205.60000610352</ele>
        <time>2022-06-22T05:32:29.000Z</time>
      </trkpt>
      <trkpt lat="46.82686" lon="2.91227">
        <ele>205.39999389648</ele>
        <time>2022-06-22T05:32:31.000Z</time>
      </trkpt>
      <trkpt lat="46.82673" lon="2.91195">
        <ele>205</ele>
        <time>2022-06-22T05:32:34.000Z</time>
      </trkpt>
      <trkpt lat="46.82668" lon="2.91185">
        <ele>204.80000305176</ele>
        <time>2022-06-22T05:32:35.000Z</time>
      </trkpt>
      <trkpt lat="46.82649" lon="2.91147">
        <ele>203</ele>
        <time>2022-06-22T05:32:39.000Z</time>
      </trkpt>
      <trkpt lat="46.82639" lon="2.91129">
        <ele>202.60000610352</ele>
        <time>2022-06-22T05:32:41.000Z</time>
      </trkpt>
      <trkpt lat="46.82628" lon="2.91111">
        <ele>202.19999694824</ele>
        <time>2022-06-22T05:32:43.000Z</time>
      </trkpt>
      <trkpt lat="46.82596" lon="2.91044">
        <ele>201</ele>
        <time>2022-06-22T05:32:50.000Z</time>
      </trkpt>
      <trkpt lat="46.82589" lon="2.91023">
        <ele>200.39999389648</ele>
        <time>2022-06-22T05:32:52.000Z</time>
      </trkpt>
      <trkpt lat="46.82583" lon="2.90989">
        <ele>199.60000610352</ele>
        <time>2022-06-22T05:32:55.000Z</time>
      </trkpt>
      <trkpt lat="46.82578" lon="2.90924">
        <ele>198</ele>
        <time>2022-06-22T05:33:01.000Z</time>
      </trkpt>
      <trkpt lat="46.82576" lon="2.90913">
        <ele>198.19999694824</ele>
        <time>2022-06-22T05:33:02.000Z</time>
      </trkpt>
      <trkpt lat="46.82571" lon="2.90872">
        <ele>197.80000305176</ele>
        <time>2022-06-22T05:33:06.000Z</time>
      </trkpt>
      <trkpt lat="46.82565" lon="2.90841">
        <ele>197.80000305176</ele>
        <time>2022-06-22T05:33:09.000Z</time>
      </trkpt>
      <trkpt lat="46.8256" lon="2.908">
        <ele>197.39999389648</ele>
        <time>2022-06-22T05:33:13.000Z</time>
      </trkpt>
      <trkpt lat="46.82552" lon="2.9074">
        <ele>199.80000305176</ele>
        <time>2022-06-22T05:33:19.000Z</time>
      </trkpt>
      <trkpt lat="46.82548" lon="2.90681">
        <ele>203.60000610352</ele>
        <time>2022-06-22T05:33:25.000Z</time>
      </trkpt>
      <trkpt lat="46.82548" lon="2.90671">
        <ele>204</ele>
        <time>2022-06-22T05:33:26.000Z</time>
      </trkpt>
      <trkpt lat="46.82551" lon="2.90652">
        <ele>204</ele>
        <time>2022-06-22T05:33:28.000Z</time>
      </trkpt>
      <trkpt lat="46.82557" lon="2.90627">
        <ele>202.80000305176</ele>
        <time>2022-06-22T05:33:31.000Z</time>
      </trkpt>
      <trkpt lat="46.82559" lon="2.90619">
        <ele>202</ele>
        <time>2022-06-22T05:33:32.000Z</time>
      </trkpt>
      <trkpt lat="46.8257" lon="2.90598">
        <ele>199</ele>
        <time>2022-06-22T05:33:35.000Z</time>
      </trkpt>
      <trkpt lat="46.8259" lon="2.90545">
        <ele>194</ele>
        <time>2022-06-22T05:33:41.000Z</time>
      </trkpt>
      <trkpt lat="46.82599" lon="2.90502">
        <ele>195.39999389648</ele>
        <time>2022-06-22T05:33:45.000Z</time>
      </trkpt>
      <trkpt lat="46.826" lon="2.90492">
        <ele>195.80000305176</ele>
        <time>2022-06-22T05:33:46.000Z</time>
      </trkpt>
      <trkpt lat="46.82601" lon="2.90461">
        <ele>196.80000305176</ele>
        <time>2022-06-22T05:33:49.000Z</time>
      </trkpt>
      <trkpt lat="46.82604" lon="2.90414">
        <ele>197</ele>
        <time>2022-06-22T05:33:54.000Z</time>
      </trkpt>
      <trkpt lat="46.8261" lon="2.90328">
        <ele>193.80000305176</ele>
        <time>2022-06-22T05:34:03.000Z</time>
      </trkpt>
      <trkpt lat="46.82615" lon="2.90243">
        <ele>196.80000305176</ele>
        <time>2022-06-22T05:34:12.000Z</time>
      </trkpt>
      <trkpt lat="46.82619" lon="2.90177">
        <ele>197</ele>
        <time>2022-06-22T05:34:19.000Z</time>
      </trkpt>
      <trkpt lat="46.82624" lon="2.9009">
        <ele>195.80000305176</ele>
        <time>2022-06-22T05:34:28.000Z</time>
      </trkpt>
      <trkpt lat="46.82627" lon="2.90006">
        <ele>195</ele>
        <time>2022-06-22T05:34:37.000Z</time>
      </trkpt>
      <trkpt lat="46.82627" lon="2.89997">
        <ele>195.19999694824</ele>
        <time>2022-06-22T05:34:38.000Z</time>
      </trkpt>
      <trkpt lat="46.8263" lon="2.89936">
        <ele>196.60000610352</ele>
        <time>2022-06-22T05:34:45.000Z</time>
      </trkpt>
      <trkpt lat="46.82633" lon="2.89861">
        <ele>197</ele>
        <time>2022-06-22T05:34:53.000Z</time>
      </trkpt>
      <trkpt lat="46.82636" lon="2.89776">
        <ele>198.39999389648</ele>
        <time>2022-06-22T05:35:02.000Z</time>
      </trkpt>
      <trkpt lat="46.8264" lon="2.89691">
        <ele>197.39999389648</ele>
        <time>2022-06-22T05:35:11.000Z</time>
      </trkpt>
      <trkpt lat="46.8264" lon="2.89673">
        <ele>196.80000305176</ele>
        <time>2022-06-22T05:35:13.000Z</time>
      </trkpt>
      <trkpt lat="46.82644" lon="2.89587">
        <ele>195.19999694824</ele>
        <time>2022-06-22T05:35:22.000Z</time>
      </trkpt>
      <trkpt lat="46.82645" lon="2.89569">
        <ele>196</ele>
        <time>2022-06-22T05:35:24.000Z</time>
      </trkpt>
      <trkpt lat="46.82648" lon="2.89485">
        <ele>197</ele>
        <time>2022-06-22T05:35:33.000Z</time>
      </trkpt>
      <trkpt lat="46.82652" lon="2.89399">
        <ele>196</ele>
        <time>2022-06-22T05:35:42.000Z</time>
      </trkpt>
      <trkpt lat="46.82652" lon="2.89389">
        <ele>196.39999389648</ele>
        <time>2022-06-22T05:35:43.000Z</time>
      </trkpt>
      <trkpt lat="46.82656" lon="2.89303">
        <ele>197.60000610352</ele>
        <time>2022-06-22T05:35:52.000Z</time>
      </trkpt>
      <trkpt lat="46.82657" lon="2.89275">
        <ele>197.39999389648</ele>
        <time>2022-06-22T05:35:55.000Z</time>
      </trkpt>
      <trkpt lat="46.8266" lon="2.8919">
        <ele>196.60000610352</ele>
        <time>2022-06-22T05:36:04.000Z</time>
      </trkpt>
      <trkpt lat="46.82662" lon="2.89116">
        <ele>196.80000305176</ele>
        <time>2022-06-22T05:36:12.000Z</time>
      </trkpt>
      <trkpt lat="46.82666" lon="2.8903">
        <ele>196.19999694824</ele>
        <time>2022-06-22T05:36:21.000Z</time>
      </trkpt>
      <trkpt lat="46.82666" lon="2.89021">
        <ele>196.60000610352</ele>
        <time>2022-06-22T05:36:22.000Z</time>
      </trkpt>
      <trkpt lat="46.8267" lon="2.88934">
        <ele>196.19999694824</ele>
        <time>2022-06-22T05:36:31.000Z</time>
      </trkpt>
      <trkpt lat="46.8267" lon="2.88915">
        <ele>196.19999694824</ele>
        <time>2022-06-22T05:36:33.000Z</time>
      </trkpt>
      <trkpt lat="46.82674" lon="2.88827">
        <ele>197</ele>
        <time>2022-06-22T05:36:42.000Z</time>
      </trkpt>
      <trkpt lat="46.82675" lon="2.88799">
        <ele>197</ele>
        <time>2022-06-22T05:36:45.000Z</time>
      </trkpt>
      <trkpt lat="46.82679" lon="2.88712">
        <ele>195.80000305176</ele>
        <time>2022-06-22T05:36:54.000Z</time>
      </trkpt>
      <trkpt lat="46.82679" lon="2.88692">
        <ele>196.39999389648</ele>
        <time>2022-06-22T05:36:56.000Z</time>
      </trkpt>
      <trkpt lat="46.82683" lon="2.88607">
        <ele>198.60000610352</ele>
        <time>2022-06-22T05:37:05.000Z</time>
      </trkpt>
      <trkpt lat="46.82684" lon="2.88579">
        <ele>199</ele>
        <time>2022-06-22T05:37:08.000Z</time>
      </trkpt>
      <trkpt lat="46.82687" lon="2.88498">
        <ele>197</ele>
        <time>2022-06-22T05:37:17.000Z</time>
      </trkpt>
      <trkpt lat="46.8269" lon="2.88433">
        <ele>198.19999694824</ele>
        <time>2022-06-22T05:37:24.000Z</time>
      </trkpt>
      <trkpt lat="46.82693" lon="2.88348">
        <ele>197.19999694824</ele>
        <time>2022-06-22T05:37:33.000Z</time>
      </trkpt>
      <trkpt lat="46.82693" lon="2.88339">
        <ele>196.60000610352</ele>
        <time>2022-06-22T05:37:34.000Z</time>
      </trkpt>
      <trkpt lat="46.82697" lon="2.88254">
        <ele>195.19999694824</ele>
        <time>2022-06-22T05:37:43.000Z</time>
      </trkpt>
      <trkpt lat="46.82697" lon="2.88244">
        <ele>195.19999694824</ele>
        <time>2022-06-22T05:37:44.000Z</time>
      </trkpt>
      <trkpt lat="46.827" lon="2.88178">
        <ele>196.80000305176</ele>
        <time>2022-06-22T05:37:51.000Z</time>
      </trkpt>
      <trkpt lat="46.82702" lon="2.8814">
        <ele>198</ele>
        <time>2022-06-22T05:37:55.000Z</time>
      </trkpt>
      <trkpt lat="46.82705" lon="2.88063">
        <ele>196.80000305176</ele>
        <time>2022-06-22T05:38:03.000Z</time>
      </trkpt>
      <trkpt lat="46.82708" lon="2.87975">
        <ele>198</ele>
        <time>2022-06-22T05:38:12.000Z</time>
      </trkpt>
      <trkpt lat="46.82708" lon="2.87966">
        <ele>198</ele>
        <time>2022-06-22T05:38:13.000Z</time>
      </trkpt>
      <trkpt lat="46.82703" lon="2.87901">
        <ele>198</ele>
        <time>2022-06-22T05:38:20.000Z</time>
      </trkpt>
      <trkpt lat="46.82702" lon="2.87892">
        <ele>198</ele>
        <time>2022-06-22T05:38:21.000Z</time>
      </trkpt>
      <trkpt lat="46.82691" lon="2.8785">
        <ele>198</ele>
        <time>2022-06-22T05:38:26.000Z</time>
      </trkpt>
      <trkpt lat="46.82686" lon="2.87834">
        <ele>198.39999389648</ele>
        <time>2022-06-22T05:38:28.000Z</time>
      </trkpt>
      <trkpt lat="46.82672" lon="2.87797">
        <ele>199.80000305176</ele>
        <time>2022-06-22T05:38:33.000Z</time>
      </trkpt>
      <trkpt lat="46.82662" lon="2.87777">
        <ele>201.19999694824</ele>
        <time>2022-06-22T05:38:36.000Z</time>
      </trkpt>
      <trkpt lat="46.8265" lon="2.87751">
        <ele>203.19999694824</ele>
        <time>2022-06-22T05:38:40.000Z</time>
      </trkpt>
      <trkpt lat="46.82647" lon="2.87744">
        <ele>203.60000610352</ele>
        <time>2022-06-22T05:38:41.000Z</time>
      </trkpt>
      <trkpt lat="46.82645" lon="2.87737">
        <ele>203.80000305176</ele>
        <time>2022-06-22T05:38:42.000Z</time>
      </trkpt>
      <trkpt lat="46.8263" lon="2.87706">
        <ele>204.60000610352</ele>
        <time>2022-06-22T05:38:47.000Z</time>
      </trkpt>
      <trkpt lat="46.82627" lon="2.87699">
        <ele>204.80000305176</ele>
        <time>2022-06-22T05:38:48.000Z</time>
      </trkpt>
      <trkpt lat="46.82625" lon="2.87693">
        <ele>204.80000305176</ele>
        <time>2022-06-22T05:38:49.000Z</time>
      </trkpt>
      <trkpt lat="46.82616" lon="2.87674">
        <ele>204.80000305176</ele>
        <time>2022-06-22T05:38:52.000Z</time>
      </trkpt>
      <trkpt lat="46.82611" lon="2.87661">
        <ele>204.80000305176</ele>
        <time>2022-06-22T05:38:54.000Z</time>
      </trkpt>
      <trkpt lat="46.82596" lon="2.87629">
        <ele>205.80000305176</ele>
        <time>2022-06-22T05:38:59.000Z</time>
      </trkpt>
      <trkpt lat="46.82588" lon="2.8761">
        <ele>206.60000610352</ele>
        <time>2022-06-22T05:39:02.000Z</time>
      </trkpt>
      <trkpt lat="46.82582" lon="2.87597">
        <ele>207</ele>
        <time>2022-06-22T05:39:04.000Z</time>
      </trkpt>
      <trkpt lat="46.82565" lon="2.87559">
        <ele>208.60000610352</ele>
        <time>2022-06-22T05:39:10.000Z</time>
      </trkpt>
      <trkpt lat="46.82562" lon="2.87552">
        <ele>208.80000305176</ele>
        <time>2022-06-22T05:39:11.000Z</time>
      </trkpt>
      <trkpt lat="46.82554" lon="2.87533">
        <ele>209.60000610352</ele>
        <time>2022-06-22T05:39:14.000Z</time>
      </trkpt>
      <trkpt lat="46.8254" lon="2.87501">
        <ele>210.80000305176</ele>
        <time>2022-06-22T05:39:19.000Z</time>
      </trkpt>
      <trkpt lat="46.82537" lon="2.87494">
        <ele>211.19999694824</ele>
        <time>2022-06-22T05:39:20.000Z</time>
      </trkpt>
      <trkpt lat="46.82516" lon="2.87448">
        <ele>212.19999694824</ele>
        <time>2022-06-22T05:39:27.000Z</time>
      </trkpt>
      <trkpt lat="46.82513" lon="2.87442">
        <ele>212.39999389648</ele>
        <time>2022-06-22T05:39:28.000Z</time>
      </trkpt>
      <trkpt lat="46.82497" lon="2.87403">
        <ele>212.60000610352</ele>
        <time>2022-06-22T05:39:34.000Z</time>
      </trkpt>
      <trkpt lat="46.82492" lon="2.8739">
        <ele>212.80000305176</ele>
        <time>2022-06-22T05:39:36.000Z</time>
      </trkpt>
      <trkpt lat="46.8248" lon="2.87365">
        <ele>213</ele>
        <time>2022-06-22T05:39:40.000Z</time>
      </trkpt>
      <trkpt lat="46.82465" lon="2.87332">
        <ele>213</ele>
        <time>2022-06-22T05:39:45.000Z</time>
      </trkpt>
      <trkpt lat="46.82458" lon="2.87317">
        <ele>213.39999389648</ele>
        <time>2022-06-22T05:39:47.000Z</time>
      </trkpt>
      <trkpt lat="46.82433" lon="2.8726">
        <ele>214.60000610352</ele>
        <time>2022-06-22T05:39:55.000Z</time>
      </trkpt>
      <trkpt lat="46.82398" lon="2.87209">
        <ele>218.39999389648</ele>
        <time>2022-06-22T05:40:03.000Z</time>
      </trkpt>
      <trkpt lat="46.82361" lon="2.87159">
        <ele>219</ele>
        <time>2022-06-22T05:40:11.000Z</time>
      </trkpt>
      <trkpt lat="46.82329" lon="2.87115">
        <ele>218</ele>
        <time>2022-06-22T05:40:18.000Z</time>
      </trkpt>
      <trkpt lat="46.82295" lon="2.87069">
        <ele>220.19999694824</ele>
        <time>2022-06-22T05:40:26.000Z</time>
      </trkpt>
      <trkpt lat="46.82277" lon="2.87045">
        <ele>221.19999694824</ele>
        <time>2022-06-22T05:40:30.000Z</time>
      </trkpt>
      <trkpt lat="46.82262" lon="2.87022">
        <ele>222</ele>
        <time>2022-06-22T05:40:34.000Z</time>
      </trkpt>
      <trkpt lat="46.82246" lon="2.86999">
        <ele>222.39999389648</ele>
        <time>2022-06-22T05:40:38.000Z</time>
      </trkpt>
      <trkpt lat="46.82234" lon="2.86982">
        <ele>222.39999389648</ele>
        <time>2022-06-22T05:40:41.000Z</time>
      </trkpt>
      <trkpt lat="46.82205" lon="2.86942">
        <ele>220.80000305176</ele>
        <time>2022-06-22T05:40:48.000Z</time>
      </trkpt>
      <trkpt lat="46.82197" lon="2.8693">
        <ele>220</ele>
        <time>2022-06-22T05:40:50.000Z</time>
      </trkpt>
      <trkpt lat="46.82186" lon="2.86914">
        <ele>220.39999389648</ele>
        <time>2022-06-22T05:40:53.000Z</time>
      </trkpt>
      <trkpt lat="46.82167" lon="2.86891">
        <ele>220.60000610352</ele>
        <time>2022-06-22T05:40:57.000Z</time>
      </trkpt>
      <trkpt lat="46.82132" lon="2.86843">
        <ele>219.80000305176</ele>
        <time>2022-06-22T05:41:05.000Z</time>
      </trkpt>
      <trkpt lat="46.82101" lon="2.86798">
        <ele>219.39999389648</ele>
        <time>2022-06-22T05:41:12.000Z</time>
      </trkpt>
      <trkpt lat="46.82097" lon="2.86791">
        <ele>219.19999694824</ele>
        <time>2022-06-22T05:41:13.000Z</time>
      </trkpt>
      <trkpt lat="46.82077" lon="2.86756">
        <ele>219.19999694824</ele>
        <time>2022-06-22T05:41:18.000Z</time>
      </trkpt>
      <trkpt lat="46.82041" lon="2.86695">
        <ele>217.19999694824</ele>
        <time>2022-06-22T05:41:26.000Z</time>
      </trkpt>
      <trkpt lat="46.82027" lon="2.86673">
        <ele>216.60000610352</ele>
        <time>2022-06-22T05:41:29.000Z</time>
      </trkpt>
      <trkpt lat="46.82007" lon="2.86644">
        <ele>214.80000305176</ele>
        <time>2022-06-22T05:41:33.000Z</time>
      </trkpt>
      <trkpt lat="46.81998" lon="2.86627">
        <ele>214.60000610352</ele>
        <time>2022-06-22T05:41:35.000Z</time>
      </trkpt>
      <trkpt lat="46.81978" lon="2.8658">
        <ele>213.19999694824</ele>
        <time>2022-06-22T05:41:40.000Z</time>
      </trkpt>
      <trkpt lat="46.81974" lon="2.8657">
        <ele>212.60000610352</ele>
        <time>2022-06-22T05:41:41.000Z</time>
      </trkpt>
      <trkpt lat="46.81961" lon="2.86529">
        <ele>210.60000610352</ele>
        <time>2022-06-22T05:41:45.000Z</time>
      </trkpt>
      <trkpt lat="46.81956" lon="2.86507">
        <ele>209.80000305176</ele>
        <time>2022-06-22T05:41:47.000Z</time>
      </trkpt>
      <trkpt lat="46.8195" lon="2.86484">
        <ele>209.19999694824</ele>
        <time>2022-06-22T05:41:49.000Z</time>
      </trkpt>
      <trkpt lat="46.81939" lon="2.86437">
        <ele>208.80000305176</ele>
        <time>2022-06-22T05:41:53.000Z</time>
      </trkpt>
      <trkpt lat="46.81931" lon="2.86402">
        <ele>207.80000305176</ele>
        <time>2022-06-22T05:41:56.000Z</time>
      </trkpt>
      <trkpt lat="46.81925" lon="2.86378">
        <ele>207.19999694824</ele>
        <time>2022-06-22T05:41:58.000Z</time>
      </trkpt>
      <trkpt lat="46.81917" lon="2.86345">
        <ele>207</ele>
        <time>2022-06-22T05:42:01.000Z</time>
      </trkpt>
      <trkpt lat="46.81909" lon="2.86312">
        <ele>206.80000305176</ele>
        <time>2022-06-22T05:42:04.000Z</time>
      </trkpt>
      <trkpt lat="46.81898" lon="2.8627">
        <ele>206</ele>
        <time>2022-06-22T05:42:08.000Z</time>
      </trkpt>
      <trkpt lat="46.81884" lon="2.86211">
        <ele>206</ele>
        <time>2022-06-22T05:42:14.000Z</time>
      </trkpt>
      <trkpt lat="46.81865" lon="2.86131">
        <ele>204.39999389648</ele>
        <time>2022-06-22T05:42:22.000Z</time>
      </trkpt>
      <trkpt lat="46.81857" lon="2.86101">
        <ele>204.80000305176</ele>
        <time>2022-06-22T05:42:25.000Z</time>
      </trkpt>
      <trkpt lat="46.81852" lon="2.8608">
        <ele>204.60000610352</ele>
        <time>2022-06-22T05:42:27.000Z</time>
      </trkpt>
      <trkpt lat="46.81835" lon="2.8602">
        <ele>204</ele>
        <time>2022-06-22T05:42:33.000Z</time>
      </trkpt>
      <trkpt lat="46.81824" lon="2.85991">
        <ele>203.39999389648</ele>
        <time>2022-06-22T05:42:36.000Z</time>
      </trkpt>
      <trkpt lat="46.81804" lon="2.85945">
        <ele>203</ele>
        <time>2022-06-22T05:42:41.000Z</time>
      </trkpt>
      <trkpt lat="46.81773" lon="2.85874">
        <ele>204</ele>
        <time>2022-06-22T05:42:49.000Z</time>
      </trkpt>
      <trkpt lat="46.81765" lon="2.85856">
        <ele>204</ele>
        <time>2022-06-22T05:42:51.000Z</time>
      </trkpt>
      <trkpt lat="46.81734" lon="2.85786">
        <ele>202.19999694824</ele>
        <time>2022-06-22T05:42:59.000Z</time>
      </trkpt>
      <trkpt lat="46.81719" lon="2.85751">
        <ele>202.60000610352</ele>
        <time>2022-06-22T05:43:03.000Z</time>
      </trkpt>
      <trkpt lat="46.81688" lon="2.85681">
        <ele>200.80000305176</ele>
        <time>2022-06-22T05:43:11.000Z</time>
      </trkpt>
      <trkpt lat="46.8166" lon="2.8562">
        <ele>202</ele>
        <time>2022-06-22T05:43:18.000Z</time>
      </trkpt>
      <trkpt lat="46.81642" lon="2.85577">
        <ele>202.60000610352</ele>
        <time>2022-06-22T05:43:23.000Z</time>
      </trkpt>
      <trkpt lat="46.81623" lon="2.85536">
        <ele>203.80000305176</ele>
        <time>2022-06-22T05:43:28.000Z</time>
      </trkpt>
      <trkpt lat="46.81595" lon="2.85471">
        <ele>205.60000610352</ele>
        <time>2022-06-22T05:43:36.000Z</time>
      </trkpt>
      <trkpt lat="46.81563" lon="2.85399">
        <ele>204</ele>
        <time>2022-06-22T05:43:45.000Z</time>
      </trkpt>
      <trkpt lat="46.81546" lon="2.85358">
        <ele>203.39999389648</ele>
        <time>2022-06-22T05:43:50.000Z</time>
      </trkpt>
      <trkpt lat="46.81516" lon="2.85292">
        <ele>202.19999694824</ele>
        <time>2022-06-22T05:43:58.000Z</time>
      </trkpt>
      <trkpt lat="46.81498" lon="2.85251">
        <ele>202.39999389648</ele>
        <time>2022-06-22T05:44:03.000Z</time>
      </trkpt>
      <trkpt lat="46.8149" lon="2.85235">
        <ele>202.60000610352</ele>
        <time>2022-06-22T05:44:05.000Z</time>
      </trkpt>
      <trkpt lat="46.81464" lon="2.85178">
        <ele>203</ele>
        <time>2022-06-22T05:44:12.000Z</time>
      </trkpt>
      <trkpt lat="46.81433" lon="2.85106">
        <ele>202.80000305176</ele>
        <time>2022-06-22T05:44:21.000Z</time>
      </trkpt>
      <trkpt lat="46.81422" lon="2.85082">
        <ele>203.60000610352</ele>
        <time>2022-06-22T05:44:24.000Z</time>
      </trkpt>
      <trkpt lat="46.81391" lon="2.85011">
        <ele>206</ele>
        <time>2022-06-22T05:44:33.000Z</time>
      </trkpt>
      <trkpt lat="46.81387" lon="2.85003">
        <ele>206</ele>
        <time>2022-06-22T05:44:34.000Z</time>
      </trkpt>
      <trkpt lat="46.81381" lon="2.84987">
        <ele>206</ele>
        <time>2022-06-22T05:44:36.000Z</time>
      </trkpt>
      <trkpt lat="46.8135" lon="2.84918">
        <ele>205</ele>
        <time>2022-06-22T05:44:45.000Z</time>
      </trkpt>
      <trkpt lat="46.8134" lon="2.84894">
        <ele>205.19999694824</ele>
        <time>2022-06-22T05:44:48.000Z</time>
      </trkpt>
      <trkpt lat="46.81309" lon="2.84823">
        <ele>206.80000305176</ele>
        <time>2022-06-22T05:44:57.000Z</time>
      </trkpt>
      <trkpt lat="46.81295" lon="2.84793">
        <ele>207.60000610352</ele>
        <time>2022-06-22T05:45:01.000Z</time>
      </trkpt>
      <trkpt lat="46.81272" lon="2.84738">
        <ele>207.80000305176</ele>
        <time>2022-06-22T05:45:08.000Z</time>
      </trkpt>
      <trkpt lat="46.81261" lon="2.84715">
        <ele>208</ele>
        <time>2022-06-22T05:45:11.000Z</time>
      </trkpt>
      <trkpt lat="46.8123" lon="2.84643">
        <ele>206.19999694824</ele>
        <time>2022-06-22T05:45:20.000Z</time>
      </trkpt>
      <trkpt lat="46.81226" lon="2.84634">
        <ele>206.19999694824</ele>
        <time>2022-06-22T05:45:21.000Z</time>
      </trkpt>
      <trkpt lat="46.81194" lon="2.8456">
        <ele>206.19999694824</ele>
        <time>2022-06-22T05:45:30.000Z</time>
      </trkpt>
      <trkpt lat="46.8119" lon="2.84552">
        <ele>206.39999389648</ele>
        <time>2022-06-22T05:45:31.000Z</time>
      </trkpt>
      <trkpt lat="46.81158" lon="2.8448">
        <ele>206</ele>
        <time>2022-06-22T05:45:40.000Z</time>
      </trkpt>
      <trkpt lat="46.81148" lon="2.84456">
        <ele>206</ele>
        <time>2022-06-22T05:45:43.000Z</time>
      </trkpt>
      <trkpt lat="46.81123" lon="2.84399">
        <ele>207</ele>
        <time>2022-06-22T05:45:50.000Z</time>
      </trkpt>
      <trkpt lat="46.81109" lon="2.84368">
        <ele>206.60000610352</ele>
        <time>2022-06-22T05:45:54.000Z</time>
      </trkpt>
      <trkpt lat="46.81089" lon="2.84323">
        <ele>206.19999694824</ele>
        <time>2022-06-22T05:46:00.000Z</time>
      </trkpt>
      <trkpt lat="46.8106" lon="2.84256">
        <ele>207</ele>
        <time>2022-06-22T05:46:09.000Z</time>
      </trkpt>
      <trkpt lat="46.81056" lon="2.84249">
        <ele>207</ele>
        <time>2022-06-22T05:46:10.000Z</time>
      </trkpt>
      <trkpt lat="46.81026" lon="2.84181">
        <ele>207</ele>
        <time>2022-06-22T05:46:19.000Z</time>
      </trkpt>
      <trkpt lat="46.8102" lon="2.84166">
        <ele>207</ele>
        <time>2022-06-22T05:46:21.000Z</time>
      </trkpt>
      <trkpt lat="46.81007" lon="2.84137">
        <ele>207</ele>
        <time>2022-06-22T05:46:25.000Z</time>
      </trkpt>
      <trkpt lat="46.80994" lon="2.84108">
        <ele>208</ele>
        <time>2022-06-22T05:46:29.000Z</time>
      </trkpt>
      <trkpt lat="46.80967" lon="2.84048">
        <ele>208.60000610352</ele>
        <time>2022-06-22T05:46:37.000Z</time>
      </trkpt>
      <trkpt lat="46.80938" lon="2.8398">
        <ele>208.60000610352</ele>
        <time>2022-06-22T05:46:46.000Z</time>
      </trkpt>
      <trkpt lat="46.80931" lon="2.83966">
        <ele>208.80000305176</ele>
        <time>2022-06-22T05:46:48.000Z</time>
      </trkpt>
      <trkpt lat="46.80901" lon="2.83899">
        <ele>210</ele>
        <time>2022-06-22T05:46:57.000Z</time>
      </trkpt>
      <trkpt lat="46.80897" lon="2.8389">
        <ele>210</ele>
        <time>2022-06-22T05:46:58.000Z</time>
      </trkpt>
      <trkpt lat="46.80887" lon="2.83868">
        <ele>209.60000610352</ele>
        <time>2022-06-22T05:47:01.000Z</time>
      </trkpt>
      <trkpt lat="46.80857" lon="2.838">
        <ele>209.39999389648</ele>
        <time>2022-06-22T05:47:10.000Z</time>
      </trkpt>
      <trkpt lat="46.80854" lon="2.83792">
        <ele>209.60000610352</ele>
        <time>2022-06-22T05:47:11.000Z</time>
      </trkpt>
      <trkpt lat="46.80822" lon="2.83721">
        <ele>208.39999389648</ele>
        <time>2022-06-22T05:47:20.000Z</time>
      </trkpt>
      <trkpt lat="46.80814" lon="2.83704">
        <ele>208</ele>
        <time>2022-06-22T05:47:22.000Z</time>
      </trkpt>
      <trkpt lat="46.80783" lon="2.83634">
        <ele>208.19999694824</ele>
        <time>2022-06-22T05:47:31.000Z</time>
      </trkpt>
      <trkpt lat="46.80777" lon="2.8362">
        <ele>208.60000610352</ele>
        <time>2022-06-22T05:47:33.000Z</time>
      </trkpt>
      <trkpt lat="46.80752" lon="2.83557">
        <ele>210</ele>
        <time>2022-06-22T05:47:41.000Z</time>
      </trkpt>
      <trkpt lat="46.80739" lon="2.83488">
        <ele>210.60000610352</ele>
        <time>2022-06-22T05:47:49.000Z</time>
      </trkpt>
      <trkpt lat="46.8073" lon="2.83435">
        <ele>212.80000305176</ele>
        <time>2022-06-22T05:47:55.000Z</time>
      </trkpt>
      <trkpt lat="46.80727" lon="2.8342">
        <ele>213.19999694824</ele>
        <time>2022-06-22T05:47:57.000Z</time>
      </trkpt>
      <trkpt lat="46.80721" lon="2.83385">
        <ele>214.19999694824</ele>
        <time>2022-06-22T05:48:01.000Z</time>
      </trkpt>
      <trkpt lat="46.8072" lon="2.83379">
        <ele>214.39999389648</ele>
        <time>2022-06-22T05:48:02.000Z</time>
      </trkpt>
      <trkpt lat="46.80719" lon="2.83371">
        <ele>214.60000610352</ele>
        <time>2022-06-22T05:48:03.000Z</time>
      </trkpt>
      <trkpt lat="46.80711" lon="2.83328">
        <ele>214.19999694824</ele>
        <time>2022-06-22T05:48:08.000Z</time>
      </trkpt>
      <trkpt lat="46.80704" lon="2.83283">
        <ele>213</ele>
        <time>2022-06-22T05:48:13.000Z</time>
      </trkpt>
      <trkpt lat="46.80691" lon="2.83203">
        <ele>212</ele>
        <time>2022-06-22T05:48:21.000Z</time>
      </trkpt>
      <trkpt lat="46.8069" lon="2.83195">
        <ele>211.60000610352</ele>
        <time>2022-06-22T05:48:22.000Z</time>
      </trkpt>
      <trkpt lat="46.80682" lon="2.83149">
        <ele>211.19999694824</ele>
        <time>2022-06-22T05:48:27.000Z</time>
      </trkpt>
      <trkpt lat="46.80677" lon="2.83114">
        <ele>212</ele>
        <time>2022-06-22T05:48:31.000Z</time>
      </trkpt>
      <trkpt lat="46.80664" lon="2.83035">
        <ele>211.60000610352</ele>
        <time>2022-06-22T05:48:40.000Z</time>
      </trkpt>
      <trkpt lat="46.80657" lon="2.82998">
        <ele>212.39999389648</ele>
        <time>2022-06-22T05:48:44.000Z</time>
      </trkpt>
      <trkpt lat="46.80645" lon="2.82919">
        <ele>214</ele>
        <time>2022-06-22T05:48:53.000Z</time>
      </trkpt>
      <trkpt lat="46.80631" lon="2.82836">
        <ele>213.39999389648</ele>
        <time>2022-06-22T05:49:02.000Z</time>
      </trkpt>
      <trkpt lat="46.80617" lon="2.82755">
        <ele>213</ele>
        <time>2022-06-22T05:49:11.000Z</time>
      </trkpt>
      <trkpt lat="46.80614" lon="2.82737">
        <ele>213</ele>
        <time>2022-06-22T05:49:13.000Z</time>
      </trkpt>
      <trkpt lat="46.80607" lon="2.82695">
        <ele>213.39999389648</ele>
        <time>2022-06-22T05:49:18.000Z</time>
      </trkpt>
      <trkpt lat="46.806" lon="2.82651">
        <ele>214.19999694824</ele>
        <time>2022-06-22T05:49:23.000Z</time>
      </trkpt>
      <trkpt lat="46.80589" lon="2.82589">
        <ele>214.19999694824</ele>
        <time>2022-06-22T05:49:30.000Z</time>
      </trkpt>
      <trkpt lat="46.80586" lon="2.82575">
        <ele>214.80000305176</ele>
        <time>2022-06-22T05:49:32.000Z</time>
      </trkpt>
      <trkpt lat="46.80573" lon="2.82524">
        <ele>217</ele>
        <time>2022-06-22T05:49:38.000Z</time>
      </trkpt>
      <trkpt lat="46.80567" lon="2.82497">
        <ele>217.39999389648</ele>
        <time>2022-06-22T05:49:41.000Z</time>
      </trkpt>
      <trkpt lat="46.80554" lon="2.82438">
        <ele>217.60000610352</ele>
        <time>2022-06-22T05:49:48.000Z</time>
      </trkpt>
      <trkpt lat="46.80534" lon="2.82355">
        <ele>217.39999389648</ele>
        <time>2022-06-22T05:49:57.000Z</time>
      </trkpt>
      <trkpt lat="46.80532" lon="2.82346">
        <ele>217.60000610352</ele>
        <time>2022-06-22T05:49:58.000Z</time>
      </trkpt>
      <trkpt lat="46.80519" lon="2.82267">
        <ele>218.19999694824</ele>
        <time>2022-06-22T05:50:06.000Z</time>
      </trkpt>
      <trkpt lat="46.80518" lon="2.82257">
        <ele>218.39999389648</ele>
        <time>2022-06-22T05:50:07.000Z</time>
      </trkpt>
      <trkpt lat="46.80511" lon="2.82189">
        <ele>216.80000305176</ele>
        <time>2022-06-22T05:50:14.000Z</time>
      </trkpt>
      <trkpt lat="46.80504" lon="2.82109">
        <ele>217</ele>
        <time>2022-06-22T05:50:22.000Z</time>
      </trkpt>
      <trkpt lat="46.80503" lon="2.82098">
        <ele>217.19999694824</ele>
        <time>2022-06-22T05:50:23.000Z</time>
      </trkpt>
      <trkpt lat="46.80497" lon="2.82039">
        <ele>216.39999389648</ele>
        <time>2022-06-22T05:50:29.000Z</time>
      </trkpt>
      <trkpt lat="46.80495" lon="2.82017">
        <ele>216</ele>
        <time>2022-06-22T05:50:31.000Z</time>
      </trkpt>
      <trkpt lat="46.80488" lon="2.81959">
        <ele>215.60000610352</ele>
        <time>2022-06-22T05:50:37.000Z</time>
      </trkpt>
      <trkpt lat="46.80483" lon="2.81895">
        <ele>216.39999389648</ele>
        <time>2022-06-22T05:50:44.000Z</time>
      </trkpt>
      <trkpt lat="46.80477" lon="2.81827">
        <ele>214.19999694824</ele>
        <time>2022-06-22T05:50:51.000Z</time>
      </trkpt>
      <trkpt lat="46.8047" lon="2.8174">
        <ele>212</ele>
        <time>2022-06-22T05:51:00.000Z</time>
      </trkpt>
      <trkpt lat="46.80469" lon="2.81731">
        <ele>212</ele>
        <time>2022-06-22T05:51:01.000Z</time>
      </trkpt>
      <trkpt lat="46.80465" lon="2.81691">
        <ele>211.19999694824</ele>
        <time>2022-06-22T05:51:05.000Z</time>
      </trkpt>
      <trkpt lat="46.80461" lon="2.81641">
        <ele>211.19999694824</ele>
        <time>2022-06-22T05:51:10.000Z</time>
      </trkpt>
      <trkpt lat="46.80455" lon="2.81573">
        <ele>210.39999389648</ele>
        <time>2022-06-22T05:51:17.000Z</time>
      </trkpt>
      <trkpt lat="46.80452" lon="2.81543">
        <ele>209.19999694824</ele>
        <time>2022-06-22T05:51:20.000Z</time>
      </trkpt>
      <trkpt lat="46.80444" lon="2.8147">
        <ele>208.60000610352</ele>
        <time>2022-06-22T05:51:27.000Z</time>
      </trkpt>
      <trkpt lat="46.80441" lon="2.8145">
        <ele>208.39999389648</ele>
        <time>2022-06-22T05:51:29.000Z</time>
      </trkpt>
      <trkpt lat="46.80424" lon="2.81389">
        <ele>208</ele>
        <time>2022-06-22T05:51:36.000Z</time>
      </trkpt>
      <trkpt lat="46.80396" lon="2.81322">
        <ele>207</ele>
        <time>2022-06-22T05:51:44.000Z</time>
      </trkpt>
      <trkpt lat="46.80389" lon="2.81305">
        <ele>206.60000610352</ele>
        <time>2022-06-22T05:51:46.000Z</time>
      </trkpt>
      <trkpt lat="46.8037" lon="2.8125">
        <ele>205.39999389648</ele>
        <time>2022-06-22T05:51:52.000Z</time>
      </trkpt>
      <trkpt lat="46.80365" lon="2.8121">
        <ele>207.39999389648</ele>
        <time>2022-06-22T05:51:56.000Z</time>
      </trkpt>
      <trkpt lat="46.80365" lon="2.812">
        <ele>208</ele>
        <time>2022-06-22T05:51:57.000Z</time>
      </trkpt>
      <trkpt lat="46.80366" lon="2.8119">
        <ele>208</ele>
        <time>2022-06-22T05:51:58.000Z</time>
      </trkpt>
      <trkpt lat="46.8037" lon="2.81172">
        <ele>208</ele>
        <time>2022-06-22T05:52:00.000Z</time>
      </trkpt>
      <trkpt lat="46.80374" lon="2.81164">
        <ele>208</ele>
        <time>2022-06-22T05:52:01.000Z</time>
      </trkpt>
      <trkpt lat="46.80402" lon="2.81112">
        <ele>206</ele>
        <time>2022-06-22T05:52:08.000Z</time>
      </trkpt>
      <trkpt lat="46.80423" lon="2.81054">
        <ele>205.80000305176</ele>
        <time>2022-06-22T05:52:15.000Z</time>
      </trkpt>
      <trkpt lat="46.80446" lon="2.80983">
        <ele>209.80000305176</ele>
        <time>2022-06-22T05:52:24.000Z</time>
      </trkpt>
      <trkpt lat="46.80469" lon="2.8091">
        <ele>210</ele>
        <time>2022-06-22T05:52:33.000Z</time>
      </trkpt>
      <trkpt lat="46.80488" lon="2.80848">
        <ele>209</ele>
        <time>2022-06-22T05:52:40.000Z</time>
      </trkpt>
      <trkpt lat="46.80508" lon="2.80775">
        <ele>209.39999389648</ele>
        <time>2022-06-22T05:52:48.000Z</time>
      </trkpt>
      <trkpt lat="46.8051" lon="2.80766">
        <ele>209.80000305176</ele>
        <time>2022-06-22T05:52:49.000Z</time>
      </trkpt>
      <trkpt lat="46.80536" lon="2.80689">
        <ele>209</ele>
        <time>2022-06-22T05:52:58.000Z</time>
      </trkpt>
      <trkpt lat="46.8054" lon="2.80681">
        <ele>208.80000305176</ele>
        <time>2022-06-22T05:52:59.000Z</time>
      </trkpt>
      <trkpt lat="46.80563" lon="2.80621">
        <ele>209</ele>
        <time>2022-06-22T05:53:06.000Z</time>
      </trkpt>
      <trkpt lat="46.80566" lon="2.80613">
        <ele>209</ele>
        <time>2022-06-22T05:53:07.000Z</time>
      </trkpt>
      <trkpt lat="46.80596" lon="2.80551">
        <ele>208.39999389648</ele>
        <time>2022-06-22T05:53:15.000Z</time>
      </trkpt>
      <trkpt lat="46.806" lon="2.80543">
        <ele>208</ele>
        <time>2022-06-22T05:53:16.000Z</time>
      </trkpt>
      <trkpt lat="46.8061" lon="2.80508">
        <ele>207.60000610352</ele>
        <time>2022-06-22T05:53:20.000Z</time>
      </trkpt>
      <trkpt lat="46.80617" lon="2.80472">
        <ele>209.60000610352</ele>
        <time>2022-06-22T05:53:24.000Z</time>
      </trkpt>
      <trkpt lat="46.80619" lon="2.80454">
        <ele>210.80000305176</ele>
        <time>2022-06-22T05:53:26.000Z</time>
      </trkpt>
      <trkpt lat="46.80619" lon="2.80437">
        <ele>211.60000610352</ele>
        <time>2022-06-22T05:53:28.000Z</time>
      </trkpt>
      <trkpt lat="46.8062" lon="2.80409">
        <ele>212</ele>
        <time>2022-06-22T05:53:31.000Z</time>
      </trkpt>
      <trkpt lat="46.80624" lon="2.80328">
        <ele>210.80000305176</ele>
        <time>2022-06-22T05:53:40.000Z</time>
      </trkpt>
      <trkpt lat="46.80621" lon="2.80302">
        <ele>210.39999389648</ele>
        <time>2022-06-22T05:53:43.000Z</time>
      </trkpt>
      <trkpt lat="46.80615" lon="2.80276">
        <ele>210.19999694824</ele>
        <time>2022-06-22T05:53:46.000Z</time>
      </trkpt>
      <trkpt lat="46.80592" lon="2.80198">
        <ele>208.80000305176</ele>
        <time>2022-06-22T05:53:55.000Z</time>
      </trkpt>
      <trkpt lat="46.80575" lon="2.80121">
        <ele>207.39999389648</ele>
        <time>2022-06-22T05:54:03.000Z</time>
      </trkpt>
      <trkpt lat="46.8056" lon="2.80053">
        <ele>206.80000305176</ele>
        <time>2022-06-22T05:54:10.000Z</time>
      </trkpt>
      <trkpt lat="46.80545" lon="2.79989">
        <ele>206.60000610352</ele>
        <time>2022-06-22T05:54:17.000Z</time>
      </trkpt>
      <trkpt lat="46.80543" lon="2.7998">
        <ele>207</ele>
        <time>2022-06-22T05:54:18.000Z</time>
      </trkpt>
      <trkpt lat="46.80524" lon="2.79901">
        <ele>207.39999389648</ele>
        <time>2022-06-22T05:54:27.000Z</time>
      </trkpt>
      <trkpt lat="46.80518" lon="2.79873">
        <ele>207.19999694824</ele>
        <time>2022-06-22T05:54:30.000Z</time>
      </trkpt>
      <trkpt lat="46.805" lon="2.79795">
        <ele>207.39999389648</ele>
        <time>2022-06-22T05:54:39.000Z</time>
      </trkpt>
      <trkpt lat="46.80496" lon="2.79779">
        <ele>207.39999389648</ele>
        <time>2022-06-22T05:54:41.000Z</time>
      </trkpt>
      <trkpt lat="46.80493" lon="2.79764">
        <ele>207.80000305176</ele>
        <time>2022-06-22T05:54:43.000Z</time>
      </trkpt>
      <trkpt lat="46.80489" lon="2.79752">
        <ele>208</ele>
        <time>2022-06-22T05:54:45.000Z</time>
      </trkpt>
      <trkpt lat="46.80486" lon="2.79745">
        <ele>208</ele>
        <time>2022-06-22T05:54:47.000Z</time>
      </trkpt>
      <trkpt lat="46.80484" lon="2.79742">
        <ele>208</ele>
        <time>2022-06-22T05:54:48.000Z</time>
      </trkpt>
      <trkpt lat="46.80475" lon="2.79738">
        <ele>207.60000610352</ele>
        <time>2022-06-22T05:54:50.000Z</time>
      </trkpt>
      <trkpt lat="46.80464" lon="2.79734">
        <ele>206.80000305176</ele>
        <time>2022-06-22T05:54:52.000Z</time>
      </trkpt>
      <trkpt lat="46.80453" lon="2.79724">
        <ele>205.80000305176</ele>
        <time>2022-06-22T05:54:54.000Z</time>
      </trkpt>
      <trkpt lat="46.80448" lon="2.79716">
        <ele>205.39999389648</ele>
        <time>2022-06-22T05:54:55.000Z</time>
      </trkpt>
      <trkpt lat="46.80444" lon="2.79707">
        <ele>204.80000305176</ele>
        <time>2022-06-22T05:54:56.000Z</time>
      </trkpt>
      <trkpt lat="46.80439" lon="2.79687">
        <ele>204.39999389648</ele>
        <time>2022-06-22T05:54:58.000Z</time>
      </trkpt>
      <trkpt lat="46.80437" lon="2.79677">
        <ele>204.39999389648</ele>
        <time>2022-06-22T05:54:59.000Z</time>
      </trkpt>
      <trkpt lat="46.80434" lon="2.79644">
        <ele>204.39999389648</ele>
        <time>2022-06-22T05:55:02.000Z</time>
      </trkpt>
      <trkpt lat="46.80427" lon="2.79564">
        <ele>203.19999694824</ele>
        <time>2022-06-22T05:55:09.000Z</time>
      </trkpt>
      <trkpt lat="46.80426" lon="2.79552">
        <ele>203.60000610352</ele>
        <time>2022-06-22T05:55:10.000Z</time>
      </trkpt>
      <trkpt lat="46.80424" lon="2.79528">
        <ele>203.60000610352</ele>
        <time>2022-06-22T05:55:12.000Z</time>
      </trkpt>
      <trkpt lat="46.8042" lon="2.79481">
        <ele>202.60000610352</ele>
        <time>2022-06-22T05:55:16.000Z</time>
      </trkpt>
      <trkpt lat="46.80419" lon="2.7947">
        <ele>202.60000610352</ele>
        <time>2022-06-22T05:55:17.000Z</time>
      </trkpt>
      <trkpt lat="46.80413" lon="2.79407">
        <ele>201</ele>
        <time>2022-06-22T05:55:23.000Z</time>
      </trkpt>
      <trkpt lat="46.80412" lon="2.79397">
        <ele>200.60000610352</ele>
        <time>2022-06-22T05:55:24.000Z</time>
      </trkpt>
      <trkpt lat="46.80402" lon="2.79329">
        <ele>200.19999694824</ele>
        <time>2022-06-22T05:55:31.000Z</time>
      </trkpt>
      <trkpt lat="46.80393" lon="2.793">
        <ele>199.60000610352</ele>
        <time>2022-06-22T05:55:34.000Z</time>
      </trkpt>
      <trkpt lat="46.80383" lon="2.79283">
        <ele>199</ele>
        <time>2022-06-22T05:55:36.000Z</time>
      </trkpt>
      <trkpt lat="46.80353" lon="2.79251">
        <ele>198.60000610352</ele>
        <time>2022-06-22T05:55:41.000Z</time>
      </trkpt>
      <trkpt lat="46.80313" lon="2.79209">
        <ele>201</ele>
        <time>2022-06-22T05:55:48.000Z</time>
      </trkpt>
      <trkpt lat="46.80289" lon="2.79175">
        <ele>200.80000305176</ele>
        <time>2022-06-22T05:55:53.000Z</time>
      </trkpt>
      <trkpt lat="46.80248" lon="2.79115">
        <ele>201.80000305176</ele>
        <time>2022-06-22T05:56:02.000Z</time>
      </trkpt>
      <trkpt lat="46.80244" lon="2.79109">
        <ele>202</ele>
        <time>2022-06-22T05:56:03.000Z</time>
      </trkpt>
      <trkpt lat="46.80226" lon="2.79083">
        <ele>202.80000305176</ele>
        <time>2022-06-22T05:56:07.000Z</time>
      </trkpt>
      <trkpt lat="46.80203" lon="2.7905">
        <ele>202.39999389648</ele>
        <time>2022-06-22T05:56:12.000Z</time>
      </trkpt>
      <trkpt lat="46.80164" lon="2.7899">
        <ele>202</ele>
        <time>2022-06-22T05:56:21.000Z</time>
      </trkpt>
      <trkpt lat="46.80159" lon="2.78984">
        <ele>202</ele>
        <time>2022-06-22T05:56:22.000Z</time>
      </trkpt>
      <trkpt lat="46.80119" lon="2.78921">
        <ele>201.80000305176</ele>
        <time>2022-06-22T05:56:31.000Z</time>
      </trkpt>
      <trkpt lat="46.80116" lon="2.78915">
        <ele>201.80000305176</ele>
        <time>2022-06-22T05:56:32.000Z</time>
      </trkpt>
      <trkpt lat="46.80096" lon="2.78878">
        <ele>202.60000610352</ele>
        <time>2022-06-22T05:56:37.000Z</time>
      </trkpt>
      <trkpt lat="46.80082" lon="2.78847">
        <ele>202.19999694824</ele>
        <time>2022-06-22T05:56:41.000Z</time>
      </trkpt>
      <trkpt lat="46.8006" lon="2.78784">
        <ele>200</ele>
        <time>2022-06-22T05:56:48.000Z</time>
      </trkpt>
      <trkpt lat="46.80035" lon="2.78709">
        <ele>199</ele>
        <time>2022-06-22T05:56:56.000Z</time>
      </trkpt>
      <trkpt lat="46.80032" lon="2.78702">
        <ele>199.19999694824</ele>
        <time>2022-06-22T05:56:57.000Z</time>
      </trkpt>
      <trkpt lat="46.80028" lon="2.78693">
        <ele>199.19999694824</ele>
        <time>2022-06-22T05:56:58.000Z</time>
      </trkpt>
      <trkpt lat="46.80006" lon="2.78645">
        <ele>200</ele>
        <time>2022-06-22T05:57:03.000Z</time>
      </trkpt>
      <trkpt lat="46.79991" lon="2.78609">
        <ele>200</ele>
        <time>2022-06-22T05:57:07.000Z</time>
      </trkpt>
      <trkpt lat="46.79971" lon="2.78561">
        <ele>198.39999389648</ele>
        <time>2022-06-22T05:57:13.000Z</time>
      </trkpt>
      <trkpt lat="46.79947" lon="2.78496">
        <ele>199.19999694824</ele>
        <time>2022-06-22T05:57:21.000Z</time>
      </trkpt>
      <trkpt lat="46.79932" lon="2.78439">
        <ele>199.60000610352</ele>
        <time>2022-06-22T05:57:28.000Z</time>
      </trkpt>
      <trkpt lat="46.79933" lon="2.78396">
        <ele>200.39999389648</ele>
        <time>2022-06-22T05:57:33.000Z</time>
      </trkpt>
      <trkpt lat="46.79935" lon="2.78371">
        <ele>200.19999694824</ele>
        <time>2022-06-22T05:57:36.000Z</time>
      </trkpt>
      <trkpt lat="46.79935" lon="2.78336">
        <ele>201.19999694824</ele>
        <time>2022-06-22T05:57:40.000Z</time>
      </trkpt>
      <trkpt lat="46.79926" lon="2.78281">
        <ele>200</ele>
        <time>2022-06-22T05:57:46.000Z</time>
      </trkpt>
      <trkpt lat="46.7991" lon="2.78247">
        <ele>199.60000610352</ele>
        <time>2022-06-22T05:57:50.000Z</time>
      </trkpt>
      <trkpt lat="46.79906" lon="2.78239">
        <ele>199.39999389648</ele>
        <time>2022-06-22T05:57:51.000Z</time>
      </trkpt>
      <trkpt lat="46.79902" lon="2.7823">
        <ele>199</ele>
        <time>2022-06-22T05:57:52.000Z</time>
      </trkpt>
      <trkpt lat="46.79891" lon="2.78193">
        <ele>198.80000305176</ele>
        <time>2022-06-22T05:57:56.000Z</time>
      </trkpt>
      <trkpt lat="46.79882" lon="2.78123">
        <ele>197</ele>
        <time>2022-06-22T05:58:03.000Z</time>
      </trkpt>
      <trkpt lat="46.79881" lon="2.78081">
        <ele>196.19999694824</ele>
        <time>2022-06-22T05:58:07.000Z</time>
      </trkpt>
      <trkpt lat="46.79879" lon="2.7805">
        <ele>195.60000610352</ele>
        <time>2022-06-22T05:58:10.000Z</time>
      </trkpt>
      <trkpt lat="46.79878" lon="2.78028">
        <ele>195.60000610352</ele>
        <time>2022-06-22T05:58:12.000Z</time>
      </trkpt>
      <trkpt lat="46.79876" lon="2.77983">
        <ele>195</ele>
        <time>2022-06-22T05:58:16.000Z</time>
      </trkpt>
      <trkpt lat="46.79875" lon="2.77972">
        <ele>195</ele>
        <time>2022-06-22T05:58:17.000Z</time>
      </trkpt>
      <trkpt lat="46.79863" lon="2.77924">
        <ele>195</ele>
        <time>2022-06-22T05:58:22.000Z</time>
      </trkpt>
      <trkpt lat="46.79848" lon="2.77879">
        <ele>195.80000305176</ele>
        <time>2022-06-22T05:58:27.000Z</time>
      </trkpt>
      <trkpt lat="46.79832" lon="2.77819">
        <ele>197.80000305176</ele>
        <time>2022-06-22T05:58:34.000Z</time>
      </trkpt>
      <trkpt lat="46.79824" lon="2.77795">
        <ele>198.60000610352</ele>
        <time>2022-06-22T05:58:37.000Z</time>
      </trkpt>
      <trkpt lat="46.79815" lon="2.77771">
        <ele>199</ele>
        <time>2022-06-22T05:58:40.000Z</time>
      </trkpt>
      <trkpt lat="46.79791" lon="2.77715">
        <ele>197.80000305176</ele>
        <time>2022-06-22T05:58:47.000Z</time>
      </trkpt>
      <trkpt lat="46.79756" lon="2.77649">
        <ele>198</ele>
        <time>2022-06-22T05:58:56.000Z</time>
      </trkpt>
      <trkpt lat="46.79751" lon="2.77643">
        <ele>198.19999694824</ele>
        <time>2022-06-22T05:58:57.000Z</time>
      </trkpt>
      <trkpt lat="46.79736" lon="2.77624">
        <ele>198.80000305176</ele>
        <time>2022-06-22T05:59:00.000Z</time>
      </trkpt>
      <trkpt lat="46.79723" lon="2.77605">
        <ele>199.19999694824</ele>
        <time>2022-06-22T05:59:03.000Z</time>
      </trkpt>
      <trkpt lat="46.79714" lon="2.77593">
        <ele>199.60000610352</ele>
        <time>2022-06-22T05:59:05.000Z</time>
      </trkpt>
      <trkpt lat="46.79705" lon="2.77582">
        <ele>200</ele>
        <time>2022-06-22T05:59:07.000Z</time>
      </trkpt>
      <trkpt lat="46.797" lon="2.77576">
        <ele>200</ele>
        <time>2022-06-22T05:59:08.000Z</time>
      </trkpt>
      <trkpt lat="46.7967" lon="2.77532">
        <ele>199.80000305176</ele>
        <time>2022-06-22T05:59:15.000Z</time>
      </trkpt>
      <trkpt lat="46.79652" lon="2.77507">
        <ele>199</ele>
        <time>2022-06-22T05:59:19.000Z</time>
      </trkpt>
      <trkpt lat="46.79616" lon="2.77453">
        <ele>198</ele>
        <time>2022-06-22T05:59:27.000Z</time>
      </trkpt>
      <trkpt lat="46.7958" lon="2.77394">
        <ele>198</ele>
        <time>2022-06-22T05:59:35.000Z</time>
      </trkpt>
      <trkpt lat="46.79562" lon="2.77349">
        <ele>198.80000305176</ele>
        <time>2022-06-22T05:59:40.000Z</time>
      </trkpt>
      <trkpt lat="46.79558" lon="2.7734">
        <ele>198.60000610352</ele>
        <time>2022-06-22T05:59:41.000Z</time>
      </trkpt>
      <trkpt lat="46.79539" lon="2.7727">
        <ele>195.60000610352</ele>
        <time>2022-06-22T05:59:49.000Z</time>
      </trkpt>
      <trkpt lat="46.79518" lon="2.77193">
        <ele>194.60000610352</ele>
        <time>2022-06-22T05:59:58.000Z</time>
      </trkpt>
      <trkpt lat="46.79502" lon="2.77119">
        <ele>195.80000305176</ele>
        <time>2022-06-22T06:00:06.000Z</time>
      </trkpt>
      <trkpt lat="46.79493" lon="2.77064">
        <ele>195.39999389648</ele>
        <time>2022-06-22T06:00:12.000Z</time>
      </trkpt>
      <trkpt lat="46.79491" lon="2.76992">
        <ele>196</ele>
        <time>2022-06-22T06:00:20.000Z</time>
      </trkpt>
      <trkpt lat="46.7949" lon="2.76983">
        <ele>196.19999694824</ele>
        <time>2022-06-22T06:00:21.000Z</time>
      </trkpt>
      <trkpt lat="46.79485" lon="2.76938">
        <ele>195.60000610352</ele>
        <time>2022-06-22T06:00:26.000Z</time>
      </trkpt>
      <trkpt lat="46.79471" lon="2.76861">
        <ele>194.60000610352</ele>
        <time>2022-06-22T06:00:34.000Z</time>
      </trkpt>
      <trkpt lat="46.7947" lon="2.76851">
        <ele>194.60000610352</ele>
        <time>2022-06-22T06:00:35.000Z</time>
      </trkpt>
      <trkpt lat="46.79468" lon="2.76841">
        <ele>194.60000610352</ele>
        <time>2022-06-22T06:00:36.000Z</time>
      </trkpt>
      <trkpt lat="46.79456" lon="2.76769">
        <ele>193.60000610352</ele>
        <time>2022-06-22T06:00:43.000Z</time>
      </trkpt>
      <trkpt lat="46.79455" lon="2.76758">
        <ele>193.19999694824</ele>
        <time>2022-06-22T06:00:44.000Z</time>
      </trkpt>
      <trkpt lat="46.79451" lon="2.76701">
        <ele>191</ele>
        <time>2022-06-22T06:00:49.000Z</time>
      </trkpt>
      <trkpt lat="46.7945" lon="2.76678">
        <ele>191</ele>
        <time>2022-06-22T06:00:51.000Z</time>
      </trkpt>
      <trkpt lat="46.79446" lon="2.76644">
        <ele>190.60000610352</ele>
        <time>2022-06-22T06:00:54.000Z</time>
      </trkpt>
      <trkpt lat="46.7944" lon="2.76595">
        <ele>190</ele>
        <time>2022-06-22T06:00:58.000Z</time>
      </trkpt>
      <trkpt lat="46.79438" lon="2.76582">
        <ele>190</ele>
        <time>2022-06-22T06:00:59.000Z</time>
      </trkpt>
      <trkpt lat="46.79434" lon="2.76556">
        <ele>189</ele>
        <time>2022-06-22T06:01:01.000Z</time>
      </trkpt>
      <trkpt lat="46.79429" lon="2.76531">
        <ele>188.19999694824</ele>
        <time>2022-06-22T06:01:03.000Z</time>
      </trkpt>
      <trkpt lat="46.79424" lon="2.76519">
        <ele>187.39999389648</ele>
        <time>2022-06-22T06:01:04.000Z</time>
      </trkpt>
      <trkpt lat="46.79413" lon="2.765">
        <ele>186.60000610352</ele>
        <time>2022-06-22T06:01:06.000Z</time>
      </trkpt>
      <trkpt lat="46.79398" lon="2.76486">
        <ele>186</ele>
        <time>2022-06-22T06:01:08.000Z</time>
      </trkpt>
      <trkpt lat="46.79384" lon="2.76475">
        <ele>186.19999694824</ele>
        <time>2022-06-22T06:01:10.000Z</time>
      </trkpt>
      <trkpt lat="46.79362" lon="2.7646">
        <ele>186.60000610352</ele>
        <time>2022-06-22T06:01:13.000Z</time>
      </trkpt>
      <trkpt lat="46.79342" lon="2.76447">
        <ele>187</ele>
        <time>2022-06-22T06:01:16.000Z</time>
      </trkpt>
      <trkpt lat="46.79307" lon="2.76422">
        <ele>188.39999389648</ele>
        <time>2022-06-22T06:01:22.000Z</time>
      </trkpt>
      <trkpt lat="46.79301" lon="2.76418">
        <ele>188.60000610352</ele>
        <time>2022-06-22T06:01:23.000Z</time>
      </trkpt>
      <trkpt lat="46.79291" lon="2.76412">
        <ele>189.19999694824</ele>
        <time>2022-06-22T06:01:25.000Z</time>
      </trkpt>
      <trkpt lat="46.7928" lon="2.76404">
        <ele>189.39999389648</ele>
        <time>2022-06-22T06:01:27.000Z</time>
      </trkpt>
      <trkpt lat="46.79264" lon="2.76393">
        <ele>189.19999694824</ele>
        <time>2022-06-22T06:01:30.000Z</time>
      </trkpt>
      <trkpt lat="46.79247" lon="2.76382">
        <ele>189.19999694824</ele>
        <time>2022-06-22T06:01:33.000Z</time>
      </trkpt>
      <trkpt lat="46.79226" lon="2.76367">
        <ele>189.19999694824</ele>
        <time>2022-06-22T06:01:37.000Z</time>
      </trkpt>
      <trkpt lat="46.79194" lon="2.76345">
        <ele>190.80000305176</ele>
        <time>2022-06-22T06:01:43.000Z</time>
      </trkpt>
      <trkpt lat="46.79178" lon="2.76333">
        <ele>191</ele>
        <time>2022-06-22T06:01:46.000Z</time>
      </trkpt>
      <trkpt lat="46.79158" lon="2.76313">
        <ele>191</ele>
        <time>2022-06-22T06:01:50.000Z</time>
      </trkpt>
      <trkpt lat="46.79125" lon="2.76267">
        <ele>192</ele>
        <time>2022-06-22T06:01:57.000Z</time>
      </trkpt>
      <trkpt lat="46.7909" lon="2.76205">
        <ele>191</ele>
        <time>2022-06-22T06:02:05.000Z</time>
      </trkpt>
      <trkpt lat="46.79087" lon="2.76199">
        <ele>190.80000305176</ele>
        <time>2022-06-22T06:02:06.000Z</time>
      </trkpt>
      <trkpt lat="46.79046" lon="2.76137">
        <ele>191</ele>
        <time>2022-06-22T06:02:15.000Z</time>
      </trkpt>
      <trkpt lat="46.79006" lon="2.76074">
        <ele>192</ele>
        <time>2022-06-22T06:02:24.000Z</time>
      </trkpt>
      <trkpt lat="46.78966" lon="2.76006">
        <ele>190</ele>
        <time>2022-06-22T06:02:33.000Z</time>
      </trkpt>
      <trkpt lat="46.78962" lon="2.76">
        <ele>189.80000305176</ele>
        <time>2022-06-22T06:02:34.000Z</time>
      </trkpt>
      <trkpt lat="46.78934" lon="2.75952">
        <ele>187.60000610352</ele>
        <time>2022-06-22T06:02:40.000Z</time>
      </trkpt>
      <trkpt lat="46.78921" lon="2.75924">
        <ele>186.80000305176</ele>
        <time>2022-06-22T06:02:43.000Z</time>
      </trkpt>
      <trkpt lat="46.78911" lon="2.75891">
        <ele>186</ele>
        <time>2022-06-22T06:02:46.000Z</time>
      </trkpt>
      <trkpt lat="46.78906" lon="2.75868">
        <ele>185.60000610352</ele>
        <time>2022-06-22T06:02:48.000Z</time>
      </trkpt>
      <trkpt lat="46.78901" lon="2.75843">
        <ele>185.19999694824</ele>
        <time>2022-06-22T06:02:50.000Z</time>
      </trkpt>
      <trkpt lat="46.78891" lon="2.75796">
        <ele>184.80000305176</ele>
        <time>2022-06-22T06:02:54.000Z</time>
      </trkpt>
      <trkpt lat="46.78887" lon="2.75786">
        <ele>185.39999389648</ele>
        <time>2022-06-22T06:02:55.000Z</time>
      </trkpt>
      <trkpt lat="46.78869" lon="2.75748">
        <ele>184.60000610352</ele>
        <time>2022-06-22T06:02:59.000Z</time>
      </trkpt>
      <trkpt lat="46.78849" lon="2.75701">
        <ele>184.39999389648</ele>
        <time>2022-06-22T06:03:04.000Z</time>
      </trkpt>
      <trkpt lat="46.78847" lon="2.75691">
        <ele>184.60000610352</ele>
        <time>2022-06-22T06:03:05.000Z</time>
      </trkpt>
      <trkpt lat="46.78841" lon="2.7564">
        <ele>185</ele>
        <time>2022-06-22T06:03:10.000Z</time>
      </trkpt>
      <trkpt lat="46.78838" lon="2.75559">
        <ele>186.19999694824</ele>
        <time>2022-06-22T06:03:18.000Z</time>
      </trkpt>
      <trkpt lat="46.78838" lon="2.7555">
        <ele>186.39999389648</ele>
        <time>2022-06-22T06:03:19.000Z</time>
      </trkpt>
      <trkpt lat="46.7884" lon="2.7553">
        <ele>187.19999694824</ele>
        <time>2022-06-22T06:03:21.000Z</time>
      </trkpt>
      <trkpt lat="46.78846" lon="2.75501">
        <ele>188.19999694824</ele>
        <time>2022-06-22T06:03:24.000Z</time>
      </trkpt>
      <trkpt lat="46.78864" lon="2.75427">
        <ele>186.19999694824</ele>
        <time>2022-06-22T06:03:32.000Z</time>
      </trkpt>
      <trkpt lat="46.78874" lon="2.75384">
        <ele>186.39999389648</ele>
        <time>2022-06-22T06:03:37.000Z</time>
      </trkpt>
      <trkpt lat="46.78882" lon="2.75348">
        <ele>187</ele>
        <time>2022-06-22T06:03:41.000Z</time>
      </trkpt>
      <trkpt lat="46.78889" lon="2.75303">
        <ele>186.39999389648</ele>
        <time>2022-06-22T06:03:46.000Z</time>
      </trkpt>
      <trkpt lat="46.7889" lon="2.75284">
        <ele>186.60000610352</ele>
        <time>2022-06-22T06:03:48.000Z</time>
      </trkpt>
      <trkpt lat="46.78889" lon="2.75206">
        <ele>185.19999694824</ele>
        <time>2022-06-22T06:03:56.000Z</time>
      </trkpt>
      <trkpt lat="46.78881" lon="2.7516">
        <ele>185.60000610352</ele>
        <time>2022-06-22T06:04:01.000Z</time>
      </trkpt>
      <trkpt lat="46.7886" lon="2.75113">
        <ele>187</ele>
        <time>2022-06-22T06:04:07.000Z</time>
      </trkpt>
      <trkpt lat="46.78829" lon="2.75048">
        <ele>187.39999389648</ele>
        <time>2022-06-22T06:04:15.000Z</time>
      </trkpt>
      <trkpt lat="46.78825" lon="2.7504">
        <ele>187.60000610352</ele>
        <time>2022-06-22T06:04:16.000Z</time>
      </trkpt>
      <trkpt lat="46.78803" lon="2.74981">
        <ele>187</ele>
        <time>2022-06-22T06:04:23.000Z</time>
      </trkpt>
      <trkpt lat="46.78795" lon="2.74945">
        <ele>186.39999389648</ele>
        <time>2022-06-22T06:04:27.000Z</time>
      </trkpt>
      <trkpt lat="46.78789" lon="2.74915">
        <ele>185.60000610352</ele>
        <time>2022-06-22T06:04:30.000Z</time>
      </trkpt>
      <trkpt lat="46.78776" lon="2.74858">
        <ele>184.19999694824</ele>
        <time>2022-06-22T06:04:36.000Z</time>
      </trkpt>
      <trkpt lat="46.78769" lon="2.74825">
        <ele>182</ele>
        <time>2022-06-22T06:04:39.000Z</time>
      </trkpt>
      <trkpt lat="46.78765" lon="2.74806">
        <ele>181</ele>
        <time>2022-06-22T06:04:41.000Z</time>
      </trkpt>
      <trkpt lat="46.78754" lon="2.74753">
        <ele>180.19999694824</ele>
        <time>2022-06-22T06:04:46.000Z</time>
      </trkpt>
      <trkpt lat="46.78751" lon="2.74742">
        <ele>180.60000610352</ele>
        <time>2022-06-22T06:04:47.000Z</time>
      </trkpt>
      <trkpt lat="46.78731" lon="2.74681">
        <ele>181</ele>
        <time>2022-06-22T06:04:53.000Z</time>
      </trkpt>
      <trkpt lat="46.78727" lon="2.74671">
        <ele>181</ele>
        <time>2022-06-22T06:04:54.000Z</time>
      </trkpt>
      <trkpt lat="46.78698" lon="2.74611">
        <ele>181</ele>
        <time>2022-06-22T06:05:01.000Z</time>
      </trkpt>
      <trkpt lat="46.78694" lon="2.74602">
        <ele>181</ele>
        <time>2022-06-22T06:05:02.000Z</time>
      </trkpt>
      <trkpt lat="46.78687" lon="2.74581">
        <ele>181</ele>
        <time>2022-06-22T06:05:04.000Z</time>
      </trkpt>
      <trkpt lat="46.78684" lon="2.74563">
        <ele>181</ele>
        <time>2022-06-22T06:05:06.000Z</time>
      </trkpt>
      <trkpt lat="46.78684" lon="2.74541">
        <ele>180.19999694824</ele>
        <time>2022-06-22T06:05:08.000Z</time>
      </trkpt>
      <trkpt lat="46.78686" lon="2.74531">
        <ele>180</ele>
        <time>2022-06-22T06:05:09.000Z</time>
      </trkpt>
      <trkpt lat="46.78688" lon="2.74524">
        <ele>180</ele>
        <time>2022-06-22T06:05:10.000Z</time>
      </trkpt>
      <trkpt lat="46.78698" lon="2.74497">
        <ele>180.39999389648</ele>
        <time>2022-06-22T06:05:13.000Z</time>
      </trkpt>
      <trkpt lat="46.78715" lon="2.7445">
        <ele>181.60000610352</ele>
        <time>2022-06-22T06:05:19.000Z</time>
      </trkpt>
      <trkpt lat="46.78735" lon="2.74379">
        <ele>181.80000305176</ele>
        <time>2022-06-22T06:05:27.000Z</time>
      </trkpt>
      <trkpt lat="46.78758" lon="2.74299">
        <ele>180.60000610352</ele>
        <time>2022-06-22T06:05:36.000Z</time>
      </trkpt>
      <trkpt lat="46.78761" lon="2.74289">
        <ele>180</ele>
        <time>2022-06-22T06:05:37.000Z</time>
      </trkpt>
      <trkpt lat="46.78782" lon="2.74251">
        <ele>180</ele>
        <time>2022-06-22T06:05:42.000Z</time>
      </trkpt>
      <trkpt lat="46.78802" lon="2.74227">
        <ele>180</ele>
        <time>2022-06-22T06:05:46.000Z</time>
      </trkpt>
      <trkpt lat="46.78811" lon="2.7421">
        <ele>180</ele>
        <time>2022-06-22T06:05:48.000Z</time>
      </trkpt>
      <trkpt lat="46.78819" lon="2.74184">
        <ele>179.19999694824</ele>
        <time>2022-06-22T06:05:51.000Z</time>
      </trkpt>
      <trkpt lat="46.78822" lon="2.74164">
        <ele>178.60000610352</ele>
        <time>2022-06-22T06:05:53.000Z</time>
      </trkpt>
      <trkpt lat="46.78834" lon="2.74077">
        <ele>179.19999694824</ele>
        <time>2022-06-22T06:06:02.000Z</time>
      </trkpt>
      <trkpt lat="46.78841" lon="2.74001">
        <ele>180</ele>
        <time>2022-06-22T06:06:10.000Z</time>
      </trkpt>
      <trkpt lat="46.78841" lon="2.73921">
        <ele>180</ele>
        <time>2022-06-22T06:06:18.000Z</time>
      </trkpt>
      <trkpt lat="46.78841" lon="2.73913">
        <ele>180</ele>
        <time>2022-06-22T06:06:19.000Z</time>
      </trkpt>
      <trkpt lat="46.78842" lon="2.73844">
        <ele>180.80000305176</ele>
        <time>2022-06-22T06:06:26.000Z</time>
      </trkpt>
      <trkpt lat="46.78847" lon="2.73805">
        <ele>182.80000305176</ele>
        <time>2022-06-22T06:06:30.000Z</time>
      </trkpt>
      <trkpt lat="46.7885" lon="2.73795">
        <ele>182.60000610352</ele>
        <time>2022-06-22T06:06:31.000Z</time>
      </trkpt>
      <trkpt lat="46.78873" lon="2.73739">
        <ele>180</ele>
        <time>2022-06-22T06:06:38.000Z</time>
      </trkpt>
      <trkpt lat="46.78901" lon="2.73675">
        <ele>178</ele>
        <time>2022-06-22T06:06:46.000Z</time>
      </trkpt>
      <trkpt lat="46.78932" lon="2.73601">
        <ele>178.80000305176</ele>
        <time>2022-06-22T06:06:55.000Z</time>
      </trkpt>
      <trkpt lat="46.78937" lon="2.73591">
        <ele>179</ele>
        <time>2022-06-22T06:06:56.000Z</time>
      </trkpt>
      <trkpt lat="46.78947" lon="2.73569">
        <ele>179.80000305176</ele>
        <time>2022-06-22T06:06:59.000Z</time>
      </trkpt>
      <trkpt lat="46.78962" lon="2.73538">
        <ele>181</ele>
        <time>2022-06-22T06:07:03.000Z</time>
      </trkpt>
      <trkpt lat="46.78967" lon="2.73531">
        <ele>181.19999694824</ele>
        <time>2022-06-22T06:07:04.000Z</time>
      </trkpt>
      <trkpt lat="46.78987" lon="2.73505">
        <ele>181</ele>
        <time>2022-06-22T06:07:08.000Z</time>
      </trkpt>
      <trkpt lat="46.7901" lon="2.73475">
        <ele>181</ele>
        <time>2022-06-22T06:07:13.000Z</time>
      </trkpt>
      <trkpt lat="46.79019" lon="2.7346">
        <ele>181.39999389648</ele>
        <time>2022-06-22T06:07:15.000Z</time>
      </trkpt>
      <trkpt lat="46.7904" lon="2.73415">
        <ele>180.60000610352</ele>
        <time>2022-06-22T06:07:21.000Z</time>
      </trkpt>
      <trkpt lat="46.79061" lon="2.73344">
        <ele>178.19999694824</ele>
        <time>2022-06-22T06:07:29.000Z</time>
      </trkpt>
      <trkpt lat="46.79085" lon="2.73265">
        <ele>178.39999389648</ele>
        <time>2022-06-22T06:07:38.000Z</time>
      </trkpt>
      <trkpt lat="46.79088" lon="2.73255">
        <ele>178.80000305176</ele>
        <time>2022-06-22T06:07:39.000Z</time>
      </trkpt>
      <trkpt lat="46.79112" lon="2.73182">
        <ele>179.80000305176</ele>
        <time>2022-06-22T06:07:47.000Z</time>
      </trkpt>
      <trkpt lat="46.79119" lon="2.73164">
        <ele>179.60000610352</ele>
        <time>2022-06-22T06:07:49.000Z</time>
      </trkpt>
      <trkpt lat="46.79142" lon="2.73117">
        <ele>179.60000610352</ele>
        <time>2022-06-22T06:07:55.000Z</time>
      </trkpt>
      <trkpt lat="46.79152" lon="2.73103">
        <ele>179.39999389648</ele>
        <time>2022-06-22T06:07:57.000Z</time>
      </trkpt>
      <trkpt lat="46.79186" lon="2.73054">
        <ele>176.80000305176</ele>
        <time>2022-06-22T06:08:04.000Z</time>
      </trkpt>
      <trkpt lat="46.79208" lon="2.73012">
        <ele>176.80000305176</ele>
        <time>2022-06-22T06:08:09.000Z</time>
      </trkpt>
      <trkpt lat="46.79214" lon="2.72994">
        <ele>177</ele>
        <time>2022-06-22T06:08:11.000Z</time>
      </trkpt>
      <trkpt lat="46.79219" lon="2.72975">
        <ele>177</ele>
        <time>2022-06-22T06:08:13.000Z</time>
      </trkpt>
      <trkpt lat="46.79223" lon="2.72956">
        <ele>177</ele>
        <time>2022-06-22T06:08:15.000Z</time>
      </trkpt>
      <trkpt lat="46.79236" lon="2.72887">
        <ele>178</ele>
        <time>2022-06-22T06:08:22.000Z</time>
      </trkpt>
      <trkpt lat="46.79243" lon="2.72819">
        <ele>178.19999694824</ele>
        <time>2022-06-22T06:08:29.000Z</time>
      </trkpt>
      <trkpt lat="46.79252" lon="2.72763">
        <ele>176</ele>
        <time>2022-06-22T06:08:35.000Z</time>
      </trkpt>
      <trkpt lat="46.79268" lon="2.727">
        <ele>177</ele>
        <time>2022-06-22T06:08:42.000Z</time>
      </trkpt>
      <trkpt lat="46.79274" lon="2.72647">
        <ele>179</ele>
        <time>2022-06-22T06:08:48.000Z</time>
      </trkpt>
      <trkpt lat="46.79278" lon="2.72604">
        <ele>178.80000305176</ele>
        <time>2022-06-22T06:08:53.000Z</time>
      </trkpt>
      <trkpt lat="46.7928" lon="2.72587">
        <ele>178.80000305176</ele>
        <time>2022-06-22T06:08:55.000Z</time>
      </trkpt>
      <trkpt lat="46.7929" lon="2.72508">
        <ele>180</ele>
        <time>2022-06-22T06:09:04.000Z</time>
      </trkpt>
      <trkpt lat="46.79292" lon="2.72499">
        <ele>180</ele>
        <time>2022-06-22T06:09:05.000Z</time>
      </trkpt>
      <trkpt lat="46.79304" lon="2.72425">
        <ele>180</ele>
        <time>2022-06-22T06:09:13.000Z</time>
      </trkpt>
      <trkpt lat="46.79314" lon="2.7237">
        <ele>182</ele>
        <time>2022-06-22T06:09:19.000Z</time>
      </trkpt>
      <trkpt lat="46.79317" lon="2.72361">
        <ele>182</ele>
        <time>2022-06-22T06:09:20.000Z</time>
      </trkpt>
      <trkpt lat="46.79323" lon="2.72344">
        <ele>181.80000305176</ele>
        <time>2022-06-22T06:09:22.000Z</time>
      </trkpt>
      <trkpt lat="46.79337" lon="2.72311">
        <ele>180.80000305176</ele>
        <time>2022-06-22T06:09:26.000Z</time>
      </trkpt>
      <trkpt lat="46.79361" lon="2.72279">
        <ele>180</ele>
        <time>2022-06-22T06:09:31.000Z</time>
      </trkpt>
      <trkpt lat="46.79405" lon="2.72239">
        <ele>179.60000610352</ele>
        <time>2022-06-22T06:09:39.000Z</time>
      </trkpt>
      <trkpt lat="46.79437" lon="2.72204">
        <ele>178.60000610352</ele>
        <time>2022-06-22T06:09:45.000Z</time>
      </trkpt>
      <trkpt lat="46.79483" lon="2.72146">
        <ele>179</ele>
        <time>2022-06-22T06:09:54.000Z</time>
      </trkpt>
      <trkpt lat="46.79488" lon="2.7214">
        <ele>179</ele>
        <time>2022-06-22T06:09:55.000Z</time>
      </trkpt>
      <trkpt lat="46.79531" lon="2.72083">
        <ele>181</ele>
        <time>2022-06-22T06:10:04.000Z</time>
      </trkpt>
      <trkpt lat="46.79576" lon="2.72025">
        <ele>180.19999694824</ele>
        <time>2022-06-22T06:10:13.000Z</time>
      </trkpt>
      <trkpt lat="46.7958" lon="2.72019">
        <ele>180</ele>
        <time>2022-06-22T06:10:14.000Z</time>
      </trkpt>
      <trkpt lat="46.79625" lon="2.71961">
        <ele>178.80000305176</ele>
        <time>2022-06-22T06:10:23.000Z</time>
      </trkpt>
      <trkpt lat="46.79643" lon="2.71936">
        <ele>178.80000305176</ele>
        <time>2022-06-22T06:10:27.000Z</time>
      </trkpt>
      <trkpt lat="46.79674" lon="2.71886">
        <ele>180.19999694824</ele>
        <time>2022-06-22T06:10:34.000Z</time>
      </trkpt>
      <trkpt lat="46.7971" lon="2.71819">
        <ele>182</ele>
        <time>2022-06-22T06:10:43.000Z</time>
      </trkpt>
      <trkpt lat="46.7973" lon="2.71781">
        <ele>181</ele>
        <time>2022-06-22T06:10:48.000Z</time>
      </trkpt>
      <trkpt lat="46.79749" lon="2.71745">
        <ele>181</ele>
        <time>2022-06-22T06:10:53.000Z</time>
      </trkpt>
      <trkpt lat="46.79784" lon="2.7168">
        <ele>182.80000305176</ele>
        <time>2022-06-22T06:11:02.000Z</time>
      </trkpt>
      <trkpt lat="46.79788" lon="2.71674">
        <ele>183</ele>
        <time>2022-06-22T06:11:03.000Z</time>
      </trkpt>
      <trkpt lat="46.79822" lon="2.71609">
        <ele>182.60000610352</ele>
        <time>2022-06-22T06:11:12.000Z</time>
      </trkpt>
      <trkpt lat="46.7985" lon="2.71562">
        <ele>182.80000305176</ele>
        <time>2022-06-22T06:11:19.000Z</time>
      </trkpt>
      <trkpt lat="46.7986" lon="2.71548">
        <ele>182.39999389648</ele>
        <time>2022-06-22T06:11:21.000Z</time>
      </trkpt>
      <trkpt lat="46.79871" lon="2.71537">
        <ele>182</ele>
        <time>2022-06-22T06:11:23.000Z</time>
      </trkpt>
      <trkpt lat="46.79876" lon="2.71534">
        <ele>181.80000305176</ele>
        <time>2022-06-22T06:11:24.000Z</time>
      </trkpt>
      <trkpt lat="46.79913" lon="2.71504">
        <ele>181.39999389648</ele>
        <time>2022-06-22T06:11:31.000Z</time>
      </trkpt>
      <trkpt lat="46.79962" lon="2.71467">
        <ele>182</ele>
        <time>2022-06-22T06:11:40.000Z</time>
      </trkpt>
      <trkpt lat="46.79994" lon="2.71444">
        <ele>181.19999694824</ele>
        <time>2022-06-22T06:11:46.000Z</time>
      </trkpt>
      <trkpt lat="46.80006" lon="2.71439">
        <ele>181</ele>
        <time>2022-06-22T06:11:48.000Z</time>
      </trkpt>
      <trkpt lat="46.80016" lon="2.71434">
        <ele>180.39999389648</ele>
        <time>2022-06-22T06:11:50.000Z</time>
      </trkpt>
      <trkpt lat="46.80041" lon="2.71418">
        <ele>179.80000305176</ele>
        <time>2022-06-22T06:11:55.000Z</time>
      </trkpt>
      <trkpt lat="46.80052" lon="2.71387">
        <ele>179.39999389648</ele>
        <time>2022-06-22T06:11:59.000Z</time>
      </trkpt>
      <trkpt lat="46.80057" lon="2.71373">
        <ele>179.19999694824</ele>
        <time>2022-06-22T06:12:01.000Z</time>
      </trkpt>
      <trkpt lat="46.80066" lon="2.71364">
        <ele>179</ele>
        <time>2022-06-22T06:12:03.000Z</time>
      </trkpt>
      <trkpt lat="46.80116" lon="2.71332">
        <ele>180</ele>
        <time>2022-06-22T06:12:12.000Z</time>
      </trkpt>
      <trkpt lat="46.80126" lon="2.71331">
        <ele>180</ele>
        <time>2022-06-22T06:12:14.000Z</time>
      </trkpt>
      <trkpt lat="46.80132" lon="2.71332">
        <ele>180</ele>
        <time>2022-06-22T06:12:15.000Z</time>
      </trkpt>
      <trkpt lat="46.8019" lon="2.71349">
        <ele>179.80000305176</ele>
        <time>2022-06-22T06:12:24.000Z</time>
      </trkpt>
      <trkpt lat="46.80195" lon="2.71352">
        <ele>179.80000305176</ele>
        <time>2022-06-22T06:12:25.000Z</time>
      </trkpt>
      <trkpt lat="46.8023" lon="2.71373">
        <ele>179.19999694824</ele>
        <time>2022-06-22T06:12:31.000Z</time>
      </trkpt>
      <trkpt lat="46.80237" lon="2.71377">
        <ele>179.19999694824</ele>
        <time>2022-06-22T06:12:32.000Z</time>
      </trkpt>
      <trkpt lat="46.80286" lon="2.7141">
        <ele>178</ele>
        <time>2022-06-22T06:12:40.000Z</time>
      </trkpt>
      <trkpt lat="46.80306" lon="2.71421">
        <ele>176.60000610352</ele>
        <time>2022-06-22T06:12:43.000Z</time>
      </trkpt>
      <trkpt lat="46.80318" lon="2.71424">
        <ele>176</ele>
        <time>2022-06-22T06:12:45.000Z</time>
      </trkpt>
      <trkpt lat="46.80342" lon="2.71424">
        <ele>175</ele>
        <time>2022-06-22T06:12:49.000Z</time>
      </trkpt>
      <trkpt lat="46.80347" lon="2.71423">
        <ele>175</ele>
        <time>2022-06-22T06:12:50.000Z</time>
      </trkpt>
      <trkpt lat="46.80366" lon="2.71414">
        <ele>175</ele>
        <time>2022-06-22T06:12:53.000Z</time>
      </trkpt>
      <trkpt lat="46.80377" lon="2.71403">
        <ele>175.19999694824</ele>
        <time>2022-06-22T06:12:55.000Z</time>
      </trkpt>
      <trkpt lat="46.80419" lon="2.71361">
        <ele>173.80000305176</ele>
        <time>2022-06-22T06:13:03.000Z</time>
      </trkpt>
      <trkpt lat="46.80431" lon="2.71352">
        <ele>172.60000610352</ele>
        <time>2022-06-22T06:13:05.000Z</time>
      </trkpt>
      <trkpt lat="46.80455" lon="2.71339">
        <ele>172</ele>
        <time>2022-06-22T06:13:09.000Z</time>
      </trkpt>
      <trkpt lat="46.80509" lon="2.71319">
        <ele>174</ele>
        <time>2022-06-22T06:13:18.000Z</time>
      </trkpt>
      <trkpt lat="46.80517" lon="2.71317">
        <ele>174.19999694824</ele>
        <time>2022-06-22T06:13:19.000Z</time>
      </trkpt>
      <trkpt lat="46.80571" lon="2.71297">
        <ele>173.39999389648</ele>
        <time>2022-06-22T06:13:28.000Z</time>
      </trkpt>
      <trkpt lat="46.80616" lon="2.71283">
        <ele>174</ele>
        <time>2022-06-22T06:13:35.000Z</time>
      </trkpt>
      <trkpt lat="46.80624" lon="2.71275">
        <ele>174.19999694824</ele>
        <time>2022-06-22T06:13:37.000Z</time>
      </trkpt>
      <trkpt lat="46.80628" lon="2.71268">
        <ele>174.19999694824</ele>
        <time>2022-06-22T06:13:38.000Z</time>
      </trkpt>
      <trkpt lat="46.8063" lon="2.71257">
        <ele>174.39999389648</ele>
        <time>2022-06-22T06:13:39.000Z</time>
      </trkpt>
      <trkpt lat="46.8063" lon="2.71238">
        <ele>174.39999389648</ele>
        <time>2022-06-22T06:13:41.000Z</time>
      </trkpt>
      <trkpt lat="46.80621" lon="2.71192">
        <ele>174</ele>
        <time>2022-06-22T06:13:46.000Z</time>
      </trkpt>
      <trkpt lat="46.80613" lon="2.71156">
        <ele>174.19999694824</ele>
        <time>2022-06-22T06:13:50.000Z</time>
      </trkpt>
      <trkpt lat="46.80607" lon="2.7113">
        <ele>174.60000610352</ele>
        <time>2022-06-22T06:13:53.000Z</time>
      </trkpt>
      <trkpt lat="46.8059" lon="2.71047">
        <ele>176.19999694824</ele>
        <time>2022-06-22T06:14:02.000Z</time>
      </trkpt>
      <trkpt lat="46.80588" lon="2.71038">
        <ele>176.39999389648</ele>
        <time>2022-06-22T06:14:03.000Z</time>
      </trkpt>
      <trkpt lat="46.80586" lon="2.7103">
        <ele>176.39999389648</ele>
        <time>2022-06-22T06:14:04.000Z</time>
      </trkpt>
      <trkpt lat="46.80575" lon="2.70976">
        <ele>175.19999694824</ele>
        <time>2022-06-22T06:14:10.000Z</time>
      </trkpt>
      <trkpt lat="46.80571" lon="2.70949">
        <ele>174.60000610352</ele>
        <time>2022-06-22T06:14:13.000Z</time>
      </trkpt>
      <trkpt lat="46.80568" lon="2.70913">
        <ele>175.39999389648</ele>
        <time>2022-06-22T06:14:17.000Z</time>
      </trkpt>
      <trkpt lat="46.80566" lon="2.7084">
        <ele>177</ele>
        <time>2022-06-22T06:14:25.000Z</time>
      </trkpt>
      <trkpt lat="46.80564" lon="2.70794">
        <ele>176.39999389648</ele>
        <time>2022-06-22T06:14:30.000Z</time>
      </trkpt>
      <trkpt lat="46.80568" lon="2.70759">
        <ele>176.19999694824</ele>
        <time>2022-06-22T06:14:34.000Z</time>
      </trkpt>
      <trkpt lat="46.80576" lon="2.70729">
        <ele>176.80000305176</ele>
        <time>2022-06-22T06:14:38.000Z</time>
      </trkpt>
      <trkpt lat="46.80579" lon="2.70722">
        <ele>177.19999694824</ele>
        <time>2022-06-22T06:14:39.000Z</time>
      </trkpt>
      <trkpt lat="46.80586" lon="2.70707">
        <ele>178.39999389648</ele>
        <time>2022-06-22T06:14:41.000Z</time>
      </trkpt>
      <trkpt lat="46.80597" lon="2.7069">
        <ele>179.80000305176</ele>
        <time>2022-06-22T06:14:44.000Z</time>
      </trkpt>
      <trkpt lat="46.80612" lon="2.70666">
        <ele>181.39999389648</ele>
        <time>2022-06-22T06:14:48.000Z</time>
      </trkpt>
      <trkpt lat="46.80625" lon="2.70647">
        <ele>182</ele>
        <time>2022-06-22T06:14:51.000Z</time>
      </trkpt>
      <trkpt lat="46.80632" lon="2.70637">
        <ele>182</ele>
        <time>2022-06-22T06:14:53.000Z</time>
      </trkpt>
      <trkpt lat="46.80641" lon="2.70626">
        <ele>182</ele>
        <time>2022-06-22T06:14:55.000Z</time>
      </trkpt>
      <trkpt lat="46.80646" lon="2.7062">
        <ele>182</ele>
        <time>2022-06-22T06:14:56.000Z</time>
      </trkpt>
      <trkpt lat="46.80657" lon="2.7061">
        <ele>182.39999389648</ele>
        <time>2022-06-22T06:14:58.000Z</time>
      </trkpt>
      <trkpt lat="46.80682" lon="2.70589">
        <ele>183.19999694824</ele>
        <time>2022-06-22T06:15:03.000Z</time>
      </trkpt>
      <trkpt lat="46.80702" lon="2.70573">
        <ele>183.39999389648</ele>
        <time>2022-06-22T06:15:07.000Z</time>
      </trkpt>
      <trkpt lat="46.80751" lon="2.70532">
        <ele>184</ele>
        <time>2022-06-22T06:15:16.000Z</time>
      </trkpt>
      <trkpt lat="46.80756" lon="2.70527">
        <ele>183.80000305176</ele>
        <time>2022-06-22T06:15:17.000Z</time>
      </trkpt>
      <trkpt lat="46.80807" lon="2.70487">
        <ele>184</ele>
        <time>2022-06-22T06:15:26.000Z</time>
      </trkpt>
      <trkpt lat="46.80818" lon="2.70478">
        <ele>184</ele>
        <time>2022-06-22T06:15:28.000Z</time>
      </trkpt>
      <trkpt lat="46.80838" lon="2.70458">
        <ele>184</ele>
        <time>2022-06-22T06:15:32.000Z</time>
      </trkpt>
      <trkpt lat="46.80846" lon="2.70445">
        <ele>184.19999694824</ele>
        <time>2022-06-22T06:15:34.000Z</time>
      </trkpt>
      <trkpt lat="46.80853" lon="2.70429">
        <ele>184.39999389648</ele>
        <time>2022-06-22T06:15:36.000Z</time>
      </trkpt>
      <trkpt lat="46.80864" lon="2.70398">
        <ele>184.80000305176</ele>
        <time>2022-06-22T06:15:40.000Z</time>
      </trkpt>
      <trkpt lat="46.80871" lon="2.70374">
        <ele>185</ele>
        <time>2022-06-22T06:15:42.000Z</time>
      </trkpt>
      <trkpt lat="46.80893" lon="2.70304">
        <ele>183.39999389648</ele>
        <time>2022-06-22T06:15:51.000Z</time>
      </trkpt>
      <trkpt lat="46.80914" lon="2.70234">
        <ele>183.39999389648</ele>
        <time>2022-06-22T06:16:00.000Z</time>
      </trkpt>
      <trkpt lat="46.80932" lon="2.70181">
        <ele>186.19999694824</ele>
        <time>2022-06-22T06:16:07.000Z</time>
      </trkpt>
      <trkpt lat="46.8094" lon="2.70159">
        <ele>187</ele>
        <time>2022-06-22T06:16:10.000Z</time>
      </trkpt>
      <trkpt lat="46.80946" lon="2.70147">
        <ele>188.39999389648</ele>
        <time>2022-06-22T06:16:13.000Z</time>
      </trkpt>
      <trkpt lat="46.80954" lon="2.70136">
        <ele>189.39999389648</ele>
        <time>2022-06-22T06:16:14.000Z</time>
      </trkpt>
      <trkpt lat="46.80969" lon="2.7012">
        <ele>191</ele>
        <time>2022-06-22T06:16:18.000Z</time>
      </trkpt>
      <trkpt lat="46.80973" lon="2.70116">
        <ele>191.39999389648</ele>
        <time>2022-06-22T06:16:19.000Z</time>
      </trkpt>
      <trkpt lat="46.8099" lon="2.701">
        <ele>194.39999389648</ele>
        <time>2022-06-22T06:16:24.000Z</time>
      </trkpt>
      <trkpt lat="46.80992" lon="2.70097">
        <ele>194.80000305176</ele>
        <time>2022-06-22T06:16:25.000Z</time>
      </trkpt>
      <trkpt lat="46.80998" lon="2.7009">
        <ele>195.60000610352</ele>
        <time>2022-06-22T06:16:27.000Z</time>
      </trkpt>
      <trkpt lat="46.81007" lon="2.70081">
        <ele>196.19999694824</ele>
        <time>2022-06-22T06:16:30.000Z</time>
      </trkpt>
      <trkpt lat="46.81016" lon="2.70071">
        <ele>197</ele>
        <time>2022-06-22T06:16:33.000Z</time>
      </trkpt>
      <trkpt lat="46.81025" lon="2.7006">
        <ele>197</ele>
        <time>2022-06-22T06:16:36.000Z</time>
      </trkpt>
      <trkpt lat="46.81032" lon="2.70048">
        <ele>197.39999389648</ele>
        <time>2022-06-22T06:16:39.000Z</time>
      </trkpt>
      <trkpt lat="46.81038" lon="2.70028">
        <ele>198.19999694824</ele>
        <time>2022-06-22T06:16:43.000Z</time>
      </trkpt>
      <trkpt lat="46.8104" lon="2.70012">
        <ele>199</ele>
        <time>2022-06-22T06:16:46.000Z</time>
      </trkpt>
      <trkpt lat="46.81043" lon="2.69985">
        <ele>200</ele>
        <time>2022-06-22T06:16:51.000Z</time>
      </trkpt>
      <trkpt lat="46.81046" lon="2.69961">
        <ele>201.60000610352</ele>
        <time>2022-06-22T06:16:55.000Z</time>
      </trkpt>
      <trkpt lat="46.81048" lon="2.69944">
        <ele>202.19999694824</ele>
        <time>2022-06-22T06:16:58.000Z</time>
      </trkpt>
      <trkpt lat="46.81048" lon="2.69938">
        <ele>202.39999389648</ele>
        <time>2022-06-22T06:16:59.000Z</time>
      </trkpt>
      <trkpt lat="46.81051" lon="2.69915">
        <ele>203.19999694824</ele>
        <time>2022-06-22T06:17:03.000Z</time>
      </trkpt>
      <trkpt lat="46.81053" lon="2.69892">
        <ele>204.19999694824</ele>
        <time>2022-06-22T06:17:07.000Z</time>
      </trkpt>
      <trkpt lat="46.81054" lon="2.69881">
        <ele>205</ele>
        <time>2022-06-22T06:17:09.000Z</time>
      </trkpt>
      <trkpt lat="46.81056" lon="2.69857">
        <ele>207</ele>
        <time>2022-06-22T06:17:13.000Z</time>
      </trkpt>
      <trkpt lat="46.81059" lon="2.69836">
        <ele>209.19999694824</ele>
        <time>2022-06-22T06:17:17.000Z</time>
      </trkpt>
      <trkpt lat="46.81062" lon="2.69806">
        <ele>210.39999389648</ele>
        <time>2022-06-22T06:17:22.000Z</time>
      </trkpt>
      <trkpt lat="46.81066" lon="2.69777">
        <ele>212.19999694824</ele>
        <time>2022-06-22T06:17:27.000Z</time>
      </trkpt>
      <trkpt lat="46.81067" lon="2.69772">
        <ele>212.39999389648</ele>
        <time>2022-06-22T06:17:28.000Z</time>
      </trkpt>
      <trkpt lat="46.81069" lon="2.69749">
        <ele>213</ele>
        <time>2022-06-22T06:17:32.000Z</time>
      </trkpt>
      <trkpt lat="46.81073" lon="2.69721">
        <ele>213.60000610352</ele>
        <time>2022-06-22T06:17:37.000Z</time>
      </trkpt>
      <trkpt lat="46.81074" lon="2.69715">
        <ele>213.60000610352</ele>
        <time>2022-06-22T06:17:38.000Z</time>
      </trkpt>
      <trkpt lat="46.8108" lon="2.69687">
        <ele>214.39999389648</ele>
        <time>2022-06-22T06:17:43.000Z</time>
      </trkpt>
      <trkpt lat="46.81082" lon="2.69682">
        <ele>215</ele>
        <time>2022-06-22T06:17:44.000Z</time>
      </trkpt>
      <trkpt lat="46.8109" lon="2.69661">
        <ele>216.39999389648</ele>
        <time>2022-06-22T06:17:48.000Z</time>
      </trkpt>
      <trkpt lat="46.81098" lon="2.69641">
        <ele>217.39999389648</ele>
        <time>2022-06-22T06:17:52.000Z</time>
      </trkpt>
      <trkpt lat="46.81106" lon="2.69621">
        <ele>218.39999389648</ele>
        <time>2022-06-22T06:17:56.000Z</time>
      </trkpt>
      <trkpt lat="46.81117" lon="2.69595">
        <ele>219.60000610352</ele>
        <time>2022-06-22T06:18:01.000Z</time>
      </trkpt>
      <trkpt lat="46.81125" lon="2.69575">
        <ele>220.39999389648</ele>
        <time>2022-06-22T06:18:05.000Z</time>
      </trkpt>
      <trkpt lat="46.81132" lon="2.69559">
        <ele>221</ele>
        <time>2022-06-22T06:18:08.000Z</time>
      </trkpt>
      <trkpt lat="46.81147" lon="2.69521">
        <ele>220.60000610352</ele>
        <time>2022-06-22T06:18:14.000Z</time>
      </trkpt>
      <trkpt lat="46.81154" lon="2.69501">
        <ele>219.80000305176</ele>
        <time>2022-06-22T06:18:17.000Z</time>
      </trkpt>
      <trkpt lat="46.81164" lon="2.69472">
        <ele>218.80000305176</ele>
        <time>2022-06-22T06:18:21.000Z</time>
      </trkpt>
      <trkpt lat="46.81179" lon="2.69411">
        <ele>217</ele>
        <time>2022-06-22T06:18:29.000Z</time>
      </trkpt>
      <trkpt lat="46.81196" lon="2.69339">
        <ele>217</ele>
        <time>2022-06-22T06:18:38.000Z</time>
      </trkpt>
      <trkpt lat="46.81215" lon="2.69263">
        <ele>215.80000305176</ele>
        <time>2022-06-22T06:18:47.000Z</time>
      </trkpt>
      <trkpt lat="46.81231" lon="2.69198">
        <ele>215</ele>
        <time>2022-06-22T06:18:55.000Z</time>
      </trkpt>
      <trkpt lat="46.81238" lon="2.69169">
        <ele>214.19999694824</ele>
        <time>2022-06-22T06:18:58.000Z</time>
      </trkpt>
      <trkpt lat="46.8125" lon="2.69121">
        <ele>213.39999389648</ele>
        <time>2022-06-22T06:19:02.000Z</time>
      </trkpt>
      <trkpt lat="46.81265" lon="2.6906">
        <ele>211.80000305176</ele>
        <time>2022-06-22T06:19:08.000Z</time>
      </trkpt>
      <trkpt lat="46.81275" lon="2.69019">
        <ele>211</ele>
        <time>2022-06-22T06:19:12.000Z</time>
      </trkpt>
      <trkpt lat="46.81282" lon="2.68989">
        <ele>211</ele>
        <time>2022-06-22T06:19:16.000Z</time>
      </trkpt>
      <trkpt lat="46.81292" lon="2.68947">
        <ele>212</ele>
        <time>2022-06-22T06:19:19.000Z</time>
      </trkpt>
      <trkpt lat="46.81305" lon="2.68894">
        <ele>211.60000610352</ele>
        <time>2022-06-22T06:19:24.000Z</time>
      </trkpt>
      <trkpt lat="46.81313" lon="2.68863">
        <ele>210</ele>
        <time>2022-06-22T06:19:28.000Z</time>
      </trkpt>
      <trkpt lat="46.81322" lon="2.68823">
        <ele>209.19999694824</ele>
        <time>2022-06-22T06:19:31.000Z</time>
      </trkpt>
      <trkpt lat="46.81325" lon="2.68812">
        <ele>208.60000610352</ele>
        <time>2022-06-22T06:19:32.000Z</time>
      </trkpt>
      <trkpt lat="46.81338" lon="2.68758">
        <ele>207</ele>
        <time>2022-06-22T06:19:37.000Z</time>
      </trkpt>
      <trkpt lat="46.81345" lon="2.68727">
        <ele>206.80000305176</ele>
        <time>2022-06-22T06:19:40.000Z</time>
      </trkpt>
      <trkpt lat="46.81355" lon="2.68685">
        <ele>206</ele>
        <time>2022-06-22T06:19:44.000Z</time>
      </trkpt>
      <trkpt lat="46.81369" lon="2.68632">
        <ele>205</ele>
        <time>2022-06-22T06:19:49.000Z</time>
      </trkpt>
      <trkpt lat="46.81372" lon="2.6861">
        <ele>205.39999389648</ele>
        <time>2022-06-22T06:19:51.000Z</time>
      </trkpt>
      <trkpt lat="46.81383" lon="2.68566">
        <ele>206.39999389648</ele>
        <time>2022-06-22T06:19:55.000Z</time>
      </trkpt>
      <trkpt lat="46.81394" lon="2.68522">
        <ele>205.19999694824</ele>
        <time>2022-06-22T06:19:59.000Z</time>
      </trkpt>
      <trkpt lat="46.814" lon="2.68499">
        <ele>204</ele>
        <time>2022-06-22T06:20:01.000Z</time>
      </trkpt>
      <trkpt lat="46.81413" lon="2.68442">
        <ele>203.39999389648</ele>
        <time>2022-06-22T06:20:06.000Z</time>
      </trkpt>
      <trkpt lat="46.81422" lon="2.6841">
        <ele>202.39999389648</ele>
        <time>2022-06-22T06:20:09.000Z</time>
      </trkpt>
      <trkpt lat="46.81427" lon="2.68389">
        <ele>202</ele>
        <time>2022-06-22T06:20:11.000Z</time>
      </trkpt>
      <trkpt lat="46.81444" lon="2.68317">
        <ele>201.60000610352</ele>
        <time>2022-06-22T06:20:19.000Z</time>
      </trkpt>
      <trkpt lat="46.81461" lon="2.68248">
        <ele>198.80000305176</ele>
        <time>2022-06-22T06:20:25.000Z</time>
      </trkpt>
      <trkpt lat="46.81463" lon="2.68239">
        <ele>198.39999389648</ele>
        <time>2022-06-22T06:20:26.000Z</time>
      </trkpt>
      <trkpt lat="46.8148" lon="2.68171">
        <ele>199</ele>
        <time>2022-06-22T06:20:33.000Z</time>
      </trkpt>
      <trkpt lat="46.81499" lon="2.68095">
        <ele>201.19999694824</ele>
        <time>2022-06-22T06:20:41.000Z</time>
      </trkpt>
      <trkpt lat="46.81506" lon="2.68068">
        <ele>202.80000305176</ele>
        <time>2022-06-22T06:20:44.000Z</time>
      </trkpt>
      <trkpt lat="46.81525" lon="2.67984">
        <ele>206.80000305176</ele>
        <time>2022-06-22T06:20:53.000Z</time>
      </trkpt>
      <trkpt lat="46.81543" lon="2.6791">
        <ele>208.39999389648</ele>
        <time>2022-06-22T06:21:01.000Z</time>
      </trkpt>
      <trkpt lat="46.81558" lon="2.67845">
        <ele>210</ele>
        <time>2022-06-22T06:21:08.000Z</time>
      </trkpt>
      <trkpt lat="46.81578" lon="2.67766">
        <ele>212.60000610352</ele>
        <time>2022-06-22T06:21:17.000Z</time>
      </trkpt>
      <trkpt lat="46.8158" lon="2.67758">
        <ele>212.39999389648</ele>
        <time>2022-06-22T06:21:18.000Z</time>
      </trkpt>
      <trkpt lat="46.81597" lon="2.67685">
        <ele>213.39999389648</ele>
        <time>2022-06-22T06:21:27.000Z</time>
      </trkpt>
      <trkpt lat="46.81611" lon="2.6763">
        <ele>213.80000305176</ele>
        <time>2022-06-22T06:21:34.000Z</time>
      </trkpt>
      <trkpt lat="46.81615" lon="2.67613">
        <ele>214.19999694824</ele>
        <time>2022-06-22T06:21:36.000Z</time>
      </trkpt>
      <trkpt lat="46.81628" lon="2.67568">
        <ele>215.80000305176</ele>
        <time>2022-06-22T06:21:42.000Z</time>
      </trkpt>
      <trkpt lat="46.81634" lon="2.67546">
        <ele>216.39999389648</ele>
        <time>2022-06-22T06:21:45.000Z</time>
      </trkpt>
      <trkpt lat="46.8164" lon="2.67525">
        <ele>216.60000610352</ele>
        <time>2022-06-22T06:21:48.000Z</time>
      </trkpt>
      <trkpt lat="46.81647" lon="2.67503">
        <ele>217</ele>
        <time>2022-06-22T06:21:51.000Z</time>
      </trkpt>
      <trkpt lat="46.8165" lon="2.67496">
        <ele>217.39999389648</ele>
        <time>2022-06-22T06:21:52.000Z</time>
      </trkpt>
      <trkpt lat="46.81653" lon="2.67482">
        <ele>218</ele>
        <time>2022-06-22T06:21:54.000Z</time>
      </trkpt>
      <trkpt lat="46.81662" lon="2.67453">
        <ele>217.60000610352</ele>
        <time>2022-06-22T06:21:58.000Z</time>
      </trkpt>
      <trkpt lat="46.81669" lon="2.67431">
        <ele>217.39999389648</ele>
        <time>2022-06-22T06:22:01.000Z</time>
      </trkpt>
      <trkpt lat="46.81673" lon="2.67409">
        <ele>217</ele>
        <time>2022-06-22T06:22:04.000Z</time>
      </trkpt>
      <trkpt lat="46.81681" lon="2.67378">
        <ele>217</ele>
        <time>2022-06-22T06:22:08.000Z</time>
      </trkpt>
      <trkpt lat="46.81684" lon="2.67362">
        <ele>217.60000610352</ele>
        <time>2022-06-22T06:22:10.000Z</time>
      </trkpt>
      <trkpt lat="46.81686" lon="2.67347">
        <ele>218.60000610352</ele>
        <time>2022-06-22T06:22:12.000Z</time>
      </trkpt>
      <trkpt lat="46.81691" lon="2.67323">
        <ele>219.39999389648</ele>
        <time>2022-06-22T06:22:15.000Z</time>
      </trkpt>
      <trkpt lat="46.81693" lon="2.67309">
        <ele>219.39999389648</ele>
        <time>2022-06-22T06:22:17.000Z</time>
      </trkpt>
      <trkpt lat="46.81695" lon="2.67301">
        <ele>219.39999389648</ele>
        <time>2022-06-22T06:22:18.000Z</time>
      </trkpt>
      <trkpt lat="46.81713" lon="2.67232">
        <ele>219.60000610352</ele>
        <time>2022-06-22T06:22:27.000Z</time>
      </trkpt>
      <trkpt lat="46.81724" lon="2.67185">
        <ele>218.39999389648</ele>
        <time>2022-06-22T06:22:33.000Z</time>
      </trkpt>
      <trkpt lat="46.81733" lon="2.67146">
        <ele>219</ele>
        <time>2022-06-22T06:22:38.000Z</time>
      </trkpt>
      <trkpt lat="46.81736" lon="2.67138">
        <ele>219</ele>
        <time>2022-06-22T06:22:39.000Z</time>
      </trkpt>
      <trkpt lat="46.8174" lon="2.67122">
        <ele>219.19999694824</ele>
        <time>2022-06-22T06:22:41.000Z</time>
      </trkpt>
      <trkpt lat="46.81746" lon="2.67104">
        <ele>219.60000610352</ele>
        <time>2022-06-22T06:22:43.000Z</time>
      </trkpt>
      <trkpt lat="46.81748" lon="2.67095">
        <ele>218.80000305176</ele>
        <time>2022-06-22T06:22:44.000Z</time>
      </trkpt>
      <trkpt lat="46.81754" lon="2.67077">
        <ele>217.39999389648</ele>
        <time>2022-06-22T06:22:46.000Z</time>
      </trkpt>
      <trkpt lat="46.81759" lon="2.67057">
        <ele>215.60000610352</ele>
        <time>2022-06-22T06:22:48.000Z</time>
      </trkpt>
      <trkpt lat="46.81768" lon="2.67015">
        <ele>211.19999694824</ele>
        <time>2022-06-22T06:22:52.000Z</time>
      </trkpt>
      <trkpt lat="46.81779" lon="2.66952">
        <ele>207.39999389648</ele>
        <time>2022-06-22T06:22:58.000Z</time>
      </trkpt>
      <trkpt lat="46.81782" lon="2.66941">
        <ele>206.80000305176</ele>
        <time>2022-06-22T06:23:00.000Z</time>
      </trkpt>
      <trkpt lat="46.81795" lon="2.66878">
        <ele>204.60000610352</ele>
        <time>2022-06-22T06:23:05.000Z</time>
      </trkpt>
      <trkpt lat="46.81808" lon="2.66826">
        <ele>204.39999389648</ele>
        <time>2022-06-22T06:23:10.000Z</time>
      </trkpt>
      <trkpt lat="46.81813" lon="2.66806">
        <ele>205.19999694824</ele>
        <time>2022-06-22T06:23:12.000Z</time>
      </trkpt>
      <trkpt lat="46.81826" lon="2.66749">
        <ele>207.80000305176</ele>
        <time>2022-06-22T06:23:18.000Z</time>
      </trkpt>
      <trkpt lat="46.81846" lon="2.66666">
        <ele>205.80000305176</ele>
        <time>2022-06-22T06:23:27.000Z</time>
      </trkpt>
      <trkpt lat="46.81866" lon="2.66584">
        <ele>203.80000305176</ele>
        <time>2022-06-22T06:23:36.000Z</time>
      </trkpt>
      <trkpt lat="46.8188" lon="2.66527">
        <ele>204</ele>
        <time>2022-06-22T06:23:43.000Z</time>
      </trkpt>
      <trkpt lat="46.81883" lon="2.66519">
        <ele>203.80000305176</ele>
        <time>2022-06-22T06:23:44.000Z</time>
      </trkpt>
      <trkpt lat="46.81897" lon="2.66458">
        <ele>200.60000610352</ele>
        <time>2022-06-22T06:23:51.000Z</time>
      </trkpt>
      <trkpt lat="46.81909" lon="2.66407">
        <ele>200.39999389648</ele>
        <time>2022-06-22T06:23:56.000Z</time>
      </trkpt>
      <trkpt lat="46.81917" lon="2.66374">
        <ele>199.60000610352</ele>
        <time>2022-06-22T06:23:59.000Z</time>
      </trkpt>
      <trkpt lat="46.8192" lon="2.66363">
        <ele>199</ele>
        <time>2022-06-22T06:24:00.000Z</time>
      </trkpt>
      <trkpt lat="46.8193" lon="2.66319">
        <ele>197.39999389648</ele>
        <time>2022-06-22T06:24:04.000Z</time>
      </trkpt>
      <trkpt lat="46.81935" lon="2.66296">
        <ele>197</ele>
        <time>2022-06-22T06:24:06.000Z</time>
      </trkpt>
      <trkpt lat="46.81938" lon="2.66285">
        <ele>196.60000610352</ele>
        <time>2022-06-22T06:24:07.000Z</time>
      </trkpt>
      <trkpt lat="46.81946" lon="2.6625">
        <ele>195.19999694824</ele>
        <time>2022-06-22T06:24:10.000Z</time>
      </trkpt>
      <trkpt lat="46.81958" lon="2.66203">
        <ele>192</ele>
        <time>2022-06-22T06:24:14.000Z</time>
      </trkpt>
      <trkpt lat="46.81967" lon="2.66167">
        <ele>189.80000305176</ele>
        <time>2022-06-22T06:24:17.000Z</time>
      </trkpt>
      <trkpt lat="46.81978" lon="2.66119">
        <ele>188.80000305176</ele>
        <time>2022-06-22T06:24:21.000Z</time>
      </trkpt>
      <trkpt lat="46.81984" lon="2.66094">
        <ele>189.80000305176</ele>
        <time>2022-06-22T06:24:23.000Z</time>
      </trkpt>
      <trkpt lat="46.8199" lon="2.66071">
        <ele>190</ele>
        <time>2022-06-22T06:24:25.000Z</time>
      </trkpt>
      <trkpt lat="46.81993" lon="2.66059">
        <ele>190</ele>
        <time>2022-06-22T06:24:26.000Z</time>
      </trkpt>
      <trkpt lat="46.82001" lon="2.66026">
        <ele>189.60000610352</ele>
        <time>2022-06-22T06:24:29.000Z</time>
      </trkpt>
      <trkpt lat="46.82008" lon="2.65994">
        <ele>189.60000610352</ele>
        <time>2022-06-22T06:24:32.000Z</time>
      </trkpt>
      <trkpt lat="46.82026" lon="2.65917">
        <ele>188</ele>
        <time>2022-06-22T06:24:40.000Z</time>
      </trkpt>
      <trkpt lat="46.82033" lon="2.65889">
        <ele>187.80000305176</ele>
        <time>2022-06-22T06:24:43.000Z</time>
      </trkpt>
      <trkpt lat="46.82043" lon="2.65852">
        <ele>187.19999694824</ele>
        <time>2022-06-22T06:24:47.000Z</time>
      </trkpt>
      <trkpt lat="46.82061" lon="2.65777">
        <ele>185</ele>
        <time>2022-06-22T06:24:55.000Z</time>
      </trkpt>
      <trkpt lat="46.82072" lon="2.6573">
        <ele>184.19999694824</ele>
        <time>2022-06-22T06:25:00.000Z</time>
      </trkpt>
      <trkpt lat="46.82082" lon="2.65691">
        <ele>183.80000305176</ele>
        <time>2022-06-22T06:25:04.000Z</time>
      </trkpt>
      <trkpt lat="46.82087" lon="2.65671">
        <ele>183</ele>
        <time>2022-06-22T06:25:06.000Z</time>
      </trkpt>
      <trkpt lat="46.82097" lon="2.65631">
        <ele>181.60000610352</ele>
        <time>2022-06-22T06:25:10.000Z</time>
      </trkpt>
      <trkpt lat="46.82099" lon="2.65621">
        <ele>181.19999694824</ele>
        <time>2022-06-22T06:25:11.000Z</time>
      </trkpt>
      <trkpt lat="46.82112" lon="2.65571">
        <ele>182</ele>
        <time>2022-06-22T06:25:16.000Z</time>
      </trkpt>
      <trkpt lat="46.82121" lon="2.65535">
        <ele>182</ele>
        <time>2022-06-22T06:25:20.000Z</time>
      </trkpt>
      <trkpt lat="46.82129" lon="2.655">
        <ele>182</ele>
        <time>2022-06-22T06:25:24.000Z</time>
      </trkpt>
      <trkpt lat="46.82134" lon="2.65481">
        <ele>182</ele>
        <time>2022-06-22T06:25:27.000Z</time>
      </trkpt>
      <trkpt lat="46.82136" lon="2.65477">
        <ele>182</ele>
        <time>2022-06-22T06:25:28.000Z</time>
      </trkpt>
      <trkpt lat="46.82138" lon="2.65474">
        <ele>182</ele>
        <time>2022-06-22T06:25:29.000Z</time>
      </trkpt>
      <trkpt lat="46.8215" lon="2.65468">
        <ele>182.19999694824</ele>
        <time>2022-06-22T06:25:32.000Z</time>
      </trkpt>
      <trkpt lat="46.82155" lon="2.65468">
        <ele>182.19999694824</ele>
        <time>2022-06-22T06:25:33.000Z</time>
      </trkpt>
      <trkpt lat="46.82173" lon="2.65467">
        <ele>181.80000305176</ele>
        <time>2022-06-22T06:25:37.000Z</time>
      </trkpt>
      <trkpt lat="46.82176" lon="2.65465">
        <ele>181.60000610352</ele>
        <time>2022-06-22T06:25:38.000Z</time>
      </trkpt>
      <trkpt lat="46.82183" lon="2.65455">
        <ele>181</ele>
        <time>2022-06-22T06:25:40.000Z</time>
      </trkpt>
      <trkpt lat="46.82184" lon="2.65442">
        <ele>181.39999389648</ele>
        <time>2022-06-22T06:25:42.000Z</time>
      </trkpt>
      <trkpt lat="46.82184" lon="2.65429">
        <ele>181.39999389648</ele>
        <time>2022-06-22T06:25:44.000Z</time>
      </trkpt>
      <trkpt lat="46.82182" lon="2.65416">
        <ele>181.19999694824</ele>
        <time>2022-06-22T06:25:46.000Z</time>
      </trkpt>
      <trkpt lat="46.8218" lon="2.65411">
        <ele>181.19999694824</ele>
        <time>2022-06-22T06:25:47.000Z</time>
      </trkpt>
      <trkpt lat="46.82176" lon="2.65407">
        <ele>181</ele>
        <time>2022-06-22T06:25:48.000Z</time>
      </trkpt>
      <trkpt lat="46.82163" lon="2.65401">
        <ele>181</ele>
        <time>2022-06-22T06:25:51.000Z</time>
      </trkpt>
      <trkpt lat="46.82152" lon="2.65396">
        <ele>181</ele>
        <time>2022-06-22T06:25:53.000Z</time>
      </trkpt>
      <trkpt lat="46.82143" lon="2.65387">
        <ele>180.80000305176</ele>
        <time>2022-06-22T06:25:55.000Z</time>
      </trkpt>
      <trkpt lat="46.82134" lon="2.65375">
        <ele>180.39999389648</ele>
        <time>2022-06-22T06:25:57.000Z</time>
      </trkpt>
      <trkpt lat="46.82119" lon="2.65359">
        <ele>179.80000305176</ele>
        <time>2022-06-22T06:26:00.000Z</time>
      </trkpt>
      <trkpt lat="46.82115" lon="2.65353">
        <ele>179.39999389648</ele>
        <time>2022-06-22T06:26:01.000Z</time>
      </trkpt>
      <trkpt lat="46.82107" lon="2.65338">
        <ele>178.60000610352</ele>
        <time>2022-06-22T06:26:03.000Z</time>
      </trkpt>
      <trkpt lat="46.82103" lon="2.6533">
        <ele>178.39999389648</ele>
        <time>2022-06-22T06:26:04.000Z</time>
      </trkpt>
      <trkpt lat="46.82093" lon="2.65305">
        <ele>178</ele>
        <time>2022-06-22T06:26:07.000Z</time>
      </trkpt>
      <trkpt lat="46.8209" lon="2.65285">
        <ele>178</ele>
        <time>2022-06-22T06:26:09.000Z</time>
      </trkpt>
      <trkpt lat="46.82088" lon="2.65275">
        <ele>177.80000305176</ele>
        <time>2022-06-22T06:26:10.000Z</time>
      </trkpt>
      <trkpt lat="46.82086" lon="2.65255">
        <ele>177.80000305176</ele>
        <time>2022-06-22T06:26:12.000Z</time>
      </trkpt>
      <trkpt lat="46.82081" lon="2.65226">
        <ele>177</ele>
        <time>2022-06-22T06:26:15.000Z</time>
      </trkpt>
      <trkpt lat="46.82068" lon="2.6517">
        <ele>175</ele>
        <time>2022-06-22T06:26:21.000Z</time>
      </trkpt>
      <trkpt lat="46.82066" lon="2.6516">
        <ele>175</ele>
        <time>2022-06-22T06:26:22.000Z</time>
      </trkpt>
      <trkpt lat="46.82042" lon="2.65088">
        <ele>176.80000305176</ele>
        <time>2022-06-22T06:26:30.000Z</time>
      </trkpt>
      <trkpt lat="46.82034" lon="2.65061">
        <ele>177.19999694824</ele>
        <time>2022-06-22T06:26:33.000Z</time>
      </trkpt>
      <trkpt lat="46.82025" lon="2.65036">
        <ele>177.80000305176</ele>
        <time>2022-06-22T06:26:36.000Z</time>
      </trkpt>
      <trkpt lat="46.82011" lon="2.64993">
        <ele>178.80000305176</ele>
        <time>2022-06-22T06:26:41.000Z</time>
      </trkpt>
      <trkpt lat="46.81989" lon="2.64924">
        <ele>179</ele>
        <time>2022-06-22T06:26:49.000Z</time>
      </trkpt>
      <trkpt lat="46.81964" lon="2.64844">
        <ele>178.60000610352</ele>
        <time>2022-06-22T06:26:58.000Z</time>
      </trkpt>
      <trkpt lat="46.81942" lon="2.64772">
        <ele>180.19999694824</ele>
        <time>2022-06-22T06:27:06.000Z</time>
      </trkpt>
      <trkpt lat="46.81937" lon="2.64753">
        <ele>180.39999389648</ele>
        <time>2022-06-22T06:27:08.000Z</time>
      </trkpt>
      <trkpt lat="46.8192" lon="2.6468">
        <ele>179.39999389648</ele>
        <time>2022-06-22T06:27:16.000Z</time>
      </trkpt>
      <trkpt lat="46.81912" lon="2.64644">
        <ele>178</ele>
        <time>2022-06-22T06:27:20.000Z</time>
      </trkpt>
      <trkpt lat="46.81907" lon="2.64628">
        <ele>177.39999389648</ele>
        <time>2022-06-22T06:27:22.000Z</time>
      </trkpt>
      <trkpt lat="46.81904" lon="2.64617">
        <ele>176.80000305176</ele>
        <time>2022-06-22T06:27:23.000Z</time>
      </trkpt>
      <trkpt lat="46.8189" lon="2.64559">
        <ele>176.19999694824</ele>
        <time>2022-06-22T06:27:29.000Z</time>
      </trkpt>
      <trkpt lat="46.81877" lon="2.64493">
        <ele>173.80000305176</ele>
        <time>2022-06-22T06:27:36.000Z</time>
      </trkpt>
      <trkpt lat="46.81867" lon="2.64445">
        <ele>174</ele>
        <time>2022-06-22T06:27:41.000Z</time>
      </trkpt>
      <trkpt lat="46.81858" lon="2.64388">
        <ele>174.60000610352</ele>
        <time>2022-06-22T06:27:47.000Z</time>
      </trkpt>
      <trkpt lat="46.81843" lon="2.64318">
        <ele>172.39999389648</ele>
        <time>2022-06-22T06:27:55.000Z</time>
      </trkpt>
      <trkpt lat="46.81828" lon="2.6425">
        <ele>170.39999389648</ele>
        <time>2022-06-22T06:28:02.000Z</time>
      </trkpt>
      <trkpt lat="46.81821" lon="2.64222">
        <ele>169.80000305176</ele>
        <time>2022-06-22T06:28:05.000Z</time>
      </trkpt>
      <trkpt lat="46.8181" lon="2.64164">
        <ele>171.19999694824</ele>
        <time>2022-06-22T06:28:11.000Z</time>
      </trkpt>
      <trkpt lat="46.8181" lon="2.64154">
        <ele>171.60000610352</ele>
        <time>2022-06-22T06:28:12.000Z</time>
      </trkpt>
      <trkpt lat="46.8181" lon="2.64123">
        <ele>172.60000610352</ele>
        <time>2022-06-22T06:28:15.000Z</time>
      </trkpt>
      <trkpt lat="46.81811" lon="2.64113">
        <ele>172.80000305176</ele>
        <time>2022-06-22T06:28:16.000Z</time>
      </trkpt>
      <trkpt lat="46.81815" lon="2.64075">
        <ele>172.60000610352</ele>
        <time>2022-06-22T06:28:20.000Z</time>
      </trkpt>
      <trkpt lat="46.81816" lon="2.64056">
        <ele>171.80000305176</ele>
        <time>2022-06-22T06:28:22.000Z</time>
      </trkpt>
      <trkpt lat="46.81813" lon="2.64028">
        <ele>170.80000305176</ele>
        <time>2022-06-22T06:28:25.000Z</time>
      </trkpt>
      <trkpt lat="46.8181" lon="2.6401">
        <ele>170</ele>
        <time>2022-06-22T06:28:27.000Z</time>
      </trkpt>
      <trkpt lat="46.81786" lon="2.6393">
        <ele>169.60000610352</ele>
        <time>2022-06-22T06:28:36.000Z</time>
      </trkpt>
      <trkpt lat="46.81781" lon="2.63912">
        <ele>170.19999694824</ele>
        <time>2022-06-22T06:28:38.000Z</time>
      </trkpt>
      <trkpt lat="46.81754" lon="2.63845">
        <ele>170.80000305176</ele>
        <time>2022-06-22T06:28:46.000Z</time>
      </trkpt>
      <trkpt lat="46.81731" lon="2.63785">
        <ele>171</ele>
        <time>2022-06-22T06:28:53.000Z</time>
      </trkpt>
      <trkpt lat="46.81729" lon="2.63766">
        <ele>171</ele>
        <time>2022-06-22T06:28:55.000Z</time>
      </trkpt>
      <trkpt lat="46.81731" lon="2.63746">
        <ele>171</ele>
        <time>2022-06-22T06:28:57.000Z</time>
      </trkpt>
      <trkpt lat="46.81737" lon="2.63729">
        <ele>171</ele>
        <time>2022-06-22T06:28:59.000Z</time>
      </trkpt>
      <trkpt lat="46.81746" lon="2.63714">
        <ele>170.60000610352</ele>
        <time>2022-06-22T06:29:01.000Z</time>
      </trkpt>
      <trkpt lat="46.8178" lon="2.6366">
        <ele>171.60000610352</ele>
        <time>2022-06-22T06:29:09.000Z</time>
      </trkpt>
      <trkpt lat="46.81783" lon="2.63652">
        <ele>171.80000305176</ele>
        <time>2022-06-22T06:29:10.000Z</time>
      </trkpt>
      <trkpt lat="46.81798" lon="2.63611">
        <ele>170.80000305176</ele>
        <time>2022-06-22T06:29:15.000Z</time>
      </trkpt>
      <trkpt lat="46.81815" lon="2.63565">
        <ele>169.19999694824</ele>
        <time>2022-06-22T06:29:20.000Z</time>
      </trkpt>
      <trkpt lat="46.81821" lon="2.63557">
        <ele>169</ele>
        <time>2022-06-22T06:29:21.000Z</time>
      </trkpt>
      <trkpt lat="46.81834" lon="2.63542">
        <ele>168.60000610352</ele>
        <time>2022-06-22T06:29:23.000Z</time>
      </trkpt>
      <trkpt lat="46.81848" lon="2.63529">
        <ele>168</ele>
        <time>2022-06-22T06:29:25.000Z</time>
      </trkpt>
      <trkpt lat="46.8188" lon="2.63496">
        <ele>168</ele>
        <time>2022-06-22T06:29:30.000Z</time>
      </trkpt>
      <trkpt lat="46.81885" lon="2.63488">
        <ele>168</ele>
        <time>2022-06-22T06:29:31.000Z</time>
      </trkpt>
      <trkpt lat="46.81895" lon="2.63471">
        <ele>167.80000305176</ele>
        <time>2022-06-22T06:29:33.000Z</time>
      </trkpt>
      <trkpt lat="46.819" lon="2.63462">
        <ele>167.39999389648</ele>
        <time>2022-06-22T06:29:34.000Z</time>
      </trkpt>
      <trkpt lat="46.81906" lon="2.63442">
        <ele>166.80000305176</ele>
        <time>2022-06-22T06:29:36.000Z</time>
      </trkpt>
      <trkpt lat="46.81907" lon="2.63421">
        <ele>166</ele>
        <time>2022-06-22T06:29:38.000Z</time>
      </trkpt>
      <trkpt lat="46.81905" lon="2.63411">
        <ele>166</ele>
        <time>2022-06-22T06:29:39.000Z</time>
      </trkpt>
      <trkpt lat="46.81901" lon="2.63403">
        <ele>166</ele>
        <time>2022-06-22T06:29:40.000Z</time>
      </trkpt>
      <trkpt lat="46.81888" lon="2.63378">
        <ele>165.60000610352</ele>
        <time>2022-06-22T06:29:43.000Z</time>
      </trkpt>
      <trkpt lat="46.8186" lon="2.63333">
        <ele>165</ele>
        <time>2022-06-22T06:29:49.000Z</time>
      </trkpt>
      <trkpt lat="46.81843" lon="2.63301">
        <ele>165.19999694824</ele>
        <time>2022-06-22T06:29:53.000Z</time>
      </trkpt>
      <trkpt lat="46.81829" lon="2.63267">
        <ele>166</ele>
        <time>2022-06-22T06:29:57.000Z</time>
      </trkpt>
      <trkpt lat="46.81806" lon="2.63197">
        <ele>165</ele>
        <time>2022-06-22T06:30:05.000Z</time>
      </trkpt>
      <trkpt lat="46.81782" lon="2.63139">
        <ele>166</ele>
        <time>2022-06-22T06:30:12.000Z</time>
      </trkpt>
      <trkpt lat="46.81756" lon="2.63098">
        <ele>166</ele>
        <time>2022-06-22T06:30:18.000Z</time>
      </trkpt>
      <trkpt lat="46.81743" lon="2.63077">
        <ele>166.39999389648</ele>
        <time>2022-06-22T06:30:21.000Z</time>
      </trkpt>
      <trkpt lat="46.81737" lon="2.6306">
        <ele>166.80000305176</ele>
        <time>2022-06-22T06:30:23.000Z</time>
      </trkpt>
      <trkpt lat="46.81731" lon="2.63015">
        <ele>167</ele>
        <time>2022-06-22T06:30:28.000Z</time>
      </trkpt>
      <trkpt lat="46.81728" lon="2.62997">
        <ele>167</ele>
        <time>2022-06-22T06:30:30.000Z</time>
      </trkpt>
      <trkpt lat="46.81721" lon="2.62974">
        <ele>167</ele>
        <time>2022-06-22T06:30:33.000Z</time>
      </trkpt>
      <trkpt lat="46.81713" lon="2.62961">
        <ele>167.39999389648</ele>
        <time>2022-06-22T06:30:35.000Z</time>
      </trkpt>
      <trkpt lat="46.81704" lon="2.62951">
        <ele>168</ele>
        <time>2022-06-22T06:30:37.000Z</time>
      </trkpt>
      <trkpt lat="46.81695" lon="2.62941">
        <ele>168</ele>
        <time>2022-06-22T06:30:39.000Z</time>
      </trkpt>
      <trkpt lat="46.81677" lon="2.6292">
        <ele>168</ele>
        <time>2022-06-22T06:30:43.000Z</time>
      </trkpt>
      <trkpt lat="46.81644" lon="2.6288">
        <ele>168.60000610352</ele>
        <time>2022-06-22T06:30:50.000Z</time>
      </trkpt>
      <trkpt lat="46.81609" lon="2.62836">
        <ele>171.39999389648</ele>
        <time>2022-06-22T06:30:58.000Z</time>
      </trkpt>
      <trkpt lat="46.81596" lon="2.62821">
        <ele>171.80000305176</ele>
        <time>2022-06-22T06:31:01.000Z</time>
      </trkpt>
      <trkpt lat="46.81584" lon="2.62805">
        <ele>171.60000610352</ele>
        <time>2022-06-22T06:31:04.000Z</time>
      </trkpt>
      <trkpt lat="46.81568" lon="2.62785">
        <ele>171.19999694824</ele>
        <time>2022-06-22T06:31:08.000Z</time>
      </trkpt>
      <trkpt lat="46.81553" lon="2.62761">
        <ele>169.80000305176</ele>
        <time>2022-06-22T06:31:12.000Z</time>
      </trkpt>
      <trkpt lat="46.81549" lon="2.62746">
        <ele>169.39999389648</ele>
        <time>2022-06-22T06:31:14.000Z</time>
      </trkpt>
      <trkpt lat="46.81546" lon="2.62729">
        <ele>169.19999694824</ele>
        <time>2022-06-22T06:31:16.000Z</time>
      </trkpt>
      <trkpt lat="46.81548" lon="2.62702">
        <ele>169.60000610352</ele>
        <time>2022-06-22T06:31:19.000Z</time>
      </trkpt>
      <trkpt lat="46.81551" lon="2.62685">
        <ele>169.39999389648</ele>
        <time>2022-06-22T06:31:21.000Z</time>
      </trkpt>
      <trkpt lat="46.8156" lon="2.62628">
        <ele>169.19999694824</ele>
        <time>2022-06-22T06:31:27.000Z</time>
      </trkpt>
      <trkpt lat="46.81567" lon="2.62588">
        <ele>169.80000305176</ele>
        <time>2022-06-22T06:31:31.000Z</time>
      </trkpt>
      <trkpt lat="46.8157" lon="2.62568">
        <ele>170</ele>
        <time>2022-06-22T06:31:33.000Z</time>
      </trkpt>
      <trkpt lat="46.81574" lon="2.62549">
        <ele>170</ele>
        <time>2022-06-22T06:31:35.000Z</time>
      </trkpt>
      <trkpt lat="46.81578" lon="2.62528">
        <ele>170</ele>
        <time>2022-06-22T06:31:37.000Z</time>
      </trkpt>
      <trkpt lat="46.81582" lon="2.62499">
        <ele>170.39999389648</ele>
        <time>2022-06-22T06:31:40.000Z</time>
      </trkpt>
      <trkpt lat="46.81586" lon="2.62481">
        <ele>171.39999389648</ele>
        <time>2022-06-22T06:31:42.000Z</time>
      </trkpt>
      <trkpt lat="46.81589" lon="2.62472">
        <ele>172</ele>
        <time>2022-06-22T06:31:43.000Z</time>
      </trkpt>
      <trkpt lat="46.81591" lon="2.62464">
        <ele>172.39999389648</ele>
        <time>2022-06-22T06:31:44.000Z</time>
      </trkpt>
      <trkpt lat="46.81592" lon="2.62455">
        <ele>172.80000305176</ele>
        <time>2022-06-22T06:31:45.000Z</time>
      </trkpt>
      <trkpt lat="46.816" lon="2.62413">
        <ele>173.39999389648</ele>
        <time>2022-06-22T06:31:50.000Z</time>
      </trkpt>
      <trkpt lat="46.81599" lon="2.62387">
        <ele>173</ele>
        <time>2022-06-22T06:31:53.000Z</time>
      </trkpt>
      <trkpt lat="46.81595" lon="2.62378">
        <ele>173</ele>
        <time>2022-06-22T06:31:54.000Z</time>
      </trkpt>
      <trkpt lat="46.81593" lon="2.62369">
        <ele>173</ele>
        <time>2022-06-22T06:31:55.000Z</time>
      </trkpt>
      <trkpt lat="46.8159" lon="2.62361">
        <ele>172.80000305176</ele>
        <time>2022-06-22T06:31:56.000Z</time>
      </trkpt>
      <trkpt lat="46.81577" lon="2.62336">
        <ele>171.39999389648</ele>
        <time>2022-06-22T06:32:00.000Z</time>
      </trkpt>
      <trkpt lat="46.81573" lon="2.6233">
        <ele>171.19999694824</ele>
        <time>2022-06-22T06:32:01.000Z</time>
      </trkpt>
      <trkpt lat="46.81546" lon="2.62289">
        <ele>171.60000610352</ele>
        <time>2022-06-22T06:32:08.000Z</time>
      </trkpt>
      <trkpt lat="46.8153" lon="2.62266">
        <ele>172</ele>
        <time>2022-06-22T06:32:12.000Z</time>
      </trkpt>
      <trkpt lat="46.81515" lon="2.62242">
        <ele>171.60000610352</ele>
        <time>2022-06-22T06:32:16.000Z</time>
      </trkpt>
      <trkpt lat="46.81482" lon="2.62192">
        <ele>172.80000305176</ele>
        <time>2022-06-22T06:32:24.000Z</time>
      </trkpt>
      <trkpt lat="46.81474" lon="2.62178">
        <ele>174.39999389648</ele>
        <time>2022-06-22T06:32:26.000Z</time>
      </trkpt>
      <trkpt lat="46.81467" lon="2.6216">
        <ele>175.39999389648</ele>
        <time>2022-06-22T06:32:28.000Z</time>
      </trkpt>
      <trkpt lat="46.81464" lon="2.62141">
        <ele>175.60000610352</ele>
        <time>2022-06-22T06:32:30.000Z</time>
      </trkpt>
      <trkpt lat="46.81462" lon="2.62121">
        <ele>175.39999389648</ele>
        <time>2022-06-22T06:32:32.000Z</time>
      </trkpt>
      <trkpt lat="46.81465" lon="2.62046">
        <ele>174.39999389648</ele>
        <time>2022-06-22T06:32:40.000Z</time>
      </trkpt>
      <trkpt lat="46.81468" lon="2.61976">
        <ele>173.80000305176</ele>
        <time>2022-06-22T06:32:48.000Z</time>
      </trkpt>
      <trkpt lat="46.81469" lon="2.61944">
        <ele>176</ele>
        <time>2022-06-22T06:32:52.000Z</time>
      </trkpt>
      <trkpt lat="46.8147" lon="2.6192">
        <ele>176.80000305176</ele>
        <time>2022-06-22T06:32:55.000Z</time>
      </trkpt>
      <trkpt lat="46.81473" lon="2.6188">
        <ele>179.19999694824</ele>
        <time>2022-06-22T06:33:00.000Z</time>
      </trkpt>
      <trkpt lat="46.81474" lon="2.61856">
        <ele>180.39999389648</ele>
        <time>2022-06-22T06:33:03.000Z</time>
      </trkpt>
      <trkpt lat="46.81478" lon="2.61801">
        <ele>181</ele>
        <time>2022-06-22T06:33:10.000Z</time>
      </trkpt>
      <trkpt lat="46.81481" lon="2.61753">
        <ele>180</ele>
        <time>2022-06-22T06:33:16.000Z</time>
      </trkpt>
      <trkpt lat="46.81481" lon="2.61744">
        <ele>180</ele>
        <time>2022-06-22T06:33:17.000Z</time>
      </trkpt>
      <trkpt lat="46.81481" lon="2.61719">
        <ele>180</ele>
        <time>2022-06-22T06:33:20.000Z</time>
      </trkpt>
      <trkpt lat="46.81485" lon="2.61681">
        <ele>179</ele>
        <time>2022-06-22T06:33:24.000Z</time>
      </trkpt>
      <trkpt lat="46.81486" lon="2.61625">
        <ele>178.39999389648</ele>
        <time>2022-06-22T06:33:30.000Z</time>
      </trkpt>
      <trkpt lat="46.81487" lon="2.61571">
        <ele>177.19999694824</ele>
        <time>2022-06-22T06:33:36.000Z</time>
      </trkpt>
      <trkpt lat="46.81487" lon="2.61563">
        <ele>177.19999694824</ele>
        <time>2022-06-22T06:33:37.000Z</time>
      </trkpt>
      <trkpt lat="46.8149" lon="2.61497">
        <ele>175.39999389648</ele>
        <time>2022-06-22T06:33:45.000Z</time>
      </trkpt>
      <trkpt lat="46.81491" lon="2.61473">
        <ele>175.60000610352</ele>
        <time>2022-06-22T06:33:48.000Z</time>
      </trkpt>
      <trkpt lat="46.81495" lon="2.61392">
        <ele>176</ele>
        <time>2022-06-22T06:33:58.000Z</time>
      </trkpt>
      <trkpt lat="46.81495" lon="2.61384">
        <ele>176</ele>
        <time>2022-06-22T06:33:59.000Z</time>
      </trkpt>
      <trkpt lat="46.81498" lon="2.6131">
        <ele>177.39999389648</ele>
        <time>2022-06-22T06:34:08.000Z</time>
      </trkpt>
      <trkpt lat="46.81502" lon="2.6123">
        <ele>176.60000610352</ele>
        <time>2022-06-22T06:34:17.000Z</time>
      </trkpt>
      <trkpt lat="46.81504" lon="2.61144">
        <ele>178</ele>
        <time>2022-06-22T06:34:27.000Z</time>
      </trkpt>
      <trkpt lat="46.81505" lon="2.61119">
        <ele>177.39999389648</ele>
        <time>2022-06-22T06:34:30.000Z</time>
      </trkpt>
      <trkpt lat="46.81507" lon="2.6106">
        <ele>177.19999694824</ele>
        <time>2022-06-22T06:34:37.000Z</time>
      </trkpt>
      <trkpt lat="46.81511" lon="2.61003">
        <ele>178.80000305176</ele>
        <time>2022-06-22T06:34:44.000Z</time>
      </trkpt>
      <trkpt lat="46.81514" lon="2.6097">
        <ele>179.80000305176</ele>
        <time>2022-06-22T06:34:48.000Z</time>
      </trkpt>
      <trkpt lat="46.81522" lon="2.6093">
        <ele>180</ele>
        <time>2022-06-22T06:34:53.000Z</time>
      </trkpt>
      <trkpt lat="46.81531" lon="2.6089">
        <ele>179.80000305176</ele>
        <time>2022-06-22T06:34:58.000Z</time>
      </trkpt>
      <trkpt lat="46.81537" lon="2.60858">
        <ele>180.19999694824</ele>
        <time>2022-06-22T06:35:02.000Z</time>
      </trkpt>
      <trkpt lat="46.81549" lon="2.60807">
        <ele>181.39999389648</ele>
        <time>2022-06-22T06:35:08.000Z</time>
      </trkpt>
      <trkpt lat="46.81565" lon="2.60732">
        <ele>180.19999694824</ele>
        <time>2022-06-22T06:35:17.000Z</time>
      </trkpt>
      <trkpt lat="46.81569" lon="2.60715">
        <ele>180.39999389648</ele>
        <time>2022-06-22T06:35:19.000Z</time>
      </trkpt>
      <trkpt lat="46.81584" lon="2.60646">
        <ele>182.39999389648</ele>
        <time>2022-06-22T06:35:27.000Z</time>
      </trkpt>
      <trkpt lat="46.816" lon="2.60577">
        <ele>183.39999389648</ele>
        <time>2022-06-22T06:35:35.000Z</time>
      </trkpt>
      <trkpt lat="46.81613" lon="2.60546">
        <ele>182.60000610352</ele>
        <time>2022-06-22T06:35:39.000Z</time>
      </trkpt>
      <trkpt lat="46.81617" lon="2.6054">
        <ele>182.39999389648</ele>
        <time>2022-06-22T06:35:40.000Z</time>
      </trkpt>
      <trkpt lat="46.8165" lon="2.60501">
        <ele>181.19999694824</ele>
        <time>2022-06-22T06:35:47.000Z</time>
      </trkpt>
      <trkpt lat="46.81656" lon="2.60496">
        <ele>181.60000610352</ele>
        <time>2022-06-22T06:35:48.000Z</time>
      </trkpt>
      <trkpt lat="46.8169" lon="2.60458">
        <ele>182.39999389648</ele>
        <time>2022-06-22T06:35:55.000Z</time>
      </trkpt>
      <trkpt lat="46.81721" lon="2.60417">
        <ele>179.39999389648</ele>
        <time>2022-06-22T06:36:02.000Z</time>
      </trkpt>
      <trkpt lat="46.81725" lon="2.6041">
        <ele>179.19999694824</ele>
        <time>2022-06-22T06:36:03.000Z</time>
      </trkpt>
      <trkpt lat="46.81735" lon="2.60379">
        <ele>180</ele>
        <time>2022-06-22T06:36:07.000Z</time>
      </trkpt>
      <trkpt lat="46.81747" lon="2.60317">
        <ele>182</ele>
        <time>2022-06-22T06:36:14.000Z</time>
      </trkpt>
      <trkpt lat="46.81757" lon="2.60256">
        <ele>180.19999694824</ele>
        <time>2022-06-22T06:36:21.000Z</time>
      </trkpt>
      <trkpt lat="46.81763" lon="2.60175">
        <ele>181</ele>
        <time>2022-06-22T06:36:30.000Z</time>
      </trkpt>
      <trkpt lat="46.81766" lon="2.60103">
        <ele>180.80000305176</ele>
        <time>2022-06-22T06:36:38.000Z</time>
      </trkpt>
      <trkpt lat="46.81777" lon="2.60051">
        <ele>180</ele>
        <time>2022-06-22T06:36:44.000Z</time>
      </trkpt>
      <trkpt lat="46.81799" lon="2.59982">
        <ele>180.80000305176</ele>
        <time>2022-06-22T06:36:52.000Z</time>
      </trkpt>
      <trkpt lat="46.81802" lon="2.59973">
        <ele>181</ele>
        <time>2022-06-22T06:36:53.000Z</time>
      </trkpt>
      <trkpt lat="46.81828" lon="2.599">
        <ele>181</ele>
        <time>2022-06-22T06:37:01.000Z</time>
      </trkpt>
      <trkpt lat="46.81853" lon="2.5985">
        <ele>179.19999694824</ele>
        <time>2022-06-22T06:37:07.000Z</time>
      </trkpt>
      <trkpt lat="46.81868" lon="2.59825">
        <ele>178</ele>
        <time>2022-06-22T06:37:10.000Z</time>
      </trkpt>
      <trkpt lat="46.81886" lon="2.59793">
        <ele>177.39999389648</ele>
        <time>2022-06-22T06:37:14.000Z</time>
      </trkpt>
      <trkpt lat="46.81915" lon="2.59741">
        <ele>176.19999694824</ele>
        <time>2022-06-22T06:37:21.000Z</time>
      </trkpt>
      <trkpt lat="46.81937" lon="2.59699">
        <ele>174.19999694824</ele>
        <time>2022-06-22T06:37:27.000Z</time>
      </trkpt>
      <trkpt lat="46.81972" lon="2.59636">
        <ele>174.80000305176</ele>
        <time>2022-06-22T06:37:36.000Z</time>
      </trkpt>
      <trkpt lat="46.82003" lon="2.59581">
        <ele>173.80000305176</ele>
        <time>2022-06-22T06:37:43.000Z</time>
      </trkpt>
      <trkpt lat="46.82034" lon="2.59524">
        <ele>173</ele>
        <time>2022-06-22T06:37:50.000Z</time>
      </trkpt>
      <trkpt lat="46.82054" lon="2.59489">
        <ele>171.39999389648</ele>
        <time>2022-06-22T06:37:54.000Z</time>
      </trkpt>
      <trkpt lat="46.82071" lon="2.5946">
        <ele>170.80000305176</ele>
        <time>2022-06-22T06:37:57.000Z</time>
      </trkpt>
      <trkpt lat="46.82083" lon="2.59441">
        <ele>170.19999694824</ele>
        <time>2022-06-22T06:37:59.000Z</time>
      </trkpt>
      <trkpt lat="46.82103" lon="2.59413">
        <ele>168.80000305176</ele>
        <time>2022-06-22T06:38:02.000Z</time>
      </trkpt>
      <trkpt lat="46.8211" lon="2.59403">
        <ele>168</ele>
        <time>2022-06-22T06:38:03.000Z</time>
      </trkpt>
      <trkpt lat="46.82123" lon="2.59383">
        <ele>167.19999694824</ele>
        <time>2022-06-22T06:38:05.000Z</time>
      </trkpt>
      <trkpt lat="46.82137" lon="2.59364">
        <ele>166</ele>
        <time>2022-06-22T06:38:07.000Z</time>
      </trkpt>
      <trkpt lat="46.82144" lon="2.59354">
        <ele>165.60000610352</ele>
        <time>2022-06-22T06:38:08.000Z</time>
      </trkpt>
      <trkpt lat="46.82163" lon="2.59328">
        <ele>164.80000305176</ele>
        <time>2022-06-22T06:38:11.000Z</time>
      </trkpt>
      <trkpt lat="46.82181" lon="2.59303">
        <ele>164.19999694824</ele>
        <time>2022-06-22T06:38:14.000Z</time>
      </trkpt>
      <trkpt lat="46.82217" lon="2.5925">
        <ele>165</ele>
        <time>2022-06-22T06:38:21.000Z</time>
      </trkpt>
      <trkpt lat="46.82221" lon="2.59241">
        <ele>165.19999694824</ele>
        <time>2022-06-22T06:38:22.000Z</time>
      </trkpt>
      <trkpt lat="46.8223" lon="2.59216">
        <ele>166.80000305176</ele>
        <time>2022-06-22T06:38:25.000Z</time>
      </trkpt>
      <trkpt lat="46.82243" lon="2.59166">
        <ele>168.39999389648</ele>
        <time>2022-06-22T06:38:31.000Z</time>
      </trkpt>
      <trkpt lat="46.82253" lon="2.59125">
        <ele>168.19999694824</ele>
        <time>2022-06-22T06:38:36.000Z</time>
      </trkpt>
      <trkpt lat="46.82257" lon="2.59108">
        <ele>168</ele>
        <time>2022-06-22T06:38:38.000Z</time>
      </trkpt>
      <trkpt lat="46.82261" lon="2.59092">
        <ele>168</ele>
        <time>2022-06-22T06:38:40.000Z</time>
      </trkpt>
      <trkpt lat="46.8227" lon="2.59052">
        <ele>169.39999389648</ele>
        <time>2022-06-22T06:38:45.000Z</time>
      </trkpt>
      <trkpt lat="46.82282" lon="2.59006">
        <ele>170</ele>
        <time>2022-06-22T06:38:51.000Z</time>
      </trkpt>
      <trkpt lat="46.82284" lon="2.58998">
        <ele>170</ele>
        <time>2022-06-22T06:38:52.000Z</time>
      </trkpt>
      <trkpt lat="46.82297" lon="2.58948">
        <ele>171</ele>
        <time>2022-06-22T06:38:59.000Z</time>
      </trkpt>
      <trkpt lat="46.82304" lon="2.58922">
        <ele>171.80000305176</ele>
        <time>2022-06-22T06:39:03.000Z</time>
      </trkpt>
      <trkpt lat="46.82305" lon="2.58915">
        <ele>172.19999694824</ele>
        <time>2022-06-22T06:39:04.000Z</time>
      </trkpt>
      <trkpt lat="46.82307" lon="2.58901">
        <ele>172.60000610352</ele>
        <time>2022-06-22T06:39:06.000Z</time>
      </trkpt>
      <trkpt lat="46.82308" lon="2.5888">
        <ele>173.60000610352</ele>
        <time>2022-06-22T06:39:09.000Z</time>
      </trkpt>
      <trkpt lat="46.82308" lon="2.58873">
        <ele>174</ele>
        <time>2022-06-22T06:39:10.000Z</time>
      </trkpt>
      <trkpt lat="46.82307" lon="2.58866">
        <ele>174.19999694824</ele>
        <time>2022-06-22T06:39:11.000Z</time>
      </trkpt>
      <trkpt lat="46.82305" lon="2.58859">
        <ele>174.60000610352</ele>
        <time>2022-06-22T06:39:12.000Z</time>
      </trkpt>
      <trkpt lat="46.82299" lon="2.58836">
        <ele>176</ele>
        <time>2022-06-22T06:39:15.000Z</time>
      </trkpt>
      <trkpt lat="46.82295" lon="2.58821">
        <ele>176.60000610352</ele>
        <time>2022-06-22T06:39:17.000Z</time>
      </trkpt>
      <trkpt lat="46.82284" lon="2.58786">
        <ele>178.39999389648</ele>
        <time>2022-06-22T06:39:22.000Z</time>
      </trkpt>
      <trkpt lat="46.82275" lon="2.58756">
        <ele>178.60000610352</ele>
        <time>2022-06-22T06:39:26.000Z</time>
      </trkpt>
      <trkpt lat="46.82253" lon="2.58677">
        <ele>177.60000610352</ele>
        <time>2022-06-22T06:39:37.000Z</time>
      </trkpt>
      <trkpt lat="46.82241" lon="2.58631">
        <ele>175.19999694824</ele>
        <time>2022-06-22T06:39:43.000Z</time>
      </trkpt>
      <trkpt lat="46.82231" lon="2.5859">
        <ele>175</ele>
        <time>2022-06-22T06:39:48.000Z</time>
      </trkpt>
      <trkpt lat="46.82216" lon="2.58532">
        <ele>175</ele>
        <time>2022-06-22T06:39:55.000Z</time>
      </trkpt>
      <trkpt lat="46.82198" lon="2.58462">
        <ele>174.60000610352</ele>
        <time>2022-06-22T06:40:03.000Z</time>
      </trkpt>
      <trkpt lat="46.82179" lon="2.58386">
        <ele>175.80000305176</ele>
        <time>2022-06-22T06:40:12.000Z</time>
      </trkpt>
      <trkpt lat="46.82177" lon="2.58378">
        <ele>176</ele>
        <time>2022-06-22T06:40:13.000Z</time>
      </trkpt>
      <trkpt lat="46.82164" lon="2.58323">
        <ele>177</ele>
        <time>2022-06-22T06:40:20.000Z</time>
      </trkpt>
      <trkpt lat="46.82149" lon="2.58258">
        <ele>178</ele>
        <time>2022-06-22T06:40:28.000Z</time>
      </trkpt>
      <trkpt lat="46.82136" lon="2.58192">
        <ele>180.39999389648</ele>
        <time>2022-06-22T06:40:35.000Z</time>
      </trkpt>
      <trkpt lat="46.82127" lon="2.58151">
        <ele>180.19999694824</ele>
        <time>2022-06-22T06:40:39.000Z</time>
      </trkpt>
      <trkpt lat="46.8212" lon="2.58119">
        <ele>180</ele>
        <time>2022-06-22T06:40:42.000Z</time>
      </trkpt>
      <trkpt lat="46.82118" lon="2.58108">
        <ele>179.80000305176</ele>
        <time>2022-06-22T06:40:43.000Z</time>
      </trkpt>
      <trkpt lat="46.82107" lon="2.58053">
        <ele>179.60000610352</ele>
        <time>2022-06-22T06:40:48.000Z</time>
      </trkpt>
      <trkpt lat="46.82104" lon="2.58043">
        <ele>179.39999389648</ele>
        <time>2022-06-22T06:40:49.000Z</time>
      </trkpt>
      <trkpt lat="46.82102" lon="2.58032">
        <ele>179.39999389648</ele>
        <time>2022-06-22T06:40:50.000Z</time>
      </trkpt>
      <trkpt lat="46.82092" lon="2.57991">
        <ele>179</ele>
        <time>2022-06-22T06:40:54.000Z</time>
      </trkpt>
      <trkpt lat="46.8209" lon="2.57981">
        <ele>178.80000305176</ele>
        <time>2022-06-22T06:40:55.000Z</time>
      </trkpt>
      <trkpt lat="46.82081" lon="2.5794">
        <ele>177.80000305176</ele>
        <time>2022-06-22T06:40:59.000Z</time>
      </trkpt>
      <trkpt lat="46.82074" lon="2.57896">
        <ele>178.39999389648</ele>
        <time>2022-06-22T06:41:04.000Z</time>
      </trkpt>
      <trkpt lat="46.82065" lon="2.57847">
        <ele>179.60000610352</ele>
        <time>2022-06-22T06:41:10.000Z</time>
      </trkpt>
      <trkpt lat="46.82057" lon="2.578">
        <ele>180.19999694824</ele>
        <time>2022-06-22T06:41:16.000Z</time>
      </trkpt>
      <trkpt lat="46.82054" lon="2.57784">
        <ele>180.80000305176</ele>
        <time>2022-06-22T06:41:18.000Z</time>
      </trkpt>
      <trkpt lat="46.82046" lon="2.57752">
        <ele>181</ele>
        <time>2022-06-22T06:41:22.000Z</time>
      </trkpt>
      <trkpt lat="46.82037" lon="2.57717">
        <ele>181</ele>
        <time>2022-06-22T06:41:26.000Z</time>
      </trkpt>
      <trkpt lat="46.82032" lon="2.57699">
        <ele>181</ele>
        <time>2022-06-22T06:41:28.000Z</time>
      </trkpt>
      <trkpt lat="46.82019" lon="2.57635">
        <ele>180.80000305176</ele>
        <time>2022-06-22T06:41:35.000Z</time>
      </trkpt>
      <trkpt lat="46.82007" lon="2.57578">
        <ele>178.80000305176</ele>
        <time>2022-06-22T06:41:41.000Z</time>
      </trkpt>
      <trkpt lat="46.82004" lon="2.57569">
        <ele>178.60000610352</ele>
        <time>2022-06-22T06:41:42.000Z</time>
      </trkpt>
      <trkpt lat="46.81994" lon="2.57533">
        <ele>177</ele>
        <time>2022-06-22T06:41:46.000Z</time>
      </trkpt>
      <trkpt lat="46.81992" lon="2.57525">
        <ele>176.80000305176</ele>
        <time>2022-06-22T06:41:47.000Z</time>
      </trkpt>
      <trkpt lat="46.8199" lon="2.57505">
        <ele>176.60000610352</ele>
        <time>2022-06-22T06:41:49.000Z</time>
      </trkpt>
      <trkpt lat="46.81987" lon="2.57486">
        <ele>176.39999389648</ele>
        <time>2022-06-22T06:41:51.000Z</time>
      </trkpt>
      <trkpt lat="46.81982" lon="2.57458">
        <ele>176</ele>
        <time>2022-06-22T06:41:54.000Z</time>
      </trkpt>
      <trkpt lat="46.81981" lon="2.57449">
        <ele>176</ele>
        <time>2022-06-22T06:41:55.000Z</time>
      </trkpt>
      <trkpt lat="46.81969" lon="2.57403">
        <ele>176.60000610352</ele>
        <time>2022-06-22T06:42:00.000Z</time>
      </trkpt>
      <trkpt lat="46.81955" lon="2.57342">
        <ele>177</ele>
        <time>2022-06-22T06:42:06.000Z</time>
      </trkpt>
      <trkpt lat="46.81951" lon="2.57323">
        <ele>177.19999694824</ele>
        <time>2022-06-22T06:42:08.000Z</time>
      </trkpt>
      <trkpt lat="46.81946" lon="2.57291">
        <ele>177.80000305176</ele>
        <time>2022-06-22T06:42:12.000Z</time>
      </trkpt>
      <trkpt lat="46.8194" lon="2.57273">
        <ele>177.80000305176</ele>
        <time>2022-06-22T06:42:14.000Z</time>
      </trkpt>
      <trkpt lat="46.81938" lon="2.57252">
        <ele>178.39999389648</ele>
        <time>2022-06-22T06:42:17.000Z</time>
      </trkpt>
      <trkpt lat="46.81936" lon="2.57237">
        <ele>178.60000610352</ele>
        <time>2022-06-22T06:42:19.000Z</time>
      </trkpt>
      <trkpt lat="46.8193" lon="2.5721">
        <ele>178.80000305176</ele>
        <time>2022-06-22T06:42:22.000Z</time>
      </trkpt>
      <trkpt lat="46.81925" lon="2.57183">
        <ele>179.39999389648</ele>
        <time>2022-06-22T06:42:25.000Z</time>
      </trkpt>
      <trkpt lat="46.8192" lon="2.57154">
        <ele>179.39999389648</ele>
        <time>2022-06-22T06:42:28.000Z</time>
      </trkpt>
      <trkpt lat="46.81918" lon="2.57144">
        <ele>179.19999694824</ele>
        <time>2022-06-22T06:42:29.000Z</time>
      </trkpt>
      <trkpt lat="46.81907" lon="2.57103">
        <ele>179</ele>
        <time>2022-06-22T06:42:33.000Z</time>
      </trkpt>
      <trkpt lat="46.81903" lon="2.57081">
        <ele>179</ele>
        <time>2022-06-22T06:42:35.000Z</time>
      </trkpt>
      <trkpt lat="46.819" lon="2.5706">
        <ele>179</ele>
        <time>2022-06-22T06:42:37.000Z</time>
      </trkpt>
      <trkpt lat="46.81886" lon="2.57011">
        <ele>179.80000305176</ele>
        <time>2022-06-22T06:42:42.000Z</time>
      </trkpt>
      <trkpt lat="46.81883" lon="2.56991">
        <ele>179.80000305176</ele>
        <time>2022-06-22T06:42:44.000Z</time>
      </trkpt>
      <trkpt lat="46.81879" lon="2.56961">
        <ele>179.60000610352</ele>
        <time>2022-06-22T06:42:47.000Z</time>
      </trkpt>
      <trkpt lat="46.81868" lon="2.56937">
        <ele>180.19999694824</ele>
        <time>2022-06-22T06:42:49.000Z</time>
      </trkpt>
      <trkpt lat="46.81865" lon="2.56915">
        <ele>180.19999694824</ele>
        <time>2022-06-22T06:42:51.000Z</time>
      </trkpt>
      <trkpt lat="46.81858" lon="2.5689">
        <ele>180.39999389648</ele>
        <time>2022-06-22T06:42:54.000Z</time>
      </trkpt>
      <trkpt lat="46.81858" lon="2.56864">
        <ele>180</ele>
        <time>2022-06-22T06:42:57.000Z</time>
      </trkpt>
      <trkpt lat="46.81851" lon="2.56847">
        <ele>180.39999389648</ele>
        <time>2022-06-22T06:42:59.000Z</time>
      </trkpt>
      <trkpt lat="46.81849" lon="2.56831">
        <ele>180.39999389648</ele>
        <time>2022-06-22T06:43:01.000Z</time>
      </trkpt>
      <trkpt lat="46.81847" lon="2.56813">
        <ele>179.80000305176</ele>
        <time>2022-06-22T06:43:03.000Z</time>
      </trkpt>
      <trkpt lat="46.8184" lon="2.56789">
        <ele>179.39999389648</ele>
        <time>2022-06-22T06:43:06.000Z</time>
      </trkpt>
      <trkpt lat="46.81835" lon="2.5677">
        <ele>179.19999694824</ele>
        <time>2022-06-22T06:43:08.000Z</time>
      </trkpt>
      <trkpt lat="46.81833" lon="2.56742">
        <ele>178.60000610352</ele>
        <time>2022-06-22T06:43:11.000Z</time>
      </trkpt>
      <trkpt lat="46.81829" lon="2.56732">
        <ele>178.19999694824</ele>
        <time>2022-06-22T06:43:12.000Z</time>
      </trkpt>
      <trkpt lat="46.81821" lon="2.56688">
        <ele>176.19999694824</ele>
        <time>2022-06-22T06:43:16.000Z</time>
      </trkpt>
      <trkpt lat="46.81814" lon="2.56662">
        <ele>175</ele>
        <time>2022-06-22T06:43:18.000Z</time>
      </trkpt>
      <trkpt lat="46.81806" lon="2.56628">
        <ele>175</ele>
        <time>2022-06-22T06:43:21.000Z</time>
      </trkpt>
      <trkpt lat="46.81797" lon="2.56596">
        <ele>175</ele>
        <time>2022-06-22T06:43:24.000Z</time>
      </trkpt>
      <trkpt lat="46.81793" lon="2.56576">
        <ele>174.80000305176</ele>
        <time>2022-06-22T06:43:26.000Z</time>
      </trkpt>
      <trkpt lat="46.81787" lon="2.56555">
        <ele>174</ele>
        <time>2022-06-22T06:43:28.000Z</time>
      </trkpt>
      <trkpt lat="46.81775" lon="2.56515">
        <ele>173.39999389648</ele>
        <time>2022-06-22T06:43:32.000Z</time>
      </trkpt>
      <trkpt lat="46.81768" lon="2.56503">
        <ele>173.39999389648</ele>
        <time>2022-06-22T06:43:33.000Z</time>
      </trkpt>
      <trkpt lat="46.81764" lon="2.56493">
        <ele>173.39999389648</ele>
        <time>2022-06-22T06:43:34.000Z</time>
      </trkpt>
      <trkpt lat="46.8175" lon="2.56462">
        <ele>173.60000610352</ele>
        <time>2022-06-22T06:43:38.000Z</time>
      </trkpt>
      <trkpt lat="46.81747" lon="2.56454">
        <ele>173.80000305176</ele>
        <time>2022-06-22T06:43:39.000Z</time>
      </trkpt>
      <trkpt lat="46.81735" lon="2.5642">
        <ele>173.80000305176</ele>
        <time>2022-06-22T06:43:44.000Z</time>
      </trkpt>
      <trkpt lat="46.81732" lon="2.56414">
        <ele>173.80000305176</ele>
        <time>2022-06-22T06:43:45.000Z</time>
      </trkpt>
      <trkpt lat="46.81726" lon="2.56399">
        <ele>173.39999389648</ele>
        <time>2022-06-22T06:43:47.000Z</time>
      </trkpt>
      <trkpt lat="46.81713" lon="2.5638">
        <ele>173.19999694824</ele>
        <time>2022-06-22T06:43:50.000Z</time>
      </trkpt>
      <trkpt lat="46.8169" lon="2.56353">
        <ele>173.19999694824</ele>
        <time>2022-06-22T06:43:54.000Z</time>
      </trkpt>
      <trkpt lat="46.81685" lon="2.56347">
        <ele>173.19999694824</ele>
        <time>2022-06-22T06:43:55.000Z</time>
      </trkpt>
      <trkpt lat="46.81659" lon="2.56308">
        <ele>173.60000610352</ele>
        <time>2022-06-22T06:44:00.000Z</time>
      </trkpt>
      <trkpt lat="46.81654" lon="2.56299">
        <ele>173.80000305176</ele>
        <time>2022-06-22T06:44:01.000Z</time>
      </trkpt>
      <trkpt lat="46.81628" lon="2.56256">
        <ele>174.60000610352</ele>
        <time>2022-06-22T06:44:07.000Z</time>
      </trkpt>
      <trkpt lat="46.81612" lon="2.56232">
        <ele>174.60000610352</ele>
        <time>2022-06-22T06:44:10.000Z</time>
      </trkpt>
      <trkpt lat="46.81605" lon="2.5622">
        <ele>174.39999389648</ele>
        <time>2022-06-22T06:44:12.000Z</time>
      </trkpt>
      <trkpt lat="46.81597" lon="2.56209">
        <ele>174.19999694824</ele>
        <time>2022-06-22T06:44:14.000Z</time>
      </trkpt>
      <trkpt lat="46.81578" lon="2.56185">
        <ele>174.19999694824</ele>
        <time>2022-06-22T06:44:18.000Z</time>
      </trkpt>
      <trkpt lat="46.81566" lon="2.56166">
        <ele>173.80000305176</ele>
        <time>2022-06-22T06:44:21.000Z</time>
      </trkpt>
      <trkpt lat="46.81559" lon="2.56154">
        <ele>173.80000305176</ele>
        <time>2022-06-22T06:44:23.000Z</time>
      </trkpt>
      <trkpt lat="46.81554" lon="2.56148">
        <ele>174</ele>
        <time>2022-06-22T06:44:24.000Z</time>
      </trkpt>
      <trkpt lat="46.81542" lon="2.56132">
        <ele>174.39999389648</ele>
        <time>2022-06-22T06:44:27.000Z</time>
      </trkpt>
      <trkpt lat="46.81531" lon="2.56121">
        <ele>174.39999389648</ele>
        <time>2022-06-22T06:44:29.000Z</time>
      </trkpt>
      <trkpt lat="46.81512" lon="2.56092">
        <ele>174.19999694824</ele>
        <time>2022-06-22T06:44:34.000Z</time>
      </trkpt>
      <trkpt lat="46.81495" lon="2.5607">
        <ele>174.39999389648</ele>
        <time>2022-06-22T06:44:38.000Z</time>
      </trkpt>
      <trkpt lat="46.81491" lon="2.56064">
        <ele>174.60000610352</ele>
        <time>2022-06-22T06:44:39.000Z</time>
      </trkpt>
      <trkpt lat="46.81474" lon="2.56042">
        <ele>175.39999389648</ele>
        <time>2022-06-22T06:44:43.000Z</time>
      </trkpt>
      <trkpt lat="46.81466" lon="2.5603">
        <ele>176</ele>
        <time>2022-06-22T06:44:45.000Z</time>
      </trkpt>
      <trkpt lat="46.81455" lon="2.56012">
        <ele>176.19999694824</ele>
        <time>2022-06-22T06:44:48.000Z</time>
      </trkpt>
      <trkpt lat="46.81449" lon="2.56">
        <ele>176</ele>
        <time>2022-06-22T06:44:50.000Z</time>
      </trkpt>
      <trkpt lat="46.81441" lon="2.55988">
        <ele>175.39999389648</ele>
        <time>2022-06-22T06:44:52.000Z</time>
      </trkpt>
      <trkpt lat="46.81436" lon="2.55982">
        <ele>175.19999694824</ele>
        <time>2022-06-22T06:44:53.000Z</time>
      </trkpt>
      <trkpt lat="46.81413" lon="2.55952">
        <ele>175.19999694824</ele>
        <time>2022-06-22T06:44:58.000Z</time>
      </trkpt>
      <trkpt lat="46.81386" lon="2.5591">
        <ele>177</ele>
        <time>2022-06-22T06:45:05.000Z</time>
      </trkpt>
      <trkpt lat="46.81381" lon="2.55899">
        <ele>177</ele>
        <time>2022-06-22T06:45:07.000Z</time>
      </trkpt>
      <trkpt lat="46.81378" lon="2.55895">
        <ele>177.39999389648</ele>
        <time>2022-06-22T06:45:08.000Z</time>
      </trkpt>
      <trkpt lat="46.81361" lon="2.55876">
        <ele>178.19999694824</ele>
        <time>2022-06-22T06:45:11.000Z</time>
      </trkpt>
      <trkpt lat="46.8134" lon="2.55848">
        <ele>178.60000610352</ele>
        <time>2022-06-22T06:45:16.000Z</time>
      </trkpt>
      <trkpt lat="46.81336" lon="2.55844">
        <ele>178.80000305176</ele>
        <time>2022-06-22T06:45:17.000Z</time>
      </trkpt>
      <trkpt lat="46.81327" lon="2.55835">
        <ele>179</ele>
        <time>2022-06-22T06:45:19.000Z</time>
      </trkpt>
      <trkpt lat="46.81309" lon="2.55814">
        <ele>179.60000610352</ele>
        <time>2022-06-22T06:45:23.000Z</time>
      </trkpt>
      <trkpt lat="46.81294" lon="2.55793">
        <ele>179.39999389648</ele>
        <time>2022-06-22T06:45:27.000Z</time>
      </trkpt>
      <trkpt lat="46.81286" lon="2.55777">
        <ele>179</ele>
        <time>2022-06-22T06:45:30.000Z</time>
      </trkpt>
      <trkpt lat="46.81278" lon="2.55766">
        <ele>179</ele>
        <time>2022-06-22T06:45:32.000Z</time>
      </trkpt>
      <trkpt lat="46.8126" lon="2.55743">
        <ele>179</ele>
        <time>2022-06-22T06:45:36.000Z</time>
      </trkpt>
      <trkpt lat="46.8125" lon="2.55726">
        <ele>179.39999389648</ele>
        <time>2022-06-22T06:45:39.000Z</time>
      </trkpt>
      <trkpt lat="46.81241" lon="2.55717">
        <ele>179.80000305176</ele>
        <time>2022-06-22T06:45:41.000Z</time>
      </trkpt>
      <trkpt lat="46.81232" lon="2.55707">
        <ele>180.60000610352</ele>
        <time>2022-06-22T06:45:43.000Z</time>
      </trkpt>
      <trkpt lat="46.81211" lon="2.55679">
        <ele>182.39999389648</ele>
        <time>2022-06-22T06:45:48.000Z</time>
      </trkpt>
      <trkpt lat="46.81207" lon="2.55673">
        <ele>182.80000305176</ele>
        <time>2022-06-22T06:45:49.000Z</time>
      </trkpt>
      <trkpt lat="46.812" lon="2.55661">
        <ele>182.80000305176</ele>
        <time>2022-06-22T06:45:51.000Z</time>
      </trkpt>
      <trkpt lat="46.81192" lon="2.55651">
        <ele>182.60000610352</ele>
        <time>2022-06-22T06:45:53.000Z</time>
      </trkpt>
      <trkpt lat="46.81184" lon="2.55641">
        <ele>182.39999389648</ele>
        <time>2022-06-22T06:45:55.000Z</time>
      </trkpt>
      <trkpt lat="46.81181" lon="2.55636">
        <ele>182</ele>
        <time>2022-06-22T06:45:56.000Z</time>
      </trkpt>
      <trkpt lat="46.81172" lon="2.5562">
        <ele>181</ele>
        <time>2022-06-22T06:45:59.000Z</time>
      </trkpt>
      <trkpt lat="46.81165" lon="2.55607">
        <ele>180.39999389648</ele>
        <time>2022-06-22T06:46:01.000Z</time>
      </trkpt>
      <trkpt lat="46.81161" lon="2.556">
        <ele>180.39999389648</ele>
        <time>2022-06-22T06:46:02.000Z</time>
      </trkpt>
      <trkpt lat="46.81155" lon="2.55587">
        <ele>180.19999694824</ele>
        <time>2022-06-22T06:46:04.000Z</time>
      </trkpt>
      <trkpt lat="46.81149" lon="2.55567">
        <ele>180.60000610352</ele>
        <time>2022-06-22T06:46:07.000Z</time>
      </trkpt>
      <trkpt lat="46.81145" lon="2.5556">
        <ele>180.80000305176</ele>
        <time>2022-06-22T06:46:08.000Z</time>
      </trkpt>
      <trkpt lat="46.81142" lon="2.55552">
        <ele>181</ele>
        <time>2022-06-22T06:46:09.000Z</time>
      </trkpt>
      <trkpt lat="46.81134" lon="2.55539">
        <ele>181.19999694824</ele>
        <time>2022-06-22T06:46:11.000Z</time>
      </trkpt>
      <trkpt lat="46.81128" lon="2.55532">
        <ele>181.19999694824</ele>
        <time>2022-06-22T06:46:12.000Z</time>
      </trkpt>
      <trkpt lat="46.81111" lon="2.55494">
        <ele>181.80000305176</ele>
        <time>2022-06-22T06:46:17.000Z</time>
      </trkpt>
      <trkpt lat="46.81107" lon="2.55488">
        <ele>182</ele>
        <time>2022-06-22T06:46:18.000Z</time>
      </trkpt>
      <trkpt lat="46.811" lon="2.55471">
        <ele>182.60000610352</ele>
        <time>2022-06-22T06:46:21.000Z</time>
      </trkpt>
      <trkpt lat="46.81094" lon="2.55458">
        <ele>183.19999694824</ele>
        <time>2022-06-22T06:46:23.000Z</time>
      </trkpt>
      <trkpt lat="46.81089" lon="2.55445">
        <ele>184</ele>
        <time>2022-06-22T06:46:25.000Z</time>
      </trkpt>
      <trkpt lat="46.81078" lon="2.55418">
        <ele>185</ele>
        <time>2022-06-22T06:46:29.000Z</time>
      </trkpt>
      <trkpt lat="46.8107" lon="2.55398">
        <ele>185.80000305176</ele>
        <time>2022-06-22T06:46:32.000Z</time>
      </trkpt>
      <trkpt lat="46.81065" lon="2.55384">
        <ele>186</ele>
        <time>2022-06-22T06:46:34.000Z</time>
      </trkpt>
      <trkpt lat="46.81059" lon="2.5537">
        <ele>185.80000305176</ele>
        <time>2022-06-22T06:46:36.000Z</time>
      </trkpt>
      <trkpt lat="46.81056" lon="2.55363">
        <ele>185.80000305176</ele>
        <time>2022-06-22T06:46:37.000Z</time>
      </trkpt>
      <trkpt lat="46.81053" lon="2.55356">
        <ele>185.60000610352</ele>
        <time>2022-06-22T06:46:38.000Z</time>
      </trkpt>
      <trkpt lat="46.81047" lon="2.55344">
        <ele>185.39999389648</ele>
        <time>2022-06-22T06:46:40.000Z</time>
      </trkpt>
      <trkpt lat="46.81045" lon="2.55337">
        <ele>185.19999694824</ele>
        <time>2022-06-22T06:46:41.000Z</time>
      </trkpt>
      <trkpt lat="46.81038" lon="2.55317">
        <ele>185.60000610352</ele>
        <time>2022-06-22T06:46:44.000Z</time>
      </trkpt>
      <trkpt lat="46.81024" lon="2.55288">
        <ele>185.60000610352</ele>
        <time>2022-06-22T06:46:48.000Z</time>
      </trkpt>
      <trkpt lat="46.81009" lon="2.55258">
        <ele>185</ele>
        <time>2022-06-22T06:46:52.000Z</time>
      </trkpt>
      <trkpt lat="46.80999" lon="2.55242">
        <ele>185</ele>
        <time>2022-06-22T06:46:54.000Z</time>
      </trkpt>
      <trkpt lat="46.80981" lon="2.55208">
        <ele>184.39999389648</ele>
        <time>2022-06-22T06:46:59.000Z</time>
      </trkpt>
      <trkpt lat="46.80973" lon="2.55188">
        <ele>184.19999694824</ele>
        <time>2022-06-22T06:47:02.000Z</time>
      </trkpt>
      <trkpt lat="46.80952" lon="2.55138">
        <ele>184</ele>
        <time>2022-06-22T06:47:09.000Z</time>
      </trkpt>
      <trkpt lat="46.80945" lon="2.55125">
        <ele>184.19999694824</ele>
        <time>2022-06-22T06:47:11.000Z</time>
      </trkpt>
      <trkpt lat="46.80937" lon="2.55105">
        <ele>184.60000610352</ele>
        <time>2022-06-22T06:47:14.000Z</time>
      </trkpt>
      <trkpt lat="46.80927" lon="2.55078">
        <ele>185</ele>
        <time>2022-06-22T06:47:18.000Z</time>
      </trkpt>
      <trkpt lat="46.80918" lon="2.55058">
        <ele>185.60000610352</ele>
        <time>2022-06-22T06:47:21.000Z</time>
      </trkpt>
      <trkpt lat="46.80913" lon="2.55043">
        <ele>186</ele>
        <time>2022-06-22T06:47:23.000Z</time>
      </trkpt>
      <trkpt lat="46.80903" lon="2.55022">
        <ele>186.60000610352</ele>
        <time>2022-06-22T06:47:26.000Z</time>
      </trkpt>
      <trkpt lat="46.80884" lon="2.54985">
        <ele>185.80000305176</ele>
        <time>2022-06-22T06:47:31.000Z</time>
      </trkpt>
      <trkpt lat="46.80877" lon="2.54971">
        <ele>185.60000610352</ele>
        <time>2022-06-22T06:47:33.000Z</time>
      </trkpt>
      <trkpt lat="46.80865" lon="2.54949">
        <ele>185.19999694824</ele>
        <time>2022-06-22T06:47:36.000Z</time>
      </trkpt>
      <trkpt lat="46.80851" lon="2.54918">
        <ele>185.39999389648</ele>
        <time>2022-06-22T06:47:40.000Z</time>
      </trkpt>
      <trkpt lat="46.80845" lon="2.54903">
        <ele>185.80000305176</ele>
        <time>2022-06-22T06:47:42.000Z</time>
      </trkpt>
      <trkpt lat="46.80838" lon="2.5489">
        <ele>186.19999694824</ele>
        <time>2022-06-22T06:47:44.000Z</time>
      </trkpt>
      <trkpt lat="46.80834" lon="2.54883">
        <ele>186.19999694824</ele>
        <time>2022-06-22T06:47:45.000Z</time>
      </trkpt>
      <trkpt lat="46.80822" lon="2.5486">
        <ele>187</ele>
        <time>2022-06-22T06:47:48.000Z</time>
      </trkpt>
      <trkpt lat="46.80815" lon="2.54845">
        <ele>187.60000610352</ele>
        <time>2022-06-22T06:47:50.000Z</time>
      </trkpt>
      <trkpt lat="46.80812" lon="2.54839">
        <ele>187.80000305176</ele>
        <time>2022-06-22T06:47:51.000Z</time>
      </trkpt>
      <trkpt lat="46.8079" lon="2.5478">
        <ele>187.19999694824</ele>
        <time>2022-06-22T06:47:59.000Z</time>
      </trkpt>
      <trkpt lat="46.80766" lon="2.54723">
        <ele>187</ele>
        <time>2022-06-22T06:48:07.000Z</time>
      </trkpt>
      <trkpt lat="46.80761" lon="2.5471">
        <ele>187</ele>
        <time>2022-06-22T06:48:09.000Z</time>
      </trkpt>
      <trkpt lat="46.8074" lon="2.54662">
        <ele>188</ele>
        <time>2022-06-22T06:48:16.000Z</time>
      </trkpt>
      <trkpt lat="46.80713" lon="2.54601">
        <ele>189.19999694824</ele>
        <time>2022-06-22T06:48:25.000Z</time>
      </trkpt>
      <trkpt lat="46.80695" lon="2.54559">
        <ele>188.80000305176</ele>
        <time>2022-06-22T06:48:31.000Z</time>
      </trkpt>
      <trkpt lat="46.80691" lon="2.54552">
        <ele>188.60000610352</ele>
        <time>2022-06-22T06:48:32.000Z</time>
      </trkpt>
      <trkpt lat="46.80686" lon="2.5454">
        <ele>188.39999389648</ele>
        <time>2022-06-22T06:48:34.000Z</time>
      </trkpt>
      <trkpt lat="46.8068" lon="2.54525">
        <ele>188.39999389648</ele>
        <time>2022-06-22T06:48:36.000Z</time>
      </trkpt>
      <trkpt lat="46.80661" lon="2.54482">
        <ele>189.19999694824</ele>
        <time>2022-06-22T06:48:42.000Z</time>
      </trkpt>
      <trkpt lat="46.80639" lon="2.54431">
        <ele>189.80000305176</ele>
        <time>2022-06-22T06:48:49.000Z</time>
      </trkpt>
      <trkpt lat="46.80616" lon="2.54381">
        <ele>190.39999389648</ele>
        <time>2022-06-22T06:48:56.000Z</time>
      </trkpt>
      <trkpt lat="46.80595" lon="2.54332">
        <ele>191.80000305176</ele>
        <time>2022-06-22T06:49:03.000Z</time>
      </trkpt>
      <trkpt lat="46.80572" lon="2.54287">
        <ele>191.39999389648</ele>
        <time>2022-06-22T06:49:09.000Z</time>
      </trkpt>
      <trkpt lat="46.80566" lon="2.54272">
        <ele>190.80000305176</ele>
        <time>2022-06-22T06:49:11.000Z</time>
      </trkpt>
      <trkpt lat="46.80546" lon="2.54226">
        <ele>189.80000305176</ele>
        <time>2022-06-22T06:49:17.000Z</time>
      </trkpt>
      <trkpt lat="46.80543" lon="2.5422">
        <ele>189.39999389648</ele>
        <time>2022-06-22T06:49:18.000Z</time>
      </trkpt>
      <trkpt lat="46.80532" lon="2.54196">
        <ele>188</ele>
        <time>2022-06-22T06:49:21.000Z</time>
      </trkpt>
      <trkpt lat="46.8052" lon="2.54174">
        <ele>187</ele>
        <time>2022-06-22T06:49:24.000Z</time>
      </trkpt>
      <trkpt lat="46.80498" lon="2.5412">
        <ele>185.39999389648</ele>
        <time>2022-06-22T06:49:32.000Z</time>
      </trkpt>
      <trkpt lat="46.80489" lon="2.54111">
        <ele>186</ele>
        <time>2022-06-22T06:49:34.000Z</time>
      </trkpt>
      <trkpt lat="46.80484" lon="2.5411">
        <ele>186.60000610352</ele>
        <time>2022-06-22T06:49:35.000Z</time>
      </trkpt>
      <trkpt lat="46.80478" lon="2.54109">
        <ele>187</ele>
        <time>2022-06-22T06:49:36.000Z</time>
      </trkpt>
      <trkpt lat="46.80457" lon="2.54106">
        <ele>188.39999389648</ele>
        <time>2022-06-22T06:49:40.000Z</time>
      </trkpt>
      <trkpt lat="46.80422" lon="2.54099">
        <ele>188</ele>
        <time>2022-06-22T06:49:46.000Z</time>
      </trkpt>
      <trkpt lat="46.80395" lon="2.54095">
        <ele>188</ele>
        <time>2022-06-22T06:49:51.000Z</time>
      </trkpt>
      <trkpt lat="46.80352" lon="2.54088">
        <ele>185.60000610352</ele>
        <time>2022-06-22T06:49:58.000Z</time>
      </trkpt>
      <trkpt lat="46.80321" lon="2.54082">
        <ele>185.19999694824</ele>
        <time>2022-06-22T06:50:03.000Z</time>
      </trkpt>
      <trkpt lat="46.803" lon="2.54079">
        <ele>185.39999389648</ele>
        <time>2022-06-22T06:50:06.000Z</time>
      </trkpt>
      <trkpt lat="46.80293" lon="2.54077">
        <ele>185.60000610352</ele>
        <time>2022-06-22T06:50:07.000Z</time>
      </trkpt>
      <trkpt lat="46.80258" lon="2.54067">
        <ele>185</ele>
        <time>2022-06-22T06:50:12.000Z</time>
      </trkpt>
      <trkpt lat="46.80253" lon="2.54065">
        <ele>184.80000305176</ele>
        <time>2022-06-22T06:50:13.000Z</time>
      </trkpt>
      <trkpt lat="46.80241" lon="2.54061">
        <ele>184.39999389648</ele>
        <time>2022-06-22T06:50:15.000Z</time>
      </trkpt>
      <trkpt lat="46.80233" lon="2.5405">
        <ele>184</ele>
        <time>2022-06-22T06:50:17.000Z</time>
      </trkpt>
      <trkpt lat="46.80224" lon="2.54036">
        <ele>183.60000610352</ele>
        <time>2022-06-22T06:50:19.000Z</time>
      </trkpt>
      <trkpt lat="46.80212" lon="2.54027">
        <ele>182.80000305176</ele>
        <time>2022-06-22T06:50:21.000Z</time>
      </trkpt>
      <trkpt lat="46.80195" lon="2.5402">
        <ele>182</ele>
        <time>2022-06-22T06:50:24.000Z</time>
      </trkpt>
      <trkpt lat="46.8018" lon="2.54018">
        <ele>181.60000610352</ele>
        <time>2022-06-22T06:50:26.000Z</time>
      </trkpt>
      <trkpt lat="46.8015" lon="2.54019">
        <ele>183.19999694824</ele>
        <time>2022-06-22T06:50:31.000Z</time>
      </trkpt>
      <trkpt lat="46.80145" lon="2.54021">
        <ele>183.19999694824</ele>
        <time>2022-06-22T06:50:32.000Z</time>
      </trkpt>
      <trkpt lat="46.80133" lon="2.54027">
        <ele>183.60000610352</ele>
        <time>2022-06-22T06:50:34.000Z</time>
      </trkpt>
      <trkpt lat="46.8012" lon="2.54039">
        <ele>183.60000610352</ele>
        <time>2022-06-22T06:50:37.000Z</time>
      </trkpt>
      <trkpt lat="46.80095" lon="2.54057">
        <ele>182</ele>
        <time>2022-06-22T06:50:42.000Z</time>
      </trkpt>
      <trkpt lat="46.80085" lon="2.54064">
        <ele>181.39999389648</ele>
        <time>2022-06-22T06:50:44.000Z</time>
      </trkpt>
      <trkpt lat="46.80074" lon="2.54068">
        <ele>181</ele>
        <time>2022-06-22T06:50:46.000Z</time>
      </trkpt>
      <trkpt lat="46.80052" lon="2.54075">
        <ele>179.60000610352</ele>
        <time>2022-06-22T06:50:50.000Z</time>
      </trkpt>
      <trkpt lat="46.80047" lon="2.54079">
        <ele>179.39999389648</ele>
        <time>2022-06-22T06:50:51.000Z</time>
      </trkpt>
      <trkpt lat="46.80043" lon="2.54084">
        <ele>179.19999694824</ele>
        <time>2022-06-22T06:50:52.000Z</time>
      </trkpt>
      <trkpt lat="46.80035" lon="2.54097">
        <ele>178.60000610352</ele>
        <time>2022-06-22T06:50:54.000Z</time>
      </trkpt>
      <trkpt lat="46.80016" lon="2.54149">
        <ele>177.80000305176</ele>
        <time>2022-06-22T06:51:01.000Z</time>
      </trkpt>
      <trkpt lat="46.80006" lon="2.5418">
        <ele>178</ele>
        <time>2022-06-22T06:51:05.000Z</time>
      </trkpt>
      <trkpt lat="46.8" lon="2.54195">
        <ele>178</ele>
        <time>2022-06-22T06:51:07.000Z</time>
      </trkpt>
      <trkpt lat="46.79991" lon="2.54218">
        <ele>178.39999389648</ele>
        <time>2022-06-22T06:51:10.000Z</time>
      </trkpt>
      <trkpt lat="46.79983" lon="2.5423">
        <ele>179</ele>
        <time>2022-06-22T06:51:12.000Z</time>
      </trkpt>
      <trkpt lat="46.79973" lon="2.54238">
        <ele>180</ele>
        <time>2022-06-22T06:51:14.000Z</time>
      </trkpt>
      <trkpt lat="46.79962" lon="2.54242">
        <ele>181</ele>
        <time>2022-06-22T06:51:16.000Z</time>
      </trkpt>
      <trkpt lat="46.79942" lon="2.54244">
        <ele>182.39999389648</ele>
        <time>2022-06-22T06:51:20.000Z</time>
      </trkpt>
      <trkpt lat="46.79937" lon="2.54243">
        <ele>183</ele>
        <time>2022-06-22T06:51:21.000Z</time>
      </trkpt>
      <trkpt lat="46.79931" lon="2.54242">
        <ele>183.39999389648</ele>
        <time>2022-06-22T06:51:22.000Z</time>
      </trkpt>
      <trkpt lat="46.79909" lon="2.5423">
        <ele>183.80000305176</ele>
        <time>2022-06-22T06:51:26.000Z</time>
      </trkpt>
      <trkpt lat="46.79893" lon="2.54219">
        <ele>183.80000305176</ele>
        <time>2022-06-22T06:51:29.000Z</time>
      </trkpt>
      <trkpt lat="46.79877" lon="2.54208">
        <ele>183.80000305176</ele>
        <time>2022-06-22T06:51:32.000Z</time>
      </trkpt>
      <trkpt lat="46.79828" lon="2.54176">
        <ele>185.60000610352</ele>
        <time>2022-06-22T06:51:41.000Z</time>
      </trkpt>
      <trkpt lat="46.79794" lon="2.54137">
        <ele>186</ele>
        <time>2022-06-22T06:51:48.000Z</time>
      </trkpt>
      <trkpt lat="46.79763" lon="2.54098">
        <ele>185.60000610352</ele>
        <time>2022-06-22T06:51:55.000Z</time>
      </trkpt>
      <trkpt lat="46.79759" lon="2.54093">
        <ele>185.60000610352</ele>
        <time>2022-06-22T06:51:56.000Z</time>
      </trkpt>
      <trkpt lat="46.79742" lon="2.54074">
        <ele>185.39999389648</ele>
        <time>2022-06-22T06:52:00.000Z</time>
      </trkpt>
      <trkpt lat="46.79734" lon="2.54066">
        <ele>185.39999389648</ele>
        <time>2022-06-22T06:52:02.000Z</time>
      </trkpt>
      <trkpt lat="46.79719" lon="2.54059">
        <ele>185.60000610352</ele>
        <time>2022-06-22T06:52:05.000Z</time>
      </trkpt>
      <trkpt lat="46.7971" lon="2.54061">
        <ele>186</ele>
        <time>2022-06-22T06:52:07.000Z</time>
      </trkpt>
      <trkpt lat="46.79696" lon="2.5407">
        <ele>187</ele>
        <time>2022-06-22T06:52:10.000Z</time>
      </trkpt>
      <trkpt lat="46.79683" lon="2.54081">
        <ele>187.19999694824</ele>
        <time>2022-06-22T06:52:13.000Z</time>
      </trkpt>
      <trkpt lat="46.79665" lon="2.54098">
        <ele>188</ele>
        <time>2022-06-22T06:52:17.000Z</time>
      </trkpt>
      <trkpt lat="46.79656" lon="2.54105">
        <ele>187.60000610352</ele>
        <time>2022-06-22T06:52:19.000Z</time>
      </trkpt>
      <trkpt lat="46.79642" lon="2.54116">
        <ele>186.80000305176</ele>
        <time>2022-06-22T06:52:22.000Z</time>
      </trkpt>
      <trkpt lat="46.79624" lon="2.54131">
        <ele>186</ele>
        <time>2022-06-22T06:52:26.000Z</time>
      </trkpt>
      <trkpt lat="46.79619" lon="2.54135">
        <ele>185.80000305176</ele>
        <time>2022-06-22T06:52:27.000Z</time>
      </trkpt>
      <trkpt lat="46.79601" lon="2.54149">
        <ele>185.39999389648</ele>
        <time>2022-06-22T06:52:31.000Z</time>
      </trkpt>
      <trkpt lat="46.79597" lon="2.54153">
        <ele>185.39999389648</ele>
        <time>2022-06-22T06:52:32.000Z</time>
      </trkpt>
      <trkpt lat="46.79583" lon="2.54164">
        <ele>185.60000610352</ele>
        <time>2022-06-22T06:52:35.000Z</time>
      </trkpt>
      <trkpt lat="46.79569" lon="2.54173">
        <ele>185.60000610352</ele>
        <time>2022-06-22T06:52:38.000Z</time>
      </trkpt>
      <trkpt lat="46.79559" lon="2.54177">
        <ele>185.39999389648</ele>
        <time>2022-06-22T06:52:40.000Z</time>
      </trkpt>
      <trkpt lat="46.79523" lon="2.54191">
        <ele>185.80000305176</ele>
        <time>2022-06-22T06:52:47.000Z</time>
      </trkpt>
      <trkpt lat="46.79518" lon="2.54192">
        <ele>185.80000305176</ele>
        <time>2022-06-22T06:52:48.000Z</time>
      </trkpt>
      <trkpt lat="46.79513" lon="2.54191">
        <ele>185.80000305176</ele>
        <time>2022-06-22T06:52:49.000Z</time>
      </trkpt>
      <trkpt lat="46.79503" lon="2.54184">
        <ele>186</ele>
        <time>2022-06-22T06:52:51.000Z</time>
      </trkpt>
      <trkpt lat="46.79499" lon="2.54179">
        <ele>186</ele>
        <time>2022-06-22T06:52:52.000Z</time>
      </trkpt>
      <trkpt lat="46.79495" lon="2.54172">
        <ele>186.19999694824</ele>
        <time>2022-06-22T06:52:53.000Z</time>
      </trkpt>
      <trkpt lat="46.79489" lon="2.54162">
        <ele>186.39999389648</ele>
        <time>2022-06-22T06:52:55.000Z</time>
      </trkpt>
      <trkpt lat="46.79469" lon="2.54119">
        <ele>187.39999389648</ele>
        <time>2022-06-22T06:53:02.000Z</time>
      </trkpt>
      <trkpt lat="46.79436" lon="2.54059">
        <ele>187.60000610352</ele>
        <time>2022-06-22T06:53:11.000Z</time>
      </trkpt>
      <trkpt lat="46.79429" lon="2.54048">
        <ele>187.80000305176</ele>
        <time>2022-06-22T06:53:13.000Z</time>
      </trkpt>
      <trkpt lat="46.79419" lon="2.54039">
        <ele>187.80000305176</ele>
        <time>2022-06-22T06:53:15.000Z</time>
      </trkpt>
      <trkpt lat="46.79414" lon="2.54036">
        <ele>187.60000610352</ele>
        <time>2022-06-22T06:53:16.000Z</time>
      </trkpt>
      <trkpt lat="46.79408" lon="2.54034">
        <ele>187.39999389648</ele>
        <time>2022-06-22T06:53:17.000Z</time>
      </trkpt>
      <trkpt lat="46.79397" lon="2.54031">
        <ele>187</ele>
        <time>2022-06-22T06:53:19.000Z</time>
      </trkpt>
      <trkpt lat="46.79392" lon="2.54032">
        <ele>187.39999389648</ele>
        <time>2022-06-22T06:53:20.000Z</time>
      </trkpt>
      <trkpt lat="46.79387" lon="2.54035">
        <ele>187.60000610352</ele>
        <time>2022-06-22T06:53:21.000Z</time>
      </trkpt>
      <trkpt lat="46.79367" lon="2.54047">
        <ele>188.19999694824</ele>
        <time>2022-06-22T06:53:25.000Z</time>
      </trkpt>
      <trkpt lat="46.79356" lon="2.54052">
        <ele>189</ele>
        <time>2022-06-22T06:53:27.000Z</time>
      </trkpt>
      <trkpt lat="46.79345" lon="2.54055">
        <ele>189.80000305176</ele>
        <time>2022-06-22T06:53:29.000Z</time>
      </trkpt>
      <trkpt lat="46.7934" lon="2.54055">
        <ele>190.19999694824</ele>
        <time>2022-06-22T06:53:30.000Z</time>
      </trkpt>
      <trkpt lat="46.79323" lon="2.54055">
        <ele>191.39999389648</ele>
        <time>2022-06-22T06:53:33.000Z</time>
      </trkpt>
      <trkpt lat="46.79313" lon="2.54051">
        <ele>192.19999694824</ele>
        <time>2022-06-22T06:53:35.000Z</time>
      </trkpt>
      <trkpt lat="46.79281" lon="2.54024">
        <ele>192.80000305176</ele>
        <time>2022-06-22T06:53:42.000Z</time>
      </trkpt>
      <trkpt lat="46.79276" lon="2.5402">
        <ele>192.60000610352</ele>
        <time>2022-06-22T06:53:43.000Z</time>
      </trkpt>
      <trkpt lat="46.79248" lon="2.53998">
        <ele>192</ele>
        <time>2022-06-22T06:53:49.000Z</time>
      </trkpt>
      <trkpt lat="46.79233" lon="2.53988">
        <ele>192</ele>
        <time>2022-06-22T06:53:52.000Z</time>
      </trkpt>
      <trkpt lat="46.79228" lon="2.53985">
        <ele>192</ele>
        <time>2022-06-22T06:53:53.000Z</time>
      </trkpt>
      <trkpt lat="46.79194" lon="2.53961">
        <ele>192</ele>
        <time>2022-06-22T06:54:00.000Z</time>
      </trkpt>
      <trkpt lat="46.79173" lon="2.53934">
        <ele>191.60000610352</ele>
        <time>2022-06-22T06:54:05.000Z</time>
      </trkpt>
      <trkpt lat="46.79169" lon="2.53927">
        <ele>191.60000610352</ele>
        <time>2022-06-22T06:54:06.000Z</time>
      </trkpt>
      <trkpt lat="46.7914" lon="2.53876">
        <ele>192.19999694824</ele>
        <time>2022-06-22T06:54:14.000Z</time>
      </trkpt>
      <trkpt lat="46.79107" lon="2.53813">
        <ele>193</ele>
        <time>2022-06-22T06:54:24.000Z</time>
      </trkpt>
      <trkpt lat="46.79104" lon="2.53806">
        <ele>193</ele>
        <time>2022-06-22T06:54:25.000Z</time>
      </trkpt>
      <trkpt lat="46.79093" lon="2.53777">
        <ele>194</ele>
        <time>2022-06-22T06:54:29.000Z</time>
      </trkpt>
      <trkpt lat="46.7909" lon="2.53761">
        <ele>194.60000610352</ele>
        <time>2022-06-22T06:54:31.000Z</time>
      </trkpt>
      <trkpt lat="46.79088" lon="2.53753">
        <ele>195</ele>
        <time>2022-06-22T06:54:32.000Z</time>
      </trkpt>
      <trkpt lat="46.79074" lon="2.53698">
        <ele>195.60000610352</ele>
        <time>2022-06-22T06:54:39.000Z</time>
      </trkpt>
      <trkpt lat="46.7907" lon="2.53684">
        <ele>195.39999389648</ele>
        <time>2022-06-22T06:54:41.000Z</time>
      </trkpt>
      <trkpt lat="46.79057" lon="2.5364">
        <ele>195</ele>
        <time>2022-06-22T06:54:47.000Z</time>
      </trkpt>
      <trkpt lat="46.79041" lon="2.53586">
        <ele>193.80000305176</ele>
        <time>2022-06-22T06:54:54.000Z</time>
      </trkpt>
      <trkpt lat="46.79038" lon="2.53577">
        <ele>194</ele>
        <time>2022-06-22T06:54:55.000Z</time>
      </trkpt>
      <trkpt lat="46.7902" lon="2.53535">
        <ele>195.39999389648</ele>
        <time>2022-06-22T06:55:00.000Z</time>
      </trkpt>
      <trkpt lat="46.78993" lon="2.5347">
        <ele>198.60000610352</ele>
        <time>2022-06-22T06:55:08.000Z</time>
      </trkpt>
      <trkpt lat="46.78971" lon="2.53413">
        <ele>198.60000610352</ele>
        <time>2022-06-22T06:55:15.000Z</time>
      </trkpt>
      <trkpt lat="46.78962" lon="2.53389">
        <ele>198</ele>
        <time>2022-06-22T06:55:18.000Z</time>
      </trkpt>
      <trkpt lat="46.78953" lon="2.53379">
        <ele>197.60000610352</ele>
        <time>2022-06-22T06:55:20.000Z</time>
      </trkpt>
      <trkpt lat="46.78942" lon="2.53378">
        <ele>197.19999694824</ele>
        <time>2022-06-22T06:55:23.000Z</time>
      </trkpt>
      <trkpt lat="46.78932" lon="2.53382">
        <ele>196.39999389648</ele>
        <time>2022-06-22T06:55:26.000Z</time>
      </trkpt>
      <trkpt lat="46.78928" lon="2.53385">
        <ele>196.19999694824</ele>
        <time>2022-06-22T06:55:27.000Z</time>
      </trkpt>
      <trkpt lat="46.78924" lon="2.53389">
        <ele>196</ele>
        <time>2022-06-22T06:55:28.000Z</time>
      </trkpt>
      <trkpt lat="46.78909" lon="2.53409">
        <ele>196</ele>
        <time>2022-06-22T06:55:32.000Z</time>
      </trkpt>
      <trkpt lat="46.78882" lon="2.53444">
        <ele>197</ele>
        <time>2022-06-22T06:55:38.000Z</time>
      </trkpt>
      <trkpt lat="46.78878" lon="2.5345">
        <ele>197</ele>
        <time>2022-06-22T06:55:39.000Z</time>
      </trkpt>
      <trkpt lat="46.78851" lon="2.53486">
        <ele>197.39999389648</ele>
        <time>2022-06-22T06:55:45.000Z</time>
      </trkpt>
      <trkpt lat="46.78812" lon="2.53537">
        <ele>194</ele>
        <time>2022-06-22T06:55:53.000Z</time>
      </trkpt>
      <trkpt lat="46.78802" lon="2.53549">
        <ele>193.60000610352</ele>
        <time>2022-06-22T06:55:55.000Z</time>
      </trkpt>
      <trkpt lat="46.78788" lon="2.53568">
        <ele>193.39999389648</ele>
        <time>2022-06-22T06:55:58.000Z</time>
      </trkpt>
      <trkpt lat="46.78783" lon="2.53574">
        <ele>193.80000305176</ele>
        <time>2022-06-22T06:55:59.000Z</time>
      </trkpt>
      <trkpt lat="46.78769" lon="2.53592">
        <ele>194.80000305176</ele>
        <time>2022-06-22T06:56:02.000Z</time>
      </trkpt>
      <trkpt lat="46.78762" lon="2.53607">
        <ele>196.19999694824</ele>
        <time>2022-06-22T06:56:04.000Z</time>
      </trkpt>
      <trkpt lat="46.78739" lon="2.53672">
        <ele>198</ele>
        <time>2022-06-22T06:56:13.000Z</time>
      </trkpt>
      <trkpt lat="46.78724" lon="2.53714">
        <ele>197.80000305176</ele>
        <time>2022-06-22T06:56:19.000Z</time>
      </trkpt>
      <trkpt lat="46.78717" lon="2.53743">
        <ele>196.60000610352</ele>
        <time>2022-06-22T06:56:23.000Z</time>
      </trkpt>
      <trkpt lat="46.78714" lon="2.53759">
        <ele>196.39999389648</ele>
        <time>2022-06-22T06:56:25.000Z</time>
      </trkpt>
      <trkpt lat="46.78714" lon="2.53814">
        <ele>196.19999694824</ele>
        <time>2022-06-22T06:56:32.000Z</time>
      </trkpt>
      <trkpt lat="46.78718" lon="2.53847">
        <ele>195.60000610352</ele>
        <time>2022-06-22T06:56:36.000Z</time>
      </trkpt>
      <trkpt lat="46.78722" lon="2.53912">
        <ele>195.60000610352</ele>
        <time>2022-06-22T06:56:44.000Z</time>
      </trkpt>
      <trkpt lat="46.78718" lon="2.53961">
        <ele>196.60000610352</ele>
        <time>2022-06-22T06:56:50.000Z</time>
      </trkpt>
      <trkpt lat="46.78716" lon="2.53977">
        <ele>196.60000610352</ele>
        <time>2022-06-22T06:56:52.000Z</time>
      </trkpt>
      <trkpt lat="46.78704" lon="2.54042">
        <ele>198</ele>
        <time>2022-06-22T06:57:00.000Z</time>
      </trkpt>
      <trkpt lat="46.78688" lon="2.54122">
        <ele>199</ele>
        <time>2022-06-22T06:57:10.000Z</time>
      </trkpt>
      <trkpt lat="46.78687" lon="2.5413">
        <ele>199.39999389648</ele>
        <time>2022-06-22T06:57:11.000Z</time>
      </trkpt>
      <trkpt lat="46.78682" lon="2.54172">
        <ele>200.39999389648</ele>
        <time>2022-06-22T06:57:16.000Z</time>
      </trkpt>
      <trkpt lat="46.78681" lon="2.54189">
        <ele>201</ele>
        <time>2022-06-22T06:57:18.000Z</time>
      </trkpt>
      <trkpt lat="46.78681" lon="2.54197">
        <ele>201.39999389648</ele>
        <time>2022-06-22T06:57:19.000Z</time>
      </trkpt>
      <trkpt lat="46.78679" lon="2.54223">
        <ele>201.60000610352</ele>
        <time>2022-06-22T06:57:22.000Z</time>
      </trkpt>
      <trkpt lat="46.78675" lon="2.54246">
        <ele>202</ele>
        <time>2022-06-22T06:57:25.000Z</time>
      </trkpt>
      <trkpt lat="46.78669" lon="2.54267">
        <ele>202.19999694824</ele>
        <time>2022-06-22T06:57:28.000Z</time>
      </trkpt>
      <trkpt lat="46.78667" lon="2.54284">
        <ele>202</ele>
        <time>2022-06-22T06:57:30.000Z</time>
      </trkpt>
      <trkpt lat="46.78666" lon="2.54293">
        <ele>201.80000305176</ele>
        <time>2022-06-22T06:57:31.000Z</time>
      </trkpt>
      <trkpt lat="46.78658" lon="2.54316">
        <ele>201.60000610352</ele>
        <time>2022-06-22T06:57:34.000Z</time>
      </trkpt>
      <trkpt lat="46.78656" lon="2.54324">
        <ele>201.60000610352</ele>
        <time>2022-06-22T06:57:35.000Z</time>
      </trkpt>
      <trkpt lat="46.78653" lon="2.54331">
        <ele>201.80000305176</ele>
        <time>2022-06-22T06:57:36.000Z</time>
      </trkpt>
      <trkpt lat="46.78645" lon="2.54352">
        <ele>202</ele>
        <time>2022-06-22T06:57:39.000Z</time>
      </trkpt>
      <trkpt lat="46.78641" lon="2.54365">
        <ele>202.39999389648</ele>
        <time>2022-06-22T06:57:41.000Z</time>
      </trkpt>
      <trkpt lat="46.78637" lon="2.54378">
        <ele>203.19999694824</ele>
        <time>2022-06-22T06:57:43.000Z</time>
      </trkpt>
      <trkpt lat="46.7863" lon="2.54391">
        <ele>204.19999694824</ele>
        <time>2022-06-22T06:57:45.000Z</time>
      </trkpt>
      <trkpt lat="46.78627" lon="2.54412">
        <ele>204.39999389648</ele>
        <time>2022-06-22T06:57:47.000Z</time>
      </trkpt>
      <trkpt lat="46.78624" lon="2.54421">
        <ele>204.60000610352</ele>
        <time>2022-06-22T06:57:48.000Z</time>
      </trkpt>
      <trkpt lat="46.78614" lon="2.54447">
        <ele>204</ele>
        <time>2022-06-22T06:57:52.000Z</time>
      </trkpt>
      <trkpt lat="46.78612" lon="2.54456">
        <ele>203.60000610352</ele>
        <time>2022-06-22T06:57:53.000Z</time>
      </trkpt>
      <trkpt lat="46.78598" lon="2.54494">
        <ele>203</ele>
        <time>2022-06-22T06:57:58.000Z</time>
      </trkpt>
      <trkpt lat="46.78587" lon="2.54539">
        <ele>203.80000305176</ele>
        <time>2022-06-22T06:58:03.000Z</time>
      </trkpt>
      <trkpt lat="46.78574" lon="2.54581">
        <ele>204</ele>
        <time>2022-06-22T06:58:08.000Z</time>
      </trkpt>
      <trkpt lat="46.78559" lon="2.54624">
        <ele>203</ele>
        <time>2022-06-22T06:58:13.000Z</time>
      </trkpt>
      <trkpt lat="46.78557" lon="2.54634">
        <ele>203</ele>
        <time>2022-06-22T06:58:14.000Z</time>
      </trkpt>
      <trkpt lat="46.7855" lon="2.54658">
        <ele>202.39999389648</ele>
        <time>2022-06-22T06:58:17.000Z</time>
      </trkpt>
      <trkpt lat="46.78547" lon="2.54676">
        <ele>202</ele>
        <time>2022-06-22T06:58:19.000Z</time>
      </trkpt>
      <trkpt lat="46.78543" lon="2.54691">
        <ele>202</ele>
        <time>2022-06-22T06:58:21.000Z</time>
      </trkpt>
      <trkpt lat="46.78535" lon="2.54724">
        <ele>202</ele>
        <time>2022-06-22T06:58:25.000Z</time>
      </trkpt>
      <trkpt lat="46.78518" lon="2.54757">
        <ele>201.39999389648</ele>
        <time>2022-06-22T06:58:29.000Z</time>
      </trkpt>
      <trkpt lat="46.7851" lon="2.54773">
        <ele>201.19999694824</ele>
        <time>2022-06-22T06:58:31.000Z</time>
      </trkpt>
      <trkpt lat="46.78506" lon="2.54783">
        <ele>201</ele>
        <time>2022-06-22T06:58:32.000Z</time>
      </trkpt>
      <trkpt lat="46.78503" lon="2.54793">
        <ele>201</ele>
        <time>2022-06-22T06:58:33.000Z</time>
      </trkpt>
      <trkpt lat="46.7849" lon="2.54852">
        <ele>201</ele>
        <time>2022-06-22T06:58:40.000Z</time>
      </trkpt>
      <trkpt lat="46.78485" lon="2.54867">
        <ele>201</ele>
        <time>2022-06-22T06:58:42.000Z</time>
      </trkpt>
      <trkpt lat="46.78482" lon="2.54885">
        <ele>201.80000305176</ele>
        <time>2022-06-22T06:58:44.000Z</time>
      </trkpt>
      <trkpt lat="46.78482" lon="2.54895">
        <ele>202</ele>
        <time>2022-06-22T06:58:45.000Z</time>
      </trkpt>
      <trkpt lat="46.78468" lon="2.54943">
        <ele>202</ele>
        <time>2022-06-22T06:58:50.000Z</time>
      </trkpt>
      <trkpt lat="46.78466" lon="2.54954">
        <ele>201.60000610352</ele>
        <time>2022-06-22T06:58:51.000Z</time>
      </trkpt>
      <trkpt lat="46.7846" lon="2.54978">
        <ele>201.80000305176</ele>
        <time>2022-06-22T06:58:54.000Z</time>
      </trkpt>
      <trkpt lat="46.78456" lon="2.54987">
        <ele>201.60000610352</ele>
        <time>2022-06-22T06:58:55.000Z</time>
      </trkpt>
      <trkpt lat="46.78455" lon="2.54997">
        <ele>201.19999694824</ele>
        <time>2022-06-22T06:58:56.000Z</time>
      </trkpt>
      <trkpt lat="46.78447" lon="2.55025">
        <ele>200.19999694824</ele>
        <time>2022-06-22T06:59:00.000Z</time>
      </trkpt>
      <trkpt lat="46.78444" lon="2.55032">
        <ele>200</ele>
        <time>2022-06-22T06:59:01.000Z</time>
      </trkpt>
      <trkpt lat="46.78429" lon="2.55079">
        <ele>198.39999389648</ele>
        <time>2022-06-22T06:59:07.000Z</time>
      </trkpt>
      <trkpt lat="46.7842" lon="2.55108">
        <ele>199</ele>
        <time>2022-06-22T06:59:11.000Z</time>
      </trkpt>
      <trkpt lat="46.78412" lon="2.5514">
        <ele>200</ele>
        <time>2022-06-22T06:59:15.000Z</time>
      </trkpt>
      <trkpt lat="46.7841" lon="2.55147">
        <ele>200</ele>
        <time>2022-06-22T06:59:16.000Z</time>
      </trkpt>
      <trkpt lat="46.78406" lon="2.55163">
        <ele>200</ele>
        <time>2022-06-22T06:59:18.000Z</time>
      </trkpt>
      <trkpt lat="46.78404" lon="2.55171">
        <ele>199.80000305176</ele>
        <time>2022-06-22T06:59:19.000Z</time>
      </trkpt>
      <trkpt lat="46.78394" lon="2.55205">
        <ele>199</ele>
        <time>2022-06-22T06:59:23.000Z</time>
      </trkpt>
      <trkpt lat="46.78392" lon="2.55213">
        <ele>199</ele>
        <time>2022-06-22T06:59:24.000Z</time>
      </trkpt>
      <trkpt lat="46.78387" lon="2.55231">
        <ele>198.60000610352</ele>
        <time>2022-06-22T06:59:26.000Z</time>
      </trkpt>
      <trkpt lat="46.78381" lon="2.55249">
        <ele>198.39999389648</ele>
        <time>2022-06-22T06:59:28.000Z</time>
      </trkpt>
      <trkpt lat="46.78379" lon="2.55258">
        <ele>198.19999694824</ele>
        <time>2022-06-22T06:59:29.000Z</time>
      </trkpt>
      <trkpt lat="46.78374" lon="2.55275">
        <ele>198</ele>
        <time>2022-06-22T06:59:31.000Z</time>
      </trkpt>
      <trkpt lat="46.78373" lon="2.55281">
        <ele>198</ele>
        <time>2022-06-22T06:59:32.000Z</time>
      </trkpt>
      <trkpt lat="46.7837" lon="2.55287">
        <ele>198</ele>
        <time>2022-06-22T06:59:33.000Z</time>
      </trkpt>
      <trkpt lat="46.78362" lon="2.55312">
        <ele>198</ele>
        <time>2022-06-22T06:59:36.000Z</time>
      </trkpt>
      <trkpt lat="46.78359" lon="2.55321">
        <ele>198</ele>
        <time>2022-06-22T06:59:37.000Z</time>
      </trkpt>
      <trkpt lat="46.78355" lon="2.55338">
        <ele>198.39999389648</ele>
        <time>2022-06-22T06:59:39.000Z</time>
      </trkpt>
      <trkpt lat="46.78353" lon="2.55346">
        <ele>198.60000610352</ele>
        <time>2022-06-22T06:59:40.000Z</time>
      </trkpt>
      <trkpt lat="46.78347" lon="2.5537">
        <ele>199.60000610352</ele>
        <time>2022-06-22T06:59:43.000Z</time>
      </trkpt>
      <trkpt lat="46.78342" lon="2.55394">
        <ele>198.80000305176</ele>
        <time>2022-06-22T06:59:46.000Z</time>
      </trkpt>
      <trkpt lat="46.78334" lon="2.55432">
        <ele>198</ele>
        <time>2022-06-22T06:59:51.000Z</time>
      </trkpt>
      <trkpt lat="46.78331" lon="2.55441">
        <ele>198</ele>
        <time>2022-06-22T06:59:52.000Z</time>
      </trkpt>
      <trkpt lat="46.78326" lon="2.55448">
        <ele>198</ele>
        <time>2022-06-22T06:59:53.000Z</time>
      </trkpt>
      <trkpt lat="46.78323" lon="2.55455">
        <ele>198.39999389648</ele>
        <time>2022-06-22T06:59:54.000Z</time>
      </trkpt>
      <trkpt lat="46.7832" lon="2.55462">
        <ele>198.60000610352</ele>
        <time>2022-06-22T06:59:55.000Z</time>
      </trkpt>
      <trkpt lat="46.78318" lon="2.55471">
        <ele>198.60000610352</ele>
        <time>2022-06-22T06:59:56.000Z</time>
      </trkpt>
      <trkpt lat="46.78307" lon="2.55516">
        <ele>198.19999694824</ele>
        <time>2022-06-22T07:00:02.000Z</time>
      </trkpt>
      <trkpt lat="46.78306" lon="2.55577">
        <ele>199</ele>
        <time>2022-06-22T07:00:10.000Z</time>
      </trkpt>
      <trkpt lat="46.78301" lon="2.55631">
        <ele>199</ele>
        <time>2022-06-22T07:00:17.000Z</time>
      </trkpt>
      <trkpt lat="46.78294" lon="2.55691">
        <ele>200</ele>
        <time>2022-06-22T07:00:25.000Z</time>
      </trkpt>
      <trkpt lat="46.78293" lon="2.55698">
        <ele>200</ele>
        <time>2022-06-22T07:00:26.000Z</time>
      </trkpt>
      <trkpt lat="46.7828" lon="2.55766">
        <ele>199.80000305176</ele>
        <time>2022-06-22T07:00:35.000Z</time>
      </trkpt>
      <trkpt lat="46.78273" lon="2.55803">
        <ele>200.39999389648</ele>
        <time>2022-06-22T07:00:40.000Z</time>
      </trkpt>
      <trkpt lat="46.7827" lon="2.55828">
        <ele>200</ele>
        <time>2022-06-22T07:00:43.000Z</time>
      </trkpt>
      <trkpt lat="46.78269" lon="2.55897">
        <ele>199.80000305176</ele>
        <time>2022-06-22T07:00:51.000Z</time>
      </trkpt>
      <trkpt lat="46.78265" lon="2.55981">
        <ele>200</ele>
        <time>2022-06-22T07:01:00.000Z</time>
      </trkpt>
      <trkpt lat="46.78264" lon="2.5599">
        <ele>199.60000610352</ele>
        <time>2022-06-22T07:01:01.000Z</time>
      </trkpt>
      <trkpt lat="46.78261" lon="2.56037">
        <ele>199.80000305176</ele>
        <time>2022-06-22T07:01:06.000Z</time>
      </trkpt>
      <trkpt lat="46.7826" lon="2.56054">
        <ele>200</ele>
        <time>2022-06-22T07:01:08.000Z</time>
      </trkpt>
      <trkpt lat="46.7826" lon="2.56063">
        <ele>200.19999694824</ele>
        <time>2022-06-22T07:01:09.000Z</time>
      </trkpt>
      <trkpt lat="46.78258" lon="2.56095">
        <ele>201</ele>
        <time>2022-06-22T07:01:13.000Z</time>
      </trkpt>
      <trkpt lat="46.78257" lon="2.56111">
        <ele>201</ele>
        <time>2022-06-22T07:01:15.000Z</time>
      </trkpt>
      <trkpt lat="46.78257" lon="2.56134">
        <ele>201</ele>
        <time>2022-06-22T07:01:18.000Z</time>
      </trkpt>
      <trkpt lat="46.78256" lon="2.56142">
        <ele>201</ele>
        <time>2022-06-22T07:01:19.000Z</time>
      </trkpt>
      <trkpt lat="46.78252" lon="2.56165">
        <ele>201</ele>
        <time>2022-06-22T07:01:22.000Z</time>
      </trkpt>
      <trkpt lat="46.7825" lon="2.5618">
        <ele>201.39999389648</ele>
        <time>2022-06-22T07:01:24.000Z</time>
      </trkpt>
      <trkpt lat="46.78243" lon="2.56217">
        <ele>201.39999389648</ele>
        <time>2022-06-22T07:01:29.000Z</time>
      </trkpt>
      <trkpt lat="46.78224" lon="2.56294">
        <ele>200.39999389648</ele>
        <time>2022-06-22T07:01:39.000Z</time>
      </trkpt>
      <trkpt lat="46.78203" lon="2.56374">
        <ele>201.39999389648</ele>
        <time>2022-06-22T07:01:49.000Z</time>
      </trkpt>
      <trkpt lat="46.78183" lon="2.56444">
        <ele>201.80000305176</ele>
        <time>2022-06-22T07:01:58.000Z</time>
      </trkpt>
      <trkpt lat="46.78178" lon="2.56459">
        <ele>201.60000610352</ele>
        <time>2022-06-22T07:02:00.000Z</time>
      </trkpt>
      <trkpt lat="46.78154" lon="2.56523">
        <ele>200.19999694824</ele>
        <time>2022-06-22T07:02:09.000Z</time>
      </trkpt>
      <trkpt lat="46.78139" lon="2.56569">
        <ele>198.80000305176</ele>
        <time>2022-06-22T07:02:15.000Z</time>
      </trkpt>
      <trkpt lat="46.78136" lon="2.56583">
        <ele>198.80000305176</ele>
        <time>2022-06-22T07:02:17.000Z</time>
      </trkpt>
      <trkpt lat="46.78123" lon="2.56661">
        <ele>201.39999389648</ele>
        <time>2022-06-22T07:02:26.000Z</time>
      </trkpt>
      <trkpt lat="46.78111" lon="2.56735">
        <ele>202.80000305176</ele>
        <time>2022-06-22T07:02:34.000Z</time>
      </trkpt>
      <trkpt lat="46.78098" lon="2.56814">
        <ele>200.39999389648</ele>
        <time>2022-06-22T07:02:43.000Z</time>
      </trkpt>
      <trkpt lat="46.78093" lon="2.56841">
        <ele>201.60000610352</ele>
        <time>2022-06-22T07:02:46.000Z</time>
      </trkpt>
      <trkpt lat="46.78084" lon="2.56896">
        <ele>203.39999389648</ele>
        <time>2022-06-22T07:02:52.000Z</time>
      </trkpt>
      <trkpt lat="46.78074" lon="2.56952">
        <ele>201.60000610352</ele>
        <time>2022-06-22T07:02:58.000Z</time>
      </trkpt>
      <trkpt lat="46.78072" lon="2.56968">
        <ele>201.19999694824</ele>
        <time>2022-06-22T07:03:00.000Z</time>
      </trkpt>
      <trkpt lat="46.78063" lon="2.57014">
        <ele>199.60000610352</ele>
        <time>2022-06-22T07:03:05.000Z</time>
      </trkpt>
      <trkpt lat="46.78059" lon="2.57045">
        <ele>198.19999694824</ele>
        <time>2022-06-22T07:03:08.000Z</time>
      </trkpt>
      <trkpt lat="46.78057" lon="2.57053">
        <ele>197.80000305176</ele>
        <time>2022-06-22T07:03:09.000Z</time>
      </trkpt>
      <trkpt lat="46.78049" lon="2.57101">
        <ele>196.80000305176</ele>
        <time>2022-06-22T07:03:14.000Z</time>
      </trkpt>
      <trkpt lat="46.78044" lon="2.57132">
        <ele>195.60000610352</ele>
        <time>2022-06-22T07:03:17.000Z</time>
      </trkpt>
      <trkpt lat="46.7804" lon="2.5715">
        <ele>195.39999389648</ele>
        <time>2022-06-22T07:03:19.000Z</time>
      </trkpt>
      <trkpt lat="46.78038" lon="2.57162">
        <ele>194.60000610352</ele>
        <time>2022-06-22T07:03:20.000Z</time>
      </trkpt>
      <trkpt lat="46.78033" lon="2.57198">
        <ele>195</ele>
        <time>2022-06-22T07:03:24.000Z</time>
      </trkpt>
      <trkpt lat="46.78032" lon="2.5721">
        <ele>195.39999389648</ele>
        <time>2022-06-22T07:03:25.000Z</time>
      </trkpt>
      <trkpt lat="46.7803" lon="2.5725">
        <ele>196</ele>
        <time>2022-06-22T07:03:29.000Z</time>
      </trkpt>
      <trkpt lat="46.78027" lon="2.57275">
        <ele>196</ele>
        <time>2022-06-22T07:03:31.000Z</time>
      </trkpt>
      <trkpt lat="46.78027" lon="2.57286">
        <ele>195.80000305176</ele>
        <time>2022-06-22T07:03:32.000Z</time>
      </trkpt>
      <trkpt lat="46.78025" lon="2.57313">
        <ele>195.39999389648</ele>
        <time>2022-06-22T07:03:34.000Z</time>
      </trkpt>
      <trkpt lat="46.78025" lon="2.57325">
        <ele>195.39999389648</ele>
        <time>2022-06-22T07:03:35.000Z</time>
      </trkpt>
      <trkpt lat="46.78023" lon="2.57338">
        <ele>194.60000610352</ele>
        <time>2022-06-22T07:03:36.000Z</time>
      </trkpt>
      <trkpt lat="46.78019" lon="2.57384">
        <ele>193.60000610352</ele>
        <time>2022-06-22T07:03:40.000Z</time>
      </trkpt>
      <trkpt lat="46.78015" lon="2.57414">
        <ele>192.39999389648</ele>
        <time>2022-06-22T07:03:43.000Z</time>
      </trkpt>
      <trkpt lat="46.78014" lon="2.57428">
        <ele>192.19999694824</ele>
        <time>2022-06-22T07:03:44.000Z</time>
      </trkpt>
      <trkpt lat="46.78014" lon="2.57453">
        <ele>192.19999694824</ele>
        <time>2022-06-22T07:03:46.000Z</time>
      </trkpt>
      <trkpt lat="46.78017" lon="2.57502">
        <ele>192.39999389648</ele>
        <time>2022-06-22T07:03:50.000Z</time>
      </trkpt>
      <trkpt lat="46.78018" lon="2.57513">
        <ele>192.39999389648</ele>
        <time>2022-06-22T07:03:51.000Z</time>
      </trkpt>
      <trkpt lat="46.78024" lon="2.57554">
        <ele>192.60000610352</ele>
        <time>2022-06-22T07:03:55.000Z</time>
      </trkpt>
      <trkpt lat="46.78027" lon="2.57575">
        <ele>192</ele>
        <time>2022-06-22T07:03:57.000Z</time>
      </trkpt>
      <trkpt lat="46.7803" lon="2.57595">
        <ele>192</ele>
        <time>2022-06-22T07:03:59.000Z</time>
      </trkpt>
      <trkpt lat="46.78028" lon="2.57605">
        <ele>192</ele>
        <time>2022-06-22T07:04:00.000Z</time>
      </trkpt>
      <trkpt lat="46.7802" lon="2.57622">
        <ele>191.60000610352</ele>
        <time>2022-06-22T07:04:02.000Z</time>
      </trkpt>
      <trkpt lat="46.78019" lon="2.5764">
        <ele>191.60000610352</ele>
        <time>2022-06-22T07:04:04.000Z</time>
      </trkpt>
      <trkpt lat="46.78021" lon="2.57669">
        <ele>192</ele>
        <time>2022-06-22T07:04:07.000Z</time>
      </trkpt>
      <trkpt lat="46.78022" lon="2.57679">
        <ele>192</ele>
        <time>2022-06-22T07:04:08.000Z</time>
      </trkpt>
      <trkpt lat="46.78026" lon="2.57725">
        <ele>192.39999389648</ele>
        <time>2022-06-22T07:04:13.000Z</time>
      </trkpt>
      <trkpt lat="46.78031" lon="2.5779">
        <ele>191.39999389648</ele>
        <time>2022-06-22T07:04:20.000Z</time>
      </trkpt>
      <trkpt lat="46.78034" lon="2.57873">
        <ele>188</ele>
        <time>2022-06-22T07:04:29.000Z</time>
      </trkpt>
      <trkpt lat="46.78035" lon="2.57882">
        <ele>188</ele>
        <time>2022-06-22T07:04:30.000Z</time>
      </trkpt>
      <trkpt lat="46.78038" lon="2.57968">
        <ele>187</ele>
        <time>2022-06-22T07:04:39.000Z</time>
      </trkpt>
      <trkpt lat="46.78041" lon="2.58015">
        <ele>186</ele>
        <time>2022-06-22T07:04:44.000Z</time>
      </trkpt>
      <trkpt lat="46.78042" lon="2.58034">
        <ele>186</ele>
        <time>2022-06-22T07:04:46.000Z</time>
      </trkpt>
      <trkpt lat="46.78045" lon="2.58107">
        <ele>185</ele>
        <time>2022-06-22T07:04:54.000Z</time>
      </trkpt>
      <trkpt lat="46.78047" lon="2.58125">
        <ele>184.39999389648</ele>
        <time>2022-06-22T07:04:56.000Z</time>
      </trkpt>
      <trkpt lat="46.7805" lon="2.58172">
        <ele>186</ele>
        <time>2022-06-22T07:05:01.000Z</time>
      </trkpt>
      <trkpt lat="46.78053" lon="2.58237">
        <ele>186.80000305176</ele>
        <time>2022-06-22T07:05:08.000Z</time>
      </trkpt>
      <trkpt lat="46.78056" lon="2.58299">
        <ele>187</ele>
        <time>2022-06-22T07:05:15.000Z</time>
      </trkpt>
      <trkpt lat="46.78057" lon="2.58307">
        <ele>186.80000305176</ele>
        <time>2022-06-22T07:05:16.000Z</time>
      </trkpt>
      <trkpt lat="46.78058" lon="2.5835">
        <ele>184.80000305176</ele>
        <time>2022-06-22T07:05:21.000Z</time>
      </trkpt>
      <trkpt lat="46.78058" lon="2.58359">
        <ele>184.80000305176</ele>
        <time>2022-06-22T07:05:22.000Z</time>
      </trkpt>
      <trkpt lat="46.78058" lon="2.58384">
        <ele>184.80000305176</ele>
        <time>2022-06-22T07:05:25.000Z</time>
      </trkpt>
      <trkpt lat="46.78059" lon="2.58419">
        <ele>185.19999694824</ele>
        <time>2022-06-22T07:05:29.000Z</time>
      </trkpt>
      <trkpt lat="46.78058" lon="2.58427">
        <ele>185.39999389648</ele>
        <time>2022-06-22T07:05:30.000Z</time>
      </trkpt>
      <trkpt lat="46.78057" lon="2.58452">
        <ele>186.39999389648</ele>
        <time>2022-06-22T07:05:33.000Z</time>
      </trkpt>
      <trkpt lat="46.78056" lon="2.58469">
        <ele>187</ele>
        <time>2022-06-22T07:05:35.000Z</time>
      </trkpt>
      <trkpt lat="46.78055" lon="2.58485">
        <ele>187.60000610352</ele>
        <time>2022-06-22T07:05:37.000Z</time>
      </trkpt>
      <trkpt lat="46.78054" lon="2.585">
        <ele>188.60000610352</ele>
        <time>2022-06-22T07:05:39.000Z</time>
      </trkpt>
      <trkpt lat="46.78051" lon="2.58525">
        <ele>190.80000305176</ele>
        <time>2022-06-22T07:05:43.000Z</time>
      </trkpt>
      <trkpt lat="46.78046" lon="2.58554">
        <ele>192.80000305176</ele>
        <time>2022-06-22T07:05:48.000Z</time>
      </trkpt>
      <trkpt lat="46.78045" lon="2.58565">
        <ele>193</ele>
        <time>2022-06-22T07:05:50.000Z</time>
      </trkpt>
      <trkpt lat="46.78042" lon="2.58585">
        <ele>194</ele>
        <time>2022-06-22T07:05:54.000Z</time>
      </trkpt>
      <trkpt lat="46.78039" lon="2.58616">
        <ele>195.60000610352</ele>
        <time>2022-06-22T07:05:59.000Z</time>
      </trkpt>
      <trkpt lat="46.78039" lon="2.58624">
        <ele>195.80000305176</ele>
        <time>2022-06-22T07:06:00.000Z</time>
      </trkpt>
      <trkpt lat="46.78037" lon="2.58658">
        <ele>196.80000305176</ele>
        <time>2022-06-22T07:06:05.000Z</time>
      </trkpt>
      <trkpt lat="46.78035" lon="2.58664">
        <ele>197</ele>
        <time>2022-06-22T07:06:06.000Z</time>
      </trkpt>
      <trkpt lat="46.78028" lon="2.58708">
        <ele>198</ele>
        <time>2022-06-22T07:06:12.000Z</time>
      </trkpt>
      <trkpt lat="46.78028" lon="2.58715">
        <ele>198</ele>
        <time>2022-06-22T07:06:13.000Z</time>
      </trkpt>
      <trkpt lat="46.7802" lon="2.58743">
        <ele>199.19999694824</ele>
        <time>2022-06-22T07:06:17.000Z</time>
      </trkpt>
      <trkpt lat="46.78019" lon="2.58758">
        <ele>199.39999389648</ele>
        <time>2022-06-22T07:06:20.000Z</time>
      </trkpt>
      <trkpt lat="46.78017" lon="2.58767">
        <ele>199.60000610352</ele>
        <time>2022-06-22T07:06:21.000Z</time>
      </trkpt>
      <trkpt lat="46.78009" lon="2.588">
        <ele>200.80000305176</ele>
        <time>2022-06-22T07:06:27.000Z</time>
      </trkpt>
      <trkpt lat="46.78008" lon="2.58805">
        <ele>201</ele>
        <time>2022-06-22T07:06:28.000Z</time>
      </trkpt>
      <trkpt lat="46.78007" lon="2.58829">
        <ele>201.80000305176</ele>
        <time>2022-06-22T07:06:32.000Z</time>
      </trkpt>
      <trkpt lat="46.78007" lon="2.58846">
        <ele>202.39999389648</ele>
        <time>2022-06-22T07:06:35.000Z</time>
      </trkpt>
      <trkpt lat="46.78009" lon="2.58861">
        <ele>202.80000305176</ele>
        <time>2022-06-22T07:06:38.000Z</time>
      </trkpt>
      <trkpt lat="46.78008" lon="2.58871">
        <ele>203</ele>
        <time>2022-06-22T07:06:40.000Z</time>
      </trkpt>
      <trkpt lat="46.78008" lon="2.58881">
        <ele>203</ele>
        <time>2022-06-22T07:06:42.000Z</time>
      </trkpt>
      <trkpt lat="46.78007" lon="2.58914">
        <ele>203</ele>
        <time>2022-06-22T07:06:47.000Z</time>
      </trkpt>
      <trkpt lat="46.7801" lon="2.58954">
        <ele>203</ele>
        <time>2022-06-22T07:06:53.000Z</time>
      </trkpt>
      <trkpt lat="46.78012" lon="2.58994">
        <ele>202.80000305176</ele>
        <time>2022-06-22T07:06:59.000Z</time>
      </trkpt>
      <trkpt lat="46.78013" lon="2.59002">
        <ele>202.80000305176</ele>
        <time>2022-06-22T07:07:00.000Z</time>
      </trkpt>
      <trkpt lat="46.78014" lon="2.59032">
        <ele>203.60000610352</ele>
        <time>2022-06-22T07:07:04.000Z</time>
      </trkpt>
      <trkpt lat="46.78015" lon="2.59041">
        <ele>203.39999389648</ele>
        <time>2022-06-22T07:07:05.000Z</time>
      </trkpt>
      <trkpt lat="46.78021" lon="2.59065">
        <ele>202.60000610352</ele>
        <time>2022-06-22T07:07:08.000Z</time>
      </trkpt>
      <trkpt lat="46.78021" lon="2.59088">
        <ele>202.60000610352</ele>
        <time>2022-06-22T07:07:11.000Z</time>
      </trkpt>
      <trkpt lat="46.78023" lon="2.59103">
        <ele>202.39999389648</ele>
        <time>2022-06-22T07:07:13.000Z</time>
      </trkpt>
      <trkpt lat="46.78026" lon="2.59144">
        <ele>202</ele>
        <time>2022-06-22T07:07:18.000Z</time>
      </trkpt>
      <trkpt lat="46.78028" lon="2.59197">
        <ele>201.80000305176</ele>
        <time>2022-06-22T07:07:24.000Z</time>
      </trkpt>
      <trkpt lat="46.78024" lon="2.5923">
        <ele>202</ele>
        <time>2022-06-22T07:07:28.000Z</time>
      </trkpt>
      <trkpt lat="46.78023" lon="2.59245">
        <ele>202.39999389648</ele>
        <time>2022-06-22T07:07:30.000Z</time>
      </trkpt>
      <trkpt lat="46.78018" lon="2.59268">
        <ele>203.19999694824</ele>
        <time>2022-06-22T07:07:33.000Z</time>
      </trkpt>
      <trkpt lat="46.78011" lon="2.59309">
        <ele>202.80000305176</ele>
        <time>2022-06-22T07:07:38.000Z</time>
      </trkpt>
      <trkpt lat="46.78008" lon="2.59315">
        <ele>202.80000305176</ele>
        <time>2022-06-22T07:07:39.000Z</time>
      </trkpt>
      <trkpt lat="46.78004" lon="2.59331">
        <ele>202.39999389648</ele>
        <time>2022-06-22T07:07:41.000Z</time>
      </trkpt>
      <trkpt lat="46.78004" lon="2.59354">
        <ele>201.39999389648</ele>
        <time>2022-06-22T07:07:43.000Z</time>
      </trkpt>
      <trkpt lat="46.78001" lon="2.59382">
        <ele>201</ele>
        <time>2022-06-22T07:07:46.000Z</time>
      </trkpt>
      <trkpt lat="46.77998" lon="2.59405">
        <ele>200.19999694824</ele>
        <time>2022-06-22T07:07:48.000Z</time>
      </trkpt>
      <trkpt lat="46.77989" lon="2.59436">
        <ele>200.39999389648</ele>
        <time>2022-06-22T07:07:51.000Z</time>
      </trkpt>
      <trkpt lat="46.77985" lon="2.59455">
        <ele>200.39999389648</ele>
        <time>2022-06-22T07:07:53.000Z</time>
      </trkpt>
      <trkpt lat="46.77979" lon="2.59517">
        <ele>201.39999389648</ele>
        <time>2022-06-22T07:07:59.000Z</time>
      </trkpt>
      <trkpt lat="46.77969" lon="2.59556">
        <ele>199</ele>
        <time>2022-06-22T07:08:03.000Z</time>
      </trkpt>
      <trkpt lat="46.77966" lon="2.59576">
        <ele>197.80000305176</ele>
        <time>2022-06-22T07:08:05.000Z</time>
      </trkpt>
      <trkpt lat="46.77962" lon="2.59618">
        <ele>196.19999694824</ele>
        <time>2022-06-22T07:08:09.000Z</time>
      </trkpt>
      <trkpt lat="46.7796" lon="2.59628">
        <ele>196</ele>
        <time>2022-06-22T07:08:10.000Z</time>
      </trkpt>
      <trkpt lat="46.77958" lon="2.59638">
        <ele>195.60000610352</ele>
        <time>2022-06-22T07:08:11.000Z</time>
      </trkpt>
      <trkpt lat="46.77954" lon="2.59657">
        <ele>195.80000305176</ele>
        <time>2022-06-22T07:08:13.000Z</time>
      </trkpt>
      <trkpt lat="46.77954" lon="2.59666">
        <ele>195.80000305176</ele>
        <time>2022-06-22T07:08:14.000Z</time>
      </trkpt>
      <trkpt lat="46.77949" lon="2.59701">
        <ele>194.80000305176</ele>
        <time>2022-06-22T07:08:18.000Z</time>
      </trkpt>
      <trkpt lat="46.77948" lon="2.59711">
        <ele>194.19999694824</ele>
        <time>2022-06-22T07:08:19.000Z</time>
      </trkpt>
      <trkpt lat="46.77938" lon="2.59781">
        <ele>191.60000610352</ele>
        <time>2022-06-22T07:08:26.000Z</time>
      </trkpt>
      <trkpt lat="46.77936" lon="2.59792">
        <ele>191.80000305176</ele>
        <time>2022-06-22T07:08:27.000Z</time>
      </trkpt>
      <trkpt lat="46.77927" lon="2.59859">
        <ele>193</ele>
        <time>2022-06-22T07:08:33.000Z</time>
      </trkpt>
      <trkpt lat="46.77922" lon="2.59881">
        <ele>192</ele>
        <time>2022-06-22T07:08:35.000Z</time>
      </trkpt>
      <trkpt lat="46.77913" lon="2.59952">
        <ele>190.19999694824</ele>
        <time>2022-06-22T07:08:42.000Z</time>
      </trkpt>
      <trkpt lat="46.77911" lon="2.59964">
        <ele>190.39999389648</ele>
        <time>2022-06-22T07:08:43.000Z</time>
      </trkpt>
      <trkpt lat="46.77907" lon="2.59995">
        <ele>191.19999694824</ele>
        <time>2022-06-22T07:08:46.000Z</time>
      </trkpt>
      <trkpt lat="46.77899" lon="2.60053">
        <ele>192</ele>
        <time>2022-06-22T07:08:52.000Z</time>
      </trkpt>
      <trkpt lat="46.77893" lon="2.60113">
        <ele>190.19999694824</ele>
        <time>2022-06-22T07:08:58.000Z</time>
      </trkpt>
      <trkpt lat="46.77881" lon="2.60169">
        <ele>187</ele>
        <time>2022-06-22T07:09:04.000Z</time>
      </trkpt>
      <trkpt lat="46.77878" lon="2.60198">
        <ele>186.60000610352</ele>
        <time>2022-06-22T07:09:07.000Z</time>
      </trkpt>
      <trkpt lat="46.77875" lon="2.60225">
        <ele>185.80000305176</ele>
        <time>2022-06-22T07:09:10.000Z</time>
      </trkpt>
      <trkpt lat="46.77866" lon="2.60278">
        <ele>187.19999694824</ele>
        <time>2022-06-22T07:09:16.000Z</time>
      </trkpt>
      <trkpt lat="46.77863" lon="2.60287">
        <ele>187.19999694824</ele>
        <time>2022-06-22T07:09:17.000Z</time>
      </trkpt>
      <trkpt lat="46.7786" lon="2.60295">
        <ele>187.60000610352</ele>
        <time>2022-06-22T07:09:18.000Z</time>
      </trkpt>
      <trkpt lat="46.77848" lon="2.60315">
        <ele>187.39999389648</ele>
        <time>2022-06-22T07:09:21.000Z</time>
      </trkpt>
      <trkpt lat="46.77844" lon="2.60321">
        <ele>187.19999694824</ele>
        <time>2022-06-22T07:09:22.000Z</time>
      </trkpt>
      <trkpt lat="46.77805" lon="2.60368">
        <ele>186.39999389648</ele>
        <time>2022-06-22T07:09:31.000Z</time>
      </trkpt>
      <trkpt lat="46.77801" lon="2.60373">
        <ele>186.80000305176</ele>
        <time>2022-06-22T07:09:32.000Z</time>
      </trkpt>
      <trkpt lat="46.77782" lon="2.60398">
        <ele>187.39999389648</ele>
        <time>2022-06-22T07:09:37.000Z</time>
      </trkpt>
      <trkpt lat="46.77774" lon="2.60408">
        <ele>188.39999389648</ele>
        <time>2022-06-22T07:09:39.000Z</time>
      </trkpt>
      <trkpt lat="46.77755" lon="2.60432">
        <ele>190.80000305176</ele>
        <time>2022-06-22T07:09:44.000Z</time>
      </trkpt>
      <trkpt lat="46.77747" lon="2.60442">
        <ele>192</ele>
        <time>2022-06-22T07:09:46.000Z</time>
      </trkpt>
      <trkpt lat="46.77736" lon="2.60457">
        <ele>193.39999389648</ele>
        <time>2022-06-22T07:09:49.000Z</time>
      </trkpt>
      <trkpt lat="46.77716" lon="2.6048">
        <ele>194.39999389648</ele>
        <time>2022-06-22T07:09:54.000Z</time>
      </trkpt>
      <trkpt lat="46.77709" lon="2.6049">
        <ele>194.39999389648</ele>
        <time>2022-06-22T07:09:56.000Z</time>
      </trkpt>
      <trkpt lat="46.77701" lon="2.60501">
        <ele>194</ele>
        <time>2022-06-22T07:09:58.000Z</time>
      </trkpt>
      <trkpt lat="46.77682" lon="2.60524">
        <ele>194.19999694824</ele>
        <time>2022-06-22T07:10:03.000Z</time>
      </trkpt>
      <trkpt lat="46.77678" lon="2.60529">
        <ele>194</ele>
        <time>2022-06-22T07:10:04.000Z</time>
      </trkpt>
      <trkpt lat="46.77636" lon="2.60581">
        <ele>195.19999694824</ele>
        <time>2022-06-22T07:10:14.000Z</time>
      </trkpt>
      <trkpt lat="46.77596" lon="2.60633">
        <ele>195.39999389648</ele>
        <time>2022-06-22T07:10:23.000Z</time>
      </trkpt>
      <trkpt lat="46.77556" lon="2.60681">
        <ele>194.80000305176</ele>
        <time>2022-06-22T07:10:31.000Z</time>
      </trkpt>
      <trkpt lat="46.77542" lon="2.60699">
        <ele>194.80000305176</ele>
        <time>2022-06-22T07:10:34.000Z</time>
      </trkpt>
      <trkpt lat="46.77505" lon="2.60747">
        <ele>192</ele>
        <time>2022-06-22T07:10:42.000Z</time>
      </trkpt>
      <trkpt lat="46.7747" lon="2.60794">
        <ele>193.19999694824</ele>
        <time>2022-06-22T07:10:50.000Z</time>
      </trkpt>
      <trkpt lat="46.77446" lon="2.60821">
        <ele>197.19999694824</ele>
        <time>2022-06-22T07:10:56.000Z</time>
      </trkpt>
      <trkpt lat="46.77443" lon="2.60824">
        <ele>197.39999389648</ele>
        <time>2022-06-22T07:10:57.000Z</time>
      </trkpt>
      <trkpt lat="46.77435" lon="2.60831">
        <ele>198.19999694824</ele>
        <time>2022-06-22T07:11:00.000Z</time>
      </trkpt>
      <trkpt lat="46.77421" lon="2.60853">
        <ele>201</ele>
        <time>2022-06-22T07:11:06.000Z</time>
      </trkpt>
      <trkpt lat="46.77416" lon="2.6086">
        <ele>201.60000610352</ele>
        <time>2022-06-22T07:11:08.000Z</time>
      </trkpt>
      <trkpt lat="46.77404" lon="2.60876">
        <ele>202.80000305176</ele>
        <time>2022-06-22T07:11:13.000Z</time>
      </trkpt>
      <trkpt lat="46.77402" lon="2.6088">
        <ele>202.80000305176</ele>
        <time>2022-06-22T07:11:14.000Z</time>
      </trkpt>
      <trkpt lat="46.77382" lon="2.60901">
        <ele>202.80000305176</ele>
        <time>2022-06-22T07:11:20.000Z</time>
      </trkpt>
      <trkpt lat="46.7737" lon="2.6091">
        <ele>202.80000305176</ele>
        <time>2022-06-22T07:11:23.000Z</time>
      </trkpt>
      <trkpt lat="46.77364" lon="2.6092">
        <ele>202.80000305176</ele>
        <time>2022-06-22T07:11:25.000Z</time>
      </trkpt>
      <trkpt lat="46.77341" lon="2.60938">
        <ele>202.60000610352</ele>
        <time>2022-06-22T07:11:30.000Z</time>
      </trkpt>
      <trkpt lat="46.77325" lon="2.60946">
        <ele>201.80000305176</ele>
        <time>2022-06-22T07:11:33.000Z</time>
      </trkpt>
      <trkpt lat="46.77312" lon="2.60951">
        <ele>201</ele>
        <time>2022-06-22T07:11:35.000Z</time>
      </trkpt>
      <trkpt lat="46.77281" lon="2.6097">
        <ele>198.60000610352</ele>
        <time>2022-06-22T07:11:40.000Z</time>
      </trkpt>
      <trkpt lat="46.77269" lon="2.60977">
        <ele>197.80000305176</ele>
        <time>2022-06-22T07:11:42.000Z</time>
      </trkpt>
      <trkpt lat="46.77239" lon="2.6099">
        <ele>196</ele>
        <time>2022-06-22T07:11:47.000Z</time>
      </trkpt>
      <trkpt lat="46.77222" lon="2.60997">
        <ele>196</ele>
        <time>2022-06-22T07:11:50.000Z</time>
      </trkpt>
      <trkpt lat="46.77181" lon="2.61012">
        <ele>195</ele>
        <time>2022-06-22T07:11:57.000Z</time>
      </trkpt>
      <trkpt lat="46.77175" lon="2.61014">
        <ele>195</ele>
        <time>2022-06-22T07:11:58.000Z</time>
      </trkpt>
      <trkpt lat="46.77159" lon="2.61021">
        <ele>194.60000610352</ele>
        <time>2022-06-22T07:12:01.000Z</time>
      </trkpt>
      <trkpt lat="46.77134" lon="2.61032">
        <ele>195</ele>
        <time>2022-06-22T07:12:05.000Z</time>
      </trkpt>
      <trkpt lat="46.77128" lon="2.61035">
        <ele>195.19999694824</ele>
        <time>2022-06-22T07:12:06.000Z</time>
      </trkpt>
      <trkpt lat="46.77098" lon="2.61048">
        <ele>197</ele>
        <time>2022-06-22T07:12:11.000Z</time>
      </trkpt>
      <trkpt lat="46.77055" lon="2.61066">
        <ele>198.60000610352</ele>
        <time>2022-06-22T07:12:18.000Z</time>
      </trkpt>
      <trkpt lat="46.77038" lon="2.61073">
        <ele>198</ele>
        <time>2022-06-22T07:12:21.000Z</time>
      </trkpt>
      <trkpt lat="46.77026" lon="2.61078">
        <ele>197.39999389648</ele>
        <time>2022-06-22T07:12:23.000Z</time>
      </trkpt>
      <trkpt lat="46.77021" lon="2.61081">
        <ele>197</ele>
        <time>2022-06-22T07:12:24.000Z</time>
      </trkpt>
      <trkpt lat="46.76981" lon="2.61096">
        <ele>196.39999389648</ele>
        <time>2022-06-22T07:12:31.000Z</time>
      </trkpt>
      <trkpt lat="46.76949" lon="2.61108">
        <ele>197.39999389648</ele>
        <time>2022-06-22T07:12:37.000Z</time>
      </trkpt>
      <trkpt lat="46.76939" lon="2.61113">
        <ele>198</ele>
        <time>2022-06-22T07:12:39.000Z</time>
      </trkpt>
      <trkpt lat="46.76909" lon="2.61126">
        <ele>200.19999694824</ele>
        <time>2022-06-22T07:12:45.000Z</time>
      </trkpt>
      <trkpt lat="46.76904" lon="2.61128">
        <ele>200.60000610352</ele>
        <time>2022-06-22T07:12:46.000Z</time>
      </trkpt>
      <trkpt lat="46.7688" lon="2.61136">
        <ele>203</ele>
        <time>2022-06-22T07:12:51.000Z</time>
      </trkpt>
      <trkpt lat="46.76866" lon="2.61141">
        <ele>204.19999694824</ele>
        <time>2022-06-22T07:12:54.000Z</time>
      </trkpt>
      <trkpt lat="46.76856" lon="2.61144">
        <ele>204.60000610352</ele>
        <time>2022-06-22T07:12:56.000Z</time>
      </trkpt>
      <trkpt lat="46.76846" lon="2.61149">
        <ele>205</ele>
        <time>2022-06-22T07:12:58.000Z</time>
      </trkpt>
      <trkpt lat="46.76836" lon="2.61153">
        <ele>205.39999389648</ele>
        <time>2022-06-22T07:13:00.000Z</time>
      </trkpt>
      <trkpt lat="46.76827" lon="2.61157">
        <ele>206</ele>
        <time>2022-06-22T07:13:02.000Z</time>
      </trkpt>
      <trkpt lat="46.76821" lon="2.61159">
        <ele>206.19999694824</ele>
        <time>2022-06-22T07:13:03.000Z</time>
      </trkpt>
      <trkpt lat="46.76792" lon="2.61171">
        <ele>208.19999694824</ele>
        <time>2022-06-22T07:13:09.000Z</time>
      </trkpt>
      <trkpt lat="46.76788" lon="2.61173">
        <ele>208.39999389648</ele>
        <time>2022-06-22T07:13:10.000Z</time>
      </trkpt>
      <trkpt lat="46.76782" lon="2.61175">
        <ele>208.39999389648</ele>
        <time>2022-06-22T07:13:11.000Z</time>
      </trkpt>
      <trkpt lat="46.7676" lon="2.61184">
        <ele>207.80000305176</ele>
        <time>2022-06-22T07:13:16.000Z</time>
      </trkpt>
      <trkpt lat="46.76756" lon="2.61186">
        <ele>207.60000610352</ele>
        <time>2022-06-22T07:13:17.000Z</time>
      </trkpt>
      <trkpt lat="46.76752" lon="2.61188">
        <ele>207</ele>
        <time>2022-06-22T07:13:18.000Z</time>
      </trkpt>
      <trkpt lat="46.76731" lon="2.61196">
        <ele>206</ele>
        <time>2022-06-22T07:13:23.000Z</time>
      </trkpt>
      <trkpt lat="46.7672" lon="2.612">
        <ele>206</ele>
        <time>2022-06-22T07:13:26.000Z</time>
      </trkpt>
      <trkpt lat="46.76714" lon="2.61203">
        <ele>206</ele>
        <time>2022-06-22T07:13:29.000Z</time>
      </trkpt>
      <trkpt lat="46.767" lon="2.61209">
        <ele>206.60000610352</ele>
        <time>2022-06-22T07:13:32.000Z</time>
      </trkpt>
      <trkpt lat="46.76697" lon="2.61211">
        <ele>206.80000305176</ele>
        <time>2022-06-22T07:13:33.000Z</time>
      </trkpt>
      <trkpt lat="46.76677" lon="2.61217">
        <ele>208</ele>
        <time>2022-06-22T07:13:38.000Z</time>
      </trkpt>
      <trkpt lat="46.7667" lon="2.6122">
        <ele>208.19999694824</ele>
        <time>2022-06-22T07:13:40.000Z</time>
      </trkpt>
      <trkpt lat="46.76662" lon="2.61223">
        <ele>209.19999694824</ele>
        <time>2022-06-22T07:13:42.000Z</time>
      </trkpt>
      <trkpt lat="46.76642" lon="2.61234">
        <ele>211.60000610352</ele>
        <time>2022-06-22T07:13:48.000Z</time>
      </trkpt>
      <trkpt lat="46.76633" lon="2.61236">
        <ele>212.19999694824</ele>
        <time>2022-06-22T07:13:50.000Z</time>
      </trkpt>
      <trkpt lat="46.76625" lon="2.6124">
        <ele>213.60000610352</ele>
        <time>2022-06-22T07:13:52.000Z</time>
      </trkpt>
      <trkpt lat="46.76607" lon="2.61246">
        <ele>216.19999694824</ele>
        <time>2022-06-22T07:13:57.000Z</time>
      </trkpt>
      <trkpt lat="46.76604" lon="2.61248">
        <ele>216.39999389648</ele>
        <time>2022-06-22T07:13:58.000Z</time>
      </trkpt>
      <trkpt lat="46.76591" lon="2.61251">
        <ele>217</ele>
        <time>2022-06-22T07:14:02.000Z</time>
      </trkpt>
      <trkpt lat="46.76584" lon="2.61251">
        <ele>217.19999694824</ele>
        <time>2022-06-22T07:14:04.000Z</time>
      </trkpt>
      <trkpt lat="46.76577" lon="2.61252">
        <ele>217.39999389648</ele>
        <time>2022-06-22T07:14:06.000Z</time>
      </trkpt>
      <trkpt lat="46.76566" lon="2.61252">
        <ele>217.80000305176</ele>
        <time>2022-06-22T07:14:09.000Z</time>
      </trkpt>
      <trkpt lat="46.76556" lon="2.61249">
        <ele>218</ele>
        <time>2022-06-22T07:14:12.000Z</time>
      </trkpt>
      <trkpt lat="46.76546" lon="2.61246">
        <ele>218</ele>
        <time>2022-06-22T07:14:15.000Z</time>
      </trkpt>
      <trkpt lat="46.76531" lon="2.61239">
        <ele>218</ele>
        <time>2022-06-22T07:14:20.000Z</time>
      </trkpt>
      <trkpt lat="46.76521" lon="2.61232">
        <ele>218</ele>
        <time>2022-06-22T07:14:24.000Z</time>
      </trkpt>
      <trkpt lat="46.76518" lon="2.6123">
        <ele>218</ele>
        <time>2022-06-22T07:14:25.000Z</time>
      </trkpt>
      <trkpt lat="46.76498" lon="2.61216">
        <ele>218</ele>
        <time>2022-06-22T07:14:30.000Z</time>
      </trkpt>
      <trkpt lat="46.76495" lon="2.61213">
        <ele>218</ele>
        <time>2022-06-22T07:14:31.000Z</time>
      </trkpt>
      <trkpt lat="46.76471" lon="2.61194">
        <ele>218.60000610352</ele>
        <time>2022-06-22T07:14:37.000Z</time>
      </trkpt>
      <trkpt lat="46.76461" lon="2.61188">
        <ele>219.39999389648</ele>
        <time>2022-06-22T07:14:39.000Z</time>
      </trkpt>
      <trkpt lat="46.7644" lon="2.61169">
        <ele>221.19999694824</ele>
        <time>2022-06-22T07:14:45.000Z</time>
      </trkpt>
      <trkpt lat="46.76424" lon="2.61157">
        <ele>222.39999389648</ele>
        <time>2022-06-22T07:14:49.000Z</time>
      </trkpt>
      <trkpt lat="46.76403" lon="2.61146">
        <ele>222.80000305176</ele>
        <time>2022-06-22T07:14:54.000Z</time>
      </trkpt>
      <trkpt lat="46.76385" lon="2.61143">
        <ele>223.80000305176</ele>
        <time>2022-06-22T07:14:58.000Z</time>
      </trkpt>
      <trkpt lat="46.76371" lon="2.61142">
        <ele>224.80000305176</ele>
        <time>2022-06-22T07:15:01.000Z</time>
      </trkpt>
      <trkpt lat="46.76343" lon="2.61144">
        <ele>227</ele>
        <time>2022-06-22T07:15:07.000Z</time>
      </trkpt>
      <trkpt lat="46.76334" lon="2.61146">
        <ele>227.60000610352</ele>
        <time>2022-06-22T07:15:09.000Z</time>
      </trkpt>
      <trkpt lat="46.7631" lon="2.6115">
        <ele>228.39999389648</ele>
        <time>2022-06-22T07:15:14.000Z</time>
      </trkpt>
      <trkpt lat="46.76286" lon="2.61154">
        <ele>227.19999694824</ele>
        <time>2022-06-22T07:15:19.000Z</time>
      </trkpt>
      <trkpt lat="46.76248" lon="2.61163">
        <ele>226.39999389648</ele>
        <time>2022-06-22T07:15:27.000Z</time>
      </trkpt>
      <trkpt lat="46.76243" lon="2.61165">
        <ele>226.60000610352</ele>
        <time>2022-06-22T07:15:28.000Z</time>
      </trkpt>
      <trkpt lat="46.76225" lon="2.6117">
        <ele>227</ele>
        <time>2022-06-22T07:15:32.000Z</time>
      </trkpt>
      <trkpt lat="46.76206" lon="2.61176">
        <ele>227.19999694824</ele>
        <time>2022-06-22T07:15:36.000Z</time>
      </trkpt>
      <trkpt lat="46.76197" lon="2.6118">
        <ele>227.19999694824</ele>
        <time>2022-06-22T07:15:38.000Z</time>
      </trkpt>
      <trkpt lat="46.76169" lon="2.61193">
        <ele>227.19999694824</ele>
        <time>2022-06-22T07:15:44.000Z</time>
      </trkpt>
      <trkpt lat="46.76164" lon="2.61196">
        <ele>227.39999389648</ele>
        <time>2022-06-22T07:15:45.000Z</time>
      </trkpt>
      <trkpt lat="46.76134" lon="2.61216">
        <ele>229.80000305176</ele>
        <time>2022-06-22T07:15:52.000Z</time>
      </trkpt>
      <trkpt lat="46.76121" lon="2.61226">
        <ele>230.80000305176</ele>
        <time>2022-06-22T07:15:55.000Z</time>
      </trkpt>
      <trkpt lat="46.76101" lon="2.61247">
        <ele>231.60000610352</ele>
        <time>2022-06-22T07:16:00.000Z</time>
      </trkpt>
      <trkpt lat="46.76098" lon="2.61252">
        <ele>231.80000305176</ele>
        <time>2022-06-22T07:16:01.000Z</time>
      </trkpt>
      <trkpt lat="46.76082" lon="2.61271">
        <ele>231.39999389648</ele>
        <time>2022-06-22T07:16:05.000Z</time>
      </trkpt>
      <trkpt lat="46.76066" lon="2.61289">
        <ele>231.60000610352</ele>
        <time>2022-06-22T07:16:09.000Z</time>
      </trkpt>
      <trkpt lat="46.76035" lon="2.6131">
        <ele>231</ele>
        <time>2022-06-22T07:16:16.000Z</time>
      </trkpt>
      <trkpt lat="46.75993" lon="2.61329">
        <ele>233.39999389648</ele>
        <time>2022-06-22T07:16:25.000Z</time>
      </trkpt>
      <trkpt lat="46.75983" lon="2.61333">
        <ele>234.60000610352</ele>
        <time>2022-06-22T07:16:27.000Z</time>
      </trkpt>
      <trkpt lat="46.75958" lon="2.61344">
        <ele>238</ele>
        <time>2022-06-22T07:16:32.000Z</time>
      </trkpt>
      <trkpt lat="46.75919" lon="2.61362">
        <ele>241.39999389648</ele>
        <time>2022-06-22T07:16:40.000Z</time>
      </trkpt>
      <trkpt lat="46.75908" lon="2.61368">
        <ele>242.19999694824</ele>
        <time>2022-06-22T07:16:42.000Z</time>
      </trkpt>
      <trkpt lat="46.75881" lon="2.61382">
        <ele>242.19999694824</ele>
        <time>2022-06-22T07:16:47.000Z</time>
      </trkpt>
      <trkpt lat="46.75835" lon="2.61402">
        <ele>241.39999389648</ele>
        <time>2022-06-22T07:16:55.000Z</time>
      </trkpt>
      <trkpt lat="46.75784" lon="2.61426">
        <ele>244.80000305176</ele>
        <time>2022-06-22T07:17:04.000Z</time>
      </trkpt>
      <trkpt lat="46.75741" lon="2.61445">
        <ele>243.19999694824</ele>
        <time>2022-06-22T07:17:12.000Z</time>
      </trkpt>
      <trkpt lat="46.75711" lon="2.61461">
        <ele>242</ele>
        <time>2022-06-22T07:17:18.000Z</time>
      </trkpt>
      <trkpt lat="46.75701" lon="2.61465">
        <ele>241.80000305176</ele>
        <time>2022-06-22T07:17:20.000Z</time>
      </trkpt>
      <trkpt lat="46.75681" lon="2.61476">
        <ele>242.60000610352</ele>
        <time>2022-06-22T07:17:24.000Z</time>
      </trkpt>
      <trkpt lat="46.75665" lon="2.61484">
        <ele>243</ele>
        <time>2022-06-22T07:17:27.000Z</time>
      </trkpt>
      <trkpt lat="46.75656" lon="2.61487">
        <ele>243.19999694824</ele>
        <time>2022-06-22T07:17:29.000Z</time>
      </trkpt>
      <trkpt lat="46.75647" lon="2.6149">
        <ele>243.39999389648</ele>
        <time>2022-06-22T07:17:31.000Z</time>
      </trkpt>
      <trkpt lat="46.75638" lon="2.61494">
        <ele>244</ele>
        <time>2022-06-22T07:17:33.000Z</time>
      </trkpt>
      <trkpt lat="46.75628" lon="2.61497">
        <ele>245</ele>
        <time>2022-06-22T07:17:35.000Z</time>
      </trkpt>
      <trkpt lat="46.75602" lon="2.61507">
        <ele>246.60000610352</ele>
        <time>2022-06-22T07:17:40.000Z</time>
      </trkpt>
      <trkpt lat="46.75597" lon="2.61509">
        <ele>246.80000305176</ele>
        <time>2022-06-22T07:17:41.000Z</time>
      </trkpt>
      <trkpt lat="46.75574" lon="2.61522">
        <ele>249.39999389648</ele>
        <time>2022-06-22T07:17:46.000Z</time>
      </trkpt>
      <trkpt lat="46.75563" lon="2.61526">
        <ele>250.80000305176</ele>
        <time>2022-06-22T07:17:48.000Z</time>
      </trkpt>
      <trkpt lat="46.75549" lon="2.61535">
        <ele>251</ele>
        <time>2022-06-22T07:17:51.000Z</time>
      </trkpt>
      <trkpt lat="46.75544" lon="2.61538">
        <ele>251</ele>
        <time>2022-06-22T07:17:52.000Z</time>
      </trkpt>
      <trkpt lat="46.7552" lon="2.6155">
        <ele>250.19999694824</ele>
        <time>2022-06-22T07:17:57.000Z</time>
      </trkpt>
      <trkpt lat="46.75508" lon="2.61557">
        <ele>250</ele>
        <time>2022-06-22T07:18:00.000Z</time>
      </trkpt>
      <trkpt lat="46.75504" lon="2.6156">
        <ele>250</ele>
        <time>2022-06-22T07:18:01.000Z</time>
      </trkpt>
      <trkpt lat="46.755" lon="2.61561">
        <ele>249.80000305176</ele>
        <time>2022-06-22T07:18:02.000Z</time>
      </trkpt>
      <trkpt lat="46.75497" lon="2.6156">
        <ele>249.60000610352</ele>
        <time>2022-06-22T07:18:03.000Z</time>
      </trkpt>
      <trkpt lat="46.75495" lon="2.61556">
        <ele>249.39999389648</ele>
        <time>2022-06-22T07:18:04.000Z</time>
      </trkpt>
      <trkpt lat="46.75494" lon="2.6155">
        <ele>249</ele>
        <time>2022-06-22T07:18:05.000Z</time>
      </trkpt>
      <trkpt lat="46.75494" lon="2.61531">
        <ele>248</ele>
        <time>2022-06-22T07:18:08.000Z</time>
      </trkpt>
      <trkpt lat="46.75494" lon="2.61517">
        <ele>248</ele>
        <time>2022-06-22T07:18:10.000Z</time>
      </trkpt>
      <trkpt lat="46.75494" lon="2.6151">
        <ele>248</ele>
        <time>2022-06-22T07:18:11.000Z</time>
      </trkpt>
      <trkpt lat="46.75494" lon="2.61481">
        <ele>248</ele>
        <time>2022-06-22T07:18:15.000Z</time>
      </trkpt>
      <trkpt lat="46.7549" lon="2.61428">
        <ele>249</ele>
        <time>2022-06-22T07:18:22.000Z</time>
      </trkpt>
      <trkpt lat="46.75477" lon="2.61372">
        <ele>250.60000610352</ele>
        <time>2022-06-22T07:18:29.000Z</time>
      </trkpt>
      <trkpt lat="46.75473" lon="2.61356">
        <ele>250.39999389648</ele>
        <time>2022-06-22T07:18:31.000Z</time>
      </trkpt>
      <trkpt lat="46.7547" lon="2.61338">
        <ele>250</ele>
        <time>2022-06-22T07:18:33.000Z</time>
      </trkpt>
      <trkpt lat="46.75468" lon="2.6133">
        <ele>249.80000305176</ele>
        <time>2022-06-22T07:18:34.000Z</time>
      </trkpt>
      <trkpt lat="46.75454" lon="2.61265">
        <ele>248.80000305176</ele>
        <time>2022-06-22T07:18:43.000Z</time>
      </trkpt>
      <trkpt lat="46.75451" lon="2.61257">
        <ele>248.80000305176</ele>
        <time>2022-06-22T07:18:44.000Z</time>
      </trkpt>
      <trkpt lat="46.75444" lon="2.61223">
        <ele>249.60000610352</ele>
        <time>2022-06-22T07:18:49.000Z</time>
      </trkpt>
      <trkpt lat="46.75443" lon="2.61216">
        <ele>249.80000305176</ele>
        <time>2022-06-22T07:18:50.000Z</time>
      </trkpt>
      <trkpt lat="46.75441" lon="2.61209">
        <ele>249.80000305176</ele>
        <time>2022-06-22T07:18:51.000Z</time>
      </trkpt>
      <trkpt lat="46.75435" lon="2.61195">
        <ele>249.80000305176</ele>
        <time>2022-06-22T07:18:53.000Z</time>
      </trkpt>
      <trkpt lat="46.75432" lon="2.61189">
        <ele>249.60000610352</ele>
        <time>2022-06-22T07:18:54.000Z</time>
      </trkpt>
      <trkpt lat="46.75429" lon="2.61183">
        <ele>249.39999389648</ele>
        <time>2022-06-22T07:18:55.000Z</time>
      </trkpt>
      <trkpt lat="46.75424" lon="2.61178">
        <ele>249</ele>
        <time>2022-06-22T07:18:56.000Z</time>
      </trkpt>
      <trkpt lat="46.75419" lon="2.61174">
        <ele>248.60000610352</ele>
        <time>2022-06-22T07:18:57.000Z</time>
      </trkpt>
      <trkpt lat="46.75414" lon="2.61171">
        <ele>248.39999389648</ele>
        <time>2022-06-22T07:18:58.000Z</time>
      </trkpt>
      <trkpt lat="46.75409" lon="2.61169">
        <ele>248</ele>
        <time>2022-06-22T07:18:59.000Z</time>
      </trkpt>
      <trkpt lat="46.75399" lon="2.61166">
        <ele>247.39999389648</ele>
        <time>2022-06-22T07:19:01.000Z</time>
      </trkpt>
      <trkpt lat="46.75389" lon="2.61163">
        <ele>247.19999694824</ele>
        <time>2022-06-22T07:19:03.000Z</time>
      </trkpt>
      <trkpt lat="46.75384" lon="2.61161">
        <ele>247.39999389648</ele>
        <time>2022-06-22T07:19:04.000Z</time>
      </trkpt>
      <trkpt lat="46.75351" lon="2.61152">
        <ele>248</ele>
        <time>2022-06-22T07:19:11.000Z</time>
      </trkpt>
      <trkpt lat="46.75331" lon="2.61147">
        <ele>248</ele>
        <time>2022-06-22T07:19:15.000Z</time>
      </trkpt>
      <trkpt lat="46.75322" lon="2.61145">
        <ele>248</ele>
        <time>2022-06-22T07:19:17.000Z</time>
      </trkpt>
      <trkpt lat="46.75276" lon="2.61132">
        <ele>248.60000610352</ele>
        <time>2022-06-22T07:19:26.000Z</time>
      </trkpt>
      <trkpt lat="46.75271" lon="2.6113">
        <ele>248.39999389648</ele>
        <time>2022-06-22T07:19:27.000Z</time>
      </trkpt>
      <trkpt lat="46.75256" lon="2.61126">
        <ele>248</ele>
        <time>2022-06-22T07:19:30.000Z</time>
      </trkpt>
      <trkpt lat="46.75251" lon="2.61125">
        <ele>248</ele>
        <time>2022-06-22T07:19:31.000Z</time>
      </trkpt>
      <trkpt lat="46.75221" lon="2.61116">
        <ele>248.60000610352</ele>
        <time>2022-06-22T07:19:37.000Z</time>
      </trkpt>
      <trkpt lat="46.75216" lon="2.61115">
        <ele>249</ele>
        <time>2022-06-22T07:19:38.000Z</time>
      </trkpt>
      <trkpt lat="46.75192" lon="2.61107">
        <ele>251.19999694824</ele>
        <time>2022-06-22T07:19:43.000Z</time>
      </trkpt>
      <trkpt lat="46.75181" lon="2.61104">
        <ele>252.60000610352</ele>
        <time>2022-06-22T07:19:45.000Z</time>
      </trkpt>
      <trkpt lat="46.75166" lon="2.61101">
        <ele>253.19999694824</ele>
        <time>2022-06-22T07:19:48.000Z</time>
      </trkpt>
      <trkpt lat="46.75156" lon="2.61098">
        <ele>253</ele>
        <time>2022-06-22T07:19:50.000Z</time>
      </trkpt>
      <trkpt lat="46.7515" lon="2.61095">
        <ele>253</ele>
        <time>2022-06-22T07:19:51.000Z</time>
      </trkpt>
      <trkpt lat="46.75147" lon="2.6109">
        <ele>253</ele>
        <time>2022-06-22T07:19:52.000Z</time>
      </trkpt>
      <trkpt lat="46.75144" lon="2.61078">
        <ele>252.80000305176</ele>
        <time>2022-06-22T07:19:54.000Z</time>
      </trkpt>
      <trkpt lat="46.75138" lon="2.61044">
        <ele>252</ele>
        <time>2022-06-22T07:19:59.000Z</time>
      </trkpt>
      <trkpt lat="46.75134" lon="2.61017">
        <ele>251.19999694824</ele>
        <time>2022-06-22T07:20:03.000Z</time>
      </trkpt>
      <trkpt lat="46.75133" lon="2.61003">
        <ele>251.60000610352</ele>
        <time>2022-06-22T07:20:05.000Z</time>
      </trkpt>
      <trkpt lat="46.7513" lon="2.60974">
        <ele>252</ele>
        <time>2022-06-22T07:20:09.000Z</time>
      </trkpt>
      <trkpt lat="46.75124" lon="2.60916">
        <ele>255.39999389648</ele>
        <time>2022-06-22T07:20:17.000Z</time>
      </trkpt>
      <trkpt lat="46.75118" lon="2.60863">
        <ele>256</ele>
        <time>2022-06-22T07:20:24.000Z</time>
      </trkpt>
      <trkpt lat="46.75117" lon="2.60856">
        <ele>256.20001220703</ele>
        <time>2022-06-22T07:20:25.000Z</time>
      </trkpt>
      <trkpt lat="46.75107" lon="2.60797">
        <ele>257</ele>
        <time>2022-06-22T07:20:33.000Z</time>
      </trkpt>
      <trkpt lat="46.75102" lon="2.60784">
        <ele>257.39999389648</ele>
        <time>2022-06-22T07:20:35.000Z</time>
      </trkpt>
      <trkpt lat="46.75095" lon="2.60772">
        <ele>257.20001220703</ele>
        <time>2022-06-22T07:20:37.000Z</time>
      </trkpt>
      <trkpt lat="46.75091" lon="2.60766">
        <ele>257</ele>
        <time>2022-06-22T07:20:38.000Z</time>
      </trkpt>
      <trkpt lat="46.75086" lon="2.60761">
        <ele>256.79998779297</ele>
        <time>2022-06-22T07:20:39.000Z</time>
      </trkpt>
      <trkpt lat="46.75078" lon="2.60741">
        <ele>257</ele>
        <time>2022-06-22T07:20:42.000Z</time>
      </trkpt>
      <trkpt lat="46.75068" lon="2.60689">
        <ele>258</ele>
        <time>2022-06-22T07:20:49.000Z</time>
      </trkpt>
      <trkpt lat="46.75066" lon="2.60659">
        <ele>258</ele>
        <time>2022-06-22T07:20:53.000Z</time>
      </trkpt>
      <trkpt lat="46.75063" lon="2.60627">
        <ele>257.39999389648</ele>
        <time>2022-06-22T07:20:57.000Z</time>
      </trkpt>
      <trkpt lat="46.75057" lon="2.60564">
        <ele>257</ele>
        <time>2022-06-22T07:21:05.000Z</time>
      </trkpt>
      <trkpt lat="46.75046" lon="2.60489">
        <ele>257.60000610352</ele>
        <time>2022-06-22T07:21:14.000Z</time>
      </trkpt>
      <trkpt lat="46.75046" lon="2.60472">
        <ele>256.79998779297</ele>
        <time>2022-06-22T07:21:16.000Z</time>
      </trkpt>
      <trkpt lat="46.75047" lon="2.60446">
        <ele>255.60000610352</ele>
        <time>2022-06-22T07:21:19.000Z</time>
      </trkpt>
      <trkpt lat="46.75051" lon="2.60381">
        <ele>255.39999389648</ele>
        <time>2022-06-22T07:21:27.000Z</time>
      </trkpt>
      <trkpt lat="46.75055" lon="2.60341">
        <ele>256.60000610352</ele>
        <time>2022-06-22T07:21:32.000Z</time>
      </trkpt>
      <trkpt lat="46.75059" lon="2.60267">
        <ele>256</ele>
        <time>2022-06-22T07:21:41.000Z</time>
      </trkpt>
      <trkpt lat="46.75055" lon="2.60192">
        <ele>255.60000610352</ele>
        <time>2022-06-22T07:21:50.000Z</time>
      </trkpt>
      <trkpt lat="46.75049" lon="2.60122">
        <ele>254.19999694824</ele>
        <time>2022-06-22T07:21:59.000Z</time>
      </trkpt>
      <trkpt lat="46.75045" lon="2.60066">
        <ele>255</ele>
        <time>2022-06-22T07:22:06.000Z</time>
      </trkpt>
      <trkpt lat="46.75038" lon="2.59989">
        <ele>258.79998779297</ele>
        <time>2022-06-22T07:22:17.000Z</time>
      </trkpt>
      <trkpt lat="46.75029" lon="2.59911">
        <ele>258.20001220703</ele>
        <time>2022-06-22T07:22:27.000Z</time>
      </trkpt>
      <trkpt lat="46.75017" lon="2.5983">
        <ele>258.79998779297</ele>
        <time>2022-06-22T07:22:37.000Z</time>
      </trkpt>
      <trkpt lat="46.75006" lon="2.59766">
        <ele>260</ele>
        <time>2022-06-22T07:22:45.000Z</time>
      </trkpt>
      <trkpt lat="46.75" lon="2.59743">
        <ele>259.20001220703</ele>
        <time>2022-06-22T07:22:48.000Z</time>
      </trkpt>
      <trkpt lat="46.74993" lon="2.59729">
        <ele>258.20001220703</ele>
        <time>2022-06-22T07:22:50.000Z</time>
      </trkpt>
      <trkpt lat="46.74968" lon="2.59699">
        <ele>256.20001220703</ele>
        <time>2022-06-22T07:22:55.000Z</time>
      </trkpt>
      <trkpt lat="46.74934" lon="2.59667">
        <ele>253.80000305176</ele>
        <time>2022-06-22T07:23:01.000Z</time>
      </trkpt>
      <trkpt lat="46.74927" lon="2.59664">
        <ele>253.39999389648</ele>
        <time>2022-06-22T07:23:02.000Z</time>
      </trkpt>
      <trkpt lat="46.74887" lon="2.59649">
        <ele>252</ele>
        <time>2022-06-22T07:23:08.000Z</time>
      </trkpt>
      <trkpt lat="46.74845" lon="2.59633">
        <ele>251.80000305176</ele>
        <time>2022-06-22T07:23:14.000Z</time>
      </trkpt>
      <trkpt lat="46.74832" lon="2.59625">
        <ele>251.80000305176</ele>
        <time>2022-06-22T07:23:16.000Z</time>
      </trkpt>
      <trkpt lat="46.74819" lon="2.59616">
        <ele>252</ele>
        <time>2022-06-22T07:23:18.000Z</time>
      </trkpt>
      <trkpt lat="46.74796" lon="2.59593">
        <ele>251.60000610352</ele>
        <time>2022-06-22T07:23:22.000Z</time>
      </trkpt>
      <trkpt lat="46.7479" lon="2.59588">
        <ele>251.39999389648</ele>
        <time>2022-06-22T07:23:23.000Z</time>
      </trkpt>
      <trkpt lat="46.74768" lon="2.59567">
        <ele>251.80000305176</ele>
        <time>2022-06-22T07:23:27.000Z</time>
      </trkpt>
      <trkpt lat="46.74757" lon="2.59557">
        <ele>252.19999694824</ele>
        <time>2022-06-22T07:23:29.000Z</time>
      </trkpt>
      <trkpt lat="46.74737" lon="2.59537">
        <ele>252.19999694824</ele>
        <time>2022-06-22T07:23:33.000Z</time>
      </trkpt>
      <trkpt lat="46.74713" lon="2.59512">
        <ele>253</ele>
        <time>2022-06-22T07:23:38.000Z</time>
      </trkpt>
      <trkpt lat="46.74706" lon="2.595">
        <ele>253.60000610352</ele>
        <time>2022-06-22T07:23:40.000Z</time>
      </trkpt>
      <trkpt lat="46.74701" lon="2.59484">
        <ele>253.60000610352</ele>
        <time>2022-06-22T07:23:42.000Z</time>
      </trkpt>
      <trkpt lat="46.74696" lon="2.59469">
        <ele>253.39999389648</ele>
        <time>2022-06-22T07:23:44.000Z</time>
      </trkpt>
      <trkpt lat="46.74692" lon="2.59459">
        <ele>252.80000305176</ele>
        <time>2022-06-22T07:23:45.000Z</time>
      </trkpt>
      <trkpt lat="46.74685" lon="2.59446">
        <ele>251.80000305176</ele>
        <time>2022-06-22T07:23:47.000Z</time>
      </trkpt>
      <trkpt lat="46.74674" lon="2.59437">
        <ele>251</ele>
        <time>2022-06-22T07:23:49.000Z</time>
      </trkpt>
      <trkpt lat="46.74663" lon="2.59437">
        <ele>251</ele>
        <time>2022-06-22T07:23:51.000Z</time>
      </trkpt>
      <trkpt lat="46.74658" lon="2.59438">
        <ele>250.80000305176</ele>
        <time>2022-06-22T07:23:52.000Z</time>
      </trkpt>
      <trkpt lat="46.74652" lon="2.59439">
        <ele>250.60000610352</ele>
        <time>2022-06-22T07:23:53.000Z</time>
      </trkpt>
      <trkpt lat="46.74642" lon="2.59439">
        <ele>250.39999389648</ele>
        <time>2022-06-22T07:23:55.000Z</time>
      </trkpt>
      <trkpt lat="46.74638" lon="2.59438">
        <ele>250.39999389648</ele>
        <time>2022-06-22T07:23:56.000Z</time>
      </trkpt>
      <trkpt lat="46.7463" lon="2.59436">
        <ele>250.39999389648</ele>
        <time>2022-06-22T07:24:00.000Z</time>
      </trkpt>
      <trkpt lat="46.74626" lon="2.59438">
        <ele>250.39999389648</ele>
        <time>2022-06-22T07:24:02.000Z</time>
      </trkpt>
      <trkpt lat="46.74622" lon="2.59445">
        <ele>250</ele>
        <time>2022-06-22T07:24:04.000Z</time>
      </trkpt>
      <trkpt lat="46.74618" lon="2.59473">
        <ele>249</ele>
        <time>2022-06-22T07:24:08.000Z</time>
      </trkpt>
      <trkpt lat="46.74614" lon="2.59509">
        <ele>248.39999389648</ele>
        <time>2022-06-22T07:24:12.000Z</time>
      </trkpt>
      <trkpt lat="46.74613" lon="2.59518">
        <ele>247.39999389648</ele>
        <time>2022-06-22T07:24:13.000Z</time>
      </trkpt>
      <trkpt lat="46.74605" lon="2.59557">
        <ele>246</ele>
        <time>2022-06-22T07:24:17.000Z</time>
      </trkpt>
      <trkpt lat="46.74599" lon="2.59588">
        <ele>245</ele>
        <time>2022-06-22T07:24:20.000Z</time>
      </trkpt>
      <trkpt lat="46.74597" lon="2.59598">
        <ele>244.80000305176</ele>
        <time>2022-06-22T07:24:21.000Z</time>
      </trkpt>
      <trkpt lat="46.74592" lon="2.5962">
        <ele>243.80000305176</ele>
        <time>2022-06-22T07:24:23.000Z</time>
      </trkpt>
      <trkpt lat="46.74589" lon="2.59631">
        <ele>243.39999389648</ele>
        <time>2022-06-22T07:24:24.000Z</time>
      </trkpt>
      <trkpt lat="46.74584" lon="2.59641">
        <ele>242.60000610352</ele>
        <time>2022-06-22T07:24:25.000Z</time>
      </trkpt>
      <trkpt lat="46.74573" lon="2.59659">
        <ele>240.80000305176</ele>
        <time>2022-06-22T07:24:27.000Z</time>
      </trkpt>
      <trkpt lat="46.74566" lon="2.59667">
        <ele>240.19999694824</ele>
        <time>2022-06-22T07:24:28.000Z</time>
      </trkpt>
      <trkpt lat="46.74558" lon="2.59674">
        <ele>239.60000610352</ele>
        <time>2022-06-22T07:24:29.000Z</time>
      </trkpt>
      <trkpt lat="46.74541" lon="2.59683">
        <ele>238.80000305176</ele>
        <time>2022-06-22T07:24:31.000Z</time>
      </trkpt>
      <trkpt lat="46.74533" lon="2.59685">
        <ele>238.39999389648</ele>
        <time>2022-06-22T07:24:32.000Z</time>
      </trkpt>
      <trkpt lat="46.74514" lon="2.59687">
        <ele>237.19999694824</ele>
        <time>2022-06-22T07:24:34.000Z</time>
      </trkpt>
      <trkpt lat="46.74507" lon="2.59687">
        <ele>236.80000305176</ele>
        <time>2022-06-22T07:24:35.000Z</time>
      </trkpt>
      <trkpt lat="46.74488" lon="2.59686">
        <ele>235.39999389648</ele>
        <time>2022-06-22T07:24:37.000Z</time>
      </trkpt>
      <trkpt lat="46.74479" lon="2.59685">
        <ele>234.80000305176</ele>
        <time>2022-06-22T07:24:38.000Z</time>
      </trkpt>
      <trkpt lat="46.74459" lon="2.59684">
        <ele>232.80000305176</ele>
        <time>2022-06-22T07:24:40.000Z</time>
      </trkpt>
      <trkpt lat="46.74449" lon="2.59683">
        <ele>231.80000305176</ele>
        <time>2022-06-22T07:24:41.000Z</time>
      </trkpt>
      <trkpt lat="46.74439" lon="2.59683">
        <ele>230.80000305176</ele>
        <time>2022-06-22T07:24:42.000Z</time>
      </trkpt>
      <trkpt lat="46.74417" lon="2.59682">
        <ele>229.19999694824</ele>
        <time>2022-06-22T07:24:44.000Z</time>
      </trkpt>
      <trkpt lat="46.744" lon="2.59681">
        <ele>227.80000305176</ele>
        <time>2022-06-22T07:24:46.000Z</time>
      </trkpt>
      <trkpt lat="46.74379" lon="2.59677">
        <ele>225.39999389648</ele>
        <time>2022-06-22T07:24:48.000Z</time>
      </trkpt>
      <trkpt lat="46.74372" lon="2.59675">
        <ele>224.39999389648</ele>
        <time>2022-06-22T07:24:49.000Z</time>
      </trkpt>
      <trkpt lat="46.74363" lon="2.5967">
        <ele>223.19999694824</ele>
        <time>2022-06-22T07:24:50.000Z</time>
      </trkpt>
      <trkpt lat="46.74344" lon="2.59658">
        <ele>220.19999694824</ele>
        <time>2022-06-22T07:24:52.000Z</time>
      </trkpt>
      <trkpt lat="46.74335" lon="2.5965">
        <ele>218.60000610352</ele>
        <time>2022-06-22T07:24:53.000Z</time>
      </trkpt>
      <trkpt lat="46.7432" lon="2.59628">
        <ele>216</ele>
        <time>2022-06-22T07:24:55.000Z</time>
      </trkpt>
      <trkpt lat="46.74308" lon="2.59601">
        <ele>214.80000305176</ele>
        <time>2022-06-22T07:24:57.000Z</time>
      </trkpt>
      <trkpt lat="46.74304" lon="2.59587">
        <ele>214.80000305176</ele>
        <time>2022-06-22T07:24:58.000Z</time>
      </trkpt>
      <trkpt lat="46.74299" lon="2.59572">
        <ele>214.60000610352</ele>
        <time>2022-06-22T07:24:59.000Z</time>
      </trkpt>
      <trkpt lat="46.74291" lon="2.59544">
        <ele>213.80000305176</ele>
        <time>2022-06-22T07:25:01.000Z</time>
      </trkpt>
      <trkpt lat="46.74281" lon="2.59517">
        <ele>212.80000305176</ele>
        <time>2022-06-22T07:25:03.000Z</time>
      </trkpt>
      <trkpt lat="46.74275" lon="2.59505">
        <ele>212.39999389648</ele>
        <time>2022-06-22T07:25:04.000Z</time>
      </trkpt>
      <trkpt lat="46.74269" lon="2.59493">
        <ele>212.19999694824</ele>
        <time>2022-06-22T07:25:05.000Z</time>
      </trkpt>
      <trkpt lat="46.74256" lon="2.59471">
        <ele>211.80000305176</ele>
        <time>2022-06-22T07:25:07.000Z</time>
      </trkpt>
      <trkpt lat="46.74242" lon="2.59449">
        <ele>211</ele>
        <time>2022-06-22T07:25:09.000Z</time>
      </trkpt>
      <trkpt lat="46.74235" lon="2.59438">
        <ele>211</ele>
        <time>2022-06-22T07:25:10.000Z</time>
      </trkpt>
      <trkpt lat="46.74222" lon="2.59415">
        <ele>210.80000305176</ele>
        <time>2022-06-22T07:25:12.000Z</time>
      </trkpt>
      <trkpt lat="46.74207" lon="2.59392">
        <ele>210</ele>
        <time>2022-06-22T07:25:14.000Z</time>
      </trkpt>
      <trkpt lat="46.74192" lon="2.59368">
        <ele>207.80000305176</ele>
        <time>2022-06-22T07:25:16.000Z</time>
      </trkpt>
      <trkpt lat="46.74176" lon="2.59343">
        <ele>204.80000305176</ele>
        <time>2022-06-22T07:25:18.000Z</time>
      </trkpt>
      <trkpt lat="46.74164" lon="2.59323">
        <ele>203</ele>
        <time>2022-06-22T07:25:20.000Z</time>
      </trkpt>
      <trkpt lat="46.74151" lon="2.59303">
        <ele>201.60000610352</ele>
        <time>2022-06-22T07:25:22.000Z</time>
      </trkpt>
      <trkpt lat="46.74137" lon="2.59283">
        <ele>200.19999694824</ele>
        <time>2022-06-22T07:25:24.000Z</time>
      </trkpt>
      <trkpt lat="46.7413" lon="2.59276">
        <ele>199.60000610352</ele>
        <time>2022-06-22T07:25:25.000Z</time>
      </trkpt>
      <trkpt lat="46.74121" lon="2.5927">
        <ele>199.19999694824</ele>
        <time>2022-06-22T07:25:26.000Z</time>
      </trkpt>
      <trkpt lat="46.74113" lon="2.59266">
        <ele>198.39999389648</ele>
        <time>2022-06-22T07:25:27.000Z</time>
      </trkpt>
      <trkpt lat="46.74104" lon="2.59265">
        <ele>197.39999389648</ele>
        <time>2022-06-22T07:25:28.000Z</time>
      </trkpt>
      <trkpt lat="46.74095" lon="2.59267">
        <ele>196.60000610352</ele>
        <time>2022-06-22T07:25:29.000Z</time>
      </trkpt>
      <trkpt lat="46.74086" lon="2.59272">
        <ele>196</ele>
        <time>2022-06-22T07:25:30.000Z</time>
      </trkpt>
      <trkpt lat="46.74077" lon="2.59279">
        <ele>195</ele>
        <time>2022-06-22T07:25:31.000Z</time>
      </trkpt>
      <trkpt lat="46.74067" lon="2.59289">
        <ele>194</ele>
        <time>2022-06-22T07:25:32.000Z</time>
      </trkpt>
      <trkpt lat="46.7406" lon="2.59299">
        <ele>193.60000610352</ele>
        <time>2022-06-22T07:25:33.000Z</time>
      </trkpt>
      <trkpt lat="46.74054" lon="2.59309">
        <ele>193</ele>
        <time>2022-06-22T07:25:34.000Z</time>
      </trkpt>
      <trkpt lat="46.74047" lon="2.59319">
        <ele>192.39999389648</ele>
        <time>2022-06-22T07:25:35.000Z</time>
      </trkpt>
      <trkpt lat="46.74038" lon="2.59328">
        <ele>191.39999389648</ele>
        <time>2022-06-22T07:25:36.000Z</time>
      </trkpt>
      <trkpt lat="46.74029" lon="2.59334">
        <ele>191</ele>
        <time>2022-06-22T07:25:37.000Z</time>
      </trkpt>
      <trkpt lat="46.7402" lon="2.59338">
        <ele>191</ele>
        <time>2022-06-22T07:25:38.000Z</time>
      </trkpt>
      <trkpt lat="46.74011" lon="2.5934">
        <ele>191</ele>
        <time>2022-06-22T07:25:39.000Z</time>
      </trkpt>
      <trkpt lat="46.74002" lon="2.5934">
        <ele>191.39999389648</ele>
        <time>2022-06-22T07:25:40.000Z</time>
      </trkpt>
      <trkpt lat="46.73986" lon="2.59338">
        <ele>192.39999389648</ele>
        <time>2022-06-22T07:25:42.000Z</time>
      </trkpt>
      <trkpt lat="46.73978" lon="2.59336">
        <ele>193</ele>
        <time>2022-06-22T07:25:43.000Z</time>
      </trkpt>
      <trkpt lat="46.7397" lon="2.59333">
        <ele>193.39999389648</ele>
        <time>2022-06-22T07:25:44.000Z</time>
      </trkpt>
      <trkpt lat="46.7395" lon="2.59329">
        <ele>194.19999694824</ele>
        <time>2022-06-22T07:25:47.000Z</time>
      </trkpt>
      <trkpt lat="46.73944" lon="2.59327">
        <ele>194.39999389648</ele>
        <time>2022-06-22T07:25:48.000Z</time>
      </trkpt>
      <trkpt lat="46.73933" lon="2.59325">
        <ele>194.39999389648</ele>
        <time>2022-06-22T07:25:50.000Z</time>
      </trkpt>
      <trkpt lat="46.73928" lon="2.59327">
        <ele>194.39999389648</ele>
        <time>2022-06-22T07:25:51.000Z</time>
      </trkpt>
      <trkpt lat="46.73924" lon="2.59333">
        <ele>194.19999694824</ele>
        <time>2022-06-22T07:25:52.000Z</time>
      </trkpt>
      <trkpt lat="46.73919" lon="2.59338">
        <ele>194</ele>
        <time>2022-06-22T07:25:53.000Z</time>
      </trkpt>
      <trkpt lat="46.73914" lon="2.59342">
        <ele>193.80000305176</ele>
        <time>2022-06-22T07:25:54.000Z</time>
      </trkpt>
      <trkpt lat="46.7388" lon="2.59357">
        <ele>192.19999694824</ele>
        <time>2022-06-22T07:26:00.000Z</time>
      </trkpt>
      <trkpt lat="46.7385" lon="2.59366">
        <ele>191.80000305176</ele>
        <time>2022-06-22T07:26:05.000Z</time>
      </trkpt>
      <trkpt lat="46.73838" lon="2.59368">
        <ele>191.80000305176</ele>
        <time>2022-06-22T07:26:07.000Z</time>
      </trkpt>
      <trkpt lat="46.73831" lon="2.59368">
        <ele>191.60000610352</ele>
        <time>2022-06-22T07:26:08.000Z</time>
      </trkpt>
      <trkpt lat="46.73813" lon="2.59369">
        <ele>191.60000610352</ele>
        <time>2022-06-22T07:26:11.000Z</time>
      </trkpt>
      <trkpt lat="46.73804" lon="2.5937">
        <ele>191.19999694824</ele>
        <time>2022-06-22T07:26:13.000Z</time>
      </trkpt>
      <trkpt lat="46.73788" lon="2.59366">
        <ele>191</ele>
        <time>2022-06-22T07:26:16.000Z</time>
      </trkpt>
      <trkpt lat="46.73775" lon="2.59361">
        <ele>190.60000610352</ele>
        <time>2022-06-22T07:26:18.000Z</time>
      </trkpt>
      <trkpt lat="46.73761" lon="2.59359">
        <ele>190.19999694824</ele>
        <time>2022-06-22T07:26:20.000Z</time>
      </trkpt>
      <trkpt lat="46.73755" lon="2.59359">
        <ele>190</ele>
        <time>2022-06-22T07:26:21.000Z</time>
      </trkpt>
      <trkpt lat="46.73741" lon="2.59359">
        <ele>190.19999694824</ele>
        <time>2022-06-22T07:26:23.000Z</time>
      </trkpt>
      <trkpt lat="46.73721" lon="2.59357">
        <ele>190</ele>
        <time>2022-06-22T07:26:26.000Z</time>
      </trkpt>
      <trkpt lat="46.73715" lon="2.59355">
        <ele>189.80000305176</ele>
        <time>2022-06-22T07:26:27.000Z</time>
      </trkpt>
      <trkpt lat="46.73702" lon="2.59354">
        <ele>189.39999389648</ele>
        <time>2022-06-22T07:26:29.000Z</time>
      </trkpt>
      <trkpt lat="46.73687" lon="2.59356">
        <ele>188.80000305176</ele>
        <time>2022-06-22T07:26:31.000Z</time>
      </trkpt>
      <trkpt lat="46.73672" lon="2.5936">
        <ele>188</ele>
        <time>2022-06-22T07:26:33.000Z</time>
      </trkpt>
      <trkpt lat="46.73664" lon="2.59363">
        <ele>187.39999389648</ele>
        <time>2022-06-22T07:26:34.000Z</time>
      </trkpt>
      <trkpt lat="46.73656" lon="2.59366">
        <ele>186.60000610352</ele>
        <time>2022-06-22T07:26:35.000Z</time>
      </trkpt>
      <trkpt lat="46.73631" lon="2.59374">
        <ele>184.60000610352</ele>
        <time>2022-06-22T07:26:38.000Z</time>
      </trkpt>
      <trkpt lat="46.73607" lon="2.59382">
        <ele>183.19999694824</ele>
        <time>2022-06-22T07:26:41.000Z</time>
      </trkpt>
      <trkpt lat="46.73574" lon="2.59391">
        <ele>180.80000305176</ele>
        <time>2022-06-22T07:26:45.000Z</time>
      </trkpt>
      <trkpt lat="46.73554" lon="2.59395">
        <ele>180.19999694824</ele>
        <time>2022-06-22T07:26:48.000Z</time>
      </trkpt>
      <trkpt lat="46.73532" lon="2.59398">
        <ele>180</ele>
        <time>2022-06-22T07:26:51.000Z</time>
      </trkpt>
      <trkpt lat="46.73498" lon="2.59403">
        <ele>179.39999389648</ele>
        <time>2022-06-22T07:26:56.000Z</time>
      </trkpt>
      <trkpt lat="46.73472" lon="2.59408">
        <ele>179.80000305176</ele>
        <time>2022-06-22T07:27:00.000Z</time>
      </trkpt>
      <trkpt lat="46.73445" lon="2.59415">
        <ele>177.60000610352</ele>
        <time>2022-06-22T07:27:04.000Z</time>
      </trkpt>
      <trkpt lat="46.73431" lon="2.59418">
        <ele>177.19999694824</ele>
        <time>2022-06-22T07:27:06.000Z</time>
      </trkpt>
      <trkpt lat="46.73383" lon="2.59429">
        <ele>175.39999389648</ele>
        <time>2022-06-22T07:27:13.000Z</time>
      </trkpt>
      <trkpt lat="46.73377" lon="2.5943">
        <ele>175.39999389648</ele>
        <time>2022-06-22T07:27:14.000Z</time>
      </trkpt>
      <trkpt lat="46.73329" lon="2.59434">
        <ele>175.60000610352</ele>
        <time>2022-06-22T07:27:21.000Z</time>
      </trkpt>
      <trkpt lat="46.73315" lon="2.59437">
        <ele>175</ele>
        <time>2022-06-22T07:27:23.000Z</time>
      </trkpt>
      <trkpt lat="46.73281" lon="2.59448">
        <ele>174</ele>
        <time>2022-06-22T07:27:28.000Z</time>
      </trkpt>
      <trkpt lat="46.73261" lon="2.59456">
        <ele>174.19999694824</ele>
        <time>2022-06-22T07:27:31.000Z</time>
      </trkpt>
      <trkpt lat="46.73239" lon="2.5947">
        <ele>173.39999389648</ele>
        <time>2022-06-22T07:27:35.000Z</time>
      </trkpt>
      <trkpt lat="46.73193" lon="2.59501">
        <ele>173</ele>
        <time>2022-06-22T07:27:43.000Z</time>
      </trkpt>
      <trkpt lat="46.73181" lon="2.59509">
        <ele>173</ele>
        <time>2022-06-22T07:27:45.000Z</time>
      </trkpt>
      <trkpt lat="46.73138" lon="2.59537">
        <ele>172.80000305176</ele>
        <time>2022-06-22T07:27:53.000Z</time>
      </trkpt>
      <trkpt lat="46.73123" lon="2.59545">
        <ele>172.19999694824</ele>
        <time>2022-06-22T07:27:56.000Z</time>
      </trkpt>
      <trkpt lat="46.73115" lon="2.59545">
        <ele>171.80000305176</ele>
        <time>2022-06-22T07:27:58.000Z</time>
      </trkpt>
      <trkpt lat="46.73102" lon="2.59545">
        <ele>171.39999389648</ele>
        <time>2022-06-22T07:28:02.000Z</time>
      </trkpt>
      <trkpt lat="46.73099" lon="2.59546">
        <ele>171.39999389648</ele>
        <time>2022-06-22T07:28:03.000Z</time>
      </trkpt>
      <trkpt lat="46.73088" lon="2.59555">
        <ele>171</ele>
        <time>2022-06-22T07:28:06.000Z</time>
      </trkpt>
      <trkpt lat="46.73057" lon="2.5957">
        <ele>171</ele>
        <time>2022-06-22T07:28:12.000Z</time>
      </trkpt>
      <trkpt lat="46.73022" lon="2.59581">
        <ele>171</ele>
        <time>2022-06-22T07:28:18.000Z</time>
      </trkpt>
      <trkpt lat="46.73011" lon="2.59583">
        <ele>171</ele>
        <time>2022-06-22T07:28:20.000Z</time>
      </trkpt>
      <trkpt lat="46.72956" lon="2.59591">
        <ele>170.80000305176</ele>
        <time>2022-06-22T07:28:29.000Z</time>
      </trkpt>
      <trkpt lat="46.7295" lon="2.59592">
        <ele>171</ele>
        <time>2022-06-22T07:28:30.000Z</time>
      </trkpt>
      <trkpt lat="46.72915" lon="2.59607">
        <ele>171</ele>
        <time>2022-06-22T07:28:36.000Z</time>
      </trkpt>
      <trkpt lat="46.72861" lon="2.59642">
        <ele>170.80000305176</ele>
        <time>2022-06-22T07:28:46.000Z</time>
      </trkpt>
      <trkpt lat="46.72844" lon="2.59652">
        <ele>170.19999694824</ele>
        <time>2022-06-22T07:28:49.000Z</time>
      </trkpt>
      <trkpt lat="46.72811" lon="2.59671">
        <ele>169</ele>
        <time>2022-06-22T07:28:55.000Z</time>
      </trkpt>
      <trkpt lat="46.72753" lon="2.59692">
        <ele>168.19999694824</ele>
        <time>2022-06-22T07:29:05.000Z</time>
      </trkpt>
      <trkpt lat="46.727" lon="2.59706">
        <ele>169.39999389648</ele>
        <time>2022-06-22T07:29:14.000Z</time>
      </trkpt>
      <trkpt lat="46.7266" lon="2.59713">
        <ele>170.60000610352</ele>
        <time>2022-06-22T07:29:21.000Z</time>
      </trkpt>
      <trkpt lat="46.72627" lon="2.59725">
        <ele>170</ele>
        <time>2022-06-22T07:29:27.000Z</time>
      </trkpt>
      <trkpt lat="46.72591" lon="2.59745">
        <ele>169</ele>
        <time>2022-06-22T07:29:33.000Z</time>
      </trkpt>
      <trkpt lat="46.72578" lon="2.59753">
        <ele>168.60000610352</ele>
        <time>2022-06-22T07:29:35.000Z</time>
      </trkpt>
      <trkpt lat="46.72567" lon="2.59761">
        <ele>168.19999694824</ele>
        <time>2022-06-22T07:29:37.000Z</time>
      </trkpt>
      <trkpt lat="46.72541" lon="2.59777">
        <ele>168.80000305176</ele>
        <time>2022-06-22T07:29:42.000Z</time>
      </trkpt>
      <trkpt lat="46.72486" lon="2.59806">
        <ele>169</ele>
        <time>2022-06-22T07:29:52.000Z</time>
      </trkpt>
      <trkpt lat="46.72481" lon="2.59809">
        <ele>169</ele>
        <time>2022-06-22T07:29:53.000Z</time>
      </trkpt>
      <trkpt lat="46.72449" lon="2.59822">
        <ele>168.39999389648</ele>
        <time>2022-06-22T07:29:59.000Z</time>
      </trkpt>
      <trkpt lat="46.72442" lon="2.59821">
        <ele>168.39999389648</ele>
        <time>2022-06-22T07:30:00.000Z</time>
      </trkpt>
      <trkpt lat="46.72437" lon="2.59819">
        <ele>168.39999389648</ele>
        <time>2022-06-22T07:30:01.000Z</time>
      </trkpt>
      <trkpt lat="46.72427" lon="2.59809">
        <ele>168</ele>
        <time>2022-06-22T07:30:03.000Z</time>
      </trkpt>
      <trkpt lat="46.72423" lon="2.59803">
        <ele>167.80000305176</ele>
        <time>2022-06-22T07:30:04.000Z</time>
      </trkpt>
      <trkpt lat="46.72419" lon="2.59795">
        <ele>167.60000610352</ele>
        <time>2022-06-22T07:30:05.000Z</time>
      </trkpt>
      <trkpt lat="46.7241" lon="2.59763">
        <ele>167</ele>
        <time>2022-06-22T07:30:09.000Z</time>
      </trkpt>
      <trkpt lat="46.72393" lon="2.59699">
        <ele>168.19999694824</ele>
        <time>2022-06-22T07:30:17.000Z</time>
      </trkpt>
      <trkpt lat="46.7238" lon="2.59626">
        <ele>168.60000610352</ele>
        <time>2022-06-22T07:30:26.000Z</time>
      </trkpt>
      <trkpt lat="46.72372" lon="2.5957">
        <ele>168.19999694824</ele>
        <time>2022-06-22T07:30:33.000Z</time>
      </trkpt>
      <trkpt lat="46.72371" lon="2.59554">
        <ele>168</ele>
        <time>2022-06-22T07:30:35.000Z</time>
      </trkpt>
      <trkpt lat="46.72373" lon="2.59526">
        <ele>167.80000305176</ele>
        <time>2022-06-22T07:30:38.000Z</time>
      </trkpt>
      <trkpt lat="46.72381" lon="2.59448">
        <ele>166</ele>
        <time>2022-06-22T07:30:47.000Z</time>
      </trkpt>
      <trkpt lat="46.72381" lon="2.59422">
        <ele>167</ele>
        <time>2022-06-22T07:30:50.000Z</time>
      </trkpt>
      <trkpt lat="46.72379" lon="2.59397">
        <ele>167.80000305176</ele>
        <time>2022-06-22T07:30:53.000Z</time>
      </trkpt>
      <trkpt lat="46.72369" lon="2.59331">
        <ele>169</ele>
        <time>2022-06-22T07:31:01.000Z</time>
      </trkpt>
      <trkpt lat="46.72359" lon="2.59274">
        <ele>169</ele>
        <time>2022-06-22T07:31:08.000Z</time>
      </trkpt>
      <trkpt lat="46.72356" lon="2.59267">
        <ele>169</ele>
        <time>2022-06-22T07:31:09.000Z</time>
      </trkpt>
      <trkpt lat="46.72352" lon="2.59261">
        <ele>168.80000305176</ele>
        <time>2022-06-22T07:31:10.000Z</time>
      </trkpt>
      <trkpt lat="46.72341" lon="2.59254">
        <ele>169</ele>
        <time>2022-06-22T07:31:12.000Z</time>
      </trkpt>
      <trkpt lat="46.72321" lon="2.59255">
        <ele>169</ele>
        <time>2022-06-22T07:31:16.000Z</time>
      </trkpt>
      <trkpt lat="46.72313" lon="2.59255">
        <ele>169</ele>
        <time>2022-06-22T07:31:18.000Z</time>
      </trkpt>
      <trkpt lat="46.72293" lon="2.59258">
        <ele>167.60000610352</ele>
        <time>2022-06-22T07:31:22.000Z</time>
      </trkpt>
      <trkpt lat="46.72248" lon="2.59265">
        <ele>166.39999389648</ele>
        <time>2022-06-22T07:31:30.000Z</time>
      </trkpt>
      <trkpt lat="46.72227" lon="2.59268">
        <ele>166</ele>
        <time>2022-06-22T07:31:34.000Z</time>
      </trkpt>
      <trkpt lat="46.72215" lon="2.59267">
        <ele>166.39999389648</ele>
        <time>2022-06-22T07:31:36.000Z</time>
      </trkpt>
      <trkpt lat="46.72205" lon="2.59261">
        <ele>166.80000305176</ele>
        <time>2022-06-22T07:31:38.000Z</time>
      </trkpt>
      <trkpt lat="46.72196" lon="2.59251">
        <ele>167</ele>
        <time>2022-06-22T07:31:40.000Z</time>
      </trkpt>
      <trkpt lat="46.72173" lon="2.59215">
        <ele>168</ele>
        <time>2022-06-22T07:31:46.000Z</time>
      </trkpt>
      <trkpt lat="46.72168" lon="2.5921">
        <ele>167.80000305176</ele>
        <time>2022-06-22T07:31:47.000Z</time>
      </trkpt>
      <trkpt lat="46.72163" lon="2.59207">
        <ele>167.60000610352</ele>
        <time>2022-06-22T07:31:48.000Z</time>
      </trkpt>
      <trkpt lat="46.72152" lon="2.59202">
        <ele>167.19999694824</ele>
        <time>2022-06-22T07:31:50.000Z</time>
      </trkpt>
      <trkpt lat="46.72146" lon="2.59202">
        <ele>167</ele>
        <time>2022-06-22T07:31:51.000Z</time>
      </trkpt>
      <trkpt lat="46.72141" lon="2.59202">
        <ele>167</ele>
        <time>2022-06-22T07:31:52.000Z</time>
      </trkpt>
      <trkpt lat="46.72113" lon="2.59211">
        <ele>167</ele>
        <time>2022-06-22T07:31:57.000Z</time>
      </trkpt>
      <trkpt lat="46.7206" lon="2.59233">
        <ele>167.80000305176</ele>
        <time>2022-06-22T07:32:07.000Z</time>
      </trkpt>
      <trkpt lat="46.72005" lon="2.59252">
        <ele>167</ele>
        <time>2022-06-22T07:32:17.000Z</time>
      </trkpt>
      <trkpt lat="46.71961" lon="2.59258">
        <ele>167.60000610352</ele>
        <time>2022-06-22T07:32:25.000Z</time>
      </trkpt>
      <trkpt lat="46.71912" lon="2.59263">
        <ele>167</ele>
        <time>2022-06-22T07:32:34.000Z</time>
      </trkpt>
      <trkpt lat="46.71864" lon="2.59268">
        <ele>166.80000305176</ele>
        <time>2022-06-22T07:32:43.000Z</time>
      </trkpt>
      <trkpt lat="46.71811" lon="2.59274">
        <ele>165.19999694824</ele>
        <time>2022-06-22T07:32:53.000Z</time>
      </trkpt>
      <trkpt lat="46.71806" lon="2.59275">
        <ele>165.19999694824</ele>
        <time>2022-06-22T07:32:54.000Z</time>
      </trkpt>
      <trkpt lat="46.71797" lon="2.59279">
        <ele>165.60000610352</ele>
        <time>2022-06-22T07:32:57.000Z</time>
      </trkpt>
      <trkpt lat="46.71773" lon="2.5929">
        <ele>166</ele>
        <time>2022-06-22T07:33:02.000Z</time>
      </trkpt>
      <trkpt lat="46.71725" lon="2.59314">
        <ele>166.19999694824</ele>
        <time>2022-06-22T07:33:11.000Z</time>
      </trkpt>
      <trkpt lat="46.71682" lon="2.59334">
        <ele>168</ele>
        <time>2022-06-22T07:33:19.000Z</time>
      </trkpt>
      <trkpt lat="46.71638" lon="2.59355">
        <ele>167</ele>
        <time>2022-06-22T07:33:27.000Z</time>
      </trkpt>
      <trkpt lat="46.71605" lon="2.5937">
        <ele>166.39999389648</ele>
        <time>2022-06-22T07:33:33.000Z</time>
      </trkpt>
      <trkpt lat="46.71588" lon="2.59379">
        <ele>167</ele>
        <time>2022-06-22T07:33:36.000Z</time>
      </trkpt>
      <trkpt lat="46.71535" lon="2.59409">
        <ele>169</ele>
        <time>2022-06-22T07:33:46.000Z</time>
      </trkpt>
      <trkpt lat="46.7153" lon="2.59412">
        <ele>169</ele>
        <time>2022-06-22T07:33:47.000Z</time>
      </trkpt>
      <trkpt lat="46.71494" lon="2.59445">
        <ele>169</ele>
        <time>2022-06-22T07:33:55.000Z</time>
      </trkpt>
      <trkpt lat="46.71485" lon="2.59452">
        <ele>169</ele>
        <time>2022-06-22T07:33:57.000Z</time>
      </trkpt>
      <trkpt lat="46.71442" lon="2.59489">
        <ele>170.39999389648</ele>
        <time>2022-06-22T07:34:07.000Z</time>
      </trkpt>
      <trkpt lat="46.71438" lon="2.59492">
        <ele>170.60000610352</ele>
        <time>2022-06-22T07:34:08.000Z</time>
      </trkpt>
      <trkpt lat="46.71396" lon="2.59524">
        <ele>173</ele>
        <time>2022-06-22T07:34:18.000Z</time>
      </trkpt>
      <trkpt lat="46.71367" lon="2.5954">
        <ele>173.60000610352</ele>
        <time>2022-06-22T07:34:25.000Z</time>
      </trkpt>
      <trkpt lat="46.71341" lon="2.59554">
        <ele>174.80000305176</ele>
        <time>2022-06-22T07:34:32.000Z</time>
      </trkpt>
      <trkpt lat="46.71338" lon="2.59556">
        <ele>175</ele>
        <time>2022-06-22T07:34:33.000Z</time>
      </trkpt>
      <trkpt lat="46.71316" lon="2.59568">
        <ele>176.60000610352</ele>
        <time>2022-06-22T07:34:39.000Z</time>
      </trkpt>
      <trkpt lat="46.71305" lon="2.59573">
        <ele>177.19999694824</ele>
        <time>2022-06-22T07:34:42.000Z</time>
      </trkpt>
      <trkpt lat="46.7129" lon="2.5958">
        <ele>177.80000305176</ele>
        <time>2022-06-22T07:34:46.000Z</time>
      </trkpt>
      <trkpt lat="46.71276" lon="2.59588">
        <ele>178</ele>
        <time>2022-06-22T07:34:50.000Z</time>
      </trkpt>
      <trkpt lat="46.71265" lon="2.59594">
        <ele>178.19999694824</ele>
        <time>2022-06-22T07:34:53.000Z</time>
      </trkpt>
      <trkpt lat="46.71243" lon="2.59605">
        <ele>179.19999694824</ele>
        <time>2022-06-22T07:34:59.000Z</time>
      </trkpt>
      <trkpt lat="46.71239" lon="2.59607">
        <ele>179.39999389648</ele>
        <time>2022-06-22T07:35:00.000Z</time>
      </trkpt>
      <trkpt lat="46.71214" lon="2.59621">
        <ele>181</ele>
        <time>2022-06-22T07:35:07.000Z</time>
      </trkpt>
      <trkpt lat="46.71207" lon="2.59625">
        <ele>181.60000610352</ele>
        <time>2022-06-22T07:35:09.000Z</time>
      </trkpt>
      <trkpt lat="46.71193" lon="2.59634">
        <ele>182.80000305176</ele>
        <time>2022-06-22T07:35:13.000Z</time>
      </trkpt>
      <trkpt lat="46.7119" lon="2.59637">
        <ele>182.80000305176</ele>
        <time>2022-06-22T07:35:14.000Z</time>
      </trkpt>
      <trkpt lat="46.71177" lon="2.59648">
        <ele>183.39999389648</ele>
        <time>2022-06-22T07:35:18.000Z</time>
      </trkpt>
      <trkpt lat="46.71165" lon="2.59661">
        <ele>184.39999389648</ele>
        <time>2022-06-22T07:35:22.000Z</time>
      </trkpt>
      <trkpt lat="46.71152" lon="2.59679">
        <ele>185.39999389648</ele>
        <time>2022-06-22T07:35:27.000Z</time>
      </trkpt>
      <trkpt lat="46.71147" lon="2.59686">
        <ele>185.60000610352</ele>
        <time>2022-06-22T07:35:29.000Z</time>
      </trkpt>
      <trkpt lat="46.71132" lon="2.59705">
        <ele>186</ele>
        <time>2022-06-22T07:35:34.000Z</time>
      </trkpt>
      <trkpt lat="46.71121" lon="2.59717">
        <ele>186.60000610352</ele>
        <time>2022-06-22T07:35:38.000Z</time>
      </trkpt>
      <trkpt lat="46.71119" lon="2.59721">
        <ele>186.80000305176</ele>
        <time>2022-06-22T07:35:39.000Z</time>
      </trkpt>
      <trkpt lat="46.71116" lon="2.59724">
        <ele>187</ele>
        <time>2022-06-22T07:35:40.000Z</time>
      </trkpt>
      <trkpt lat="46.71101" lon="2.59741">
        <ele>188.19999694824</ele>
        <time>2022-06-22T07:35:45.000Z</time>
      </trkpt>
      <trkpt lat="46.71089" lon="2.59755">
        <ele>189</ele>
        <time>2022-06-22T07:35:49.000Z</time>
      </trkpt>
      <trkpt lat="46.71087" lon="2.59759">
        <ele>189.19999694824</ele>
        <time>2022-06-22T07:35:50.000Z</time>
      </trkpt>
      <trkpt lat="46.71071" lon="2.59784">
        <ele>190.19999694824</ele>
        <time>2022-06-22T07:35:56.000Z</time>
      </trkpt>
      <trkpt lat="46.71069" lon="2.59788">
        <ele>190.19999694824</ele>
        <time>2022-06-22T07:35:57.000Z</time>
      </trkpt>
      <trkpt lat="46.71058" lon="2.5981">
        <ele>191.19999694824</ele>
        <time>2022-06-22T07:36:02.000Z</time>
      </trkpt>
      <trkpt lat="46.71052" lon="2.59823">
        <ele>191.80000305176</ele>
        <time>2022-06-22T07:36:05.000Z</time>
      </trkpt>
      <trkpt lat="46.71044" lon="2.59842">
        <ele>193.60000610352</ele>
        <time>2022-06-22T07:36:09.000Z</time>
      </trkpt>
      <trkpt lat="46.71034" lon="2.59863">
        <ele>195</ele>
        <time>2022-06-22T07:36:14.000Z</time>
      </trkpt>
      <trkpt lat="46.71023" lon="2.59884">
        <ele>195.80000305176</ele>
        <time>2022-06-22T07:36:19.000Z</time>
      </trkpt>
      <trkpt lat="46.71016" lon="2.59896">
        <ele>196.19999694824</ele>
        <time>2022-06-22T07:36:22.000Z</time>
      </trkpt>
      <trkpt lat="46.71014" lon="2.599">
        <ele>196.19999694824</ele>
        <time>2022-06-22T07:36:23.000Z</time>
      </trkpt>
      <trkpt lat="46.70998" lon="2.59918">
        <ele>197</ele>
        <time>2022-06-22T07:36:29.000Z</time>
      </trkpt>
      <trkpt lat="46.70981" lon="2.59925">
        <ele>197.39999389648</ele>
        <time>2022-06-22T07:36:34.000Z</time>
      </trkpt>
      <trkpt lat="46.70973" lon="2.59924">
        <ele>197.60000610352</ele>
        <time>2022-06-22T07:36:36.000Z</time>
      </trkpt>
      <trkpt lat="46.70952" lon="2.59921">
        <ele>198</ele>
        <time>2022-06-22T07:36:41.000Z</time>
      </trkpt>
      <trkpt lat="46.70945" lon="2.59919">
        <ele>198</ele>
        <time>2022-06-22T07:36:43.000Z</time>
      </trkpt>
      <trkpt lat="46.70914" lon="2.5992">
        <ele>198.39999389648</ele>
        <time>2022-06-22T07:36:50.000Z</time>
      </trkpt>
      <trkpt lat="46.70897" lon="2.59925">
        <ele>199.60000610352</ele>
        <time>2022-06-22T07:36:54.000Z</time>
      </trkpt>
      <trkpt lat="46.70877" lon="2.59933">
        <ele>200.39999389648</ele>
        <time>2022-06-22T07:36:59.000Z</time>
      </trkpt>
      <trkpt lat="46.70873" lon="2.59934">
        <ele>200.60000610352</ele>
        <time>2022-06-22T07:37:00.000Z</time>
      </trkpt>
      <trkpt lat="46.7085" lon="2.59939">
        <ele>201</ele>
        <time>2022-06-22T07:37:06.000Z</time>
      </trkpt>
      <trkpt lat="46.70838" lon="2.59941">
        <ele>201.39999389648</ele>
        <time>2022-06-22T07:37:09.000Z</time>
      </trkpt>
      <trkpt lat="46.70823" lon="2.59945">
        <ele>201.80000305176</ele>
        <time>2022-06-22T07:37:13.000Z</time>
      </trkpt>
      <trkpt lat="46.70808" lon="2.59951">
        <ele>202.39999389648</ele>
        <time>2022-06-22T07:37:17.000Z</time>
      </trkpt>
      <trkpt lat="46.70792" lon="2.59961">
        <ele>203.19999694824</ele>
        <time>2022-06-22T07:37:21.000Z</time>
      </trkpt>
      <trkpt lat="46.70777" lon="2.59973">
        <ele>204.39999389648</ele>
        <time>2022-06-22T07:37:25.000Z</time>
      </trkpt>
      <trkpt lat="46.70756" lon="2.59992">
        <ele>204.19999694824</ele>
        <time>2022-06-22T07:37:31.000Z</time>
      </trkpt>
      <trkpt lat="46.70748" lon="2.60001">
        <ele>204.39999389648</ele>
        <time>2022-06-22T07:37:33.000Z</time>
      </trkpt>
      <trkpt lat="46.70744" lon="2.60005">
        <ele>204.39999389648</ele>
        <time>2022-06-22T07:37:34.000Z</time>
      </trkpt>
      <trkpt lat="46.7074" lon="2.60011">
        <ele>204.39999389648</ele>
        <time>2022-06-22T07:37:35.000Z</time>
      </trkpt>
      <trkpt lat="46.70728" lon="2.60031">
        <ele>204</ele>
        <time>2022-06-22T07:37:38.000Z</time>
      </trkpt>
      <trkpt lat="46.70725" lon="2.60036">
        <ele>204</ele>
        <time>2022-06-22T07:37:39.000Z</time>
      </trkpt>
      <trkpt lat="46.70709" lon="2.60072">
        <ele>204.60000610352</ele>
        <time>2022-06-22T07:37:45.000Z</time>
      </trkpt>
      <trkpt lat="46.70686" lon="2.60102">
        <ele>205.60000610352</ele>
        <time>2022-06-22T07:37:52.000Z</time>
      </trkpt>
      <trkpt lat="46.70668" lon="2.60118">
        <ele>206.19999694824</ele>
        <time>2022-06-22T07:37:57.000Z</time>
      </trkpt>
      <trkpt lat="46.7065" lon="2.60134">
        <ele>206.60000610352</ele>
        <time>2022-06-22T07:38:02.000Z</time>
      </trkpt>
      <trkpt lat="46.70644" lon="2.6014">
        <ele>206.80000305176</ele>
        <time>2022-06-22T07:38:04.000Z</time>
      </trkpt>
      <trkpt lat="46.70622" lon="2.60168">
        <ele>207.19999694824</ele>
        <time>2022-06-22T07:38:11.000Z</time>
      </trkpt>
      <trkpt lat="46.70619" lon="2.60172">
        <ele>207.19999694824</ele>
        <time>2022-06-22T07:38:12.000Z</time>
      </trkpt>
      <trkpt lat="46.70616" lon="2.60176">
        <ele>207.19999694824</ele>
        <time>2022-06-22T07:38:13.000Z</time>
      </trkpt>
      <trkpt lat="46.706" lon="2.60193">
        <ele>208.39999389648</ele>
        <time>2022-06-22T07:38:18.000Z</time>
      </trkpt>
      <trkpt lat="46.70586" lon="2.60205">
        <ele>209.19999694824</ele>
        <time>2022-06-22T07:38:22.000Z</time>
      </trkpt>
      <trkpt lat="46.70579" lon="2.60216">
        <ele>209.60000610352</ele>
        <time>2022-06-22T07:38:25.000Z</time>
      </trkpt>
      <trkpt lat="46.70569" lon="2.60242">
        <ele>211</ele>
        <time>2022-06-22T07:38:30.000Z</time>
      </trkpt>
      <trkpt lat="46.70568" lon="2.60248">
        <ele>211.39999389648</ele>
        <time>2022-06-22T07:38:31.000Z</time>
      </trkpt>
      <trkpt lat="46.7056" lon="2.60274">
        <ele>212.80000305176</ele>
        <time>2022-06-22T07:38:36.000Z</time>
      </trkpt>
      <trkpt lat="46.70552" lon="2.60299">
        <ele>213.60000610352</ele>
        <time>2022-06-22T07:38:41.000Z</time>
      </trkpt>
      <trkpt lat="46.70551" lon="2.60305">
        <ele>213.80000305176</ele>
        <time>2022-06-22T07:38:42.000Z</time>
      </trkpt>
      <trkpt lat="46.70543" lon="2.60325">
        <ele>215.19999694824</ele>
        <time>2022-06-22T07:38:46.000Z</time>
      </trkpt>
      <trkpt lat="46.70542" lon="2.6033">
        <ele>215.60000610352</ele>
        <time>2022-06-22T07:38:47.000Z</time>
      </trkpt>
      <trkpt lat="46.70535" lon="2.6035">
        <ele>216.39999389648</ele>
        <time>2022-06-22T07:38:51.000Z</time>
      </trkpt>
      <trkpt lat="46.70529" lon="2.60368">
        <ele>217.19999694824</ele>
        <time>2022-06-22T07:38:55.000Z</time>
      </trkpt>
      <trkpt lat="46.70527" lon="2.60373">
        <ele>217.39999389648</ele>
        <time>2022-06-22T07:38:56.000Z</time>
      </trkpt>
      <trkpt lat="46.70517" lon="2.60403">
        <ele>217.39999389648</ele>
        <time>2022-06-22T07:39:02.000Z</time>
      </trkpt>
      <trkpt lat="46.70514" lon="2.60405">
        <ele>217.19999694824</ele>
        <time>2022-06-22T07:39:03.000Z</time>
      </trkpt>
      <trkpt lat="46.70505" lon="2.60399">
        <ele>217</ele>
        <time>2022-06-22T07:39:06.000Z</time>
      </trkpt>
      <trkpt lat="46.70486" lon="2.60366">
        <ele>217</ele>
        <time>2022-06-22T07:39:12.000Z</time>
      </trkpt>
      <trkpt lat="46.70461" lon="2.60319">
        <ele>214.80000305176</ele>
        <time>2022-06-22T07:39:19.000Z</time>
      </trkpt>
      <trkpt lat="46.70424" lon="2.6027">
        <ele>215.39999389648</ele>
        <time>2022-06-22T07:39:28.000Z</time>
      </trkpt>
      <trkpt lat="46.70388" lon="2.60238">
        <ele>216.39999389648</ele>
        <time>2022-06-22T07:39:36.000Z</time>
      </trkpt>
      <trkpt lat="46.70351" lon="2.6021">
        <ele>215.39999389648</ele>
        <time>2022-06-22T07:39:44.000Z</time>
      </trkpt>
      <trkpt lat="46.70315" lon="2.60181">
        <ele>213.60000610352</ele>
        <time>2022-06-22T07:39:51.000Z</time>
      </trkpt>
      <trkpt lat="46.7031" lon="2.60177">
        <ele>213.19999694824</ele>
        <time>2022-06-22T07:39:52.000Z</time>
      </trkpt>
      <trkpt lat="46.70278" lon="2.60153">
        <ele>210.39999389648</ele>
        <time>2022-06-22T07:39:58.000Z</time>
      </trkpt>
      <trkpt lat="46.70267" lon="2.60145">
        <ele>210.19999694824</ele>
        <time>2022-06-22T07:40:00.000Z</time>
      </trkpt>
      <trkpt lat="46.70245" lon="2.60131">
        <ele>209.60000610352</ele>
        <time>2022-06-22T07:40:05.000Z</time>
      </trkpt>
      <trkpt lat="46.70241" lon="2.60128">
        <ele>209.39999389648</ele>
        <time>2022-06-22T07:40:07.000Z</time>
      </trkpt>
      <trkpt lat="46.70241" lon="2.60127">
        <ele>209.39999389648</ele>
        <time>2022-06-22T07:40:08.000Z</time>
      </trkpt>
      <trkpt lat="46.7024" lon="2.60124">
        <ele>209.39999389648</ele>
        <time>2022-06-22T07:40:13.000Z</time>
      </trkpt>
      <trkpt lat="46.7024" lon="2.60124">
        <ele>209.39999389648</ele>
        <time>2022-06-22T07:40:16.000Z</time>
      </trkpt>
      <trkpt lat="46.7024" lon="2.60124">
        <ele>209.39999389648</ele>
        <time>2022-06-22T07:40:20.000Z</time>
      </trkpt>
      <trkpt lat="46.7024" lon="2.60124">
        <ele>209.39999389648</ele>
        <time>2022-06-22T07:44:16.000Z</time>
      </trkpt>
      <trkpt lat="46.70238" lon="2.60126">
        <ele>209.39999389648</ele>
        <time>2022-06-22T07:46:55.000Z</time>
      </trkpt>
      <trkpt lat="46.70234" lon="2.60125">
        <ele>209.19999694824</ele>
        <time>2022-06-22T07:46:57.000Z</time>
      </trkpt>
      <trkpt lat="46.70219" lon="2.60119">
        <ele>209</ele>
        <time>2022-06-22T07:47:01.000Z</time>
      </trkpt>
      <trkpt lat="46.70209" lon="2.60115">
        <ele>209</ele>
        <time>2022-06-22T07:47:03.000Z</time>
      </trkpt>
      <trkpt lat="46.70187" lon="2.60105">
        <ele>208.60000610352</ele>
        <time>2022-06-22T07:47:07.000Z</time>
      </trkpt>
      <trkpt lat="46.70144" lon="2.60086">
        <ele>208</ele>
        <time>2022-06-22T07:47:14.000Z</time>
      </trkpt>
      <trkpt lat="46.70138" lon="2.60084">
        <ele>208</ele>
        <time>2022-06-22T07:47:15.000Z</time>
      </trkpt>
      <trkpt lat="46.70102" lon="2.60068">
        <ele>207.39999389648</ele>
        <time>2022-06-22T07:47:21.000Z</time>
      </trkpt>
      <trkpt lat="46.70071" lon="2.60052">
        <ele>207</ele>
        <time>2022-06-22T07:47:26.000Z</time>
      </trkpt>
      <trkpt lat="46.70057" lon="2.60045">
        <ele>207</ele>
        <time>2022-06-22T07:47:28.000Z</time>
      </trkpt>
      <trkpt lat="46.70022" lon="2.60026">
        <ele>206.60000610352</ele>
        <time>2022-06-22T07:47:33.000Z</time>
      </trkpt>
      <trkpt lat="46.70008" lon="2.60018">
        <ele>206</ele>
        <time>2022-06-22T07:47:35.000Z</time>
      </trkpt>
      <trkpt lat="46.69987" lon="2.60006">
        <ele>204</ele>
        <time>2022-06-22T07:47:38.000Z</time>
      </trkpt>
      <trkpt lat="46.69959" lon="2.59992">
        <ele>202.39999389648</ele>
        <time>2022-06-22T07:47:42.000Z</time>
      </trkpt>
      <trkpt lat="46.69938" lon="2.59982">
        <ele>201.60000610352</ele>
        <time>2022-06-22T07:47:45.000Z</time>
      </trkpt>
      <trkpt lat="46.69914" lon="2.59975">
        <ele>200.39999389648</ele>
        <time>2022-06-22T07:47:48.000Z</time>
      </trkpt>
      <trkpt lat="46.69896" lon="2.59973">
        <ele>199.19999694824</ele>
        <time>2022-06-22T07:47:50.000Z</time>
      </trkpt>
      <trkpt lat="46.69878" lon="2.5997">
        <ele>198.60000610352</ele>
        <time>2022-06-22T07:47:52.000Z</time>
      </trkpt>
      <trkpt lat="46.69858" lon="2.59967">
        <ele>197.60000610352</ele>
        <time>2022-06-22T07:47:54.000Z</time>
      </trkpt>
      <trkpt lat="46.69848" lon="2.59965">
        <ele>197</ele>
        <time>2022-06-22T07:47:55.000Z</time>
      </trkpt>
      <trkpt lat="46.69827" lon="2.59962">
        <ele>195.19999694824</ele>
        <time>2022-06-22T07:47:57.000Z</time>
      </trkpt>
      <trkpt lat="46.69807" lon="2.59958">
        <ele>193.80000305176</ele>
        <time>2022-06-22T07:47:59.000Z</time>
      </trkpt>
      <trkpt lat="46.69786" lon="2.59955">
        <ele>193</ele>
        <time>2022-06-22T07:48:01.000Z</time>
      </trkpt>
      <trkpt lat="46.69776" lon="2.59954">
        <ele>192.80000305176</ele>
        <time>2022-06-22T07:48:02.000Z</time>
      </trkpt>
      <trkpt lat="46.69766" lon="2.59952">
        <ele>192.39999389648</ele>
        <time>2022-06-22T07:48:03.000Z</time>
      </trkpt>
      <trkpt lat="46.69735" lon="2.59947">
        <ele>190.60000610352</ele>
        <time>2022-06-22T07:48:06.000Z</time>
      </trkpt>
      <trkpt lat="46.69706" lon="2.59942">
        <ele>188.60000610352</ele>
        <time>2022-06-22T07:48:09.000Z</time>
      </trkpt>
      <trkpt lat="46.69687" lon="2.59939">
        <ele>188</ele>
        <time>2022-06-22T07:48:11.000Z</time>
      </trkpt>
      <trkpt lat="46.69678" lon="2.59938">
        <ele>188</ele>
        <time>2022-06-22T07:48:12.000Z</time>
      </trkpt>
      <trkpt lat="46.6965" lon="2.59935">
        <ele>187.19999694824</ele>
        <time>2022-06-22T07:48:15.000Z</time>
      </trkpt>
      <trkpt lat="46.69632" lon="2.59936">
        <ele>187</ele>
        <time>2022-06-22T07:48:17.000Z</time>
      </trkpt>
      <trkpt lat="46.69624" lon="2.59938">
        <ele>187</ele>
        <time>2022-06-22T07:48:18.000Z</time>
      </trkpt>
      <trkpt lat="46.696" lon="2.59951">
        <ele>187</ele>
        <time>2022-06-22T07:48:21.000Z</time>
      </trkpt>
      <trkpt lat="46.69586" lon="2.59963">
        <ele>187</ele>
        <time>2022-06-22T07:48:23.000Z</time>
      </trkpt>
      <trkpt lat="46.69558" lon="2.59979">
        <ele>188</ele>
        <time>2022-06-22T07:48:27.000Z</time>
      </trkpt>
      <trkpt lat="46.69544" lon="2.59979">
        <ele>188</ele>
        <time>2022-06-22T07:48:29.000Z</time>
      </trkpt>
      <trkpt lat="46.69537" lon="2.59977">
        <ele>188</ele>
        <time>2022-06-22T07:48:30.000Z</time>
      </trkpt>
      <trkpt lat="46.69531" lon="2.59973">
        <ele>188</ele>
        <time>2022-06-22T07:48:31.000Z</time>
      </trkpt>
      <trkpt lat="46.69515" lon="2.59959">
        <ele>187.80000305176</ele>
        <time>2022-06-22T07:48:34.000Z</time>
      </trkpt>
      <trkpt lat="46.69482" lon="2.59919">
        <ele>187.80000305176</ele>
        <time>2022-06-22T07:48:41.000Z</time>
      </trkpt>
      <trkpt lat="46.6946" lon="2.5989">
        <ele>188</ele>
        <time>2022-06-22T07:48:46.000Z</time>
      </trkpt>
      <trkpt lat="46.69449" lon="2.59883">
        <ele>187.80000305176</ele>
        <time>2022-06-22T07:48:48.000Z</time>
      </trkpt>
      <trkpt lat="46.69403" lon="2.59868">
        <ele>189</ele>
        <time>2022-06-22T07:48:56.000Z</time>
      </trkpt>
      <trkpt lat="46.69398" lon="2.59866">
        <ele>189</ele>
        <time>2022-06-22T07:48:57.000Z</time>
      </trkpt>
      <trkpt lat="46.69364" lon="2.59856">
        <ele>190</ele>
        <time>2022-06-22T07:49:03.000Z</time>
      </trkpt>
      <trkpt lat="46.69353" lon="2.59854">
        <ele>190.19999694824</ele>
        <time>2022-06-22T07:49:05.000Z</time>
      </trkpt>
      <trkpt lat="46.69337" lon="2.5985">
        <ele>190.60000610352</ele>
        <time>2022-06-22T07:49:08.000Z</time>
      </trkpt>
      <trkpt lat="46.6932" lon="2.59847">
        <ele>191</ele>
        <time>2022-06-22T07:49:11.000Z</time>
      </trkpt>
      <trkpt lat="46.69315" lon="2.59847">
        <ele>191</ele>
        <time>2022-06-22T07:49:12.000Z</time>
      </trkpt>
      <trkpt lat="46.69309" lon="2.59847">
        <ele>191</ele>
        <time>2022-06-22T07:49:13.000Z</time>
      </trkpt>
      <trkpt lat="46.69266" lon="2.59845">
        <ele>190</ele>
        <time>2022-06-22T07:49:21.000Z</time>
      </trkpt>
      <trkpt lat="46.69233" lon="2.5984">
        <ele>190.19999694824</ele>
        <time>2022-06-22T07:49:27.000Z</time>
      </trkpt>
      <trkpt lat="46.69211" lon="2.59836">
        <ele>190.60000610352</ele>
        <time>2022-06-22T07:49:31.000Z</time>
      </trkpt>
      <trkpt lat="46.69174" lon="2.59831">
        <ele>191</ele>
        <time>2022-06-22T07:49:38.000Z</time>
      </trkpt>
      <trkpt lat="46.69163" lon="2.5983">
        <ele>191.39999389648</ele>
        <time>2022-06-22T07:49:40.000Z</time>
      </trkpt>
      <trkpt lat="46.69115" lon="2.59818">
        <ele>192.39999389648</ele>
        <time>2022-06-22T07:49:49.000Z</time>
      </trkpt>
      <trkpt lat="46.6911" lon="2.59816">
        <ele>192.19999694824</ele>
        <time>2022-06-22T07:49:50.000Z</time>
      </trkpt>
      <trkpt lat="46.69064" lon="2.59805">
        <ele>192.80000305176</ele>
        <time>2022-06-22T07:49:59.000Z</time>
      </trkpt>
      <trkpt lat="46.69038" lon="2.59804">
        <ele>193.80000305176</ele>
        <time>2022-06-22T07:50:04.000Z</time>
      </trkpt>
      <trkpt lat="46.69023" lon="2.59801">
        <ele>194.80000305176</ele>
        <time>2022-06-22T07:50:07.000Z</time>
      </trkpt>
      <trkpt lat="46.69018" lon="2.59799">
        <ele>195</ele>
        <time>2022-06-22T07:50:08.000Z</time>
      </trkpt>
      <trkpt lat="46.69013" lon="2.59793">
        <ele>195.39999389648</ele>
        <time>2022-06-22T07:50:10.000Z</time>
      </trkpt>
      <trkpt lat="46.69008" lon="2.59789">
        <ele>195.80000305176</ele>
        <time>2022-06-22T07:50:12.000Z</time>
      </trkpt>
      <trkpt lat="46.68998" lon="2.59792">
        <ele>196.19999694824</ele>
        <time>2022-06-22T07:50:15.000Z</time>
      </trkpt>
      <trkpt lat="46.68976" lon="2.59795">
        <ele>197</ele>
        <time>2022-06-22T07:50:20.000Z</time>
      </trkpt>
      <trkpt lat="46.68942" lon="2.59793">
        <ele>196.80000305176</ele>
        <time>2022-06-22T07:50:27.000Z</time>
      </trkpt>
      <trkpt lat="46.68937" lon="2.59792">
        <ele>196.60000610352</ele>
        <time>2022-06-22T07:50:28.000Z</time>
      </trkpt>
      <trkpt lat="46.6889" lon="2.59788">
        <ele>194.80000305176</ele>
        <time>2022-06-22T07:50:37.000Z</time>
      </trkpt>
      <trkpt lat="46.68846" lon="2.59795">
        <ele>194.60000610352</ele>
        <time>2022-06-22T07:50:45.000Z</time>
      </trkpt>
      <trkpt lat="46.68793" lon="2.59815">
        <ele>195.39999389648</ele>
        <time>2022-06-22T07:50:54.000Z</time>
      </trkpt>
      <trkpt lat="46.68745" lon="2.59832">
        <ele>195</ele>
        <time>2022-06-22T07:51:02.000Z</time>
      </trkpt>
      <trkpt lat="46.68722" lon="2.59841">
        <ele>196</ele>
        <time>2022-06-22T07:51:06.000Z</time>
      </trkpt>
      <trkpt lat="46.68705" lon="2.59848">
        <ele>196</ele>
        <time>2022-06-22T07:51:09.000Z</time>
      </trkpt>
      <trkpt lat="46.68679" lon="2.59863">
        <ele>195.19999694824</ele>
        <time>2022-06-22T07:51:14.000Z</time>
      </trkpt>
      <trkpt lat="46.6867" lon="2.5987">
        <ele>194.80000305176</ele>
        <time>2022-06-22T07:51:16.000Z</time>
      </trkpt>
      <trkpt lat="46.68636" lon="2.59899">
        <ele>194.39999389648</ele>
        <time>2022-06-22T07:51:23.000Z</time>
      </trkpt>
      <trkpt lat="46.68597" lon="2.59932">
        <ele>195.19999694824</ele>
        <time>2022-06-22T07:51:31.000Z</time>
      </trkpt>
      <trkpt lat="46.68554" lon="2.5997">
        <ele>196</ele>
        <time>2022-06-22T07:51:40.000Z</time>
      </trkpt>
      <trkpt lat="46.68544" lon="2.59977">
        <ele>196</ele>
        <time>2022-06-22T07:51:42.000Z</time>
      </trkpt>
      <trkpt lat="46.68503" lon="2.60004">
        <ele>198</ele>
        <time>2022-06-22T07:51:50.000Z</time>
      </trkpt>
      <trkpt lat="46.68472" lon="2.60021">
        <ele>198.39999389648</ele>
        <time>2022-06-22T07:51:56.000Z</time>
      </trkpt>
      <trkpt lat="46.68457" lon="2.60029">
        <ele>198.80000305176</ele>
        <time>2022-06-22T07:51:59.000Z</time>
      </trkpt>
      <trkpt lat="46.6841" lon="2.60049">
        <ele>199.80000305176</ele>
        <time>2022-06-22T07:52:08.000Z</time>
      </trkpt>
      <trkpt lat="46.68399" lon="2.60053">
        <ele>200.60000610352</ele>
        <time>2022-06-22T07:52:10.000Z</time>
      </trkpt>
      <trkpt lat="46.68383" lon="2.60058">
        <ele>201.39999389648</ele>
        <time>2022-06-22T07:52:14.000Z</time>
      </trkpt>
      <trkpt lat="46.68369" lon="2.60065">
        <ele>201.80000305176</ele>
        <time>2022-06-22T07:52:19.000Z</time>
      </trkpt>
      <trkpt lat="46.68352" lon="2.60071">
        <ele>201.39999389648</ele>
        <time>2022-06-22T07:52:23.000Z</time>
      </trkpt>
      <trkpt lat="46.68342" lon="2.60074">
        <ele>201.19999694824</ele>
        <time>2022-06-22T07:52:25.000Z</time>
      </trkpt>
      <trkpt lat="46.68302" lon="2.60086">
        <ele>201.19999694824</ele>
        <time>2022-06-22T07:52:33.000Z</time>
      </trkpt>
      <trkpt lat="46.68297" lon="2.60088">
        <ele>201.39999389648</ele>
        <time>2022-06-22T07:52:34.000Z</time>
      </trkpt>
      <trkpt lat="46.68263" lon="2.60097">
        <ele>202.60000610352</ele>
        <time>2022-06-22T07:52:41.000Z</time>
      </trkpt>
      <trkpt lat="46.68253" lon="2.60099">
        <ele>202.60000610352</ele>
        <time>2022-06-22T07:52:43.000Z</time>
      </trkpt>
      <trkpt lat="46.68221" lon="2.60107">
        <ele>204.19999694824</ele>
        <time>2022-06-22T07:52:50.000Z</time>
      </trkpt>
      <trkpt lat="46.68217" lon="2.60108">
        <ele>204.39999389648</ele>
        <time>2022-06-22T07:52:51.000Z</time>
      </trkpt>
      <trkpt lat="46.68198" lon="2.60113">
        <ele>205</ele>
        <time>2022-06-22T07:52:55.000Z</time>
      </trkpt>
      <trkpt lat="46.68174" lon="2.60116">
        <ele>206.80000305176</ele>
        <time>2022-06-22T07:53:00.000Z</time>
      </trkpt>
      <trkpt lat="46.68152" lon="2.60119">
        <ele>208.39999389648</ele>
        <time>2022-06-22T07:53:05.000Z</time>
      </trkpt>
      <trkpt lat="46.68141" lon="2.60118">
        <ele>209</ele>
        <time>2022-06-22T07:53:08.000Z</time>
      </trkpt>
      <trkpt lat="46.68133" lon="2.60121">
        <ele>209.19999694824</ele>
        <time>2022-06-22T07:53:11.000Z</time>
      </trkpt>
      <trkpt lat="46.68131" lon="2.60125">
        <ele>209</ele>
        <time>2022-06-22T07:53:12.000Z</time>
      </trkpt>
      <trkpt lat="46.68126" lon="2.60154">
        <ele>209.19999694824</ele>
        <time>2022-06-22T07:53:17.000Z</time>
      </trkpt>
      <trkpt lat="46.68117" lon="2.60197">
        <ele>209</ele>
        <time>2022-06-22T07:53:23.000Z</time>
      </trkpt>
      <trkpt lat="46.68114" lon="2.60219">
        <ele>209.80000305176</ele>
        <time>2022-06-22T07:53:26.000Z</time>
      </trkpt>
      <trkpt lat="46.68106" lon="2.60271">
        <ele>211</ele>
        <time>2022-06-22T07:53:33.000Z</time>
      </trkpt>
      <trkpt lat="46.68104" lon="2.60293">
        <ele>211.39999389648</ele>
        <time>2022-06-22T07:53:36.000Z</time>
      </trkpt>
      <trkpt lat="46.68099" lon="2.60357">
        <ele>211.19999694824</ele>
        <time>2022-06-22T07:53:45.000Z</time>
      </trkpt>
      <trkpt lat="46.68097" lon="2.60371">
        <ele>211.19999694824</ele>
        <time>2022-06-22T07:53:47.000Z</time>
      </trkpt>
      <trkpt lat="46.68097" lon="2.60385">
        <ele>211.80000305176</ele>
        <time>2022-06-22T07:53:49.000Z</time>
      </trkpt>
      <trkpt lat="46.68096" lon="2.60404">
        <ele>212.39999389648</ele>
        <time>2022-06-22T07:53:52.000Z</time>
      </trkpt>
      <trkpt lat="46.68094" lon="2.60424">
        <ele>213.19999694824</ele>
        <time>2022-06-22T07:53:55.000Z</time>
      </trkpt>
      <trkpt lat="46.68092" lon="2.60458">
        <ele>214</ele>
        <time>2022-06-22T07:54:00.000Z</time>
      </trkpt>
      <trkpt lat="46.68091" lon="2.60464">
        <ele>214</ele>
        <time>2022-06-22T07:54:01.000Z</time>
      </trkpt>
      <trkpt lat="46.68087" lon="2.60507">
        <ele>214</ele>
        <time>2022-06-22T07:54:07.000Z</time>
      </trkpt>
      <trkpt lat="46.68086" lon="2.60514">
        <ele>214</ele>
        <time>2022-06-22T07:54:08.000Z</time>
      </trkpt>
      <trkpt lat="46.68081" lon="2.60578">
        <ele>215.60000610352</ele>
        <time>2022-06-22T07:54:17.000Z</time>
      </trkpt>
      <trkpt lat="46.68077" lon="2.60628">
        <ele>217.60000610352</ele>
        <time>2022-06-22T07:54:24.000Z</time>
      </trkpt>
      <trkpt lat="46.68076" lon="2.60635">
        <ele>217.80000305176</ele>
        <time>2022-06-22T07:54:25.000Z</time>
      </trkpt>
      <trkpt lat="46.6807" lon="2.60692">
        <ele>218</ele>
        <time>2022-06-22T07:54:33.000Z</time>
      </trkpt>
      <trkpt lat="46.68068" lon="2.60722">
        <ele>218</ele>
        <time>2022-06-22T07:54:37.000Z</time>
      </trkpt>
      <trkpt lat="46.68065" lon="2.60758">
        <ele>218.19999694824</ele>
        <time>2022-06-22T07:54:42.000Z</time>
      </trkpt>
      <trkpt lat="46.68064" lon="2.60772">
        <ele>218.60000610352</ele>
        <time>2022-06-22T07:54:44.000Z</time>
      </trkpt>
      <trkpt lat="46.6806" lon="2.60835">
        <ele>221</ele>
        <time>2022-06-22T07:54:53.000Z</time>
      </trkpt>
      <trkpt lat="46.6806" lon="2.60842">
        <ele>221</ele>
        <time>2022-06-22T07:54:54.000Z</time>
      </trkpt>
      <trkpt lat="46.68058" lon="2.60893">
        <ele>221</ele>
        <time>2022-06-22T07:55:01.000Z</time>
      </trkpt>
      <trkpt lat="46.68058" lon="2.60901">
        <ele>221</ele>
        <time>2022-06-22T07:55:02.000Z</time>
      </trkpt>
      <trkpt lat="46.68055" lon="2.60968">
        <ele>221.80000305176</ele>
        <time>2022-06-22T07:55:11.000Z</time>
      </trkpt>
      <trkpt lat="46.68055" lon="2.60976">
        <ele>221.80000305176</ele>
        <time>2022-06-22T07:55:12.000Z</time>
      </trkpt>
      <trkpt lat="46.68052" lon="2.61059">
        <ele>221.80000305176</ele>
        <time>2022-06-22T07:55:23.000Z</time>
      </trkpt>
      <trkpt lat="46.6805" lon="2.61082">
        <ele>222.39999389648</ele>
        <time>2022-06-22T07:55:26.000Z</time>
      </trkpt>
      <trkpt lat="46.68049" lon="2.61104">
        <ele>222</ele>
        <time>2022-06-22T07:55:29.000Z</time>
      </trkpt>
      <trkpt lat="46.68045" lon="2.61164">
        <ele>221.80000305176</ele>
        <time>2022-06-22T07:55:37.000Z</time>
      </trkpt>
      <trkpt lat="46.68044" lon="2.61203">
        <ele>222.19999694824</ele>
        <time>2022-06-22T07:55:42.000Z</time>
      </trkpt>
      <trkpt lat="46.68043" lon="2.61226">
        <ele>223</ele>
        <time>2022-06-22T07:55:45.000Z</time>
      </trkpt>
      <trkpt lat="46.6804" lon="2.61281">
        <ele>225.80000305176</ele>
        <time>2022-06-22T07:55:52.000Z</time>
      </trkpt>
      <trkpt lat="46.68038" lon="2.61336">
        <ele>225.60000610352</ele>
        <time>2022-06-22T07:55:59.000Z</time>
      </trkpt>
      <trkpt lat="46.68037" lon="2.61344">
        <ele>225.60000610352</ele>
        <time>2022-06-22T07:56:00.000Z</time>
      </trkpt>
      <trkpt lat="46.68032" lon="2.61423">
        <ele>226.19999694824</ele>
        <time>2022-06-22T07:56:10.000Z</time>
      </trkpt>
      <trkpt lat="46.68031" lon="2.61438">
        <ele>226.80000305176</ele>
        <time>2022-06-22T07:56:12.000Z</time>
      </trkpt>
      <trkpt lat="46.68028" lon="2.61485">
        <ele>227.80000305176</ele>
        <time>2022-06-22T07:56:18.000Z</time>
      </trkpt>
      <trkpt lat="46.68025" lon="2.61523">
        <ele>228.80000305176</ele>
        <time>2022-06-22T07:56:23.000Z</time>
      </trkpt>
      <trkpt lat="46.68021" lon="2.61592">
        <ele>226.19999694824</ele>
        <time>2022-06-22T07:56:32.000Z</time>
      </trkpt>
      <trkpt lat="46.68015" lon="2.61673">
        <ele>224.80000305176</ele>
        <time>2022-06-22T07:56:42.000Z</time>
      </trkpt>
      <trkpt lat="46.68014" lon="2.61681">
        <ele>225</ele>
        <time>2022-06-22T07:56:43.000Z</time>
      </trkpt>
      <trkpt lat="46.68003" lon="2.61765">
        <ele>226</ele>
        <time>2022-06-22T07:56:53.000Z</time>
      </trkpt>
      <trkpt lat="46.67993" lon="2.61835">
        <ele>227</ele>
        <time>2022-06-22T07:57:01.000Z</time>
      </trkpt>
      <trkpt lat="46.67983" lon="2.61913">
        <ele>225.80000305176</ele>
        <time>2022-06-22T07:57:10.000Z</time>
      </trkpt>
      <trkpt lat="46.67973" lon="2.61991">
        <ele>226.80000305176</ele>
        <time>2022-06-22T07:57:19.000Z</time>
      </trkpt>
      <trkpt lat="46.67966" lon="2.62048">
        <ele>227</ele>
        <time>2022-06-22T07:57:26.000Z</time>
      </trkpt>
      <trkpt lat="46.67959" lon="2.62104">
        <ele>225.80000305176</ele>
        <time>2022-06-22T07:57:33.000Z</time>
      </trkpt>
      <trkpt lat="46.67946" lon="2.62185">
        <ele>226.60000610352</ele>
        <time>2022-06-22T07:57:43.000Z</time>
      </trkpt>
      <trkpt lat="46.67934" lon="2.62259">
        <ele>226.80000305176</ele>
        <time>2022-06-22T07:57:52.000Z</time>
      </trkpt>
      <trkpt lat="46.67922" lon="2.62323">
        <ele>227</ele>
        <time>2022-06-22T07:58:00.000Z</time>
      </trkpt>
      <trkpt lat="46.67909" lon="2.62402">
        <ele>227</ele>
        <time>2022-06-22T07:58:10.000Z</time>
      </trkpt>
      <trkpt lat="46.67908" lon="2.6241">
        <ele>227</ele>
        <time>2022-06-22T07:58:11.000Z</time>
      </trkpt>
      <trkpt lat="46.67894" lon="2.62481">
        <ele>227.19999694824</ele>
        <time>2022-06-22T07:58:20.000Z</time>
      </trkpt>
      <trkpt lat="46.67882" lon="2.62532">
        <ele>229</ele>
        <time>2022-06-22T07:58:27.000Z</time>
      </trkpt>
      <trkpt lat="46.67865" lon="2.62607">
        <ele>228</ele>
        <time>2022-06-22T07:58:37.000Z</time>
      </trkpt>
      <trkpt lat="46.6786" lon="2.6263">
        <ele>228.19999694824</ele>
        <time>2022-06-22T07:58:40.000Z</time>
      </trkpt>
      <trkpt lat="46.67858" lon="2.62637">
        <ele>228.19999694824</ele>
        <time>2022-06-22T07:58:41.000Z</time>
      </trkpt>
      <trkpt lat="46.67844" lon="2.62689">
        <ele>228</ele>
        <time>2022-06-22T07:58:48.000Z</time>
      </trkpt>
      <trkpt lat="46.6782" lon="2.62767">
        <ele>227</ele>
        <time>2022-06-22T07:58:59.000Z</time>
      </trkpt>
      <trkpt lat="46.67802" lon="2.62822">
        <ele>227.39999389648</ele>
        <time>2022-06-22T07:59:07.000Z</time>
      </trkpt>
      <trkpt lat="46.67799" lon="2.62829">
        <ele>227.39999389648</ele>
        <time>2022-06-22T07:59:08.000Z</time>
      </trkpt>
      <trkpt lat="46.67777" lon="2.62898">
        <ele>227.19999694824</ele>
        <time>2022-06-22T07:59:18.000Z</time>
      </trkpt>
      <trkpt lat="46.6777" lon="2.62919">
        <ele>227.39999389648</ele>
        <time>2022-06-22T07:59:21.000Z</time>
      </trkpt>
      <trkpt lat="46.67749" lon="2.62982">
        <ele>227.39999389648</ele>
        <time>2022-06-22T07:59:30.000Z</time>
      </trkpt>
      <trkpt lat="46.67731" lon="2.6304">
        <ele>227.80000305176</ele>
        <time>2022-06-22T07:59:38.000Z</time>
      </trkpt>
      <trkpt lat="46.67706" lon="2.63112">
        <ele>229</ele>
        <time>2022-06-22T07:59:48.000Z</time>
      </trkpt>
      <trkpt lat="46.67681" lon="2.63184">
        <ele>229.19999694824</ele>
        <time>2022-06-22T07:59:58.000Z</time>
      </trkpt>
      <trkpt lat="46.67679" lon="2.63191">
        <ele>229.39999389648</ele>
        <time>2022-06-22T07:59:59.000Z</time>
      </trkpt>
      <trkpt lat="46.67655" lon="2.63261">
        <ele>230.60000610352</ele>
        <time>2022-06-22T08:00:09.000Z</time>
      </trkpt>
      <trkpt lat="46.67635" lon="2.63324">
        <ele>229.39999389648</ele>
        <time>2022-06-22T08:00:18.000Z</time>
      </trkpt>
      <trkpt lat="46.67628" lon="2.63344">
        <ele>229</ele>
        <time>2022-06-22T08:00:21.000Z</time>
      </trkpt>
      <trkpt lat="46.67619" lon="2.63371">
        <ele>229.19999694824</ele>
        <time>2022-06-22T08:00:25.000Z</time>
      </trkpt>
      <trkpt lat="46.67609" lon="2.63397">
        <ele>230.80000305176</ele>
        <time>2022-06-22T08:00:29.000Z</time>
      </trkpt>
      <trkpt lat="46.67606" lon="2.63404">
        <ele>231.60000610352</ele>
        <time>2022-06-22T08:00:30.000Z</time>
      </trkpt>
      <trkpt lat="46.67579" lon="2.63465">
        <ele>234.39999389648</ele>
        <time>2022-06-22T08:00:40.000Z</time>
      </trkpt>
      <trkpt lat="46.67575" lon="2.63471">
        <ele>234.19999694824</ele>
        <time>2022-06-22T08:00:41.000Z</time>
      </trkpt>
      <trkpt lat="46.67552" lon="2.63512">
        <ele>233</ele>
        <time>2022-06-22T08:00:48.000Z</time>
      </trkpt>
      <trkpt lat="46.67524" lon="2.63561">
        <ele>233</ele>
        <time>2022-06-22T08:00:56.000Z</time>
      </trkpt>
      <trkpt lat="46.67486" lon="2.63624">
        <ele>233.60000610352</ele>
        <time>2022-06-22T08:01:06.000Z</time>
      </trkpt>
      <trkpt lat="46.67482" lon="2.6363">
        <ele>233.80000305176</ele>
        <time>2022-06-22T08:01:07.000Z</time>
      </trkpt>
      <trkpt lat="46.67455" lon="2.63676">
        <ele>232.19999694824</ele>
        <time>2022-06-22T08:01:14.000Z</time>
      </trkpt>
      <trkpt lat="46.67448" lon="2.63689">
        <ele>232</ele>
        <time>2022-06-22T08:01:16.000Z</time>
      </trkpt>
      <trkpt lat="46.67413" lon="2.63748">
        <ele>229.60000610352</ele>
        <time>2022-06-22T08:01:25.000Z</time>
      </trkpt>
      <trkpt lat="46.67399" lon="2.63774">
        <ele>228</ele>
        <time>2022-06-22T08:01:29.000Z</time>
      </trkpt>
      <trkpt lat="46.67379" lon="2.63808">
        <ele>227.60000610352</ele>
        <time>2022-06-22T08:01:34.000Z</time>
      </trkpt>
      <trkpt lat="46.67352" lon="2.63868">
        <ele>227.60000610352</ele>
        <time>2022-06-22T08:01:42.000Z</time>
      </trkpt>
      <trkpt lat="46.67327" lon="2.6393">
        <ele>227.80000305176</ele>
        <time>2022-06-22T08:01:50.000Z</time>
      </trkpt>
      <trkpt lat="46.67318" lon="2.63953">
        <ele>228.19999694824</ele>
        <time>2022-06-22T08:01:53.000Z</time>
      </trkpt>
      <trkpt lat="46.67293" lon="2.64018">
        <ele>228</ele>
        <time>2022-06-22T08:02:02.000Z</time>
      </trkpt>
      <trkpt lat="46.67267" lon="2.64083">
        <ele>230.39999389648</ele>
        <time>2022-06-22T08:02:12.000Z</time>
      </trkpt>
      <trkpt lat="46.67243" lon="2.64139">
        <ele>233.60000610352</ele>
        <time>2022-06-22T08:02:21.000Z</time>
      </trkpt>
      <trkpt lat="46.6724" lon="2.64146">
        <ele>234</ele>
        <time>2022-06-22T08:02:22.000Z</time>
      </trkpt>
      <trkpt lat="46.67238" lon="2.64152">
        <ele>234.19999694824</ele>
        <time>2022-06-22T08:02:23.000Z</time>
      </trkpt>
      <trkpt lat="46.67227" lon="2.64184">
        <ele>234</ele>
        <time>2022-06-22T08:02:28.000Z</time>
      </trkpt>
      <trkpt lat="46.67224" lon="2.6419">
        <ele>234</ele>
        <time>2022-06-22T08:02:29.000Z</time>
      </trkpt>
      <trkpt lat="46.67205" lon="2.6424">
        <ele>233.39999389648</ele>
        <time>2022-06-22T08:02:37.000Z</time>
      </trkpt>
      <trkpt lat="46.67202" lon="2.64246">
        <ele>233.80000305176</ele>
        <time>2022-06-22T08:02:38.000Z</time>
      </trkpt>
      <trkpt lat="46.67184" lon="2.6429">
        <ele>234.60000610352</ele>
        <time>2022-06-22T08:02:45.000Z</time>
      </trkpt>
      <trkpt lat="46.67179" lon="2.64302">
        <ele>235.19999694824</ele>
        <time>2022-06-22T08:02:47.000Z</time>
      </trkpt>
      <trkpt lat="46.67167" lon="2.64333">
        <ele>236.19999694824</ele>
        <time>2022-06-22T08:02:52.000Z</time>
      </trkpt>
      <trkpt lat="46.67158" lon="2.64358">
        <ele>237.39999389648</ele>
        <time>2022-06-22T08:02:56.000Z</time>
      </trkpt>
      <trkpt lat="46.67146" lon="2.64389">
        <ele>238.60000610352</ele>
        <time>2022-06-22T08:03:01.000Z</time>
      </trkpt>
      <trkpt lat="46.67139" lon="2.64415">
        <ele>239</ele>
        <time>2022-06-22T08:03:05.000Z</time>
      </trkpt>
      <trkpt lat="46.67128" lon="2.64446">
        <ele>239.60000610352</ele>
        <time>2022-06-22T08:03:10.000Z</time>
      </trkpt>
      <trkpt lat="46.6712" lon="2.64472">
        <ele>239.80000305176</ele>
        <time>2022-06-22T08:03:14.000Z</time>
      </trkpt>
      <trkpt lat="46.67112" lon="2.64499">
        <ele>240.80000305176</ele>
        <time>2022-06-22T08:03:18.000Z</time>
      </trkpt>
      <trkpt lat="46.67095" lon="2.64552">
        <ele>241</ele>
        <time>2022-06-22T08:03:26.000Z</time>
      </trkpt>
      <trkpt lat="46.67091" lon="2.64565">
        <ele>241</ele>
        <time>2022-06-22T08:03:28.000Z</time>
      </trkpt>
      <trkpt lat="46.67078" lon="2.64607">
        <ele>242</ele>
        <time>2022-06-22T08:03:34.000Z</time>
      </trkpt>
      <trkpt lat="46.67067" lon="2.64641">
        <ele>242.60000610352</ele>
        <time>2022-06-22T08:03:39.000Z</time>
      </trkpt>
      <trkpt lat="46.67056" lon="2.64676">
        <ele>242.60000610352</ele>
        <time>2022-06-22T08:03:44.000Z</time>
      </trkpt>
      <trkpt lat="46.67036" lon="2.64734">
        <ele>241.19999694824</ele>
        <time>2022-06-22T08:03:52.000Z</time>
      </trkpt>
      <trkpt lat="46.67021" lon="2.6477">
        <ele>241.19999694824</ele>
        <time>2022-06-22T08:03:57.000Z</time>
      </trkpt>
      <trkpt lat="46.67013" lon="2.64781">
        <ele>241.19999694824</ele>
        <time>2022-06-22T08:03:59.000Z</time>
      </trkpt>
      <trkpt lat="46.67003" lon="2.6479">
        <ele>240.80000305176</ele>
        <time>2022-06-22T08:04:01.000Z</time>
      </trkpt>
      <trkpt lat="46.66992" lon="2.64795">
        <ele>240</ele>
        <time>2022-06-22T08:04:03.000Z</time>
      </trkpt>
      <trkpt lat="46.66986" lon="2.64796">
        <ele>239.80000305176</ele>
        <time>2022-06-22T08:04:04.000Z</time>
      </trkpt>
      <trkpt lat="46.66956" lon="2.648">
        <ele>239.60000610352</ele>
        <time>2022-06-22T08:04:09.000Z</time>
      </trkpt>
      <trkpt lat="46.66908" lon="2.64808">
        <ele>240.39999389648</ele>
        <time>2022-06-22T08:04:17.000Z</time>
      </trkpt>
      <trkpt lat="46.66895" lon="2.64811">
        <ele>241</ele>
        <time>2022-06-22T08:04:19.000Z</time>
      </trkpt>
      <trkpt lat="46.66884" lon="2.64817">
        <ele>240.60000610352</ele>
        <time>2022-06-22T08:04:21.000Z</time>
      </trkpt>
      <trkpt lat="46.66864" lon="2.6483">
        <ele>240.60000610352</ele>
        <time>2022-06-22T08:04:25.000Z</time>
      </trkpt>
      <trkpt lat="46.66847" lon="2.64844">
        <ele>239.39999389648</ele>
        <time>2022-06-22T08:04:28.000Z</time>
      </trkpt>
      <trkpt lat="46.66806" lon="2.6488">
        <ele>239</ele>
        <time>2022-06-22T08:04:36.000Z</time>
      </trkpt>
      <trkpt lat="46.66772" lon="2.64911">
        <ele>240</ele>
        <time>2022-06-22T08:04:43.000Z</time>
      </trkpt>
      <trkpt lat="46.66732" lon="2.64949">
        <ele>240</ele>
        <time>2022-06-22T08:04:51.000Z</time>
      </trkpt>
      <trkpt lat="46.66704" lon="2.64978">
        <ele>239</ele>
        <time>2022-06-22T08:04:57.000Z</time>
      </trkpt>
      <trkpt lat="46.66686" lon="2.65001">
        <ele>238.60000610352</ele>
        <time>2022-06-22T08:05:01.000Z</time>
      </trkpt>
      <trkpt lat="46.6667" lon="2.65027">
        <ele>239</ele>
        <time>2022-06-22T08:05:05.000Z</time>
      </trkpt>
      <trkpt lat="46.66658" lon="2.65049">
        <ele>239</ele>
        <time>2022-06-22T08:05:08.000Z</time>
      </trkpt>
      <trkpt lat="46.66654" lon="2.65065">
        <ele>239</ele>
        <time>2022-06-22T08:05:10.000Z</time>
      </trkpt>
      <trkpt lat="46.66653" lon="2.65083">
        <ele>238.60000610352</ele>
        <time>2022-06-22T08:05:12.000Z</time>
      </trkpt>
      <trkpt lat="46.66656" lon="2.65099">
        <ele>238.39999389648</ele>
        <time>2022-06-22T08:05:14.000Z</time>
      </trkpt>
      <trkpt lat="46.66671" lon="2.65125">
        <ele>239</ele>
        <time>2022-06-22T08:05:18.000Z</time>
      </trkpt>
      <trkpt lat="46.6671" lon="2.65181">
        <ele>240</ele>
        <time>2022-06-22T08:05:28.000Z</time>
      </trkpt>
      <trkpt lat="46.66736" lon="2.65228">
        <ele>240</ele>
        <time>2022-06-22T08:05:36.000Z</time>
      </trkpt>
      <trkpt lat="46.66754" lon="2.65279">
        <ele>241</ele>
        <time>2022-06-22T08:05:43.000Z</time>
      </trkpt>
      <trkpt lat="46.66765" lon="2.65342">
        <ele>239.80000305176</ele>
        <time>2022-06-22T08:05:51.000Z</time>
      </trkpt>
      <trkpt lat="46.66778" lon="2.65413">
        <ele>239.80000305176</ele>
        <time>2022-06-22T08:06:00.000Z</time>
      </trkpt>
      <trkpt lat="46.66779" lon="2.65436">
        <ele>240.39999389648</ele>
        <time>2022-06-22T08:06:03.000Z</time>
      </trkpt>
      <trkpt lat="46.66778" lon="2.6546">
        <ele>240.60000610352</ele>
        <time>2022-06-22T08:06:06.000Z</time>
      </trkpt>
      <trkpt lat="46.66764" lon="2.65512">
        <ele>239</ele>
        <time>2022-06-22T08:06:13.000Z</time>
      </trkpt>
      <trkpt lat="46.66749" lon="2.65556">
        <ele>237.19999694824</ele>
        <time>2022-06-22T08:06:20.000Z</time>
      </trkpt>
      <trkpt lat="46.66747" lon="2.65566">
        <ele>237.19999694824</ele>
        <time>2022-06-22T08:06:23.000Z</time>
      </trkpt>
      <trkpt lat="46.6675" lon="2.65575">
        <ele>237.19999694824</ele>
        <time>2022-06-22T08:06:25.000Z</time>
      </trkpt>
      <trkpt lat="46.66753" lon="2.65578">
        <ele>237</ele>
        <time>2022-06-22T08:06:26.000Z</time>
      </trkpt>
      <trkpt lat="46.66775" lon="2.65593">
        <ele>236.19999694824</ele>
        <time>2022-06-22T08:06:31.000Z</time>
      </trkpt>
      <trkpt lat="46.66817" lon="2.65625">
        <ele>236.39999389648</ele>
        <time>2022-06-22T08:06:40.000Z</time>
      </trkpt>
      <trkpt lat="46.66868" lon="2.65663">
        <ele>237.80000305176</ele>
        <time>2022-06-22T08:06:50.000Z</time>
      </trkpt>
      <trkpt lat="46.66919" lon="2.65699">
        <ele>235</ele>
        <time>2022-06-22T08:06:59.000Z</time>
      </trkpt>
      <trkpt lat="46.66951" lon="2.65726">
        <ele>235</ele>
        <time>2022-06-22T08:07:04.000Z</time>
      </trkpt>
      <trkpt lat="46.66976" lon="2.65752">
        <ele>236</ele>
        <time>2022-06-22T08:07:08.000Z</time>
      </trkpt>
      <trkpt lat="46.66987" lon="2.65764">
        <ele>235.60000610352</ele>
        <time>2022-06-22T08:07:10.000Z</time>
      </trkpt>
      <trkpt lat="46.67006" lon="2.65787">
        <ele>235</ele>
        <time>2022-06-22T08:07:13.000Z</time>
      </trkpt>
      <trkpt lat="46.67027" lon="2.65816">
        <ele>235</ele>
        <time>2022-06-22T08:07:17.000Z</time>
      </trkpt>
      <trkpt lat="46.67047" lon="2.65846">
        <ele>234</ele>
        <time>2022-06-22T08:07:21.000Z</time>
      </trkpt>
      <trkpt lat="46.67071" lon="2.65883">
        <ele>232</ele>
        <time>2022-06-22T08:07:26.000Z</time>
      </trkpt>
      <trkpt lat="46.67105" lon="2.65933">
        <ele>232.39999389648</ele>
        <time>2022-06-22T08:07:33.000Z</time>
      </trkpt>
      <trkpt lat="46.67114" lon="2.65947">
        <ele>233</ele>
        <time>2022-06-22T08:07:35.000Z</time>
      </trkpt>
      <trkpt lat="46.67153" lon="2.66007">
        <ele>234</ele>
        <time>2022-06-22T08:07:44.000Z</time>
      </trkpt>
      <trkpt lat="46.67192" lon="2.66068">
        <ele>233.60000610352</ele>
        <time>2022-06-22T08:07:53.000Z</time>
      </trkpt>
      <trkpt lat="46.67227" lon="2.66111">
        <ele>233.80000305176</ele>
        <time>2022-06-22T08:08:00.000Z</time>
      </trkpt>
      <trkpt lat="46.67268" lon="2.66142">
        <ele>234.39999389648</ele>
        <time>2022-06-22T08:08:07.000Z</time>
      </trkpt>
      <trkpt lat="46.67317" lon="2.66176">
        <ele>233.80000305176</ele>
        <time>2022-06-22T08:08:15.000Z</time>
      </trkpt>
      <trkpt lat="46.67349" lon="2.66206">
        <ele>232.39999389648</ele>
        <time>2022-06-22T08:08:21.000Z</time>
      </trkpt>
      <trkpt lat="46.67359" lon="2.66217">
        <ele>231.80000305176</ele>
        <time>2022-06-22T08:08:23.000Z</time>
      </trkpt>
      <trkpt lat="46.67403" lon="2.66263">
        <ele>232.39999389648</ele>
        <time>2022-06-22T08:08:32.000Z</time>
      </trkpt>
      <trkpt lat="46.67408" lon="2.66268">
        <ele>232.39999389648</ele>
        <time>2022-06-22T08:08:33.000Z</time>
      </trkpt>
      <trkpt lat="46.67455" lon="2.66318">
        <ele>233</ele>
        <time>2022-06-22T08:08:43.000Z</time>
      </trkpt>
      <trkpt lat="46.67499" lon="2.66363">
        <ele>233</ele>
        <time>2022-06-22T08:08:52.000Z</time>
      </trkpt>
      <trkpt lat="46.6754" lon="2.66413">
        <ele>233</ele>
        <time>2022-06-22T08:09:01.000Z</time>
      </trkpt>
      <trkpt lat="46.67581" lon="2.66476">
        <ele>235</ele>
        <time>2022-06-22T08:09:11.000Z</time>
      </trkpt>
      <trkpt lat="46.67612" lon="2.66529">
        <ele>232.39999389648</ele>
        <time>2022-06-22T08:09:19.000Z</time>
      </trkpt>
      <trkpt lat="46.67648" lon="2.6659">
        <ele>230.80000305176</ele>
        <time>2022-06-22T08:09:28.000Z</time>
      </trkpt>
      <trkpt lat="46.67683" lon="2.66649">
        <ele>229.19999694824</ele>
        <time>2022-06-22T08:09:36.000Z</time>
      </trkpt>
      <trkpt lat="46.67692" lon="2.66664">
        <ele>229.80000305176</ele>
        <time>2022-06-22T08:09:38.000Z</time>
      </trkpt>
      <trkpt lat="46.67719" lon="2.6671">
        <ele>231.39999389648</ele>
        <time>2022-06-22T08:09:44.000Z</time>
      </trkpt>
      <trkpt lat="46.67723" lon="2.66717">
        <ele>231.60000610352</ele>
        <time>2022-06-22T08:09:45.000Z</time>
      </trkpt>
      <trkpt lat="46.67759" lon="2.66778">
        <ele>228.60000610352</ele>
        <time>2022-06-22T08:09:53.000Z</time>
      </trkpt>
      <trkpt lat="46.67779" lon="2.66811">
        <ele>227.19999694824</ele>
        <time>2022-06-22T08:09:57.000Z</time>
      </trkpt>
      <trkpt lat="46.67798" lon="2.66843">
        <ele>226.80000305176</ele>
        <time>2022-06-22T08:10:01.000Z</time>
      </trkpt>
      <trkpt lat="46.67826" lon="2.66891">
        <ele>227.80000305176</ele>
        <time>2022-06-22T08:10:07.000Z</time>
      </trkpt>
      <trkpt lat="46.67831" lon="2.66898">
        <ele>227.60000610352</ele>
        <time>2022-06-22T08:10:08.000Z</time>
      </trkpt>
      <trkpt lat="46.67872" lon="2.66962">
        <ele>225.19999694824</ele>
        <time>2022-06-22T08:10:16.000Z</time>
      </trkpt>
      <trkpt lat="46.67895" lon="2.66991">
        <ele>225.39999389648</ele>
        <time>2022-06-22T08:10:20.000Z</time>
      </trkpt>
      <trkpt lat="46.67924" lon="2.67024">
        <ele>225</ele>
        <time>2022-06-22T08:10:25.000Z</time>
      </trkpt>
      <trkpt lat="46.67971" lon="2.67069">
        <ele>226</ele>
        <time>2022-06-22T08:10:33.000Z</time>
      </trkpt>
      <trkpt lat="46.67984" lon="2.67078">
        <ele>226.60000610352</ele>
        <time>2022-06-22T08:10:35.000Z</time>
      </trkpt>
      <trkpt lat="46.68004" lon="2.67092">
        <ele>226.80000305176</ele>
        <time>2022-06-22T08:10:38.000Z</time>
      </trkpt>
      <trkpt lat="46.6805" lon="2.6712">
        <ele>223.80000305176</ele>
        <time>2022-06-22T08:10:45.000Z</time>
      </trkpt>
      <trkpt lat="46.68084" lon="2.6714">
        <ele>223.19999694824</ele>
        <time>2022-06-22T08:10:50.000Z</time>
      </trkpt>
      <trkpt lat="46.68134" lon="2.67169">
        <ele>221.39999389648</ele>
        <time>2022-06-22T08:10:57.000Z</time>
      </trkpt>
      <trkpt lat="46.6819" lon="2.67202">
        <ele>220.60000610352</ele>
        <time>2022-06-22T08:11:05.000Z</time>
      </trkpt>
      <trkpt lat="46.68197" lon="2.67206">
        <ele>220.60000610352</ele>
        <time>2022-06-22T08:11:06.000Z</time>
      </trkpt>
      <trkpt lat="46.68204" lon="2.6721">
        <ele>220.80000305176</ele>
        <time>2022-06-22T08:11:07.000Z</time>
      </trkpt>
      <trkpt lat="46.68249" lon="2.67237">
        <ele>220.60000610352</ele>
        <time>2022-06-22T08:11:14.000Z</time>
      </trkpt>
      <trkpt lat="46.68255" lon="2.6724">
        <ele>220.60000610352</ele>
        <time>2022-06-22T08:11:15.000Z</time>
      </trkpt>
      <trkpt lat="46.68293" lon="2.67263">
        <ele>221.60000610352</ele>
        <time>2022-06-22T08:11:21.000Z</time>
      </trkpt>
      <trkpt lat="46.68311" lon="2.67272">
        <ele>222.60000610352</ele>
        <time>2022-06-22T08:11:24.000Z</time>
      </trkpt>
      <trkpt lat="46.68343" lon="2.67289">
        <ele>222.80000305176</ele>
        <time>2022-06-22T08:11:30.000Z</time>
      </trkpt>
      <trkpt lat="46.68358" lon="2.67296">
        <ele>222.19999694824</ele>
        <time>2022-06-22T08:11:33.000Z</time>
      </trkpt>
      <trkpt lat="46.68378" lon="2.67306">
        <ele>222.39999389648</ele>
        <time>2022-06-22T08:11:37.000Z</time>
      </trkpt>
      <trkpt lat="46.68393" lon="2.67313">
        <ele>223</ele>
        <time>2022-06-22T08:11:40.000Z</time>
      </trkpt>
      <trkpt lat="46.68398" lon="2.67315">
        <ele>223.60000610352</ele>
        <time>2022-06-22T08:11:41.000Z</time>
      </trkpt>
      <trkpt lat="46.68411" lon="2.67322">
        <ele>224.60000610352</ele>
        <time>2022-06-22T08:11:44.000Z</time>
      </trkpt>
      <trkpt lat="46.68434" lon="2.67334">
        <ele>226.80000305176</ele>
        <time>2022-06-22T08:11:49.000Z</time>
      </trkpt>
      <trkpt lat="46.68458" lon="2.67346">
        <ele>228.60000610352</ele>
        <time>2022-06-22T08:11:54.000Z</time>
      </trkpt>
      <trkpt lat="46.68472" lon="2.67353">
        <ele>229.39999389648</ele>
        <time>2022-06-22T08:11:57.000Z</time>
      </trkpt>
      <trkpt lat="46.68482" lon="2.67357">
        <ele>229.80000305176</ele>
        <time>2022-06-22T08:11:59.000Z</time>
      </trkpt>
      <trkpt lat="46.68501" lon="2.67368">
        <ele>230.80000305176</ele>
        <time>2022-06-22T08:12:03.000Z</time>
      </trkpt>
      <trkpt lat="46.68516" lon="2.67376">
        <ele>231</ele>
        <time>2022-06-22T08:12:06.000Z</time>
      </trkpt>
      <trkpt lat="46.68542" lon="2.67388">
        <ele>231.39999389648</ele>
        <time>2022-06-22T08:12:11.000Z</time>
      </trkpt>
      <trkpt lat="46.68563" lon="2.67397">
        <ele>232</ele>
        <time>2022-06-22T08:12:15.000Z</time>
      </trkpt>
      <trkpt lat="46.68606" lon="2.67415">
        <ele>231.39999389648</ele>
        <time>2022-06-22T08:12:23.000Z</time>
      </trkpt>
      <trkpt lat="46.68617" lon="2.67418">
        <ele>231</ele>
        <time>2022-06-22T08:12:25.000Z</time>
      </trkpt>
      <trkpt lat="46.6866" lon="2.67427">
        <ele>229.39999389648</ele>
        <time>2022-06-22T08:12:32.000Z</time>
      </trkpt>
      <trkpt lat="46.68713" lon="2.67435">
        <ele>227.60000610352</ele>
        <time>2022-06-22T08:12:40.000Z</time>
      </trkpt>
      <trkpt lat="46.68766" lon="2.67442">
        <ele>226.80000305176</ele>
        <time>2022-06-22T08:12:48.000Z</time>
      </trkpt>
      <trkpt lat="46.68773" lon="2.67443">
        <ele>226.80000305176</ele>
        <time>2022-06-22T08:12:49.000Z</time>
      </trkpt>
      <trkpt lat="46.68828" lon="2.67452">
        <ele>225</ele>
        <time>2022-06-22T08:12:57.000Z</time>
      </trkpt>
      <trkpt lat="46.68849" lon="2.67455">
        <ele>225</ele>
        <time>2022-06-22T08:13:00.000Z</time>
      </trkpt>
      <trkpt lat="46.68856" lon="2.67456">
        <ele>225</ele>
        <time>2022-06-22T08:13:01.000Z</time>
      </trkpt>
      <trkpt lat="46.68892" lon="2.67462">
        <ele>226.39999389648</ele>
        <time>2022-06-22T08:13:06.000Z</time>
      </trkpt>
      <trkpt lat="46.68914" lon="2.67466">
        <ele>226.39999389648</ele>
        <time>2022-06-22T08:13:09.000Z</time>
      </trkpt>
      <trkpt lat="46.68951" lon="2.67481">
        <ele>225.60000610352</ele>
        <time>2022-06-22T08:13:14.000Z</time>
      </trkpt>
      <trkpt lat="46.68965" lon="2.6749">
        <ele>225</ele>
        <time>2022-06-22T08:13:16.000Z</time>
      </trkpt>
      <trkpt lat="46.68978" lon="2.67499">
        <ele>224</ele>
        <time>2022-06-22T08:13:18.000Z</time>
      </trkpt>
      <trkpt lat="46.69025" lon="2.67529">
        <ele>222</ele>
        <time>2022-06-22T08:13:25.000Z</time>
      </trkpt>
      <trkpt lat="46.69075" lon="2.67562">
        <ele>224</ele>
        <time>2022-06-22T08:13:33.000Z</time>
      </trkpt>
      <trkpt lat="46.6908" lon="2.67566">
        <ele>224.19999694824</ele>
        <time>2022-06-22T08:13:34.000Z</time>
      </trkpt>
      <trkpt lat="46.69136" lon="2.676">
        <ele>222.80000305176</ele>
        <time>2022-06-22T08:13:43.000Z</time>
      </trkpt>
      <trkpt lat="46.69142" lon="2.67604">
        <ele>222.39999389648</ele>
        <time>2022-06-22T08:13:44.000Z</time>
      </trkpt>
      <trkpt lat="46.69148" lon="2.67609">
        <ele>222.19999694824</ele>
        <time>2022-06-22T08:13:45.000Z</time>
      </trkpt>
      <trkpt lat="46.69193" lon="2.67637">
        <ele>221.19999694824</ele>
        <time>2022-06-22T08:13:52.000Z</time>
      </trkpt>
      <trkpt lat="46.69213" lon="2.67649">
        <ele>221</ele>
        <time>2022-06-22T08:13:55.000Z</time>
      </trkpt>
      <trkpt lat="46.69264" lon="2.67682">
        <ele>222</ele>
        <time>2022-06-22T08:14:03.000Z</time>
      </trkpt>
      <trkpt lat="46.69304" lon="2.67708">
        <ele>220.60000610352</ele>
        <time>2022-06-22T08:14:09.000Z</time>
      </trkpt>
      <trkpt lat="46.69344" lon="2.67733">
        <ele>218.60000610352</ele>
        <time>2022-06-22T08:14:15.000Z</time>
      </trkpt>
      <trkpt lat="46.69357" lon="2.67741">
        <ele>217.80000305176</ele>
        <time>2022-06-22T08:14:17.000Z</time>
      </trkpt>
      <trkpt lat="46.69378" lon="2.67754">
        <ele>217</ele>
        <time>2022-06-22T08:14:20.000Z</time>
      </trkpt>
      <trkpt lat="46.69413" lon="2.67776">
        <ele>215.60000610352</ele>
        <time>2022-06-22T08:14:25.000Z</time>
      </trkpt>
      <trkpt lat="46.69426" lon="2.67785">
        <ele>214.80000305176</ele>
        <time>2022-06-22T08:14:27.000Z</time>
      </trkpt>
      <trkpt lat="46.69453" lon="2.67802">
        <ele>213.80000305176</ele>
        <time>2022-06-22T08:14:31.000Z</time>
      </trkpt>
      <trkpt lat="46.69467" lon="2.67811">
        <ele>213.39999389648</ele>
        <time>2022-06-22T08:14:33.000Z</time>
      </trkpt>
      <trkpt lat="46.69493" lon="2.67829">
        <ele>213</ele>
        <time>2022-06-22T08:14:37.000Z</time>
      </trkpt>
      <trkpt lat="46.69513" lon="2.67844">
        <ele>212.80000305176</ele>
        <time>2022-06-22T08:14:40.000Z</time>
      </trkpt>
      <trkpt lat="46.69532" lon="2.67861">
        <ele>212</ele>
        <time>2022-06-22T08:14:43.000Z</time>
      </trkpt>
      <trkpt lat="46.69559" lon="2.67886">
        <ele>210.39999389648</ele>
        <time>2022-06-22T08:14:47.000Z</time>
      </trkpt>
      <trkpt lat="46.69585" lon="2.67915">
        <ele>209.19999694824</ele>
        <time>2022-06-22T08:14:51.000Z</time>
      </trkpt>
      <trkpt lat="46.69617" lon="2.6795">
        <ele>208</ele>
        <time>2022-06-22T08:14:56.000Z</time>
      </trkpt>
      <trkpt lat="46.69637" lon="2.67969">
        <ele>207.19999694824</ele>
        <time>2022-06-22T08:14:59.000Z</time>
      </trkpt>
      <trkpt lat="46.69644" lon="2.67974">
        <ele>207</ele>
        <time>2022-06-22T08:15:00.000Z</time>
      </trkpt>
      <trkpt lat="46.69672" lon="2.67989">
        <ele>206.60000610352</ele>
        <time>2022-06-22T08:15:04.000Z</time>
      </trkpt>
      <trkpt lat="46.69703" lon="2.67997">
        <ele>210.19999694824</ele>
        <time>2022-06-22T08:15:09.000Z</time>
      </trkpt>
      <trkpt lat="46.6972" lon="2.68002">
        <ele>211.39999389648</ele>
        <time>2022-06-22T08:15:12.000Z</time>
      </trkpt>
      <trkpt lat="46.69735" lon="2.68007">
        <ele>212</ele>
        <time>2022-06-22T08:15:15.000Z</time>
      </trkpt>
      <trkpt lat="46.69754" lon="2.68011">
        <ele>212</ele>
        <time>2022-06-22T08:15:19.000Z</time>
      </trkpt>
      <trkpt lat="46.6977" lon="2.68016">
        <ele>212</ele>
        <time>2022-06-22T08:15:22.000Z</time>
      </trkpt>
      <trkpt lat="46.6978" lon="2.68018">
        <ele>212</ele>
        <time>2022-06-22T08:15:24.000Z</time>
      </trkpt>
      <trkpt lat="46.69809" lon="2.68026">
        <ele>213</ele>
        <time>2022-06-22T08:15:30.000Z</time>
      </trkpt>
      <trkpt lat="46.69848" lon="2.68041">
        <ele>214</ele>
        <time>2022-06-22T08:15:38.000Z</time>
      </trkpt>
      <trkpt lat="46.69858" lon="2.68047">
        <ele>214</ele>
        <time>2022-06-22T08:15:40.000Z</time>
      </trkpt>
      <trkpt lat="46.69869" lon="2.68054">
        <ele>214</ele>
        <time>2022-06-22T08:15:42.000Z</time>
      </trkpt>
      <trkpt lat="46.69879" lon="2.68063">
        <ele>213.60000610352</ele>
        <time>2022-06-22T08:15:44.000Z</time>
      </trkpt>
      <trkpt lat="46.69913" lon="2.68096">
        <ele>212.80000305176</ele>
        <time>2022-06-22T08:15:50.000Z</time>
      </trkpt>
      <trkpt lat="46.69931" lon="2.68114">
        <ele>211.39999389648</ele>
        <time>2022-06-22T08:15:53.000Z</time>
      </trkpt>
      <trkpt lat="46.6995" lon="2.68133">
        <ele>210</ele>
        <time>2022-06-22T08:15:56.000Z</time>
      </trkpt>
      <trkpt lat="46.69963" lon="2.68146">
        <ele>209</ele>
        <time>2022-06-22T08:15:58.000Z</time>
      </trkpt>
      <trkpt lat="46.69983" lon="2.68164">
        <ele>207</ele>
        <time>2022-06-22T08:16:01.000Z</time>
      </trkpt>
      <trkpt lat="46.6999" lon="2.6817">
        <ele>206.60000610352</ele>
        <time>2022-06-22T08:16:02.000Z</time>
      </trkpt>
      <trkpt lat="46.69998" lon="2.68174">
        <ele>206.19999694824</ele>
        <time>2022-06-22T08:16:03.000Z</time>
      </trkpt>
      <trkpt lat="46.70006" lon="2.68177">
        <ele>206</ele>
        <time>2022-06-22T08:16:04.000Z</time>
      </trkpt>
      <trkpt lat="46.70022" lon="2.6818">
        <ele>205.19999694824</ele>
        <time>2022-06-22T08:16:06.000Z</time>
      </trkpt>
      <trkpt lat="46.7003" lon="2.68179">
        <ele>204.80000305176</ele>
        <time>2022-06-22T08:16:07.000Z</time>
      </trkpt>
      <trkpt lat="46.70038" lon="2.68177">
        <ele>204.60000610352</ele>
        <time>2022-06-22T08:16:08.000Z</time>
      </trkpt>
      <trkpt lat="46.70072" lon="2.68161">
        <ele>202.60000610352</ele>
        <time>2022-06-22T08:16:12.000Z</time>
      </trkpt>
      <trkpt lat="46.70099" lon="2.68147">
        <ele>202.60000610352</ele>
        <time>2022-06-22T08:16:15.000Z</time>
      </trkpt>
      <trkpt lat="46.70127" lon="2.68132">
        <ele>201.80000305176</ele>
        <time>2022-06-22T08:16:18.000Z</time>
      </trkpt>
      <trkpt lat="46.70136" lon="2.68127">
        <ele>201.19999694824</ele>
        <time>2022-06-22T08:16:19.000Z</time>
      </trkpt>
      <trkpt lat="46.70154" lon="2.68117">
        <ele>200.39999389648</ele>
        <time>2022-06-22T08:16:21.000Z</time>
      </trkpt>
      <trkpt lat="46.70191" lon="2.68099">
        <ele>198.60000610352</ele>
        <time>2022-06-22T08:16:25.000Z</time>
      </trkpt>
      <trkpt lat="46.70199" lon="2.68096">
        <ele>198.80000305176</ele>
        <time>2022-06-22T08:16:26.000Z</time>
      </trkpt>
      <trkpt lat="46.70217" lon="2.68093">
        <ele>198.80000305176</ele>
        <time>2022-06-22T08:16:28.000Z</time>
      </trkpt>
      <trkpt lat="46.70241" lon="2.68091">
        <ele>199.39999389648</ele>
        <time>2022-06-22T08:16:31.000Z</time>
      </trkpt>
      <trkpt lat="46.70257" lon="2.68091">
        <ele>200</ele>
        <time>2022-06-22T08:16:33.000Z</time>
      </trkpt>
      <trkpt lat="46.70278" lon="2.68092">
        <ele>199.80000305176</ele>
        <time>2022-06-22T08:16:36.000Z</time>
      </trkpt>
      <trkpt lat="46.70285" lon="2.68094">
        <ele>199.80000305176</ele>
        <time>2022-06-22T08:16:37.000Z</time>
      </trkpt>
      <trkpt lat="46.70291" lon="2.68096">
        <ele>199.39999389648</ele>
        <time>2022-06-22T08:16:38.000Z</time>
      </trkpt>
      <trkpt lat="46.70308" lon="2.6811">
        <ele>198.19999694824</ele>
        <time>2022-06-22T08:16:41.000Z</time>
      </trkpt>
      <trkpt lat="46.70344" lon="2.68141">
        <ele>198.80000305176</ele>
        <time>2022-06-22T08:16:48.000Z</time>
      </trkpt>
      <trkpt lat="46.7035" lon="2.68145">
        <ele>199</ele>
        <time>2022-06-22T08:16:49.000Z</time>
      </trkpt>
      <trkpt lat="46.70386" lon="2.68169">
        <ele>200.19999694824</ele>
        <time>2022-06-22T08:16:56.000Z</time>
      </trkpt>
      <trkpt lat="46.70409" lon="2.68184">
        <ele>201.19999694824</ele>
        <time>2022-06-22T08:17:01.000Z</time>
      </trkpt>
      <trkpt lat="46.70414" lon="2.68187">
        <ele>201.19999694824</ele>
        <time>2022-06-22T08:17:02.000Z</time>
      </trkpt>
      <trkpt lat="46.70443" lon="2.682">
        <ele>202.19999694824</ele>
        <time>2022-06-22T08:17:08.000Z</time>
      </trkpt>
      <trkpt lat="46.70448" lon="2.68202">
        <ele>202.39999389648</ele>
        <time>2022-06-22T08:17:09.000Z</time>
      </trkpt>
      <trkpt lat="46.70467" lon="2.68215">
        <ele>203.19999694824</ele>
        <time>2022-06-22T08:17:13.000Z</time>
      </trkpt>
      <trkpt lat="46.70471" lon="2.6822">
        <ele>203.39999389648</ele>
        <time>2022-06-22T08:17:14.000Z</time>
      </trkpt>
      <trkpt lat="46.70476" lon="2.68224">
        <ele>203.80000305176</ele>
        <time>2022-06-22T08:17:15.000Z</time>
      </trkpt>
      <trkpt lat="46.70512" lon="2.68269">
        <ele>203.80000305176</ele>
        <time>2022-06-22T08:17:24.000Z</time>
      </trkpt>
      <trkpt lat="46.70533" lon="2.68294">
        <ele>202.60000610352</ele>
        <time>2022-06-22T08:17:29.000Z</time>
      </trkpt>
      <trkpt lat="46.70558" lon="2.68326">
        <ele>201.39999389648</ele>
        <time>2022-06-22T08:17:35.000Z</time>
      </trkpt>
      <trkpt lat="46.70595" lon="2.68375">
        <ele>204.39999389648</ele>
        <time>2022-06-22T08:17:44.000Z</time>
      </trkpt>
      <trkpt lat="46.7061" lon="2.68396">
        <ele>205.39999389648</ele>
        <time>2022-06-22T08:17:48.000Z</time>
      </trkpt>
      <trkpt lat="46.70625" lon="2.68415">
        <ele>206.19999694824</ele>
        <time>2022-06-22T08:17:52.000Z</time>
      </trkpt>
      <trkpt lat="46.70632" lon="2.68424">
        <ele>206.60000610352</ele>
        <time>2022-06-22T08:17:54.000Z</time>
      </trkpt>
      <trkpt lat="46.70635" lon="2.68429">
        <ele>206.80000305176</ele>
        <time>2022-06-22T08:17:55.000Z</time>
      </trkpt>
      <trkpt lat="46.70646" lon="2.68446">
        <ele>207.60000610352</ele>
        <time>2022-06-22T08:17:59.000Z</time>
      </trkpt>
      <trkpt lat="46.70649" lon="2.68451">
        <ele>207.60000610352</ele>
        <time>2022-06-22T08:18:00.000Z</time>
      </trkpt>
      <trkpt lat="46.7066" lon="2.68474">
        <ele>207.80000305176</ele>
        <time>2022-06-22T08:18:05.000Z</time>
      </trkpt>
      <trkpt lat="46.70671" lon="2.68504">
        <ele>209</ele>
        <time>2022-06-22T08:18:11.000Z</time>
      </trkpt>
      <trkpt lat="46.70674" lon="2.68515">
        <ele>209.19999694824</ele>
        <time>2022-06-22T08:18:13.000Z</time>
      </trkpt>
      <trkpt lat="46.70679" lon="2.68532">
        <ele>209.60000610352</ele>
        <time>2022-06-22T08:18:16.000Z</time>
      </trkpt>
      <trkpt lat="46.70691" lon="2.68576">
        <ele>210.80000305176</ele>
        <time>2022-06-22T08:18:24.000Z</time>
      </trkpt>
      <trkpt lat="46.70694" lon="2.68582">
        <ele>211</ele>
        <time>2022-06-22T08:18:25.000Z</time>
      </trkpt>
      <trkpt lat="46.70714" lon="2.6862">
        <ele>211.60000610352</ele>
        <time>2022-06-22T08:18:32.000Z</time>
      </trkpt>
      <trkpt lat="46.70745" lon="2.68668">
        <ele>210.39999389648</ele>
        <time>2022-06-22T08:18:40.000Z</time>
      </trkpt>
      <trkpt lat="46.7078" lon="2.68721">
        <ele>211.80000305176</ele>
        <time>2022-06-22T08:18:49.000Z</time>
      </trkpt>
      <trkpt lat="46.70797" lon="2.68751">
        <ele>212.80000305176</ele>
        <time>2022-06-22T08:18:54.000Z</time>
      </trkpt>
      <trkpt lat="46.70804" lon="2.68762">
        <ele>213</ele>
        <time>2022-06-22T08:18:56.000Z</time>
      </trkpt>
      <trkpt lat="46.70821" lon="2.68795">
        <ele>214.60000610352</ele>
        <time>2022-06-22T08:19:02.000Z</time>
      </trkpt>
      <trkpt lat="46.70823" lon="2.688">
        <ele>215</ele>
        <time>2022-06-22T08:19:03.000Z</time>
      </trkpt>
      <trkpt lat="46.70836" lon="2.68828">
        <ele>216.39999389648</ele>
        <time>2022-06-22T08:19:08.000Z</time>
      </trkpt>
      <trkpt lat="46.7084" lon="2.68839">
        <ele>217</ele>
        <time>2022-06-22T08:19:10.000Z</time>
      </trkpt>
      <trkpt lat="46.70846" lon="2.68858">
        <ele>217.60000610352</ele>
        <time>2022-06-22T08:19:13.000Z</time>
      </trkpt>
      <trkpt lat="46.70848" lon="2.68864">
        <ele>217.80000305176</ele>
        <time>2022-06-22T08:19:14.000Z</time>
      </trkpt>
      <trkpt lat="46.70857" lon="2.68882">
        <ele>218.19999694824</ele>
        <time>2022-06-22T08:19:17.000Z</time>
      </trkpt>
      <trkpt lat="46.70879" lon="2.68913">
        <ele>217.39999389648</ele>
        <time>2022-06-22T08:19:23.000Z</time>
      </trkpt>
      <trkpt lat="46.70887" lon="2.68925">
        <ele>217</ele>
        <time>2022-06-22T08:19:25.000Z</time>
      </trkpt>
      <trkpt lat="46.70924" lon="2.68974">
        <ele>215.80000305176</ele>
        <time>2022-06-22T08:19:34.000Z</time>
      </trkpt>
      <trkpt lat="46.70944" lon="2.69002">
        <ele>215.39999389648</ele>
        <time>2022-06-22T08:19:39.000Z</time>
      </trkpt>
      <trkpt lat="46.70952" lon="2.69012">
        <ele>215.39999389648</ele>
        <time>2022-06-22T08:19:41.000Z</time>
      </trkpt>
      <trkpt lat="46.70957" lon="2.69017">
        <ele>215.60000610352</ele>
        <time>2022-06-22T08:19:42.000Z</time>
      </trkpt>
      <trkpt lat="46.70969" lon="2.69033">
        <ele>216.39999389648</ele>
        <time>2022-06-22T08:19:45.000Z</time>
      </trkpt>
      <trkpt lat="46.70972" lon="2.6904">
        <ele>216.80000305176</ele>
        <time>2022-06-22T08:19:46.000Z</time>
      </trkpt>
      <trkpt lat="46.70974" lon="2.69048">
        <ele>217.19999694824</ele>
        <time>2022-06-22T08:19:47.000Z</time>
      </trkpt>
      <trkpt lat="46.70979" lon="2.69084">
        <ele>218.80000305176</ele>
        <time>2022-06-22T08:19:52.000Z</time>
      </trkpt>
      <trkpt lat="46.70995" lon="2.69135">
        <ele>218.80000305176</ele>
        <time>2022-06-22T08:19:59.000Z</time>
      </trkpt>
      <trkpt lat="46.71013" lon="2.69174">
        <ele>217.60000610352</ele>
        <time>2022-06-22T08:20:05.000Z</time>
      </trkpt>
      <trkpt lat="46.71016" lon="2.69181">
        <ele>217.19999694824</ele>
        <time>2022-06-22T08:20:06.000Z</time>
      </trkpt>
      <trkpt lat="46.71032" lon="2.69213">
        <ele>216.19999694824</ele>
        <time>2022-06-22T08:20:11.000Z</time>
      </trkpt>
      <trkpt lat="46.71036" lon="2.69219">
        <ele>216</ele>
        <time>2022-06-22T08:20:12.000Z</time>
      </trkpt>
      <trkpt lat="46.71044" lon="2.69231">
        <ele>216</ele>
        <time>2022-06-22T08:20:14.000Z</time>
      </trkpt>
      <trkpt lat="46.71051" lon="2.69242">
        <ele>216</ele>
        <time>2022-06-22T08:20:16.000Z</time>
      </trkpt>
      <trkpt lat="46.71056" lon="2.69255">
        <ele>216</ele>
        <time>2022-06-22T08:20:18.000Z</time>
      </trkpt>
      <trkpt lat="46.7107" lon="2.69287">
        <ele>217.19999694824</ele>
        <time>2022-06-22T08:20:23.000Z</time>
      </trkpt>
      <trkpt lat="46.71097" lon="2.69327">
        <ele>218.60000610352</ele>
        <time>2022-06-22T08:20:30.000Z</time>
      </trkpt>
      <trkpt lat="46.7111" lon="2.69341">
        <ele>219</ele>
        <time>2022-06-22T08:20:33.000Z</time>
      </trkpt>
      <trkpt lat="46.71125" lon="2.69349">
        <ele>219</ele>
        <time>2022-06-22T08:20:36.000Z</time>
      </trkpt>
      <trkpt lat="46.71136" lon="2.69353">
        <ele>219</ele>
        <time>2022-06-22T08:20:38.000Z</time>
      </trkpt>
      <trkpt lat="46.71151" lon="2.69359">
        <ele>218.80000305176</ele>
        <time>2022-06-22T08:20:42.000Z</time>
      </trkpt>
      <trkpt lat="46.71155" lon="2.69361">
        <ele>218.60000610352</ele>
        <time>2022-06-22T08:20:44.000Z</time>
      </trkpt>
      <trkpt lat="46.71156" lon="2.69363">
        <ele>218.60000610352</ele>
        <time>2022-06-22T08:20:45.000Z</time>
      </trkpt>
      <trkpt lat="46.71156" lon="2.69372">
        <ele>218.60000610352</ele>
        <time>2022-06-22T08:20:47.000Z</time>
      </trkpt>
      <trkpt lat="46.71154" lon="2.69382">
        <ele>218.60000610352</ele>
        <time>2022-06-22T08:20:49.000Z</time>
      </trkpt>
      <trkpt lat="46.71152" lon="2.69395">
        <ele>218.80000305176</ele>
        <time>2022-06-22T08:20:51.000Z</time>
      </trkpt>
      <trkpt lat="46.7115" lon="2.69407">
        <ele>219.19999694824</ele>
        <time>2022-06-22T08:20:53.000Z</time>
      </trkpt>
      <trkpt lat="46.71146" lon="2.69428">
        <ele>220</ele>
        <time>2022-06-22T08:20:56.000Z</time>
      </trkpt>
      <trkpt lat="46.71143" lon="2.69441">
        <ele>220</ele>
        <time>2022-06-22T08:20:58.000Z</time>
      </trkpt>
      <trkpt lat="46.71141" lon="2.69448">
        <ele>220</ele>
        <time>2022-06-22T08:20:59.000Z</time>
      </trkpt>
      <trkpt lat="46.71139" lon="2.69462">
        <ele>220.39999389648</ele>
        <time>2022-06-22T08:21:01.000Z</time>
      </trkpt>
      <trkpt lat="46.71139" lon="2.69476">
        <ele>220.80000305176</ele>
        <time>2022-06-22T08:21:03.000Z</time>
      </trkpt>
      <trkpt lat="46.7114" lon="2.69483">
        <ele>220.80000305176</ele>
        <time>2022-06-22T08:21:04.000Z</time>
      </trkpt>
      <trkpt lat="46.71139" lon="2.69503">
        <ele>221</ele>
        <time>2022-06-22T08:21:07.000Z</time>
      </trkpt>
      <trkpt lat="46.71139" lon="2.6951">
        <ele>220.80000305176</ele>
        <time>2022-06-22T08:21:08.000Z</time>
      </trkpt>
      <trkpt lat="46.71139" lon="2.69516">
        <ele>220.60000610352</ele>
        <time>2022-06-22T08:21:09.000Z</time>
      </trkpt>
      <trkpt lat="46.71139" lon="2.69537">
        <ele>220.39999389648</ele>
        <time>2022-06-22T08:21:12.000Z</time>
      </trkpt>
      <trkpt lat="46.7114" lon="2.69567">
        <ele>221.39999389648</ele>
        <time>2022-06-22T08:21:16.000Z</time>
      </trkpt>
      <trkpt lat="46.7114" lon="2.69574">
        <ele>222</ele>
        <time>2022-06-22T08:21:17.000Z</time>
      </trkpt>
      <trkpt lat="46.7114" lon="2.69604">
        <ele>224</ele>
        <time>2022-06-22T08:21:21.000Z</time>
      </trkpt>
      <trkpt lat="46.7114" lon="2.6964">
        <ele>225.80000305176</ele>
        <time>2022-06-22T08:21:26.000Z</time>
      </trkpt>
      <trkpt lat="46.7114" lon="2.69647">
        <ele>226</ele>
        <time>2022-06-22T08:21:27.000Z</time>
      </trkpt>
      <trkpt lat="46.71141" lon="2.69683">
        <ele>226.39999389648</ele>
        <time>2022-06-22T08:21:32.000Z</time>
      </trkpt>
      <trkpt lat="46.71141" lon="2.69691">
        <ele>226.60000610352</ele>
        <time>2022-06-22T08:21:33.000Z</time>
      </trkpt>
      <trkpt lat="46.71142" lon="2.69719">
        <ele>227.60000610352</ele>
        <time>2022-06-22T08:21:37.000Z</time>
      </trkpt>
      <trkpt lat="46.71143" lon="2.69754">
        <ele>229</ele>
        <time>2022-06-22T08:21:42.000Z</time>
      </trkpt>
      <trkpt lat="46.71143" lon="2.69779">
        <ele>229.80000305176</ele>
        <time>2022-06-22T08:21:45.000Z</time>
      </trkpt>
      <trkpt lat="46.71142" lon="2.69795">
        <ele>230</ele>
        <time>2022-06-22T08:21:47.000Z</time>
      </trkpt>
      <trkpt lat="46.71142" lon="2.69803">
        <ele>230</ele>
        <time>2022-06-22T08:21:48.000Z</time>
      </trkpt>
      <trkpt lat="46.71143" lon="2.69849">
        <ele>229</ele>
        <time>2022-06-22T08:21:54.000Z</time>
      </trkpt>
      <trkpt lat="46.71143" lon="2.69856">
        <ele>229</ele>
        <time>2022-06-22T08:21:55.000Z</time>
      </trkpt>
      <trkpt lat="46.71142" lon="2.69886">
        <ele>228.39999389648</ele>
        <time>2022-06-22T08:21:59.000Z</time>
      </trkpt>
      <trkpt lat="46.71139" lon="2.69901">
        <ele>228</ele>
        <time>2022-06-22T08:22:01.000Z</time>
      </trkpt>
      <trkpt lat="46.7113" lon="2.69929">
        <ele>226.80000305176</ele>
        <time>2022-06-22T08:22:05.000Z</time>
      </trkpt>
      <trkpt lat="46.71122" lon="2.69942">
        <ele>226.19999694824</ele>
        <time>2022-06-22T08:22:07.000Z</time>
      </trkpt>
      <trkpt lat="46.71118" lon="2.69949">
        <ele>226</ele>
        <time>2022-06-22T08:22:08.000Z</time>
      </trkpt>
      <trkpt lat="46.71115" lon="2.69956">
        <ele>225.80000305176</ele>
        <time>2022-06-22T08:22:09.000Z</time>
      </trkpt>
      <trkpt lat="46.71104" lon="2.69979">
        <ele>225</ele>
        <time>2022-06-22T08:22:12.000Z</time>
      </trkpt>
      <trkpt lat="46.71096" lon="2.69994">
        <ele>223.80000305176</ele>
        <time>2022-06-22T08:22:14.000Z</time>
      </trkpt>
      <trkpt lat="46.71078" lon="2.70032">
        <ele>222.39999389648</ele>
        <time>2022-06-22T08:22:19.000Z</time>
      </trkpt>
      <trkpt lat="46.71055" lon="2.70079">
        <ele>222.19999694824</ele>
        <time>2022-06-22T08:22:25.000Z</time>
      </trkpt>
      <trkpt lat="46.71045" lon="2.70102">
        <ele>222</ele>
        <time>2022-06-22T08:22:28.000Z</time>
      </trkpt>
      <trkpt lat="46.71022" lon="2.70152">
        <ele>222.80000305176</ele>
        <time>2022-06-22T08:22:35.000Z</time>
      </trkpt>
      <trkpt lat="46.71014" lon="2.70174">
        <ele>222</ele>
        <time>2022-06-22T08:22:37.000Z</time>
      </trkpt>
      <trkpt lat="46.71013" lon="2.70182">
        <ele>221.60000610352</ele>
        <time>2022-06-22T08:22:39.000Z</time>
      </trkpt>
      <trkpt lat="46.71009" lon="2.70198">
        <ele>221</ele>
        <time>2022-06-22T08:22:40.000Z</time>
      </trkpt>
      <trkpt lat="46.71002" lon="2.70257">
        <ele>222</ele>
        <time>2022-06-22T08:22:48.000Z</time>
      </trkpt>
      <trkpt lat="46.70995" lon="2.70336">
        <ele>221.39999389648</ele>
        <time>2022-06-22T08:22:56.000Z</time>
      </trkpt>
      <trkpt lat="46.70987" lon="2.70407">
        <ele>220.19999694824</ele>
        <time>2022-06-22T08:23:04.000Z</time>
      </trkpt>
      <trkpt lat="46.70985" lon="2.70425">
        <ele>219.80000305176</ele>
        <time>2022-06-22T08:23:06.000Z</time>
      </trkpt>
      <trkpt lat="46.7097" lon="2.70503">
        <ele>217.80000305176</ele>
        <time>2022-06-22T08:23:16.000Z</time>
      </trkpt>
      <trkpt lat="46.70966" lon="2.7052">
        <ele>217.60000610352</ele>
        <time>2022-06-22T08:23:17.000Z</time>
      </trkpt>
      <trkpt lat="46.70961" lon="2.70544">
        <ele>217.80000305176</ele>
        <time>2022-06-22T08:23:20.000Z</time>
      </trkpt>
      <trkpt lat="46.70946" lon="2.70623">
        <ele>218</ele>
        <time>2022-06-22T08:23:29.000Z</time>
      </trkpt>
      <trkpt lat="46.70944" lon="2.70631">
        <ele>217.60000610352</ele>
        <time>2022-06-22T08:23:30.000Z</time>
      </trkpt>
      <trkpt lat="46.70938" lon="2.70676">
        <ele>216.39999389648</ele>
        <time>2022-06-22T08:23:35.000Z</time>
      </trkpt>
      <trkpt lat="46.70938" lon="2.70696">
        <ele>216.39999389648</ele>
        <time>2022-06-22T08:23:37.000Z</time>
      </trkpt>
      <trkpt lat="46.70938" lon="2.70705">
        <ele>216.19999694824</ele>
        <time>2022-06-22T08:23:38.000Z</time>
      </trkpt>
      <trkpt lat="46.7094" lon="2.70723">
        <ele>215.80000305176</ele>
        <time>2022-06-22T08:23:40.000Z</time>
      </trkpt>
      <trkpt lat="46.70945" lon="2.70762">
        <ele>215</ele>
        <time>2022-06-22T08:23:45.000Z</time>
      </trkpt>
      <trkpt lat="46.70952" lon="2.70811">
        <ele>214</ele>
        <time>2022-06-22T08:23:49.000Z</time>
      </trkpt>
      <trkpt lat="46.70958" lon="2.70857">
        <ele>214</ele>
        <time>2022-06-22T08:23:55.000Z</time>
      </trkpt>
      <trkpt lat="46.70965" lon="2.70902">
        <ele>214.19999694824</ele>
        <time>2022-06-22T08:23:59.000Z</time>
      </trkpt>
      <trkpt lat="46.70971" lon="2.70938">
        <ele>214.19999694824</ele>
        <time>2022-06-22T08:24:03.000Z</time>
      </trkpt>
      <trkpt lat="46.70978" lon="2.71016">
        <ele>213.39999389648</ele>
        <time>2022-06-22T08:24:12.000Z</time>
      </trkpt>
      <trkpt lat="46.70985" lon="2.71095">
        <ele>214.80000305176</ele>
        <time>2022-06-22T08:24:21.000Z</time>
      </trkpt>
      <trkpt lat="46.70993" lon="2.71178">
        <ele>213.39999389648</ele>
        <time>2022-06-22T08:24:31.000Z</time>
      </trkpt>
      <trkpt lat="46.70994" lon="2.71187">
        <ele>213</ele>
        <time>2022-06-22T08:24:32.000Z</time>
      </trkpt>
      <trkpt lat="46.71001" lon="2.71266">
        <ele>213</ele>
        <time>2022-06-22T08:24:41.000Z</time>
      </trkpt>
      <trkpt lat="46.71007" lon="2.71326">
        <ele>212</ele>
        <time>2022-06-22T08:24:48.000Z</time>
      </trkpt>
      <trkpt lat="46.71009" lon="2.71336">
        <ele>212</ele>
        <time>2022-06-22T08:24:49.000Z</time>
      </trkpt>
      <trkpt lat="46.71016" lon="2.71405">
        <ele>211.60000610352</ele>
        <time>2022-06-22T08:24:56.000Z</time>
      </trkpt>
      <trkpt lat="46.71017" lon="2.71416">
        <ele>211.60000610352</ele>
        <time>2022-06-22T08:24:57.000Z</time>
      </trkpt>
      <trkpt lat="46.71024" lon="2.7148">
        <ele>208.80000305176</ele>
        <time>2022-06-22T08:25:03.000Z</time>
      </trkpt>
      <trkpt lat="46.71026" lon="2.71526">
        <ele>207.19999694824</ele>
        <time>2022-06-22T08:25:07.000Z</time>
      </trkpt>
      <trkpt lat="46.71026" lon="2.7155">
        <ele>207</ele>
        <time>2022-06-22T08:25:09.000Z</time>
      </trkpt>
      <trkpt lat="46.71026" lon="2.71559">
        <ele>206.80000305176</ele>
        <time>2022-06-22T08:25:11.000Z</time>
      </trkpt>
      <trkpt lat="46.71025" lon="2.71608">
        <ele>205</ele>
        <time>2022-06-22T08:25:14.000Z</time>
      </trkpt>
      <trkpt lat="46.71021" lon="2.71651">
        <ele>205.80000305176</ele>
        <time>2022-06-22T08:25:18.000Z</time>
      </trkpt>
      <trkpt lat="46.71016" lon="2.71679">
        <ele>206.60000610352</ele>
        <time>2022-06-22T08:25:21.000Z</time>
      </trkpt>
      <trkpt lat="46.71011" lon="2.71695">
        <ele>207.60000610352</ele>
        <time>2022-06-22T08:25:23.000Z</time>
      </trkpt>
      <trkpt lat="46.70996" lon="2.71735">
        <ele>209.19999694824</ele>
        <time>2022-06-22T08:25:30.000Z</time>
      </trkpt>
      <trkpt lat="46.70987" lon="2.71759">
        <ele>210.39999389648</ele>
        <time>2022-06-22T08:25:33.000Z</time>
      </trkpt>
      <trkpt lat="46.70979" lon="2.71777">
        <ele>210</ele>
        <time>2022-06-22T08:25:36.000Z</time>
      </trkpt>
      <trkpt lat="46.70975" lon="2.71788">
        <ele>210</ele>
        <time>2022-06-22T08:25:38.000Z</time>
      </trkpt>
      <trkpt lat="46.70968" lon="2.71812">
        <ele>210.60000610352</ele>
        <time>2022-06-22T08:25:42.000Z</time>
      </trkpt>
      <trkpt lat="46.7096" lon="2.71831">
        <ele>210.80000305176</ele>
        <time>2022-06-22T08:25:45.000Z</time>
      </trkpt>
      <trkpt lat="46.70953" lon="2.71848">
        <ele>211.19999694824</ele>
        <time>2022-06-22T08:25:48.000Z</time>
      </trkpt>
      <trkpt lat="46.70942" lon="2.71877">
        <ele>211.60000610352</ele>
        <time>2022-06-22T08:25:53.000Z</time>
      </trkpt>
      <trkpt lat="46.70935" lon="2.71894">
        <ele>212</ele>
        <time>2022-06-22T08:25:56.000Z</time>
      </trkpt>
      <trkpt lat="46.7093" lon="2.71908">
        <ele>212.39999389648</ele>
        <time>2022-06-22T08:25:58.000Z</time>
      </trkpt>
      <trkpt lat="46.70915" lon="2.71939">
        <ele>213</ele>
        <time>2022-06-22T08:26:03.000Z</time>
      </trkpt>
      <trkpt lat="46.70912" lon="2.71945">
        <ele>213</ele>
        <time>2022-06-22T08:26:04.000Z</time>
      </trkpt>
      <trkpt lat="46.70892" lon="2.71989">
        <ele>214.19999694824</ele>
        <time>2022-06-22T08:26:11.000Z</time>
      </trkpt>
      <trkpt lat="46.70866" lon="2.72042">
        <ele>215.19999694824</ele>
        <time>2022-06-22T08:26:19.000Z</time>
      </trkpt>
      <trkpt lat="46.70862" lon="2.72057">
        <ele>215.60000610352</ele>
        <time>2022-06-22T08:26:21.000Z</time>
      </trkpt>
      <trkpt lat="46.70861" lon="2.72077">
        <ele>216.39999389648</ele>
        <time>2022-06-22T08:26:24.000Z</time>
      </trkpt>
      <trkpt lat="46.7086" lon="2.72085">
        <ele>216.60000610352</ele>
        <time>2022-06-22T08:26:25.000Z</time>
      </trkpt>
      <trkpt lat="46.7086" lon="2.72099">
        <ele>217</ele>
        <time>2022-06-22T08:26:27.000Z</time>
      </trkpt>
      <trkpt lat="46.70861" lon="2.72128">
        <ele>217.80000305176</ele>
        <time>2022-06-22T08:26:32.000Z</time>
      </trkpt>
      <trkpt lat="46.70861" lon="2.72135">
        <ele>217.80000305176</ele>
        <time>2022-06-22T08:26:33.000Z</time>
      </trkpt>
      <trkpt lat="46.70861" lon="2.72158">
        <ele>218.39999389648</ele>
        <time>2022-06-22T08:26:35.000Z</time>
      </trkpt>
      <trkpt lat="46.70861" lon="2.72172">
        <ele>219</ele>
        <time>2022-06-22T08:26:38.000Z</time>
      </trkpt>
      <trkpt lat="46.70859" lon="2.722">
        <ele>220</ele>
        <time>2022-06-22T08:26:41.000Z</time>
      </trkpt>
      <trkpt lat="46.70859" lon="2.72207">
        <ele>220.39999389648</ele>
        <time>2022-06-22T08:26:43.000Z</time>
      </trkpt>
      <trkpt lat="46.70858" lon="2.72221">
        <ele>221.39999389648</ele>
        <time>2022-06-22T08:26:44.000Z</time>
      </trkpt>
      <trkpt lat="46.70856" lon="2.72242">
        <ele>221.60000610352</ele>
        <time>2022-06-22T08:26:47.000Z</time>
      </trkpt>
      <trkpt lat="46.70855" lon="2.72262">
        <ele>222</ele>
        <time>2022-06-22T08:26:50.000Z</time>
      </trkpt>
      <trkpt lat="46.70855" lon="2.72269">
        <ele>222</ele>
        <time>2022-06-22T08:26:51.000Z</time>
      </trkpt>
      <trkpt lat="46.70852" lon="2.72301">
        <ele>221</ele>
        <time>2022-06-22T08:26:55.000Z</time>
      </trkpt>
      <trkpt lat="46.7085" lon="2.72318">
        <ele>220.80000305176</ele>
        <time>2022-06-22T08:26:57.000Z</time>
      </trkpt>
      <trkpt lat="46.70845" lon="2.7238">
        <ele>219.60000610352</ele>
        <time>2022-06-22T08:27:04.000Z</time>
      </trkpt>
      <trkpt lat="46.70843" lon="2.72399">
        <ele>219.60000610352</ele>
        <time>2022-06-22T08:27:07.000Z</time>
      </trkpt>
      <trkpt lat="46.70834" lon="2.72465">
        <ele>219</ele>
        <time>2022-06-22T08:27:13.000Z</time>
      </trkpt>
      <trkpt lat="46.70822" lon="2.72498">
        <ele>218.39999389648</ele>
        <time>2022-06-22T08:27:17.000Z</time>
      </trkpt>
      <trkpt lat="46.70815" lon="2.72512">
        <ele>217.80000305176</ele>
        <time>2022-06-22T08:27:19.000Z</time>
      </trkpt>
      <trkpt lat="46.708" lon="2.72547">
        <ele>217.19999694824</ele>
        <time>2022-06-22T08:27:24.000Z</time>
      </trkpt>
      <trkpt lat="46.70798" lon="2.72555">
        <ele>217</ele>
        <time>2022-06-22T08:27:25.000Z</time>
      </trkpt>
      <trkpt lat="46.70798" lon="2.72555">
        <ele>217</ele>
        <time>2022-06-22T08:27:26.000Z</time>
      </trkpt>
      <trkpt lat="46.70793" lon="2.7258">
        <ele>216.60000610352</ele>
        <time>2022-06-22T08:27:28.000Z</time>
      </trkpt>
      <trkpt lat="46.70792" lon="2.72608">
        <ele>216</ele>
        <time>2022-06-22T08:27:31.000Z</time>
      </trkpt>
      <trkpt lat="46.70791" lon="2.72617">
        <ele>215.80000305176</ele>
        <time>2022-06-22T08:27:32.000Z</time>
      </trkpt>
      <trkpt lat="46.70788" lon="2.72677">
        <ele>213.60000610352</ele>
        <time>2022-06-22T08:27:38.000Z</time>
      </trkpt>
      <trkpt lat="46.70787" lon="2.72697">
        <ele>213</ele>
        <time>2022-06-22T08:27:40.000Z</time>
      </trkpt>
      <trkpt lat="46.70786" lon="2.72729">
        <ele>213</ele>
        <time>2022-06-22T08:27:43.000Z</time>
      </trkpt>
      <trkpt lat="46.70785" lon="2.7274">
        <ele>212.60000610352</ele>
        <time>2022-06-22T08:27:44.000Z</time>
      </trkpt>
      <trkpt lat="46.70783" lon="2.72786">
        <ele>212</ele>
        <time>2022-06-22T08:27:48.000Z</time>
      </trkpt>
      <trkpt lat="46.70783" lon="2.72798">
        <ele>211.39999389648</ele>
        <time>2022-06-22T08:27:50.000Z</time>
      </trkpt>
      <trkpt lat="46.70781" lon="2.72823">
        <ele>210.60000610352</ele>
        <time>2022-06-22T08:27:51.000Z</time>
      </trkpt>
      <trkpt lat="46.70779" lon="2.72871">
        <ele>208.80000305176</ele>
        <time>2022-06-22T08:27:55.000Z</time>
      </trkpt>
      <trkpt lat="46.70779" lon="2.72882">
        <ele>208</ele>
        <time>2022-06-22T08:27:56.000Z</time>
      </trkpt>
      <trkpt lat="46.70778" lon="2.72907">
        <ele>206.80000305176</ele>
        <time>2022-06-22T08:27:58.000Z</time>
      </trkpt>
      <trkpt lat="46.70776" lon="2.72945">
        <ele>205.39999389648</ele>
        <time>2022-06-22T08:28:01.000Z</time>
      </trkpt>
      <trkpt lat="46.70774" lon="2.72984">
        <ele>204.39999389648</ele>
        <time>2022-06-22T08:28:04.000Z</time>
      </trkpt>
      <trkpt lat="46.70774" lon="2.72997">
        <ele>204.39999389648</ele>
        <time>2022-06-22T08:28:05.000Z</time>
      </trkpt>
      <trkpt lat="46.70775" lon="2.73035">
        <ele>203.39999389648</ele>
        <time>2022-06-22T08:28:09.000Z</time>
      </trkpt>
      <trkpt lat="46.70777" lon="2.73059">
        <ele>202.39999389648</ele>
        <time>2022-06-22T08:28:10.000Z</time>
      </trkpt>
      <trkpt lat="46.70783" lon="2.73083">
        <ele>201.19999694824</ele>
        <time>2022-06-22T08:28:12.000Z</time>
      </trkpt>
      <trkpt lat="46.70787" lon="2.73094">
        <ele>201.19999694824</ele>
        <time>2022-06-22T08:28:13.000Z</time>
      </trkpt>
      <trkpt lat="46.70796" lon="2.73114">
        <ele>201.80000305176</ele>
        <time>2022-06-22T08:28:15.000Z</time>
      </trkpt>
      <trkpt lat="46.70802" lon="2.73123">
        <ele>202</ele>
        <time>2022-06-22T08:28:16.000Z</time>
      </trkpt>
      <trkpt lat="46.70807" lon="2.73132">
        <ele>202</ele>
        <time>2022-06-22T08:28:17.000Z</time>
      </trkpt>
      <trkpt lat="46.70832" lon="2.73173">
        <ele>202</ele>
        <time>2022-06-22T08:28:22.000Z</time>
      </trkpt>
      <trkpt lat="46.70848" lon="2.73199">
        <ele>200.80000305176</ele>
        <time>2022-06-22T08:28:25.000Z</time>
      </trkpt>
      <trkpt lat="46.70858" lon="2.73214">
        <ele>200.39999389648</ele>
        <time>2022-06-22T08:28:27.000Z</time>
      </trkpt>
      <trkpt lat="46.7088" lon="2.73252">
        <ele>200</ele>
        <time>2022-06-22T08:28:33.000Z</time>
      </trkpt>
      <trkpt lat="46.70893" lon="2.73281">
        <ele>200.80000305176</ele>
        <time>2022-06-22T08:28:36.000Z</time>
      </trkpt>
      <trkpt lat="46.70896" lon="2.73289">
        <ele>201.19999694824</ele>
        <time>2022-06-22T08:28:37.000Z</time>
      </trkpt>
      <trkpt lat="46.70902" lon="2.73315">
        <ele>202.19999694824</ele>
        <time>2022-06-22T08:28:40.000Z</time>
      </trkpt>
      <trkpt lat="46.70903" lon="2.73333">
        <ele>202.80000305176</ele>
        <time>2022-06-22T08:28:42.000Z</time>
      </trkpt>
      <trkpt lat="46.70903" lon="2.73341">
        <ele>203</ele>
        <time>2022-06-22T08:28:43.000Z</time>
      </trkpt>
      <trkpt lat="46.70899" lon="2.73374">
        <ele>202.39999389648</ele>
        <time>2022-06-22T08:28:47.000Z</time>
      </trkpt>
      <trkpt lat="46.70882" lon="2.73422">
        <ele>202.39999389648</ele>
        <time>2022-06-22T08:28:54.000Z</time>
      </trkpt>
      <trkpt lat="46.70875" lon="2.73436">
        <ele>202.60000610352</ele>
        <time>2022-06-22T08:28:57.000Z</time>
      </trkpt>
      <trkpt lat="46.70869" lon="2.73449">
        <ele>203</ele>
        <time>2022-06-22T08:28:58.000Z</time>
      </trkpt>
      <trkpt lat="46.70858" lon="2.73475">
        <ele>203.60000610352</ele>
        <time>2022-06-22T08:29:02.000Z</time>
      </trkpt>
      <trkpt lat="46.70852" lon="2.73487">
        <ele>204</ele>
        <time>2022-06-22T08:29:04.000Z</time>
      </trkpt>
      <trkpt lat="46.70833" lon="2.73523">
        <ele>204.39999389648</ele>
        <time>2022-06-22T08:29:10.000Z</time>
      </trkpt>
      <trkpt lat="46.70826" lon="2.73534">
        <ele>204.39999389648</ele>
        <time>2022-06-22T08:29:12.000Z</time>
      </trkpt>
      <trkpt lat="46.70798" lon="2.73575">
        <ele>205</ele>
        <time>2022-06-22T08:29:20.000Z</time>
      </trkpt>
      <trkpt lat="46.70792" lon="2.73585">
        <ele>204.80000305176</ele>
        <time>2022-06-22T08:29:22.000Z</time>
      </trkpt>
      <trkpt lat="46.70758" lon="2.73636">
        <ele>206.19999694824</ele>
        <time>2022-06-22T08:29:32.000Z</time>
      </trkpt>
      <trkpt lat="46.70727" lon="2.73683">
        <ele>207</ele>
        <time>2022-06-22T08:29:41.000Z</time>
      </trkpt>
      <trkpt lat="46.7071" lon="2.73709">
        <ele>206.80000305176</ele>
        <time>2022-06-22T08:29:46.000Z</time>
      </trkpt>
      <trkpt lat="46.70699" lon="2.73724">
        <ele>207</ele>
        <time>2022-06-22T08:29:49.000Z</time>
      </trkpt>
      <trkpt lat="46.70693" lon="2.73735">
        <ele>207.19999694824</ele>
        <time>2022-06-22T08:29:51.000Z</time>
      </trkpt>
      <trkpt lat="46.70676" lon="2.73761">
        <ele>208</ele>
        <time>2022-06-22T08:29:56.000Z</time>
      </trkpt>
      <trkpt lat="46.70662" lon="2.73782">
        <ele>209.39999389648</ele>
        <time>2022-06-22T08:30:00.000Z</time>
      </trkpt>
      <trkpt lat="46.70645" lon="2.73808">
        <ele>209.19999694824</ele>
        <time>2022-06-22T08:30:06.000Z</time>
      </trkpt>
      <trkpt lat="46.70631" lon="2.73828">
        <ele>209.39999389648</ele>
        <time>2022-06-22T08:30:09.000Z</time>
      </trkpt>
      <trkpt lat="46.70611" lon="2.73859">
        <ele>209.19999694824</ele>
        <time>2022-06-22T08:30:15.000Z</time>
      </trkpt>
      <trkpt lat="46.70591" lon="2.73891">
        <ele>211</ele>
        <time>2022-06-22T08:30:21.000Z</time>
      </trkpt>
      <trkpt lat="46.70578" lon="2.73914">
        <ele>211.39999389648</ele>
        <time>2022-06-22T08:30:25.000Z</time>
      </trkpt>
      <trkpt lat="46.70563" lon="2.73954">
        <ele>212.80000305176</ele>
        <time>2022-06-22T08:30:31.000Z</time>
      </trkpt>
      <trkpt lat="46.70555" lon="2.7399">
        <ele>212</ele>
        <time>2022-06-22T08:30:36.000Z</time>
      </trkpt>
      <trkpt lat="46.70549" lon="2.7402">
        <ele>212.19999694824</ele>
        <time>2022-06-22T08:30:40.000Z</time>
      </trkpt>
      <trkpt lat="46.70546" lon="2.74034">
        <ele>212.19999694824</ele>
        <time>2022-06-22T08:30:42.000Z</time>
      </trkpt>
      <trkpt lat="46.70538" lon="2.74074">
        <ele>211.19999694824</ele>
        <time>2022-06-22T08:30:48.000Z</time>
      </trkpt>
      <trkpt lat="46.70522" lon="2.74151">
        <ele>210.19999694824</ele>
        <time>2022-06-22T08:30:57.000Z</time>
      </trkpt>
      <trkpt lat="46.7052" lon="2.74161">
        <ele>210</ele>
        <time>2022-06-22T08:30:58.000Z</time>
      </trkpt>
      <trkpt lat="46.70504" lon="2.74243">
        <ele>210</ele>
        <time>2022-06-22T08:31:08.000Z</time>
      </trkpt>
      <trkpt lat="46.70502" lon="2.74251">
        <ele>210</ele>
        <time>2022-06-22T08:31:09.000Z</time>
      </trkpt>
      <trkpt lat="46.70486" lon="2.7433">
        <ele>207.60000610352</ele>
        <time>2022-06-22T08:31:18.000Z</time>
      </trkpt>
      <trkpt lat="46.70483" lon="2.74346">
        <ele>207</ele>
        <time>2022-06-22T08:31:20.000Z</time>
      </trkpt>
      <trkpt lat="46.70468" lon="2.74425">
        <ele>206</ele>
        <time>2022-06-22T08:31:29.000Z</time>
      </trkpt>
      <trkpt lat="46.70457" lon="2.74479">
        <ele>206</ele>
        <time>2022-06-22T08:31:35.000Z</time>
      </trkpt>
      <trkpt lat="46.70453" lon="2.74498">
        <ele>205.80000305176</ele>
        <time>2022-06-22T08:31:37.000Z</time>
      </trkpt>
      <trkpt lat="46.70436" lon="2.74579">
        <ele>204.39999389648</ele>
        <time>2022-06-22T08:31:46.000Z</time>
      </trkpt>
      <trkpt lat="46.70426" lon="2.74632">
        <ele>205</ele>
        <time>2022-06-22T08:31:52.000Z</time>
      </trkpt>
      <trkpt lat="46.70419" lon="2.74666">
        <ele>205.19999694824</ele>
        <time>2022-06-22T08:31:56.000Z</time>
      </trkpt>
      <trkpt lat="46.70402" lon="2.7475">
        <ele>204.80000305176</ele>
        <time>2022-06-22T08:32:06.000Z</time>
      </trkpt>
      <trkpt lat="46.70399" lon="2.74765">
        <ele>204.80000305176</ele>
        <time>2022-06-22T08:32:08.000Z</time>
      </trkpt>
      <trkpt lat="46.70383" lon="2.74841">
        <ele>204.80000305176</ele>
        <time>2022-06-22T08:32:17.000Z</time>
      </trkpt>
      <trkpt lat="46.70375" lon="2.74882">
        <ele>205.39999389648</ele>
        <time>2022-06-22T08:32:22.000Z</time>
      </trkpt>
      <trkpt lat="46.70358" lon="2.74963">
        <ele>206</ele>
        <time>2022-06-22T08:32:32.000Z</time>
      </trkpt>
      <trkpt lat="46.70354" lon="2.74987">
        <ele>206.19999694824</ele>
        <time>2022-06-22T08:32:35.000Z</time>
      </trkpt>
      <trkpt lat="46.70338" lon="2.75066">
        <ele>206.19999694824</ele>
        <time>2022-06-22T08:32:45.000Z</time>
      </trkpt>
      <trkpt lat="46.70336" lon="2.75072">
        <ele>206.19999694824</ele>
        <time>2022-06-22T08:32:46.000Z</time>
      </trkpt>
      <trkpt lat="46.7032" lon="2.75153">
        <ele>207.39999389648</ele>
        <time>2022-06-22T08:32:56.000Z</time>
      </trkpt>
      <trkpt lat="46.70319" lon="2.75161">
        <ele>207.39999389648</ele>
        <time>2022-06-22T08:32:57.000Z</time>
      </trkpt>
      <trkpt lat="46.70304" lon="2.75241">
        <ele>205.60000610352</ele>
        <time>2022-06-22T08:33:07.000Z</time>
      </trkpt>
      <trkpt lat="46.703" lon="2.75257">
        <ele>205</ele>
        <time>2022-06-22T08:33:09.000Z</time>
      </trkpt>
      <trkpt lat="46.70289" lon="2.75311">
        <ele>205</ele>
        <time>2022-06-22T08:33:16.000Z</time>
      </trkpt>
      <trkpt lat="46.70286" lon="2.75328">
        <ele>205.39999389648</ele>
        <time>2022-06-22T08:33:18.000Z</time>
      </trkpt>
      <trkpt lat="46.7027" lon="2.75404">
        <ele>207.39999389648</ele>
        <time>2022-06-22T08:33:28.000Z</time>
      </trkpt>
      <trkpt lat="46.70268" lon="2.7541">
        <ele>207.60000610352</ele>
        <time>2022-06-22T08:33:29.000Z</time>
      </trkpt>
      <trkpt lat="46.70252" lon="2.75486">
        <ele>211.39999389648</ele>
        <time>2022-06-22T08:33:39.000Z</time>
      </trkpt>
      <trkpt lat="46.7024" lon="2.75541">
        <ele>213.60000610352</ele>
        <time>2022-06-22T08:33:47.000Z</time>
      </trkpt>
      <trkpt lat="46.70239" lon="2.75548">
        <ele>214</ele>
        <time>2022-06-22T08:33:48.000Z</time>
      </trkpt>
      <trkpt lat="46.70238" lon="2.75556">
        <ele>214.39999389648</ele>
        <time>2022-06-22T08:33:49.000Z</time>
      </trkpt>
      <trkpt lat="46.70228" lon="2.75605">
        <ele>216</ele>
        <time>2022-06-22T08:33:56.000Z</time>
      </trkpt>
      <trkpt lat="46.70223" lon="2.75633">
        <ele>216.19999694824</ele>
        <time>2022-06-22T08:34:00.000Z</time>
      </trkpt>
      <trkpt lat="46.70219" lon="2.75655">
        <ele>216</ele>
        <time>2022-06-22T08:34:03.000Z</time>
      </trkpt>
      <trkpt lat="46.70205" lon="2.75721">
        <ele>213.19999694824</ele>
        <time>2022-06-22T08:34:12.000Z</time>
      </trkpt>
      <trkpt lat="46.70195" lon="2.75771">
        <ele>211</ele>
        <time>2022-06-22T08:34:18.000Z</time>
      </trkpt>
      <trkpt lat="46.70185" lon="2.75814">
        <ele>210</ele>
        <time>2022-06-22T08:34:23.000Z</time>
      </trkpt>
      <trkpt lat="46.7018" lon="2.75841">
        <ele>209</ele>
        <time>2022-06-22T08:34:26.000Z</time>
      </trkpt>
      <trkpt lat="46.70165" lon="2.75917">
        <ele>207.19999694824</ele>
        <time>2022-06-22T08:34:35.000Z</time>
      </trkpt>
      <trkpt lat="46.70149" lon="2.75996">
        <ele>208.80000305176</ele>
        <time>2022-06-22T08:34:44.000Z</time>
      </trkpt>
      <trkpt lat="46.70146" lon="2.76013">
        <ele>209</ele>
        <time>2022-06-22T08:34:46.000Z</time>
      </trkpt>
      <trkpt lat="46.70131" lon="2.76086">
        <ele>209</ele>
        <time>2022-06-22T08:34:55.000Z</time>
      </trkpt>
      <trkpt lat="46.70124" lon="2.76121">
        <ele>209</ele>
        <time>2022-06-22T08:34:58.000Z</time>
      </trkpt>
      <trkpt lat="46.70112" lon="2.76172">
        <ele>210</ele>
        <time>2022-06-22T08:35:04.000Z</time>
      </trkpt>
      <trkpt lat="46.70101" lon="2.7625">
        <ele>209.19999694824</ele>
        <time>2022-06-22T08:35:13.000Z</time>
      </trkpt>
      <trkpt lat="46.70108" lon="2.76314">
        <ele>208.39999389648</ele>
        <time>2022-06-22T08:35:21.000Z</time>
      </trkpt>
      <trkpt lat="46.7013" lon="2.76391">
        <ele>206.60000610352</ele>
        <time>2022-06-22T08:35:31.000Z</time>
      </trkpt>
      <trkpt lat="46.70147" lon="2.76454">
        <ele>208</ele>
        <time>2022-06-22T08:35:39.000Z</time>
      </trkpt>
      <trkpt lat="46.70168" lon="2.76527">
        <ele>208.80000305176</ele>
        <time>2022-06-22T08:35:49.000Z</time>
      </trkpt>
      <trkpt lat="46.7018" lon="2.76568">
        <ele>209.80000305176</ele>
        <time>2022-06-22T08:35:55.000Z</time>
      </trkpt>
      <trkpt lat="46.70184" lon="2.76586">
        <ele>210.39999389648</ele>
        <time>2022-06-22T08:35:58.000Z</time>
      </trkpt>
      <trkpt lat="46.70189" lon="2.76603">
        <ele>210.80000305176</ele>
        <time>2022-06-22T08:36:01.000Z</time>
      </trkpt>
      <trkpt lat="46.70199" lon="2.76632">
        <ele>211.80000305176</ele>
        <time>2022-06-22T08:36:07.000Z</time>
      </trkpt>
      <trkpt lat="46.70206" lon="2.76659">
        <ele>213.19999694824</ele>
        <time>2022-06-22T08:36:12.000Z</time>
      </trkpt>
      <trkpt lat="46.70209" lon="2.76676">
        <ele>214.39999389648</ele>
        <time>2022-06-22T08:36:15.000Z</time>
      </trkpt>
      <trkpt lat="46.70215" lon="2.76698">
        <ele>215.19999694824</ele>
        <time>2022-06-22T08:36:19.000Z</time>
      </trkpt>
      <trkpt lat="46.70221" lon="2.76719">
        <ele>216</ele>
        <time>2022-06-22T08:36:23.000Z</time>
      </trkpt>
      <trkpt lat="46.70225" lon="2.76731">
        <ele>216.39999389648</ele>
        <time>2022-06-22T08:36:25.000Z</time>
      </trkpt>
      <trkpt lat="46.70229" lon="2.76746">
        <ele>216.39999389648</ele>
        <time>2022-06-22T08:36:28.000Z</time>
      </trkpt>
      <trkpt lat="46.70232" lon="2.76758">
        <ele>216.39999389648</ele>
        <time>2022-06-22T08:36:30.000Z</time>
      </trkpt>
      <trkpt lat="46.70236" lon="2.76772">
        <ele>216.80000305176</ele>
        <time>2022-06-22T08:36:33.000Z</time>
      </trkpt>
      <trkpt lat="46.70239" lon="2.76784">
        <ele>217.19999694824</ele>
        <time>2022-06-22T08:36:35.000Z</time>
      </trkpt>
      <trkpt lat="46.70246" lon="2.76811">
        <ele>219</ele>
        <time>2022-06-22T08:36:40.000Z</time>
      </trkpt>
      <trkpt lat="46.70251" lon="2.76827">
        <ele>220</ele>
        <time>2022-06-22T08:36:43.000Z</time>
      </trkpt>
      <trkpt lat="46.70257" lon="2.76848">
        <ele>221.19999694824</ele>
        <time>2022-06-22T08:36:47.000Z</time>
      </trkpt>
      <trkpt lat="46.70262" lon="2.7687">
        <ele>222.19999694824</ele>
        <time>2022-06-22T08:36:51.000Z</time>
      </trkpt>
      <trkpt lat="46.70265" lon="2.76881">
        <ele>222.39999389648</ele>
        <time>2022-06-22T08:36:53.000Z</time>
      </trkpt>
      <trkpt lat="46.70269" lon="2.76897">
        <ele>222.39999389648</ele>
        <time>2022-06-22T08:36:56.000Z</time>
      </trkpt>
      <trkpt lat="46.70277" lon="2.76924">
        <ele>222.80000305176</ele>
        <time>2022-06-22T08:37:01.000Z</time>
      </trkpt>
      <trkpt lat="46.7028" lon="2.76936">
        <ele>222.80000305176</ele>
        <time>2022-06-22T08:37:03.000Z</time>
      </trkpt>
      <trkpt lat="46.70286" lon="2.76959">
        <ele>223.39999389648</ele>
        <time>2022-06-22T08:37:07.000Z</time>
      </trkpt>
      <trkpt lat="46.70288" lon="2.76972">
        <ele>224</ele>
        <time>2022-06-22T08:37:09.000Z</time>
      </trkpt>
      <trkpt lat="46.70292" lon="2.76998">
        <ele>224.60000610352</ele>
        <time>2022-06-22T08:37:13.000Z</time>
      </trkpt>
      <trkpt lat="46.70293" lon="2.77027">
        <ele>224.60000610352</ele>
        <time>2022-06-22T08:37:17.000Z</time>
      </trkpt>
      <trkpt lat="46.70287" lon="2.77072">
        <ele>224.19999694824</ele>
        <time>2022-06-22T08:37:23.000Z</time>
      </trkpt>
      <trkpt lat="46.70286" lon="2.77078">
        <ele>224</ele>
        <time>2022-06-22T08:37:24.000Z</time>
      </trkpt>
      <trkpt lat="46.7027" lon="2.77142">
        <ele>223.39999389648</ele>
        <time>2022-06-22T08:37:34.000Z</time>
      </trkpt>
      <trkpt lat="46.70261" lon="2.77174">
        <ele>223.19999694824</ele>
        <time>2022-06-22T08:37:41.000Z</time>
      </trkpt>
      <trkpt lat="46.70256" lon="2.77183">
        <ele>223</ele>
        <time>2022-06-22T08:37:46.000Z</time>
      </trkpt>
      <trkpt lat="46.70256" lon="2.77183">
        <ele>223</ele>
        <time>2022-06-22T08:37:52.000Z</time>
      </trkpt>
      <trkpt lat="46.70256" lon="2.77184">
        <ele>223</ele>
        <time>2022-06-22T08:38:00.000Z</time>
      </trkpt>
      <trkpt lat="46.70256" lon="2.77184">
        <ele>223</ele>
        <time>2022-06-22T08:38:03.000Z</time>
      </trkpt>
      <trkpt lat="46.70256" lon="2.77184">
        <ele>223</ele>
        <time>2022-06-22T08:38:07.000Z</time>
      </trkpt>
      <trkpt lat="46.70256" lon="2.77184">
        <ele>223</ele>
        <time>2022-06-22T08:38:37.000Z</time>
      </trkpt>
      <trkpt lat="46.70256" lon="2.77184">
        <ele>223</ele>
        <time>2022-06-22T08:39:03.000Z</time>
      </trkpt>
      <trkpt lat="46.70256" lon="2.77184">
        <ele>223</ele>
        <time>2022-06-22T08:39:26.000Z</time>
      </trkpt>
      <trkpt lat="46.70257" lon="2.77185">
        <ele>223</ele>
        <time>2022-06-22T08:39:48.000Z</time>
      </trkpt>
      <trkpt lat="46.70255" lon="2.77197">
        <ele>223</ele>
        <time>2022-06-22T08:40:11.000Z</time>
      </trkpt>
      <trkpt lat="46.70252" lon="2.77206">
        <ele>223.19999694824</ele>
        <time>2022-06-22T08:40:13.000Z</time>
      </trkpt>
      <trkpt lat="46.70248" lon="2.77224">
        <ele>223.80000305176</ele>
        <time>2022-06-22T08:40:16.000Z</time>
      </trkpt>
      <trkpt lat="46.70246" lon="2.77238">
        <ele>223.60000610352</ele>
        <time>2022-06-22T08:40:18.000Z</time>
      </trkpt>
      <trkpt lat="46.70238" lon="2.77264">
        <ele>223.60000610352</ele>
        <time>2022-06-22T08:40:22.000Z</time>
      </trkpt>
      <trkpt lat="46.70227" lon="2.77304">
        <ele>225.39999389648</ele>
        <time>2022-06-22T08:40:28.000Z</time>
      </trkpt>
      <trkpt lat="46.70215" lon="2.77352">
        <ele>225.60000610352</ele>
        <time>2022-06-22T08:40:35.000Z</time>
      </trkpt>
      <trkpt lat="46.7021" lon="2.77371">
        <ele>225.39999389648</ele>
        <time>2022-06-22T08:40:38.000Z</time>
      </trkpt>
      <trkpt lat="46.70201" lon="2.77404">
        <ele>225</ele>
        <time>2022-06-22T08:40:43.000Z</time>
      </trkpt>
      <trkpt lat="46.70191" lon="2.77438">
        <ele>225.19999694824</ele>
        <time>2022-06-22T08:40:48.000Z</time>
      </trkpt>
      <trkpt lat="46.70186" lon="2.77459">
        <ele>225.80000305176</ele>
        <time>2022-06-22T08:40:51.000Z</time>
      </trkpt>
      <trkpt lat="46.70174" lon="2.77502">
        <ele>227.60000610352</ele>
        <time>2022-06-22T08:40:57.000Z</time>
      </trkpt>
      <trkpt lat="46.70155" lon="2.7757">
        <ele>232.39999389648</ele>
        <time>2022-06-22T08:41:06.000Z</time>
      </trkpt>
      <trkpt lat="46.70146" lon="2.77633">
        <ele>230.60000610352</ele>
        <time>2022-06-22T08:41:14.000Z</time>
      </trkpt>
      <trkpt lat="46.70145" lon="2.77704">
        <ele>229</ele>
        <time>2022-06-22T08:41:23.000Z</time>
      </trkpt>
      <trkpt lat="46.70144" lon="2.77758">
        <ele>230</ele>
        <time>2022-06-22T08:41:30.000Z</time>
      </trkpt>
      <trkpt lat="46.70144" lon="2.77773">
        <ele>230</ele>
        <time>2022-06-22T08:41:32.000Z</time>
      </trkpt>
      <trkpt lat="46.70143" lon="2.77833">
        <ele>230</ele>
        <time>2022-06-22T08:41:40.000Z</time>
      </trkpt>
      <trkpt lat="46.70143" lon="2.77848">
        <ele>230</ele>
        <time>2022-06-22T08:41:42.000Z</time>
      </trkpt>
      <trkpt lat="46.7014" lon="2.77908">
        <ele>230</ele>
        <time>2022-06-22T08:41:50.000Z</time>
      </trkpt>
      <trkpt lat="46.7014" lon="2.77931">
        <ele>230.39999389648</ele>
        <time>2022-06-22T08:41:53.000Z</time>
      </trkpt>
      <trkpt lat="46.70138" lon="2.78002">
        <ele>231</ele>
        <time>2022-06-22T08:42:02.000Z</time>
      </trkpt>
      <trkpt lat="46.70137" lon="2.78083">
        <ele>231.19999694824</ele>
        <time>2022-06-22T08:42:12.000Z</time>
      </trkpt>
      <trkpt lat="46.70137" lon="2.78092">
        <ele>231.19999694824</ele>
        <time>2022-06-22T08:42:13.000Z</time>
      </trkpt>
      <trkpt lat="46.70135" lon="2.78178">
        <ele>229.60000610352</ele>
        <time>2022-06-22T08:42:23.000Z</time>
      </trkpt>
      <trkpt lat="46.70133" lon="2.78258">
        <ele>230</ele>
        <time>2022-06-22T08:42:32.000Z</time>
      </trkpt>
      <trkpt lat="46.70132" lon="2.78285">
        <ele>231</ele>
        <time>2022-06-22T08:42:35.000Z</time>
      </trkpt>
      <trkpt lat="46.7013" lon="2.78367">
        <ele>229.60000610352</ele>
        <time>2022-06-22T08:42:44.000Z</time>
      </trkpt>
      <trkpt lat="46.7013" lon="2.78394">
        <ele>228.60000610352</ele>
        <time>2022-06-22T08:42:47.000Z</time>
      </trkpt>
      <trkpt lat="46.70128" lon="2.78475">
        <ele>228.19999694824</ele>
        <time>2022-06-22T08:42:56.000Z</time>
      </trkpt>
      <trkpt lat="46.70127" lon="2.78531">
        <ele>228.19999694824</ele>
        <time>2022-06-22T08:43:03.000Z</time>
      </trkpt>
      <trkpt lat="46.70126" lon="2.78546">
        <ele>228.39999389648</ele>
        <time>2022-06-22T08:43:05.000Z</time>
      </trkpt>
      <trkpt lat="46.70125" lon="2.78596">
        <ele>229.80000305176</ele>
        <time>2022-06-22T08:43:12.000Z</time>
      </trkpt>
      <trkpt lat="46.70124" lon="2.78616">
        <ele>230.39999389648</ele>
        <time>2022-06-22T08:43:15.000Z</time>
      </trkpt>
      <trkpt lat="46.70123" lon="2.78657">
        <ele>231.80000305176</ele>
        <time>2022-06-22T08:43:21.000Z</time>
      </trkpt>
      <trkpt lat="46.70123" lon="2.78665">
        <ele>232</ele>
        <time>2022-06-22T08:43:22.000Z</time>
      </trkpt>
      <trkpt lat="46.70122" lon="2.78702">
        <ele>234</ele>
        <time>2022-06-22T08:43:27.000Z</time>
      </trkpt>
      <trkpt lat="46.70121" lon="2.78737">
        <ele>235</ele>
        <time>2022-06-22T08:43:32.000Z</time>
      </trkpt>
      <trkpt lat="46.70121" lon="2.78751">
        <ele>235</ele>
        <time>2022-06-22T08:43:34.000Z</time>
      </trkpt>
      <trkpt lat="46.7012" lon="2.78786">
        <ele>236</ele>
        <time>2022-06-22T08:43:39.000Z</time>
      </trkpt>
      <trkpt lat="46.70119" lon="2.78808">
        <ele>236</ele>
        <time>2022-06-22T08:43:42.000Z</time>
      </trkpt>
      <trkpt lat="46.70119" lon="2.78882">
        <ele>236</ele>
        <time>2022-06-22T08:43:52.000Z</time>
      </trkpt>
      <trkpt lat="46.70126" lon="2.78953">
        <ele>236.39999389648</ele>
        <time>2022-06-22T08:44:01.000Z</time>
      </trkpt>
      <trkpt lat="46.7013" lon="2.78977">
        <ele>236.39999389648</ele>
        <time>2022-06-22T08:44:04.000Z</time>
      </trkpt>
      <trkpt lat="46.7014" lon="2.79016">
        <ele>236</ele>
        <time>2022-06-22T08:44:09.000Z</time>
      </trkpt>
      <trkpt lat="46.70161" lon="2.79097">
        <ele>236.39999389648</ele>
        <time>2022-06-22T08:44:19.000Z</time>
      </trkpt>
      <trkpt lat="46.70173" lon="2.79147">
        <ele>236</ele>
        <time>2022-06-22T08:44:25.000Z</time>
      </trkpt>
      <trkpt lat="46.70192" lon="2.79223">
        <ele>236.39999389648</ele>
        <time>2022-06-22T08:44:34.000Z</time>
      </trkpt>
      <trkpt lat="46.70208" lon="2.79288">
        <ele>236.39999389648</ele>
        <time>2022-06-22T08:44:42.000Z</time>
      </trkpt>
      <trkpt lat="46.70223" lon="2.79346">
        <ele>235.60000610352</ele>
        <time>2022-06-22T08:44:49.000Z</time>
      </trkpt>
      <trkpt lat="46.70225" lon="2.79354">
        <ele>235.19999694824</ele>
        <time>2022-06-22T08:44:50.000Z</time>
      </trkpt>
      <trkpt lat="46.7023" lon="2.7937">
        <ele>235</ele>
        <time>2022-06-22T08:44:52.000Z</time>
      </trkpt>
      <trkpt lat="46.70249" lon="2.79444">
        <ele>234.80000305176</ele>
        <time>2022-06-22T08:45:01.000Z</time>
      </trkpt>
      <trkpt lat="46.70251" lon="2.79453">
        <ele>235</ele>
        <time>2022-06-22T08:45:02.000Z</time>
      </trkpt>
      <trkpt lat="46.70263" lon="2.79501">
        <ele>235.80000305176</ele>
        <time>2022-06-22T08:45:08.000Z</time>
      </trkpt>
      <trkpt lat="46.70283" lon="2.79581">
        <ele>235</ele>
        <time>2022-06-22T08:45:18.000Z</time>
      </trkpt>
      <trkpt lat="46.70285" lon="2.79589">
        <ele>235</ele>
        <time>2022-06-22T08:45:19.000Z</time>
      </trkpt>
      <trkpt lat="46.70301" lon="2.79653">
        <ele>235.80000305176</ele>
        <time>2022-06-22T08:45:27.000Z</time>
      </trkpt>
      <trkpt lat="46.70316" lon="2.7971">
        <ele>235.80000305176</ele>
        <time>2022-06-22T08:45:34.000Z</time>
      </trkpt>
      <trkpt lat="46.70318" lon="2.79718">
        <ele>235.80000305176</ele>
        <time>2022-06-22T08:45:35.000Z</time>
      </trkpt>
      <trkpt lat="46.70338" lon="2.798">
        <ele>234</ele>
        <time>2022-06-22T08:45:45.000Z</time>
      </trkpt>
      <trkpt lat="46.70358" lon="2.79877">
        <ele>234</ele>
        <time>2022-06-22T08:45:54.000Z</time>
      </trkpt>
      <trkpt lat="46.7036" lon="2.79886">
        <ele>234</ele>
        <time>2022-06-22T08:45:55.000Z</time>
      </trkpt>
      <trkpt lat="46.70365" lon="2.79903">
        <ele>234</ele>
        <time>2022-06-22T08:45:57.000Z</time>
      </trkpt>
      <trkpt lat="46.70378" lon="2.79955">
        <ele>233.60000610352</ele>
        <time>2022-06-22T08:46:03.000Z</time>
      </trkpt>
      <trkpt lat="46.70393" lon="2.80015">
        <ele>233.39999389648</ele>
        <time>2022-06-22T08:46:10.000Z</time>
      </trkpt>
      <trkpt lat="46.70399" lon="2.80041">
        <ele>234.19999694824</ele>
        <time>2022-06-22T08:46:13.000Z</time>
      </trkpt>
      <trkpt lat="46.70404" lon="2.80058">
        <ele>234.39999389648</ele>
        <time>2022-06-22T08:46:15.000Z</time>
      </trkpt>
      <trkpt lat="46.70423" lon="2.80135">
        <ele>236</ele>
        <time>2022-06-22T08:46:24.000Z</time>
      </trkpt>
      <trkpt lat="46.70429" lon="2.80159">
        <ele>235.80000305176</ele>
        <time>2022-06-22T08:46:27.000Z</time>
      </trkpt>
      <trkpt lat="46.70445" lon="2.80221">
        <ele>235.19999694824</ele>
        <time>2022-06-22T08:46:35.000Z</time>
      </trkpt>
      <trkpt lat="46.70465" lon="2.80297">
        <ele>236</ele>
        <time>2022-06-22T08:46:45.000Z</time>
      </trkpt>
      <trkpt lat="46.70467" lon="2.80304">
        <ele>236</ele>
        <time>2022-06-22T08:46:46.000Z</time>
      </trkpt>
      <trkpt lat="46.70486" lon="2.80381">
        <ele>235.80000305176</ele>
        <time>2022-06-22T08:46:56.000Z</time>
      </trkpt>
      <trkpt lat="46.70505" lon="2.80457">
        <ele>235.19999694824</ele>
        <time>2022-06-22T08:47:06.000Z</time>
      </trkpt>
      <trkpt lat="46.70508" lon="2.80472">
        <ele>235.39999389648</ele>
        <time>2022-06-22T08:47:08.000Z</time>
      </trkpt>
      <trkpt lat="46.70524" lon="2.8053">
        <ele>237</ele>
        <time>2022-06-22T08:47:15.000Z</time>
      </trkpt>
      <trkpt lat="46.70537" lon="2.80588">
        <ele>237.80000305176</ele>
        <time>2022-06-22T08:47:22.000Z</time>
      </trkpt>
      <trkpt lat="46.70555" lon="2.80659">
        <ele>236.60000610352</ele>
        <time>2022-06-22T08:47:31.000Z</time>
      </trkpt>
      <trkpt lat="46.70574" lon="2.80733">
        <ele>237</ele>
        <time>2022-06-22T08:47:40.000Z</time>
      </trkpt>
      <trkpt lat="46.70578" lon="2.80749">
        <ele>237</ele>
        <time>2022-06-22T08:47:42.000Z</time>
      </trkpt>
      <trkpt lat="46.70601" lon="2.80824">
        <ele>234.39999389648</ele>
        <time>2022-06-22T08:47:51.000Z</time>
      </trkpt>
      <trkpt lat="46.70637" lon="2.80889">
        <ele>232.80000305176</ele>
        <time>2022-06-22T08:48:00.000Z</time>
      </trkpt>
      <trkpt lat="46.70641" lon="2.80896">
        <ele>232.80000305176</ele>
        <time>2022-06-22T08:48:01.000Z</time>
      </trkpt>
      <trkpt lat="46.70678" lon="2.80957">
        <ele>234.80000305176</ele>
        <time>2022-06-22T08:48:10.000Z</time>
      </trkpt>
      <trkpt lat="46.70682" lon="2.80964">
        <ele>234.60000610352</ele>
        <time>2022-06-22T08:48:11.000Z</time>
      </trkpt>
      <trkpt lat="46.70714" lon="2.81018">
        <ele>234</ele>
        <time>2022-06-22T08:48:19.000Z</time>
      </trkpt>
      <trkpt lat="46.70718" lon="2.81025">
        <ele>234</ele>
        <time>2022-06-22T08:48:20.000Z</time>
      </trkpt>
      <trkpt lat="46.70726" lon="2.81037">
        <ele>234</ele>
        <time>2022-06-22T08:48:22.000Z</time>
      </trkpt>
      <trkpt lat="46.70741" lon="2.81062">
        <ele>235</ele>
        <time>2022-06-22T08:48:26.000Z</time>
      </trkpt>
      <trkpt lat="46.70768" lon="2.81107">
        <ele>234.39999389648</ele>
        <time>2022-06-22T08:48:33.000Z</time>
      </trkpt>
      <trkpt lat="46.70777" lon="2.8112">
        <ele>234</ele>
        <time>2022-06-22T08:48:35.000Z</time>
      </trkpt>
      <trkpt lat="46.70813" lon="2.8118">
        <ele>234</ele>
        <time>2022-06-22T08:48:44.000Z</time>
      </trkpt>
      <trkpt lat="46.70817" lon="2.81186">
        <ele>233.80000305176</ele>
        <time>2022-06-22T08:48:45.000Z</time>
      </trkpt>
      <trkpt lat="46.70825" lon="2.812">
        <ele>233.60000610352</ele>
        <time>2022-06-22T08:48:47.000Z</time>
      </trkpt>
      <trkpt lat="46.70849" lon="2.81241">
        <ele>233</ele>
        <time>2022-06-22T08:48:53.000Z</time>
      </trkpt>
      <trkpt lat="46.70865" lon="2.81268">
        <ele>233</ele>
        <time>2022-06-22T08:48:57.000Z</time>
      </trkpt>
      <trkpt lat="46.70869" lon="2.81275">
        <ele>233</ele>
        <time>2022-06-22T08:48:58.000Z</time>
      </trkpt>
      <trkpt lat="46.70873" lon="2.81281">
        <ele>232.80000305176</ele>
        <time>2022-06-22T08:48:59.000Z</time>
      </trkpt>
      <trkpt lat="46.70877" lon="2.81288">
        <ele>232.60000610352</ele>
        <time>2022-06-22T08:49:00.000Z</time>
      </trkpt>
      <trkpt lat="46.70914" lon="2.81335">
        <ele>231.39999389648</ele>
        <time>2022-06-22T08:49:08.000Z</time>
      </trkpt>
      <trkpt lat="46.70939" lon="2.81364">
        <ele>231.19999694824</ele>
        <time>2022-06-22T08:49:13.000Z</time>
      </trkpt>
      <trkpt lat="46.70965" lon="2.81394">
        <ele>230</ele>
        <time>2022-06-22T08:49:18.000Z</time>
      </trkpt>
      <trkpt lat="46.70986" lon="2.81417">
        <ele>228.80000305176</ele>
        <time>2022-06-22T08:49:22.000Z</time>
      </trkpt>
      <trkpt lat="46.70992" lon="2.81423">
        <ele>228.60000610352</ele>
        <time>2022-06-22T08:49:23.000Z</time>
      </trkpt>
      <trkpt lat="46.71008" lon="2.81442">
        <ele>228</ele>
        <time>2022-06-22T08:49:26.000Z</time>
      </trkpt>
      <trkpt lat="46.71022" lon="2.8146">
        <ele>228</ele>
        <time>2022-06-22T08:49:29.000Z</time>
      </trkpt>
      <trkpt lat="46.71031" lon="2.81473">
        <ele>228</ele>
        <time>2022-06-22T08:49:31.000Z</time>
      </trkpt>
      <trkpt lat="46.71044" lon="2.81493">
        <ele>228.39999389648</ele>
        <time>2022-06-22T08:49:34.000Z</time>
      </trkpt>
      <trkpt lat="46.71062" lon="2.81518">
        <ele>229.39999389648</ele>
        <time>2022-06-22T08:49:38.000Z</time>
      </trkpt>
      <trkpt lat="46.71089" lon="2.81557">
        <ele>228.39999389648</ele>
        <time>2022-06-22T08:49:44.000Z</time>
      </trkpt>
      <trkpt lat="46.71102" lon="2.81575">
        <ele>227.60000610352</ele>
        <time>2022-06-22T08:49:47.000Z</time>
      </trkpt>
      <trkpt lat="46.71111" lon="2.81588">
        <ele>227.19999694824</ele>
        <time>2022-06-22T08:49:49.000Z</time>
      </trkpt>
      <trkpt lat="46.7112" lon="2.81601">
        <ele>226.60000610352</ele>
        <time>2022-06-22T08:49:51.000Z</time>
      </trkpt>
      <trkpt lat="46.71125" lon="2.81608">
        <ele>226.39999389648</ele>
        <time>2022-06-22T08:49:52.000Z</time>
      </trkpt>
      <trkpt lat="46.71147" lon="2.81645">
        <ele>226.80000305176</ele>
        <time>2022-06-22T08:49:57.000Z</time>
      </trkpt>
      <trkpt lat="46.71156" lon="2.8166">
        <ele>226.60000610352</ele>
        <time>2022-06-22T08:49:59.000Z</time>
      </trkpt>
      <trkpt lat="46.7117" lon="2.81681">
        <ele>226</ele>
        <time>2022-06-22T08:50:02.000Z</time>
      </trkpt>
      <trkpt lat="46.71188" lon="2.81708">
        <ele>225.39999389648</ele>
        <time>2022-06-22T08:50:06.000Z</time>
      </trkpt>
      <trkpt lat="46.71206" lon="2.8173">
        <ele>225</ele>
        <time>2022-06-22T08:50:10.000Z</time>
      </trkpt>
      <trkpt lat="46.71218" lon="2.81746">
        <ele>224.39999389648</ele>
        <time>2022-06-22T08:50:13.000Z</time>
      </trkpt>
      <trkpt lat="46.71221" lon="2.81752">
        <ele>224.19999694824</ele>
        <time>2022-06-22T08:50:14.000Z</time>
      </trkpt>
      <trkpt lat="46.71226" lon="2.81757">
        <ele>224</ele>
        <time>2022-06-22T08:50:16.000Z</time>
      </trkpt>
      <trkpt lat="46.71244" lon="2.81761">
        <ele>224</ele>
        <time>2022-06-22T08:50:21.000Z</time>
      </trkpt>
      <trkpt lat="46.71248" lon="2.81762">
        <ele>224</ele>
        <time>2022-06-22T08:50:22.000Z</time>
      </trkpt>
      <trkpt lat="46.71257" lon="2.81768">
        <ele>224</ele>
        <time>2022-06-22T08:50:24.000Z</time>
      </trkpt>
      <trkpt lat="46.7126" lon="2.81773">
        <ele>223.80000305176</ele>
        <time>2022-06-22T08:50:25.000Z</time>
      </trkpt>
      <trkpt lat="46.71262" lon="2.8178">
        <ele>223.80000305176</ele>
        <time>2022-06-22T08:50:26.000Z</time>
      </trkpt>
      <trkpt lat="46.71264" lon="2.81787">
        <ele>223.60000610352</ele>
        <time>2022-06-22T08:50:27.000Z</time>
      </trkpt>
      <trkpt lat="46.71272" lon="2.81809">
        <ele>222.60000610352</ele>
        <time>2022-06-22T08:50:30.000Z</time>
      </trkpt>
      <trkpt lat="46.71276" lon="2.81826">
        <ele>222.19999694824</ele>
        <time>2022-06-22T08:50:32.000Z</time>
      </trkpt>
      <trkpt lat="46.71279" lon="2.81835">
        <ele>222.19999694824</ele>
        <time>2022-06-22T08:50:33.000Z</time>
      </trkpt>
      <trkpt lat="46.7129" lon="2.81869">
        <ele>220.80000305176</ele>
        <time>2022-06-22T08:50:37.000Z</time>
      </trkpt>
      <trkpt lat="46.71297" lon="2.81886">
        <ele>219.39999389648</ele>
        <time>2022-06-22T08:50:39.000Z</time>
      </trkpt>
      <trkpt lat="46.71309" lon="2.81924">
        <ele>217.19999694824</ele>
        <time>2022-06-22T08:50:43.000Z</time>
      </trkpt>
      <trkpt lat="46.71322" lon="2.81964">
        <ele>215.19999694824</ele>
        <time>2022-06-22T08:50:47.000Z</time>
      </trkpt>
      <trkpt lat="46.71336" lon="2.82005">
        <ele>214</ele>
        <time>2022-06-22T08:50:51.000Z</time>
      </trkpt>
      <trkpt lat="46.71349" lon="2.82044">
        <ele>216.60000610352</ele>
        <time>2022-06-22T08:50:55.000Z</time>
      </trkpt>
      <trkpt lat="46.71367" lon="2.82099">
        <ele>217.80000305176</ele>
        <time>2022-06-22T08:51:01.000Z</time>
      </trkpt>
      <trkpt lat="46.7137" lon="2.82108">
        <ele>217.19999694824</ele>
        <time>2022-06-22T08:51:02.000Z</time>
      </trkpt>
      <trkpt lat="46.71391" lon="2.82167">
        <ele>212.60000610352</ele>
        <time>2022-06-22T08:51:09.000Z</time>
      </trkpt>
      <trkpt lat="46.71411" lon="2.82229">
        <ele>213</ele>
        <time>2022-06-22T08:51:17.000Z</time>
      </trkpt>
      <trkpt lat="46.71416" lon="2.82244">
        <ele>214.39999389648</ele>
        <time>2022-06-22T08:51:19.000Z</time>
      </trkpt>
      <trkpt lat="46.71431" lon="2.82289">
        <ele>217.19999694824</ele>
        <time>2022-06-22T08:51:25.000Z</time>
      </trkpt>
      <trkpt lat="46.71438" lon="2.8231">
        <ele>218.39999389648</ele>
        <time>2022-06-22T08:51:28.000Z</time>
      </trkpt>
      <trkpt lat="46.71447" lon="2.82337">
        <ele>218.80000305176</ele>
        <time>2022-06-22T08:51:32.000Z</time>
      </trkpt>
      <trkpt lat="46.71459" lon="2.82369">
        <ele>220</ele>
        <time>2022-06-22T08:51:37.000Z</time>
      </trkpt>
      <trkpt lat="46.71464" lon="2.8238">
        <ele>220</ele>
        <time>2022-06-22T08:51:39.000Z</time>
      </trkpt>
      <trkpt lat="46.71474" lon="2.82405">
        <ele>220</ele>
        <time>2022-06-22T08:51:43.000Z</time>
      </trkpt>
      <trkpt lat="46.71496" lon="2.82457">
        <ele>219.19999694824</ele>
        <time>2022-06-22T08:51:51.000Z</time>
      </trkpt>
      <trkpt lat="46.71499" lon="2.82463">
        <ele>219.39999389648</ele>
        <time>2022-06-22T08:51:52.000Z</time>
      </trkpt>
      <trkpt lat="46.71517" lon="2.82506">
        <ele>222.19999694824</ele>
        <time>2022-06-22T08:51:59.000Z</time>
      </trkpt>
      <trkpt lat="46.7152" lon="2.82512">
        <ele>222.60000610352</ele>
        <time>2022-06-22T08:52:00.000Z</time>
      </trkpt>
      <trkpt lat="46.71533" lon="2.82543">
        <ele>224</ele>
        <time>2022-06-22T08:52:05.000Z</time>
      </trkpt>
      <trkpt lat="46.71549" lon="2.8258">
        <ele>224</ele>
        <time>2022-06-22T08:52:11.000Z</time>
      </trkpt>
      <trkpt lat="46.71551" lon="2.82587">
        <ele>223.80000305176</ele>
        <time>2022-06-22T08:52:12.000Z</time>
      </trkpt>
      <trkpt lat="46.71571" lon="2.82631">
        <ele>223</ele>
        <time>2022-06-22T08:52:19.000Z</time>
      </trkpt>
      <trkpt lat="46.716" lon="2.82702">
        <ele>223.60000610352</ele>
        <time>2022-06-22T08:52:30.000Z</time>
      </trkpt>
      <trkpt lat="46.71603" lon="2.82708">
        <ele>223.60000610352</ele>
        <time>2022-06-22T08:52:31.000Z</time>
      </trkpt>
      <trkpt lat="46.71608" lon="2.82722">
        <ele>223.39999389648</ele>
        <time>2022-06-22T08:52:33.000Z</time>
      </trkpt>
      <trkpt lat="46.71634" lon="2.82782">
        <ele>223</ele>
        <time>2022-06-22T08:52:42.000Z</time>
      </trkpt>
      <trkpt lat="46.71663" lon="2.82853">
        <ele>222</ele>
        <time>2022-06-22T08:52:52.000Z</time>
      </trkpt>
      <trkpt lat="46.71685" lon="2.82906">
        <ele>220.80000305176</ele>
        <time>2022-06-22T08:52:59.000Z</time>
      </trkpt>
      <trkpt lat="46.71696" lon="2.82931">
        <ele>220.80000305176</ele>
        <time>2022-06-22T08:53:02.000Z</time>
      </trkpt>
      <trkpt lat="46.71706" lon="2.82956">
        <ele>220</ele>
        <time>2022-06-22T08:53:05.000Z</time>
      </trkpt>
      <trkpt lat="46.71728" lon="2.83009">
        <ele>217</ele>
        <time>2022-06-22T08:53:11.000Z</time>
      </trkpt>
      <trkpt lat="46.71747" lon="2.83054">
        <ele>216.60000610352</ele>
        <time>2022-06-22T08:53:16.000Z</time>
      </trkpt>
      <trkpt lat="46.71762" lon="2.83091">
        <ele>216.80000305176</ele>
        <time>2022-06-22T08:53:20.000Z</time>
      </trkpt>
      <trkpt lat="46.71783" lon="2.83142">
        <ele>216.80000305176</ele>
        <time>2022-06-22T08:53:26.000Z</time>
      </trkpt>
      <trkpt lat="46.71786" lon="2.8315">
        <ele>217</ele>
        <time>2022-06-22T08:53:27.000Z</time>
      </trkpt>
      <trkpt lat="46.71808" lon="2.83202">
        <ele>218</ele>
        <time>2022-06-22T08:53:34.000Z</time>
      </trkpt>
      <trkpt lat="46.71827" lon="2.83244">
        <ele>219.39999389648</ele>
        <time>2022-06-22T08:53:41.000Z</time>
      </trkpt>
      <trkpt lat="46.71831" lon="2.83256">
        <ele>219.80000305176</ele>
        <time>2022-06-22T08:53:43.000Z</time>
      </trkpt>
      <trkpt lat="46.71846" lon="2.83291">
        <ele>221</ele>
        <time>2022-06-22T08:53:49.000Z</time>
      </trkpt>
      <trkpt lat="46.71848" lon="2.83298">
        <ele>221</ele>
        <time>2022-06-22T08:53:50.000Z</time>
      </trkpt>
      <trkpt lat="46.71858" lon="2.83322">
        <ele>221.39999389648</ele>
        <time>2022-06-22T08:53:54.000Z</time>
      </trkpt>
      <trkpt lat="46.7187" lon="2.83351">
        <ele>221.39999389648</ele>
        <time>2022-06-22T08:53:59.000Z</time>
      </trkpt>
      <trkpt lat="46.71873" lon="2.83356">
        <ele>221.60000610352</ele>
        <time>2022-06-22T08:54:00.000Z</time>
      </trkpt>
      <trkpt lat="46.71887" lon="2.83391">
        <ele>223.39999389648</ele>
        <time>2022-06-22T08:54:06.000Z</time>
      </trkpt>
      <trkpt lat="46.71893" lon="2.83402">
        <ele>224</ele>
        <time>2022-06-22T08:54:08.000Z</time>
      </trkpt>
      <trkpt lat="46.71897" lon="2.83414">
        <ele>224.19999694824</ele>
        <time>2022-06-22T08:54:10.000Z</time>
      </trkpt>
      <trkpt lat="46.71905" lon="2.83437">
        <ele>225.19999694824</ele>
        <time>2022-06-22T08:54:14.000Z</time>
      </trkpt>
      <trkpt lat="46.71914" lon="2.83459">
        <ele>226.80000305176</ele>
        <time>2022-06-22T08:54:18.000Z</time>
      </trkpt>
      <trkpt lat="46.71921" lon="2.83476">
        <ele>227.80000305176</ele>
        <time>2022-06-22T08:54:21.000Z</time>
      </trkpt>
      <trkpt lat="46.71926" lon="2.83487">
        <ele>228.19999694824</ele>
        <time>2022-06-22T08:54:23.000Z</time>
      </trkpt>
      <trkpt lat="46.71941" lon="2.83523">
        <ele>229.80000305176</ele>
        <time>2022-06-22T08:54:29.000Z</time>
      </trkpt>
      <trkpt lat="46.71944" lon="2.83529">
        <ele>230.19999694824</ele>
        <time>2022-06-22T08:54:30.000Z</time>
      </trkpt>
      <trkpt lat="46.71962" lon="2.83571">
        <ele>231.39999389648</ele>
        <time>2022-06-22T08:54:37.000Z</time>
      </trkpt>
      <trkpt lat="46.71967" lon="2.83583">
        <ele>231.60000610352</ele>
        <time>2022-06-22T08:54:39.000Z</time>
      </trkpt>
      <trkpt lat="46.71976" lon="2.83609">
        <ele>232</ele>
        <time>2022-06-22T08:54:43.000Z</time>
      </trkpt>
      <trkpt lat="46.71988" lon="2.83647">
        <ele>233.60000610352</ele>
        <time>2022-06-22T08:54:49.000Z</time>
      </trkpt>
      <trkpt lat="46.72" lon="2.83692">
        <ele>236</ele>
        <time>2022-06-22T08:54:56.000Z</time>
      </trkpt>
      <trkpt lat="46.72001" lon="2.83698">
        <ele>236.39999389648</ele>
        <time>2022-06-22T08:54:57.000Z</time>
      </trkpt>
      <trkpt lat="46.72004" lon="2.8371">
        <ele>237.19999694824</ele>
        <time>2022-06-22T08:54:59.000Z</time>
      </trkpt>
      <trkpt lat="46.72008" lon="2.83728">
        <ele>238</ele>
        <time>2022-06-22T08:55:02.000Z</time>
      </trkpt>
      <trkpt lat="46.72009" lon="2.83734">
        <ele>238.19999694824</ele>
        <time>2022-06-22T08:55:03.000Z</time>
      </trkpt>
      <trkpt lat="46.72012" lon="2.83747">
        <ele>238.19999694824</ele>
        <time>2022-06-22T08:55:05.000Z</time>
      </trkpt>
      <trkpt lat="46.72014" lon="2.83759">
        <ele>238.19999694824</ele>
        <time>2022-06-22T08:55:07.000Z</time>
      </trkpt>
      <trkpt lat="46.72016" lon="2.83765">
        <ele>238.39999389648</ele>
        <time>2022-06-22T08:55:08.000Z</time>
      </trkpt>
      <trkpt lat="46.7202" lon="2.83791">
        <ele>239.19999694824</ele>
        <time>2022-06-22T08:55:12.000Z</time>
      </trkpt>
      <trkpt lat="46.72022" lon="2.83803">
        <ele>239.60000610352</ele>
        <time>2022-06-22T08:55:14.000Z</time>
      </trkpt>
      <trkpt lat="46.72026" lon="2.83821">
        <ele>240</ele>
        <time>2022-06-22T08:55:17.000Z</time>
      </trkpt>
      <trkpt lat="46.72032" lon="2.83847">
        <ele>241</ele>
        <time>2022-06-22T08:55:21.000Z</time>
      </trkpt>
      <trkpt lat="46.72039" lon="2.83874">
        <ele>242</ele>
        <time>2022-06-22T08:55:25.000Z</time>
      </trkpt>
      <trkpt lat="46.72044" lon="2.83894">
        <ele>242.39999389648</ele>
        <time>2022-06-22T08:55:28.000Z</time>
      </trkpt>
      <trkpt lat="46.72056" lon="2.8395">
        <ele>242.19999694824</ele>
        <time>2022-06-22T08:55:36.000Z</time>
      </trkpt>
      <trkpt lat="46.72072" lon="2.84022">
        <ele>241.39999389648</ele>
        <time>2022-06-22T08:55:46.000Z</time>
      </trkpt>
      <trkpt lat="46.72075" lon="2.84036">
        <ele>241.39999389648</ele>
        <time>2022-06-22T08:55:48.000Z</time>
      </trkpt>
      <trkpt lat="46.72087" lon="2.84086">
        <ele>242</ele>
        <time>2022-06-22T08:55:55.000Z</time>
      </trkpt>
      <trkpt lat="46.72092" lon="2.84114">
        <ele>242.60000610352</ele>
        <time>2022-06-22T08:55:59.000Z</time>
      </trkpt>
      <trkpt lat="46.72094" lon="2.84121">
        <ele>242.80000305176</ele>
        <time>2022-06-22T08:56:00.000Z</time>
      </trkpt>
      <trkpt lat="46.721" lon="2.84149">
        <ele>242.60000610352</ele>
        <time>2022-06-22T08:56:04.000Z</time>
      </trkpt>
      <trkpt lat="46.72114" lon="2.84208">
        <ele>243.19999694824</ele>
        <time>2022-06-22T08:56:12.000Z</time>
      </trkpt>
      <trkpt lat="46.72119" lon="2.8423">
        <ele>243.80000305176</ele>
        <time>2022-06-22T08:56:15.000Z</time>
      </trkpt>
      <trkpt lat="46.72127" lon="2.84266">
        <ele>244</ele>
        <time>2022-06-22T08:56:20.000Z</time>
      </trkpt>
      <trkpt lat="46.72141" lon="2.8433">
        <ele>244.60000610352</ele>
        <time>2022-06-22T08:56:29.000Z</time>
      </trkpt>
      <trkpt lat="46.72156" lon="2.84395">
        <ele>244.19999694824</ele>
        <time>2022-06-22T08:56:38.000Z</time>
      </trkpt>
      <trkpt lat="46.72167" lon="2.84438">
        <ele>243.19999694824</ele>
        <time>2022-06-22T08:56:44.000Z</time>
      </trkpt>
      <trkpt lat="46.7217" lon="2.84453">
        <ele>243</ele>
        <time>2022-06-22T08:56:46.000Z</time>
      </trkpt>
      <trkpt lat="46.72185" lon="2.84518">
        <ele>243.39999389648</ele>
        <time>2022-06-22T08:56:55.000Z</time>
      </trkpt>
      <trkpt lat="46.72195" lon="2.84569">
        <ele>245</ele>
        <time>2022-06-22T08:57:02.000Z</time>
      </trkpt>
      <trkpt lat="46.72201" lon="2.84599">
        <ele>245.19999694824</ele>
        <time>2022-06-22T08:57:06.000Z</time>
      </trkpt>
      <trkpt lat="46.72218" lon="2.8467">
        <ele>246.19999694824</ele>
        <time>2022-06-22T08:57:16.000Z</time>
      </trkpt>
      <trkpt lat="46.72219" lon="2.84678">
        <ele>246.39999389648</ele>
        <time>2022-06-22T08:57:17.000Z</time>
      </trkpt>
      <trkpt lat="46.72231" lon="2.84737">
        <ele>248.80000305176</ele>
        <time>2022-06-22T08:57:25.000Z</time>
      </trkpt>
      <trkpt lat="46.72247" lon="2.84803">
        <ele>248.19999694824</ele>
        <time>2022-06-22T08:57:34.000Z</time>
      </trkpt>
      <trkpt lat="46.72249" lon="2.8481">
        <ele>248.19999694824</ele>
        <time>2022-06-22T08:57:35.000Z</time>
      </trkpt>
      <trkpt lat="46.72257" lon="2.84847">
        <ele>250</ele>
        <time>2022-06-22T08:57:40.000Z</time>
      </trkpt>
      <trkpt lat="46.72272" lon="2.84914">
        <ele>248.80000305176</ele>
        <time>2022-06-22T08:57:49.000Z</time>
      </trkpt>
      <trkpt lat="46.72287" lon="2.84979">
        <ele>249</ele>
        <time>2022-06-22T08:57:58.000Z</time>
      </trkpt>
      <trkpt lat="46.7229" lon="2.84994">
        <ele>249</ele>
        <time>2022-06-22T08:58:00.000Z</time>
      </trkpt>
      <trkpt lat="46.72306" lon="2.85072">
        <ele>249.19999694824</ele>
        <time>2022-06-22T08:58:10.000Z</time>
      </trkpt>
      <trkpt lat="46.72308" lon="2.85079">
        <ele>249.19999694824</ele>
        <time>2022-06-22T08:58:11.000Z</time>
      </trkpt>
      <trkpt lat="46.72324" lon="2.85151">
        <ele>248.60000610352</ele>
        <time>2022-06-22T08:58:20.000Z</time>
      </trkpt>
      <trkpt lat="46.72342" lon="2.85231">
        <ele>249</ele>
        <time>2022-06-22T08:58:30.000Z</time>
      </trkpt>
      <trkpt lat="46.72343" lon="2.85239">
        <ele>249</ele>
        <time>2022-06-22T08:58:31.000Z</time>
      </trkpt>
      <trkpt lat="46.72355" lon="2.85291">
        <ele>249.60000610352</ele>
        <time>2022-06-22T08:58:38.000Z</time>
      </trkpt>
      <trkpt lat="46.72357" lon="2.85298">
        <ele>249.80000305176</ele>
        <time>2022-06-22T08:58:39.000Z</time>
      </trkpt>
      <trkpt lat="46.72375" lon="2.8538">
        <ele>250.39999389648</ele>
        <time>2022-06-22T08:58:50.000Z</time>
      </trkpt>
      <trkpt lat="46.72382" lon="2.85409">
        <ele>251.39999389648</ele>
        <time>2022-06-22T08:58:54.000Z</time>
      </trkpt>
      <trkpt lat="46.72395" lon="2.85468">
        <ele>253.60000610352</ele>
        <time>2022-06-22T08:59:02.000Z</time>
      </trkpt>
      <trkpt lat="46.72403" lon="2.85505">
        <ele>254</ele>
        <time>2022-06-22T08:59:07.000Z</time>
      </trkpt>
      <trkpt lat="46.72409" lon="2.85533">
        <ele>253.19999694824</ele>
        <time>2022-06-22T08:59:11.000Z</time>
      </trkpt>
      <trkpt lat="46.72425" lon="2.85596">
        <ele>253.19999694824</ele>
        <time>2022-06-22T08:59:20.000Z</time>
      </trkpt>
      <trkpt lat="46.72427" lon="2.85603">
        <ele>253.19999694824</ele>
        <time>2022-06-22T08:59:21.000Z</time>
      </trkpt>
      <trkpt lat="46.72435" lon="2.85639">
        <ele>254.60000610352</ele>
        <time>2022-06-22T08:59:26.000Z</time>
      </trkpt>
      <trkpt lat="46.72443" lon="2.85675">
        <ele>255.80000305176</ele>
        <time>2022-06-22T08:59:31.000Z</time>
      </trkpt>
      <trkpt lat="46.72449" lon="2.85704">
        <ele>256</ele>
        <time>2022-06-22T08:59:35.000Z</time>
      </trkpt>
      <trkpt lat="46.72452" lon="2.85717">
        <ele>256</ele>
        <time>2022-06-22T08:59:37.000Z</time>
      </trkpt>
      <trkpt lat="46.72454" lon="2.85724">
        <ele>256</ele>
        <time>2022-06-22T08:59:38.000Z</time>
      </trkpt>
      <trkpt lat="46.72461" lon="2.85756">
        <ele>256.39999389648</ele>
        <time>2022-06-22T08:59:43.000Z</time>
      </trkpt>
      <trkpt lat="46.72462" lon="2.85762">
        <ele>256.79998779297</ele>
        <time>2022-06-22T08:59:44.000Z</time>
      </trkpt>
      <trkpt lat="46.72464" lon="2.85768">
        <ele>257.20001220703</ele>
        <time>2022-06-22T08:59:45.000Z</time>
      </trkpt>
      <trkpt lat="46.72465" lon="2.85774">
        <ele>257.60000610352</ele>
        <time>2022-06-22T08:59:46.000Z</time>
      </trkpt>
      <trkpt lat="46.72471" lon="2.858">
        <ele>257.79998779297</ele>
        <time>2022-06-22T08:59:50.000Z</time>
      </trkpt>
      <trkpt lat="46.72473" lon="2.85808">
        <ele>257.79998779297</ele>
        <time>2022-06-22T08:59:51.000Z</time>
      </trkpt>
      <trkpt lat="46.72475" lon="2.85821">
        <ele>258</ele>
        <time>2022-06-22T08:59:53.000Z</time>
      </trkpt>
      <trkpt lat="46.72477" lon="2.85835">
        <ele>258</ele>
        <time>2022-06-22T08:59:55.000Z</time>
      </trkpt>
      <trkpt lat="46.72481" lon="2.85862">
        <ele>258</ele>
        <time>2022-06-22T08:59:59.000Z</time>
      </trkpt>
      <trkpt lat="46.72482" lon="2.85869">
        <ele>258</ele>
        <time>2022-06-22T09:00:00.000Z</time>
      </trkpt>
      <trkpt lat="46.72484" lon="2.85882">
        <ele>258.20001220703</ele>
        <time>2022-06-22T09:00:02.000Z</time>
      </trkpt>
      <trkpt lat="46.72485" lon="2.85889">
        <ele>258.39999389648</ele>
        <time>2022-06-22T09:00:03.000Z</time>
      </trkpt>
      <trkpt lat="46.72489" lon="2.85927">
        <ele>259.60000610352</ele>
        <time>2022-06-22T09:00:08.000Z</time>
      </trkpt>
      <trkpt lat="46.7249" lon="2.85989">
        <ele>259.79998779297</ele>
        <time>2022-06-22T09:00:16.000Z</time>
      </trkpt>
      <trkpt lat="46.72491" lon="2.86005">
        <ele>259.60000610352</ele>
        <time>2022-06-22T09:00:18.000Z</time>
      </trkpt>
      <trkpt lat="46.72494" lon="2.8606">
        <ele>259.39999389648</ele>
        <time>2022-06-22T09:00:25.000Z</time>
      </trkpt>
      <trkpt lat="46.72495" lon="2.86111">
        <ele>260</ele>
        <time>2022-06-22T09:00:32.000Z</time>
      </trkpt>
      <trkpt lat="46.72495" lon="2.86125">
        <ele>260.60000610352</ele>
        <time>2022-06-22T09:00:34.000Z</time>
      </trkpt>
      <trkpt lat="46.72497" lon="2.86171">
        <ele>261.39999389648</ele>
        <time>2022-06-22T09:00:40.000Z</time>
      </trkpt>
      <trkpt lat="46.72497" lon="2.8621">
        <ele>261.39999389648</ele>
        <time>2022-06-22T09:00:45.000Z</time>
      </trkpt>
      <trkpt lat="46.72498" lon="2.86226">
        <ele>261.20001220703</ele>
        <time>2022-06-22T09:00:47.000Z</time>
      </trkpt>
      <trkpt lat="46.725" lon="2.86283">
        <ele>260.39999389648</ele>
        <time>2022-06-22T09:00:54.000Z</time>
      </trkpt>
      <trkpt lat="46.72501" lon="2.86349">
        <ele>260.39999389648</ele>
        <time>2022-06-22T09:01:02.000Z</time>
      </trkpt>
      <trkpt lat="46.72502" lon="2.86406">
        <ele>260.39999389648</ele>
        <time>2022-06-22T09:01:09.000Z</time>
      </trkpt>
      <trkpt lat="46.72503" lon="2.8646">
        <ele>262</ele>
        <time>2022-06-22T09:01:16.000Z</time>
      </trkpt>
      <trkpt lat="46.72504" lon="2.86522">
        <ele>262</ele>
        <time>2022-06-22T09:01:24.000Z</time>
      </trkpt>
      <trkpt lat="46.72506" lon="2.86582">
        <ele>263.20001220703</ele>
        <time>2022-06-22T09:01:32.000Z</time>
      </trkpt>
      <trkpt lat="46.72507" lon="2.86619">
        <ele>264.79998779297</ele>
        <time>2022-06-22T09:01:37.000Z</time>
      </trkpt>
      <trkpt lat="46.72508" lon="2.86648">
        <ele>264</ele>
        <time>2022-06-22T09:01:41.000Z</time>
      </trkpt>
      <trkpt lat="46.72508" lon="2.86669">
        <ele>264.60000610352</ele>
        <time>2022-06-22T09:01:44.000Z</time>
      </trkpt>
      <trkpt lat="46.72508" lon="2.86676">
        <ele>265</ele>
        <time>2022-06-22T09:01:45.000Z</time>
      </trkpt>
      <trkpt lat="46.72508" lon="2.86705">
        <ele>265</ele>
        <time>2022-06-22T09:01:49.000Z</time>
      </trkpt>
      <trkpt lat="46.72509" lon="2.86726">
        <ele>265.60000610352</ele>
        <time>2022-06-22T09:01:52.000Z</time>
      </trkpt>
      <trkpt lat="46.72511" lon="2.86763">
        <ele>266.79998779297</ele>
        <time>2022-06-22T09:01:57.000Z</time>
      </trkpt>
      <trkpt lat="46.72513" lon="2.86822">
        <ele>267.79998779297</ele>
        <time>2022-06-22T09:02:05.000Z</time>
      </trkpt>
      <trkpt lat="46.72514" lon="2.8683">
        <ele>267.79998779297</ele>
        <time>2022-06-22T09:02:06.000Z</time>
      </trkpt>
      <trkpt lat="46.72515" lon="2.86892">
        <ele>267</ele>
        <time>2022-06-22T09:02:14.000Z</time>
      </trkpt>
      <trkpt lat="46.72517" lon="2.8697">
        <ele>266</ele>
        <time>2022-06-22T09:02:24.000Z</time>
      </trkpt>
      <trkpt lat="46.72518" lon="2.87044">
        <ele>267</ele>
        <time>2022-06-22T09:02:33.000Z</time>
      </trkpt>
      <trkpt lat="46.7252" lon="2.87116">
        <ele>267.60000610352</ele>
        <time>2022-06-22T09:02:42.000Z</time>
      </trkpt>
      <trkpt lat="46.7252" lon="2.87178">
        <ele>268</ele>
        <time>2022-06-22T09:02:50.000Z</time>
      </trkpt>
      <trkpt lat="46.7252" lon="2.87186">
        <ele>268</ele>
        <time>2022-06-22T09:02:51.000Z</time>
      </trkpt>
      <trkpt lat="46.72522" lon="2.87243">
        <ele>268</ele>
        <time>2022-06-22T09:02:59.000Z</time>
      </trkpt>
      <trkpt lat="46.72522" lon="2.87249">
        <ele>268</ele>
        <time>2022-06-22T09:03:00.000Z</time>
      </trkpt>
      <trkpt lat="46.72522" lon="2.87256">
        <ele>268</ele>
        <time>2022-06-22T09:03:01.000Z</time>
      </trkpt>
      <trkpt lat="46.72522" lon="2.87292">
        <ele>268.20001220703</ele>
        <time>2022-06-22T09:03:06.000Z</time>
      </trkpt>
      <trkpt lat="46.72523" lon="2.87312">
        <ele>268.79998779297</ele>
        <time>2022-06-22T09:03:09.000Z</time>
      </trkpt>
      <trkpt lat="46.72524" lon="2.87351">
        <ele>269.60000610352</ele>
        <time>2022-06-22T09:03:14.000Z</time>
      </trkpt>
      <trkpt lat="46.72523" lon="2.87374">
        <ele>270.39999389648</ele>
        <time>2022-06-22T09:03:17.000Z</time>
      </trkpt>
      <trkpt lat="46.72523" lon="2.87389">
        <ele>270.39999389648</ele>
        <time>2022-06-22T09:03:19.000Z</time>
      </trkpt>
      <trkpt lat="46.72524" lon="2.8741">
        <ele>271.20001220703</ele>
        <time>2022-06-22T09:03:22.000Z</time>
      </trkpt>
      <trkpt lat="46.72524" lon="2.87425">
        <ele>271.39999389648</ele>
        <time>2022-06-22T09:03:24.000Z</time>
      </trkpt>
      <trkpt lat="46.72525" lon="2.87438">
        <ele>271.79998779297</ele>
        <time>2022-06-22T09:03:26.000Z</time>
      </trkpt>
      <trkpt lat="46.72526" lon="2.87459">
        <ele>272.39999389648</ele>
        <time>2022-06-22T09:03:29.000Z</time>
      </trkpt>
      <trkpt lat="46.72526" lon="2.87523">
        <ele>276</ele>
        <time>2022-06-22T09:03:37.000Z</time>
      </trkpt>
      <trkpt lat="46.72528" lon="2.87551">
        <ele>277.79998779297</ele>
        <time>2022-06-22T09:03:41.000Z</time>
      </trkpt>
      <trkpt lat="46.72528" lon="2.87566">
        <ele>278.39999389648</ele>
        <time>2022-06-22T09:03:43.000Z</time>
      </trkpt>
      <trkpt lat="46.72529" lon="2.87594">
        <ele>278.39999389648</ele>
        <time>2022-06-22T09:03:47.000Z</time>
      </trkpt>
      <trkpt lat="46.72529" lon="2.87601">
        <ele>278.60000610352</ele>
        <time>2022-06-22T09:03:48.000Z</time>
      </trkpt>
      <trkpt lat="46.7253" lon="2.87616">
        <ele>279</ele>
        <time>2022-06-22T09:03:50.000Z</time>
      </trkpt>
      <trkpt lat="46.72532" lon="2.87659">
        <ele>279</ele>
        <time>2022-06-22T09:03:56.000Z</time>
      </trkpt>
      <trkpt lat="46.72532" lon="2.87667">
        <ele>279</ele>
        <time>2022-06-22T09:03:57.000Z</time>
      </trkpt>
      <trkpt lat="46.72533" lon="2.87681">
        <ele>279</ele>
        <time>2022-06-22T09:03:59.000Z</time>
      </trkpt>
      <trkpt lat="46.72534" lon="2.87718">
        <ele>277.60000610352</ele>
        <time>2022-06-22T09:04:04.000Z</time>
      </trkpt>
      <trkpt lat="46.72534" lon="2.87732">
        <ele>277</ele>
        <time>2022-06-22T09:04:06.000Z</time>
      </trkpt>
      <trkpt lat="46.72534" lon="2.87792">
        <ele>277.79998779297</ele>
        <time>2022-06-22T09:04:14.000Z</time>
      </trkpt>
      <trkpt lat="46.72535" lon="2.87822">
        <ele>276.79998779297</ele>
        <time>2022-06-22T09:04:18.000Z</time>
      </trkpt>
      <trkpt lat="46.72536" lon="2.87837">
        <ele>276.20001220703</ele>
        <time>2022-06-22T09:04:20.000Z</time>
      </trkpt>
      <trkpt lat="46.72541" lon="2.87906">
        <ele>274.79998779297</ele>
        <time>2022-06-22T09:04:28.000Z</time>
      </trkpt>
      <trkpt lat="46.72545" lon="2.87935">
        <ele>274.39999389648</ele>
        <time>2022-06-22T09:04:31.000Z</time>
      </trkpt>
      <trkpt lat="46.72551" lon="2.87965">
        <ele>273.79998779297</ele>
        <time>2022-06-22T09:04:34.000Z</time>
      </trkpt>
      <trkpt lat="46.72554" lon="2.87976">
        <ele>273.60000610352</ele>
        <time>2022-06-22T09:04:35.000Z</time>
      </trkpt>
      <trkpt lat="46.72562" lon="2.88011">
        <ele>273</ele>
        <time>2022-06-22T09:04:38.000Z</time>
      </trkpt>
      <trkpt lat="46.72565" lon="2.88022">
        <ele>272.79998779297</ele>
        <time>2022-06-22T09:04:39.000Z</time>
      </trkpt>
      <trkpt lat="46.72571" lon="2.88047">
        <ele>272</ele>
        <time>2022-06-22T09:04:41.000Z</time>
      </trkpt>
      <trkpt lat="46.72579" lon="2.88074">
        <ele>270.60000610352</ele>
        <time>2022-06-22T09:04:43.000Z</time>
      </trkpt>
      <trkpt lat="46.72583" lon="2.88088">
        <ele>269.79998779297</ele>
        <time>2022-06-22T09:04:44.000Z</time>
      </trkpt>
      <trkpt lat="46.72591" lon="2.88117">
        <ele>268.20001220703</ele>
        <time>2022-06-22T09:04:46.000Z</time>
      </trkpt>
      <trkpt lat="46.72604" lon="2.88161">
        <ele>263.60000610352</ele>
        <time>2022-06-22T09:04:49.000Z</time>
      </trkpt>
      <trkpt lat="46.72617" lon="2.88205">
        <ele>260</ele>
        <time>2022-06-22T09:04:52.000Z</time>
      </trkpt>
      <trkpt lat="46.72626" lon="2.88235">
        <ele>259.39999389648</ele>
        <time>2022-06-22T09:04:54.000Z</time>
      </trkpt>
      <trkpt lat="46.72635" lon="2.88265">
        <ele>258.39999389648</ele>
        <time>2022-06-22T09:04:56.000Z</time>
      </trkpt>
      <trkpt lat="46.72639" lon="2.8828">
        <ele>258</ele>
        <time>2022-06-22T09:04:57.000Z</time>
      </trkpt>
      <trkpt lat="46.72643" lon="2.88295">
        <ele>257.39999389648</ele>
        <time>2022-06-22T09:04:58.000Z</time>
      </trkpt>
      <trkpt lat="46.7265" lon="2.88327">
        <ele>255.39999389648</ele>
        <time>2022-06-22T09:05:00.000Z</time>
      </trkpt>
      <trkpt lat="46.72654" lon="2.8836">
        <ele>253.19999694824</ele>
        <time>2022-06-22T09:05:02.000Z</time>
      </trkpt>
      <trkpt lat="46.72653" lon="2.8841">
        <ele>250</ele>
        <time>2022-06-22T09:05:05.000Z</time>
      </trkpt>
      <trkpt lat="46.72653" lon="2.88426">
        <ele>248.80000305176</ele>
        <time>2022-06-22T09:05:06.000Z</time>
      </trkpt>
      <trkpt lat="46.72652" lon="2.88441">
        <ele>248.39999389648</ele>
        <time>2022-06-22T09:05:07.000Z</time>
      </trkpt>
      <trkpt lat="46.72651" lon="2.88471">
        <ele>248.19999694824</ele>
        <time>2022-06-22T09:05:09.000Z</time>
      </trkpt>
      <trkpt lat="46.72649" lon="2.88514">
        <ele>248.19999694824</ele>
        <time>2022-06-22T09:05:12.000Z</time>
      </trkpt>
      <trkpt lat="46.72647" lon="2.88567">
        <ele>250</ele>
        <time>2022-06-22T09:05:16.000Z</time>
      </trkpt>
      <trkpt lat="46.72646" lon="2.88605">
        <ele>251</ele>
        <time>2022-06-22T09:05:19.000Z</time>
      </trkpt>
      <trkpt lat="46.72644" lon="2.88642">
        <ele>250.19999694824</ele>
        <time>2022-06-22T09:05:22.000Z</time>
      </trkpt>
      <trkpt lat="46.72642" lon="2.88688">
        <ele>250.19999694824</ele>
        <time>2022-06-22T09:05:26.000Z</time>
      </trkpt>
      <trkpt lat="46.7264" lon="2.88762">
        <ele>250.80000305176</ele>
        <time>2022-06-22T09:05:33.000Z</time>
      </trkpt>
      <trkpt lat="46.72637" lon="2.88818">
        <ele>252.19999694824</ele>
        <time>2022-06-22T09:05:39.000Z</time>
      </trkpt>
      <trkpt lat="46.72636" lon="2.88859">
        <ele>253.19999694824</ele>
        <time>2022-06-22T09:05:44.000Z</time>
      </trkpt>
      <trkpt lat="46.72636" lon="2.88867">
        <ele>253.60000610352</ele>
        <time>2022-06-22T09:05:45.000Z</time>
      </trkpt>
      <trkpt lat="46.72634" lon="2.88911">
        <ele>254.60000610352</ele>
        <time>2022-06-22T09:05:51.000Z</time>
      </trkpt>
      <trkpt lat="46.72634" lon="2.88919">
        <ele>254.60000610352</ele>
        <time>2022-06-22T09:05:52.000Z</time>
      </trkpt>
      <trkpt lat="46.72632" lon="2.88934">
        <ele>254.39999389648</ele>
        <time>2022-06-22T09:05:54.000Z</time>
      </trkpt>
      <trkpt lat="46.72632" lon="2.88942">
        <ele>254.39999389648</ele>
        <time>2022-06-22T09:05:55.000Z</time>
      </trkpt>
      <trkpt lat="46.72631" lon="2.8895">
        <ele>254.60000610352</ele>
        <time>2022-06-22T09:05:56.000Z</time>
      </trkpt>
      <trkpt lat="46.72626" lon="2.89018">
        <ele>254</ele>
        <time>2022-06-22T09:06:04.000Z</time>
      </trkpt>
      <trkpt lat="46.72622" lon="2.89089">
        <ele>252.80000305176</ele>
        <time>2022-06-22T09:06:12.000Z</time>
      </trkpt>
      <trkpt lat="46.72617" lon="2.89155">
        <ele>251.60000610352</ele>
        <time>2022-06-22T09:06:19.000Z</time>
      </trkpt>
      <trkpt lat="46.72616" lon="2.89165">
        <ele>251</ele>
        <time>2022-06-22T09:06:20.000Z</time>
      </trkpt>
      <trkpt lat="46.72612" lon="2.89226">
        <ele>248.39999389648</ele>
        <time>2022-06-22T09:06:26.000Z</time>
      </trkpt>
      <trkpt lat="46.7261" lon="2.89271">
        <ele>247</ele>
        <time>2022-06-22T09:06:30.000Z</time>
      </trkpt>
      <trkpt lat="46.72606" lon="2.89306">
        <ele>246.39999389648</ele>
        <time>2022-06-22T09:06:33.000Z</time>
      </trkpt>
      <trkpt lat="46.72602" lon="2.89353">
        <ele>246.19999694824</ele>
        <time>2022-06-22T09:06:37.000Z</time>
      </trkpt>
      <trkpt lat="46.72602" lon="2.89388">
        <ele>244.39999389648</ele>
        <time>2022-06-22T09:06:40.000Z</time>
      </trkpt>
      <trkpt lat="46.72602" lon="2.894">
        <ele>243.60000610352</ele>
        <time>2022-06-22T09:06:41.000Z</time>
      </trkpt>
      <trkpt lat="46.72605" lon="2.89448">
        <ele>241.60000610352</ele>
        <time>2022-06-22T09:06:45.000Z</time>
      </trkpt>
      <trkpt lat="46.72607" lon="2.89473">
        <ele>240.80000305176</ele>
        <time>2022-06-22T09:06:47.000Z</time>
      </trkpt>
      <trkpt lat="46.72608" lon="2.89485">
        <ele>240.39999389648</ele>
        <time>2022-06-22T09:06:48.000Z</time>
      </trkpt>
      <trkpt lat="46.72609" lon="2.89497">
        <ele>240.19999694824</ele>
        <time>2022-06-22T09:06:49.000Z</time>
      </trkpt>
      <trkpt lat="46.72612" lon="2.89521">
        <ele>239.60000610352</ele>
        <time>2022-06-22T09:06:51.000Z</time>
      </trkpt>
      <trkpt lat="46.72616" lon="2.89568">
        <ele>238</ele>
        <time>2022-06-22T09:06:55.000Z</time>
      </trkpt>
      <trkpt lat="46.7262" lon="2.89615">
        <ele>238</ele>
        <time>2022-06-22T09:06:59.000Z</time>
      </trkpt>
      <trkpt lat="46.72623" lon="2.89638">
        <ele>237.80000305176</ele>
        <time>2022-06-22T09:07:01.000Z</time>
      </trkpt>
      <trkpt lat="46.72624" lon="2.8965">
        <ele>237.80000305176</ele>
        <time>2022-06-22T09:07:02.000Z</time>
      </trkpt>
      <trkpt lat="46.72632" lon="2.8973">
        <ele>239.39999389648</ele>
        <time>2022-06-22T09:07:09.000Z</time>
      </trkpt>
      <trkpt lat="46.72634" lon="2.89742">
        <ele>239.39999389648</ele>
        <time>2022-06-22T09:07:10.000Z</time>
      </trkpt>
      <trkpt lat="46.72641" lon="2.89807">
        <ele>237.60000610352</ele>
        <time>2022-06-22T09:07:16.000Z</time>
      </trkpt>
      <trkpt lat="46.72647" lon="2.89868">
        <ele>236.19999694824</ele>
        <time>2022-06-22T09:07:22.000Z</time>
      </trkpt>
      <trkpt lat="46.72648" lon="2.89878">
        <ele>235.80000305176</ele>
        <time>2022-06-22T09:07:23.000Z</time>
      </trkpt>
      <trkpt lat="46.72653" lon="2.89945">
        <ele>235</ele>
        <time>2022-06-22T09:07:30.000Z</time>
      </trkpt>
      <trkpt lat="46.72659" lon="2.90011">
        <ele>236.39999389648</ele>
        <time>2022-06-22T09:07:37.000Z</time>
      </trkpt>
      <trkpt lat="46.72663" lon="2.90066">
        <ele>236.60000610352</ele>
        <time>2022-06-22T09:07:43.000Z</time>
      </trkpt>
      <trkpt lat="46.72669" lon="2.90127">
        <ele>236.19999694824</ele>
        <time>2022-06-22T09:07:50.000Z</time>
      </trkpt>
      <trkpt lat="46.72676" lon="2.90205">
        <ele>236</ele>
        <time>2022-06-22T09:07:59.000Z</time>
      </trkpt>
      <trkpt lat="46.72677" lon="2.90214">
        <ele>236.19999694824</ele>
        <time>2022-06-22T09:08:00.000Z</time>
      </trkpt>
      <trkpt lat="46.72685" lon="2.90295">
        <ele>235.39999389648</ele>
        <time>2022-06-22T09:08:09.000Z</time>
      </trkpt>
      <trkpt lat="46.72695" lon="2.90367">
        <ele>236</ele>
        <time>2022-06-22T09:08:17.000Z</time>
      </trkpt>
      <trkpt lat="46.72709" lon="2.90438">
        <ele>235</ele>
        <time>2022-06-22T09:08:25.000Z</time>
      </trkpt>
      <trkpt lat="46.72725" lon="2.90519">
        <ele>235.80000305176</ele>
        <time>2022-06-22T09:08:34.000Z</time>
      </trkpt>
      <trkpt lat="46.72727" lon="2.90528">
        <ele>236</ele>
        <time>2022-06-22T09:08:35.000Z</time>
      </trkpt>
      <trkpt lat="46.72737" lon="2.90576">
        <ele>234.60000610352</ele>
        <time>2022-06-22T09:08:40.000Z</time>
      </trkpt>
      <trkpt lat="46.72743" lon="2.90605">
        <ele>233.60000610352</ele>
        <time>2022-06-22T09:08:43.000Z</time>
      </trkpt>
      <trkpt lat="46.72752" lon="2.90655">
        <ele>231.60000610352</ele>
        <time>2022-06-22T09:08:48.000Z</time>
      </trkpt>
      <trkpt lat="46.72755" lon="2.90676">
        <ele>230.19999694824</ele>
        <time>2022-06-22T09:08:50.000Z</time>
      </trkpt>
      <trkpt lat="46.72757" lon="2.90697">
        <ele>229.39999389648</ele>
        <time>2022-06-22T09:08:52.000Z</time>
      </trkpt>
      <trkpt lat="46.72759" lon="2.90707">
        <ele>229.19999694824</ele>
        <time>2022-06-22T09:08:53.000Z</time>
      </trkpt>
      <trkpt lat="46.72766" lon="2.90769">
        <ele>229.39999389648</ele>
        <time>2022-06-22T09:08:59.000Z</time>
      </trkpt>
      <trkpt lat="46.72768" lon="2.9078">
        <ele>229.39999389648</ele>
        <time>2022-06-22T09:09:00.000Z</time>
      </trkpt>
      <trkpt lat="46.72775" lon="2.90847">
        <ele>227.80000305176</ele>
        <time>2022-06-22T09:09:06.000Z</time>
      </trkpt>
      <trkpt lat="46.72777" lon="2.90871">
        <ele>226.19999694824</ele>
        <time>2022-06-22T09:09:08.000Z</time>
      </trkpt>
      <trkpt lat="46.72781" lon="2.90907">
        <ele>224.80000305176</ele>
        <time>2022-06-22T09:09:11.000Z</time>
      </trkpt>
      <trkpt lat="46.72789" lon="2.90969">
        <ele>223</ele>
        <time>2022-06-22T09:09:16.000Z</time>
      </trkpt>
      <trkpt lat="46.7279" lon="2.90981">
        <ele>223</ele>
        <time>2022-06-22T09:09:17.000Z</time>
      </trkpt>
      <trkpt lat="46.72795" lon="2.91019">
        <ele>222</ele>
        <time>2022-06-22T09:09:20.000Z</time>
      </trkpt>
      <trkpt lat="46.72799" lon="2.91055">
        <ele>221.39999389648</ele>
        <time>2022-06-22T09:09:23.000Z</time>
      </trkpt>
      <trkpt lat="46.72803" lon="2.91093">
        <ele>221</ele>
        <time>2022-06-22T09:09:26.000Z</time>
      </trkpt>
      <trkpt lat="46.72804" lon="2.91106">
        <ele>220.60000610352</ele>
        <time>2022-06-22T09:09:27.000Z</time>
      </trkpt>
      <trkpt lat="46.72809" lon="2.91144">
        <ele>220.19999694824</ele>
        <time>2022-06-22T09:09:30.000Z</time>
      </trkpt>
      <trkpt lat="46.72813" lon="2.91181">
        <ele>218.80000305176</ele>
        <time>2022-06-22T09:09:33.000Z</time>
      </trkpt>
      <trkpt lat="46.72815" lon="2.91194">
        <ele>218.39999389648</ele>
        <time>2022-06-22T09:09:34.000Z</time>
      </trkpt>
      <trkpt lat="46.72822" lon="2.91252">
        <ele>217.60000610352</ele>
        <time>2022-06-22T09:09:39.000Z</time>
      </trkpt>
      <trkpt lat="46.72825" lon="2.91274">
        <ele>217.60000610352</ele>
        <time>2022-06-22T09:09:41.000Z</time>
      </trkpt>
      <trkpt lat="46.72837" lon="2.91323">
        <ele>217</ele>
        <time>2022-06-22T09:09:46.000Z</time>
      </trkpt>
      <trkpt lat="46.72856" lon="2.91363">
        <ele>217</ele>
        <time>2022-06-22T09:09:51.000Z</time>
      </trkpt>
      <trkpt lat="46.72888" lon="2.91421">
        <ele>217</ele>
        <time>2022-06-22T09:09:59.000Z</time>
      </trkpt>
      <trkpt lat="46.72919" lon="2.91479">
        <ele>219.80000305176</ele>
        <time>2022-06-22T09:10:07.000Z</time>
      </trkpt>
      <trkpt lat="46.72935" lon="2.91517">
        <ele>219.80000305176</ele>
        <time>2022-06-22T09:10:12.000Z</time>
      </trkpt>
      <trkpt lat="46.7294" lon="2.91533">
        <ele>220.19999694824</ele>
        <time>2022-06-22T09:10:14.000Z</time>
      </trkpt>
      <trkpt lat="46.7296" lon="2.91608">
        <ele>221.60000610352</ele>
        <time>2022-06-22T09:10:23.000Z</time>
      </trkpt>
      <trkpt lat="46.72982" lon="2.91678">
        <ele>220.60000610352</ele>
        <time>2022-06-22T09:10:31.000Z</time>
      </trkpt>
      <trkpt lat="46.7299" lon="2.91705">
        <ele>219.39999389648</ele>
        <time>2022-06-22T09:10:34.000Z</time>
      </trkpt>
      <trkpt lat="46.72998" lon="2.91732">
        <ele>218.19999694824</ele>
        <time>2022-06-22T09:10:37.000Z</time>
      </trkpt>
      <trkpt lat="46.73021" lon="2.91805">
        <ele>217</ele>
        <time>2022-06-22T09:10:45.000Z</time>
      </trkpt>
      <trkpt lat="46.73024" lon="2.91814">
        <ele>216.39999389648</ele>
        <time>2022-06-22T09:10:46.000Z</time>
      </trkpt>
      <trkpt lat="46.73029" lon="2.91832">
        <ele>216.19999694824</ele>
        <time>2022-06-22T09:10:48.000Z</time>
      </trkpt>
      <trkpt lat="46.73051" lon="2.91905">
        <ele>215</ele>
        <time>2022-06-22T09:10:56.000Z</time>
      </trkpt>
      <trkpt lat="46.73066" lon="2.91949">
        <ele>216</ele>
        <time>2022-06-22T09:11:01.000Z</time>
      </trkpt>
      <trkpt lat="46.73068" lon="2.91958">
        <ele>216.39999389648</ele>
        <time>2022-06-22T09:11:02.000Z</time>
      </trkpt>
      <trkpt lat="46.73071" lon="2.91968">
        <ele>216</ele>
        <time>2022-06-22T09:11:03.000Z</time>
      </trkpt>
      <trkpt lat="46.73096" lon="2.92045">
        <ele>213.80000305176</ele>
        <time>2022-06-22T09:11:12.000Z</time>
      </trkpt>
      <trkpt lat="46.73098" lon="2.92053">
        <ele>213.60000610352</ele>
        <time>2022-06-22T09:11:13.000Z</time>
      </trkpt>
      <trkpt lat="46.73112" lon="2.9209">
        <ele>214.80000305176</ele>
        <time>2022-06-22T09:11:18.000Z</time>
      </trkpt>
      <trkpt lat="46.73114" lon="2.92098">
        <ele>215</ele>
        <time>2022-06-22T09:11:19.000Z</time>
      </trkpt>
      <trkpt lat="46.73125" lon="2.92131">
        <ele>215.80000305176</ele>
        <time>2022-06-22T09:11:23.000Z</time>
      </trkpt>
      <trkpt lat="46.73127" lon="2.9214">
        <ele>216</ele>
        <time>2022-06-22T09:11:24.000Z</time>
      </trkpt>
      <trkpt lat="46.73139" lon="2.92187">
        <ele>216.39999389648</ele>
        <time>2022-06-22T09:11:29.000Z</time>
      </trkpt>
      <trkpt lat="46.73146" lon="2.92226">
        <ele>216</ele>
        <time>2022-06-22T09:11:33.000Z</time>
      </trkpt>
      <trkpt lat="46.73146" lon="2.92236">
        <ele>216</ele>
        <time>2022-06-22T09:11:34.000Z</time>
      </trkpt>
      <trkpt lat="46.73146" lon="2.92255">
        <ele>216</ele>
        <time>2022-06-22T09:11:36.000Z</time>
      </trkpt>
      <trkpt lat="46.73142" lon="2.92291">
        <ele>216.39999389648</ele>
        <time>2022-06-22T09:11:40.000Z</time>
      </trkpt>
      <trkpt lat="46.73134" lon="2.92353">
        <ele>220</ele>
        <time>2022-06-22T09:11:47.000Z</time>
      </trkpt>
      <trkpt lat="46.73127" lon="2.924">
        <ele>221.60000610352</ele>
        <time>2022-06-22T09:11:53.000Z</time>
      </trkpt>
      <trkpt lat="46.73126" lon="2.92418">
        <ele>221.80000305176</ele>
        <time>2022-06-22T09:11:55.000Z</time>
      </trkpt>
      <trkpt lat="46.73121" lon="2.92458">
        <ele>222.60000610352</ele>
        <time>2022-06-22T09:12:00.000Z</time>
      </trkpt>
      <trkpt lat="46.7312" lon="2.92466">
        <ele>222.39999389648</ele>
        <time>2022-06-22T09:12:01.000Z</time>
      </trkpt>
      <trkpt lat="46.73117" lon="2.92483">
        <ele>222</ele>
        <time>2022-06-22T09:12:03.000Z</time>
      </trkpt>
      <trkpt lat="46.73112" lon="2.92514">
        <ele>221.60000610352</ele>
        <time>2022-06-22T09:12:07.000Z</time>
      </trkpt>
      <trkpt lat="46.73107" lon="2.92547">
        <ele>220.80000305176</ele>
        <time>2022-06-22T09:12:11.000Z</time>
      </trkpt>
      <trkpt lat="46.73106" lon="2.92573">
        <ele>220.19999694824</ele>
        <time>2022-06-22T09:12:14.000Z</time>
      </trkpt>
      <trkpt lat="46.73106" lon="2.9261">
        <ele>219</ele>
        <time>2022-06-22T09:12:18.000Z</time>
      </trkpt>
      <trkpt lat="46.73116" lon="2.92674">
        <ele>218.19999694824</ele>
        <time>2022-06-22T09:12:25.000Z</time>
      </trkpt>
      <trkpt lat="46.73126" lon="2.9273">
        <ele>216.80000305176</ele>
        <time>2022-06-22T09:12:31.000Z</time>
      </trkpt>
      <trkpt lat="46.73135" lon="2.92785">
        <ele>216.39999389648</ele>
        <time>2022-06-22T09:12:37.000Z</time>
      </trkpt>
      <trkpt lat="46.7314" lon="2.92813">
        <ele>216.19999694824</ele>
        <time>2022-06-22T09:12:40.000Z</time>
      </trkpt>
      <trkpt lat="46.73155" lon="2.92896">
        <ele>216</ele>
        <time>2022-06-22T09:12:49.000Z</time>
      </trkpt>
      <trkpt lat="46.73157" lon="2.92904">
        <ele>216</ele>
        <time>2022-06-22T09:12:50.000Z</time>
      </trkpt>
      <trkpt lat="46.73158" lon="2.92913">
        <ele>216</ele>
        <time>2022-06-22T09:12:51.000Z</time>
      </trkpt>
      <trkpt lat="46.7317" lon="2.92966">
        <ele>215</ele>
        <time>2022-06-22T09:12:57.000Z</time>
      </trkpt>
      <trkpt lat="46.73172" lon="2.92975">
        <ele>215</ele>
        <time>2022-06-22T09:12:58.000Z</time>
      </trkpt>
      <trkpt lat="46.73185" lon="2.93026">
        <ele>214.60000610352</ele>
        <time>2022-06-22T09:13:04.000Z</time>
      </trkpt>
      <trkpt lat="46.73192" lon="2.9305">
        <ele>214.39999389648</ele>
        <time>2022-06-22T09:13:07.000Z</time>
      </trkpt>
      <trkpt lat="46.73196" lon="2.93066">
        <ele>214.19999694824</ele>
        <time>2022-06-22T09:13:09.000Z</time>
      </trkpt>
      <trkpt lat="46.73198" lon="2.93074">
        <ele>214.39999389648</ele>
        <time>2022-06-22T09:13:10.000Z</time>
      </trkpt>
      <trkpt lat="46.73209" lon="2.93117">
        <ele>213.60000610352</ele>
        <time>2022-06-22T09:13:15.000Z</time>
      </trkpt>
      <trkpt lat="46.73212" lon="2.93125">
        <ele>213.19999694824</ele>
        <time>2022-06-22T09:13:16.000Z</time>
      </trkpt>
      <trkpt lat="46.73222" lon="2.9317">
        <ele>214</ele>
        <time>2022-06-22T09:13:21.000Z</time>
      </trkpt>
      <trkpt lat="46.73225" lon="2.93179">
        <ele>214.19999694824</ele>
        <time>2022-06-22T09:13:22.000Z</time>
      </trkpt>
      <trkpt lat="46.73237" lon="2.93231">
        <ele>211.60000610352</ele>
        <time>2022-06-22T09:13:27.000Z</time>
      </trkpt>
      <trkpt lat="46.73239" lon="2.93241">
        <ele>210.80000305176</ele>
        <time>2022-06-22T09:13:28.000Z</time>
      </trkpt>
      <trkpt lat="46.73245" lon="2.93273">
        <ele>208.80000305176</ele>
        <time>2022-06-22T09:13:31.000Z</time>
      </trkpt>
      <trkpt lat="46.73255" lon="2.93329">
        <ele>208</ele>
        <time>2022-06-22T09:13:36.000Z</time>
      </trkpt>
      <trkpt lat="46.73259" lon="2.93351">
        <ele>207.60000610352</ele>
        <time>2022-06-22T09:13:38.000Z</time>
      </trkpt>
      <trkpt lat="46.73266" lon="2.93397">
        <ele>205.39999389648</ele>
        <time>2022-06-22T09:13:42.000Z</time>
      </trkpt>
      <trkpt lat="46.73268" lon="2.93408">
        <ele>205.39999389648</ele>
        <time>2022-06-22T09:13:43.000Z</time>
      </trkpt>
      <trkpt lat="46.73271" lon="2.93453">
        <ele>205.60000610352</ele>
        <time>2022-06-22T09:13:47.000Z</time>
      </trkpt>
      <trkpt lat="46.73273" lon="2.93494">
        <ele>205.39999389648</ele>
        <time>2022-06-22T09:13:51.000Z</time>
      </trkpt>
      <trkpt lat="46.73273" lon="2.93504">
        <ele>205.39999389648</ele>
        <time>2022-06-22T09:13:52.000Z</time>
      </trkpt>
      <trkpt lat="46.73272" lon="2.93541">
        <ele>205.39999389648</ele>
        <time>2022-06-22T09:13:56.000Z</time>
      </trkpt>
      <trkpt lat="46.73268" lon="2.93584">
        <ele>206.19999694824</ele>
        <time>2022-06-22T09:14:01.000Z</time>
      </trkpt>
      <trkpt lat="46.73263" lon="2.93618">
        <ele>207</ele>
        <time>2022-06-22T09:14:06.000Z</time>
      </trkpt>
      <trkpt lat="46.73263" lon="2.93622">
        <ele>207</ele>
        <time>2022-06-22T09:14:07.000Z</time>
      </trkpt>
      <trkpt lat="46.73262" lon="2.93625">
        <ele>207</ele>
        <time>2022-06-22T09:14:08.000Z</time>
      </trkpt>
      <trkpt lat="46.73263" lon="2.93626">
        <ele>207.19999694824</ele>
        <time>2022-06-22T09:14:10.000Z</time>
      </trkpt>
      <trkpt lat="46.73264" lon="2.9363">
        <ele>207.19999694824</ele>
        <time>2022-06-22T09:14:14.000Z</time>
      </trkpt>
      <trkpt lat="46.73268" lon="2.93631">
        <ele>207.19999694824</ele>
        <time>2022-06-22T09:14:16.000Z</time>
      </trkpt>
      <trkpt lat="46.73282" lon="2.93628">
        <ele>207.19999694824</ele>
        <time>2022-06-22T09:14:21.000Z</time>
      </trkpt>
      <trkpt lat="46.73299" lon="2.93623">
        <ele>207.60000610352</ele>
        <time>2022-06-22T09:14:25.000Z</time>
      </trkpt>
      <trkpt lat="46.73335" lon="2.93615">
        <ele>206.60000610352</ele>
        <time>2022-06-22T09:14:32.000Z</time>
      </trkpt>
      <trkpt lat="46.7334" lon="2.93615">
        <ele>206.39999389648</ele>
        <time>2022-06-22T09:14:33.000Z</time>
      </trkpt>
      <trkpt lat="46.73351" lon="2.93618">
        <ele>206.19999694824</ele>
        <time>2022-06-22T09:14:35.000Z</time>
      </trkpt>
      <trkpt lat="46.73361" lon="2.93623">
        <ele>206.19999694824</ele>
        <time>2022-06-22T09:14:37.000Z</time>
      </trkpt>
      <trkpt lat="46.73383" lon="2.93635">
        <ele>206</ele>
        <time>2022-06-22T09:14:41.000Z</time>
      </trkpt>
      <trkpt lat="46.73393" lon="2.93642">
        <ele>206</ele>
        <time>2022-06-22T09:14:43.000Z</time>
      </trkpt>
      <trkpt lat="46.73399" lon="2.93645">
        <ele>205.80000305176</ele>
        <time>2022-06-22T09:14:44.000Z</time>
      </trkpt>
      <trkpt lat="46.73426" lon="2.93665">
        <ele>204.80000305176</ele>
        <time>2022-06-22T09:14:49.000Z</time>
      </trkpt>
      <trkpt lat="46.7344" lon="2.9368">
        <ele>204.19999694824</ele>
        <time>2022-06-22T09:14:52.000Z</time>
      </trkpt>
      <trkpt lat="46.73457" lon="2.93701">
        <ele>203.80000305176</ele>
        <time>2022-06-22T09:14:56.000Z</time>
      </trkpt>
      <trkpt lat="46.73483" lon="2.9374">
        <ele>205.39999389648</ele>
        <time>2022-06-22T09:15:03.000Z</time>
      </trkpt>
      <trkpt lat="46.73485" lon="2.93746">
        <ele>205.80000305176</ele>
        <time>2022-06-22T09:15:04.000Z</time>
      </trkpt>
      <trkpt lat="46.73498" lon="2.93778">
        <ele>207.60000610352</ele>
        <time>2022-06-22T09:15:09.000Z</time>
      </trkpt>
      <trkpt lat="46.73517" lon="2.9383">
        <ele>207.60000610352</ele>
        <time>2022-06-22T09:15:17.000Z</time>
      </trkpt>
      <trkpt lat="46.73519" lon="2.93835">
        <ele>207.80000305176</ele>
        <time>2022-06-22T09:15:18.000Z</time>
      </trkpt>
      <trkpt lat="46.73522" lon="2.93843">
        <ele>207.80000305176</ele>
        <time>2022-06-22T09:15:20.000Z</time>
      </trkpt>
      <trkpt lat="46.73525" lon="2.93845">
        <ele>207.60000610352</ele>
        <time>2022-06-22T09:15:21.000Z</time>
      </trkpt>
      <trkpt lat="46.73535" lon="2.93853">
        <ele>207.19999694824</ele>
        <time>2022-06-22T09:15:24.000Z</time>
      </trkpt>
      <trkpt lat="46.73541" lon="2.93863">
        <ele>207.39999389648</ele>
        <time>2022-06-22T09:15:26.000Z</time>
      </trkpt>
      <trkpt lat="46.73551" lon="2.93879">
        <ele>207.80000305176</ele>
        <time>2022-06-22T09:15:29.000Z</time>
      </trkpt>
      <trkpt lat="46.73561" lon="2.93895">
        <ele>208.60000610352</ele>
        <time>2022-06-22T09:15:32.000Z</time>
      </trkpt>
      <trkpt lat="46.73563" lon="2.93899">
        <ele>208.80000305176</ele>
        <time>2022-06-22T09:15:33.000Z</time>
      </trkpt>
      <trkpt lat="46.73565" lon="2.93906">
        <ele>209</ele>
        <time>2022-06-22T09:15:34.000Z</time>
      </trkpt>
      <trkpt lat="46.73574" lon="2.93938">
        <ele>209.39999389648</ele>
        <time>2022-06-22T09:15:39.000Z</time>
      </trkpt>
      <trkpt lat="46.7358" lon="2.93965">
        <ele>210</ele>
        <time>2022-06-22T09:15:43.000Z</time>
      </trkpt>
      <trkpt lat="46.73587" lon="2.93986">
        <ele>210.19999694824</ele>
        <time>2022-06-22T09:15:46.000Z</time>
      </trkpt>
      <trkpt lat="46.73592" lon="2.94007">
        <ele>210.80000305176</ele>
        <time>2022-06-22T09:15:49.000Z</time>
      </trkpt>
      <trkpt lat="46.73606" lon="2.94054">
        <ele>212</ele>
        <time>2022-06-22T09:15:56.000Z</time>
      </trkpt>
      <trkpt lat="46.73619" lon="2.94099">
        <ele>210.60000610352</ele>
        <time>2022-06-22T09:16:03.000Z</time>
      </trkpt>
      <trkpt lat="46.73625" lon="2.9412">
        <ele>209.39999389648</ele>
        <time>2022-06-22T09:16:06.000Z</time>
      </trkpt>
      <trkpt lat="46.73627" lon="2.94137">
        <ele>208</ele>
        <time>2022-06-22T09:16:08.000Z</time>
      </trkpt>
      <trkpt lat="46.73632" lon="2.9419">
        <ele>206</ele>
        <time>2022-06-22T09:16:14.000Z</time>
      </trkpt>
      <trkpt lat="46.73633" lon="2.94199">
        <ele>206</ele>
        <time>2022-06-22T09:16:15.000Z</time>
      </trkpt>
      <trkpt lat="46.73635" lon="2.94241">
        <ele>208.19999694824</ele>
        <time>2022-06-22T09:16:20.000Z</time>
      </trkpt>
      <trkpt lat="46.73636" lon="2.94257">
        <ele>209.19999694824</ele>
        <time>2022-06-22T09:16:22.000Z</time>
      </trkpt>
      <trkpt lat="46.73639" lon="2.94294">
        <ele>210</ele>
        <time>2022-06-22T09:16:27.000Z</time>
      </trkpt>
      <trkpt lat="46.73643" lon="2.94318">
        <ele>209.19999694824</ele>
        <time>2022-06-22T09:16:31.000Z</time>
      </trkpt>
      <trkpt lat="46.73644" lon="2.94329">
        <ele>209</ele>
        <time>2022-06-22T09:16:33.000Z</time>
      </trkpt>
      <trkpt lat="46.73647" lon="2.94347">
        <ele>208.80000305176</ele>
        <time>2022-06-22T09:16:36.000Z</time>
      </trkpt>
      <trkpt lat="46.7365" lon="2.94382">
        <ele>208.60000610352</ele>
        <time>2022-06-22T09:16:41.000Z</time>
      </trkpt>
      <trkpt lat="46.73649" lon="2.9439">
        <ele>208.80000305176</ele>
        <time>2022-06-22T09:16:42.000Z</time>
      </trkpt>
      <trkpt lat="46.73649" lon="2.94408">
        <ele>208.80000305176</ele>
        <time>2022-06-22T09:16:44.000Z</time>
      </trkpt>
      <trkpt lat="46.73647" lon="2.94426">
        <ele>209</ele>
        <time>2022-06-22T09:16:46.000Z</time>
      </trkpt>
      <trkpt lat="46.73644" lon="2.94442">
        <ele>209</ele>
        <time>2022-06-22T09:16:48.000Z</time>
      </trkpt>
      <trkpt lat="46.73638" lon="2.94465">
        <ele>209</ele>
        <time>2022-06-22T09:16:51.000Z</time>
      </trkpt>
      <trkpt lat="46.7363" lon="2.94488">
        <ele>209</ele>
        <time>2022-06-22T09:16:54.000Z</time>
      </trkpt>
      <trkpt lat="46.73614" lon="2.94564">
        <ele>209.19999694824</ele>
        <time>2022-06-22T09:17:03.000Z</time>
      </trkpt>
      <trkpt lat="46.73612" lon="2.94572">
        <ele>209.19999694824</ele>
        <time>2022-06-22T09:17:04.000Z</time>
      </trkpt>
      <trkpt lat="46.73608" lon="2.94587">
        <ele>209</ele>
        <time>2022-06-22T09:17:06.000Z</time>
      </trkpt>
      <trkpt lat="46.73597" lon="2.94635">
        <ele>208.60000610352</ele>
        <time>2022-06-22T09:17:12.000Z</time>
      </trkpt>
      <trkpt lat="46.73587" lon="2.94697">
        <ele>211</ele>
        <time>2022-06-22T09:17:20.000Z</time>
      </trkpt>
      <trkpt lat="46.7358" lon="2.94763">
        <ele>210.39999389648</ele>
        <time>2022-06-22T09:17:28.000Z</time>
      </trkpt>
      <trkpt lat="46.73574" lon="2.94827">
        <ele>209.80000305176</ele>
        <time>2022-06-22T09:17:36.000Z</time>
      </trkpt>
      <trkpt lat="46.73566" lon="2.94906">
        <ele>208.39999389648</ele>
        <time>2022-06-22T09:17:46.000Z</time>
      </trkpt>
      <trkpt lat="46.73562" lon="2.94929">
        <ele>208</ele>
        <time>2022-06-22T09:17:49.000Z</time>
      </trkpt>
      <trkpt lat="46.73558" lon="2.9494">
        <ele>209</ele>
        <time>2022-06-22T09:17:51.000Z</time>
      </trkpt>
      <trkpt lat="46.73555" lon="2.94948">
        <ele>209.80000305176</ele>
        <time>2022-06-22T09:17:53.000Z</time>
      </trkpt>
      <trkpt lat="46.73555" lon="2.94953">
        <ele>209.80000305176</ele>
        <time>2022-06-22T09:17:54.000Z</time>
      </trkpt>
      <trkpt lat="46.73559" lon="2.94963">
        <ele>209.60000610352</ele>
        <time>2022-06-22T09:17:56.000Z</time>
      </trkpt>
      <trkpt lat="46.73564" lon="2.94975">
        <ele>209.39999389648</ele>
        <time>2022-06-22T09:17:58.000Z</time>
      </trkpt>
      <trkpt lat="46.73567" lon="2.94982">
        <ele>209.39999389648</ele>
        <time>2022-06-22T09:17:59.000Z</time>
      </trkpt>
      <trkpt lat="46.73578" lon="2.95003">
        <ele>208.39999389648</ele>
        <time>2022-06-22T09:18:02.000Z</time>
      </trkpt>
      <trkpt lat="46.73589" lon="2.95028">
        <ele>206.60000610352</ele>
        <time>2022-06-22T09:18:05.000Z</time>
      </trkpt>
      <trkpt lat="46.73602" lon="2.95055">
        <ele>203.60000610352</ele>
        <time>2022-06-22T09:18:08.000Z</time>
      </trkpt>
      <trkpt lat="46.73616" lon="2.95084">
        <ele>201.19999694824</ele>
        <time>2022-06-22T09:18:11.000Z</time>
      </trkpt>
      <trkpt lat="46.73634" lon="2.95121">
        <ele>201.80000305176</ele>
        <time>2022-06-22T09:18:15.000Z</time>
      </trkpt>
      <trkpt lat="46.73654" lon="2.95157">
        <ele>204.39999389648</ele>
        <time>2022-06-22T09:18:20.000Z</time>
      </trkpt>
      <trkpt lat="46.73658" lon="2.95163">
        <ele>205.19999694824</ele>
        <time>2022-06-22T09:18:21.000Z</time>
      </trkpt>
      <trkpt lat="46.73668" lon="2.95171">
        <ele>206</ele>
        <time>2022-06-22T09:18:23.000Z</time>
      </trkpt>
      <trkpt lat="46.73673" lon="2.95174">
        <ele>206.19999694824</ele>
        <time>2022-06-22T09:18:24.000Z</time>
      </trkpt>
      <trkpt lat="46.73684" lon="2.95178">
        <ele>206.39999389648</ele>
        <time>2022-06-22T09:18:26.000Z</time>
      </trkpt>
      <trkpt lat="46.73701" lon="2.95181">
        <ele>206.19999694824</ele>
        <time>2022-06-22T09:18:29.000Z</time>
      </trkpt>
      <trkpt lat="46.73713" lon="2.95182">
        <ele>205.39999389648</ele>
        <time>2022-06-22T09:18:31.000Z</time>
      </trkpt>
      <trkpt lat="46.73726" lon="2.95183">
        <ele>204.60000610352</ele>
        <time>2022-06-22T09:18:33.000Z</time>
      </trkpt>
      <trkpt lat="46.73732" lon="2.95184">
        <ele>204</ele>
        <time>2022-06-22T09:18:34.000Z</time>
      </trkpt>
      <trkpt lat="46.73769" lon="2.95189">
        <ele>200.60000610352</ele>
        <time>2022-06-22T09:18:40.000Z</time>
      </trkpt>
      <trkpt lat="46.73823" lon="2.95195">
        <ele>200.80000305176</ele>
        <time>2022-06-22T09:18:49.000Z</time>
      </trkpt>
      <trkpt lat="46.73858" lon="2.95208">
        <ele>204</ele>
        <time>2022-06-22T09:18:55.000Z</time>
      </trkpt>
      <trkpt lat="46.73876" lon="2.95225">
        <ele>204.60000610352</ele>
        <time>2022-06-22T09:18:59.000Z</time>
      </trkpt>
      <trkpt lat="46.7388" lon="2.95229">
        <ele>204.80000305176</ele>
        <time>2022-06-22T09:19:00.000Z</time>
      </trkpt>
      <trkpt lat="46.73897" lon="2.95259">
        <ele>205.19999694824</ele>
        <time>2022-06-22T09:19:06.000Z</time>
      </trkpt>
      <trkpt lat="46.739" lon="2.95263">
        <ele>205.19999694824</ele>
        <time>2022-06-22T09:19:07.000Z</time>
      </trkpt>
      <trkpt lat="46.73912" lon="2.95285">
        <ele>206.19999694824</ele>
        <time>2022-06-22T09:19:12.000Z</time>
      </trkpt>
      <trkpt lat="46.73915" lon="2.9529">
        <ele>206.39999389648</ele>
        <time>2022-06-22T09:19:13.000Z</time>
      </trkpt>
      <trkpt lat="46.73924" lon="2.95309">
        <ele>207</ele>
        <time>2022-06-22T09:19:17.000Z</time>
      </trkpt>
      <trkpt lat="46.73936" lon="2.95331">
        <ele>208.39999389648</ele>
        <time>2022-06-22T09:19:22.000Z</time>
      </trkpt>
      <trkpt lat="46.73941" lon="2.95339">
        <ele>209</ele>
        <time>2022-06-22T09:19:24.000Z</time>
      </trkpt>
      <trkpt lat="46.73954" lon="2.95362">
        <ele>209.60000610352</ele>
        <time>2022-06-22T09:19:29.000Z</time>
      </trkpt>
      <trkpt lat="46.73962" lon="2.95376">
        <ele>209.80000305176</ele>
        <time>2022-06-22T09:19:32.000Z</time>
      </trkpt>
      <trkpt lat="46.73972" lon="2.95393">
        <ele>209.80000305176</ele>
        <time>2022-06-22T09:19:36.000Z</time>
      </trkpt>
      <trkpt lat="46.73986" lon="2.95419">
        <ele>210.39999389648</ele>
        <time>2022-06-22T09:19:42.000Z</time>
      </trkpt>
      <trkpt lat="46.73991" lon="2.95428">
        <ele>210.80000305176</ele>
        <time>2022-06-22T09:19:44.000Z</time>
      </trkpt>
      <trkpt lat="46.74004" lon="2.9545">
        <ele>211.80000305176</ele>
        <time>2022-06-22T09:19:49.000Z</time>
      </trkpt>
      <trkpt lat="46.74011" lon="2.95463">
        <ele>212.39999389648</ele>
        <time>2022-06-22T09:19:52.000Z</time>
      </trkpt>
      <trkpt lat="46.74019" lon="2.95476">
        <ele>213.39999389648</ele>
        <time>2022-06-22T09:19:55.000Z</time>
      </trkpt>
      <trkpt lat="46.74038" lon="2.9551">
        <ele>214.19999694824</ele>
        <time>2022-06-22T09:20:03.000Z</time>
      </trkpt>
      <trkpt lat="46.74041" lon="2.95514">
        <ele>214.19999694824</ele>
        <time>2022-06-22T09:20:04.000Z</time>
      </trkpt>
      <trkpt lat="46.74055" lon="2.9554">
        <ele>214.80000305176</ele>
        <time>2022-06-22T09:20:10.000Z</time>
      </trkpt>
      <trkpt lat="46.74062" lon="2.95552">
        <ele>215.39999389648</ele>
        <time>2022-06-22T09:20:13.000Z</time>
      </trkpt>
      <trkpt lat="46.74074" lon="2.95573">
        <ele>216.60000610352</ele>
        <time>2022-06-22T09:20:18.000Z</time>
      </trkpt>
      <trkpt lat="46.74084" lon="2.95592">
        <ele>217.60000610352</ele>
        <time>2022-06-22T09:20:22.000Z</time>
      </trkpt>
      <trkpt lat="46.74101" lon="2.95622">
        <ele>218</ele>
        <time>2022-06-22T09:20:28.000Z</time>
      </trkpt>
      <trkpt lat="46.7411" lon="2.95637">
        <ele>218</ele>
        <time>2022-06-22T09:20:31.000Z</time>
      </trkpt>
      <trkpt lat="46.74122" lon="2.9566">
        <ele>217.80000305176</ele>
        <time>2022-06-22T09:20:35.000Z</time>
      </trkpt>
      <trkpt lat="46.74144" lon="2.95711">
        <ele>216.80000305176</ele>
        <time>2022-06-22T09:20:43.000Z</time>
      </trkpt>
      <trkpt lat="46.74148" lon="2.95726">
        <ele>216.60000610352</ele>
        <time>2022-06-22T09:20:45.000Z</time>
      </trkpt>
      <trkpt lat="46.74157" lon="2.95766">
        <ele>216.19999694824</ele>
        <time>2022-06-22T09:20:50.000Z</time>
      </trkpt>
      <trkpt lat="46.74159" lon="2.95784">
        <ele>216.19999694824</ele>
        <time>2022-06-22T09:20:52.000Z</time>
      </trkpt>
      <trkpt lat="46.7416" lon="2.95821">
        <ele>217</ele>
        <time>2022-06-22T09:20:56.000Z</time>
      </trkpt>
      <trkpt lat="46.74166" lon="2.95881">
        <ele>217.80000305176</ele>
        <time>2022-06-22T09:21:03.000Z</time>
      </trkpt>
      <trkpt lat="46.7417" lon="2.95923">
        <ele>219.80000305176</ele>
        <time>2022-06-22T09:21:09.000Z</time>
      </trkpt>
      <trkpt lat="46.7417" lon="2.95938">
        <ele>220.80000305176</ele>
        <time>2022-06-22T09:21:11.000Z</time>
      </trkpt>
      <trkpt lat="46.74172" lon="2.95953">
        <ele>221.80000305176</ele>
        <time>2022-06-22T09:21:13.000Z</time>
      </trkpt>
      <trkpt lat="46.74173" lon="2.95968">
        <ele>222.39999389648</ele>
        <time>2022-06-22T09:21:15.000Z</time>
      </trkpt>
      <trkpt lat="46.74173" lon="2.95983">
        <ele>223</ele>
        <time>2022-06-22T09:21:17.000Z</time>
      </trkpt>
      <trkpt lat="46.74174" lon="2.9599">
        <ele>223</ele>
        <time>2022-06-22T09:21:18.000Z</time>
      </trkpt>
      <trkpt lat="46.74176" lon="2.96032">
        <ele>222.19999694824</ele>
        <time>2022-06-22T09:21:24.000Z</time>
      </trkpt>
      <trkpt lat="46.74176" lon="2.96039">
        <ele>222</ele>
        <time>2022-06-22T09:21:25.000Z</time>
      </trkpt>
      <trkpt lat="46.74178" lon="2.96047">
        <ele>221.80000305176</ele>
        <time>2022-06-22T09:21:26.000Z</time>
      </trkpt>
      <trkpt lat="46.7418" lon="2.96061">
        <ele>221.80000305176</ele>
        <time>2022-06-22T09:21:28.000Z</time>
      </trkpt>
      <trkpt lat="46.74181" lon="2.96068">
        <ele>221.80000305176</ele>
        <time>2022-06-22T09:21:29.000Z</time>
      </trkpt>
      <trkpt lat="46.74184" lon="2.96089">
        <ele>222.39999389648</ele>
        <time>2022-06-22T09:21:32.000Z</time>
      </trkpt>
      <trkpt lat="46.74186" lon="2.96096">
        <ele>222.60000610352</ele>
        <time>2022-06-22T09:21:33.000Z</time>
      </trkpt>
      <trkpt lat="46.74189" lon="2.96117">
        <ele>223</ele>
        <time>2022-06-22T09:21:36.000Z</time>
      </trkpt>
      <trkpt lat="46.74193" lon="2.96131">
        <ele>223.19999694824</ele>
        <time>2022-06-22T09:21:38.000Z</time>
      </trkpt>
      <trkpt lat="46.74203" lon="2.96161">
        <ele>224.19999694824</ele>
        <time>2022-06-22T09:21:42.000Z</time>
      </trkpt>
      <trkpt lat="46.74212" lon="2.96183">
        <ele>224.60000610352</ele>
        <time>2022-06-22T09:21:45.000Z</time>
      </trkpt>
      <trkpt lat="46.74221" lon="2.96206">
        <ele>224.19999694824</ele>
        <time>2022-06-22T09:21:48.000Z</time>
      </trkpt>
      <trkpt lat="46.74245" lon="2.96257">
        <ele>222.60000610352</ele>
        <time>2022-06-22T09:21:55.000Z</time>
      </trkpt>
      <trkpt lat="46.74254" lon="2.96279">
        <ele>222</ele>
        <time>2022-06-22T09:21:58.000Z</time>
      </trkpt>
      <trkpt lat="46.74279" lon="2.96345">
        <ele>220.19999694824</ele>
        <time>2022-06-22T09:22:06.000Z</time>
      </trkpt>
      <trkpt lat="46.74292" lon="2.96389">
        <ele>219.39999389648</ele>
        <time>2022-06-22T09:22:11.000Z</time>
      </trkpt>
      <trkpt lat="46.74303" lon="2.96425">
        <ele>218.39999389648</ele>
        <time>2022-06-22T09:22:15.000Z</time>
      </trkpt>
      <trkpt lat="46.74305" lon="2.96435">
        <ele>218</ele>
        <time>2022-06-22T09:22:16.000Z</time>
      </trkpt>
      <trkpt lat="46.7432" lon="2.96491">
        <ele>216.39999389648</ele>
        <time>2022-06-22T09:22:22.000Z</time>
      </trkpt>
      <trkpt lat="46.74329" lon="2.9652">
        <ele>215.39999389648</ele>
        <time>2022-06-22T09:22:25.000Z</time>
      </trkpt>
      <trkpt lat="46.74339" lon="2.96557">
        <ele>214.39999389648</ele>
        <time>2022-06-22T09:22:29.000Z</time>
      </trkpt>
      <trkpt lat="46.74353" lon="2.96612">
        <ele>214.39999389648</ele>
        <time>2022-06-22T09:22:35.000Z</time>
      </trkpt>
      <trkpt lat="46.74369" lon="2.96668">
        <ele>216.60000610352</ele>
        <time>2022-06-22T09:22:42.000Z</time>
      </trkpt>
      <trkpt lat="46.74382" lon="2.96712">
        <ele>218.60000610352</ele>
        <time>2022-06-22T09:22:48.000Z</time>
      </trkpt>
      <trkpt lat="46.74386" lon="2.96726">
        <ele>219.60000610352</ele>
        <time>2022-06-22T09:22:50.000Z</time>
      </trkpt>
      <trkpt lat="46.74391" lon="2.96747">
        <ele>220.60000610352</ele>
        <time>2022-06-22T09:22:53.000Z</time>
      </trkpt>
      <trkpt lat="46.74403" lon="2.96789">
        <ele>221.19999694824</ele>
        <time>2022-06-22T09:22:59.000Z</time>
      </trkpt>
      <trkpt lat="46.74407" lon="2.96803">
        <ele>221.39999389648</ele>
        <time>2022-06-22T09:23:01.000Z</time>
      </trkpt>
      <trkpt lat="46.74415" lon="2.96832">
        <ele>221.60000610352</ele>
        <time>2022-06-22T09:23:05.000Z</time>
      </trkpt>
      <trkpt lat="46.74417" lon="2.96839">
        <ele>221.80000305176</ele>
        <time>2022-06-22T09:23:06.000Z</time>
      </trkpt>
      <trkpt lat="46.74421" lon="2.96854">
        <ele>222</ele>
        <time>2022-06-22T09:23:08.000Z</time>
      </trkpt>
      <trkpt lat="46.7443" lon="2.96883">
        <ele>222.19999694824</ele>
        <time>2022-06-22T09:23:12.000Z</time>
      </trkpt>
      <trkpt lat="46.7444" lon="2.96922">
        <ele>222.19999694824</ele>
        <time>2022-06-22T09:23:17.000Z</time>
      </trkpt>
      <trkpt lat="46.74458" lon="2.96997">
        <ele>221.80000305176</ele>
        <time>2022-06-22T09:23:26.000Z</time>
      </trkpt>
      <trkpt lat="46.74467" lon="2.97069">
        <ele>220.39999389648</ele>
        <time>2022-06-22T09:23:34.000Z</time>
      </trkpt>
      <trkpt lat="46.74471" lon="2.97114">
        <ele>219.19999694824</ele>
        <time>2022-06-22T09:23:39.000Z</time>
      </trkpt>
      <trkpt lat="46.74472" lon="2.97131">
        <ele>219</ele>
        <time>2022-06-22T09:23:41.000Z</time>
      </trkpt>
      <trkpt lat="46.74477" lon="2.97194">
        <ele>217.39999389648</ele>
        <time>2022-06-22T09:23:48.000Z</time>
      </trkpt>
      <trkpt lat="46.74479" lon="2.97213">
        <ele>216.80000305176</ele>
        <time>2022-06-22T09:23:50.000Z</time>
      </trkpt>
      <trkpt lat="46.74484" lon="2.97272">
        <ele>214.39999389648</ele>
        <time>2022-06-22T09:23:56.000Z</time>
      </trkpt>
      <trkpt lat="46.74485" lon="2.97293">
        <ele>213.80000305176</ele>
        <time>2022-06-22T09:23:58.000Z</time>
      </trkpt>
      <trkpt lat="46.74487" lon="2.97314">
        <ele>213.80000305176</ele>
        <time>2022-06-22T09:24:00.000Z</time>
      </trkpt>
      <trkpt lat="46.74491" lon="2.97367">
        <ele>212.60000610352</ele>
        <time>2022-06-22T09:24:05.000Z</time>
      </trkpt>
      <trkpt lat="46.74492" lon="2.97378">
        <ele>212.39999389648</ele>
        <time>2022-06-22T09:24:06.000Z</time>
      </trkpt>
      <trkpt lat="46.74495" lon="2.97411">
        <ele>211.19999694824</ele>
        <time>2022-06-22T09:24:09.000Z</time>
      </trkpt>
      <trkpt lat="46.74499" lon="2.97459">
        <ele>209.19999694824</ele>
        <time>2022-06-22T09:24:13.000Z</time>
      </trkpt>
      <trkpt lat="46.74501" lon="2.97472">
        <ele>208.19999694824</ele>
        <time>2022-06-22T09:24:14.000Z</time>
      </trkpt>
      <trkpt lat="46.74507" lon="2.97525">
        <ele>206.60000610352</ele>
        <time>2022-06-22T09:24:18.000Z</time>
      </trkpt>
      <trkpt lat="46.7451" lon="2.97539">
        <ele>206</ele>
        <time>2022-06-22T09:24:19.000Z</time>
      </trkpt>
      <trkpt lat="46.74516" lon="2.97566">
        <ele>205.39999389648</ele>
        <time>2022-06-22T09:24:21.000Z</time>
      </trkpt>
      <trkpt lat="46.74525" lon="2.97607">
        <ele>203.19999694824</ele>
        <time>2022-06-22T09:24:24.000Z</time>
      </trkpt>
      <trkpt lat="46.74529" lon="2.9762">
        <ele>202.60000610352</ele>
        <time>2022-06-22T09:24:25.000Z</time>
      </trkpt>
      <trkpt lat="46.74536" lon="2.97647">
        <ele>201.19999694824</ele>
        <time>2022-06-22T09:24:27.000Z</time>
      </trkpt>
      <trkpt lat="46.74546" lon="2.97687">
        <ele>200.19999694824</ele>
        <time>2022-06-22T09:24:30.000Z</time>
      </trkpt>
      <trkpt lat="46.74552" lon="2.97713">
        <ele>199.39999389648</ele>
        <time>2022-06-22T09:24:32.000Z</time>
      </trkpt>
      <trkpt lat="46.74558" lon="2.97736">
        <ele>199.19999694824</ele>
        <time>2022-06-22T09:24:34.000Z</time>
      </trkpt>
      <trkpt lat="46.74567" lon="2.9777">
        <ele>199.39999389648</ele>
        <time>2022-06-22T09:24:37.000Z</time>
      </trkpt>
      <trkpt lat="46.74571" lon="2.97791">
        <ele>200.19999694824</ele>
        <time>2022-06-22T09:24:39.000Z</time>
      </trkpt>
      <trkpt lat="46.74576" lon="2.97839">
        <ele>202</ele>
        <time>2022-06-22T09:24:44.000Z</time>
      </trkpt>
      <trkpt lat="46.74578" lon="2.97885">
        <ele>202.80000305176</ele>
        <time>2022-06-22T09:24:50.000Z</time>
      </trkpt>
      <trkpt lat="46.74579" lon="2.97907">
        <ele>203.19999694824</ele>
        <time>2022-06-22T09:24:53.000Z</time>
      </trkpt>
      <trkpt lat="46.74581" lon="2.97927">
        <ele>204.80000305176</ele>
        <time>2022-06-22T09:24:56.000Z</time>
      </trkpt>
      <trkpt lat="46.74582" lon="2.97933">
        <ele>205.19999694824</ele>
        <time>2022-06-22T09:24:57.000Z</time>
      </trkpt>
      <trkpt lat="46.74583" lon="2.97939">
        <ele>205.60000610352</ele>
        <time>2022-06-22T09:24:58.000Z</time>
      </trkpt>
      <trkpt lat="46.74585" lon="2.97952">
        <ele>206.19999694824</ele>
        <time>2022-06-22T09:25:00.000Z</time>
      </trkpt>
      <trkpt lat="46.74588" lon="2.97964">
        <ele>207</ele>
        <time>2022-06-22T09:25:02.000Z</time>
      </trkpt>
      <trkpt lat="46.74589" lon="2.97971">
        <ele>207.39999389648</ele>
        <time>2022-06-22T09:25:03.000Z</time>
      </trkpt>
      <trkpt lat="46.74593" lon="2.97983">
        <ele>208.19999694824</ele>
        <time>2022-06-22T09:25:05.000Z</time>
      </trkpt>
      <trkpt lat="46.74598" lon="2.97995">
        <ele>208.80000305176</ele>
        <time>2022-06-22T09:25:07.000Z</time>
      </trkpt>
      <trkpt lat="46.74601" lon="2.98001">
        <ele>209.19999694824</ele>
        <time>2022-06-22T09:25:08.000Z</time>
      </trkpt>
      <trkpt lat="46.74604" lon="2.98006">
        <ele>209.60000610352</ele>
        <time>2022-06-22T09:25:09.000Z</time>
      </trkpt>
      <trkpt lat="46.74613" lon="2.9802">
        <ele>210.39999389648</ele>
        <time>2022-06-22T09:25:12.000Z</time>
      </trkpt>
      <trkpt lat="46.74623" lon="2.98035">
        <ele>211</ele>
        <time>2022-06-22T09:25:15.000Z</time>
      </trkpt>
      <trkpt lat="46.74633" lon="2.9805">
        <ele>211</ele>
        <time>2022-06-22T09:25:18.000Z</time>
      </trkpt>
      <trkpt lat="46.7465" lon="2.98077">
        <ele>211.39999389648</ele>
        <time>2022-06-22T09:25:23.000Z</time>
      </trkpt>
      <trkpt lat="46.7466" lon="2.98092">
        <ele>212.39999389648</ele>
        <time>2022-06-22T09:25:26.000Z</time>
      </trkpt>
      <trkpt lat="46.74673" lon="2.98111">
        <ele>214</ele>
        <time>2022-06-22T09:25:30.000Z</time>
      </trkpt>
      <trkpt lat="46.74676" lon="2.98116">
        <ele>214.39999389648</ele>
        <time>2022-06-22T09:25:31.000Z</time>
      </trkpt>
      <trkpt lat="46.74687" lon="2.98131">
        <ele>215.19999694824</ele>
        <time>2022-06-22T09:25:34.000Z</time>
      </trkpt>
      <trkpt lat="46.747" lon="2.98153">
        <ele>216</ele>
        <time>2022-06-22T09:25:38.000Z</time>
      </trkpt>
      <trkpt lat="46.74707" lon="2.98163">
        <ele>216.39999389648</ele>
        <time>2022-06-22T09:25:40.000Z</time>
      </trkpt>
      <trkpt lat="46.74737" lon="2.98209">
        <ele>218.19999694824</ele>
        <time>2022-06-22T09:25:49.000Z</time>
      </trkpt>
      <trkpt lat="46.7474" lon="2.98214">
        <ele>218.39999389648</ele>
        <time>2022-06-22T09:25:50.000Z</time>
      </trkpt>
      <trkpt lat="46.74761" lon="2.98246">
        <ele>218.60000610352</ele>
        <time>2022-06-22T09:25:56.000Z</time>
      </trkpt>
      <trkpt lat="46.74768" lon="2.98256">
        <ele>218.19999694824</ele>
        <time>2022-06-22T09:25:58.000Z</time>
      </trkpt>
      <trkpt lat="46.74802" lon="2.98309">
        <ele>217.39999389648</ele>
        <time>2022-06-22T09:26:08.000Z</time>
      </trkpt>
      <trkpt lat="46.74813" lon="2.98325">
        <ele>217.19999694824</ele>
        <time>2022-06-22T09:26:11.000Z</time>
      </trkpt>
      <trkpt lat="46.7484" lon="2.98367">
        <ele>219</ele>
        <time>2022-06-22T09:26:19.000Z</time>
      </trkpt>
      <trkpt lat="46.74844" lon="2.98373">
        <ele>219.19999694824</ele>
        <time>2022-06-22T09:26:20.000Z</time>
      </trkpt>
      <trkpt lat="46.74876" lon="2.98416">
        <ele>220.80000305176</ele>
        <time>2022-06-22T09:26:29.000Z</time>
      </trkpt>
      <trkpt lat="46.74901" lon="2.98449">
        <ele>222.80000305176</ele>
        <time>2022-06-22T09:26:36.000Z</time>
      </trkpt>
      <trkpt lat="46.74912" lon="2.98463">
        <ele>223.80000305176</ele>
        <time>2022-06-22T09:26:39.000Z</time>
      </trkpt>
      <trkpt lat="46.74916" lon="2.98468">
        <ele>224.19999694824</ele>
        <time>2022-06-22T09:26:40.000Z</time>
      </trkpt>
      <trkpt lat="46.74939" lon="2.98494">
        <ele>225.80000305176</ele>
        <time>2022-06-22T09:26:46.000Z</time>
      </trkpt>
      <trkpt lat="46.74949" lon="2.98509">
        <ele>226</ele>
        <time>2022-06-22T09:26:49.000Z</time>
      </trkpt>
      <trkpt lat="46.74956" lon="2.98518">
        <ele>226.39999389648</ele>
        <time>2022-06-22T09:26:51.000Z</time>
      </trkpt>
      <trkpt lat="46.7497" lon="2.98536">
        <ele>227.39999389648</ele>
        <time>2022-06-22T09:26:55.000Z</time>
      </trkpt>
      <trkpt lat="46.74974" lon="2.98541">
        <ele>227.60000610352</ele>
        <time>2022-06-22T09:26:56.000Z</time>
      </trkpt>
      <trkpt lat="46.74993" lon="2.98562">
        <ele>230</ele>
        <time>2022-06-22T09:27:01.000Z</time>
      </trkpt>
      <trkpt lat="46.75003" lon="2.98577">
        <ele>231.19999694824</ele>
        <time>2022-06-22T09:27:04.000Z</time>
      </trkpt>
      <trkpt lat="46.75007" lon="2.98581">
        <ele>231.39999389648</ele>
        <time>2022-06-22T09:27:05.000Z</time>
      </trkpt>
      <trkpt lat="46.75022" lon="2.986">
        <ele>232</ele>
        <time>2022-06-22T09:27:09.000Z</time>
      </trkpt>
      <trkpt lat="46.7503" lon="2.9861">
        <ele>232</ele>
        <time>2022-06-22T09:27:11.000Z</time>
      </trkpt>
      <trkpt lat="46.75054" lon="2.98643">
        <ele>232</ele>
        <time>2022-06-22T09:27:17.000Z</time>
      </trkpt>
      <trkpt lat="46.75078" lon="2.98691">
        <ele>232.39999389648</ele>
        <time>2022-06-22T09:27:24.000Z</time>
      </trkpt>
      <trkpt lat="46.75107" lon="2.98755">
        <ele>230.80000305176</ele>
        <time>2022-06-22T09:27:33.000Z</time>
      </trkpt>
      <trkpt lat="46.75136" lon="2.98822">
        <ele>228.80000305176</ele>
        <time>2022-06-22T09:27:42.000Z</time>
      </trkpt>
      <trkpt lat="46.75167" lon="2.98889">
        <ele>229.80000305176</ele>
        <time>2022-06-22T09:27:51.000Z</time>
      </trkpt>
      <trkpt lat="46.75173" lon="2.98903">
        <ele>230</ele>
        <time>2022-06-22T09:27:53.000Z</time>
      </trkpt>
      <trkpt lat="46.75203" lon="2.9897">
        <ele>229.60000610352</ele>
        <time>2022-06-22T09:28:02.000Z</time>
      </trkpt>
      <trkpt lat="46.75207" lon="2.98978">
        <ele>229.19999694824</ele>
        <time>2022-06-22T09:28:03.000Z</time>
      </trkpt>
      <trkpt lat="46.75224" lon="2.99015">
        <ele>229</ele>
        <time>2022-06-22T09:28:08.000Z</time>
      </trkpt>
      <trkpt lat="46.75234" lon="2.99038">
        <ele>228</ele>
        <time>2022-06-22T09:28:11.000Z</time>
      </trkpt>
      <trkpt lat="46.75254" lon="2.99084">
        <ele>226.19999694824</ele>
        <time>2022-06-22T09:28:17.000Z</time>
      </trkpt>
      <trkpt lat="46.75257" lon="2.99091">
        <ele>226</ele>
        <time>2022-06-22T09:28:18.000Z</time>
      </trkpt>
      <trkpt lat="46.75288" lon="2.99161">
        <ele>226.80000305176</ele>
        <time>2022-06-22T09:28:27.000Z</time>
      </trkpt>
      <trkpt lat="46.75316" lon="2.99223">
        <ele>226.19999694824</ele>
        <time>2022-06-22T09:28:35.000Z</time>
      </trkpt>
      <trkpt lat="46.7533" lon="2.99255">
        <ele>226.60000610352</ele>
        <time>2022-06-22T09:28:39.000Z</time>
      </trkpt>
      <trkpt lat="46.75359" lon="2.99319">
        <ele>225.39999389648</ele>
        <time>2022-06-22T09:28:47.000Z</time>
      </trkpt>
      <trkpt lat="46.7537" lon="2.99344">
        <ele>224</ele>
        <time>2022-06-22T09:28:50.000Z</time>
      </trkpt>
      <trkpt lat="46.754" lon="2.9941">
        <ele>222.80000305176</ele>
        <time>2022-06-22T09:28:58.000Z</time>
      </trkpt>
      <trkpt lat="46.75422" lon="2.9946">
        <ele>221</ele>
        <time>2022-06-22T09:29:04.000Z</time>
      </trkpt>
      <trkpt lat="46.7543" lon="2.99477">
        <ele>221.19999694824</ele>
        <time>2022-06-22T09:29:06.000Z</time>
      </trkpt>
      <trkpt lat="46.75462" lon="2.99551">
        <ele>222.60000610352</ele>
        <time>2022-06-22T09:29:15.000Z</time>
      </trkpt>
      <trkpt lat="46.75466" lon="2.99558">
        <ele>222.39999389648</ele>
        <time>2022-06-22T09:29:16.000Z</time>
      </trkpt>
      <trkpt lat="46.75495" lon="2.99622">
        <ele>220.60000610352</ele>
        <time>2022-06-22T09:29:24.000Z</time>
      </trkpt>
      <trkpt lat="46.75502" lon="2.99637">
        <ele>220.19999694824</ele>
        <time>2022-06-22T09:29:26.000Z</time>
      </trkpt>
      <trkpt lat="46.75534" lon="2.99706">
        <ele>221</ele>
        <time>2022-06-22T09:29:35.000Z</time>
      </trkpt>
      <trkpt lat="46.75559" lon="2.99768">
        <ele>222</ele>
        <time>2022-06-22T09:29:43.000Z</time>
      </trkpt>
      <trkpt lat="46.75585" lon="2.99838">
        <ele>224.80000305176</ele>
        <time>2022-06-22T09:29:52.000Z</time>
      </trkpt>
      <trkpt lat="46.75608" lon="2.9991">
        <ele>225.39999389648</ele>
        <time>2022-06-22T09:30:01.000Z</time>
      </trkpt>
      <trkpt lat="46.75611" lon="2.99918">
        <ele>225.19999694824</ele>
        <time>2022-06-22T09:30:02.000Z</time>
      </trkpt>
      <trkpt lat="46.75631" lon="2.99973">
        <ele>227.39999389648</ele>
        <time>2022-06-22T09:30:09.000Z</time>
      </trkpt>
      <trkpt lat="46.75638" lon="2.99996">
        <ele>227.80000305176</ele>
        <time>2022-06-22T09:30:12.000Z</time>
      </trkpt>
      <trkpt lat="46.75644" lon="3.0002">
        <ele>228</ele>
        <time>2022-06-22T09:30:15.000Z</time>
      </trkpt>
      <trkpt lat="46.7565" lon="3.00042">
        <ele>228</ele>
        <time>2022-06-22T09:30:18.000Z</time>
      </trkpt>
      <trkpt lat="46.75654" lon="3.00058">
        <ele>227.60000610352</ele>
        <time>2022-06-22T09:30:20.000Z</time>
      </trkpt>
      <trkpt lat="46.75668" lon="3.00114">
        <ele>227.80000305176</ele>
        <time>2022-06-22T09:30:27.000Z</time>
      </trkpt>
      <trkpt lat="46.75672" lon="3.00137">
        <ele>227</ele>
        <time>2022-06-22T09:30:30.000Z</time>
      </trkpt>
      <trkpt lat="46.75675" lon="3.00153">
        <ele>226</ele>
        <time>2022-06-22T09:30:32.000Z</time>
      </trkpt>
      <trkpt lat="46.75687" lon="3.00219">
        <ele>225.39999389648</ele>
        <time>2022-06-22T09:30:39.000Z</time>
      </trkpt>
      <trkpt lat="46.75696" lon="3.00268">
        <ele>226.80000305176</ele>
        <time>2022-06-22T09:30:45.000Z</time>
      </trkpt>
      <trkpt lat="46.75705" lon="3.00323">
        <ele>225.60000610352</ele>
        <time>2022-06-22T09:30:51.000Z</time>
      </trkpt>
      <trkpt lat="46.75714" lon="3.00372">
        <ele>224.80000305176</ele>
        <time>2022-06-22T09:30:57.000Z</time>
      </trkpt>
      <trkpt lat="46.75722" lon="3.00427">
        <ele>225.39999389648</ele>
        <time>2022-06-22T09:31:04.000Z</time>
      </trkpt>
      <trkpt lat="46.75725" lon="3.00443">
        <ele>225.80000305176</ele>
        <time>2022-06-22T09:31:06.000Z</time>
      </trkpt>
      <trkpt lat="46.75732" lon="3.00475">
        <ele>226.19999694824</ele>
        <time>2022-06-22T09:31:10.000Z</time>
      </trkpt>
      <trkpt lat="46.75737" lon="3.00508">
        <ele>226.39999389648</ele>
        <time>2022-06-22T09:31:14.000Z</time>
      </trkpt>
      <trkpt lat="46.75739" lon="3.00524">
        <ele>226.19999694824</ele>
        <time>2022-06-22T09:31:16.000Z</time>
      </trkpt>
      <trkpt lat="46.7575" lon="3.00585">
        <ele>225</ele>
        <time>2022-06-22T09:31:23.000Z</time>
      </trkpt>
      <trkpt lat="46.75753" lon="3.00614">
        <ele>225.19999694824</ele>
        <time>2022-06-22T09:31:26.000Z</time>
      </trkpt>
      <trkpt lat="46.75758" lon="3.00644">
        <ele>226.19999694824</ele>
        <time>2022-06-22T09:31:29.000Z</time>
      </trkpt>
      <trkpt lat="46.75769" lon="3.00689">
        <ele>226</ele>
        <time>2022-06-22T09:31:34.000Z</time>
      </trkpt>
      <trkpt lat="46.75782" lon="3.00753">
        <ele>226.39999389648</ele>
        <time>2022-06-22T09:31:41.000Z</time>
      </trkpt>
      <trkpt lat="46.75788" lon="3.00777">
        <ele>225.60000610352</ele>
        <time>2022-06-22T09:31:44.000Z</time>
      </trkpt>
      <trkpt lat="46.75797" lon="3.0082">
        <ele>224.19999694824</ele>
        <time>2022-06-22T09:31:49.000Z</time>
      </trkpt>
      <trkpt lat="46.75805" lon="3.00863">
        <ele>222.80000305176</ele>
        <time>2022-06-22T09:31:54.000Z</time>
      </trkpt>
      <trkpt lat="46.75806" lon="3.00872">
        <ele>222.60000610352</ele>
        <time>2022-06-22T09:31:55.000Z</time>
      </trkpt>
      <trkpt lat="46.7581" lon="3.00934">
        <ele>220.19999694824</ele>
        <time>2022-06-22T09:32:02.000Z</time>
      </trkpt>
      <trkpt lat="46.75812" lon="3.0097">
        <ele>219.60000610352</ele>
        <time>2022-06-22T09:32:06.000Z</time>
      </trkpt>
      <trkpt lat="46.75814" lon="3.01013">
        <ele>219</ele>
        <time>2022-06-22T09:32:11.000Z</time>
      </trkpt>
      <trkpt lat="46.7582" lon="3.01095">
        <ele>217.80000305176</ele>
        <time>2022-06-22T09:32:20.000Z</time>
      </trkpt>
      <trkpt lat="46.75826" lon="3.01166">
        <ele>217.60000610352</ele>
        <time>2022-06-22T09:32:28.000Z</time>
      </trkpt>
      <trkpt lat="46.75835" lon="3.012">
        <ele>216.39999389648</ele>
        <time>2022-06-22T09:32:32.000Z</time>
      </trkpt>
      <trkpt lat="46.75842" lon="3.01218">
        <ele>216</ele>
        <time>2022-06-22T09:32:34.000Z</time>
      </trkpt>
      <trkpt lat="46.75857" lon="3.01252">
        <ele>215.39999389648</ele>
        <time>2022-06-22T09:32:38.000Z</time>
      </trkpt>
      <trkpt lat="46.75869" lon="3.0128">
        <ele>215</ele>
        <time>2022-06-22T09:32:41.000Z</time>
      </trkpt>
      <trkpt lat="46.75878" lon="3.01299">
        <ele>214.39999389648</ele>
        <time>2022-06-22T09:32:43.000Z</time>
      </trkpt>
      <trkpt lat="46.75892" lon="3.01329">
        <ele>212.80000305176</ele>
        <time>2022-06-22T09:32:46.000Z</time>
      </trkpt>
      <trkpt lat="46.75905" lon="3.0136">
        <ele>211.60000610352</ele>
        <time>2022-06-22T09:32:49.000Z</time>
      </trkpt>
      <trkpt lat="46.7591" lon="3.0137">
        <ele>211.19999694824</ele>
        <time>2022-06-22T09:32:50.000Z</time>
      </trkpt>
      <trkpt lat="46.75923" lon="3.014">
        <ele>211</ele>
        <time>2022-06-22T09:32:53.000Z</time>
      </trkpt>
      <trkpt lat="46.75936" lon="3.01429">
        <ele>210.60000610352</ele>
        <time>2022-06-22T09:32:56.000Z</time>
      </trkpt>
      <trkpt lat="46.75948" lon="3.01455">
        <ele>211</ele>
        <time>2022-06-22T09:32:59.000Z</time>
      </trkpt>
      <trkpt lat="46.75952" lon="3.01463">
        <ele>211</ele>
        <time>2022-06-22T09:33:00.000Z</time>
      </trkpt>
      <trkpt lat="46.75956" lon="3.01471">
        <ele>211</ele>
        <time>2022-06-22T09:33:01.000Z</time>
      </trkpt>
      <trkpt lat="46.75981" lon="3.01536">
        <ele>213.60000610352</ele>
        <time>2022-06-22T09:33:09.000Z</time>
      </trkpt>
      <trkpt lat="46.75996" lon="3.01575">
        <ele>216.39999389648</ele>
        <time>2022-06-22T09:33:15.000Z</time>
      </trkpt>
      <trkpt lat="46.76004" lon="3.01594">
        <ele>217.80000305176</ele>
        <time>2022-06-22T09:33:18.000Z</time>
      </trkpt>
      <trkpt lat="46.76007" lon="3.016">
        <ele>218</ele>
        <time>2022-06-22T09:33:19.000Z</time>
      </trkpt>
      <trkpt lat="46.76013" lon="3.01611">
        <ele>218.19999694824</ele>
        <time>2022-06-22T09:33:21.000Z</time>
      </trkpt>
      <trkpt lat="46.76019" lon="3.01622">
        <ele>218.39999389648</ele>
        <time>2022-06-22T09:33:23.000Z</time>
      </trkpt>
      <trkpt lat="46.76031" lon="3.01641">
        <ele>218.19999694824</ele>
        <time>2022-06-22T09:33:27.000Z</time>
      </trkpt>
      <trkpt lat="46.76035" lon="3.01645">
        <ele>218</ele>
        <time>2022-06-22T09:33:28.000Z</time>
      </trkpt>
      <trkpt lat="46.76048" lon="3.01663">
        <ele>217.60000610352</ele>
        <time>2022-06-22T09:33:32.000Z</time>
      </trkpt>
      <trkpt lat="46.76065" lon="3.0169">
        <ele>217</ele>
        <time>2022-06-22T09:33:37.000Z</time>
      </trkpt>
      <trkpt lat="46.76068" lon="3.01695">
        <ele>217</ele>
        <time>2022-06-22T09:33:38.000Z</time>
      </trkpt>
      <trkpt lat="46.76071" lon="3.01702">
        <ele>217</ele>
        <time>2022-06-22T09:33:39.000Z</time>
      </trkpt>
      <trkpt lat="46.76083" lon="3.01733">
        <ele>217.80000305176</ele>
        <time>2022-06-22T09:33:44.000Z</time>
      </trkpt>
      <trkpt lat="46.76096" lon="3.01782">
        <ele>218.80000305176</ele>
        <time>2022-06-22T09:33:51.000Z</time>
      </trkpt>
      <trkpt lat="46.76101" lon="3.01834">
        <ele>218</ele>
        <time>2022-06-22T09:33:58.000Z</time>
      </trkpt>
      <trkpt lat="46.76104" lon="3.01891">
        <ele>217.39999389648</ele>
        <time>2022-06-22T09:34:05.000Z</time>
      </trkpt>
      <trkpt lat="46.76112" lon="3.01951">
        <ele>216</ele>
        <time>2022-06-22T09:34:12.000Z</time>
      </trkpt>
      <trkpt lat="46.7612" lon="3.01986">
        <ele>215</ele>
        <time>2022-06-22T09:34:16.000Z</time>
      </trkpt>
      <trkpt lat="46.7613" lon="3.0202">
        <ele>214</ele>
        <time>2022-06-22T09:34:20.000Z</time>
      </trkpt>
      <trkpt lat="46.76133" lon="3.02029">
        <ele>214</ele>
        <time>2022-06-22T09:34:21.000Z</time>
      </trkpt>
      <trkpt lat="46.76153" lon="3.02089">
        <ele>213.80000305176</ele>
        <time>2022-06-22T09:34:28.000Z</time>
      </trkpt>
      <trkpt lat="46.76159" lon="3.02108">
        <ele>213.60000610352</ele>
        <time>2022-06-22T09:34:30.000Z</time>
      </trkpt>
      <trkpt lat="46.76166" lon="3.02137">
        <ele>212.19999694824</ele>
        <time>2022-06-22T09:34:33.000Z</time>
      </trkpt>
      <trkpt lat="46.76183" lon="3.02212">
        <ele>210.60000610352</ele>
        <time>2022-06-22T09:34:41.000Z</time>
      </trkpt>
      <trkpt lat="46.76184" lon="3.02222">
        <ele>210.80000305176</ele>
        <time>2022-06-22T09:34:42.000Z</time>
      </trkpt>
      <trkpt lat="46.76193" lon="3.02271">
        <ele>210.80000305176</ele>
        <time>2022-06-22T09:34:47.000Z</time>
      </trkpt>
      <trkpt lat="46.76196" lon="3.02291">
        <ele>210.80000305176</ele>
        <time>2022-06-22T09:34:49.000Z</time>
      </trkpt>
      <trkpt lat="46.76199" lon="3.02354">
        <ele>208.60000610352</ele>
        <time>2022-06-22T09:34:55.000Z</time>
      </trkpt>
      <trkpt lat="46.76199" lon="3.02365">
        <ele>207.80000305176</ele>
        <time>2022-06-22T09:34:56.000Z</time>
      </trkpt>
      <trkpt lat="46.76201" lon="3.02421">
        <ele>205.39999389648</ele>
        <time>2022-06-22T09:35:01.000Z</time>
      </trkpt>
      <trkpt lat="46.76203" lon="3.02457">
        <ele>203.80000305176</ele>
        <time>2022-06-22T09:35:04.000Z</time>
      </trkpt>
      <trkpt lat="46.7621" lon="3.02493">
        <ele>202.80000305176</ele>
        <time>2022-06-22T09:35:07.000Z</time>
      </trkpt>
      <trkpt lat="46.76214" lon="3.02505">
        <ele>202.39999389648</ele>
        <time>2022-06-22T09:35:08.000Z</time>
      </trkpt>
      <trkpt lat="46.76227" lon="3.02541">
        <ele>202.39999389648</ele>
        <time>2022-06-22T09:35:11.000Z</time>
      </trkpt>
      <trkpt lat="46.7624" lon="3.02578">
        <ele>202.19999694824</ele>
        <time>2022-06-22T09:35:14.000Z</time>
      </trkpt>
      <trkpt lat="46.76252" lon="3.02612">
        <ele>200.60000610352</ele>
        <time>2022-06-22T09:35:17.000Z</time>
      </trkpt>
      <trkpt lat="46.76263" lon="3.02639">
        <ele>199.80000305176</ele>
        <time>2022-06-22T09:35:19.000Z</time>
      </trkpt>
      <trkpt lat="46.76274" lon="3.02662">
        <ele>199.80000305176</ele>
        <time>2022-06-22T09:35:21.000Z</time>
      </trkpt>
      <trkpt lat="46.76279" lon="3.02671">
        <ele>200</ele>
        <time>2022-06-22T09:35:22.000Z</time>
      </trkpt>
      <trkpt lat="46.76296" lon="3.02702">
        <ele>200.19999694824</ele>
        <time>2022-06-22T09:35:25.000Z</time>
      </trkpt>
      <trkpt lat="46.7631" lon="3.02725">
        <ele>199</ele>
        <time>2022-06-22T09:35:27.000Z</time>
      </trkpt>
      <trkpt lat="46.76317" lon="3.02735">
        <ele>198.39999389648</ele>
        <time>2022-06-22T09:35:28.000Z</time>
      </trkpt>
      <trkpt lat="46.76334" lon="3.02764">
        <ele>196.19999694824</ele>
        <time>2022-06-22T09:35:31.000Z</time>
      </trkpt>
      <trkpt lat="46.76348" lon="3.02792">
        <ele>195.19999694824</ele>
        <time>2022-06-22T09:35:34.000Z</time>
      </trkpt>
      <trkpt lat="46.76356" lon="3.02822">
        <ele>194.19999694824</ele>
        <time>2022-06-22T09:35:37.000Z</time>
      </trkpt>
      <trkpt lat="46.7636" lon="3.02842">
        <ele>193.19999694824</ele>
        <time>2022-06-22T09:35:39.000Z</time>
      </trkpt>
      <trkpt lat="46.76363" lon="3.02873">
        <ele>192</ele>
        <time>2022-06-22T09:35:42.000Z</time>
      </trkpt>
      <trkpt lat="46.76364" lon="3.02894">
        <ele>191.80000305176</ele>
        <time>2022-06-22T09:35:44.000Z</time>
      </trkpt>
      <trkpt lat="46.76363" lon="3.02904">
        <ele>192</ele>
        <time>2022-06-22T09:35:45.000Z</time>
      </trkpt>
      <trkpt lat="46.76348" lon="3.02972">
        <ele>194.80000305176</ele>
        <time>2022-06-22T09:35:52.000Z</time>
      </trkpt>
      <trkpt lat="46.76345" lon="3.02982">
        <ele>194.80000305176</ele>
        <time>2022-06-22T09:35:53.000Z</time>
      </trkpt>
      <trkpt lat="46.76333" lon="3.03031">
        <ele>193</ele>
        <time>2022-06-22T09:35:58.000Z</time>
      </trkpt>
      <trkpt lat="46.76316" lon="3.03075">
        <ele>190.19999694824</ele>
        <time>2022-06-22T09:36:03.000Z</time>
      </trkpt>
      <trkpt lat="46.76311" lon="3.03086">
        <ele>189.60000610352</ele>
        <time>2022-06-22T09:36:04.000Z</time>
      </trkpt>
      <trkpt lat="46.763" lon="3.03099">
        <ele>189.39999389648</ele>
        <time>2022-06-22T09:36:06.000Z</time>
      </trkpt>
      <trkpt lat="46.76295" lon="3.03103">
        <ele>189.80000305176</ele>
        <time>2022-06-22T09:36:07.000Z</time>
      </trkpt>
      <trkpt lat="46.76289" lon="3.03108">
        <ele>190</ele>
        <time>2022-06-22T09:36:08.000Z</time>
      </trkpt>
      <trkpt lat="46.76256" lon="3.03126">
        <ele>190</ele>
        <time>2022-06-22T09:36:13.000Z</time>
      </trkpt>
      <trkpt lat="46.76203" lon="3.03151">
        <ele>191</ele>
        <time>2022-06-22T09:36:21.000Z</time>
      </trkpt>
      <trkpt lat="46.76196" lon="3.03155">
        <ele>190.60000610352</ele>
        <time>2022-06-22T09:36:22.000Z</time>
      </trkpt>
      <trkpt lat="46.76145" lon="3.03185">
        <ele>186.80000305176</ele>
        <time>2022-06-22T09:36:30.000Z</time>
      </trkpt>
      <trkpt lat="46.76093" lon="3.03224">
        <ele>188</ele>
        <time>2022-06-22T09:36:39.000Z</time>
      </trkpt>
      <trkpt lat="46.76087" lon="3.03228">
        <ele>187.80000305176</ele>
        <time>2022-06-22T09:36:40.000Z</time>
      </trkpt>
      <trkpt lat="46.76036" lon="3.03267">
        <ele>187</ele>
        <time>2022-06-22T09:36:49.000Z</time>
      </trkpt>
      <trkpt lat="46.76031" lon="3.03272">
        <ele>186.80000305176</ele>
        <time>2022-06-22T09:36:50.000Z</time>
      </trkpt>
      <trkpt lat="46.76026" lon="3.03277">
        <ele>186.60000610352</ele>
        <time>2022-06-22T09:36:51.000Z</time>
      </trkpt>
      <trkpt lat="46.76008" lon="3.03303">
        <ele>186</ele>
        <time>2022-06-22T09:36:55.000Z</time>
      </trkpt>
      <trkpt lat="46.75978" lon="3.03351">
        <ele>186</ele>
        <time>2022-06-22T09:37:02.000Z</time>
      </trkpt>
      <trkpt lat="46.75973" lon="3.03358">
        <ele>186.19999694824</ele>
        <time>2022-06-22T09:37:03.000Z</time>
      </trkpt>
      <trkpt lat="46.75942" lon="3.03409">
        <ele>186.39999389648</ele>
        <time>2022-06-22T09:37:10.000Z</time>
      </trkpt>
      <trkpt lat="46.75906" lon="3.03473">
        <ele>187</ele>
        <time>2022-06-22T09:37:19.000Z</time>
      </trkpt>
      <trkpt lat="46.75902" lon="3.03479">
        <ele>187</ele>
        <time>2022-06-22T09:37:20.000Z</time>
      </trkpt>
      <trkpt lat="46.75876" lon="3.03526">
        <ele>187.80000305176</ele>
        <time>2022-06-22T09:37:27.000Z</time>
      </trkpt>
      <trkpt lat="46.75869" lon="3.03539">
        <ele>188</ele>
        <time>2022-06-22T09:37:29.000Z</time>
      </trkpt>
      <trkpt lat="46.75856" lon="3.03556">
        <ele>187.60000610352</ele>
        <time>2022-06-22T09:37:32.000Z</time>
      </trkpt>
      <trkpt lat="46.75826" lon="3.03604">
        <ele>187</ele>
        <time>2022-06-22T09:37:40.000Z</time>
      </trkpt>
      <trkpt lat="46.75797" lon="3.03651">
        <ele>187.39999389648</ele>
        <time>2022-06-22T09:37:48.000Z</time>
      </trkpt>
      <trkpt lat="46.75792" lon="3.03661">
        <ele>188</ele>
        <time>2022-06-22T09:37:50.000Z</time>
      </trkpt>
      <trkpt lat="46.75784" lon="3.03677">
        <ele>188</ele>
        <time>2022-06-22T09:37:53.000Z</time>
      </trkpt>
      <trkpt lat="46.75781" lon="3.03682">
        <ele>188</ele>
        <time>2022-06-22T09:37:54.000Z</time>
      </trkpt>
      <trkpt lat="46.75769" lon="3.03699">
        <ele>188.19999694824</ele>
        <time>2022-06-22T09:37:57.000Z</time>
      </trkpt>
      <trkpt lat="46.75763" lon="3.03712">
        <ele>188.80000305176</ele>
        <time>2022-06-22T09:37:59.000Z</time>
      </trkpt>
      <trkpt lat="46.75753" lon="3.03732">
        <ele>189</ele>
        <time>2022-06-22T09:38:02.000Z</time>
      </trkpt>
      <trkpt lat="46.75732" lon="3.03773">
        <ele>190</ele>
        <time>2022-06-22T09:38:08.000Z</time>
      </trkpt>
      <trkpt lat="46.75713" lon="3.03813">
        <ele>190</ele>
        <time>2022-06-22T09:38:14.000Z</time>
      </trkpt>
      <trkpt lat="46.7569" lon="3.03862">
        <ele>190</ele>
        <time>2022-06-22T09:38:21.000Z</time>
      </trkpt>
      <trkpt lat="46.7568" lon="3.03882">
        <ele>190.80000305176</ele>
        <time>2022-06-22T09:38:24.000Z</time>
      </trkpt>
      <trkpt lat="46.75674" lon="3.03896">
        <ele>191</ele>
        <time>2022-06-22T09:38:26.000Z</time>
      </trkpt>
      <trkpt lat="46.7566" lon="3.03941">
        <ele>191.39999389648</ele>
        <time>2022-06-22T09:38:32.000Z</time>
      </trkpt>
      <trkpt lat="46.75658" lon="3.03948">
        <ele>191.60000610352</ele>
        <time>2022-06-22T09:38:33.000Z</time>
      </trkpt>
      <trkpt lat="46.75655" lon="3.03954">
        <ele>191.60000610352</ele>
        <time>2022-06-22T09:38:34.000Z</time>
      </trkpt>
      <trkpt lat="46.75651" lon="3.03959">
        <ele>191.80000305176</ele>
        <time>2022-06-22T09:38:35.000Z</time>
      </trkpt>
      <trkpt lat="46.75642" lon="3.03968">
        <ele>192.19999694824</ele>
        <time>2022-06-22T09:38:37.000Z</time>
      </trkpt>
      <trkpt lat="46.75638" lon="3.03974">
        <ele>192.60000610352</ele>
        <time>2022-06-22T09:38:38.000Z</time>
      </trkpt>
      <trkpt lat="46.75632" lon="3.03986">
        <ele>193</ele>
        <time>2022-06-22T09:38:40.000Z</time>
      </trkpt>
      <trkpt lat="46.75627" lon="3.03999">
        <ele>193.39999389648</ele>
        <time>2022-06-22T09:38:42.000Z</time>
      </trkpt>
      <trkpt lat="46.75624" lon="3.04037">
        <ele>193</ele>
        <time>2022-06-22T09:38:47.000Z</time>
      </trkpt>
      <trkpt lat="46.75623" lon="3.04057">
        <ele>192.80000305176</ele>
        <time>2022-06-22T09:38:50.000Z</time>
      </trkpt>
      <trkpt lat="46.75626" lon="3.04071">
        <ele>192.80000305176</ele>
        <time>2022-06-22T09:38:52.000Z</time>
      </trkpt>
      <trkpt lat="46.75632" lon="3.04136">
        <ele>193.39999389648</ele>
        <time>2022-06-22T09:39:01.000Z</time>
      </trkpt>
      <trkpt lat="46.75633" lon="3.04144">
        <ele>193.39999389648</ele>
        <time>2022-06-22T09:39:02.000Z</time>
      </trkpt>
      <trkpt lat="46.75632" lon="3.04167">
        <ele>193</ele>
        <time>2022-06-22T09:39:05.000Z</time>
      </trkpt>
      <trkpt lat="46.75631" lon="3.04174">
        <ele>193</ele>
        <time>2022-06-22T09:39:06.000Z</time>
      </trkpt>
      <trkpt lat="46.75628" lon="3.04207">
        <ele>192.39999389648</ele>
        <time>2022-06-22T09:39:11.000Z</time>
      </trkpt>
      <trkpt lat="46.75623" lon="3.04261">
        <ele>191.60000610352</ele>
        <time>2022-06-22T09:39:18.000Z</time>
      </trkpt>
      <trkpt lat="46.75621" lon="3.04285">
        <ele>191.80000305176</ele>
        <time>2022-06-22T09:39:21.000Z</time>
      </trkpt>
      <trkpt lat="46.75622" lon="3.04301">
        <ele>191.60000610352</ele>
        <time>2022-06-22T09:39:23.000Z</time>
      </trkpt>
      <trkpt lat="46.75623" lon="3.04309">
        <ele>191.60000610352</ele>
        <time>2022-06-22T09:39:24.000Z</time>
      </trkpt>
      <trkpt lat="46.75625" lon="3.04316">
        <ele>191.39999389648</ele>
        <time>2022-06-22T09:39:25.000Z</time>
      </trkpt>
      <trkpt lat="46.75637" lon="3.04345">
        <ele>190</ele>
        <time>2022-06-22T09:39:29.000Z</time>
      </trkpt>
      <trkpt lat="46.75659" lon="3.04384">
        <ele>188.60000610352</ele>
        <time>2022-06-22T09:39:35.000Z</time>
      </trkpt>
      <trkpt lat="46.75662" lon="3.04391">
        <ele>188.39999389648</ele>
        <time>2022-06-22T09:39:36.000Z</time>
      </trkpt>
      <trkpt lat="46.7567" lon="3.04423">
        <ele>188</ele>
        <time>2022-06-22T09:39:40.000Z</time>
      </trkpt>
      <trkpt lat="46.75672" lon="3.04432">
        <ele>188</ele>
        <time>2022-06-22T09:39:41.000Z</time>
      </trkpt>
      <trkpt lat="46.75676" lon="3.0446">
        <ele>187</ele>
        <time>2022-06-22T09:39:44.000Z</time>
      </trkpt>
      <trkpt lat="46.75676" lon="3.04469">
        <ele>186.60000610352</ele>
        <time>2022-06-22T09:39:45.000Z</time>
      </trkpt>
      <trkpt lat="46.75671" lon="3.04504">
        <ele>186</ele>
        <time>2022-06-22T09:39:49.000Z</time>
      </trkpt>
      <trkpt lat="46.75669" lon="3.04512">
        <ele>186.19999694824</ele>
        <time>2022-06-22T09:39:50.000Z</time>
      </trkpt>
      <trkpt lat="46.75655" lon="3.04567">
        <ele>188</ele>
        <time>2022-06-22T09:39:57.000Z</time>
      </trkpt>
      <trkpt lat="46.75653" lon="3.04583">
        <ele>188</ele>
        <time>2022-06-22T09:39:59.000Z</time>
      </trkpt>
      <trkpt lat="46.75653" lon="3.04617">
        <ele>187.39999389648</ele>
        <time>2022-06-22T09:40:03.000Z</time>
      </trkpt>
      <trkpt lat="46.75657" lon="3.04658">
        <ele>186.60000610352</ele>
        <time>2022-06-22T09:40:08.000Z</time>
      </trkpt>
      <trkpt lat="46.75661" lon="3.04673">
        <ele>187</ele>
        <time>2022-06-22T09:40:10.000Z</time>
      </trkpt>
      <trkpt lat="46.7567" lon="3.04701">
        <ele>188.39999389648</ele>
        <time>2022-06-22T09:40:14.000Z</time>
      </trkpt>
      <trkpt lat="46.75676" lon="3.04713">
        <ele>189</ele>
        <time>2022-06-22T09:40:16.000Z</time>
      </trkpt>
      <trkpt lat="46.75701" lon="3.04759">
        <ele>189.19999694824</ele>
        <time>2022-06-22T09:40:24.000Z</time>
      </trkpt>
      <trkpt lat="46.75704" lon="3.04764">
        <ele>189</ele>
        <time>2022-06-22T09:40:25.000Z</time>
      </trkpt>
      <trkpt lat="46.7572" lon="3.04791">
        <ele>189</ele>
        <time>2022-06-22T09:40:30.000Z</time>
      </trkpt>
      <trkpt lat="46.75723" lon="3.04796">
        <ele>189.19999694824</ele>
        <time>2022-06-22T09:40:31.000Z</time>
      </trkpt>
      <trkpt lat="46.75732" lon="3.04813">
        <ele>189.60000610352</ele>
        <time>2022-06-22T09:40:34.000Z</time>
      </trkpt>
      <trkpt lat="46.75736" lon="3.04818">
        <ele>189.60000610352</ele>
        <time>2022-06-22T09:40:35.000Z</time>
      </trkpt>
      <trkpt lat="46.75747" lon="3.04832">
        <ele>189.39999389648</ele>
        <time>2022-06-22T09:40:38.000Z</time>
      </trkpt>
      <trkpt lat="46.75754" lon="3.04841">
        <ele>189</ele>
        <time>2022-06-22T09:40:40.000Z</time>
      </trkpt>
      <trkpt lat="46.75773" lon="3.04866">
        <ele>188.39999389648</ele>
        <time>2022-06-22T09:40:45.000Z</time>
      </trkpt>
      <trkpt lat="46.75784" lon="3.0488">
        <ele>188.19999694824</ele>
        <time>2022-06-22T09:40:48.000Z</time>
      </trkpt>
      <trkpt lat="46.75792" lon="3.0489">
        <ele>187.39999389648</ele>
        <time>2022-06-22T09:40:50.000Z</time>
      </trkpt>
      <trkpt lat="46.75815" lon="3.0492">
        <ele>185.39999389648</ele>
        <time>2022-06-22T09:40:56.000Z</time>
      </trkpt>
      <trkpt lat="46.75823" lon="3.0493">
        <ele>184.80000305176</ele>
        <time>2022-06-22T09:40:58.000Z</time>
      </trkpt>
      <trkpt lat="46.75857" lon="3.04973">
        <ele>185.39999389648</ele>
        <time>2022-06-22T09:41:06.000Z</time>
      </trkpt>
      <trkpt lat="46.75893" lon="3.05019">
        <ele>189</ele>
        <time>2022-06-22T09:41:14.000Z</time>
      </trkpt>
      <trkpt lat="46.75897" lon="3.05023">
        <ele>189.39999389648</ele>
        <time>2022-06-22T09:41:15.000Z</time>
      </trkpt>
      <trkpt lat="46.75905" lon="3.05025">
        <ele>191.39999389648</ele>
        <time>2022-06-22T09:41:17.000Z</time>
      </trkpt>
      <trkpt lat="46.75913" lon="3.05017">
        <ele>191.60000610352</ele>
        <time>2022-06-22T09:41:19.000Z</time>
      </trkpt>
      <trkpt lat="46.75916" lon="3.0501">
        <ele>191.60000610352</ele>
        <time>2022-06-22T09:41:20.000Z</time>
      </trkpt>
      <trkpt lat="46.75934" lon="3.04979">
        <ele>191.19999694824</ele>
        <time>2022-06-22T09:41:24.000Z</time>
      </trkpt>
      <trkpt lat="46.75965" lon="3.04939">
        <ele>190.80000305176</ele>
        <time>2022-06-22T09:41:29.000Z</time>
      </trkpt>
      <trkpt lat="46.75979" lon="3.04924">
        <ele>190.39999389648</ele>
        <time>2022-06-22T09:41:31.000Z</time>
      </trkpt>
      <trkpt lat="46.76" lon="3.04909">
        <ele>189</ele>
        <time>2022-06-22T09:41:34.000Z</time>
      </trkpt>
      <trkpt lat="46.76018" lon="3.04894">
        <ele>189.19999694824</ele>
        <time>2022-06-22T09:41:37.000Z</time>
      </trkpt>
      <trkpt lat="46.76054" lon="3.04858">
        <ele>189</ele>
        <time>2022-06-22T09:41:44.000Z</time>
      </trkpt>
      <trkpt lat="46.76084" lon="3.04824">
        <ele>189.60000610352</ele>
        <time>2022-06-22T09:41:51.000Z</time>
      </trkpt>
      <trkpt lat="46.76091" lon="3.04815">
        <ele>189.60000610352</ele>
        <time>2022-06-22T09:41:53.000Z</time>
      </trkpt>
      <trkpt lat="46.76104" lon="3.048">
        <ele>189.80000305176</ele>
        <time>2022-06-22T09:41:56.000Z</time>
      </trkpt>
      <trkpt lat="46.76139" lon="3.04764">
        <ele>189.80000305176</ele>
        <time>2022-06-22T09:42:04.000Z</time>
      </trkpt>
      <trkpt lat="46.76154" lon="3.0475">
        <ele>190</ele>
        <time>2022-06-22T09:42:07.000Z</time>
      </trkpt>
      <trkpt lat="46.7617" lon="3.04733">
        <ele>189.60000610352</ele>
        <time>2022-06-22T09:42:10.000Z</time>
      </trkpt>
      <trkpt lat="46.76209" lon="3.04695">
        <ele>188</ele>
        <time>2022-06-22T09:42:18.000Z</time>
      </trkpt>
      <trkpt lat="46.76252" lon="3.04663">
        <ele>186.60000610352</ele>
        <time>2022-06-22T09:42:26.000Z</time>
      </trkpt>
      <trkpt lat="46.76268" lon="3.04654">
        <ele>186.39999389648</ele>
        <time>2022-06-22T09:42:29.000Z</time>
      </trkpt>
      <trkpt lat="46.7629" lon="3.0464">
        <ele>186.60000610352</ele>
        <time>2022-06-22T09:42:33.000Z</time>
      </trkpt>
      <trkpt lat="46.76317" lon="3.04626">
        <ele>187.19999694824</ele>
        <time>2022-06-22T09:42:38.000Z</time>
      </trkpt>
      <trkpt lat="46.76327" lon="3.04621">
        <ele>187.60000610352</ele>
        <time>2022-06-22T09:42:40.000Z</time>
      </trkpt>
      <trkpt lat="46.76376" lon="3.04598">
        <ele>187</ele>
        <time>2022-06-22T09:42:49.000Z</time>
      </trkpt>
      <trkpt lat="46.76408" lon="3.04583">
        <ele>186.39999389648</ele>
        <time>2022-06-22T09:42:55.000Z</time>
      </trkpt>
      <trkpt lat="46.76417" lon="3.04579">
        <ele>186.39999389648</ele>
        <time>2022-06-22T09:42:57.000Z</time>
      </trkpt>
      <trkpt lat="46.76428" lon="3.04576">
        <ele>186.19999694824</ele>
        <time>2022-06-22T09:42:59.000Z</time>
      </trkpt>
      <trkpt lat="46.76471" lon="3.04563">
        <ele>186.39999389648</ele>
        <time>2022-06-22T09:43:07.000Z</time>
      </trkpt>
      <trkpt lat="46.76507" lon="3.04556">
        <ele>186.39999389648</ele>
        <time>2022-06-22T09:43:14.000Z</time>
      </trkpt>
      <trkpt lat="46.7655" lon="3.04549">
        <ele>187.19999694824</ele>
        <time>2022-06-22T09:43:22.000Z</time>
      </trkpt>
      <trkpt lat="46.76581" lon="3.0455">
        <ele>188.80000305176</ele>
        <time>2022-06-22T09:43:28.000Z</time>
      </trkpt>
      <trkpt lat="46.76623" lon="3.04558">
        <ele>189</ele>
        <time>2022-06-22T09:43:36.000Z</time>
      </trkpt>
      <trkpt lat="46.76654" lon="3.04567">
        <ele>188.80000305176</ele>
        <time>2022-06-22T09:43:43.000Z</time>
      </trkpt>
      <trkpt lat="46.76656" lon="3.04569">
        <ele>189</ele>
        <time>2022-06-22T09:43:45.000Z</time>
      </trkpt>
      <trkpt lat="46.76656" lon="3.0457">
        <ele>189</ele>
        <time>2022-06-22T09:43:46.000Z</time>
      </trkpt>
      <trkpt lat="46.76652" lon="3.04571">
        <ele>189</ele>
        <time>2022-06-22T09:43:52.000Z</time>
      </trkpt>
      <trkpt lat="46.76652" lon="3.04571">
        <ele>189</ele>
        <time>2022-06-22T09:43:59.000Z</time>
      </trkpt>
      <trkpt lat="46.76652" lon="3.04571">
        <ele>189</ele>
        <time>2022-06-22T09:44:28.000Z</time>
      </trkpt>
      <trkpt lat="46.76652" lon="3.04571">
        <ele>189</ele>
        <time>2022-06-22T09:45:29.000Z</time>
      </trkpt>
      <trkpt lat="46.76654" lon="3.04571">
        <ele>189</ele>
        <time>2022-06-22T09:47:38.000Z</time>
      </trkpt>
      <trkpt lat="46.76654" lon="3.04571">
        <ele>189</ele>
        <time>2022-06-22T09:47:50.000Z</time>
      </trkpt>
      <trkpt lat="46.76655" lon="3.04571">
        <ele>189</ele>
        <time>2022-06-22T09:47:51.000Z</time>
      </trkpt>
      <trkpt lat="46.76662" lon="3.04569">
        <ele>189</ele>
        <time>2022-06-22T09:47:54.000Z</time>
      </trkpt>
      <trkpt lat="46.76677" lon="3.0457">
        <ele>188.80000305176</ele>
        <time>2022-06-22T09:47:58.000Z</time>
      </trkpt>
      <trkpt lat="46.76707" lon="3.0457">
        <ele>187.80000305176</ele>
        <time>2022-06-22T09:48:04.000Z</time>
      </trkpt>
      <trkpt lat="46.76744" lon="3.04571">
        <ele>186.39999389648</ele>
        <time>2022-06-22T09:48:11.000Z</time>
      </trkpt>
      <trkpt lat="46.76791" lon="3.04573">
        <ele>186.19999694824</ele>
        <time>2022-06-22T09:48:20.000Z</time>
      </trkpt>
      <trkpt lat="46.76825" lon="3.04578">
        <ele>187.60000610352</ele>
        <time>2022-06-22T09:48:26.000Z</time>
      </trkpt>
      <trkpt lat="46.76843" lon="3.0458">
        <ele>187.60000610352</ele>
        <time>2022-06-22T09:48:29.000Z</time>
      </trkpt>
      <trkpt lat="46.76877" lon="3.04584">
        <ele>188</ele>
        <time>2022-06-22T09:48:35.000Z</time>
      </trkpt>
      <trkpt lat="46.76917" lon="3.0459">
        <ele>187.80000305176</ele>
        <time>2022-06-22T09:48:42.000Z</time>
      </trkpt>
      <trkpt lat="46.76961" lon="3.046">
        <ele>187.60000610352</ele>
        <time>2022-06-22T09:48:50.000Z</time>
      </trkpt>
      <trkpt lat="46.77009" lon="3.04619">
        <ele>186</ele>
        <time>2022-06-22T09:48:59.000Z</time>
      </trkpt>
      <trkpt lat="46.77063" lon="3.04638">
        <ele>185</ele>
        <time>2022-06-22T09:49:09.000Z</time>
      </trkpt>
      <trkpt lat="46.77069" lon="3.0464">
        <ele>185.19999694824</ele>
        <time>2022-06-22T09:49:10.000Z</time>
      </trkpt>
      <trkpt lat="46.77074" lon="3.04641">
        <ele>185.39999389648</ele>
        <time>2022-06-22T09:49:11.000Z</time>
      </trkpt>
      <trkpt lat="46.77107" lon="3.04645">
        <ele>185.60000610352</ele>
        <time>2022-06-22T09:49:17.000Z</time>
      </trkpt>
      <trkpt lat="46.77143" lon="3.04649">
        <ele>186</ele>
        <time>2022-06-22T09:49:24.000Z</time>
      </trkpt>
      <trkpt lat="46.77154" lon="3.04652">
        <ele>186</ele>
        <time>2022-06-22T09:49:26.000Z</time>
      </trkpt>
      <trkpt lat="46.77165" lon="3.04656">
        <ele>186</ele>
        <time>2022-06-22T09:49:28.000Z</time>
      </trkpt>
      <trkpt lat="46.77184" lon="3.04666">
        <ele>186.39999389648</ele>
        <time>2022-06-22T09:49:32.000Z</time>
      </trkpt>
      <trkpt lat="46.77208" lon="3.04679">
        <ele>186.60000610352</ele>
        <time>2022-06-22T09:49:37.000Z</time>
      </trkpt>
      <trkpt lat="46.77233" lon="3.04691">
        <ele>185.80000305176</ele>
        <time>2022-06-22T09:49:42.000Z</time>
      </trkpt>
      <trkpt lat="46.77274" lon="3.04714">
        <ele>185.39999389648</ele>
        <time>2022-06-22T09:49:50.000Z</time>
      </trkpt>
      <trkpt lat="46.77325" lon="3.04743">
        <ele>188</ele>
        <time>2022-06-22T09:50:00.000Z</time>
      </trkpt>
      <trkpt lat="46.77374" lon="3.0478">
        <ele>185.39999389648</ele>
        <time>2022-06-22T09:50:10.000Z</time>
      </trkpt>
      <trkpt lat="46.77403" lon="3.04802">
        <ele>185</ele>
        <time>2022-06-22T09:50:16.000Z</time>
      </trkpt>
      <trkpt lat="46.77422" lon="3.04816">
        <ele>185</ele>
        <time>2022-06-22T09:50:20.000Z</time>
      </trkpt>
      <trkpt lat="46.77467" lon="3.04848">
        <ele>185.39999389648</ele>
        <time>2022-06-22T09:50:29.000Z</time>
      </trkpt>
      <trkpt lat="46.77511" lon="3.0488">
        <ele>184</ele>
        <time>2022-06-22T09:50:38.000Z</time>
      </trkpt>
      <trkpt lat="46.77559" lon="3.04915">
        <ele>184.80000305176</ele>
        <time>2022-06-22T09:50:48.000Z</time>
      </trkpt>
      <trkpt lat="46.77564" lon="3.04918">
        <ele>185</ele>
        <time>2022-06-22T09:50:49.000Z</time>
      </trkpt>
      <trkpt lat="46.77606" lon="3.04948">
        <ele>183</ele>
        <time>2022-06-22T09:50:58.000Z</time>
      </trkpt>
      <trkpt lat="46.77634" lon="3.04967">
        <ele>183.60000610352</ele>
        <time>2022-06-22T09:51:04.000Z</time>
      </trkpt>
      <trkpt lat="46.77639" lon="3.04971">
        <ele>183.80000305176</ele>
        <time>2022-06-22T09:51:05.000Z</time>
      </trkpt>
      <trkpt lat="46.77672" lon="3.04995">
        <ele>184</ele>
        <time>2022-06-22T09:51:12.000Z</time>
      </trkpt>
      <trkpt lat="46.77719" lon="3.05029">
        <ele>185.60000610352</ele>
        <time>2022-06-22T09:51:22.000Z</time>
      </trkpt>
      <trkpt lat="46.77755" lon="3.05061">
        <ele>186</ele>
        <time>2022-06-22T09:51:30.000Z</time>
      </trkpt>
      <trkpt lat="46.77798" lon="3.05109">
        <ele>184.39999389648</ele>
        <time>2022-06-22T09:51:40.000Z</time>
      </trkpt>
      <trkpt lat="46.77806" lon="3.05118">
        <ele>184.60000610352</ele>
        <time>2022-06-22T09:51:42.000Z</time>
      </trkpt>
      <trkpt lat="46.77845" lon="3.05159">
        <ele>185.80000305176</ele>
        <time>2022-06-22T09:51:51.000Z</time>
      </trkpt>
      <trkpt lat="46.77879" lon="3.05193">
        <ele>183.60000610352</ele>
        <time>2022-06-22T09:51:59.000Z</time>
      </trkpt>
      <trkpt lat="46.77888" lon="3.05201">
        <ele>183.39999389648</ele>
        <time>2022-06-22T09:52:01.000Z</time>
      </trkpt>
      <trkpt lat="46.77939" lon="3.05245">
        <ele>186.60000610352</ele>
        <time>2022-06-22T09:52:12.000Z</time>
      </trkpt>
      <trkpt lat="46.77949" lon="3.05251">
        <ele>187</ele>
        <time>2022-06-22T09:52:14.000Z</time>
      </trkpt>
      <trkpt lat="46.77974" lon="3.05264">
        <ele>186.19999694824</ele>
        <time>2022-06-22T09:52:19.000Z</time>
      </trkpt>
      <trkpt lat="46.78011" lon="3.05284">
        <ele>185.60000610352</ele>
        <time>2022-06-22T09:52:27.000Z</time>
      </trkpt>
      <trkpt lat="46.78032" lon="3.05294">
        <ele>186</ele>
        <time>2022-06-22T09:52:31.000Z</time>
      </trkpt>
      <trkpt lat="46.78042" lon="3.05299">
        <ele>186</ele>
        <time>2022-06-22T09:52:33.000Z</time>
      </trkpt>
      <trkpt lat="46.78063" lon="3.05311">
        <ele>185.60000610352</ele>
        <time>2022-06-22T09:52:37.000Z</time>
      </trkpt>
      <trkpt lat="46.78116" lon="3.05338">
        <ele>185.80000305176</ele>
        <time>2022-06-22T09:52:47.000Z</time>
      </trkpt>
      <trkpt lat="46.78126" lon="3.05344">
        <ele>185.60000610352</ele>
        <time>2022-06-22T09:52:49.000Z</time>
      </trkpt>
      <trkpt lat="46.78174" lon="3.05367">
        <ele>186</ele>
        <time>2022-06-22T09:52:58.000Z</time>
      </trkpt>
      <trkpt lat="46.78191" lon="3.05372">
        <ele>186</ele>
        <time>2022-06-22T09:53:01.000Z</time>
      </trkpt>
      <trkpt lat="46.78245" lon="3.0539">
        <ele>185</ele>
        <time>2022-06-22T09:53:11.000Z</time>
      </trkpt>
      <trkpt lat="46.78256" lon="3.05394">
        <ele>185</ele>
        <time>2022-06-22T09:53:13.000Z</time>
      </trkpt>
      <trkpt lat="46.78276" lon="3.05401">
        <ele>185</ele>
        <time>2022-06-22T09:53:17.000Z</time>
      </trkpt>
      <trkpt lat="46.78282" lon="3.05403">
        <ele>185</ele>
        <time>2022-06-22T09:53:18.000Z</time>
      </trkpt>
      <trkpt lat="46.78307" lon="3.05418">
        <ele>185</ele>
        <time>2022-06-22T09:53:23.000Z</time>
      </trkpt>
      <trkpt lat="46.78343" lon="3.05454">
        <ele>185</ele>
        <time>2022-06-22T09:53:31.000Z</time>
      </trkpt>
      <trkpt lat="46.78388" lon="3.05501">
        <ele>185</ele>
        <time>2022-06-22T09:53:41.000Z</time>
      </trkpt>
      <trkpt lat="46.78392" lon="3.05506">
        <ele>185</ele>
        <time>2022-06-22T09:53:42.000Z</time>
      </trkpt>
      <trkpt lat="46.78424" lon="3.05529">
        <ele>185.39999389648</ele>
        <time>2022-06-22T09:53:49.000Z</time>
      </trkpt>
      <trkpt lat="46.78474" lon="3.05553">
        <ele>185</ele>
        <time>2022-06-22T09:53:59.000Z</time>
      </trkpt>
      <trkpt lat="46.78494" lon="3.05562">
        <ele>185.60000610352</ele>
        <time>2022-06-22T09:54:03.000Z</time>
      </trkpt>
      <trkpt lat="46.78523" lon="3.05575">
        <ele>187</ele>
        <time>2022-06-22T09:54:09.000Z</time>
      </trkpt>
      <trkpt lat="46.78542" lon="3.05585">
        <ele>188.19999694824</ele>
        <time>2022-06-22T09:54:13.000Z</time>
      </trkpt>
      <trkpt lat="46.7856" lon="3.05593">
        <ele>188.80000305176</ele>
        <time>2022-06-22T09:54:17.000Z</time>
      </trkpt>
      <trkpt lat="46.78564" lon="3.05595">
        <ele>189</ele>
        <time>2022-06-22T09:54:18.000Z</time>
      </trkpt>
      <trkpt lat="46.78587" lon="3.05601">
        <ele>189</ele>
        <time>2022-06-22T09:54:23.000Z</time>
      </trkpt>
      <trkpt lat="46.78596" lon="3.05603">
        <ele>189</ele>
        <time>2022-06-22T09:54:25.000Z</time>
      </trkpt>
      <trkpt lat="46.78628" lon="3.05603">
        <ele>188.19999694824</ele>
        <time>2022-06-22T09:54:31.000Z</time>
      </trkpt>
      <trkpt lat="46.78681" lon="3.05599">
        <ele>187</ele>
        <time>2022-06-22T09:54:41.000Z</time>
      </trkpt>
      <trkpt lat="46.78729" lon="3.05596">
        <ele>187</ele>
        <time>2022-06-22T09:54:50.000Z</time>
      </trkpt>
      <trkpt lat="46.7875" lon="3.05595">
        <ele>187</ele>
        <time>2022-06-22T09:54:54.000Z</time>
      </trkpt>
      <trkpt lat="46.78775" lon="3.05593">
        <ele>186.80000305176</ele>
        <time>2022-06-22T09:54:59.000Z</time>
      </trkpt>
      <trkpt lat="46.78811" lon="3.05591">
        <ele>187.60000610352</ele>
        <time>2022-06-22T09:55:06.000Z</time>
      </trkpt>
      <trkpt lat="46.78867" lon="3.05583">
        <ele>190.39999389648</ele>
        <time>2022-06-22T09:55:17.000Z</time>
      </trkpt>
      <trkpt lat="46.78901" lon="3.05575">
        <ele>188.80000305176</ele>
        <time>2022-06-22T09:55:24.000Z</time>
      </trkpt>
      <trkpt lat="46.7892" lon="3.05571">
        <ele>187.39999389648</ele>
        <time>2022-06-22T09:55:28.000Z</time>
      </trkpt>
      <trkpt lat="46.78934" lon="3.05567">
        <ele>186.60000610352</ele>
        <time>2022-06-22T09:55:31.000Z</time>
      </trkpt>
      <trkpt lat="46.78992" lon="3.05554">
        <ele>187.80000305176</ele>
        <time>2022-06-22T09:55:43.000Z</time>
      </trkpt>
      <trkpt lat="46.79015" lon="3.05548">
        <ele>189.60000610352</ele>
        <time>2022-06-22T09:55:48.000Z</time>
      </trkpt>
      <trkpt lat="46.79041" lon="3.05541">
        <ele>190.80000305176</ele>
        <time>2022-06-22T09:55:53.000Z</time>
      </trkpt>
      <trkpt lat="46.79052" lon="3.05538">
        <ele>190.60000610352</ele>
        <time>2022-06-22T09:55:55.000Z</time>
      </trkpt>
      <trkpt lat="46.79083" lon="3.05531">
        <ele>189.60000610352</ele>
        <time>2022-06-22T09:56:01.000Z</time>
      </trkpt>
      <trkpt lat="46.79126" lon="3.05529">
        <ele>189.80000305176</ele>
        <time>2022-06-22T09:56:09.000Z</time>
      </trkpt>
      <trkpt lat="46.79167" lon="3.05535">
        <ele>190.80000305176</ele>
        <time>2022-06-22T09:56:17.000Z</time>
      </trkpt>
      <trkpt lat="46.79194" lon="3.05542">
        <ele>190.19999694824</ele>
        <time>2022-06-22T09:56:22.000Z</time>
      </trkpt>
      <trkpt lat="46.79224" lon="3.0555">
        <ele>189.80000305176</ele>
        <time>2022-06-22T09:56:28.000Z</time>
      </trkpt>
      <trkpt lat="46.79264" lon="3.05562">
        <ele>189.60000610352</ele>
        <time>2022-06-22T09:56:36.000Z</time>
      </trkpt>
      <trkpt lat="46.79285" lon="3.05569">
        <ele>190</ele>
        <time>2022-06-22T09:56:40.000Z</time>
      </trkpt>
      <trkpt lat="46.79326" lon="3.05582">
        <ele>189.60000610352</ele>
        <time>2022-06-22T09:56:48.000Z</time>
      </trkpt>
      <trkpt lat="46.79341" lon="3.05588">
        <ele>189.39999389648</ele>
        <time>2022-06-22T09:56:51.000Z</time>
      </trkpt>
      <trkpt lat="46.7938" lon="3.05599">
        <ele>190.39999389648</ele>
        <time>2022-06-22T09:56:59.000Z</time>
      </trkpt>
      <trkpt lat="46.79431" lon="3.05615">
        <ele>191</ele>
        <time>2022-06-22T09:57:09.000Z</time>
      </trkpt>
      <trkpt lat="46.79473" lon="3.05626">
        <ele>189.19999694824</ele>
        <time>2022-06-22T09:57:17.000Z</time>
      </trkpt>
      <trkpt lat="46.79522" lon="3.05637">
        <ele>189.39999389648</ele>
        <time>2022-06-22T09:57:26.000Z</time>
      </trkpt>
      <trkpt lat="46.79573" lon="3.05646">
        <ele>188.60000610352</ele>
        <time>2022-06-22T09:57:36.000Z</time>
      </trkpt>
      <trkpt lat="46.79627" lon="3.05651">
        <ele>188.19999694824</ele>
        <time>2022-06-22T09:57:46.000Z</time>
      </trkpt>
      <trkpt lat="46.79643" lon="3.05652">
        <ele>188.80000305176</ele>
        <time>2022-06-22T09:57:49.000Z</time>
      </trkpt>
      <trkpt lat="46.79678" lon="3.05653">
        <ele>189.80000305176</ele>
        <time>2022-06-22T09:57:55.000Z</time>
      </trkpt>
      <trkpt lat="46.79708" lon="3.05655">
        <ele>188.80000305176</ele>
        <time>2022-06-22T09:58:00.000Z</time>
      </trkpt>
      <trkpt lat="46.79726" lon="3.05656">
        <ele>188.19999694824</ele>
        <time>2022-06-22T09:58:03.000Z</time>
      </trkpt>
      <trkpt lat="46.79745" lon="3.05657">
        <ele>187.39999389648</ele>
        <time>2022-06-22T09:58:06.000Z</time>
      </trkpt>
      <trkpt lat="46.79775" lon="3.05659">
        <ele>185.19999694824</ele>
        <time>2022-06-22T09:58:11.000Z</time>
      </trkpt>
      <trkpt lat="46.79781" lon="3.05659">
        <ele>184.60000610352</ele>
        <time>2022-06-22T09:58:12.000Z</time>
      </trkpt>
      <trkpt lat="46.79825" lon="3.05661">
        <ele>183</ele>
        <time>2022-06-22T09:58:19.000Z</time>
      </trkpt>
      <trkpt lat="46.79838" lon="3.05661">
        <ele>183</ele>
        <time>2022-06-22T09:58:21.000Z</time>
      </trkpt>
      <trkpt lat="46.79862" lon="3.05665">
        <ele>183.39999389648</ele>
        <time>2022-06-22T09:58:25.000Z</time>
      </trkpt>
      <trkpt lat="46.79879" lon="3.05672">
        <ele>183.60000610352</ele>
        <time>2022-06-22T09:58:28.000Z</time>
      </trkpt>
      <trkpt lat="46.79915" lon="3.05698">
        <ele>184</ele>
        <time>2022-06-22T09:58:35.000Z</time>
      </trkpt>
      <trkpt lat="46.79953" lon="3.05733">
        <ele>183</ele>
        <time>2022-06-22T09:58:43.000Z</time>
      </trkpt>
      <trkpt lat="46.79993" lon="3.05774">
        <ele>183.39999389648</ele>
        <time>2022-06-22T09:58:52.000Z</time>
      </trkpt>
      <trkpt lat="46.80038" lon="3.05817">
        <ele>183.80000305176</ele>
        <time>2022-06-22T09:59:02.000Z</time>
      </trkpt>
      <trkpt lat="46.80075" lon="3.05852">
        <ele>184.80000305176</ele>
        <time>2022-06-22T09:59:10.000Z</time>
      </trkpt>
      <trkpt lat="46.80111" lon="3.05887">
        <ele>183.60000610352</ele>
        <time>2022-06-22T09:59:18.000Z</time>
      </trkpt>
      <trkpt lat="46.80147" lon="3.05923">
        <ele>183.39999389648</ele>
        <time>2022-06-22T09:59:26.000Z</time>
      </trkpt>
      <trkpt lat="46.80176" lon="3.05951">
        <ele>184.39999389648</ele>
        <time>2022-06-22T09:59:32.000Z</time>
      </trkpt>
      <trkpt lat="46.80194" lon="3.05969">
        <ele>184.39999389648</ele>
        <time>2022-06-22T09:59:36.000Z</time>
      </trkpt>
      <trkpt lat="46.80227" lon="3.06001">
        <ele>183.19999694824</ele>
        <time>2022-06-22T09:59:43.000Z</time>
      </trkpt>
      <trkpt lat="46.80267" lon="3.06041">
        <ele>183.39999389648</ele>
        <time>2022-06-22T09:59:52.000Z</time>
      </trkpt>
      <trkpt lat="46.80289" lon="3.06064">
        <ele>184.60000610352</ele>
        <time>2022-06-22T09:59:57.000Z</time>
      </trkpt>
      <trkpt lat="46.80297" lon="3.06076">
        <ele>184.80000305176</ele>
        <time>2022-06-22T09:59:59.000Z</time>
      </trkpt>
      <trkpt lat="46.80304" lon="3.06089">
        <ele>185</ele>
        <time>2022-06-22T10:00:01.000Z</time>
      </trkpt>
      <trkpt lat="46.8031" lon="3.0611">
        <ele>185</ele>
        <time>2022-06-22T10:00:04.000Z</time>
      </trkpt>
      <trkpt lat="46.80312" lon="3.06118">
        <ele>185</ele>
        <time>2022-06-22T10:00:05.000Z</time>
      </trkpt>
      <trkpt lat="46.80318" lon="3.06155">
        <ele>184.80000305176</ele>
        <time>2022-06-22T10:00:11.000Z</time>
      </trkpt>
      <trkpt lat="46.80331" lon="3.06205">
        <ele>184</ele>
        <time>2022-06-22T10:00:18.000Z</time>
      </trkpt>
      <trkpt lat="46.80353" lon="3.0625">
        <ele>184</ele>
        <time>2022-06-22T10:00:25.000Z</time>
      </trkpt>
      <trkpt lat="46.80387" lon="3.06312">
        <ele>182.80000305176</ele>
        <time>2022-06-22T10:00:35.000Z</time>
      </trkpt>
      <trkpt lat="46.80421" lon="3.06373">
        <ele>182</ele>
        <time>2022-06-22T10:00:45.000Z</time>
      </trkpt>
      <trkpt lat="46.80444" lon="3.06418">
        <ele>184.39999389648</ele>
        <time>2022-06-22T10:00:52.000Z</time>
      </trkpt>
      <trkpt lat="46.80473" lon="3.06488">
        <ele>184.80000305176</ele>
        <time>2022-06-22T10:01:02.000Z</time>
      </trkpt>
      <trkpt lat="46.805" lon="3.06558">
        <ele>183.39999389648</ele>
        <time>2022-06-22T10:01:12.000Z</time>
      </trkpt>
      <trkpt lat="46.80502" lon="3.06565">
        <ele>183.19999694824</ele>
        <time>2022-06-22T10:01:13.000Z</time>
      </trkpt>
      <trkpt lat="46.80527" lon="3.06629">
        <ele>181.60000610352</ele>
        <time>2022-06-22T10:01:22.000Z</time>
      </trkpt>
      <trkpt lat="46.80543" lon="3.06671">
        <ele>181</ele>
        <time>2022-06-22T10:01:28.000Z</time>
      </trkpt>
      <trkpt lat="46.80547" lon="3.06685">
        <ele>181.19999694824</ele>
        <time>2022-06-22T10:01:30.000Z</time>
      </trkpt>
      <trkpt lat="46.80565" lon="3.06733">
        <ele>182</ele>
        <time>2022-06-22T10:01:37.000Z</time>
      </trkpt>
      <trkpt lat="46.80579" lon="3.06767">
        <ele>183</ele>
        <time>2022-06-22T10:01:42.000Z</time>
      </trkpt>
      <trkpt lat="46.80586" lon="3.06779">
        <ele>183.39999389648</ele>
        <time>2022-06-22T10:01:44.000Z</time>
      </trkpt>
      <trkpt lat="46.80591" lon="3.06784">
        <ele>183.60000610352</ele>
        <time>2022-06-22T10:01:45.000Z</time>
      </trkpt>
      <trkpt lat="46.8061" lon="3.06802">
        <ele>184</ele>
        <time>2022-06-22T10:01:49.000Z</time>
      </trkpt>
      <trkpt lat="46.80624" lon="3.06812">
        <ele>183.80000305176</ele>
        <time>2022-06-22T10:01:52.000Z</time>
      </trkpt>
      <trkpt lat="46.80656" lon="3.06836">
        <ele>183.19999694824</ele>
        <time>2022-06-22T10:01:59.000Z</time>
      </trkpt>
      <trkpt lat="46.80699" lon="3.0687">
        <ele>182.19999694824</ele>
        <time>2022-06-22T10:02:08.000Z</time>
      </trkpt>
      <trkpt lat="46.80742" lon="3.06903">
        <ele>182.80000305176</ele>
        <time>2022-06-22T10:02:17.000Z</time>
      </trkpt>
      <trkpt lat="46.80779" lon="3.06933">
        <ele>184.80000305176</ele>
        <time>2022-06-22T10:02:25.000Z</time>
      </trkpt>
      <trkpt lat="46.80787" lon="3.06943">
        <ele>185</ele>
        <time>2022-06-22T10:02:27.000Z</time>
      </trkpt>
      <trkpt lat="46.80807" lon="3.06979">
        <ele>184.19999694824</ele>
        <time>2022-06-22T10:02:33.000Z</time>
      </trkpt>
      <trkpt lat="46.80824" lon="3.07003">
        <ele>183.19999694824</ele>
        <time>2022-06-22T10:02:38.000Z</time>
      </trkpt>
      <trkpt lat="46.80828" lon="3.07006">
        <ele>182.80000305176</ele>
        <time>2022-06-22T10:02:39.000Z</time>
      </trkpt>
      <trkpt lat="46.80839" lon="3.07021">
        <ele>182.19999694824</ele>
        <time>2022-06-22T10:02:44.000Z</time>
      </trkpt>
      <trkpt lat="46.80854" lon="3.07031">
        <ele>181.60000610352</ele>
        <time>2022-06-22T10:02:49.000Z</time>
      </trkpt>
      <trkpt lat="46.80879" lon="3.07046">
        <ele>181</ele>
        <time>2022-06-22T10:02:54.000Z</time>
      </trkpt>
      <trkpt lat="46.80909" lon="3.07074">
        <ele>180.60000610352</ele>
        <time>2022-06-22T10:03:00.000Z</time>
      </trkpt>
      <trkpt lat="46.80945" lon="3.07109">
        <ele>181.39999389648</ele>
        <time>2022-06-22T10:03:08.000Z</time>
      </trkpt>
      <trkpt lat="46.80989" lon="3.07137">
        <ele>183.39999389648</ele>
        <time>2022-06-22T10:03:17.000Z</time>
      </trkpt>
      <trkpt lat="46.81024" lon="3.07156">
        <ele>184</ele>
        <time>2022-06-22T10:03:24.000Z</time>
      </trkpt>
      <trkpt lat="46.81064" lon="3.07177">
        <ele>184</ele>
        <time>2022-06-22T10:03:32.000Z</time>
      </trkpt>
      <trkpt lat="46.81115" lon="3.07205">
        <ele>183.80000305176</ele>
        <time>2022-06-22T10:03:42.000Z</time>
      </trkpt>
      <trkpt lat="46.81171" lon="3.07233">
        <ele>186</ele>
        <time>2022-06-22T10:03:53.000Z</time>
      </trkpt>
      <trkpt lat="46.81181" lon="3.07238">
        <ele>186</ele>
        <time>2022-06-22T10:03:55.000Z</time>
      </trkpt>
      <trkpt lat="46.81207" lon="3.07252">
        <ele>185.80000305176</ele>
        <time>2022-06-22T10:04:00.000Z</time>
      </trkpt>
      <trkpt lat="46.81229" lon="3.07262">
        <ele>185</ele>
        <time>2022-06-22T10:04:04.000Z</time>
      </trkpt>
      <trkpt lat="46.81283" lon="3.07286">
        <ele>183.80000305176</ele>
        <time>2022-06-22T10:04:14.000Z</time>
      </trkpt>
      <trkpt lat="46.81337" lon="3.07308">
        <ele>185</ele>
        <time>2022-06-22T10:04:24.000Z</time>
      </trkpt>
      <trkpt lat="46.81342" lon="3.07311">
        <ele>185</ele>
        <time>2022-06-22T10:04:25.000Z</time>
      </trkpt>
      <trkpt lat="46.81392" lon="3.07331">
        <ele>184</ele>
        <time>2022-06-22T10:04:34.000Z</time>
      </trkpt>
      <trkpt lat="46.81443" lon="3.07351">
        <ele>185.60000610352</ele>
        <time>2022-06-22T10:04:43.000Z</time>
      </trkpt>
      <trkpt lat="46.81487" lon="3.0737">
        <ele>186.19999694824</ele>
        <time>2022-06-22T10:04:51.000Z</time>
      </trkpt>
      <trkpt lat="46.81533" lon="3.07387">
        <ele>186.19999694824</ele>
        <time>2022-06-22T10:04:59.000Z</time>
      </trkpt>
      <trkpt lat="46.81544" lon="3.07388">
        <ele>186.19999694824</ele>
        <time>2022-06-22T10:05:01.000Z</time>
      </trkpt>
      <trkpt lat="46.81562" lon="3.07383">
        <ele>185.80000305176</ele>
        <time>2022-06-22T10:05:04.000Z</time>
      </trkpt>
      <trkpt lat="46.81573" lon="3.07378">
        <ele>185.60000610352</ele>
        <time>2022-06-22T10:05:06.000Z</time>
      </trkpt>
      <trkpt lat="46.81613" lon="3.07359">
        <ele>186</ele>
        <time>2022-06-22T10:05:13.000Z</time>
      </trkpt>
      <trkpt lat="46.81636" lon="3.07349">
        <ele>186.39999389648</ele>
        <time>2022-06-22T10:05:17.000Z</time>
      </trkpt>
      <trkpt lat="46.81653" lon="3.07343">
        <ele>185.80000305176</ele>
        <time>2022-06-22T10:05:20.000Z</time>
      </trkpt>
      <trkpt lat="46.81709" lon="3.07326">
        <ele>184</ele>
        <time>2022-06-22T10:05:30.000Z</time>
      </trkpt>
      <trkpt lat="46.81715" lon="3.07325">
        <ele>184</ele>
        <time>2022-06-22T10:05:31.000Z</time>
      </trkpt>
      <trkpt lat="46.81773" lon="3.07311">
        <ele>183</ele>
        <time>2022-06-22T10:05:41.000Z</time>
      </trkpt>
      <trkpt lat="46.81831" lon="3.07299">
        <ele>183.80000305176</ele>
        <time>2022-06-22T10:05:51.000Z</time>
      </trkpt>
      <trkpt lat="46.81837" lon="3.07298">
        <ele>183.80000305176</ele>
        <time>2022-06-22T10:05:52.000Z</time>
      </trkpt>
      <trkpt lat="46.81888" lon="3.07289">
        <ele>183.60000610352</ele>
        <time>2022-06-22T10:06:01.000Z</time>
      </trkpt>
      <trkpt lat="46.81929" lon="3.07288">
        <ele>181.60000610352</ele>
        <time>2022-06-22T10:06:08.000Z</time>
      </trkpt>
      <trkpt lat="46.81974" lon="3.07304">
        <ele>181.80000305176</ele>
        <time>2022-06-22T10:06:16.000Z</time>
      </trkpt>
      <trkpt lat="46.8203" lon="3.07331">
        <ele>182.60000610352</ele>
        <time>2022-06-22T10:06:26.000Z</time>
      </trkpt>
      <trkpt lat="46.82084" lon="3.07357">
        <ele>182</ele>
        <time>2022-06-22T10:06:36.000Z</time>
      </trkpt>
      <trkpt lat="46.8214" lon="3.07384">
        <ele>180.19999694824</ele>
        <time>2022-06-22T10:06:47.000Z</time>
      </trkpt>
      <trkpt lat="46.82145" lon="3.07387">
        <ele>180.19999694824</ele>
        <time>2022-06-22T10:06:48.000Z</time>
      </trkpt>
      <trkpt lat="46.8219" lon="3.07414">
        <ele>180.19999694824</ele>
        <time>2022-06-22T10:06:57.000Z</time>
      </trkpt>
      <trkpt lat="46.82205" lon="3.07423">
        <ele>180.39999389648</ele>
        <time>2022-06-22T10:07:00.000Z</time>
      </trkpt>
      <trkpt lat="46.8223" lon="3.07438">
        <ele>180.80000305176</ele>
        <time>2022-06-22T10:07:05.000Z</time>
      </trkpt>
      <trkpt lat="46.82279" lon="3.07464">
        <ele>181.80000305176</ele>
        <time>2022-06-22T10:07:14.000Z</time>
      </trkpt>
      <trkpt lat="46.82327" lon="3.07485">
        <ele>182.60000610352</ele>
        <time>2022-06-22T10:07:23.000Z</time>
      </trkpt>
      <trkpt lat="46.82381" lon="3.07507">
        <ele>181</ele>
        <time>2022-06-22T10:07:33.000Z</time>
      </trkpt>
      <trkpt lat="46.82391" lon="3.07512">
        <ele>181</ele>
        <time>2022-06-22T10:07:35.000Z</time>
      </trkpt>
      <trkpt lat="46.82418" lon="3.07524">
        <ele>181.39999389648</ele>
        <time>2022-06-22T10:07:40.000Z</time>
      </trkpt>
      <trkpt lat="46.8244" lon="3.07533">
        <ele>181.39999389648</ele>
        <time>2022-06-22T10:07:44.000Z</time>
      </trkpt>
      <trkpt lat="46.82445" lon="3.07536">
        <ele>181.19999694824</ele>
        <time>2022-06-22T10:07:45.000Z</time>
      </trkpt>
      <trkpt lat="46.82498" lon="3.07559">
        <ele>181</ele>
        <time>2022-06-22T10:07:55.000Z</time>
      </trkpt>
      <trkpt lat="46.82503" lon="3.07561">
        <ele>180.80000305176</ele>
        <time>2022-06-22T10:07:56.000Z</time>
      </trkpt>
      <trkpt lat="46.82555" lon="3.07586">
        <ele>180.39999389648</ele>
        <time>2022-06-22T10:08:06.000Z</time>
      </trkpt>
      <trkpt lat="46.8256" lon="3.07589">
        <ele>180.19999694824</ele>
        <time>2022-06-22T10:08:07.000Z</time>
      </trkpt>
      <trkpt lat="46.82603" lon="3.07609">
        <ele>180.39999389648</ele>
        <time>2022-06-22T10:08:15.000Z</time>
      </trkpt>
      <trkpt lat="46.82646" lon="3.0763">
        <ele>182.80000305176</ele>
        <time>2022-06-22T10:08:23.000Z</time>
      </trkpt>
      <trkpt lat="46.82695" lon="3.07656">
        <ele>182</ele>
        <time>2022-06-22T10:08:32.000Z</time>
      </trkpt>
      <trkpt lat="46.82727" lon="3.07677">
        <ele>181.19999694824</ele>
        <time>2022-06-22T10:08:38.000Z</time>
      </trkpt>
      <trkpt lat="46.82738" lon="3.07685">
        <ele>180.80000305176</ele>
        <time>2022-06-22T10:08:40.000Z</time>
      </trkpt>
      <trkpt lat="46.8278" lon="3.07711">
        <ele>179.19999694824</ele>
        <time>2022-06-22T10:08:48.000Z</time>
      </trkpt>
      <trkpt lat="46.82824" lon="3.07738">
        <ele>179</ele>
        <time>2022-06-22T10:08:56.000Z</time>
      </trkpt>
      <trkpt lat="46.82829" lon="3.07741">
        <ele>179</ele>
        <time>2022-06-22T10:08:57.000Z</time>
      </trkpt>
      <trkpt lat="46.82881" lon="3.07775">
        <ele>179.39999389648</ele>
        <time>2022-06-22T10:09:07.000Z</time>
      </trkpt>
      <trkpt lat="46.82886" lon="3.07779">
        <ele>179.39999389648</ele>
        <time>2022-06-22T10:09:08.000Z</time>
      </trkpt>
      <trkpt lat="46.82938" lon="3.07818">
        <ele>180.80000305176</ele>
        <time>2022-06-22T10:09:18.000Z</time>
      </trkpt>
      <trkpt lat="46.82975" lon="3.07852">
        <ele>181.80000305176</ele>
        <time>2022-06-22T10:09:26.000Z</time>
      </trkpt>
      <trkpt lat="46.8301" lon="3.07878">
        <ele>181</ele>
        <time>2022-06-22T10:09:33.000Z</time>
      </trkpt>
      <trkpt lat="46.83061" lon="3.07906">
        <ele>180.80000305176</ele>
        <time>2022-06-22T10:09:43.000Z</time>
      </trkpt>
      <trkpt lat="46.83099" lon="3.07922">
        <ele>181.60000610352</ele>
        <time>2022-06-22T10:09:50.000Z</time>
      </trkpt>
      <trkpt lat="46.83136" lon="3.07937">
        <ele>182</ele>
        <time>2022-06-22T10:09:57.000Z</time>
      </trkpt>
      <trkpt lat="46.83191" lon="3.07955">
        <ele>181</ele>
        <time>2022-06-22T10:10:07.000Z</time>
      </trkpt>
      <trkpt lat="46.83197" lon="3.07957">
        <ele>181</ele>
        <time>2022-06-22T10:10:08.000Z</time>
      </trkpt>
      <trkpt lat="46.83253" lon="3.07974">
        <ele>180.80000305176</ele>
        <time>2022-06-22T10:10:18.000Z</time>
      </trkpt>
      <trkpt lat="46.83307" lon="3.0799">
        <ele>180.39999389648</ele>
        <time>2022-06-22T10:10:28.000Z</time>
      </trkpt>
      <trkpt lat="46.83351" lon="3.08002">
        <ele>180.19999694824</ele>
        <time>2022-06-22T10:10:36.000Z</time>
      </trkpt>
      <trkpt lat="46.83389" lon="3.08014">
        <ele>179.19999694824</ele>
        <time>2022-06-22T10:10:43.000Z</time>
      </trkpt>
      <trkpt lat="46.83412" lon="3.08021">
        <ele>179.19999694824</ele>
        <time>2022-06-22T10:10:47.000Z</time>
      </trkpt>
      <trkpt lat="46.83467" lon="3.08039">
        <ele>180</ele>
        <time>2022-06-22T10:10:57.000Z</time>
      </trkpt>
      <trkpt lat="46.83515" lon="3.08055">
        <ele>180</ele>
        <time>2022-06-22T10:11:06.000Z</time>
      </trkpt>
      <trkpt lat="46.83526" lon="3.08059">
        <ele>180</ele>
        <time>2022-06-22T10:11:08.000Z</time>
      </trkpt>
      <trkpt lat="46.83555" lon="3.08068">
        <ele>180.60000610352</ele>
        <time>2022-06-22T10:11:13.000Z</time>
      </trkpt>
      <trkpt lat="46.83612" lon="3.08087">
        <ele>179.80000305176</ele>
        <time>2022-06-22T10:11:23.000Z</time>
      </trkpt>
      <trkpt lat="46.83663" lon="3.08094">
        <ele>179.80000305176</ele>
        <time>2022-06-22T10:11:32.000Z</time>
      </trkpt>
      <trkpt lat="46.83707" lon="3.08089">
        <ele>180.19999694824</ele>
        <time>2022-06-22T10:11:40.000Z</time>
      </trkpt>
      <trkpt lat="46.83758" lon="3.08076">
        <ele>180.80000305176</ele>
        <time>2022-06-22T10:11:49.000Z</time>
      </trkpt>
      <trkpt lat="46.83775" lon="3.08072">
        <ele>180.39999389648</ele>
        <time>2022-06-22T10:11:52.000Z</time>
      </trkpt>
      <trkpt lat="46.83804" lon="3.08065">
        <ele>179.39999389648</ele>
        <time>2022-06-22T10:11:57.000Z</time>
      </trkpt>
      <trkpt lat="46.8386" lon="3.08053">
        <ele>179.39999389648</ele>
        <time>2022-06-22T10:12:07.000Z</time>
      </trkpt>
      <trkpt lat="46.83905" lon="3.08045">
        <ele>180.19999694824</ele>
        <time>2022-06-22T10:12:15.000Z</time>
      </trkpt>
      <trkpt lat="46.83946" lon="3.08042">
        <ele>181</ele>
        <time>2022-06-22T10:12:22.000Z</time>
      </trkpt>
      <trkpt lat="46.83952" lon="3.08042">
        <ele>181</ele>
        <time>2022-06-22T10:12:23.000Z</time>
      </trkpt>
      <trkpt lat="46.83987" lon="3.0804">
        <ele>180.60000610352</ele>
        <time>2022-06-22T10:12:29.000Z</time>
      </trkpt>
      <trkpt lat="46.84004" lon="3.0804">
        <ele>179.39999389648</ele>
        <time>2022-06-22T10:12:32.000Z</time>
      </trkpt>
      <trkpt lat="46.84015" lon="3.08039">
        <ele>178.80000305176</ele>
        <time>2022-06-22T10:12:34.000Z</time>
      </trkpt>
      <trkpt lat="46.84044" lon="3.08038">
        <ele>178</ele>
        <time>2022-06-22T10:12:39.000Z</time>
      </trkpt>
      <trkpt lat="46.84094" lon="3.08038">
        <ele>178.39999389648</ele>
        <time>2022-06-22T10:12:48.000Z</time>
      </trkpt>
      <trkpt lat="46.8415" lon="3.08047">
        <ele>180</ele>
        <time>2022-06-22T10:12:58.000Z</time>
      </trkpt>
      <trkpt lat="46.84205" lon="3.08069">
        <ele>181</ele>
        <time>2022-06-22T10:13:08.000Z</time>
      </trkpt>
      <trkpt lat="46.84225" lon="3.08078">
        <ele>180.19999694824</ele>
        <time>2022-06-22T10:13:12.000Z</time>
      </trkpt>
      <trkpt lat="46.84242" lon="3.08086">
        <ele>180</ele>
        <time>2022-06-22T10:13:15.000Z</time>
      </trkpt>
      <trkpt lat="46.84295" lon="3.0811">
        <ele>181</ele>
        <time>2022-06-22T10:13:25.000Z</time>
      </trkpt>
      <trkpt lat="46.843" lon="3.08112">
        <ele>181</ele>
        <time>2022-06-22T10:13:26.000Z</time>
      </trkpt>
      <trkpt lat="46.8431" lon="3.08117">
        <ele>181</ele>
        <time>2022-06-22T10:13:28.000Z</time>
      </trkpt>
      <trkpt lat="46.84329" lon="3.08132">
        <ele>181</ele>
        <time>2022-06-22T10:13:32.000Z</time>
      </trkpt>
      <trkpt lat="46.84358" lon="3.08151">
        <ele>180.39999389648</ele>
        <time>2022-06-22T10:13:38.000Z</time>
      </trkpt>
      <trkpt lat="46.84408" lon="3.08188">
        <ele>179.19999694824</ele>
        <time>2022-06-22T10:13:48.000Z</time>
      </trkpt>
      <trkpt lat="46.84445" lon="3.08209">
        <ele>180</ele>
        <time>2022-06-22T10:13:55.000Z</time>
      </trkpt>
      <trkpt lat="46.84455" lon="3.08215">
        <ele>180</ele>
        <time>2022-06-22T10:13:57.000Z</time>
      </trkpt>
      <trkpt lat="46.84487" lon="3.08232">
        <ele>180</ele>
        <time>2022-06-22T10:14:03.000Z</time>
      </trkpt>
      <trkpt lat="46.84502" lon="3.08241">
        <ele>180</ele>
        <time>2022-06-22T10:14:06.000Z</time>
      </trkpt>
      <trkpt lat="46.84553" lon="3.08275">
        <ele>178.80000305176</ele>
        <time>2022-06-22T10:14:16.000Z</time>
      </trkpt>
      <trkpt lat="46.84599" lon="3.08311">
        <ele>178.19999694824</ele>
        <time>2022-06-22T10:14:25.000Z</time>
      </trkpt>
      <trkpt lat="46.84631" lon="3.08331">
        <ele>179.39999389648</ele>
        <time>2022-06-22T10:14:31.000Z</time>
      </trkpt>
      <trkpt lat="46.84641" lon="3.08337">
        <ele>179.80000305176</ele>
        <time>2022-06-22T10:14:33.000Z</time>
      </trkpt>
      <trkpt lat="46.84689" lon="3.0836">
        <ele>181</ele>
        <time>2022-06-22T10:14:42.000Z</time>
      </trkpt>
      <trkpt lat="46.8473" lon="3.08382">
        <ele>181</ele>
        <time>2022-06-22T10:14:50.000Z</time>
      </trkpt>
      <trkpt lat="46.84768" lon="3.08401">
        <ele>180.80000305176</ele>
        <time>2022-06-22T10:14:57.000Z</time>
      </trkpt>
      <trkpt lat="46.84814" lon="3.08412">
        <ele>180</ele>
        <time>2022-06-22T10:15:05.000Z</time>
      </trkpt>
      <trkpt lat="46.84868" lon="3.0842">
        <ele>180.80000305176</ele>
        <time>2022-06-22T10:15:14.000Z</time>
      </trkpt>
      <trkpt lat="46.84908" lon="3.08424">
        <ele>179.60000610352</ele>
        <time>2022-06-22T10:15:21.000Z</time>
      </trkpt>
      <trkpt lat="46.8492" lon="3.08426">
        <ele>179.19999694824</ele>
        <time>2022-06-22T10:15:23.000Z</time>
      </trkpt>
      <trkpt lat="46.84949" lon="3.08429">
        <ele>179.19999694824</ele>
        <time>2022-06-22T10:15:28.000Z</time>
      </trkpt>
      <trkpt lat="46.84973" lon="3.08431">
        <ele>179.80000305176</ele>
        <time>2022-06-22T10:15:32.000Z</time>
      </trkpt>
      <trkpt lat="46.85026" lon="3.08432">
        <ele>179</ele>
        <time>2022-06-22T10:15:41.000Z</time>
      </trkpt>
      <trkpt lat="46.85065" lon="3.08441">
        <ele>178.39999389648</ele>
        <time>2022-06-22T10:15:48.000Z</time>
      </trkpt>
      <trkpt lat="46.85117" lon="3.08457">
        <ele>177.19999694824</ele>
        <time>2022-06-22T10:15:57.000Z</time>
      </trkpt>
      <trkpt lat="46.85129" lon="3.0846">
        <ele>177.19999694824</ele>
        <time>2022-06-22T10:15:59.000Z</time>
      </trkpt>
      <trkpt lat="46.85162" lon="3.08472">
        <ele>179</ele>
        <time>2022-06-22T10:16:05.000Z</time>
      </trkpt>
      <trkpt lat="46.85207" lon="3.08503">
        <ele>181</ele>
        <time>2022-06-22T10:16:14.000Z</time>
      </trkpt>
      <trkpt lat="46.85246" lon="3.08529">
        <ele>180.39999389648</ele>
        <time>2022-06-22T10:16:22.000Z</time>
      </trkpt>
      <trkpt lat="46.85277" lon="3.08545">
        <ele>181</ele>
        <time>2022-06-22T10:16:28.000Z</time>
      </trkpt>
      <trkpt lat="46.85287" lon="3.0855">
        <ele>181</ele>
        <time>2022-06-22T10:16:30.000Z</time>
      </trkpt>
      <trkpt lat="46.85319" lon="3.08564">
        <ele>179.80000305176</ele>
        <time>2022-06-22T10:16:36.000Z</time>
      </trkpt>
      <trkpt lat="46.85345" lon="3.08577">
        <ele>178.80000305176</ele>
        <time>2022-06-22T10:16:41.000Z</time>
      </trkpt>
      <trkpt lat="46.85384" lon="3.0859">
        <ele>178.39999389648</ele>
        <time>2022-06-22T10:16:48.000Z</time>
      </trkpt>
      <trkpt lat="46.85424" lon="3.08594">
        <ele>177</ele>
        <time>2022-06-22T10:16:55.000Z</time>
      </trkpt>
      <trkpt lat="46.85482" lon="3.0859">
        <ele>177</ele>
        <time>2022-06-22T10:17:05.000Z</time>
      </trkpt>
      <trkpt lat="46.85488" lon="3.0859">
        <ele>176.80000305176</ele>
        <time>2022-06-22T10:17:06.000Z</time>
      </trkpt>
      <trkpt lat="46.85494" lon="3.0859">
        <ele>176.60000610352</ele>
        <time>2022-06-22T10:17:07.000Z</time>
      </trkpt>
      <trkpt lat="46.855" lon="3.0859">
        <ele>176.39999389648</ele>
        <time>2022-06-22T10:17:08.000Z</time>
      </trkpt>
      <trkpt lat="46.85559" lon="3.08588">
        <ele>179.60000610352</ele>
        <time>2022-06-22T10:17:18.000Z</time>
      </trkpt>
      <trkpt lat="46.85563" lon="3.08588">
        <ele>179.80000305176</ele>
        <time>2022-06-22T10:17:19.000Z</time>
      </trkpt>
      <trkpt lat="46.85592" lon="3.08588">
        <ele>180</ele>
        <time>2022-06-22T10:17:25.000Z</time>
      </trkpt>
      <trkpt lat="46.85605" lon="3.08588">
        <ele>179.60000610352</ele>
        <time>2022-06-22T10:17:28.000Z</time>
      </trkpt>
      <trkpt lat="46.85612" lon="3.08591">
        <ele>179.39999389648</ele>
        <time>2022-06-22T10:17:30.000Z</time>
      </trkpt>
      <trkpt lat="46.85615" lon="3.08602">
        <ele>179.19999694824</ele>
        <time>2022-06-22T10:17:32.000Z</time>
      </trkpt>
      <trkpt lat="46.85615" lon="3.08606">
        <ele>179.19999694824</ele>
        <time>2022-06-22T10:17:33.000Z</time>
      </trkpt>
      <trkpt lat="46.8561" lon="3.08644">
        <ele>178.80000305176</ele>
        <time>2022-06-22T10:17:38.000Z</time>
      </trkpt>
      <trkpt lat="46.85609" lon="3.08652">
        <ele>178.80000305176</ele>
        <time>2022-06-22T10:17:39.000Z</time>
      </trkpt>
      <trkpt lat="46.85605" lon="3.08691">
        <ele>178.60000610352</ele>
        <time>2022-06-22T10:17:44.000Z</time>
      </trkpt>
      <trkpt lat="46.85599" lon="3.08742">
        <ele>179.19999694824</ele>
        <time>2022-06-22T10:17:51.000Z</time>
      </trkpt>
      <trkpt lat="46.85591" lon="3.0882">
        <ele>178</ele>
        <time>2022-06-22T10:18:01.000Z</time>
      </trkpt>
      <trkpt lat="46.85585" lon="3.08884">
        <ele>176.60000610352</ele>
        <time>2022-06-22T10:18:09.000Z</time>
      </trkpt>
      <trkpt lat="46.8558" lon="3.08943">
        <ele>177.60000610352</ele>
        <time>2022-06-22T10:18:16.000Z</time>
      </trkpt>
      <trkpt lat="46.85575" lon="3.09029">
        <ele>177.60000610352</ele>
        <time>2022-06-22T10:18:26.000Z</time>
      </trkpt>
      <trkpt lat="46.85576" lon="3.09108">
        <ele>177</ele>
        <time>2022-06-22T10:18:35.000Z</time>
      </trkpt>
      <trkpt lat="46.85576" lon="3.09125">
        <ele>177</ele>
        <time>2022-06-22T10:18:37.000Z</time>
      </trkpt>
      <trkpt lat="46.85577" lon="3.09193">
        <ele>179.60000610352</ele>
        <time>2022-06-22T10:18:45.000Z</time>
      </trkpt>
      <trkpt lat="46.85578" lon="3.09262">
        <ele>180</ele>
        <time>2022-06-22T10:18:53.000Z</time>
      </trkpt>
      <trkpt lat="46.85579" lon="3.09341">
        <ele>179.60000610352</ele>
        <time>2022-06-22T10:19:02.000Z</time>
      </trkpt>
      <trkpt lat="46.8558" lon="3.09426">
        <ele>179</ele>
        <time>2022-06-22T10:19:12.000Z</time>
      </trkpt>
      <trkpt lat="46.85581" lon="3.0951">
        <ele>178.60000610352</ele>
        <time>2022-06-22T10:19:22.000Z</time>
      </trkpt>
      <trkpt lat="46.8558" lon="3.09519">
        <ele>178.60000610352</ele>
        <time>2022-06-22T10:19:23.000Z</time>
      </trkpt>
      <trkpt lat="46.85582" lon="3.09595">
        <ele>178.60000610352</ele>
        <time>2022-06-22T10:19:32.000Z</time>
      </trkpt>
      <trkpt lat="46.85582" lon="3.09671">
        <ele>178.39999389648</ele>
        <time>2022-06-22T10:19:41.000Z</time>
      </trkpt>
      <trkpt lat="46.85582" lon="3.09747">
        <ele>179</ele>
        <time>2022-06-22T10:19:50.000Z</time>
      </trkpt>
      <trkpt lat="46.85583" lon="3.09823">
        <ele>179.60000610352</ele>
        <time>2022-06-22T10:19:59.000Z</time>
      </trkpt>
      <trkpt lat="46.85583" lon="3.09841">
        <ele>179.60000610352</ele>
        <time>2022-06-22T10:20:01.000Z</time>
      </trkpt>
      <trkpt lat="46.85583" lon="3.09863">
        <ele>180</ele>
        <time>2022-06-22T10:20:04.000Z</time>
      </trkpt>
      <trkpt lat="46.85583" lon="3.09893">
        <ele>180</ele>
        <time>2022-06-22T10:20:08.000Z</time>
      </trkpt>
      <trkpt lat="46.85583" lon="3.09933">
        <ele>179</ele>
        <time>2022-06-22T10:20:13.000Z</time>
      </trkpt>
      <trkpt lat="46.85584" lon="3.09951">
        <ele>179</ele>
        <time>2022-06-22T10:20:15.000Z</time>
      </trkpt>
      <trkpt lat="46.85584" lon="3.1">
        <ele>177.60000610352</ele>
        <time>2022-06-22T10:20:21.000Z</time>
      </trkpt>
      <trkpt lat="46.85585" lon="3.10009">
        <ele>177.39999389648</ele>
        <time>2022-06-22T10:20:22.000Z</time>
      </trkpt>
      <trkpt lat="46.85591" lon="3.10078">
        <ele>178</ele>
        <time>2022-06-22T10:20:30.000Z</time>
      </trkpt>
      <trkpt lat="46.85601" lon="3.10136">
        <ele>179</ele>
        <time>2022-06-22T10:20:37.000Z</time>
      </trkpt>
      <trkpt lat="46.85615" lon="3.1021">
        <ele>178</ele>
        <time>2022-06-22T10:20:46.000Z</time>
      </trkpt>
      <trkpt lat="46.85628" lon="3.10272">
        <ele>180</ele>
        <time>2022-06-22T10:20:54.000Z</time>
      </trkpt>
      <trkpt lat="46.85643" lon="3.10351">
        <ele>179.80000305176</ele>
        <time>2022-06-22T10:21:04.000Z</time>
      </trkpt>
      <trkpt lat="46.85648" lon="3.10377">
        <ele>180</ele>
        <time>2022-06-22T10:21:07.000Z</time>
      </trkpt>
      <trkpt lat="46.85662" lon="3.1044">
        <ele>180.19999694824</ele>
        <time>2022-06-22T10:21:15.000Z</time>
      </trkpt>
      <trkpt lat="46.85674" lon="3.10505">
        <ele>179.60000610352</ele>
        <time>2022-06-22T10:21:23.000Z</time>
      </trkpt>
      <trkpt lat="46.85692" lon="3.10586">
        <ele>180.39999389648</ele>
        <time>2022-06-22T10:21:33.000Z</time>
      </trkpt>
      <trkpt lat="46.85705" lon="3.1065">
        <ele>180</ele>
        <time>2022-06-22T10:21:41.000Z</time>
      </trkpt>
      <trkpt lat="46.85718" lon="3.10722">
        <ele>181</ele>
        <time>2022-06-22T10:21:50.000Z</time>
      </trkpt>
      <trkpt lat="46.85724" lon="3.10775">
        <ele>181</ele>
        <time>2022-06-22T10:21:57.000Z</time>
      </trkpt>
      <trkpt lat="46.85725" lon="3.10793">
        <ele>181</ele>
        <time>2022-06-22T10:22:00.000Z</time>
      </trkpt>
      <trkpt lat="46.85727" lon="3.10799">
        <ele>181</ele>
        <time>2022-06-22T10:22:01.000Z</time>
      </trkpt>
      <trkpt lat="46.85728" lon="3.10804">
        <ele>181</ele>
        <time>2022-06-22T10:22:02.000Z</time>
      </trkpt>
      <trkpt lat="46.85732" lon="3.10807">
        <ele>181</ele>
        <time>2022-06-22T10:22:03.000Z</time>
      </trkpt>
      <trkpt lat="46.8574" lon="3.10808">
        <ele>180.80000305176</ele>
        <time>2022-06-22T10:22:05.000Z</time>
      </trkpt>
      <trkpt lat="46.85771" lon="3.10813">
        <ele>179.60000610352</ele>
        <time>2022-06-22T10:22:11.000Z</time>
      </trkpt>
      <trkpt lat="46.85819" lon="3.10818">
        <ele>178.60000610352</ele>
        <time>2022-06-22T10:22:20.000Z</time>
      </trkpt>
      <trkpt lat="46.85865" lon="3.10823">
        <ele>178</ele>
        <time>2022-06-22T10:22:28.000Z</time>
      </trkpt>
      <trkpt lat="46.85871" lon="3.10824">
        <ele>178</ele>
        <time>2022-06-22T10:22:29.000Z</time>
      </trkpt>
      <trkpt lat="46.85912" lon="3.10828">
        <ele>179.19999694824</ele>
        <time>2022-06-22T10:22:36.000Z</time>
      </trkpt>
      <trkpt lat="46.85958" lon="3.10834">
        <ele>179.39999389648</ele>
        <time>2022-06-22T10:22:44.000Z</time>
      </trkpt>
      <trkpt lat="46.86005" lon="3.10838">
        <ele>179</ele>
        <time>2022-06-22T10:22:52.000Z</time>
      </trkpt>
      <trkpt lat="46.86064" lon="3.10845">
        <ele>181.80000305176</ele>
        <time>2022-06-22T10:23:02.000Z</time>
      </trkpt>
      <trkpt lat="46.86069" lon="3.10846">
        <ele>182</ele>
        <time>2022-06-22T10:23:03.000Z</time>
      </trkpt>
      <trkpt lat="46.86124" lon="3.10852">
        <ele>182</ele>
        <time>2022-06-22T10:23:12.000Z</time>
      </trkpt>
      <trkpt lat="46.86129" lon="3.10853">
        <ele>182</ele>
        <time>2022-06-22T10:23:13.000Z</time>
      </trkpt>
      <trkpt lat="46.86153" lon="3.10855">
        <ele>181.80000305176</ele>
        <time>2022-06-22T10:23:17.000Z</time>
      </trkpt>
      <trkpt lat="46.86163" lon="3.10857">
        <ele>182</ele>
        <time>2022-06-22T10:23:19.000Z</time>
      </trkpt>
      <trkpt lat="46.86198" lon="3.10858">
        <ele>182.39999389648</ele>
        <time>2022-06-22T10:23:25.000Z</time>
      </trkpt>
      <trkpt lat="46.86204" lon="3.10859">
        <ele>182.39999389648</ele>
        <time>2022-06-22T10:23:26.000Z</time>
      </trkpt>
      <trkpt lat="46.86215" lon="3.10866">
        <ele>182.19999694824</ele>
        <time>2022-06-22T10:23:28.000Z</time>
      </trkpt>
      <trkpt lat="46.86221" lon="3.10871">
        <ele>182</ele>
        <time>2022-06-22T10:23:29.000Z</time>
      </trkpt>
      <trkpt lat="46.8623" lon="3.10885">
        <ele>181.39999389648</ele>
        <time>2022-06-22T10:23:31.000Z</time>
      </trkpt>
      <trkpt lat="46.86237" lon="3.10899">
        <ele>180.60000610352</ele>
        <time>2022-06-22T10:23:33.000Z</time>
      </trkpt>
      <trkpt lat="46.86252" lon="3.1093">
        <ele>180.60000610352</ele>
        <time>2022-06-22T10:23:37.000Z</time>
      </trkpt>
      <trkpt lat="46.86261" lon="3.10957">
        <ele>180.19999694824</ele>
        <time>2022-06-22T10:23:40.000Z</time>
      </trkpt>
      <trkpt lat="46.86283" lon="3.11032">
        <ele>180.60000610352</ele>
        <time>2022-06-22T10:23:48.000Z</time>
      </trkpt>
      <trkpt lat="46.86285" lon="3.11041">
        <ele>180.80000305176</ele>
        <time>2022-06-22T10:23:49.000Z</time>
      </trkpt>
      <trkpt lat="46.86303" lon="3.11103">
        <ele>181.60000610352</ele>
        <time>2022-06-22T10:23:56.000Z</time>
      </trkpt>
      <trkpt lat="46.86317" lon="3.11151">
        <ele>181.19999694824</ele>
        <time>2022-06-22T10:24:02.000Z</time>
      </trkpt>
      <trkpt lat="46.86323" lon="3.11175">
        <ele>180</ele>
        <time>2022-06-22T10:24:05.000Z</time>
      </trkpt>
      <trkpt lat="46.86336" lon="3.11224">
        <ele>178.80000305176</ele>
        <time>2022-06-22T10:24:11.000Z</time>
      </trkpt>
      <trkpt lat="46.86358" lon="3.11306">
        <ele>180.39999389648</ele>
        <time>2022-06-22T10:24:21.000Z</time>
      </trkpt>
      <trkpt lat="46.86363" lon="3.11323">
        <ele>181</ele>
        <time>2022-06-22T10:24:23.000Z</time>
      </trkpt>
      <trkpt lat="46.86375" lon="3.11377">
        <ele>180.80000305176</ele>
        <time>2022-06-22T10:24:29.000Z</time>
      </trkpt>
      <trkpt lat="46.86376" lon="3.11386">
        <ele>180.80000305176</ele>
        <time>2022-06-22T10:24:30.000Z</time>
      </trkpt>
      <trkpt lat="46.86381" lon="3.11446">
        <ele>181</ele>
        <time>2022-06-22T10:24:37.000Z</time>
      </trkpt>
      <trkpt lat="46.86385" lon="3.11512">
        <ele>181.39999389648</ele>
        <time>2022-06-22T10:24:45.000Z</time>
      </trkpt>
      <trkpt lat="46.86384" lon="3.11571">
        <ele>181.60000610352</ele>
        <time>2022-06-22T10:24:52.000Z</time>
      </trkpt>
      <trkpt lat="46.86374" lon="3.11649">
        <ele>182.80000305176</ele>
        <time>2022-06-22T10:25:01.000Z</time>
      </trkpt>
      <trkpt lat="46.86371" lon="3.11672">
        <ele>183</ele>
        <time>2022-06-22T10:25:04.000Z</time>
      </trkpt>
      <trkpt lat="46.86365" lon="3.11719">
        <ele>182</ele>
        <time>2022-06-22T10:25:10.000Z</time>
      </trkpt>
      <trkpt lat="46.86362" lon="3.11762">
        <ele>182.80000305176</ele>
        <time>2022-06-22T10:25:16.000Z</time>
      </trkpt>
      <trkpt lat="46.86365" lon="3.11792">
        <ele>182.19999694824</ele>
        <time>2022-06-22T10:25:20.000Z</time>
      </trkpt>
      <trkpt lat="46.86366" lon="3.11799">
        <ele>182.19999694824</ele>
        <time>2022-06-22T10:25:21.000Z</time>
      </trkpt>
      <trkpt lat="46.86368" lon="3.11813">
        <ele>182.19999694824</ele>
        <time>2022-06-22T10:25:23.000Z</time>
      </trkpt>
      <trkpt lat="46.86375" lon="3.11821">
        <ele>182.19999694824</ele>
        <time>2022-06-22T10:25:25.000Z</time>
      </trkpt>
      <trkpt lat="46.86384" lon="3.1182">
        <ele>182.39999389648</ele>
        <time>2022-06-22T10:25:27.000Z</time>
      </trkpt>
      <trkpt lat="46.86389" lon="3.11817">
        <ele>182.60000610352</ele>
        <time>2022-06-22T10:25:28.000Z</time>
      </trkpt>
      <trkpt lat="46.86399" lon="3.11812">
        <ele>183</ele>
        <time>2022-06-22T10:25:30.000Z</time>
      </trkpt>
      <trkpt lat="46.86418" lon="3.11805">
        <ele>183.39999389648</ele>
        <time>2022-06-22T10:25:34.000Z</time>
      </trkpt>
      <trkpt lat="46.8643" lon="3.11799">
        <ele>183.80000305176</ele>
        <time>2022-06-22T10:25:36.000Z</time>
      </trkpt>
      <trkpt lat="46.86451" lon="3.11793">
        <ele>184</ele>
        <time>2022-06-22T10:25:40.000Z</time>
      </trkpt>
      <trkpt lat="46.86495" lon="3.11793">
        <ele>184</ele>
        <time>2022-06-22T10:25:48.000Z</time>
      </trkpt>
      <trkpt lat="46.86528" lon="3.11795">
        <ele>184</ele>
        <time>2022-06-22T10:25:54.000Z</time>
      </trkpt>
      <trkpt lat="46.86539" lon="3.11794">
        <ele>184</ele>
        <time>2022-06-22T10:25:56.000Z</time>
      </trkpt>
      <trkpt lat="46.86562" lon="3.1179">
        <ele>184.80000305176</ele>
        <time>2022-06-22T10:26:00.000Z</time>
      </trkpt>
      <trkpt lat="46.86589" lon="3.11786">
        <ele>184.19999694824</ele>
        <time>2022-06-22T10:26:05.000Z</time>
      </trkpt>
      <trkpt lat="46.86627" lon="3.11782">
        <ele>184.19999694824</ele>
        <time>2022-06-22T10:26:12.000Z</time>
      </trkpt>
      <trkpt lat="46.86646" lon="3.11782">
        <ele>185</ele>
        <time>2022-06-22T10:26:16.000Z</time>
      </trkpt>
      <trkpt lat="46.86688" lon="3.11782">
        <ele>186</ele>
        <time>2022-06-22T10:26:24.000Z</time>
      </trkpt>
      <trkpt lat="46.86699" lon="3.11781">
        <ele>186</ele>
        <time>2022-06-22T10:26:26.000Z</time>
      </trkpt>
      <trkpt lat="46.86726" lon="3.11775">
        <ele>186</ele>
        <time>2022-06-22T10:26:31.000Z</time>
      </trkpt>
      <trkpt lat="46.86747" lon="3.11769">
        <ele>186.60000610352</ele>
        <time>2022-06-22T10:26:35.000Z</time>
      </trkpt>
      <trkpt lat="46.86772" lon="3.11759">
        <ele>187.39999389648</ele>
        <time>2022-06-22T10:26:40.000Z</time>
      </trkpt>
      <trkpt lat="46.86819" lon="3.11743">
        <ele>187</ele>
        <time>2022-06-22T10:26:49.000Z</time>
      </trkpt>
      <trkpt lat="46.86871" lon="3.11723">
        <ele>187</ele>
        <time>2022-06-22T10:26:59.000Z</time>
      </trkpt>
      <trkpt lat="46.86891" lon="3.11713">
        <ele>188.39999389648</ele>
        <time>2022-06-22T10:27:03.000Z</time>
      </trkpt>
      <trkpt lat="46.8692" lon="3.117">
        <ele>188.80000305176</ele>
        <time>2022-06-22T10:27:09.000Z</time>
      </trkpt>
      <trkpt lat="46.86924" lon="3.11697">
        <ele>189</ele>
        <time>2022-06-22T10:27:10.000Z</time>
      </trkpt>
      <trkpt lat="46.8695" lon="3.11679">
        <ele>189</ele>
        <time>2022-06-22T10:27:16.000Z</time>
      </trkpt>
      <trkpt lat="46.86959" lon="3.11673">
        <ele>189</ele>
        <time>2022-06-22T10:27:18.000Z</time>
      </trkpt>
      <trkpt lat="46.86977" lon="3.11663">
        <ele>189.60000610352</ele>
        <time>2022-06-22T10:27:22.000Z</time>
      </trkpt>
      <trkpt lat="46.86986" lon="3.11657">
        <ele>190.19999694824</ele>
        <time>2022-06-22T10:27:24.000Z</time>
      </trkpt>
      <trkpt lat="46.86991" lon="3.11654">
        <ele>190.60000610352</ele>
        <time>2022-06-22T10:27:25.000Z</time>
      </trkpt>
      <trkpt lat="46.87014" lon="3.11638">
        <ele>192.19999694824</ele>
        <time>2022-06-22T10:27:30.000Z</time>
      </trkpt>
      <trkpt lat="46.87024" lon="3.11631">
        <ele>192.39999389648</ele>
        <time>2022-06-22T10:27:32.000Z</time>
      </trkpt>
      <trkpt lat="46.87051" lon="3.11616">
        <ele>194</ele>
        <time>2022-06-22T10:27:38.000Z</time>
      </trkpt>
      <trkpt lat="46.87065" lon="3.11609">
        <ele>194.19999694824</ele>
        <time>2022-06-22T10:27:41.000Z</time>
      </trkpt>
      <trkpt lat="46.87073" lon="3.11603">
        <ele>194.19999694824</ele>
        <time>2022-06-22T10:27:43.000Z</time>
      </trkpt>
      <trkpt lat="46.87105" lon="3.11585">
        <ele>194.39999389648</ele>
        <time>2022-06-22T10:27:50.000Z</time>
      </trkpt>
      <trkpt lat="46.87132" lon="3.11571">
        <ele>195.60000610352</ele>
        <time>2022-06-22T10:27:56.000Z</time>
      </trkpt>
      <trkpt lat="46.87146" lon="3.11567">
        <ele>196.60000610352</ele>
        <time>2022-06-22T10:27:59.000Z</time>
      </trkpt>
      <trkpt lat="46.87155" lon="3.11566">
        <ele>197.39999389648</ele>
        <time>2022-06-22T10:28:01.000Z</time>
      </trkpt>
      <trkpt lat="46.87184" lon="3.11565">
        <ele>199.19999694824</ele>
        <time>2022-06-22T10:28:07.000Z</time>
      </trkpt>
      <trkpt lat="46.87217" lon="3.11563">
        <ele>200</ele>
        <time>2022-06-22T10:28:14.000Z</time>
      </trkpt>
      <trkpt lat="46.87251" lon="3.1156">
        <ele>201.19999694824</ele>
        <time>2022-06-22T10:28:22.000Z</time>
      </trkpt>
      <trkpt lat="46.87275" lon="3.11551">
        <ele>201</ele>
        <time>2022-06-22T10:28:27.000Z</time>
      </trkpt>
      <trkpt lat="46.87287" lon="3.11543">
        <ele>199.80000305176</ele>
        <time>2022-06-22T10:28:30.000Z</time>
      </trkpt>
      <trkpt lat="46.87292" lon="3.11541">
        <ele>199.80000305176</ele>
        <time>2022-06-22T10:28:31.000Z</time>
      </trkpt>
      <trkpt lat="46.87301" lon="3.11542">
        <ele>200.19999694824</ele>
        <time>2022-06-22T10:28:33.000Z</time>
      </trkpt>
      <trkpt lat="46.87305" lon="3.11545">
        <ele>200.60000610352</ele>
        <time>2022-06-22T10:28:34.000Z</time>
      </trkpt>
      <trkpt lat="46.87308" lon="3.11549">
        <ele>200.60000610352</ele>
        <time>2022-06-22T10:28:35.000Z</time>
      </trkpt>
      <trkpt lat="46.87311" lon="3.11562">
        <ele>200.80000305176</ele>
        <time>2022-06-22T10:28:37.000Z</time>
      </trkpt>
      <trkpt lat="46.87312" lon="3.11569">
        <ele>200.80000305176</ele>
        <time>2022-06-22T10:28:38.000Z</time>
      </trkpt>
      <trkpt lat="46.87313" lon="3.11583">
        <ele>201</ele>
        <time>2022-06-22T10:28:40.000Z</time>
      </trkpt>
      <trkpt lat="46.87313" lon="3.11597">
        <ele>201</ele>
        <time>2022-06-22T10:28:42.000Z</time>
      </trkpt>
      <trkpt lat="46.87314" lon="3.11611">
        <ele>201</ele>
        <time>2022-06-22T10:28:44.000Z</time>
      </trkpt>
      <trkpt lat="46.87317" lon="3.11631">
        <ele>201</ele>
        <time>2022-06-22T10:28:47.000Z</time>
      </trkpt>
      <trkpt lat="46.87319" lon="3.11639">
        <ele>201.19999694824</ele>
        <time>2022-06-22T10:28:48.000Z</time>
      </trkpt>
      <trkpt lat="46.87321" lon="3.11646">
        <ele>201.39999389648</ele>
        <time>2022-06-22T10:28:49.000Z</time>
      </trkpt>
      <trkpt lat="46.87323" lon="3.11652">
        <ele>201.39999389648</ele>
        <time>2022-06-22T10:28:50.000Z</time>
      </trkpt>
      <trkpt lat="46.87336" lon="3.11685">
        <ele>202.39999389648</ele>
        <time>2022-06-22T10:28:55.000Z</time>
      </trkpt>
      <trkpt lat="46.87345" lon="3.11703">
        <ele>203</ele>
        <time>2022-06-22T10:28:58.000Z</time>
      </trkpt>
      <trkpt lat="46.87351" lon="3.11715">
        <ele>202.80000305176</ele>
        <time>2022-06-22T10:29:00.000Z</time>
      </trkpt>
      <trkpt lat="46.87384" lon="3.1178">
        <ele>202</ele>
        <time>2022-06-22T10:29:10.000Z</time>
      </trkpt>
      <trkpt lat="46.8739" lon="3.11792">
        <ele>202</ele>
        <time>2022-06-22T10:29:12.000Z</time>
      </trkpt>
      <trkpt lat="46.87404" lon="3.11832">
        <ele>200.80000305176</ele>
        <time>2022-06-22T10:29:18.000Z</time>
      </trkpt>
      <trkpt lat="46.8742" lon="3.11883">
        <ele>200.39999389648</ele>
        <time>2022-06-22T10:29:25.000Z</time>
      </trkpt>
      <trkpt lat="46.87424" lon="3.11898">
        <ele>200.80000305176</ele>
        <time>2022-06-22T10:29:27.000Z</time>
      </trkpt>
      <trkpt lat="46.87427" lon="3.11914">
        <ele>201.19999694824</ele>
        <time>2022-06-22T10:29:29.000Z</time>
      </trkpt>
      <trkpt lat="46.87428" lon="3.11922">
        <ele>201.60000610352</ele>
        <time>2022-06-22T10:29:30.000Z</time>
      </trkpt>
      <trkpt lat="46.87434" lon="3.11967">
        <ele>202.80000305176</ele>
        <time>2022-06-22T10:29:36.000Z</time>
      </trkpt>
      <trkpt lat="46.87436" lon="3.11983">
        <ele>202.60000610352</ele>
        <time>2022-06-22T10:29:38.000Z</time>
      </trkpt>
      <trkpt lat="46.87438" lon="3.12006">
        <ele>202.60000610352</ele>
        <time>2022-06-22T10:29:41.000Z</time>
      </trkpt>
      <trkpt lat="46.87442" lon="3.12035">
        <ele>203</ele>
        <time>2022-06-22T10:29:45.000Z</time>
      </trkpt>
      <trkpt lat="46.87449" lon="3.12094">
        <ele>203</ele>
        <time>2022-06-22T10:29:52.000Z</time>
      </trkpt>
      <trkpt lat="46.87457" lon="3.12159">
        <ele>201</ele>
        <time>2022-06-22T10:30:00.000Z</time>
      </trkpt>
      <trkpt lat="46.87458" lon="3.12166">
        <ele>201.19999694824</ele>
        <time>2022-06-22T10:30:01.000Z</time>
      </trkpt>
      <trkpt lat="46.87468" lon="3.12228">
        <ele>202.60000610352</ele>
        <time>2022-06-22T10:30:09.000Z</time>
      </trkpt>
      <trkpt lat="46.87485" lon="3.12304">
        <ele>203</ele>
        <time>2022-06-22T10:30:19.000Z</time>
      </trkpt>
      <trkpt lat="46.87504" lon="3.12366">
        <ele>201.39999389648</ele>
        <time>2022-06-22T10:30:27.000Z</time>
      </trkpt>
      <trkpt lat="46.87513" lon="3.12395">
        <ele>200.39999389648</ele>
        <time>2022-06-22T10:30:31.000Z</time>
      </trkpt>
      <trkpt lat="46.87521" lon="3.12415">
        <ele>200</ele>
        <time>2022-06-22T10:30:34.000Z</time>
      </trkpt>
      <trkpt lat="46.87549" lon="3.12464">
        <ele>199.39999389648</ele>
        <time>2022-06-22T10:30:41.000Z</time>
      </trkpt>
      <trkpt lat="46.87585" lon="3.1251">
        <ele>200.60000610352</ele>
        <time>2022-06-22T10:30:49.000Z</time>
      </trkpt>
      <trkpt lat="46.87614" lon="3.12537">
        <ele>201</ele>
        <time>2022-06-22T10:30:55.000Z</time>
      </trkpt>
      <trkpt lat="46.87647" lon="3.12562">
        <ele>202.60000610352</ele>
        <time>2022-06-22T10:31:02.000Z</time>
      </trkpt>
      <trkpt lat="46.8769" lon="3.12593">
        <ele>203.60000610352</ele>
        <time>2022-06-22T10:31:11.000Z</time>
      </trkpt>
      <trkpt lat="46.87705" lon="3.12601">
        <ele>203</ele>
        <time>2022-06-22T10:31:14.000Z</time>
      </trkpt>
      <trkpt lat="46.8773" lon="3.12614">
        <ele>203.39999389648</ele>
        <time>2022-06-22T10:31:19.000Z</time>
      </trkpt>
      <trkpt lat="46.87772" lon="3.12633">
        <ele>204</ele>
        <time>2022-06-22T10:31:27.000Z</time>
      </trkpt>
      <trkpt lat="46.87794" lon="3.12657">
        <ele>204</ele>
        <time>2022-06-22T10:31:32.000Z</time>
      </trkpt>
      <trkpt lat="46.87815" lon="3.12687">
        <ele>205.19999694824</ele>
        <time>2022-06-22T10:31:37.000Z</time>
      </trkpt>
      <trkpt lat="46.87828" lon="3.12705">
        <ele>205.39999389648</ele>
        <time>2022-06-22T10:31:40.000Z</time>
      </trkpt>
      <trkpt lat="46.87865" lon="3.12757">
        <ele>204.80000305176</ele>
        <time>2022-06-22T10:31:49.000Z</time>
      </trkpt>
      <trkpt lat="46.879" lon="3.12803">
        <ele>205</ele>
        <time>2022-06-22T10:31:57.000Z</time>
      </trkpt>
      <trkpt lat="46.87944" lon="3.12855">
        <ele>203</ele>
        <time>2022-06-22T10:32:07.000Z</time>
      </trkpt>
      <trkpt lat="46.87984" lon="3.12899">
        <ele>202</ele>
        <time>2022-06-22T10:32:15.000Z</time>
      </trkpt>
      <trkpt lat="46.88027" lon="3.1295">
        <ele>204.60000610352</ele>
        <time>2022-06-22T10:32:24.000Z</time>
      </trkpt>
      <trkpt lat="46.88046" lon="3.12973">
        <ele>204.80000305176</ele>
        <time>2022-06-22T10:32:28.000Z</time>
      </trkpt>
      <trkpt lat="46.88064" lon="3.12996">
        <ele>204</ele>
        <time>2022-06-22T10:32:32.000Z</time>
      </trkpt>
      <trkpt lat="46.88106" lon="3.1305">
        <ele>204</ele>
        <time>2022-06-22T10:32:41.000Z</time>
      </trkpt>
      <trkpt lat="46.88115" lon="3.13062">
        <ele>204</ele>
        <time>2022-06-22T10:32:43.000Z</time>
      </trkpt>
      <trkpt lat="46.88151" lon="3.13116">
        <ele>204</ele>
        <time>2022-06-22T10:32:52.000Z</time>
      </trkpt>
      <trkpt lat="46.88183" lon="3.13176">
        <ele>203</ele>
        <time>2022-06-22T10:33:01.000Z</time>
      </trkpt>
      <trkpt lat="46.88215" lon="3.13236">
        <ele>203.80000305176</ele>
        <time>2022-06-22T10:33:10.000Z</time>
      </trkpt>
      <trkpt lat="46.88249" lon="3.13303">
        <ele>204.19999694824</ele>
        <time>2022-06-22T10:33:20.000Z</time>
      </trkpt>
      <trkpt lat="46.88252" lon="3.13308">
        <ele>204.39999389648</ele>
        <time>2022-06-22T10:33:21.000Z</time>
      </trkpt>
      <trkpt lat="46.88287" lon="3.13374">
        <ele>205.19999694824</ele>
        <time>2022-06-22T10:33:31.000Z</time>
      </trkpt>
      <trkpt lat="46.88294" lon="3.13388">
        <ele>205</ele>
        <time>2022-06-22T10:33:33.000Z</time>
      </trkpt>
      <trkpt lat="46.88314" lon="3.13426">
        <ele>205</ele>
        <time>2022-06-22T10:33:39.000Z</time>
      </trkpt>
      <trkpt lat="46.8832" lon="3.13437">
        <ele>205.19999694824</ele>
        <time>2022-06-22T10:33:41.000Z</time>
      </trkpt>
      <trkpt lat="46.88342" lon="3.13483">
        <ele>207.39999389648</ele>
        <time>2022-06-22T10:33:48.000Z</time>
      </trkpt>
      <trkpt lat="46.88345" lon="3.13489">
        <ele>208</ele>
        <time>2022-06-22T10:33:49.000Z</time>
      </trkpt>
      <trkpt lat="46.88353" lon="3.13509">
        <ele>208.60000610352</ele>
        <time>2022-06-22T10:33:52.000Z</time>
      </trkpt>
      <trkpt lat="46.88361" lon="3.13535">
        <ele>209.19999694824</ele>
        <time>2022-06-22T10:33:56.000Z</time>
      </trkpt>
      <trkpt lat="46.88374" lon="3.13574">
        <ele>210</ele>
        <time>2022-06-22T10:34:02.000Z</time>
      </trkpt>
      <trkpt lat="46.8838" lon="3.13592">
        <ele>210.19999694824</ele>
        <time>2022-06-22T10:34:05.000Z</time>
      </trkpt>
      <trkpt lat="46.88388" lon="3.1362">
        <ele>210.39999389648</ele>
        <time>2022-06-22T10:34:09.000Z</time>
      </trkpt>
      <trkpt lat="46.88401" lon="3.13664">
        <ele>211.39999389648</ele>
        <time>2022-06-22T10:34:15.000Z</time>
      </trkpt>
      <trkpt lat="46.88403" lon="3.1367">
        <ele>211.80000305176</ele>
        <time>2022-06-22T10:34:16.000Z</time>
      </trkpt>
      <trkpt lat="46.88415" lon="3.13703">
        <ele>213.80000305176</ele>
        <time>2022-06-22T10:34:21.000Z</time>
      </trkpt>
      <trkpt lat="46.88418" lon="3.13715">
        <ele>214.39999389648</ele>
        <time>2022-06-22T10:34:23.000Z</time>
      </trkpt>
      <trkpt lat="46.88422" lon="3.13729">
        <ele>215.19999694824</ele>
        <time>2022-06-22T10:34:25.000Z</time>
      </trkpt>
      <trkpt lat="46.88429" lon="3.13756">
        <ele>216</ele>
        <time>2022-06-22T10:34:29.000Z</time>
      </trkpt>
      <trkpt lat="46.88433" lon="3.13769">
        <ele>216.19999694824</ele>
        <time>2022-06-22T10:34:31.000Z</time>
      </trkpt>
      <trkpt lat="46.8844" lon="3.13795">
        <ele>216.39999389648</ele>
        <time>2022-06-22T10:34:35.000Z</time>
      </trkpt>
      <trkpt lat="46.88449" lon="3.13828">
        <ele>216</ele>
        <time>2022-06-22T10:34:40.000Z</time>
      </trkpt>
      <trkpt lat="46.88451" lon="3.13833">
        <ele>216.19999694824</ele>
        <time>2022-06-22T10:34:41.000Z</time>
      </trkpt>
      <trkpt lat="46.88467" lon="3.13879">
        <ele>217.39999389648</ele>
        <time>2022-06-22T10:34:48.000Z</time>
      </trkpt>
      <trkpt lat="46.88472" lon="3.13892">
        <ele>218</ele>
        <time>2022-06-22T10:34:50.000Z</time>
      </trkpt>
      <trkpt lat="46.88495" lon="3.13958">
        <ele>218.60000610352</ele>
        <time>2022-06-22T10:35:00.000Z</time>
      </trkpt>
      <trkpt lat="46.88518" lon="3.1401">
        <ele>218</ele>
        <time>2022-06-22T10:35:08.000Z</time>
      </trkpt>
      <trkpt lat="46.88526" lon="3.14019">
        <ele>218</ele>
        <time>2022-06-22T10:35:10.000Z</time>
      </trkpt>
      <trkpt lat="46.88542" lon="3.14038">
        <ele>218.19999694824</ele>
        <time>2022-06-22T10:35:15.000Z</time>
      </trkpt>
      <trkpt lat="46.88547" lon="3.14048">
        <ele>218.19999694824</ele>
        <time>2022-06-22T10:35:16.000Z</time>
      </trkpt>
      <trkpt lat="46.88548" lon="3.1406">
        <ele>218</ele>
        <time>2022-06-22T10:35:18.000Z</time>
      </trkpt>
      <trkpt lat="46.88541" lon="3.14112">
        <ele>215.80000305176</ele>
        <time>2022-06-22T10:35:25.000Z</time>
      </trkpt>
      <trkpt lat="46.88536" lon="3.14175">
        <ele>213.19999694824</ele>
        <time>2022-06-22T10:35:32.000Z</time>
      </trkpt>
      <trkpt lat="46.88537" lon="3.14213">
        <ele>212</ele>
        <time>2022-06-22T10:35:36.000Z</time>
      </trkpt>
      <trkpt lat="46.88539" lon="3.14233">
        <ele>212</ele>
        <time>2022-06-22T10:35:38.000Z</time>
      </trkpt>
      <trkpt lat="46.88542" lon="3.14273">
        <ele>211.19999694824</ele>
        <time>2022-06-22T10:35:43.000Z</time>
      </trkpt>
      <trkpt lat="46.88546" lon="3.14324">
        <ele>211.19999694824</ele>
        <time>2022-06-22T10:35:47.000Z</time>
      </trkpt>
      <trkpt lat="46.88548" lon="3.14345">
        <ele>211.39999389648</ele>
        <time>2022-06-22T10:35:49.000Z</time>
      </trkpt>
      <trkpt lat="46.88553" lon="3.14394">
        <ele>212</ele>
        <time>2022-06-22T10:35:54.000Z</time>
      </trkpt>
      <trkpt lat="46.88555" lon="3.14412">
        <ele>212</ele>
        <time>2022-06-22T10:35:56.000Z</time>
      </trkpt>
      <trkpt lat="46.88564" lon="3.14465">
        <ele>212</ele>
        <time>2022-06-22T10:36:02.000Z</time>
      </trkpt>
      <trkpt lat="46.88569" lon="3.14491">
        <ele>212</ele>
        <time>2022-06-22T10:36:05.000Z</time>
      </trkpt>
      <trkpt lat="46.88574" lon="3.14529">
        <ele>211.60000610352</ele>
        <time>2022-06-22T10:36:09.000Z</time>
      </trkpt>
      <trkpt lat="46.88575" lon="3.14538">
        <ele>211.19999694824</ele>
        <time>2022-06-22T10:36:11.000Z</time>
      </trkpt>
      <trkpt lat="46.88573" lon="3.14558">
        <ele>210.80000305176</ele>
        <time>2022-06-22T10:36:12.000Z</time>
      </trkpt>
      <trkpt lat="46.88571" lon="3.14566">
        <ele>210.80000305176</ele>
        <time>2022-06-22T10:36:13.000Z</time>
      </trkpt>
      <trkpt lat="46.88559" lon="3.14609">
        <ele>209.80000305176</ele>
        <time>2022-06-22T10:36:18.000Z</time>
      </trkpt>
      <trkpt lat="46.88552" lon="3.14635">
        <ele>209.39999389648</ele>
        <time>2022-06-22T10:36:21.000Z</time>
      </trkpt>
      <trkpt lat="46.88532" lon="3.14696">
        <ele>208.19999694824</ele>
        <time>2022-06-22T10:36:28.000Z</time>
      </trkpt>
      <trkpt lat="46.8851" lon="3.1476">
        <ele>209.60000610352</ele>
        <time>2022-06-22T10:36:36.000Z</time>
      </trkpt>
      <trkpt lat="46.88486" lon="3.1483">
        <ele>208</ele>
        <time>2022-06-22T10:36:45.000Z</time>
      </trkpt>
      <trkpt lat="46.88483" lon="3.14838">
        <ele>207.39999389648</ele>
        <time>2022-06-22T10:36:46.000Z</time>
      </trkpt>
      <trkpt lat="46.88466" lon="3.14891">
        <ele>206.60000610352</ele>
        <time>2022-06-22T10:36:53.000Z</time>
      </trkpt>
      <trkpt lat="46.88446" lon="3.14954">
        <ele>205</ele>
        <time>2022-06-22T10:37:02.000Z</time>
      </trkpt>
      <trkpt lat="46.88438" lon="3.14956">
        <ele>205</ele>
        <time>2022-06-22T10:37:04.000Z</time>
      </trkpt>
      <trkpt lat="46.88435" lon="3.14954">
        <ele>205</ele>
        <time>2022-06-22T10:37:05.000Z</time>
      </trkpt>
      <trkpt lat="46.88435" lon="3.14948">
        <ele>205</ele>
        <time>2022-06-22T10:37:06.000Z</time>
      </trkpt>
      <trkpt lat="46.88434" lon="3.14906">
        <ele>205.19999694824</ele>
        <time>2022-06-22T10:37:11.000Z</time>
      </trkpt>
      <trkpt lat="46.88431" lon="3.14874">
        <ele>206.39999389648</ele>
        <time>2022-06-22T10:37:15.000Z</time>
      </trkpt>
      <trkpt lat="46.88429" lon="3.14867">
        <ele>206.39999389648</ele>
        <time>2022-06-22T10:37:16.000Z</time>
      </trkpt>
      <trkpt lat="46.88426" lon="3.1486">
        <ele>206.60000610352</ele>
        <time>2022-06-22T10:37:17.000Z</time>
      </trkpt>
      <trkpt lat="46.88419" lon="3.14851">
        <ele>206.60000610352</ele>
        <time>2022-06-22T10:37:19.000Z</time>
      </trkpt>
      <trkpt lat="46.88415" lon="3.14849">
        <ele>206.60000610352</ele>
        <time>2022-06-22T10:37:20.000Z</time>
      </trkpt>
      <trkpt lat="46.88411" lon="3.14847">
        <ele>206.60000610352</ele>
        <time>2022-06-22T10:37:21.000Z</time>
      </trkpt>
      <trkpt lat="46.88403" lon="3.14845">
        <ele>206.39999389648</ele>
        <time>2022-06-22T10:37:24.000Z</time>
      </trkpt>
      <trkpt lat="46.88399" lon="3.14841">
        <ele>206.39999389648</ele>
        <time>2022-06-22T10:37:28.000Z</time>
      </trkpt>
      <trkpt lat="46.88399" lon="3.14841">
        <ele>206.39999389648</ele>
        <time>2022-06-22T10:37:33.000Z</time>
      </trkpt>
    </trkseg>
  </trk>
</gpx>